<?xml version="1.0" encoding="UTF-8" standalone="no" ?>
<gpx xmlns="http://www.topografix.com/GPX/1/1" xmlns:xsi="http://www.w3.org/2001/XMLSchema-instance" xsi:schemaLocation="http://www.topografix.com/GPX/1/1 http://www.topografix.com/GPX/1/1/gpx.xsd" version="1.1" creator="VisuGPX - https://www.visugpx.com">
  <metadata>
    <name>2 oct. 2022_Sortie UFOLEP</name>
  </metadata>
  <trk>
    <name><![CDATA[2 oct. 2022]]></name>
    <extensions>
      <line xmlns="http://www.topografix.com/GPX/gpx_style/0/2">
        <color>0000FF</color>
        <width>4</width>
      </line>
    </extensions>
    <trkseg>
      <trkpt lat="45.92388" lon="1.17515">
        <ele>312.8</ele>
        <time>2022-10-02T06:57:06Z</time>
      </trkpt>
      <trkpt lat="45.92388" lon="1.17515">
        <ele>312.8</ele>
        <time>2022-10-02T06:57:09Z</time>
      </trkpt>
      <trkpt lat="45.92386" lon="1.17507">
        <ele>312.5</ele>
        <time>2022-10-02T06:57:35Z</time>
      </trkpt>
      <trkpt lat="45.92386" lon="1.17503">
        <ele>312.4</ele>
        <time>2022-10-02T06:57:36Z</time>
      </trkpt>
      <trkpt lat="45.92387" lon="1.17499">
        <ele>312.3</ele>
        <time>2022-10-02T06:57:37Z</time>
      </trkpt>
      <trkpt lat="45.92387" lon="1.17494">
        <ele>312.1</ele>
        <time>2022-10-02T06:57:38Z</time>
      </trkpt>
      <trkpt lat="45.92389" lon="1.1749">
        <ele>311.9</ele>
        <time>2022-10-02T06:57:39Z</time>
      </trkpt>
      <trkpt lat="45.9239" lon="1.17486">
        <ele>311.7</ele>
        <time>2022-10-02T06:57:40Z</time>
      </trkpt>
      <trkpt lat="45.92392" lon="1.1748">
        <ele>311.4</ele>
        <time>2022-10-02T06:57:41Z</time>
      </trkpt>
      <trkpt lat="45.92394" lon="1.17475">
        <ele>311</ele>
        <time>2022-10-02T06:57:42Z</time>
      </trkpt>
      <trkpt lat="45.92396" lon="1.17468">
        <ele>310.6</ele>
        <time>2022-10-02T06:57:43Z</time>
      </trkpt>
      <trkpt lat="45.92398" lon="1.17462">
        <ele>310.2</ele>
        <time>2022-10-02T06:57:44Z</time>
      </trkpt>
      <trkpt lat="45.92399" lon="1.17456">
        <ele>309.7</ele>
        <time>2022-10-02T06:57:45Z</time>
      </trkpt>
      <trkpt lat="45.92401" lon="1.17448">
        <ele>309</ele>
        <time>2022-10-02T06:57:46Z</time>
      </trkpt>
      <trkpt lat="45.92403" lon="1.17443">
        <ele>308.5</ele>
        <time>2022-10-02T06:57:47Z</time>
      </trkpt>
      <trkpt lat="45.92403" lon="1.17436">
        <ele>307.9</ele>
        <time>2022-10-02T06:57:48Z</time>
      </trkpt>
      <trkpt lat="45.92404" lon="1.17429">
        <ele>307.3</ele>
        <time>2022-10-02T06:57:49Z</time>
      </trkpt>
      <trkpt lat="45.92405" lon="1.17423">
        <ele>306.8</ele>
        <time>2022-10-02T06:57:50Z</time>
      </trkpt>
      <trkpt lat="45.92406" lon="1.17417">
        <ele>306.3</ele>
        <time>2022-10-02T06:57:51Z</time>
      </trkpt>
      <trkpt lat="45.92407" lon="1.17409">
        <ele>305.8</ele>
        <time>2022-10-02T06:57:52Z</time>
      </trkpt>
      <trkpt lat="45.9241" lon="1.17401">
        <ele>305.4</ele>
        <time>2022-10-02T06:57:53Z</time>
      </trkpt>
      <trkpt lat="45.92412" lon="1.17394">
        <ele>305.1</ele>
        <time>2022-10-02T06:57:54Z</time>
      </trkpt>
      <trkpt lat="45.92416" lon="1.17388">
        <ele>304.9</ele>
        <time>2022-10-02T06:57:55Z</time>
      </trkpt>
      <trkpt lat="45.92419" lon="1.17383">
        <ele>304.7</ele>
        <time>2022-10-02T06:57:56Z</time>
      </trkpt>
      <trkpt lat="45.92422" lon="1.17376">
        <ele>304.5</ele>
        <time>2022-10-02T06:57:57Z</time>
      </trkpt>
      <trkpt lat="45.92427" lon="1.17371">
        <ele>304.4</ele>
        <time>2022-10-02T06:57:58Z</time>
      </trkpt>
      <trkpt lat="45.92431" lon="1.17367">
        <ele>304.3</ele>
        <time>2022-10-02T06:57:59Z</time>
      </trkpt>
      <trkpt lat="45.92435" lon="1.17363">
        <ele>304.2</ele>
        <time>2022-10-02T06:58:00Z</time>
      </trkpt>
      <trkpt lat="45.92439" lon="1.17357">
        <ele>304.2</ele>
        <time>2022-10-02T06:58:01Z</time>
      </trkpt>
      <trkpt lat="45.92443" lon="1.17352">
        <ele>304.2</ele>
        <time>2022-10-02T06:58:02Z</time>
      </trkpt>
      <trkpt lat="45.92448" lon="1.17349">
        <ele>304.2</ele>
        <time>2022-10-02T06:58:03Z</time>
      </trkpt>
      <trkpt lat="45.92453" lon="1.17346">
        <ele>304.2</ele>
        <time>2022-10-02T06:58:04Z</time>
      </trkpt>
      <trkpt lat="45.92458" lon="1.17343">
        <ele>304.2</ele>
        <time>2022-10-02T06:58:05Z</time>
      </trkpt>
      <trkpt lat="45.92463" lon="1.17341">
        <ele>304.3</ele>
        <time>2022-10-02T06:58:06Z</time>
      </trkpt>
      <trkpt lat="45.92468" lon="1.1734">
        <ele>304.4</ele>
        <time>2022-10-02T06:58:07Z</time>
      </trkpt>
      <trkpt lat="45.92472" lon="1.17338">
        <ele>304.5</ele>
        <time>2022-10-02T06:58:08Z</time>
      </trkpt>
      <trkpt lat="45.92476" lon="1.17335">
        <ele>304.5</ele>
        <time>2022-10-02T06:58:09Z</time>
      </trkpt>
      <trkpt lat="45.9248" lon="1.17331">
        <ele>304.6</ele>
        <time>2022-10-02T06:58:10Z</time>
      </trkpt>
      <trkpt lat="45.92482" lon="1.17327">
        <ele>304.7</ele>
        <time>2022-10-02T06:58:11Z</time>
      </trkpt>
      <trkpt lat="45.92484" lon="1.17322">
        <ele>304.7</ele>
        <time>2022-10-02T06:58:12Z</time>
      </trkpt>
      <trkpt lat="45.92486" lon="1.17317">
        <ele>304.7</ele>
        <time>2022-10-02T06:58:13Z</time>
      </trkpt>
      <trkpt lat="45.92488" lon="1.17313">
        <ele>304.7</ele>
        <time>2022-10-02T06:58:14Z</time>
      </trkpt>
      <trkpt lat="45.92491" lon="1.17308">
        <ele>304.7</ele>
        <time>2022-10-02T06:58:15Z</time>
      </trkpt>
      <trkpt lat="45.92493" lon="1.17302">
        <ele>304.7</ele>
        <time>2022-10-02T06:58:16Z</time>
      </trkpt>
      <trkpt lat="45.92495" lon="1.17297">
        <ele>304.7</ele>
        <time>2022-10-02T06:58:17Z</time>
      </trkpt>
      <trkpt lat="45.92498" lon="1.17292">
        <ele>304.7</ele>
        <time>2022-10-02T06:58:18Z</time>
      </trkpt>
      <trkpt lat="45.925" lon="1.17286">
        <ele>304.7</ele>
        <time>2022-10-02T06:58:19Z</time>
      </trkpt>
      <trkpt lat="45.92502" lon="1.17281">
        <ele>304.7</ele>
        <time>2022-10-02T06:58:20Z</time>
      </trkpt>
      <trkpt lat="45.92503" lon="1.17275">
        <ele>304.7</ele>
        <time>2022-10-02T06:58:21Z</time>
      </trkpt>
      <trkpt lat="45.92504" lon="1.1727">
        <ele>304.7</ele>
        <time>2022-10-02T06:58:22Z</time>
      </trkpt>
      <trkpt lat="45.92504" lon="1.17266">
        <ele>304.6</ele>
        <time>2022-10-02T06:58:23Z</time>
      </trkpt>
      <trkpt lat="45.92503" lon="1.17263">
        <ele>304.6</ele>
        <time>2022-10-02T06:58:24Z</time>
      </trkpt>
      <trkpt lat="45.92502" lon="1.17261">
        <ele>304.6</ele>
        <time>2022-10-02T06:58:25Z</time>
      </trkpt>
      <trkpt lat="45.92502" lon="1.17258">
        <ele>304.6</ele>
        <time>2022-10-02T06:58:26Z</time>
      </trkpt>
      <trkpt lat="45.92502" lon="1.17257">
        <ele>304.6</ele>
        <time>2022-10-02T06:58:27Z</time>
      </trkpt>
      <trkpt lat="45.92501" lon="1.17255">
        <ele>304.6</ele>
        <time>2022-10-02T06:58:28Z</time>
      </trkpt>
      <trkpt lat="45.925" lon="1.17253">
        <ele>304.5</ele>
        <time>2022-10-02T06:58:29Z</time>
      </trkpt>
      <trkpt lat="45.92498" lon="1.17249">
        <ele>304.5</ele>
        <time>2022-10-02T06:58:30Z</time>
      </trkpt>
      <trkpt lat="45.92496" lon="1.17245">
        <ele>304.5</ele>
        <time>2022-10-02T06:58:31Z</time>
      </trkpt>
      <trkpt lat="45.92494" lon="1.1724">
        <ele>304.4</ele>
        <time>2022-10-02T06:58:32Z</time>
      </trkpt>
      <trkpt lat="45.92492" lon="1.17235">
        <ele>304.4</ele>
        <time>2022-10-02T06:58:33Z</time>
      </trkpt>
      <trkpt lat="45.9249" lon="1.1723">
        <ele>304.4</ele>
        <time>2022-10-02T06:58:34Z</time>
      </trkpt>
      <trkpt lat="45.92487" lon="1.17225">
        <ele>304.3</ele>
        <time>2022-10-02T06:58:35Z</time>
      </trkpt>
      <trkpt lat="45.92485" lon="1.1722">
        <ele>304.3</ele>
        <time>2022-10-02T06:58:36Z</time>
      </trkpt>
      <trkpt lat="45.92483" lon="1.17215">
        <ele>304.3</ele>
        <time>2022-10-02T06:58:37Z</time>
      </trkpt>
      <trkpt lat="45.92481" lon="1.17211">
        <ele>304.2</ele>
        <time>2022-10-02T06:58:38Z</time>
      </trkpt>
      <trkpt lat="45.92478" lon="1.17206">
        <ele>304.2</ele>
        <time>2022-10-02T06:58:39Z</time>
      </trkpt>
      <trkpt lat="45.92476" lon="1.17201">
        <ele>304.2</ele>
        <time>2022-10-02T06:58:40Z</time>
      </trkpt>
      <trkpt lat="45.92474" lon="1.17196">
        <ele>304.1</ele>
        <time>2022-10-02T06:58:41Z</time>
      </trkpt>
      <trkpt lat="45.92472" lon="1.17192">
        <ele>304.1</ele>
        <time>2022-10-02T06:58:42Z</time>
      </trkpt>
      <trkpt lat="45.9247" lon="1.17186">
        <ele>304.1</ele>
        <time>2022-10-02T06:58:43Z</time>
      </trkpt>
      <trkpt lat="45.92468" lon="1.17181">
        <ele>304</ele>
        <time>2022-10-02T06:58:44Z</time>
      </trkpt>
      <trkpt lat="45.92466" lon="1.17177">
        <ele>304</ele>
        <time>2022-10-02T06:58:45Z</time>
      </trkpt>
      <trkpt lat="45.92465" lon="1.17173">
        <ele>303.9</ele>
        <time>2022-10-02T06:58:46Z</time>
      </trkpt>
      <trkpt lat="45.92464" lon="1.17168">
        <ele>303.8</ele>
        <time>2022-10-02T06:58:47Z</time>
      </trkpt>
      <trkpt lat="45.92463" lon="1.17164">
        <ele>303.7</ele>
        <time>2022-10-02T06:58:48Z</time>
      </trkpt>
      <trkpt lat="45.92462" lon="1.1716">
        <ele>303.8</ele>
        <time>2022-10-02T06:58:49Z</time>
      </trkpt>
      <trkpt lat="45.92461" lon="1.17155">
        <ele>304</ele>
        <time>2022-10-02T06:58:50Z</time>
      </trkpt>
      <trkpt lat="45.92458" lon="1.17151">
        <ele>304.2</ele>
        <time>2022-10-02T06:58:51Z</time>
      </trkpt>
      <trkpt lat="45.92455" lon="1.17146">
        <ele>304.5</ele>
        <time>2022-10-02T06:58:52Z</time>
      </trkpt>
      <trkpt lat="45.9245" lon="1.17142">
        <ele>304.8</ele>
        <time>2022-10-02T06:58:53Z</time>
      </trkpt>
      <trkpt lat="45.92446" lon="1.17136">
        <ele>305.1</ele>
        <time>2022-10-02T06:58:54Z</time>
      </trkpt>
      <trkpt lat="45.92443" lon="1.17131">
        <ele>305.5</ele>
        <time>2022-10-02T06:58:55Z</time>
      </trkpt>
      <trkpt lat="45.92442" lon="1.17124">
        <ele>305.5</ele>
        <time>2022-10-02T06:58:56Z</time>
      </trkpt>
      <trkpt lat="45.92442" lon="1.17117">
        <ele>305.4</ele>
        <time>2022-10-02T06:58:57Z</time>
      </trkpt>
      <trkpt lat="45.92442" lon="1.1711">
        <ele>305.2</ele>
        <time>2022-10-02T06:58:58Z</time>
      </trkpt>
      <trkpt lat="45.92441" lon="1.17102">
        <ele>305.1</ele>
        <time>2022-10-02T06:58:59Z</time>
      </trkpt>
      <trkpt lat="45.92441" lon="1.17094">
        <ele>305</ele>
        <time>2022-10-02T06:59:00Z</time>
      </trkpt>
      <trkpt lat="45.9244" lon="1.17087">
        <ele>304.8</ele>
        <time>2022-10-02T06:59:01Z</time>
      </trkpt>
      <trkpt lat="45.92439" lon="1.17079">
        <ele>304.7</ele>
        <time>2022-10-02T06:59:02Z</time>
      </trkpt>
      <trkpt lat="45.92438" lon="1.17072">
        <ele>304.6</ele>
        <time>2022-10-02T06:59:03Z</time>
      </trkpt>
      <trkpt lat="45.92437" lon="1.17065">
        <ele>304.5</ele>
        <time>2022-10-02T06:59:04Z</time>
      </trkpt>
      <trkpt lat="45.92436" lon="1.17057">
        <ele>304.2</ele>
        <time>2022-10-02T06:59:05Z</time>
      </trkpt>
      <trkpt lat="45.92435" lon="1.17048">
        <ele>303.9</ele>
        <time>2022-10-02T06:59:06Z</time>
      </trkpt>
      <trkpt lat="45.92434" lon="1.17038">
        <ele>303.6</ele>
        <time>2022-10-02T06:59:07Z</time>
      </trkpt>
      <trkpt lat="45.92432" lon="1.17029">
        <ele>303.2</ele>
        <time>2022-10-02T06:59:08Z</time>
      </trkpt>
      <trkpt lat="45.92431" lon="1.1702">
        <ele>302.9</ele>
        <time>2022-10-02T06:59:09Z</time>
      </trkpt>
      <trkpt lat="45.9243" lon="1.1701">
        <ele>302.5</ele>
        <time>2022-10-02T06:59:10Z</time>
      </trkpt>
      <trkpt lat="45.9243" lon="1.17001">
        <ele>302.2</ele>
        <time>2022-10-02T06:59:11Z</time>
      </trkpt>
      <trkpt lat="45.92428" lon="1.16991">
        <ele>301.8</ele>
        <time>2022-10-02T06:59:12Z</time>
      </trkpt>
      <trkpt lat="45.92427" lon="1.16981">
        <ele>301.6</ele>
        <time>2022-10-02T06:59:13Z</time>
      </trkpt>
      <trkpt lat="45.92425" lon="1.16971">
        <ele>301.3</ele>
        <time>2022-10-02T06:59:14Z</time>
      </trkpt>
      <trkpt lat="45.92425" lon="1.16961">
        <ele>301</ele>
        <time>2022-10-02T06:59:15Z</time>
      </trkpt>
      <trkpt lat="45.92423" lon="1.16951">
        <ele>300.9</ele>
        <time>2022-10-02T06:59:16Z</time>
      </trkpt>
      <trkpt lat="45.92422" lon="1.16941">
        <ele>300.7</ele>
        <time>2022-10-02T06:59:17Z</time>
      </trkpt>
      <trkpt lat="45.9242" lon="1.16931">
        <ele>300.7</ele>
        <time>2022-10-02T06:59:18Z</time>
      </trkpt>
      <trkpt lat="45.9242" lon="1.16921">
        <ele>300.7</ele>
        <time>2022-10-02T06:59:19Z</time>
      </trkpt>
      <trkpt lat="45.92419" lon="1.16911">
        <ele>300.7</ele>
        <time>2022-10-02T06:59:20Z</time>
      </trkpt>
      <trkpt lat="45.92419" lon="1.16902">
        <ele>300.8</ele>
        <time>2022-10-02T06:59:21Z</time>
      </trkpt>
      <trkpt lat="45.9242" lon="1.16893">
        <ele>301</ele>
        <time>2022-10-02T06:59:22Z</time>
      </trkpt>
      <trkpt lat="45.92422" lon="1.16885">
        <ele>301.1</ele>
        <time>2022-10-02T06:59:23Z</time>
      </trkpt>
      <trkpt lat="45.92424" lon="1.16877">
        <ele>301.3</ele>
        <time>2022-10-02T06:59:24Z</time>
      </trkpt>
      <trkpt lat="45.92427" lon="1.1687">
        <ele>301.5</ele>
        <time>2022-10-02T06:59:25Z</time>
      </trkpt>
      <trkpt lat="45.9243" lon="1.16863">
        <ele>301.7</ele>
        <time>2022-10-02T06:59:26Z</time>
      </trkpt>
      <trkpt lat="45.92433" lon="1.16856">
        <ele>301.8</ele>
        <time>2022-10-02T06:59:27Z</time>
      </trkpt>
      <trkpt lat="45.92436" lon="1.16848">
        <ele>301.9</ele>
        <time>2022-10-02T06:59:28Z</time>
      </trkpt>
      <trkpt lat="45.92438" lon="1.16841">
        <ele>302</ele>
        <time>2022-10-02T06:59:29Z</time>
      </trkpt>
      <trkpt lat="45.92442" lon="1.16833">
        <ele>302.2</ele>
        <time>2022-10-02T06:59:30Z</time>
      </trkpt>
      <trkpt lat="45.92445" lon="1.16826">
        <ele>302.2</ele>
        <time>2022-10-02T06:59:31Z</time>
      </trkpt>
      <trkpt lat="45.92448" lon="1.16819">
        <ele>302.2</ele>
        <time>2022-10-02T06:59:32Z</time>
      </trkpt>
      <trkpt lat="45.92451" lon="1.16811">
        <ele>302.3</ele>
        <time>2022-10-02T06:59:33Z</time>
      </trkpt>
      <trkpt lat="45.92454" lon="1.16804">
        <ele>302.3</ele>
        <time>2022-10-02T06:59:34Z</time>
      </trkpt>
      <trkpt lat="45.92457" lon="1.16796">
        <ele>302.3</ele>
        <time>2022-10-02T06:59:35Z</time>
      </trkpt>
      <trkpt lat="45.9246" lon="1.16788">
        <ele>302.4</ele>
        <time>2022-10-02T06:59:36Z</time>
      </trkpt>
      <trkpt lat="45.92462" lon="1.1678">
        <ele>302.4</ele>
        <time>2022-10-02T06:59:37Z</time>
      </trkpt>
      <trkpt lat="45.92466" lon="1.16773">
        <ele>302.4</ele>
        <time>2022-10-02T06:59:38Z</time>
      </trkpt>
      <trkpt lat="45.92469" lon="1.16765">
        <ele>302.4</ele>
        <time>2022-10-02T06:59:39Z</time>
      </trkpt>
      <trkpt lat="45.92473" lon="1.16757">
        <ele>302.3</ele>
        <time>2022-10-02T06:59:40Z</time>
      </trkpt>
      <trkpt lat="45.92476" lon="1.16749">
        <ele>302.3</ele>
        <time>2022-10-02T06:59:41Z</time>
      </trkpt>
      <trkpt lat="45.92478" lon="1.16741">
        <ele>302.2</ele>
        <time>2022-10-02T06:59:42Z</time>
      </trkpt>
      <trkpt lat="45.92481" lon="1.16733">
        <ele>302.2</ele>
        <time>2022-10-02T06:59:43Z</time>
      </trkpt>
      <trkpt lat="45.92482" lon="1.16724">
        <ele>302.1</ele>
        <time>2022-10-02T06:59:44Z</time>
      </trkpt>
      <trkpt lat="45.92484" lon="1.16715">
        <ele>302.1</ele>
        <time>2022-10-02T06:59:45Z</time>
      </trkpt>
      <trkpt lat="45.92485" lon="1.16706">
        <ele>302</ele>
        <time>2022-10-02T06:59:46Z</time>
      </trkpt>
      <trkpt lat="45.92486" lon="1.16698">
        <ele>302</ele>
        <time>2022-10-02T06:59:47Z</time>
      </trkpt>
      <trkpt lat="45.92486" lon="1.16689">
        <ele>301.9</ele>
        <time>2022-10-02T06:59:48Z</time>
      </trkpt>
      <trkpt lat="45.92486" lon="1.1668">
        <ele>301.9</ele>
        <time>2022-10-02T06:59:49Z</time>
      </trkpt>
      <trkpt lat="45.92485" lon="1.16672">
        <ele>301.8</ele>
        <time>2022-10-02T06:59:50Z</time>
      </trkpt>
      <trkpt lat="45.92485" lon="1.16664">
        <ele>301.8</ele>
        <time>2022-10-02T06:59:51Z</time>
      </trkpt>
      <trkpt lat="45.92483" lon="1.16656">
        <ele>301.7</ele>
        <time>2022-10-02T06:59:52Z</time>
      </trkpt>
      <trkpt lat="45.92483" lon="1.16647">
        <ele>301.6</ele>
        <time>2022-10-02T06:59:53Z</time>
      </trkpt>
      <trkpt lat="45.9248" lon="1.16639">
        <ele>301.4</ele>
        <time>2022-10-02T06:59:54Z</time>
      </trkpt>
      <trkpt lat="45.92478" lon="1.16631">
        <ele>301.2</ele>
        <time>2022-10-02T06:59:55Z</time>
      </trkpt>
      <trkpt lat="45.92475" lon="1.16623">
        <ele>301</ele>
        <time>2022-10-02T06:59:56Z</time>
      </trkpt>
      <trkpt lat="45.92473" lon="1.16615">
        <ele>300.7</ele>
        <time>2022-10-02T06:59:57Z</time>
      </trkpt>
      <trkpt lat="45.9247" lon="1.16607">
        <ele>300.4</ele>
        <time>2022-10-02T06:59:58Z</time>
      </trkpt>
      <trkpt lat="45.92467" lon="1.16599">
        <ele>300</ele>
        <time>2022-10-02T06:59:59Z</time>
      </trkpt>
      <trkpt lat="45.92463" lon="1.16591">
        <ele>299.6</ele>
        <time>2022-10-02T07:00:00Z</time>
      </trkpt>
      <trkpt lat="45.92458" lon="1.16586">
        <ele>299.1</ele>
        <time>2022-10-02T07:00:01Z</time>
      </trkpt>
      <trkpt lat="45.92453" lon="1.1658">
        <ele>298.6</ele>
        <time>2022-10-02T07:00:02Z</time>
      </trkpt>
      <trkpt lat="45.92448" lon="1.16572">
        <ele>298.1</ele>
        <time>2022-10-02T07:00:03Z</time>
      </trkpt>
      <trkpt lat="45.92444" lon="1.16565">
        <ele>297.7</ele>
        <time>2022-10-02T07:00:04Z</time>
      </trkpt>
      <trkpt lat="45.92439" lon="1.16557">
        <ele>297.1</ele>
        <time>2022-10-02T07:00:05Z</time>
      </trkpt>
      <trkpt lat="45.92434" lon="1.1655">
        <ele>296.5</ele>
        <time>2022-10-02T07:00:06Z</time>
      </trkpt>
      <trkpt lat="45.9243" lon="1.16542">
        <ele>296</ele>
        <time>2022-10-02T07:00:07Z</time>
      </trkpt>
      <trkpt lat="45.92425" lon="1.16535">
        <ele>295.4</ele>
        <time>2022-10-02T07:00:08Z</time>
      </trkpt>
      <trkpt lat="45.92419" lon="1.16529">
        <ele>294.9</ele>
        <time>2022-10-02T07:00:09Z</time>
      </trkpt>
      <trkpt lat="45.92413" lon="1.16524">
        <ele>294.4</ele>
        <time>2022-10-02T07:00:10Z</time>
      </trkpt>
      <trkpt lat="45.92407" lon="1.16518">
        <ele>293.9</ele>
        <time>2022-10-02T07:00:11Z</time>
      </trkpt>
      <trkpt lat="45.92401" lon="1.16515">
        <ele>293.5</ele>
        <time>2022-10-02T07:00:12Z</time>
      </trkpt>
      <trkpt lat="45.92394" lon="1.16509">
        <ele>293</ele>
        <time>2022-10-02T07:00:13Z</time>
      </trkpt>
      <trkpt lat="45.92386" lon="1.16507">
        <ele>292.5</ele>
        <time>2022-10-02T07:00:14Z</time>
      </trkpt>
      <trkpt lat="45.9238" lon="1.16501">
        <ele>292.2</ele>
        <time>2022-10-02T07:00:15Z</time>
      </trkpt>
      <trkpt lat="45.92374" lon="1.16496">
        <ele>291.9</ele>
        <time>2022-10-02T07:00:16Z</time>
      </trkpt>
      <trkpt lat="45.92368" lon="1.16492">
        <ele>291.6</ele>
        <time>2022-10-02T07:00:17Z</time>
      </trkpt>
      <trkpt lat="45.92362" lon="1.16486">
        <ele>291.4</ele>
        <time>2022-10-02T07:00:18Z</time>
      </trkpt>
      <trkpt lat="45.92357" lon="1.16478">
        <ele>291.2</ele>
        <time>2022-10-02T07:00:19Z</time>
      </trkpt>
      <trkpt lat="45.92351" lon="1.1647">
        <ele>291</ele>
        <time>2022-10-02T07:00:20Z</time>
      </trkpt>
      <trkpt lat="45.92348" lon="1.16461">
        <ele>290.8</ele>
        <time>2022-10-02T07:00:21Z</time>
      </trkpt>
      <trkpt lat="45.92346" lon="1.16451">
        <ele>290.7</ele>
        <time>2022-10-02T07:00:22Z</time>
      </trkpt>
      <trkpt lat="45.92345" lon="1.16442">
        <ele>290.7</ele>
        <time>2022-10-02T07:00:23Z</time>
      </trkpt>
      <trkpt lat="45.92344" lon="1.16432">
        <ele>290.7</ele>
        <time>2022-10-02T07:00:24Z</time>
      </trkpt>
      <trkpt lat="45.92344" lon="1.16423">
        <ele>290.8</ele>
        <time>2022-10-02T07:00:26Z</time>
      </trkpt>
      <trkpt lat="45.92343" lon="1.16414">
        <ele>290.9</ele>
        <time>2022-10-02T07:00:27Z</time>
      </trkpt>
      <trkpt lat="45.92343" lon="1.16406">
        <ele>291.1</ele>
        <time>2022-10-02T07:00:28Z</time>
      </trkpt>
      <trkpt lat="45.92343" lon="1.16398">
        <ele>291.3</ele>
        <time>2022-10-02T07:00:29Z</time>
      </trkpt>
      <trkpt lat="45.92342" lon="1.1639">
        <ele>291.4</ele>
        <time>2022-10-02T07:00:30Z</time>
      </trkpt>
      <trkpt lat="45.92342" lon="1.16382">
        <ele>291.5</ele>
        <time>2022-10-02T07:00:31Z</time>
      </trkpt>
      <trkpt lat="45.92341" lon="1.16374">
        <ele>291.7</ele>
        <time>2022-10-02T07:00:32Z</time>
      </trkpt>
      <trkpt lat="45.9234" lon="1.16366">
        <ele>291.7</ele>
        <time>2022-10-02T07:00:33Z</time>
      </trkpt>
      <trkpt lat="45.92338" lon="1.16359">
        <ele>291.8</ele>
        <time>2022-10-02T07:00:34Z</time>
      </trkpt>
      <trkpt lat="45.92335" lon="1.16351">
        <ele>291.9</ele>
        <time>2022-10-02T07:00:35Z</time>
      </trkpt>
      <trkpt lat="45.92332" lon="1.16345">
        <ele>291.9</ele>
        <time>2022-10-02T07:00:36Z</time>
      </trkpt>
      <trkpt lat="45.92328" lon="1.16339">
        <ele>291.9</ele>
        <time>2022-10-02T07:00:37Z</time>
      </trkpt>
      <trkpt lat="45.92324" lon="1.16333">
        <ele>291.9</ele>
        <time>2022-10-02T07:00:38Z</time>
      </trkpt>
      <trkpt lat="45.92319" lon="1.16328">
        <ele>291.8</ele>
        <time>2022-10-02T07:00:39Z</time>
      </trkpt>
      <trkpt lat="45.92314" lon="1.16323">
        <ele>291.8</ele>
        <time>2022-10-02T07:00:40Z</time>
      </trkpt>
      <trkpt lat="45.92309" lon="1.16318">
        <ele>291.8</ele>
        <time>2022-10-02T07:00:41Z</time>
      </trkpt>
      <trkpt lat="45.92304" lon="1.16313">
        <ele>291.8</ele>
        <time>2022-10-02T07:00:42Z</time>
      </trkpt>
      <trkpt lat="45.92299" lon="1.16309">
        <ele>291.7</ele>
        <time>2022-10-02T07:00:43Z</time>
      </trkpt>
      <trkpt lat="45.92294" lon="1.16304">
        <ele>291.7</ele>
        <time>2022-10-02T07:00:44Z</time>
      </trkpt>
      <trkpt lat="45.92289" lon="1.16299">
        <ele>291.6</ele>
        <time>2022-10-02T07:00:45Z</time>
      </trkpt>
      <trkpt lat="45.92284" lon="1.16294">
        <ele>291.6</ele>
        <time>2022-10-02T07:00:46Z</time>
      </trkpt>
      <trkpt lat="45.92279" lon="1.16289">
        <ele>291.6</ele>
        <time>2022-10-02T07:00:47Z</time>
      </trkpt>
      <trkpt lat="45.92275" lon="1.16284">
        <ele>291.5</ele>
        <time>2022-10-02T07:00:48Z</time>
      </trkpt>
      <trkpt lat="45.92269" lon="1.1628">
        <ele>291.5</ele>
        <time>2022-10-02T07:00:49Z</time>
      </trkpt>
      <trkpt lat="45.92265" lon="1.16275">
        <ele>291.4</ele>
        <time>2022-10-02T07:00:50Z</time>
      </trkpt>
      <trkpt lat="45.9226" lon="1.1627">
        <ele>291.3</ele>
        <time>2022-10-02T07:00:51Z</time>
      </trkpt>
      <trkpt lat="45.92256" lon="1.16266">
        <ele>291.2</ele>
        <time>2022-10-02T07:00:52Z</time>
      </trkpt>
      <trkpt lat="45.92251" lon="1.16261">
        <ele>291.2</ele>
        <time>2022-10-02T07:00:53Z</time>
      </trkpt>
      <trkpt lat="45.92247" lon="1.16256">
        <ele>291.1</ele>
        <time>2022-10-02T07:00:54Z</time>
      </trkpt>
      <trkpt lat="45.92242" lon="1.16251">
        <ele>291</ele>
        <time>2022-10-02T07:00:55Z</time>
      </trkpt>
      <trkpt lat="45.92238" lon="1.16245">
        <ele>290.9</ele>
        <time>2022-10-02T07:00:56Z</time>
      </trkpt>
      <trkpt lat="45.92234" lon="1.16239">
        <ele>290.9</ele>
        <time>2022-10-02T07:00:57Z</time>
      </trkpt>
      <trkpt lat="45.9223" lon="1.16232">
        <ele>290.8</ele>
        <time>2022-10-02T07:00:58Z</time>
      </trkpt>
      <trkpt lat="45.92227" lon="1.16225">
        <ele>290.8</ele>
        <time>2022-10-02T07:00:59Z</time>
      </trkpt>
      <trkpt lat="45.92224" lon="1.16218">
        <ele>290.7</ele>
        <time>2022-10-02T07:01:00Z</time>
      </trkpt>
      <trkpt lat="45.92223" lon="1.1621">
        <ele>290.7</ele>
        <time>2022-10-02T07:01:01Z</time>
      </trkpt>
      <trkpt lat="45.92221" lon="1.16203">
        <ele>290.7</ele>
        <time>2022-10-02T07:01:02Z</time>
      </trkpt>
      <trkpt lat="45.92221" lon="1.16195">
        <ele>290.7</ele>
        <time>2022-10-02T07:01:03Z</time>
      </trkpt>
      <trkpt lat="45.9222" lon="1.16188">
        <ele>290.7</ele>
        <time>2022-10-02T07:01:04Z</time>
      </trkpt>
      <trkpt lat="45.92218" lon="1.16183">
        <ele>290.7</ele>
        <time>2022-10-02T07:01:05Z</time>
      </trkpt>
      <trkpt lat="45.92217" lon="1.16178">
        <ele>290.7</ele>
        <time>2022-10-02T07:01:06Z</time>
      </trkpt>
      <trkpt lat="45.92217" lon="1.16174">
        <ele>290.8</ele>
        <time>2022-10-02T07:01:07Z</time>
      </trkpt>
      <trkpt lat="45.92216" lon="1.16169">
        <ele>290.8</ele>
        <time>2022-10-02T07:01:08Z</time>
      </trkpt>
      <trkpt lat="45.92215" lon="1.16164">
        <ele>290.9</ele>
        <time>2022-10-02T07:01:09Z</time>
      </trkpt>
      <trkpt lat="45.92216" lon="1.1616">
        <ele>291</ele>
        <time>2022-10-02T07:01:10Z</time>
      </trkpt>
      <trkpt lat="45.92217" lon="1.16154">
        <ele>291</ele>
        <time>2022-10-02T07:01:11Z</time>
      </trkpt>
      <trkpt lat="45.92219" lon="1.16149">
        <ele>291.1</ele>
        <time>2022-10-02T07:01:12Z</time>
      </trkpt>
      <trkpt lat="45.92221" lon="1.16144">
        <ele>291.2</ele>
        <time>2022-10-02T07:01:13Z</time>
      </trkpt>
      <trkpt lat="45.92224" lon="1.1614">
        <ele>291.3</ele>
        <time>2022-10-02T07:01:14Z</time>
      </trkpt>
      <trkpt lat="45.92227" lon="1.16135">
        <ele>291.4</ele>
        <time>2022-10-02T07:01:15Z</time>
      </trkpt>
      <trkpt lat="45.9223" lon="1.16131">
        <ele>291.5</ele>
        <time>2022-10-02T07:01:16Z</time>
      </trkpt>
      <trkpt lat="45.92234" lon="1.16127">
        <ele>291.5</ele>
        <time>2022-10-02T07:01:17Z</time>
      </trkpt>
      <trkpt lat="45.92238" lon="1.16123">
        <ele>291.6</ele>
        <time>2022-10-02T07:01:18Z</time>
      </trkpt>
      <trkpt lat="45.9224" lon="1.16118">
        <ele>291.6</ele>
        <time>2022-10-02T07:01:19Z</time>
      </trkpt>
      <trkpt lat="45.92241" lon="1.16112">
        <ele>292.1</ele>
        <time>2022-10-02T07:01:20Z</time>
      </trkpt>
      <trkpt lat="45.92239" lon="1.16104">
        <ele>292.1</ele>
        <time>2022-10-02T07:01:21Z</time>
      </trkpt>
      <trkpt lat="45.92235" lon="1.16097">
        <ele>293.7</ele>
        <time>2022-10-02T07:01:22Z</time>
      </trkpt>
      <trkpt lat="45.92234" lon="1.16096">
        <ele>293.7</ele>
        <time>2022-10-02T07:01:23Z</time>
      </trkpt>
      <trkpt lat="45.9223" lon="1.16098">
        <ele>293.8</ele>
        <time>2022-10-02T07:01:24Z</time>
      </trkpt>
      <trkpt lat="45.92227" lon="1.16096">
        <ele>293.8</ele>
        <time>2022-10-02T07:01:25Z</time>
      </trkpt>
      <trkpt lat="45.92224" lon="1.16097">
        <ele>295.7</ele>
        <time>2022-10-02T07:01:26Z</time>
      </trkpt>
      <trkpt lat="45.92221" lon="1.16097">
        <ele>295.7</ele>
        <time>2022-10-02T07:01:27Z</time>
      </trkpt>
      <trkpt lat="45.92218" lon="1.16097">
        <ele>295.8</ele>
        <time>2022-10-02T07:01:28Z</time>
      </trkpt>
      <trkpt lat="45.92215" lon="1.16097">
        <ele>295.8</ele>
        <time>2022-10-02T07:01:29Z</time>
      </trkpt>
      <trkpt lat="45.92212" lon="1.16096">
        <ele>297.4</ele>
        <time>2022-10-02T07:01:30Z</time>
      </trkpt>
      <trkpt lat="45.92209" lon="1.16096">
        <ele>297.4</ele>
        <time>2022-10-02T07:01:31Z</time>
      </trkpt>
      <trkpt lat="45.92206" lon="1.16097">
        <ele>297.5</ele>
        <time>2022-10-02T07:01:32Z</time>
      </trkpt>
      <trkpt lat="45.92202" lon="1.16098">
        <ele>297.5</ele>
        <time>2022-10-02T07:01:33Z</time>
      </trkpt>
      <trkpt lat="45.92199" lon="1.161">
        <ele>298.9</ele>
        <time>2022-10-02T07:01:34Z</time>
      </trkpt>
      <trkpt lat="45.92195" lon="1.161">
        <ele>298.9</ele>
        <time>2022-10-02T07:01:35Z</time>
      </trkpt>
      <trkpt lat="45.92192" lon="1.16101">
        <ele>298.9</ele>
        <time>2022-10-02T07:01:36Z</time>
      </trkpt>
      <trkpt lat="45.92189" lon="1.16101">
        <ele>300.3</ele>
        <time>2022-10-02T07:01:37Z</time>
      </trkpt>
      <trkpt lat="45.92185" lon="1.16102">
        <ele>300.3</ele>
        <time>2022-10-02T07:01:38Z</time>
      </trkpt>
      <trkpt lat="45.92182" lon="1.16103">
        <ele>300.3</ele>
        <time>2022-10-02T07:01:39Z</time>
      </trkpt>
      <trkpt lat="45.92179" lon="1.16103">
        <ele>300.4</ele>
        <time>2022-10-02T07:01:40Z</time>
      </trkpt>
      <trkpt lat="45.92175" lon="1.16103">
        <ele>301.7</ele>
        <time>2022-10-02T07:01:41Z</time>
      </trkpt>
      <trkpt lat="45.92172" lon="1.16104">
        <ele>301.7</ele>
        <time>2022-10-02T07:01:42Z</time>
      </trkpt>
      <trkpt lat="45.92168" lon="1.16104">
        <ele>301.8</ele>
        <time>2022-10-02T07:01:43Z</time>
      </trkpt>
      <trkpt lat="45.92165" lon="1.16104">
        <ele>303.3</ele>
        <time>2022-10-02T07:01:44Z</time>
      </trkpt>
      <trkpt lat="45.92161" lon="1.16103">
        <ele>303.3</ele>
        <time>2022-10-02T07:01:45Z</time>
      </trkpt>
      <trkpt lat="45.92157" lon="1.16103">
        <ele>303.4</ele>
        <time>2022-10-02T07:01:46Z</time>
      </trkpt>
      <trkpt lat="45.92154" lon="1.16102">
        <ele>304.3</ele>
        <time>2022-10-02T07:01:47Z</time>
      </trkpt>
      <trkpt lat="45.92151" lon="1.16101">
        <ele>304.4</ele>
        <time>2022-10-02T07:01:48Z</time>
      </trkpt>
      <trkpt lat="45.92148" lon="1.161">
        <ele>304.4</ele>
        <time>2022-10-02T07:01:49Z</time>
      </trkpt>
      <trkpt lat="45.92145" lon="1.16098">
        <ele>304.4</ele>
        <time>2022-10-02T07:01:50Z</time>
      </trkpt>
      <trkpt lat="45.92142" lon="1.16097">
        <ele>305.1</ele>
        <time>2022-10-02T07:01:51Z</time>
      </trkpt>
      <trkpt lat="45.92139" lon="1.16096">
        <ele>305.1</ele>
        <time>2022-10-02T07:01:52Z</time>
      </trkpt>
      <trkpt lat="45.92136" lon="1.16094">
        <ele>305.3</ele>
        <time>2022-10-02T07:01:53Z</time>
      </trkpt>
      <trkpt lat="45.92134" lon="1.16093">
        <ele>305.3</ele>
        <time>2022-10-02T07:01:54Z</time>
      </trkpt>
      <trkpt lat="45.92131" lon="1.16092">
        <ele>305.3</ele>
        <time>2022-10-02T07:01:55Z</time>
      </trkpt>
      <trkpt lat="45.92128" lon="1.1609">
        <ele>305.8</ele>
        <time>2022-10-02T07:01:56Z</time>
      </trkpt>
      <trkpt lat="45.92125" lon="1.16089">
        <ele>305.8</ele>
        <time>2022-10-02T07:01:57Z</time>
      </trkpt>
      <trkpt lat="45.92121" lon="1.16088">
        <ele>305.8</ele>
        <time>2022-10-02T07:01:58Z</time>
      </trkpt>
      <trkpt lat="45.92118" lon="1.16088">
        <ele>306.4</ele>
        <time>2022-10-02T07:01:59Z</time>
      </trkpt>
      <trkpt lat="45.92114" lon="1.16089">
        <ele>306.4</ele>
        <time>2022-10-02T07:02:00Z</time>
      </trkpt>
      <trkpt lat="45.92111" lon="1.16089">
        <ele>306.5</ele>
        <time>2022-10-02T07:02:01Z</time>
      </trkpt>
      <trkpt lat="45.92108" lon="1.1609">
        <ele>306.5</ele>
        <time>2022-10-02T07:02:02Z</time>
      </trkpt>
      <trkpt lat="45.92103" lon="1.1609">
        <ele>307.3</ele>
        <time>2022-10-02T07:02:03Z</time>
      </trkpt>
      <trkpt lat="45.921" lon="1.16091">
        <ele>307.3</ele>
        <time>2022-10-02T07:02:04Z</time>
      </trkpt>
      <trkpt lat="45.92096" lon="1.1609">
        <ele>307.3</ele>
        <time>2022-10-02T07:02:05Z</time>
      </trkpt>
      <trkpt lat="45.92093" lon="1.16089">
        <ele>308</ele>
        <time>2022-10-02T07:02:06Z</time>
      </trkpt>
      <trkpt lat="45.9209" lon="1.16086">
        <ele>308</ele>
        <time>2022-10-02T07:02:07Z</time>
      </trkpt>
      <trkpt lat="45.92085" lon="1.16085">
        <ele>308.1</ele>
        <time>2022-10-02T07:02:08Z</time>
      </trkpt>
      <trkpt lat="45.92081" lon="1.16083">
        <ele>308.8</ele>
        <time>2022-10-02T07:02:09Z</time>
      </trkpt>
      <trkpt lat="45.92077" lon="1.16081">
        <ele>308.8</ele>
        <time>2022-10-02T07:02:10Z</time>
      </trkpt>
      <trkpt lat="45.92073" lon="1.1608">
        <ele>308.8</ele>
        <time>2022-10-02T07:02:11Z</time>
      </trkpt>
      <trkpt lat="45.9207" lon="1.16079">
        <ele>309.3</ele>
        <time>2022-10-02T07:02:12Z</time>
      </trkpt>
      <trkpt lat="45.92066" lon="1.16077">
        <ele>308.9</ele>
        <time>2022-10-02T07:02:13Z</time>
      </trkpt>
      <trkpt lat="45.92062" lon="1.16075">
        <ele>309</ele>
        <time>2022-10-02T07:02:14Z</time>
      </trkpt>
      <trkpt lat="45.92058" lon="1.16074">
        <ele>309.3</ele>
        <time>2022-10-02T07:02:15Z</time>
      </trkpt>
      <trkpt lat="45.92054" lon="1.16071">
        <ele>309.4</ele>
        <time>2022-10-02T07:02:16Z</time>
      </trkpt>
      <trkpt lat="45.9205" lon="1.16068">
        <ele>309.4</ele>
        <time>2022-10-02T07:02:17Z</time>
      </trkpt>
      <trkpt lat="45.92047" lon="1.16066">
        <ele>309.5</ele>
        <time>2022-10-02T07:02:18Z</time>
      </trkpt>
      <trkpt lat="45.92042" lon="1.16064">
        <ele>309.6</ele>
        <time>2022-10-02T07:02:19Z</time>
      </trkpt>
      <trkpt lat="45.92039" lon="1.16062">
        <ele>309.6</ele>
        <time>2022-10-02T07:02:20Z</time>
      </trkpt>
      <trkpt lat="45.92035" lon="1.16059">
        <ele>309.4</ele>
        <time>2022-10-02T07:02:21Z</time>
      </trkpt>
      <trkpt lat="45.92031" lon="1.16056">
        <ele>309.5</ele>
        <time>2022-10-02T07:02:22Z</time>
      </trkpt>
      <trkpt lat="45.92027" lon="1.16053">
        <ele>309.5</ele>
        <time>2022-10-02T07:02:23Z</time>
      </trkpt>
      <trkpt lat="45.92023" lon="1.16049">
        <ele>309.7</ele>
        <time>2022-10-02T07:02:24Z</time>
      </trkpt>
      <trkpt lat="45.92018" lon="1.16046">
        <ele>309.7</ele>
        <time>2022-10-02T07:02:25Z</time>
      </trkpt>
      <trkpt lat="45.92014" lon="1.16043">
        <ele>309.5</ele>
        <time>2022-10-02T07:02:26Z</time>
      </trkpt>
      <trkpt lat="45.9201" lon="1.16039">
        <ele>309.9</ele>
        <time>2022-10-02T07:02:27Z</time>
      </trkpt>
      <trkpt lat="45.92006" lon="1.16037">
        <ele>309.9</ele>
        <time>2022-10-02T07:02:28Z</time>
      </trkpt>
      <trkpt lat="45.92002" lon="1.16034">
        <ele>309.9</ele>
        <time>2022-10-02T07:02:29Z</time>
      </trkpt>
      <trkpt lat="45.91992" lon="1.16031">
        <ele>310.3</ele>
        <time>2022-10-02T07:02:30Z</time>
      </trkpt>
      <trkpt lat="45.91987" lon="1.16029">
        <ele>310.6</ele>
        <time>2022-10-02T07:02:31Z</time>
      </trkpt>
      <trkpt lat="45.91983" lon="1.16028">
        <ele>310.6</ele>
        <time>2022-10-02T07:02:32Z</time>
      </trkpt>
      <trkpt lat="45.91977" lon="1.16028">
        <ele>310.6</ele>
        <time>2022-10-02T07:02:33Z</time>
      </trkpt>
      <trkpt lat="45.91973" lon="1.16028">
        <ele>310.9</ele>
        <time>2022-10-02T07:02:34Z</time>
      </trkpt>
      <trkpt lat="45.91968" lon="1.16027">
        <ele>310.9</ele>
        <time>2022-10-02T07:02:35Z</time>
      </trkpt>
      <trkpt lat="45.91963" lon="1.16027">
        <ele>311.1</ele>
        <time>2022-10-02T07:02:36Z</time>
      </trkpt>
      <trkpt lat="45.91958" lon="1.16027">
        <ele>311.2</ele>
        <time>2022-10-02T07:02:37Z</time>
      </trkpt>
      <trkpt lat="45.91953" lon="1.16027">
        <ele>311.2</ele>
        <time>2022-10-02T07:02:38Z</time>
      </trkpt>
      <trkpt lat="45.91948" lon="1.16028">
        <ele>311.4</ele>
        <time>2022-10-02T07:02:39Z</time>
      </trkpt>
      <trkpt lat="45.91942" lon="1.16028">
        <ele>311.5</ele>
        <time>2022-10-02T07:02:40Z</time>
      </trkpt>
      <trkpt lat="45.91937" lon="1.16029">
        <ele>311.8</ele>
        <time>2022-10-02T07:02:41Z</time>
      </trkpt>
      <trkpt lat="45.91932" lon="1.16029">
        <ele>311.8</ele>
        <time>2022-10-02T07:02:42Z</time>
      </trkpt>
      <trkpt lat="45.91927" lon="1.16029">
        <ele>312.2</ele>
        <time>2022-10-02T07:02:43Z</time>
      </trkpt>
      <trkpt lat="45.91922" lon="1.16028">
        <ele>312.2</ele>
        <time>2022-10-02T07:02:44Z</time>
      </trkpt>
      <trkpt lat="45.91917" lon="1.16028">
        <ele>312.3</ele>
        <time>2022-10-02T07:02:45Z</time>
      </trkpt>
      <trkpt lat="45.91912" lon="1.16027">
        <ele>312.8</ele>
        <time>2022-10-02T07:02:46Z</time>
      </trkpt>
      <trkpt lat="45.91907" lon="1.16027">
        <ele>312.8</ele>
        <time>2022-10-02T07:02:47Z</time>
      </trkpt>
      <trkpt lat="45.91903" lon="1.16026">
        <ele>313.1</ele>
        <time>2022-10-02T07:02:48Z</time>
      </trkpt>
      <trkpt lat="45.91898" lon="1.16026">
        <ele>313.1</ele>
        <time>2022-10-02T07:02:49Z</time>
      </trkpt>
      <trkpt lat="45.91894" lon="1.16025">
        <ele>314.4</ele>
        <time>2022-10-02T07:02:50Z</time>
      </trkpt>
      <trkpt lat="45.91891" lon="1.16022">
        <ele>314.7</ele>
        <time>2022-10-02T07:02:51Z</time>
      </trkpt>
      <trkpt lat="45.91888" lon="1.16021">
        <ele>314.7</ele>
        <time>2022-10-02T07:02:52Z</time>
      </trkpt>
      <trkpt lat="45.91885" lon="1.16021">
        <ele>314.7</ele>
        <time>2022-10-02T07:02:53Z</time>
      </trkpt>
      <trkpt lat="45.91882" lon="1.1602">
        <ele>314.8</ele>
        <time>2022-10-02T07:02:54Z</time>
      </trkpt>
      <trkpt lat="45.91881" lon="1.16018">
        <ele>314.8</ele>
        <time>2022-10-02T07:02:55Z</time>
      </trkpt>
      <trkpt lat="45.91878" lon="1.16019">
        <ele>315.1</ele>
        <time>2022-10-02T07:02:56Z</time>
      </trkpt>
      <trkpt lat="45.91875" lon="1.16018">
        <ele>315.1</ele>
        <time>2022-10-02T07:02:57Z</time>
      </trkpt>
      <trkpt lat="45.91872" lon="1.16018">
        <ele>315.1</ele>
        <time>2022-10-02T07:02:58Z</time>
      </trkpt>
      <trkpt lat="45.91869" lon="1.16016">
        <ele>315.2</ele>
        <time>2022-10-02T07:02:59Z</time>
      </trkpt>
      <trkpt lat="45.91865" lon="1.16016">
        <ele>315.8</ele>
        <time>2022-10-02T07:03:00Z</time>
      </trkpt>
      <trkpt lat="45.9186" lon="1.16016">
        <ele>315.9</ele>
        <time>2022-10-02T07:03:01Z</time>
      </trkpt>
      <trkpt lat="45.91855" lon="1.16016">
        <ele>317.1</ele>
        <time>2022-10-02T07:03:02Z</time>
      </trkpt>
      <trkpt lat="45.91851" lon="1.16016">
        <ele>317.1</ele>
        <time>2022-10-02T07:03:03Z</time>
      </trkpt>
      <trkpt lat="45.91847" lon="1.16017">
        <ele>317.1</ele>
        <time>2022-10-02T07:03:04Z</time>
      </trkpt>
      <trkpt lat="45.91843" lon="1.16017">
        <ele>318.6</ele>
        <time>2022-10-02T07:03:05Z</time>
      </trkpt>
      <trkpt lat="45.91838" lon="1.16018">
        <ele>318.7</ele>
        <time>2022-10-02T07:03:06Z</time>
      </trkpt>
      <trkpt lat="45.91834" lon="1.16018">
        <ele>318.7</ele>
        <time>2022-10-02T07:03:07Z</time>
      </trkpt>
      <trkpt lat="45.9183" lon="1.16018">
        <ele>320.6</ele>
        <time>2022-10-02T07:03:08Z</time>
      </trkpt>
      <trkpt lat="45.91827" lon="1.16016">
        <ele>320.6</ele>
        <time>2022-10-02T07:03:09Z</time>
      </trkpt>
      <trkpt lat="45.91823" lon="1.16014">
        <ele>320.6</ele>
        <time>2022-10-02T07:03:10Z</time>
      </trkpt>
      <trkpt lat="45.91819" lon="1.16012">
        <ele>322.3</ele>
        <time>2022-10-02T07:03:11Z</time>
      </trkpt>
      <trkpt lat="45.91815" lon="1.16011">
        <ele>322.3</ele>
        <time>2022-10-02T07:03:12Z</time>
      </trkpt>
      <trkpt lat="45.9181" lon="1.16007">
        <ele>323.1</ele>
        <time>2022-10-02T07:03:13Z</time>
      </trkpt>
      <trkpt lat="45.91806" lon="1.16005">
        <ele>324.5</ele>
        <time>2022-10-02T07:03:14Z</time>
      </trkpt>
      <trkpt lat="45.91802" lon="1.16002">
        <ele>324.6</ele>
        <time>2022-10-02T07:03:15Z</time>
      </trkpt>
      <trkpt lat="45.91797" lon="1.16">
        <ele>324.6</ele>
        <time>2022-10-02T07:03:16Z</time>
      </trkpt>
      <trkpt lat="45.91792" lon="1.15997">
        <ele>325.6</ele>
        <time>2022-10-02T07:03:17Z</time>
      </trkpt>
      <trkpt lat="45.91788" lon="1.15993">
        <ele>325.6</ele>
        <time>2022-10-02T07:03:18Z</time>
      </trkpt>
      <trkpt lat="45.91783" lon="1.15991">
        <ele>326.9</ele>
        <time>2022-10-02T07:03:19Z</time>
      </trkpt>
      <trkpt lat="45.91779" lon="1.15988">
        <ele>326.9</ele>
        <time>2022-10-02T07:03:20Z</time>
      </trkpt>
      <trkpt lat="45.91775" lon="1.15986">
        <ele>326.9</ele>
        <time>2022-10-02T07:03:21Z</time>
      </trkpt>
      <trkpt lat="45.91771" lon="1.15983">
        <ele>327.5</ele>
        <time>2022-10-02T07:03:22Z</time>
      </trkpt>
      <trkpt lat="45.91767" lon="1.1598">
        <ele>327.5</ele>
        <time>2022-10-02T07:03:23Z</time>
      </trkpt>
      <trkpt lat="45.91764" lon="1.15977">
        <ele>327.5</ele>
        <time>2022-10-02T07:03:24Z</time>
      </trkpt>
      <trkpt lat="45.91761" lon="1.15973">
        <ele>328</ele>
        <time>2022-10-02T07:03:25Z</time>
      </trkpt>
      <trkpt lat="45.91758" lon="1.15969">
        <ele>328.4</ele>
        <time>2022-10-02T07:03:26Z</time>
      </trkpt>
      <trkpt lat="45.91755" lon="1.15964">
        <ele>328.4</ele>
        <time>2022-10-02T07:03:27Z</time>
      </trkpt>
      <trkpt lat="45.91754" lon="1.15959">
        <ele>328.5</ele>
        <time>2022-10-02T07:03:28Z</time>
      </trkpt>
      <trkpt lat="45.91754" lon="1.15956">
        <ele>328.9</ele>
        <time>2022-10-02T07:03:29Z</time>
      </trkpt>
      <trkpt lat="45.91753" lon="1.15951">
        <ele>329</ele>
        <time>2022-10-02T07:03:30Z</time>
      </trkpt>
      <trkpt lat="45.91751" lon="1.15947">
        <ele>329</ele>
        <time>2022-10-02T07:03:31Z</time>
      </trkpt>
      <trkpt lat="45.91749" lon="1.15943">
        <ele>329</ele>
        <time>2022-10-02T07:03:32Z</time>
      </trkpt>
      <trkpt lat="45.91746" lon="1.1594">
        <ele>329.8</ele>
        <time>2022-10-02T07:03:33Z</time>
      </trkpt>
      <trkpt lat="45.91743" lon="1.15935">
        <ele>329.8</ele>
        <time>2022-10-02T07:03:34Z</time>
      </trkpt>
      <trkpt lat="45.91739" lon="1.15931">
        <ele>329.9</ele>
        <time>2022-10-02T07:03:35Z</time>
      </trkpt>
      <trkpt lat="45.91734" lon="1.15928">
        <ele>330.3</ele>
        <time>2022-10-02T07:03:36Z</time>
      </trkpt>
      <trkpt lat="45.9173" lon="1.15925">
        <ele>330.3</ele>
        <time>2022-10-02T07:03:37Z</time>
      </trkpt>
      <trkpt lat="45.91725" lon="1.15923">
        <ele>330.3</ele>
        <time>2022-10-02T07:03:38Z</time>
      </trkpt>
      <trkpt lat="45.9172" lon="1.15921">
        <ele>330.8</ele>
        <time>2022-10-02T07:03:39Z</time>
      </trkpt>
      <trkpt lat="45.91715" lon="1.15921">
        <ele>330.8</ele>
        <time>2022-10-02T07:03:40Z</time>
      </trkpt>
      <trkpt lat="45.9171" lon="1.15921">
        <ele>331.4</ele>
        <time>2022-10-02T07:03:41Z</time>
      </trkpt>
      <trkpt lat="45.91706" lon="1.15921">
        <ele>331.5</ele>
        <time>2022-10-02T07:03:42Z</time>
      </trkpt>
      <trkpt lat="45.91701" lon="1.15921">
        <ele>331.5</ele>
        <time>2022-10-02T07:03:43Z</time>
      </trkpt>
      <trkpt lat="45.91697" lon="1.15921">
        <ele>332.1</ele>
        <time>2022-10-02T07:03:44Z</time>
      </trkpt>
      <trkpt lat="45.91693" lon="1.1592">
        <ele>332.2</ele>
        <time>2022-10-02T07:03:45Z</time>
      </trkpt>
      <trkpt lat="45.91688" lon="1.1592">
        <ele>332.8</ele>
        <time>2022-10-02T07:03:46Z</time>
      </trkpt>
      <trkpt lat="45.91684" lon="1.1592">
        <ele>332.8</ele>
        <time>2022-10-02T07:03:47Z</time>
      </trkpt>
      <trkpt lat="45.9168" lon="1.1592">
        <ele>332.8</ele>
        <time>2022-10-02T07:03:48Z</time>
      </trkpt>
      <trkpt lat="45.91677" lon="1.15919">
        <ele>332.9</ele>
        <time>2022-10-02T07:03:49Z</time>
      </trkpt>
      <trkpt lat="45.91674" lon="1.15916">
        <ele>333.3</ele>
        <time>2022-10-02T07:03:50Z</time>
      </trkpt>
      <trkpt lat="45.91673" lon="1.1591">
        <ele>333.3</ele>
        <time>2022-10-02T07:03:51Z</time>
      </trkpt>
      <trkpt lat="45.91674" lon="1.15904">
        <ele>333.1</ele>
        <time>2022-10-02T07:03:52Z</time>
      </trkpt>
      <trkpt lat="45.91677" lon="1.15897">
        <ele>332.7</ele>
        <time>2022-10-02T07:03:53Z</time>
      </trkpt>
      <trkpt lat="45.91679" lon="1.15891">
        <ele>332.4</ele>
        <time>2022-10-02T07:03:54Z</time>
      </trkpt>
      <trkpt lat="45.91681" lon="1.15885">
        <ele>332.1</ele>
        <time>2022-10-02T07:03:55Z</time>
      </trkpt>
      <trkpt lat="45.91683" lon="1.15879">
        <ele>331.7</ele>
        <time>2022-10-02T07:03:56Z</time>
      </trkpt>
      <trkpt lat="45.91686" lon="1.15872">
        <ele>331.2</ele>
        <time>2022-10-02T07:03:57Z</time>
      </trkpt>
      <trkpt lat="45.91689" lon="1.15865">
        <ele>330.7</ele>
        <time>2022-10-02T07:03:58Z</time>
      </trkpt>
      <trkpt lat="45.91692" lon="1.15857">
        <ele>330.2</ele>
        <time>2022-10-02T07:03:59Z</time>
      </trkpt>
      <trkpt lat="45.91694" lon="1.1585">
        <ele>329.7</ele>
        <time>2022-10-02T07:04:00Z</time>
      </trkpt>
      <trkpt lat="45.91697" lon="1.15841">
        <ele>329.1</ele>
        <time>2022-10-02T07:04:01Z</time>
      </trkpt>
      <trkpt lat="45.917" lon="1.15832">
        <ele>328.6</ele>
        <time>2022-10-02T07:04:02Z</time>
      </trkpt>
      <trkpt lat="45.91703" lon="1.15822">
        <ele>328</ele>
        <time>2022-10-02T07:04:03Z</time>
      </trkpt>
      <trkpt lat="45.91706" lon="1.15812">
        <ele>327.6</ele>
        <time>2022-10-02T07:04:04Z</time>
      </trkpt>
      <trkpt lat="45.9171" lon="1.15802">
        <ele>327.1</ele>
        <time>2022-10-02T07:04:05Z</time>
      </trkpt>
      <trkpt lat="45.91714" lon="1.15792">
        <ele>326.6</ele>
        <time>2022-10-02T07:04:06Z</time>
      </trkpt>
      <trkpt lat="45.91718" lon="1.15783">
        <ele>326.2</ele>
        <time>2022-10-02T07:04:07Z</time>
      </trkpt>
      <trkpt lat="45.91722" lon="1.15773">
        <ele>325.7</ele>
        <time>2022-10-02T07:04:08Z</time>
      </trkpt>
      <trkpt lat="45.91727" lon="1.15763">
        <ele>325.3</ele>
        <time>2022-10-02T07:04:09Z</time>
      </trkpt>
      <trkpt lat="45.91732" lon="1.15754">
        <ele>325</ele>
        <time>2022-10-02T07:04:10Z</time>
      </trkpt>
      <trkpt lat="45.91737" lon="1.15746">
        <ele>324.7</ele>
        <time>2022-10-02T07:04:11Z</time>
      </trkpt>
      <trkpt lat="45.91742" lon="1.15738">
        <ele>324.5</ele>
        <time>2022-10-02T07:04:12Z</time>
      </trkpt>
      <trkpt lat="45.91747" lon="1.1573">
        <ele>324.2</ele>
        <time>2022-10-02T07:04:13Z</time>
      </trkpt>
      <trkpt lat="45.91753" lon="1.15723">
        <ele>324</ele>
        <time>2022-10-02T07:04:14Z</time>
      </trkpt>
      <trkpt lat="45.91759" lon="1.15717">
        <ele>323.8</ele>
        <time>2022-10-02T07:04:15Z</time>
      </trkpt>
      <trkpt lat="45.91765" lon="1.15711">
        <ele>323.7</ele>
        <time>2022-10-02T07:04:16Z</time>
      </trkpt>
      <trkpt lat="45.91771" lon="1.15705">
        <ele>323.6</ele>
        <time>2022-10-02T07:04:17Z</time>
      </trkpt>
      <trkpt lat="45.91778" lon="1.15699">
        <ele>323.6</ele>
        <time>2022-10-02T07:04:18Z</time>
      </trkpt>
      <trkpt lat="45.91783" lon="1.15692">
        <ele>323.6</ele>
        <time>2022-10-02T07:04:19Z</time>
      </trkpt>
      <trkpt lat="45.91789" lon="1.15685">
        <ele>323.6</ele>
        <time>2022-10-02T07:04:20Z</time>
      </trkpt>
      <trkpt lat="45.91794" lon="1.15679">
        <ele>323.8</ele>
        <time>2022-10-02T07:04:21Z</time>
      </trkpt>
      <trkpt lat="45.91799" lon="1.15672">
        <ele>323.9</ele>
        <time>2022-10-02T07:04:22Z</time>
      </trkpt>
      <trkpt lat="45.91803" lon="1.15665">
        <ele>324</ele>
        <time>2022-10-02T07:04:23Z</time>
      </trkpt>
      <trkpt lat="45.91807" lon="1.15659">
        <ele>324.2</ele>
        <time>2022-10-02T07:04:24Z</time>
      </trkpt>
      <trkpt lat="45.91811" lon="1.15652">
        <ele>324.3</ele>
        <time>2022-10-02T07:04:25Z</time>
      </trkpt>
      <trkpt lat="45.91814" lon="1.15646">
        <ele>324.5</ele>
        <time>2022-10-02T07:04:26Z</time>
      </trkpt>
      <trkpt lat="45.91818" lon="1.15639">
        <ele>324.8</ele>
        <time>2022-10-02T07:04:27Z</time>
      </trkpt>
      <trkpt lat="45.91821" lon="1.15632">
        <ele>325</ele>
        <time>2022-10-02T07:04:28Z</time>
      </trkpt>
      <trkpt lat="45.91824" lon="1.15625">
        <ele>325.2</ele>
        <time>2022-10-02T07:04:29Z</time>
      </trkpt>
      <trkpt lat="45.91827" lon="1.15618">
        <ele>325.5</ele>
        <time>2022-10-02T07:04:30Z</time>
      </trkpt>
      <trkpt lat="45.9183" lon="1.15613">
        <ele>325.7</ele>
        <time>2022-10-02T07:04:31Z</time>
      </trkpt>
      <trkpt lat="45.91832" lon="1.15605">
        <ele>326</ele>
        <time>2022-10-02T07:04:32Z</time>
      </trkpt>
      <trkpt lat="45.91832" lon="1.15598">
        <ele>326.2</ele>
        <time>2022-10-02T07:04:33Z</time>
      </trkpt>
      <trkpt lat="45.91833" lon="1.1559">
        <ele>326.4</ele>
        <time>2022-10-02T07:04:34Z</time>
      </trkpt>
      <trkpt lat="45.9183" lon="1.15587">
        <ele>326.5</ele>
        <time>2022-10-02T07:04:35Z</time>
      </trkpt>
      <trkpt lat="45.91827" lon="1.15586">
        <ele>326.5</ele>
        <time>2022-10-02T07:04:36Z</time>
      </trkpt>
      <trkpt lat="45.91824" lon="1.15582">
        <ele>326.6</ele>
        <time>2022-10-02T07:04:37Z</time>
      </trkpt>
      <trkpt lat="45.91821" lon="1.15579">
        <ele>326.5</ele>
        <time>2022-10-02T07:04:38Z</time>
      </trkpt>
      <trkpt lat="45.91814" lon="1.15574">
        <ele>326.4</ele>
        <time>2022-10-02T07:04:39Z</time>
      </trkpt>
      <trkpt lat="45.91809" lon="1.15568">
        <ele>326.2</ele>
        <time>2022-10-02T07:04:40Z</time>
      </trkpt>
      <trkpt lat="45.91803" lon="1.15563">
        <ele>325.9</ele>
        <time>2022-10-02T07:04:41Z</time>
      </trkpt>
      <trkpt lat="45.91798" lon="1.15554">
        <ele>325.5</ele>
        <time>2022-10-02T07:04:42Z</time>
      </trkpt>
      <trkpt lat="45.91792" lon="1.1555">
        <ele>325.1</ele>
        <time>2022-10-02T07:04:43Z</time>
      </trkpt>
      <trkpt lat="45.91788" lon="1.15547">
        <ele>324.7</ele>
        <time>2022-10-02T07:04:44Z</time>
      </trkpt>
      <trkpt lat="45.91783" lon="1.15541">
        <ele>324.2</ele>
        <time>2022-10-02T07:04:45Z</time>
      </trkpt>
      <trkpt lat="45.91779" lon="1.15535">
        <ele>323.7</ele>
        <time>2022-10-02T07:04:46Z</time>
      </trkpt>
      <trkpt lat="45.91774" lon="1.1553">
        <ele>323.2</ele>
        <time>2022-10-02T07:04:47Z</time>
      </trkpt>
      <trkpt lat="45.91769" lon="1.15522">
        <ele>322.5</ele>
        <time>2022-10-02T07:04:48Z</time>
      </trkpt>
      <trkpt lat="45.91763" lon="1.15516">
        <ele>321.8</ele>
        <time>2022-10-02T07:04:49Z</time>
      </trkpt>
      <trkpt lat="45.91761" lon="1.15503">
        <ele>321</ele>
        <time>2022-10-02T07:04:50Z</time>
      </trkpt>
      <trkpt lat="45.91758" lon="1.15497">
        <ele>320.4</ele>
        <time>2022-10-02T07:04:51Z</time>
      </trkpt>
      <trkpt lat="45.91754" lon="1.15489">
        <ele>319.8</ele>
        <time>2022-10-02T07:04:52Z</time>
      </trkpt>
      <trkpt lat="45.91751" lon="1.15481">
        <ele>319.2</ele>
        <time>2022-10-02T07:04:53Z</time>
      </trkpt>
      <trkpt lat="45.91747" lon="1.15476">
        <ele>318.6</ele>
        <time>2022-10-02T07:04:54Z</time>
      </trkpt>
      <trkpt lat="45.91745" lon="1.15464">
        <ele>317.7</ele>
        <time>2022-10-02T07:04:55Z</time>
      </trkpt>
      <trkpt lat="45.9174" lon="1.15458">
        <ele>317.1</ele>
        <time>2022-10-02T07:04:56Z</time>
      </trkpt>
      <trkpt lat="45.91738" lon="1.15451">
        <ele>316.6</ele>
        <time>2022-10-02T07:04:57Z</time>
      </trkpt>
      <trkpt lat="45.91738" lon="1.15446">
        <ele>316.2</ele>
        <time>2022-10-02T07:04:58Z</time>
      </trkpt>
      <trkpt lat="45.91738" lon="1.15439">
        <ele>315.8</ele>
        <time>2022-10-02T07:04:59Z</time>
      </trkpt>
      <trkpt lat="45.91737" lon="1.15432">
        <ele>315.5</ele>
        <time>2022-10-02T07:05:00Z</time>
      </trkpt>
      <trkpt lat="45.91736" lon="1.15425">
        <ele>315.3</ele>
        <time>2022-10-02T07:05:01Z</time>
      </trkpt>
      <trkpt lat="45.91732" lon="1.15418">
        <ele>315.2</ele>
        <time>2022-10-02T07:05:02Z</time>
      </trkpt>
      <trkpt lat="45.91729" lon="1.1541">
        <ele>315.2</ele>
        <time>2022-10-02T07:05:03Z</time>
      </trkpt>
      <trkpt lat="45.91725" lon="1.15403">
        <ele>315.3</ele>
        <time>2022-10-02T07:05:04Z</time>
      </trkpt>
      <trkpt lat="45.91722" lon="1.15395">
        <ele>315.5</ele>
        <time>2022-10-02T07:05:05Z</time>
      </trkpt>
      <trkpt lat="45.91719" lon="1.15389">
        <ele>315.7</ele>
        <time>2022-10-02T07:05:06Z</time>
      </trkpt>
      <trkpt lat="45.91715" lon="1.15382">
        <ele>316</ele>
        <time>2022-10-02T07:05:07Z</time>
      </trkpt>
      <trkpt lat="45.91712" lon="1.15376">
        <ele>316.4</ele>
        <time>2022-10-02T07:05:08Z</time>
      </trkpt>
      <trkpt lat="45.91708" lon="1.15368">
        <ele>316.9</ele>
        <time>2022-10-02T07:05:09Z</time>
      </trkpt>
      <trkpt lat="45.91705" lon="1.1536">
        <ele>317.4</ele>
        <time>2022-10-02T07:05:10Z</time>
      </trkpt>
      <trkpt lat="45.91702" lon="1.15354">
        <ele>317.9</ele>
        <time>2022-10-02T07:05:11Z</time>
      </trkpt>
      <trkpt lat="45.91699" lon="1.15348">
        <ele>318.3</ele>
        <time>2022-10-02T07:05:12Z</time>
      </trkpt>
      <trkpt lat="45.91695" lon="1.15341">
        <ele>318.8</ele>
        <time>2022-10-02T07:05:13Z</time>
      </trkpt>
      <trkpt lat="45.91692" lon="1.15335">
        <ele>319.2</ele>
        <time>2022-10-02T07:05:14Z</time>
      </trkpt>
      <trkpt lat="45.91689" lon="1.15328">
        <ele>319.7</ele>
        <time>2022-10-02T07:05:15Z</time>
      </trkpt>
      <trkpt lat="45.91686" lon="1.15322">
        <ele>320.2</ele>
        <time>2022-10-02T07:05:16Z</time>
      </trkpt>
      <trkpt lat="45.91683" lon="1.15316">
        <ele>320.6</ele>
        <time>2022-10-02T07:05:17Z</time>
      </trkpt>
      <trkpt lat="45.9168" lon="1.15309">
        <ele>321</ele>
        <time>2022-10-02T07:05:18Z</time>
      </trkpt>
      <trkpt lat="45.91677" lon="1.15303">
        <ele>321.4</ele>
        <time>2022-10-02T07:05:19Z</time>
      </trkpt>
      <trkpt lat="45.91673" lon="1.15297">
        <ele>321.8</ele>
        <time>2022-10-02T07:05:20Z</time>
      </trkpt>
      <trkpt lat="45.91669" lon="1.1529">
        <ele>322.2</ele>
        <time>2022-10-02T07:05:21Z</time>
      </trkpt>
      <trkpt lat="45.91665" lon="1.15284">
        <ele>322.6</ele>
        <time>2022-10-02T07:05:22Z</time>
      </trkpt>
      <trkpt lat="45.91661" lon="1.15279">
        <ele>323</ele>
        <time>2022-10-02T07:05:23Z</time>
      </trkpt>
      <trkpt lat="45.91656" lon="1.15275">
        <ele>323.3</ele>
        <time>2022-10-02T07:05:24Z</time>
      </trkpt>
      <trkpt lat="45.91652" lon="1.15271">
        <ele>323.6</ele>
        <time>2022-10-02T07:05:25Z</time>
      </trkpt>
      <trkpt lat="45.91645" lon="1.15267">
        <ele>323.9</ele>
        <time>2022-10-02T07:05:26Z</time>
      </trkpt>
      <trkpt lat="45.91639" lon="1.15264">
        <ele>324.2</ele>
        <time>2022-10-02T07:05:27Z</time>
      </trkpt>
      <trkpt lat="45.91634" lon="1.1526">
        <ele>324.4</ele>
        <time>2022-10-02T07:05:28Z</time>
      </trkpt>
      <trkpt lat="45.91629" lon="1.15256">
        <ele>324.7</ele>
        <time>2022-10-02T07:05:29Z</time>
      </trkpt>
      <trkpt lat="45.91626" lon="1.15252">
        <ele>324.9</ele>
        <time>2022-10-02T07:05:30Z</time>
      </trkpt>
      <trkpt lat="45.91621" lon="1.15249">
        <ele>325.2</ele>
        <time>2022-10-02T07:05:31Z</time>
      </trkpt>
      <trkpt lat="45.91614" lon="1.15246">
        <ele>325.4</ele>
        <time>2022-10-02T07:05:32Z</time>
      </trkpt>
      <trkpt lat="45.91611" lon="1.15241">
        <ele>325.7</ele>
        <time>2022-10-02T07:05:33Z</time>
      </trkpt>
      <trkpt lat="45.91604" lon="1.15238">
        <ele>325.9</ele>
        <time>2022-10-02T07:05:34Z</time>
      </trkpt>
      <trkpt lat="45.91599" lon="1.15236">
        <ele>326.1</ele>
        <time>2022-10-02T07:05:35Z</time>
      </trkpt>
      <trkpt lat="45.91591" lon="1.15234">
        <ele>326.4</ele>
        <time>2022-10-02T07:05:36Z</time>
      </trkpt>
      <trkpt lat="45.91585" lon="1.15231">
        <ele>326.7</ele>
        <time>2022-10-02T07:05:37Z</time>
      </trkpt>
      <trkpt lat="45.91579" lon="1.15228">
        <ele>326.9</ele>
        <time>2022-10-02T07:05:38Z</time>
      </trkpt>
      <trkpt lat="45.91573" lon="1.15226">
        <ele>327.2</ele>
        <time>2022-10-02T07:05:39Z</time>
      </trkpt>
      <trkpt lat="45.91567" lon="1.15223">
        <ele>327.4</ele>
        <time>2022-10-02T07:05:40Z</time>
      </trkpt>
      <trkpt lat="45.91561" lon="1.15221">
        <ele>327.6</ele>
        <time>2022-10-02T07:05:41Z</time>
      </trkpt>
      <trkpt lat="45.91555" lon="1.1522">
        <ele>327.9</ele>
        <time>2022-10-02T07:05:42Z</time>
      </trkpt>
      <trkpt lat="45.9155" lon="1.15217">
        <ele>328.1</ele>
        <time>2022-10-02T07:05:43Z</time>
      </trkpt>
      <trkpt lat="45.91544" lon="1.15215">
        <ele>328.3</ele>
        <time>2022-10-02T07:05:44Z</time>
      </trkpt>
      <trkpt lat="45.9154" lon="1.15212">
        <ele>328.5</ele>
        <time>2022-10-02T07:05:45Z</time>
      </trkpt>
      <trkpt lat="45.91535" lon="1.1521">
        <ele>328.7</ele>
        <time>2022-10-02T07:05:46Z</time>
      </trkpt>
      <trkpt lat="45.9153" lon="1.15208">
        <ele>328.9</ele>
        <time>2022-10-02T07:05:47Z</time>
      </trkpt>
      <trkpt lat="45.91524" lon="1.15206">
        <ele>329.1</ele>
        <time>2022-10-02T07:05:48Z</time>
      </trkpt>
      <trkpt lat="45.91518" lon="1.15206">
        <ele>329.4</ele>
        <time>2022-10-02T07:05:49Z</time>
      </trkpt>
      <trkpt lat="45.91513" lon="1.15206">
        <ele>329.6</ele>
        <time>2022-10-02T07:05:50Z</time>
      </trkpt>
      <trkpt lat="45.91507" lon="1.15205">
        <ele>329.8</ele>
        <time>2022-10-02T07:05:51Z</time>
      </trkpt>
      <trkpt lat="45.91501" lon="1.15203">
        <ele>330.1</ele>
        <time>2022-10-02T07:05:52Z</time>
      </trkpt>
      <trkpt lat="45.91495" lon="1.15203">
        <ele>330.3</ele>
        <time>2022-10-02T07:05:53Z</time>
      </trkpt>
      <trkpt lat="45.9149" lon="1.15204">
        <ele>330.5</ele>
        <time>2022-10-02T07:05:54Z</time>
      </trkpt>
      <trkpt lat="45.91482" lon="1.15204">
        <ele>330.8</ele>
        <time>2022-10-02T07:05:55Z</time>
      </trkpt>
      <trkpt lat="45.91476" lon="1.15206">
        <ele>331</ele>
        <time>2022-10-02T07:05:56Z</time>
      </trkpt>
      <trkpt lat="45.91471" lon="1.15205">
        <ele>331.3</ele>
        <time>2022-10-02T07:05:57Z</time>
      </trkpt>
      <trkpt lat="45.91465" lon="1.15206">
        <ele>331.5</ele>
        <time>2022-10-02T07:05:58Z</time>
      </trkpt>
      <trkpt lat="45.91459" lon="1.15207">
        <ele>331.8</ele>
        <time>2022-10-02T07:05:59Z</time>
      </trkpt>
      <trkpt lat="45.91453" lon="1.15208">
        <ele>332</ele>
        <time>2022-10-02T07:06:00Z</time>
      </trkpt>
      <trkpt lat="45.91447" lon="1.15208">
        <ele>332.2</ele>
        <time>2022-10-02T07:06:01Z</time>
      </trkpt>
      <trkpt lat="45.91443" lon="1.15209">
        <ele>332.4</ele>
        <time>2022-10-02T07:06:02Z</time>
      </trkpt>
      <trkpt lat="45.91437" lon="1.1521">
        <ele>332.7</ele>
        <time>2022-10-02T07:06:03Z</time>
      </trkpt>
      <trkpt lat="45.91431" lon="1.15212">
        <ele>332.9</ele>
        <time>2022-10-02T07:06:04Z</time>
      </trkpt>
      <trkpt lat="45.91425" lon="1.15212">
        <ele>333.1</ele>
        <time>2022-10-02T07:06:05Z</time>
      </trkpt>
      <trkpt lat="45.91419" lon="1.15211">
        <ele>333.3</ele>
        <time>2022-10-02T07:06:06Z</time>
      </trkpt>
      <trkpt lat="45.91412" lon="1.1521">
        <ele>333.5</ele>
        <time>2022-10-02T07:06:07Z</time>
      </trkpt>
      <trkpt lat="45.91406" lon="1.1521">
        <ele>333.7</ele>
        <time>2022-10-02T07:06:08Z</time>
      </trkpt>
      <trkpt lat="45.914" lon="1.15209">
        <ele>333.9</ele>
        <time>2022-10-02T07:06:09Z</time>
      </trkpt>
      <trkpt lat="45.91394" lon="1.15207">
        <ele>334.1</ele>
        <time>2022-10-02T07:06:10Z</time>
      </trkpt>
      <trkpt lat="45.91388" lon="1.15207">
        <ele>334.2</ele>
        <time>2022-10-02T07:06:11Z</time>
      </trkpt>
      <trkpt lat="45.91383" lon="1.15206">
        <ele>334.4</ele>
        <time>2022-10-02T07:06:12Z</time>
      </trkpt>
      <trkpt lat="45.91377" lon="1.15205">
        <ele>334.6</ele>
        <time>2022-10-02T07:06:13Z</time>
      </trkpt>
      <trkpt lat="45.91372" lon="1.15204">
        <ele>334.7</ele>
        <time>2022-10-02T07:06:14Z</time>
      </trkpt>
      <trkpt lat="45.91367" lon="1.15204">
        <ele>334.9</ele>
        <time>2022-10-02T07:06:15Z</time>
      </trkpt>
      <trkpt lat="45.91362" lon="1.15203">
        <ele>335.1</ele>
        <time>2022-10-02T07:06:16Z</time>
      </trkpt>
      <trkpt lat="45.91359" lon="1.15199">
        <ele>335.3</ele>
        <time>2022-10-02T07:06:17Z</time>
      </trkpt>
      <trkpt lat="45.91358" lon="1.15194">
        <ele>335.6</ele>
        <time>2022-10-02T07:06:18Z</time>
      </trkpt>
      <trkpt lat="45.91358" lon="1.15188">
        <ele>335.6</ele>
        <time>2022-10-02T07:06:19Z</time>
      </trkpt>
      <trkpt lat="45.91362" lon="1.15183">
        <ele>335.5</ele>
        <time>2022-10-02T07:06:20Z</time>
      </trkpt>
      <trkpt lat="45.91367" lon="1.15179">
        <ele>335.5</ele>
        <time>2022-10-02T07:06:21Z</time>
      </trkpt>
      <trkpt lat="45.91372" lon="1.15174">
        <ele>335.3</ele>
        <time>2022-10-02T07:06:22Z</time>
      </trkpt>
      <trkpt lat="45.91378" lon="1.15171">
        <ele>335.1</ele>
        <time>2022-10-02T07:06:23Z</time>
      </trkpt>
      <trkpt lat="45.91384" lon="1.15167">
        <ele>335</ele>
        <time>2022-10-02T07:06:24Z</time>
      </trkpt>
      <trkpt lat="45.9139" lon="1.15164">
        <ele>334.8</ele>
        <time>2022-10-02T07:06:25Z</time>
      </trkpt>
      <trkpt lat="45.91396" lon="1.15162">
        <ele>334.7</ele>
        <time>2022-10-02T07:06:26Z</time>
      </trkpt>
      <trkpt lat="45.91402" lon="1.15156">
        <ele>334.5</ele>
        <time>2022-10-02T07:06:27Z</time>
      </trkpt>
      <trkpt lat="45.91407" lon="1.1515">
        <ele>334.4</ele>
        <time>2022-10-02T07:06:28Z</time>
      </trkpt>
      <trkpt lat="45.91412" lon="1.15144">
        <ele>334.4</ele>
        <time>2022-10-02T07:06:29Z</time>
      </trkpt>
      <trkpt lat="45.91417" lon="1.15139">
        <ele>334.4</ele>
        <time>2022-10-02T07:06:30Z</time>
      </trkpt>
      <trkpt lat="45.91421" lon="1.15131">
        <ele>334.4</ele>
        <time>2022-10-02T07:06:31Z</time>
      </trkpt>
      <trkpt lat="45.91425" lon="1.15125">
        <ele>334.4</ele>
        <time>2022-10-02T07:06:32Z</time>
      </trkpt>
      <trkpt lat="45.91428" lon="1.15118">
        <ele>334.5</ele>
        <time>2022-10-02T07:06:33Z</time>
      </trkpt>
      <trkpt lat="45.91433" lon="1.15112">
        <ele>334.6</ele>
        <time>2022-10-02T07:06:34Z</time>
      </trkpt>
      <trkpt lat="45.91437" lon="1.15105">
        <ele>334.8</ele>
        <time>2022-10-02T07:06:35Z</time>
      </trkpt>
      <trkpt lat="45.9144" lon="1.15099">
        <ele>334.9</ele>
        <time>2022-10-02T07:06:36Z</time>
      </trkpt>
      <trkpt lat="45.91445" lon="1.15092">
        <ele>335.1</ele>
        <time>2022-10-02T07:06:37Z</time>
      </trkpt>
      <trkpt lat="45.91448" lon="1.15086">
        <ele>335.2</ele>
        <time>2022-10-02T07:06:38Z</time>
      </trkpt>
      <trkpt lat="45.91451" lon="1.1508">
        <ele>335.4</ele>
        <time>2022-10-02T07:06:39Z</time>
      </trkpt>
      <trkpt lat="45.91456" lon="1.15074">
        <ele>335.5</ele>
        <time>2022-10-02T07:06:40Z</time>
      </trkpt>
      <trkpt lat="45.91461" lon="1.15068">
        <ele>335.6</ele>
        <time>2022-10-02T07:06:41Z</time>
      </trkpt>
      <trkpt lat="45.91465" lon="1.15061">
        <ele>335.7</ele>
        <time>2022-10-02T07:06:42Z</time>
      </trkpt>
      <trkpt lat="45.9147" lon="1.15057">
        <ele>335.7</ele>
        <time>2022-10-02T07:06:43Z</time>
      </trkpt>
      <trkpt lat="45.91474" lon="1.15051">
        <ele>335.7</ele>
        <time>2022-10-02T07:06:44Z</time>
      </trkpt>
      <trkpt lat="45.91479" lon="1.15047">
        <ele>335.7</ele>
        <time>2022-10-02T07:06:45Z</time>
      </trkpt>
      <trkpt lat="45.91483" lon="1.15044">
        <ele>335.6</ele>
        <time>2022-10-02T07:06:46Z</time>
      </trkpt>
      <trkpt lat="45.91489" lon="1.1504">
        <ele>335.5</ele>
        <time>2022-10-02T07:06:47Z</time>
      </trkpt>
      <trkpt lat="45.91494" lon="1.15037">
        <ele>335.4</ele>
        <time>2022-10-02T07:06:48Z</time>
      </trkpt>
      <trkpt lat="45.915" lon="1.15033">
        <ele>335.3</ele>
        <time>2022-10-02T07:06:49Z</time>
      </trkpt>
      <trkpt lat="45.91506" lon="1.15031">
        <ele>335.2</ele>
        <time>2022-10-02T07:06:50Z</time>
      </trkpt>
      <trkpt lat="45.91513" lon="1.15028">
        <ele>334.9</ele>
        <time>2022-10-02T07:06:51Z</time>
      </trkpt>
      <trkpt lat="45.91519" lon="1.15026">
        <ele>334.7</ele>
        <time>2022-10-02T07:06:52Z</time>
      </trkpt>
      <trkpt lat="45.91527" lon="1.15025">
        <ele>334.4</ele>
        <time>2022-10-02T07:06:53Z</time>
      </trkpt>
      <trkpt lat="45.91532" lon="1.15028">
        <ele>334.1</ele>
        <time>2022-10-02T07:06:54Z</time>
      </trkpt>
      <trkpt lat="45.91538" lon="1.15025">
        <ele>333.9</ele>
        <time>2022-10-02T07:06:55Z</time>
      </trkpt>
      <trkpt lat="45.91545" lon="1.15022">
        <ele>333.6</ele>
        <time>2022-10-02T07:06:56Z</time>
      </trkpt>
      <trkpt lat="45.91551" lon="1.15017">
        <ele>333.3</ele>
        <time>2022-10-02T07:06:57Z</time>
      </trkpt>
      <trkpt lat="45.91558" lon="1.15015">
        <ele>333</ele>
        <time>2022-10-02T07:06:58Z</time>
      </trkpt>
      <trkpt lat="45.91565" lon="1.15009">
        <ele>332.8</ele>
        <time>2022-10-02T07:06:59Z</time>
      </trkpt>
      <trkpt lat="45.91571" lon="1.15005">
        <ele>332.6</ele>
        <time>2022-10-02T07:07:00Z</time>
      </trkpt>
      <trkpt lat="45.91576" lon="1.15002">
        <ele>332.5</ele>
        <time>2022-10-02T07:07:01Z</time>
      </trkpt>
      <trkpt lat="45.91582" lon="1.14997">
        <ele>332.3</ele>
        <time>2022-10-02T07:07:02Z</time>
      </trkpt>
      <trkpt lat="45.91587" lon="1.14991">
        <ele>332.2</ele>
        <time>2022-10-02T07:07:03Z</time>
      </trkpt>
      <trkpt lat="45.91593" lon="1.14985">
        <ele>332.1</ele>
        <time>2022-10-02T07:07:04Z</time>
      </trkpt>
      <trkpt lat="45.91597" lon="1.14978">
        <ele>332</ele>
        <time>2022-10-02T07:07:05Z</time>
      </trkpt>
      <trkpt lat="45.91601" lon="1.14971">
        <ele>332</ele>
        <time>2022-10-02T07:07:06Z</time>
      </trkpt>
      <trkpt lat="45.91605" lon="1.14965">
        <ele>331.9</ele>
        <time>2022-10-02T07:07:07Z</time>
      </trkpt>
      <trkpt lat="45.9161" lon="1.1496">
        <ele>331.8</ele>
        <time>2022-10-02T07:07:08Z</time>
      </trkpt>
      <trkpt lat="45.91615" lon="1.14953">
        <ele>331.8</ele>
        <time>2022-10-02T07:07:09Z</time>
      </trkpt>
      <trkpt lat="45.91618" lon="1.14946">
        <ele>331.7</ele>
        <time>2022-10-02T07:07:10Z</time>
      </trkpt>
      <trkpt lat="45.91621" lon="1.14939">
        <ele>331.6</ele>
        <time>2022-10-02T07:07:11Z</time>
      </trkpt>
      <trkpt lat="45.91623" lon="1.14932">
        <ele>331.5</ele>
        <time>2022-10-02T07:07:12Z</time>
      </trkpt>
      <trkpt lat="45.91623" lon="1.14922">
        <ele>331.5</ele>
        <time>2022-10-02T07:07:13Z</time>
      </trkpt>
      <trkpt lat="45.91622" lon="1.14912">
        <ele>331.6</ele>
        <time>2022-10-02T07:07:14Z</time>
      </trkpt>
      <trkpt lat="45.9162" lon="1.14903">
        <ele>331.7</ele>
        <time>2022-10-02T07:07:15Z</time>
      </trkpt>
      <trkpt lat="45.9162" lon="1.14892">
        <ele>331.9</ele>
        <time>2022-10-02T07:07:16Z</time>
      </trkpt>
      <trkpt lat="45.91618" lon="1.14885">
        <ele>332</ele>
        <time>2022-10-02T07:07:17Z</time>
      </trkpt>
      <trkpt lat="45.91617" lon="1.14878">
        <ele>332.1</ele>
        <time>2022-10-02T07:07:18Z</time>
      </trkpt>
      <trkpt lat="45.91617" lon="1.14869">
        <ele>332.1</ele>
        <time>2022-10-02T07:07:19Z</time>
      </trkpt>
      <trkpt lat="45.91615" lon="1.14859">
        <ele>332.1</ele>
        <time>2022-10-02T07:07:20Z</time>
      </trkpt>
      <trkpt lat="45.91615" lon="1.14853">
        <ele>332</ele>
        <time>2022-10-02T07:07:21Z</time>
      </trkpt>
      <trkpt lat="45.91614" lon="1.14846">
        <ele>331.9</ele>
        <time>2022-10-02T07:07:22Z</time>
      </trkpt>
      <trkpt lat="45.91615" lon="1.14837">
        <ele>331.7</ele>
        <time>2022-10-02T07:07:23Z</time>
      </trkpt>
      <trkpt lat="45.91617" lon="1.1483">
        <ele>331.5</ele>
        <time>2022-10-02T07:07:24Z</time>
      </trkpt>
      <trkpt lat="45.91616" lon="1.14822">
        <ele>331.2</ele>
        <time>2022-10-02T07:07:25Z</time>
      </trkpt>
      <trkpt lat="45.91618" lon="1.14814">
        <ele>330.9</ele>
        <time>2022-10-02T07:07:26Z</time>
      </trkpt>
      <trkpt lat="45.91616" lon="1.14802">
        <ele>330.3</ele>
        <time>2022-10-02T07:07:27Z</time>
      </trkpt>
      <trkpt lat="45.91616" lon="1.14793">
        <ele>329.9</ele>
        <time>2022-10-02T07:07:28Z</time>
      </trkpt>
      <trkpt lat="45.91616" lon="1.14787">
        <ele>329.6</ele>
        <time>2022-10-02T07:07:29Z</time>
      </trkpt>
      <trkpt lat="45.91616" lon="1.1478">
        <ele>329.3</ele>
        <time>2022-10-02T07:07:30Z</time>
      </trkpt>
      <trkpt lat="45.91616" lon="1.14775">
        <ele>329</ele>
        <time>2022-10-02T07:07:31Z</time>
      </trkpt>
      <trkpt lat="45.91616" lon="1.14767">
        <ele>328.6</ele>
        <time>2022-10-02T07:07:32Z</time>
      </trkpt>
      <trkpt lat="45.91616" lon="1.14758">
        <ele>328.1</ele>
        <time>2022-10-02T07:07:33Z</time>
      </trkpt>
      <trkpt lat="45.91617" lon="1.14748">
        <ele>327.5</ele>
        <time>2022-10-02T07:07:34Z</time>
      </trkpt>
      <trkpt lat="45.91619" lon="1.14739">
        <ele>326.8</ele>
        <time>2022-10-02T07:07:35Z</time>
      </trkpt>
      <trkpt lat="45.91619" lon="1.14731">
        <ele>326.3</ele>
        <time>2022-10-02T07:07:36Z</time>
      </trkpt>
      <trkpt lat="45.91621" lon="1.14723">
        <ele>325.7</ele>
        <time>2022-10-02T07:07:37Z</time>
      </trkpt>
      <trkpt lat="45.91623" lon="1.14718">
        <ele>325.3</ele>
        <time>2022-10-02T07:07:38Z</time>
      </trkpt>
      <trkpt lat="45.91625" lon="1.14713">
        <ele>324.9</ele>
        <time>2022-10-02T07:07:39Z</time>
      </trkpt>
      <trkpt lat="45.91626" lon="1.14708">
        <ele>324.4</ele>
        <time>2022-10-02T07:07:40Z</time>
      </trkpt>
      <trkpt lat="45.91627" lon="1.14703">
        <ele>324</ele>
        <time>2022-10-02T07:07:41Z</time>
      </trkpt>
      <trkpt lat="45.91628" lon="1.14699">
        <ele>323.7</ele>
        <time>2022-10-02T07:07:42Z</time>
      </trkpt>
      <trkpt lat="45.9163" lon="1.14696">
        <ele>323.4</ele>
        <time>2022-10-02T07:07:43Z</time>
      </trkpt>
      <trkpt lat="45.91632" lon="1.14693">
        <ele>323.1</ele>
        <time>2022-10-02T07:07:45Z</time>
      </trkpt>
      <trkpt lat="45.91634" lon="1.14691">
        <ele>322.7</ele>
        <time>2022-10-02T07:07:46Z</time>
      </trkpt>
      <trkpt lat="45.91637" lon="1.1469">
        <ele>322.4</ele>
        <time>2022-10-02T07:07:47Z</time>
      </trkpt>
      <trkpt lat="45.91642" lon="1.14682">
        <ele>321.4</ele>
        <time>2022-10-02T07:07:48Z</time>
      </trkpt>
      <trkpt lat="45.91645" lon="1.14678">
        <ele>320.9</ele>
        <time>2022-10-02T07:07:49Z</time>
      </trkpt>
      <trkpt lat="45.91647" lon="1.14672">
        <ele>320.3</ele>
        <time>2022-10-02T07:07:50Z</time>
      </trkpt>
      <trkpt lat="45.91646" lon="1.14667">
        <ele>319.9</ele>
        <time>2022-10-02T07:07:51Z</time>
      </trkpt>
      <trkpt lat="45.91651" lon="1.14666">
        <ele>319.2</ele>
        <time>2022-10-02T07:07:52Z</time>
      </trkpt>
      <trkpt lat="45.91654" lon="1.14664">
        <ele>318.8</ele>
        <time>2022-10-02T07:07:53Z</time>
      </trkpt>
      <trkpt lat="45.91658" lon="1.1466">
        <ele>318.2</ele>
        <time>2022-10-02T07:07:54Z</time>
      </trkpt>
      <trkpt lat="45.91663" lon="1.14654">
        <ele>317.3</ele>
        <time>2022-10-02T07:07:55Z</time>
      </trkpt>
      <trkpt lat="45.91668" lon="1.14645">
        <ele>316.1</ele>
        <time>2022-10-02T07:07:56Z</time>
      </trkpt>
      <trkpt lat="45.91675" lon="1.14639">
        <ele>315.1</ele>
        <time>2022-10-02T07:07:57Z</time>
      </trkpt>
      <trkpt lat="45.9168" lon="1.14634">
        <ele>314.1</ele>
        <time>2022-10-02T07:07:58Z</time>
      </trkpt>
      <trkpt lat="45.91685" lon="1.14631">
        <ele>313.4</ele>
        <time>2022-10-02T07:07:59Z</time>
      </trkpt>
      <trkpt lat="45.9169" lon="1.14629">
        <ele>312.8</ele>
        <time>2022-10-02T07:08:00Z</time>
      </trkpt>
      <trkpt lat="45.91694" lon="1.14625">
        <ele>312.1</ele>
        <time>2022-10-02T07:08:01Z</time>
      </trkpt>
      <trkpt lat="45.91699" lon="1.14624">
        <ele>311.5</ele>
        <time>2022-10-02T07:08:02Z</time>
      </trkpt>
      <trkpt lat="45.91706" lon="1.14624">
        <ele>310.6</ele>
        <time>2022-10-02T07:08:03Z</time>
      </trkpt>
      <trkpt lat="45.91713" lon="1.14623">
        <ele>310</ele>
        <time>2022-10-02T07:08:04Z</time>
      </trkpt>
      <trkpt lat="45.91718" lon="1.14623">
        <ele>309.6</ele>
        <time>2022-10-02T07:08:05Z</time>
      </trkpt>
      <trkpt lat="45.91725" lon="1.14623">
        <ele>309.2</ele>
        <time>2022-10-02T07:08:06Z</time>
      </trkpt>
      <trkpt lat="45.91733" lon="1.14625">
        <ele>308.9</ele>
        <time>2022-10-02T07:08:07Z</time>
      </trkpt>
      <trkpt lat="45.9174" lon="1.14628">
        <ele>308.6</ele>
        <time>2022-10-02T07:08:08Z</time>
      </trkpt>
      <trkpt lat="45.91747" lon="1.14632">
        <ele>308.4</ele>
        <time>2022-10-02T07:08:09Z</time>
      </trkpt>
      <trkpt lat="45.91754" lon="1.14633">
        <ele>308.3</ele>
        <time>2022-10-02T07:08:10Z</time>
      </trkpt>
      <trkpt lat="45.91761" lon="1.14632">
        <ele>308.2</ele>
        <time>2022-10-02T07:08:11Z</time>
      </trkpt>
      <trkpt lat="45.91766" lon="1.14631">
        <ele>308.1</ele>
        <time>2022-10-02T07:08:12Z</time>
      </trkpt>
      <trkpt lat="45.91772" lon="1.14631">
        <ele>308</ele>
        <time>2022-10-02T07:08:13Z</time>
      </trkpt>
      <trkpt lat="45.91778" lon="1.14632">
        <ele>308</ele>
        <time>2022-10-02T07:08:14Z</time>
      </trkpt>
      <trkpt lat="45.91784" lon="1.14629">
        <ele>307.8</ele>
        <time>2022-10-02T07:08:15Z</time>
      </trkpt>
      <trkpt lat="45.91788" lon="1.14625">
        <ele>307.7</ele>
        <time>2022-10-02T07:08:16Z</time>
      </trkpt>
      <trkpt lat="45.9179" lon="1.14618">
        <ele>307.6</ele>
        <time>2022-10-02T07:08:17Z</time>
      </trkpt>
      <trkpt lat="45.91791" lon="1.1461">
        <ele>307.5</ele>
        <time>2022-10-02T07:08:18Z</time>
      </trkpt>
      <trkpt lat="45.91792" lon="1.14601">
        <ele>307.5</ele>
        <time>2022-10-02T07:08:19Z</time>
      </trkpt>
      <trkpt lat="45.91793" lon="1.14592">
        <ele>307.5</ele>
        <time>2022-10-02T07:08:20Z</time>
      </trkpt>
      <trkpt lat="45.91793" lon="1.14584">
        <ele>307.6</ele>
        <time>2022-10-02T07:08:21Z</time>
      </trkpt>
      <trkpt lat="45.91794" lon="1.14577">
        <ele>307.6</ele>
        <time>2022-10-02T07:08:22Z</time>
      </trkpt>
      <trkpt lat="45.91795" lon="1.14571">
        <ele>307.7</ele>
        <time>2022-10-02T07:08:23Z</time>
      </trkpt>
      <trkpt lat="45.91798" lon="1.14565">
        <ele>307.8</ele>
        <time>2022-10-02T07:08:24Z</time>
      </trkpt>
      <trkpt lat="45.91802" lon="1.14563">
        <ele>307.8</ele>
        <time>2022-10-02T07:08:25Z</time>
      </trkpt>
      <trkpt lat="45.91805" lon="1.14566">
        <ele>307.8</ele>
        <time>2022-10-02T07:08:26Z</time>
      </trkpt>
      <trkpt lat="45.9181" lon="1.14568">
        <ele>307.9</ele>
        <time>2022-10-02T07:08:27Z</time>
      </trkpt>
      <trkpt lat="45.91815" lon="1.1457">
        <ele>308</ele>
        <time>2022-10-02T07:08:28Z</time>
      </trkpt>
      <trkpt lat="45.91819" lon="1.14571">
        <ele>308</ele>
        <time>2022-10-02T07:08:29Z</time>
      </trkpt>
      <trkpt lat="45.91825" lon="1.14572">
        <ele>308.1</ele>
        <time>2022-10-02T07:08:30Z</time>
      </trkpt>
      <trkpt lat="45.9183" lon="1.14574">
        <ele>308.1</ele>
        <time>2022-10-02T07:08:31Z</time>
      </trkpt>
      <trkpt lat="45.91834" lon="1.14576">
        <ele>308.1</ele>
        <time>2022-10-02T07:08:32Z</time>
      </trkpt>
      <trkpt lat="45.91839" lon="1.14578">
        <ele>308.1</ele>
        <time>2022-10-02T07:08:33Z</time>
      </trkpt>
      <trkpt lat="45.91842" lon="1.1458">
        <ele>308.1</ele>
        <time>2022-10-02T07:08:34Z</time>
      </trkpt>
      <trkpt lat="45.91847" lon="1.14583">
        <ele>308</ele>
        <time>2022-10-02T07:08:35Z</time>
      </trkpt>
      <trkpt lat="45.91852" lon="1.14587">
        <ele>308</ele>
        <time>2022-10-02T07:08:36Z</time>
      </trkpt>
      <trkpt lat="45.91858" lon="1.14591">
        <ele>307.9</ele>
        <time>2022-10-02T07:08:37Z</time>
      </trkpt>
      <trkpt lat="45.91863" lon="1.14593">
        <ele>307.9</ele>
        <time>2022-10-02T07:08:38Z</time>
      </trkpt>
      <trkpt lat="45.91868" lon="1.14596">
        <ele>307.9</ele>
        <time>2022-10-02T07:08:39Z</time>
      </trkpt>
      <trkpt lat="45.91874" lon="1.14593">
        <ele>308</ele>
        <time>2022-10-02T07:08:40Z</time>
      </trkpt>
      <trkpt lat="45.91881" lon="1.14593">
        <ele>308.1</ele>
        <time>2022-10-02T07:08:41Z</time>
      </trkpt>
      <trkpt lat="45.91887" lon="1.14591">
        <ele>308.3</ele>
        <time>2022-10-02T07:08:42Z</time>
      </trkpt>
      <trkpt lat="45.91892" lon="1.14588">
        <ele>308.5</ele>
        <time>2022-10-02T07:08:43Z</time>
      </trkpt>
      <trkpt lat="45.91897" lon="1.14585">
        <ele>308.8</ele>
        <time>2022-10-02T07:08:44Z</time>
      </trkpt>
      <trkpt lat="45.91902" lon="1.14583">
        <ele>309</ele>
        <time>2022-10-02T07:08:45Z</time>
      </trkpt>
      <trkpt lat="45.91906" lon="1.14578">
        <ele>309.3</ele>
        <time>2022-10-02T07:08:46Z</time>
      </trkpt>
      <trkpt lat="45.91911" lon="1.14574">
        <ele>309.5</ele>
        <time>2022-10-02T07:08:47Z</time>
      </trkpt>
      <trkpt lat="45.91914" lon="1.14571">
        <ele>309.7</ele>
        <time>2022-10-02T07:08:48Z</time>
      </trkpt>
      <trkpt lat="45.91917" lon="1.14566">
        <ele>309.9</ele>
        <time>2022-10-02T07:08:49Z</time>
      </trkpt>
      <trkpt lat="45.91922" lon="1.14563">
        <ele>310.1</ele>
        <time>2022-10-02T07:08:50Z</time>
      </trkpt>
      <trkpt lat="45.91923" lon="1.14558">
        <ele>310.3</ele>
        <time>2022-10-02T07:08:51Z</time>
      </trkpt>
      <trkpt lat="45.91928" lon="1.14552">
        <ele>310.4</ele>
        <time>2022-10-02T07:08:52Z</time>
      </trkpt>
      <trkpt lat="45.91931" lon="1.14547">
        <ele>310.4</ele>
        <time>2022-10-02T07:08:53Z</time>
      </trkpt>
      <trkpt lat="45.91934" lon="1.14539">
        <ele>310.3</ele>
        <time>2022-10-02T07:08:54Z</time>
      </trkpt>
      <trkpt lat="45.91934" lon="1.14531">
        <ele>310</ele>
        <time>2022-10-02T07:08:55Z</time>
      </trkpt>
      <trkpt lat="45.91935" lon="1.14522">
        <ele>309.7</ele>
        <time>2022-10-02T07:08:56Z</time>
      </trkpt>
      <trkpt lat="45.91936" lon="1.14512">
        <ele>309.3</ele>
        <time>2022-10-02T07:08:57Z</time>
      </trkpt>
      <trkpt lat="45.91937" lon="1.14502">
        <ele>308.8</ele>
        <time>2022-10-02T07:08:58Z</time>
      </trkpt>
      <trkpt lat="45.91937" lon="1.14493">
        <ele>308.4</ele>
        <time>2022-10-02T07:08:59Z</time>
      </trkpt>
      <trkpt lat="45.91937" lon="1.14483">
        <ele>307.9</ele>
        <time>2022-10-02T07:09:00Z</time>
      </trkpt>
      <trkpt lat="45.91939" lon="1.14474">
        <ele>307.4</ele>
        <time>2022-10-02T07:09:01Z</time>
      </trkpt>
      <trkpt lat="45.91941" lon="1.14465">
        <ele>306.9</ele>
        <time>2022-10-02T07:09:02Z</time>
      </trkpt>
      <trkpt lat="45.91946" lon="1.14457">
        <ele>306.4</ele>
        <time>2022-10-02T07:09:03Z</time>
      </trkpt>
      <trkpt lat="45.91951" lon="1.14451">
        <ele>305.8</ele>
        <time>2022-10-02T07:09:04Z</time>
      </trkpt>
      <trkpt lat="45.91957" lon="1.14444">
        <ele>305</ele>
        <time>2022-10-02T07:09:05Z</time>
      </trkpt>
      <trkpt lat="45.91965" lon="1.14439">
        <ele>304.2</ele>
        <time>2022-10-02T07:09:06Z</time>
      </trkpt>
      <trkpt lat="45.91971" lon="1.1443">
        <ele>303.3</ele>
        <time>2022-10-02T07:09:07Z</time>
      </trkpt>
      <trkpt lat="45.91979" lon="1.14424">
        <ele>302.2</ele>
        <time>2022-10-02T07:09:08Z</time>
      </trkpt>
      <trkpt lat="45.91986" lon="1.14418">
        <ele>301.3</ele>
        <time>2022-10-02T07:09:09Z</time>
      </trkpt>
      <trkpt lat="45.91992" lon="1.14411">
        <ele>300.4</ele>
        <time>2022-10-02T07:09:10Z</time>
      </trkpt>
      <trkpt lat="45.91999" lon="1.14405">
        <ele>299.6</ele>
        <time>2022-10-02T07:09:11Z</time>
      </trkpt>
      <trkpt lat="45.92005" lon="1.14397">
        <ele>298.9</ele>
        <time>2022-10-02T07:09:12Z</time>
      </trkpt>
      <trkpt lat="45.92012" lon="1.1439">
        <ele>298.4</ele>
        <time>2022-10-02T07:09:13Z</time>
      </trkpt>
      <trkpt lat="45.92018" lon="1.14386">
        <ele>298</ele>
        <time>2022-10-02T07:09:14Z</time>
      </trkpt>
      <trkpt lat="45.92028" lon="1.14383">
        <ele>297.6</ele>
        <time>2022-10-02T07:09:15Z</time>
      </trkpt>
      <trkpt lat="45.92037" lon="1.14382">
        <ele>297.4</ele>
        <time>2022-10-02T07:09:16Z</time>
      </trkpt>
      <trkpt lat="45.92046" lon="1.14382">
        <ele>297.2</ele>
        <time>2022-10-02T07:09:17Z</time>
      </trkpt>
      <trkpt lat="45.92054" lon="1.14382">
        <ele>297.1</ele>
        <time>2022-10-02T07:09:18Z</time>
      </trkpt>
      <trkpt lat="45.92063" lon="1.14381">
        <ele>297</ele>
        <time>2022-10-02T07:09:19Z</time>
      </trkpt>
      <trkpt lat="45.92071" lon="1.14381">
        <ele>297</ele>
        <time>2022-10-02T07:09:20Z</time>
      </trkpt>
      <trkpt lat="45.9208" lon="1.14379">
        <ele>297.1</ele>
        <time>2022-10-02T07:09:21Z</time>
      </trkpt>
      <trkpt lat="45.92087" lon="1.14376">
        <ele>297.1</ele>
        <time>2022-10-02T07:09:22Z</time>
      </trkpt>
      <trkpt lat="45.92095" lon="1.14372">
        <ele>297.2</ele>
        <time>2022-10-02T07:09:23Z</time>
      </trkpt>
      <trkpt lat="45.92101" lon="1.14368">
        <ele>297.2</ele>
        <time>2022-10-02T07:09:24Z</time>
      </trkpt>
      <trkpt lat="45.92107" lon="1.14363">
        <ele>297.1</ele>
        <time>2022-10-02T07:09:25Z</time>
      </trkpt>
      <trkpt lat="45.92113" lon="1.14359">
        <ele>296.9</ele>
        <time>2022-10-02T07:09:26Z</time>
      </trkpt>
      <trkpt lat="45.92119" lon="1.14354">
        <ele>296.6</ele>
        <time>2022-10-02T07:09:27Z</time>
      </trkpt>
      <trkpt lat="45.92125" lon="1.14348">
        <ele>296.2</ele>
        <time>2022-10-02T07:09:28Z</time>
      </trkpt>
      <trkpt lat="45.92131" lon="1.14343">
        <ele>295.9</ele>
        <time>2022-10-02T07:09:29Z</time>
      </trkpt>
      <trkpt lat="45.92138" lon="1.14337">
        <ele>295.4</ele>
        <time>2022-10-02T07:09:30Z</time>
      </trkpt>
      <trkpt lat="45.92144" lon="1.14331">
        <ele>294.9</ele>
        <time>2022-10-02T07:09:31Z</time>
      </trkpt>
      <trkpt lat="45.92151" lon="1.14326">
        <ele>294.4</ele>
        <time>2022-10-02T07:09:32Z</time>
      </trkpt>
      <trkpt lat="45.92158" lon="1.1432">
        <ele>293.7</ele>
        <time>2022-10-02T07:09:33Z</time>
      </trkpt>
      <trkpt lat="45.92165" lon="1.14313">
        <ele>293.1</ele>
        <time>2022-10-02T07:09:34Z</time>
      </trkpt>
      <trkpt lat="45.9217" lon="1.14311">
        <ele>292.7</ele>
        <time>2022-10-02T07:09:35Z</time>
      </trkpt>
      <trkpt lat="45.92179" lon="1.14308">
        <ele>292.2</ele>
        <time>2022-10-02T07:09:36Z</time>
      </trkpt>
      <trkpt lat="45.92186" lon="1.14309">
        <ele>291.9</ele>
        <time>2022-10-02T07:09:37Z</time>
      </trkpt>
      <trkpt lat="45.92192" lon="1.14312">
        <ele>291.6</ele>
        <time>2022-10-02T07:09:38Z</time>
      </trkpt>
      <trkpt lat="45.92199" lon="1.14316">
        <ele>291.3</ele>
        <time>2022-10-02T07:09:39Z</time>
      </trkpt>
      <trkpt lat="45.92205" lon="1.14321">
        <ele>291</ele>
        <time>2022-10-02T07:09:40Z</time>
      </trkpt>
      <trkpt lat="45.9221" lon="1.14324">
        <ele>290.8</ele>
        <time>2022-10-02T07:09:41Z</time>
      </trkpt>
      <trkpt lat="45.92216" lon="1.14323">
        <ele>290.6</ele>
        <time>2022-10-02T07:09:42Z</time>
      </trkpt>
      <trkpt lat="45.9222" lon="1.1432">
        <ele>290.1</ele>
        <time>2022-10-02T07:09:43Z</time>
      </trkpt>
      <trkpt lat="45.92225" lon="1.14316">
        <ele>290</ele>
        <time>2022-10-02T07:09:44Z</time>
      </trkpt>
      <trkpt lat="45.92228" lon="1.14307">
        <ele>290</ele>
        <time>2022-10-02T07:09:45Z</time>
      </trkpt>
      <trkpt lat="45.92229" lon="1.14301">
        <ele>290</ele>
        <time>2022-10-02T07:09:46Z</time>
      </trkpt>
      <trkpt lat="45.92231" lon="1.14294">
        <ele>289.9</ele>
        <time>2022-10-02T07:09:47Z</time>
      </trkpt>
      <trkpt lat="45.92233" lon="1.1429">
        <ele>289.6</ele>
        <time>2022-10-02T07:09:48Z</time>
      </trkpt>
      <trkpt lat="45.92238" lon="1.14287">
        <ele>289.2</ele>
        <time>2022-10-02T07:09:49Z</time>
      </trkpt>
      <trkpt lat="45.92243" lon="1.14285">
        <ele>288.7</ele>
        <time>2022-10-02T07:09:50Z</time>
      </trkpt>
      <trkpt lat="45.92247" lon="1.14279">
        <ele>288.1</ele>
        <time>2022-10-02T07:09:51Z</time>
      </trkpt>
      <trkpt lat="45.92252" lon="1.14273">
        <ele>287.5</ele>
        <time>2022-10-02T07:09:52Z</time>
      </trkpt>
      <trkpt lat="45.92258" lon="1.1427">
        <ele>286.8</ele>
        <time>2022-10-02T07:09:53Z</time>
      </trkpt>
      <trkpt lat="45.92264" lon="1.14263">
        <ele>286.2</ele>
        <time>2022-10-02T07:09:54Z</time>
      </trkpt>
      <trkpt lat="45.9227" lon="1.14255">
        <ele>285.6</ele>
        <time>2022-10-02T07:09:55Z</time>
      </trkpt>
      <trkpt lat="45.92276" lon="1.1425">
        <ele>285.2</ele>
        <time>2022-10-02T07:09:56Z</time>
      </trkpt>
      <trkpt lat="45.92282" lon="1.14244">
        <ele>284.8</ele>
        <time>2022-10-02T07:09:57Z</time>
      </trkpt>
      <trkpt lat="45.92286" lon="1.14239">
        <ele>284.6</ele>
        <time>2022-10-02T07:09:58Z</time>
      </trkpt>
      <trkpt lat="45.92291" lon="1.14234">
        <ele>284.4</ele>
        <time>2022-10-02T07:09:59Z</time>
      </trkpt>
      <trkpt lat="45.92295" lon="1.14229">
        <ele>284.1</ele>
        <time>2022-10-02T07:10:00Z</time>
      </trkpt>
      <trkpt lat="45.923" lon="1.14224">
        <ele>284</ele>
        <time>2022-10-02T07:10:01Z</time>
      </trkpt>
      <trkpt lat="45.92304" lon="1.1422">
        <ele>283.8</ele>
        <time>2022-10-02T07:10:02Z</time>
      </trkpt>
      <trkpt lat="45.92313" lon="1.14212">
        <ele>283.6</ele>
        <time>2022-10-02T07:10:03Z</time>
      </trkpt>
      <trkpt lat="45.92316" lon="1.14206">
        <ele>283.5</ele>
        <time>2022-10-02T07:10:04Z</time>
      </trkpt>
      <trkpt lat="45.9232" lon="1.14203">
        <ele>283.5</ele>
        <time>2022-10-02T07:10:05Z</time>
      </trkpt>
      <trkpt lat="45.92323" lon="1.14199">
        <ele>283.5</ele>
        <time>2022-10-02T07:10:06Z</time>
      </trkpt>
      <trkpt lat="45.92327" lon="1.14197">
        <ele>283.5</ele>
        <time>2022-10-02T07:10:07Z</time>
      </trkpt>
      <trkpt lat="45.9233" lon="1.14194">
        <ele>283.4</ele>
        <time>2022-10-02T07:10:08Z</time>
      </trkpt>
      <trkpt lat="45.92333" lon="1.14192">
        <ele>283.4</ele>
        <time>2022-10-02T07:10:09Z</time>
      </trkpt>
      <trkpt lat="45.92334" lon="1.14193">
        <ele>283.4</ele>
        <time>2022-10-02T07:10:10Z</time>
      </trkpt>
      <trkpt lat="45.92336" lon="1.14194">
        <ele>283.4</ele>
        <time>2022-10-02T07:10:11Z</time>
      </trkpt>
      <trkpt lat="45.92338" lon="1.14196">
        <ele>283.4</ele>
        <time>2022-10-02T07:10:12Z</time>
      </trkpt>
      <trkpt lat="45.92342" lon="1.14198">
        <ele>283.4</ele>
        <time>2022-10-02T07:10:13Z</time>
      </trkpt>
      <trkpt lat="45.92346" lon="1.14196">
        <ele>283.3</ele>
        <time>2022-10-02T07:10:14Z</time>
      </trkpt>
      <trkpt lat="45.92349" lon="1.14193">
        <ele>283.3</ele>
        <time>2022-10-02T07:10:15Z</time>
      </trkpt>
      <trkpt lat="45.92355" lon="1.14194">
        <ele>283.2</ele>
        <time>2022-10-02T07:10:16Z</time>
      </trkpt>
      <trkpt lat="45.92359" lon="1.14192">
        <ele>283.1</ele>
        <time>2022-10-02T07:10:17Z</time>
      </trkpt>
      <trkpt lat="45.92364" lon="1.14189">
        <ele>283.1</ele>
        <time>2022-10-02T07:10:18Z</time>
      </trkpt>
      <trkpt lat="45.92369" lon="1.14186">
        <ele>283</ele>
        <time>2022-10-02T07:10:19Z</time>
      </trkpt>
      <trkpt lat="45.92373" lon="1.14183">
        <ele>283</ele>
        <time>2022-10-02T07:10:20Z</time>
      </trkpt>
      <trkpt lat="45.92379" lon="1.14179">
        <ele>282.9</ele>
        <time>2022-10-02T07:10:21Z</time>
      </trkpt>
      <trkpt lat="45.92383" lon="1.14173">
        <ele>282.9</ele>
        <time>2022-10-02T07:10:22Z</time>
      </trkpt>
      <trkpt lat="45.92386" lon="1.14169">
        <ele>282.9</ele>
        <time>2022-10-02T07:10:23Z</time>
      </trkpt>
      <trkpt lat="45.92392" lon="1.14164">
        <ele>282.9</ele>
        <time>2022-10-02T07:10:24Z</time>
      </trkpt>
      <trkpt lat="45.92395" lon="1.14158">
        <ele>282.9</ele>
        <time>2022-10-02T07:10:25Z</time>
      </trkpt>
      <trkpt lat="45.92399" lon="1.14146">
        <ele>282.8</ele>
        <time>2022-10-02T07:10:26Z</time>
      </trkpt>
      <trkpt lat="45.92401" lon="1.14139">
        <ele>282.8</ele>
        <time>2022-10-02T07:10:27Z</time>
      </trkpt>
      <trkpt lat="45.92404" lon="1.14133">
        <ele>282.8</ele>
        <time>2022-10-02T07:10:28Z</time>
      </trkpt>
      <trkpt lat="45.92408" lon="1.14127">
        <ele>282.8</ele>
        <time>2022-10-02T07:10:29Z</time>
      </trkpt>
      <trkpt lat="45.92412" lon="1.1412">
        <ele>282.8</ele>
        <time>2022-10-02T07:10:30Z</time>
      </trkpt>
      <trkpt lat="45.92416" lon="1.14114">
        <ele>282.9</ele>
        <time>2022-10-02T07:10:31Z</time>
      </trkpt>
      <trkpt lat="45.9242" lon="1.1411">
        <ele>282.9</ele>
        <time>2022-10-02T07:10:32Z</time>
      </trkpt>
      <trkpt lat="45.92421" lon="1.14102">
        <ele>283</ele>
        <time>2022-10-02T07:10:33Z</time>
      </trkpt>
      <trkpt lat="45.92425" lon="1.14097">
        <ele>283.2</ele>
        <time>2022-10-02T07:10:34Z</time>
      </trkpt>
      <trkpt lat="45.92428" lon="1.14091">
        <ele>283.3</ele>
        <time>2022-10-02T07:10:35Z</time>
      </trkpt>
      <trkpt lat="45.92434" lon="1.14087">
        <ele>283.4</ele>
        <time>2022-10-02T07:10:36Z</time>
      </trkpt>
      <trkpt lat="45.92439" lon="1.14081">
        <ele>283.4</ele>
        <time>2022-10-02T07:10:37Z</time>
      </trkpt>
      <trkpt lat="45.92445" lon="1.14078">
        <ele>283.5</ele>
        <time>2022-10-02T07:10:38Z</time>
      </trkpt>
      <trkpt lat="45.9245" lon="1.14078">
        <ele>283.5</ele>
        <time>2022-10-02T07:10:39Z</time>
      </trkpt>
      <trkpt lat="45.92455" lon="1.14075">
        <ele>283.5</ele>
        <time>2022-10-02T07:10:40Z</time>
      </trkpt>
      <trkpt lat="45.92461" lon="1.14073">
        <ele>283.6</ele>
        <time>2022-10-02T07:10:41Z</time>
      </trkpt>
      <trkpt lat="45.92466" lon="1.1407">
        <ele>283.6</ele>
        <time>2022-10-02T07:10:42Z</time>
      </trkpt>
      <trkpt lat="45.92469" lon="1.14064">
        <ele>283.7</ele>
        <time>2022-10-02T07:10:43Z</time>
      </trkpt>
      <trkpt lat="45.92474" lon="1.14058">
        <ele>283.8</ele>
        <time>2022-10-02T07:10:44Z</time>
      </trkpt>
      <trkpt lat="45.92477" lon="1.14053">
        <ele>283.9</ele>
        <time>2022-10-02T07:10:45Z</time>
      </trkpt>
      <trkpt lat="45.92481" lon="1.14047">
        <ele>284</ele>
        <time>2022-10-02T07:10:46Z</time>
      </trkpt>
      <trkpt lat="45.92484" lon="1.14044">
        <ele>284</ele>
        <time>2022-10-02T07:10:47Z</time>
      </trkpt>
      <trkpt lat="45.92485" lon="1.14034">
        <ele>284.1</ele>
        <time>2022-10-02T07:10:48Z</time>
      </trkpt>
      <trkpt lat="45.92488" lon="1.14025">
        <ele>284.2</ele>
        <time>2022-10-02T07:10:49Z</time>
      </trkpt>
      <trkpt lat="45.9249" lon="1.14017">
        <ele>284.3</ele>
        <time>2022-10-02T07:10:50Z</time>
      </trkpt>
      <trkpt lat="45.92493" lon="1.14009">
        <ele>284.4</ele>
        <time>2022-10-02T07:10:51Z</time>
      </trkpt>
      <trkpt lat="45.92495" lon="1.14001">
        <ele>284.5</ele>
        <time>2022-10-02T07:10:52Z</time>
      </trkpt>
      <trkpt lat="45.92499" lon="1.13994">
        <ele>284.6</ele>
        <time>2022-10-02T07:10:53Z</time>
      </trkpt>
      <trkpt lat="45.92504" lon="1.13988">
        <ele>284.6</ele>
        <time>2022-10-02T07:10:54Z</time>
      </trkpt>
      <trkpt lat="45.92509" lon="1.13981">
        <ele>284.6</ele>
        <time>2022-10-02T07:10:55Z</time>
      </trkpt>
      <trkpt lat="45.92514" lon="1.13975">
        <ele>284.6</ele>
        <time>2022-10-02T07:10:56Z</time>
      </trkpt>
      <trkpt lat="45.92518" lon="1.13969">
        <ele>284.6</ele>
        <time>2022-10-02T07:10:57Z</time>
      </trkpt>
      <trkpt lat="45.92523" lon="1.13962">
        <ele>284.5</ele>
        <time>2022-10-02T07:10:58Z</time>
      </trkpt>
      <trkpt lat="45.92527" lon="1.13956">
        <ele>284.5</ele>
        <time>2022-10-02T07:10:59Z</time>
      </trkpt>
      <trkpt lat="45.92532" lon="1.13951">
        <ele>284.2</ele>
        <time>2022-10-02T07:11:00Z</time>
      </trkpt>
      <trkpt lat="45.92538" lon="1.13948">
        <ele>284.1</ele>
        <time>2022-10-02T07:11:01Z</time>
      </trkpt>
      <trkpt lat="45.92543" lon="1.13946">
        <ele>284</ele>
        <time>2022-10-02T07:11:02Z</time>
      </trkpt>
      <trkpt lat="45.92548" lon="1.13944">
        <ele>283.9</ele>
        <time>2022-10-02T07:11:03Z</time>
      </trkpt>
      <trkpt lat="45.92549" lon="1.13944">
        <ele>283.8</ele>
        <time>2022-10-02T07:11:04Z</time>
      </trkpt>
      <trkpt lat="45.92552" lon="1.1395">
        <ele>283.7</ele>
        <time>2022-10-02T07:11:05Z</time>
      </trkpt>
      <trkpt lat="45.92553" lon="1.13952">
        <ele>283.6</ele>
        <time>2022-10-02T07:11:06Z</time>
      </trkpt>
      <trkpt lat="45.92556" lon="1.13954">
        <ele>283.5</ele>
        <time>2022-10-02T07:11:07Z</time>
      </trkpt>
      <trkpt lat="45.92555" lon="1.13952">
        <ele>283.5</ele>
        <time>2022-10-02T07:11:08Z</time>
      </trkpt>
      <trkpt lat="45.92559" lon="1.13951">
        <ele>283.4</ele>
        <time>2022-10-02T07:11:09Z</time>
      </trkpt>
      <trkpt lat="45.92566" lon="1.13948">
        <ele>283.2</ele>
        <time>2022-10-02T07:11:10Z</time>
      </trkpt>
      <trkpt lat="45.92569" lon="1.13949">
        <ele>283.1</ele>
        <time>2022-10-02T07:11:11Z</time>
      </trkpt>
      <trkpt lat="45.92574" lon="1.13947">
        <ele>283.1</ele>
        <time>2022-10-02T07:11:12Z</time>
      </trkpt>
      <trkpt lat="45.92579" lon="1.13943">
        <ele>283</ele>
        <time>2022-10-02T07:11:13Z</time>
      </trkpt>
      <trkpt lat="45.92585" lon="1.13941">
        <ele>282.8</ele>
        <time>2022-10-02T07:11:14Z</time>
      </trkpt>
      <trkpt lat="45.9259" lon="1.13937">
        <ele>282.8</ele>
        <time>2022-10-02T07:11:15Z</time>
      </trkpt>
      <trkpt lat="45.92593" lon="1.13934">
        <ele>282.8</ele>
        <time>2022-10-02T07:11:16Z</time>
      </trkpt>
      <trkpt lat="45.92596" lon="1.13932">
        <ele>282.7</ele>
        <time>2022-10-02T07:11:17Z</time>
      </trkpt>
      <trkpt lat="45.92603" lon="1.13927">
        <ele>282.7</ele>
        <time>2022-10-02T07:11:18Z</time>
      </trkpt>
      <trkpt lat="45.92605" lon="1.13923">
        <ele>282.7</ele>
        <time>2022-10-02T07:11:19Z</time>
      </trkpt>
      <trkpt lat="45.92609" lon="1.13917">
        <ele>282.6</ele>
        <time>2022-10-02T07:11:20Z</time>
      </trkpt>
      <trkpt lat="45.92613" lon="1.13913">
        <ele>282.6</ele>
        <time>2022-10-02T07:11:21Z</time>
      </trkpt>
      <trkpt lat="45.92616" lon="1.13907">
        <ele>282.6</ele>
        <time>2022-10-02T07:11:22Z</time>
      </trkpt>
      <trkpt lat="45.92619" lon="1.139">
        <ele>282.6</ele>
        <time>2022-10-02T07:11:23Z</time>
      </trkpt>
      <trkpt lat="45.92624" lon="1.13896">
        <ele>282.6</ele>
        <time>2022-10-02T07:11:24Z</time>
      </trkpt>
      <trkpt lat="45.92625" lon="1.13892">
        <ele>282.6</ele>
        <time>2022-10-02T07:11:25Z</time>
      </trkpt>
      <trkpt lat="45.9263" lon="1.13891">
        <ele>282.6</ele>
        <time>2022-10-02T07:11:26Z</time>
      </trkpt>
      <trkpt lat="45.92633" lon="1.13891">
        <ele>282.6</ele>
        <time>2022-10-02T07:11:27Z</time>
      </trkpt>
      <trkpt lat="45.92636" lon="1.13894">
        <ele>282.6</ele>
        <time>2022-10-02T07:11:28Z</time>
      </trkpt>
      <trkpt lat="45.92637" lon="1.13899">
        <ele>282.6</ele>
        <time>2022-10-02T07:11:29Z</time>
      </trkpt>
      <trkpt lat="45.92641" lon="1.13904">
        <ele>282.6</ele>
        <time>2022-10-02T07:11:30Z</time>
      </trkpt>
      <trkpt lat="45.92644" lon="1.13909">
        <ele>282.6</ele>
        <time>2022-10-02T07:11:31Z</time>
      </trkpt>
      <trkpt lat="45.92652" lon="1.13914">
        <ele>282.7</ele>
        <time>2022-10-02T07:11:32Z</time>
      </trkpt>
      <trkpt lat="45.92654" lon="1.13921">
        <ele>282.7</ele>
        <time>2022-10-02T07:11:33Z</time>
      </trkpt>
      <trkpt lat="45.92657" lon="1.13927">
        <ele>282.7</ele>
        <time>2022-10-02T07:11:34Z</time>
      </trkpt>
      <trkpt lat="45.92659" lon="1.13935">
        <ele>282.7</ele>
        <time>2022-10-02T07:11:35Z</time>
      </trkpt>
      <trkpt lat="45.92661" lon="1.13941">
        <ele>282.8</ele>
        <time>2022-10-02T07:11:36Z</time>
      </trkpt>
      <trkpt lat="45.92663" lon="1.13947">
        <ele>282.8</ele>
        <time>2022-10-02T07:11:37Z</time>
      </trkpt>
      <trkpt lat="45.92665" lon="1.13953">
        <ele>282.9</ele>
        <time>2022-10-02T07:11:38Z</time>
      </trkpt>
      <trkpt lat="45.92667" lon="1.1396">
        <ele>282.9</ele>
        <time>2022-10-02T07:11:39Z</time>
      </trkpt>
      <trkpt lat="45.92668" lon="1.13964">
        <ele>282.9</ele>
        <time>2022-10-02T07:11:40Z</time>
      </trkpt>
      <trkpt lat="45.92671" lon="1.13969">
        <ele>283</ele>
        <time>2022-10-02T07:11:41Z</time>
      </trkpt>
      <trkpt lat="45.92674" lon="1.13972">
        <ele>283.1</ele>
        <time>2022-10-02T07:11:42Z</time>
      </trkpt>
      <trkpt lat="45.92677" lon="1.13975">
        <ele>283.1</ele>
        <time>2022-10-02T07:11:43Z</time>
      </trkpt>
      <trkpt lat="45.9268" lon="1.13978">
        <ele>283.2</ele>
        <time>2022-10-02T07:11:44Z</time>
      </trkpt>
      <trkpt lat="45.92682" lon="1.13982">
        <ele>283.4</ele>
        <time>2022-10-02T07:11:45Z</time>
      </trkpt>
      <trkpt lat="45.92685" lon="1.13984">
        <ele>283.5</ele>
        <time>2022-10-02T07:11:46Z</time>
      </trkpt>
      <trkpt lat="45.92687" lon="1.13985">
        <ele>283.6</ele>
        <time>2022-10-02T07:11:47Z</time>
      </trkpt>
      <trkpt lat="45.9269" lon="1.13985">
        <ele>283.7</ele>
        <time>2022-10-02T07:11:48Z</time>
      </trkpt>
      <trkpt lat="45.92693" lon="1.13984">
        <ele>283.9</ele>
        <time>2022-10-02T07:11:49Z</time>
      </trkpt>
      <trkpt lat="45.92695" lon="1.13977">
        <ele>283.9</ele>
        <time>2022-10-02T07:11:50Z</time>
      </trkpt>
      <trkpt lat="45.92697" lon="1.13971">
        <ele>283.9</ele>
        <time>2022-10-02T07:11:51Z</time>
      </trkpt>
      <trkpt lat="45.927" lon="1.13965">
        <ele>284</ele>
        <time>2022-10-02T07:11:52Z</time>
      </trkpt>
      <trkpt lat="45.92704" lon="1.13958">
        <ele>284</ele>
        <time>2022-10-02T07:11:53Z</time>
      </trkpt>
      <trkpt lat="45.92708" lon="1.13951">
        <ele>284.1</ele>
        <time>2022-10-02T07:11:54Z</time>
      </trkpt>
      <trkpt lat="45.92712" lon="1.13944">
        <ele>284.2</ele>
        <time>2022-10-02T07:11:55Z</time>
      </trkpt>
      <trkpt lat="45.92715" lon="1.13937">
        <ele>284.3</ele>
        <time>2022-10-02T07:11:56Z</time>
      </trkpt>
      <trkpt lat="45.92719" lon="1.13929">
        <ele>284.4</ele>
        <time>2022-10-02T07:11:57Z</time>
      </trkpt>
      <trkpt lat="45.92722" lon="1.13921">
        <ele>284.5</ele>
        <time>2022-10-02T07:11:58Z</time>
      </trkpt>
      <trkpt lat="45.92724" lon="1.13914">
        <ele>284.6</ele>
        <time>2022-10-02T07:11:59Z</time>
      </trkpt>
      <trkpt lat="45.92727" lon="1.13909">
        <ele>284.7</ele>
        <time>2022-10-02T07:12:00Z</time>
      </trkpt>
      <trkpt lat="45.92731" lon="1.13909">
        <ele>284.9</ele>
        <time>2022-10-02T07:12:01Z</time>
      </trkpt>
      <trkpt lat="45.92735" lon="1.1391">
        <ele>285</ele>
        <time>2022-10-02T07:12:02Z</time>
      </trkpt>
      <trkpt lat="45.92736" lon="1.13913">
        <ele>285.1</ele>
        <time>2022-10-02T07:12:03Z</time>
      </trkpt>
      <trkpt lat="45.92739" lon="1.13917">
        <ele>285.2</ele>
        <time>2022-10-02T07:12:04Z</time>
      </trkpt>
      <trkpt lat="45.92741" lon="1.1392">
        <ele>285.3</ele>
        <time>2022-10-02T07:12:05Z</time>
      </trkpt>
      <trkpt lat="45.92747" lon="1.13924">
        <ele>285.5</ele>
        <time>2022-10-02T07:12:06Z</time>
      </trkpt>
      <trkpt lat="45.92751" lon="1.13927">
        <ele>285.7</ele>
        <time>2022-10-02T07:12:07Z</time>
      </trkpt>
      <trkpt lat="45.92755" lon="1.1393">
        <ele>285.8</ele>
        <time>2022-10-02T07:12:08Z</time>
      </trkpt>
      <trkpt lat="45.92759" lon="1.13933">
        <ele>286</ele>
        <time>2022-10-02T07:12:09Z</time>
      </trkpt>
      <trkpt lat="45.92765" lon="1.13935">
        <ele>286.1</ele>
        <time>2022-10-02T07:12:10Z</time>
      </trkpt>
      <trkpt lat="45.9277" lon="1.13938">
        <ele>286.3</ele>
        <time>2022-10-02T07:12:11Z</time>
      </trkpt>
      <trkpt lat="45.92777" lon="1.13941">
        <ele>286.4</ele>
        <time>2022-10-02T07:12:12Z</time>
      </trkpt>
      <trkpt lat="45.92782" lon="1.13945">
        <ele>286.6</ele>
        <time>2022-10-02T07:12:13Z</time>
      </trkpt>
      <trkpt lat="45.92793" lon="1.13945">
        <ele>286.9</ele>
        <time>2022-10-02T07:12:14Z</time>
      </trkpt>
      <trkpt lat="45.92804" lon="1.13948">
        <ele>287.3</ele>
        <time>2022-10-02T07:12:15Z</time>
      </trkpt>
      <trkpt lat="45.9281" lon="1.13948">
        <ele>287.5</ele>
        <time>2022-10-02T07:12:16Z</time>
      </trkpt>
      <trkpt lat="45.92817" lon="1.13949">
        <ele>287.7</ele>
        <time>2022-10-02T07:12:17Z</time>
      </trkpt>
      <trkpt lat="45.92823" lon="1.13949">
        <ele>287.9</ele>
        <time>2022-10-02T07:12:18Z</time>
      </trkpt>
      <trkpt lat="45.92829" lon="1.13949">
        <ele>288.2</ele>
        <time>2022-10-02T07:12:19Z</time>
      </trkpt>
      <trkpt lat="45.92834" lon="1.1395">
        <ele>288.3</ele>
        <time>2022-10-02T07:12:20Z</time>
      </trkpt>
      <trkpt lat="45.92839" lon="1.1395">
        <ele>288.5</ele>
        <time>2022-10-02T07:12:21Z</time>
      </trkpt>
      <trkpt lat="45.92844" lon="1.1395">
        <ele>288.7</ele>
        <time>2022-10-02T07:12:22Z</time>
      </trkpt>
      <trkpt lat="45.9285" lon="1.13952">
        <ele>288.9</ele>
        <time>2022-10-02T07:12:23Z</time>
      </trkpt>
      <trkpt lat="45.92853" lon="1.13953">
        <ele>289</ele>
        <time>2022-10-02T07:12:24Z</time>
      </trkpt>
      <trkpt lat="45.92857" lon="1.13955">
        <ele>289.2</ele>
        <time>2022-10-02T07:12:25Z</time>
      </trkpt>
      <trkpt lat="45.92863" lon="1.13957">
        <ele>289.4</ele>
        <time>2022-10-02T07:12:26Z</time>
      </trkpt>
      <trkpt lat="45.92869" lon="1.13958">
        <ele>289.7</ele>
        <time>2022-10-02T07:12:27Z</time>
      </trkpt>
      <trkpt lat="45.92874" lon="1.1396">
        <ele>289.8</ele>
        <time>2022-10-02T07:12:28Z</time>
      </trkpt>
      <trkpt lat="45.92878" lon="1.13959">
        <ele>290</ele>
        <time>2022-10-02T07:12:29Z</time>
      </trkpt>
      <trkpt lat="45.92883" lon="1.13957">
        <ele>290.2</ele>
        <time>2022-10-02T07:12:30Z</time>
      </trkpt>
      <trkpt lat="45.92889" lon="1.13959">
        <ele>290.4</ele>
        <time>2022-10-02T07:12:31Z</time>
      </trkpt>
      <trkpt lat="45.92895" lon="1.13959">
        <ele>290.6</ele>
        <time>2022-10-02T07:12:32Z</time>
      </trkpt>
      <trkpt lat="45.92899" lon="1.13961">
        <ele>290.7</ele>
        <time>2022-10-02T07:12:33Z</time>
      </trkpt>
      <trkpt lat="45.92903" lon="1.13963">
        <ele>290.8</ele>
        <time>2022-10-02T07:12:34Z</time>
      </trkpt>
      <trkpt lat="45.92911" lon="1.13964">
        <ele>291</ele>
        <time>2022-10-02T07:12:35Z</time>
      </trkpt>
      <trkpt lat="45.92918" lon="1.13965">
        <ele>291.3</ele>
        <time>2022-10-02T07:12:36Z</time>
      </trkpt>
      <trkpt lat="45.92926" lon="1.13966">
        <ele>291.5</ele>
        <time>2022-10-02T07:12:37Z</time>
      </trkpt>
      <trkpt lat="45.92929" lon="1.13968">
        <ele>291.6</ele>
        <time>2022-10-02T07:12:38Z</time>
      </trkpt>
      <trkpt lat="45.92935" lon="1.13969">
        <ele>291.8</ele>
        <time>2022-10-02T07:12:39Z</time>
      </trkpt>
      <trkpt lat="45.92942" lon="1.1397">
        <ele>292.1</ele>
        <time>2022-10-02T07:12:40Z</time>
      </trkpt>
      <trkpt lat="45.92947" lon="1.13975">
        <ele>292.3</ele>
        <time>2022-10-02T07:12:41Z</time>
      </trkpt>
      <trkpt lat="45.92953" lon="1.13976">
        <ele>292.6</ele>
        <time>2022-10-02T07:12:42Z</time>
      </trkpt>
      <trkpt lat="45.9296" lon="1.13974">
        <ele>293</ele>
        <time>2022-10-02T07:12:43Z</time>
      </trkpt>
      <trkpt lat="45.92966" lon="1.13973">
        <ele>293.4</ele>
        <time>2022-10-02T07:12:44Z</time>
      </trkpt>
      <trkpt lat="45.92971" lon="1.1397">
        <ele>293.8</ele>
        <time>2022-10-02T07:12:45Z</time>
      </trkpt>
      <trkpt lat="45.92976" lon="1.13967">
        <ele>294.1</ele>
        <time>2022-10-02T07:12:46Z</time>
      </trkpt>
      <trkpt lat="45.92982" lon="1.13964">
        <ele>294.6</ele>
        <time>2022-10-02T07:12:47Z</time>
      </trkpt>
      <trkpt lat="45.92985" lon="1.13959">
        <ele>294.9</ele>
        <time>2022-10-02T07:12:48Z</time>
      </trkpt>
      <trkpt lat="45.92989" lon="1.13955">
        <ele>295.3</ele>
        <time>2022-10-02T07:12:49Z</time>
      </trkpt>
      <trkpt lat="45.92993" lon="1.13949">
        <ele>295.8</ele>
        <time>2022-10-02T07:12:50Z</time>
      </trkpt>
      <trkpt lat="45.92997" lon="1.13945">
        <ele>296.1</ele>
        <time>2022-10-02T07:12:51Z</time>
      </trkpt>
      <trkpt lat="45.93001" lon="1.1394">
        <ele>296.5</ele>
        <time>2022-10-02T07:12:52Z</time>
      </trkpt>
      <trkpt lat="45.93004" lon="1.13937">
        <ele>296.8</ele>
        <time>2022-10-02T07:12:53Z</time>
      </trkpt>
      <trkpt lat="45.93009" lon="1.13936">
        <ele>297</ele>
        <time>2022-10-02T07:12:54Z</time>
      </trkpt>
      <trkpt lat="45.93013" lon="1.13935">
        <ele>297.3</ele>
        <time>2022-10-02T07:12:55Z</time>
      </trkpt>
      <trkpt lat="45.93017" lon="1.13933">
        <ele>297.5</ele>
        <time>2022-10-02T07:12:56Z</time>
      </trkpt>
      <trkpt lat="45.93023" lon="1.13934">
        <ele>297.7</ele>
        <time>2022-10-02T07:12:57Z</time>
      </trkpt>
      <trkpt lat="45.93028" lon="1.13935">
        <ele>298</ele>
        <time>2022-10-02T07:12:58Z</time>
      </trkpt>
      <trkpt lat="45.93034" lon="1.13936">
        <ele>298.2</ele>
        <time>2022-10-02T07:12:59Z</time>
      </trkpt>
      <trkpt lat="45.93041" lon="1.13936">
        <ele>298.5</ele>
        <time>2022-10-02T07:13:00Z</time>
      </trkpt>
      <trkpt lat="45.93044" lon="1.13938">
        <ele>298.6</ele>
        <time>2022-10-02T07:13:01Z</time>
      </trkpt>
      <trkpt lat="45.9305" lon="1.13937">
        <ele>298.8</ele>
        <time>2022-10-02T07:13:02Z</time>
      </trkpt>
      <trkpt lat="45.93056" lon="1.13937">
        <ele>299</ele>
        <time>2022-10-02T07:13:03Z</time>
      </trkpt>
      <trkpt lat="45.93061" lon="1.13938">
        <ele>299.1</ele>
        <time>2022-10-02T07:13:04Z</time>
      </trkpt>
      <trkpt lat="45.93067" lon="1.13939">
        <ele>299.2</ele>
        <time>2022-10-02T07:13:05Z</time>
      </trkpt>
      <trkpt lat="45.93071" lon="1.13939">
        <ele>299.4</ele>
        <time>2022-10-02T07:13:06Z</time>
      </trkpt>
      <trkpt lat="45.93077" lon="1.13937">
        <ele>299.5</ele>
        <time>2022-10-02T07:13:07Z</time>
      </trkpt>
      <trkpt lat="45.93082" lon="1.1393">
        <ele>299.7</ele>
        <time>2022-10-02T07:13:08Z</time>
      </trkpt>
      <trkpt lat="45.93085" lon="1.13926">
        <ele>299.8</ele>
        <time>2022-10-02T07:13:09Z</time>
      </trkpt>
      <trkpt lat="45.9309" lon="1.13923">
        <ele>300</ele>
        <time>2022-10-02T07:13:10Z</time>
      </trkpt>
      <trkpt lat="45.93094" lon="1.13923">
        <ele>300.1</ele>
        <time>2022-10-02T07:13:11Z</time>
      </trkpt>
      <trkpt lat="45.93097" lon="1.13922">
        <ele>300.2</ele>
        <time>2022-10-02T07:13:12Z</time>
      </trkpt>
      <trkpt lat="45.93106" lon="1.13916">
        <ele>300.5</ele>
        <time>2022-10-02T07:13:13Z</time>
      </trkpt>
      <trkpt lat="45.93112" lon="1.13914">
        <ele>300.6</ele>
        <time>2022-10-02T07:13:14Z</time>
      </trkpt>
      <trkpt lat="45.9312" lon="1.13915">
        <ele>300.7</ele>
        <time>2022-10-02T07:13:15Z</time>
      </trkpt>
      <trkpt lat="45.93126" lon="1.13915">
        <ele>300.8</ele>
        <time>2022-10-02T07:13:16Z</time>
      </trkpt>
      <trkpt lat="45.93132" lon="1.13914">
        <ele>300.8</ele>
        <time>2022-10-02T07:13:17Z</time>
      </trkpt>
      <trkpt lat="45.93137" lon="1.1391">
        <ele>300.9</ele>
        <time>2022-10-02T07:13:18Z</time>
      </trkpt>
      <trkpt lat="45.93143" lon="1.13908">
        <ele>301</ele>
        <time>2022-10-02T07:13:19Z</time>
      </trkpt>
      <trkpt lat="45.93149" lon="1.13908">
        <ele>301</ele>
        <time>2022-10-02T07:13:20Z</time>
      </trkpt>
      <trkpt lat="45.93155" lon="1.13909">
        <ele>301.1</ele>
        <time>2022-10-02T07:13:21Z</time>
      </trkpt>
      <trkpt lat="45.9316" lon="1.13911">
        <ele>301.2</ele>
        <time>2022-10-02T07:13:22Z</time>
      </trkpt>
      <trkpt lat="45.93166" lon="1.13912">
        <ele>301.3</ele>
        <time>2022-10-02T07:13:23Z</time>
      </trkpt>
      <trkpt lat="45.93171" lon="1.13914">
        <ele>301.4</ele>
        <time>2022-10-02T07:13:24Z</time>
      </trkpt>
      <trkpt lat="45.93176" lon="1.13916">
        <ele>301.5</ele>
        <time>2022-10-02T07:13:25Z</time>
      </trkpt>
      <trkpt lat="45.93182" lon="1.13916">
        <ele>301.6</ele>
        <time>2022-10-02T07:13:26Z</time>
      </trkpt>
      <trkpt lat="45.93188" lon="1.13917">
        <ele>301.7</ele>
        <time>2022-10-02T07:13:27Z</time>
      </trkpt>
      <trkpt lat="45.93192" lon="1.13921">
        <ele>301.8</ele>
        <time>2022-10-02T07:13:28Z</time>
      </trkpt>
      <trkpt lat="45.93196" lon="1.13921">
        <ele>301.9</ele>
        <time>2022-10-02T07:13:29Z</time>
      </trkpt>
      <trkpt lat="45.93201" lon="1.13921">
        <ele>302</ele>
        <time>2022-10-02T07:13:30Z</time>
      </trkpt>
      <trkpt lat="45.93203" lon="1.13922">
        <ele>302</ele>
        <time>2022-10-02T07:13:31Z</time>
      </trkpt>
      <trkpt lat="45.93207" lon="1.13921">
        <ele>302.1</ele>
        <time>2022-10-02T07:13:32Z</time>
      </trkpt>
      <trkpt lat="45.9321" lon="1.13922">
        <ele>302.2</ele>
        <time>2022-10-02T07:13:33Z</time>
      </trkpt>
      <trkpt lat="45.93213" lon="1.13923">
        <ele>302.3</ele>
        <time>2022-10-02T07:13:34Z</time>
      </trkpt>
      <trkpt lat="45.93216" lon="1.13924">
        <ele>302.4</ele>
        <time>2022-10-02T07:13:35Z</time>
      </trkpt>
      <trkpt lat="45.93218" lon="1.13926">
        <ele>302.5</ele>
        <time>2022-10-02T07:13:36Z</time>
      </trkpt>
      <trkpt lat="45.93222" lon="1.13929">
        <ele>302.6</ele>
        <time>2022-10-02T07:13:37Z</time>
      </trkpt>
      <trkpt lat="45.93229" lon="1.13931">
        <ele>302.8</ele>
        <time>2022-10-02T07:13:38Z</time>
      </trkpt>
      <trkpt lat="45.93233" lon="1.13935">
        <ele>302.9</ele>
        <time>2022-10-02T07:13:39Z</time>
      </trkpt>
      <trkpt lat="45.93235" lon="1.13938">
        <ele>303</ele>
        <time>2022-10-02T07:13:40Z</time>
      </trkpt>
      <trkpt lat="45.93238" lon="1.13942">
        <ele>303.1</ele>
        <time>2022-10-02T07:13:41Z</time>
      </trkpt>
      <trkpt lat="45.93243" lon="1.13945">
        <ele>303.3</ele>
        <time>2022-10-02T07:13:42Z</time>
      </trkpt>
      <trkpt lat="45.93249" lon="1.13943">
        <ele>303.5</ele>
        <time>2022-10-02T07:13:43Z</time>
      </trkpt>
      <trkpt lat="45.93252" lon="1.13944">
        <ele>303.6</ele>
        <time>2022-10-02T07:13:44Z</time>
      </trkpt>
      <trkpt lat="45.93255" lon="1.13943">
        <ele>303.7</ele>
        <time>2022-10-02T07:13:45Z</time>
      </trkpt>
      <trkpt lat="45.93261" lon="1.13946">
        <ele>304</ele>
        <time>2022-10-02T07:13:46Z</time>
      </trkpt>
      <trkpt lat="45.93265" lon="1.13951">
        <ele>304.1</ele>
        <time>2022-10-02T07:13:47Z</time>
      </trkpt>
      <trkpt lat="45.93271" lon="1.13954">
        <ele>304.3</ele>
        <time>2022-10-02T07:13:48Z</time>
      </trkpt>
      <trkpt lat="45.93276" lon="1.13956">
        <ele>304.5</ele>
        <time>2022-10-02T07:13:49Z</time>
      </trkpt>
      <trkpt lat="45.93281" lon="1.13959">
        <ele>304.6</ele>
        <time>2022-10-02T07:13:50Z</time>
      </trkpt>
      <trkpt lat="45.93287" lon="1.13962">
        <ele>304.9</ele>
        <time>2022-10-02T07:13:51Z</time>
      </trkpt>
      <trkpt lat="45.93292" lon="1.13965">
        <ele>305</ele>
        <time>2022-10-02T07:13:52Z</time>
      </trkpt>
      <trkpt lat="45.93297" lon="1.13967">
        <ele>305.2</ele>
        <time>2022-10-02T07:13:53Z</time>
      </trkpt>
      <trkpt lat="45.93302" lon="1.13964">
        <ele>305.4</ele>
        <time>2022-10-02T07:13:54Z</time>
      </trkpt>
      <trkpt lat="45.93305" lon="1.13962">
        <ele>305.4</ele>
        <time>2022-10-02T07:13:55Z</time>
      </trkpt>
      <trkpt lat="45.93304" lon="1.13955">
        <ele>305.5</ele>
        <time>2022-10-02T07:13:56Z</time>
      </trkpt>
      <trkpt lat="45.93306" lon="1.13948">
        <ele>305.6</ele>
        <time>2022-10-02T07:13:57Z</time>
      </trkpt>
      <trkpt lat="45.93307" lon="1.13941">
        <ele>305.6</ele>
        <time>2022-10-02T07:13:58Z</time>
      </trkpt>
      <trkpt lat="45.93307" lon="1.13935">
        <ele>305.7</ele>
        <time>2022-10-02T07:13:59Z</time>
      </trkpt>
      <trkpt lat="45.93309" lon="1.13928">
        <ele>305.7</ele>
        <time>2022-10-02T07:14:00Z</time>
      </trkpt>
      <trkpt lat="45.9331" lon="1.13922">
        <ele>305.7</ele>
        <time>2022-10-02T07:14:01Z</time>
      </trkpt>
      <trkpt lat="45.9331" lon="1.13916">
        <ele>305.8</ele>
        <time>2022-10-02T07:14:02Z</time>
      </trkpt>
      <trkpt lat="45.93311" lon="1.13911">
        <ele>305.8</ele>
        <time>2022-10-02T07:14:03Z</time>
      </trkpt>
      <trkpt lat="45.93312" lon="1.13905">
        <ele>305.8</ele>
        <time>2022-10-02T07:14:04Z</time>
      </trkpt>
      <trkpt lat="45.93313" lon="1.13901">
        <ele>305.8</ele>
        <time>2022-10-02T07:14:05Z</time>
      </trkpt>
      <trkpt lat="45.93315" lon="1.13898">
        <ele>305.8</ele>
        <time>2022-10-02T07:14:06Z</time>
      </trkpt>
      <trkpt lat="45.93321" lon="1.13897">
        <ele>305.9</ele>
        <time>2022-10-02T07:14:07Z</time>
      </trkpt>
      <trkpt lat="45.93326" lon="1.13898">
        <ele>305.9</ele>
        <time>2022-10-02T07:14:08Z</time>
      </trkpt>
      <trkpt lat="45.9333" lon="1.13899">
        <ele>306</ele>
        <time>2022-10-02T07:14:09Z</time>
      </trkpt>
      <trkpt lat="45.93336" lon="1.13901">
        <ele>306.1</ele>
        <time>2022-10-02T07:14:10Z</time>
      </trkpt>
      <trkpt lat="45.93342" lon="1.13901">
        <ele>306.2</ele>
        <time>2022-10-02T07:14:11Z</time>
      </trkpt>
      <trkpt lat="45.93348" lon="1.13902">
        <ele>306.3</ele>
        <time>2022-10-02T07:14:12Z</time>
      </trkpt>
      <trkpt lat="45.93353" lon="1.13903">
        <ele>306.5</ele>
        <time>2022-10-02T07:14:13Z</time>
      </trkpt>
      <trkpt lat="45.93357" lon="1.13905">
        <ele>306.6</ele>
        <time>2022-10-02T07:14:14Z</time>
      </trkpt>
      <trkpt lat="45.93363" lon="1.13906">
        <ele>306.8</ele>
        <time>2022-10-02T07:14:15Z</time>
      </trkpt>
      <trkpt lat="45.93369" lon="1.13906">
        <ele>306.9</ele>
        <time>2022-10-02T07:14:16Z</time>
      </trkpt>
      <trkpt lat="45.93374" lon="1.13905">
        <ele>307.1</ele>
        <time>2022-10-02T07:14:17Z</time>
      </trkpt>
      <trkpt lat="45.9338" lon="1.13904">
        <ele>307.3</ele>
        <time>2022-10-02T07:14:18Z</time>
      </trkpt>
      <trkpt lat="45.93387" lon="1.13902">
        <ele>307.5</ele>
        <time>2022-10-02T07:14:19Z</time>
      </trkpt>
      <trkpt lat="45.93394" lon="1.13898">
        <ele>307.8</ele>
        <time>2022-10-02T07:14:20Z</time>
      </trkpt>
      <trkpt lat="45.93401" lon="1.13893">
        <ele>308</ele>
        <time>2022-10-02T07:14:21Z</time>
      </trkpt>
      <trkpt lat="45.93406" lon="1.13891">
        <ele>308.2</ele>
        <time>2022-10-02T07:14:22Z</time>
      </trkpt>
      <trkpt lat="45.93411" lon="1.13887">
        <ele>308.4</ele>
        <time>2022-10-02T07:14:23Z</time>
      </trkpt>
      <trkpt lat="45.93416" lon="1.13883">
        <ele>308.6</ele>
        <time>2022-10-02T07:14:24Z</time>
      </trkpt>
      <trkpt lat="45.93421" lon="1.13879">
        <ele>308.9</ele>
        <time>2022-10-02T07:14:25Z</time>
      </trkpt>
      <trkpt lat="45.93427" lon="1.13876">
        <ele>309.1</ele>
        <time>2022-10-02T07:14:26Z</time>
      </trkpt>
      <trkpt lat="45.93433" lon="1.13872">
        <ele>309.3</ele>
        <time>2022-10-02T07:14:27Z</time>
      </trkpt>
      <trkpt lat="45.93438" lon="1.13869">
        <ele>309.5</ele>
        <time>2022-10-02T07:14:28Z</time>
      </trkpt>
      <trkpt lat="45.93443" lon="1.13867">
        <ele>309.7</ele>
        <time>2022-10-02T07:14:29Z</time>
      </trkpt>
      <trkpt lat="45.93449" lon="1.13864">
        <ele>309.9</ele>
        <time>2022-10-02T07:14:30Z</time>
      </trkpt>
      <trkpt lat="45.93455" lon="1.13862">
        <ele>310.1</ele>
        <time>2022-10-02T07:14:31Z</time>
      </trkpt>
      <trkpt lat="45.93461" lon="1.13859">
        <ele>310.3</ele>
        <time>2022-10-02T07:14:32Z</time>
      </trkpt>
      <trkpt lat="45.93467" lon="1.13857">
        <ele>310.5</ele>
        <time>2022-10-02T07:14:33Z</time>
      </trkpt>
      <trkpt lat="45.93473" lon="1.13858">
        <ele>310.8</ele>
        <time>2022-10-02T07:14:34Z</time>
      </trkpt>
      <trkpt lat="45.9348" lon="1.13857">
        <ele>311</ele>
        <time>2022-10-02T07:14:35Z</time>
      </trkpt>
      <trkpt lat="45.93487" lon="1.13855">
        <ele>311.2</ele>
        <time>2022-10-02T07:14:36Z</time>
      </trkpt>
      <trkpt lat="45.93492" lon="1.13853">
        <ele>311.4</ele>
        <time>2022-10-02T07:14:37Z</time>
      </trkpt>
      <trkpt lat="45.93497" lon="1.13852">
        <ele>311.6</ele>
        <time>2022-10-02T07:14:38Z</time>
      </trkpt>
      <trkpt lat="45.93502" lon="1.13851">
        <ele>311.7</ele>
        <time>2022-10-02T07:14:39Z</time>
      </trkpt>
      <trkpt lat="45.93507" lon="1.1385">
        <ele>311.9</ele>
        <time>2022-10-02T07:14:40Z</time>
      </trkpt>
      <trkpt lat="45.93512" lon="1.13847">
        <ele>312</ele>
        <time>2022-10-02T07:14:41Z</time>
      </trkpt>
      <trkpt lat="45.93516" lon="1.13844">
        <ele>312.2</ele>
        <time>2022-10-02T07:14:42Z</time>
      </trkpt>
      <trkpt lat="45.93521" lon="1.13839">
        <ele>312.3</ele>
        <time>2022-10-02T07:14:43Z</time>
      </trkpt>
      <trkpt lat="45.93525" lon="1.13834">
        <ele>312.5</ele>
        <time>2022-10-02T07:14:44Z</time>
      </trkpt>
      <trkpt lat="45.93531" lon="1.13831">
        <ele>312.6</ele>
        <time>2022-10-02T07:14:45Z</time>
      </trkpt>
      <trkpt lat="45.93536" lon="1.13829">
        <ele>312.7</ele>
        <time>2022-10-02T07:14:46Z</time>
      </trkpt>
      <trkpt lat="45.93539" lon="1.13827">
        <ele>312.8</ele>
        <time>2022-10-02T07:14:47Z</time>
      </trkpt>
      <trkpt lat="45.93544" lon="1.13823">
        <ele>312.9</ele>
        <time>2022-10-02T07:14:48Z</time>
      </trkpt>
      <trkpt lat="45.93549" lon="1.13821">
        <ele>313</ele>
        <time>2022-10-02T07:14:49Z</time>
      </trkpt>
      <trkpt lat="45.93555" lon="1.13817">
        <ele>313.1</ele>
        <time>2022-10-02T07:14:50Z</time>
      </trkpt>
      <trkpt lat="45.93561" lon="1.13813">
        <ele>313.1</ele>
        <time>2022-10-02T07:14:51Z</time>
      </trkpt>
      <trkpt lat="45.93567" lon="1.13811">
        <ele>313.2</ele>
        <time>2022-10-02T07:14:52Z</time>
      </trkpt>
      <trkpt lat="45.93572" lon="1.13808">
        <ele>313.3</ele>
        <time>2022-10-02T07:14:54Z</time>
      </trkpt>
      <trkpt lat="45.93573" lon="1.13805">
        <ele>313.3</ele>
        <time>2022-10-02T07:14:55Z</time>
      </trkpt>
      <trkpt lat="45.93578" lon="1.138">
        <ele>313.4</ele>
        <time>2022-10-02T07:14:56Z</time>
      </trkpt>
      <trkpt lat="45.93584" lon="1.13791">
        <ele>313.6</ele>
        <time>2022-10-02T07:14:57Z</time>
      </trkpt>
      <trkpt lat="45.93589" lon="1.13782">
        <ele>313.8</ele>
        <time>2022-10-02T07:14:58Z</time>
      </trkpt>
      <trkpt lat="45.93593" lon="1.13777">
        <ele>313.9</ele>
        <time>2022-10-02T07:14:59Z</time>
      </trkpt>
      <trkpt lat="45.93599" lon="1.13771">
        <ele>314.1</ele>
        <time>2022-10-02T07:15:00Z</time>
      </trkpt>
      <trkpt lat="45.93603" lon="1.13766">
        <ele>314.2</ele>
        <time>2022-10-02T07:15:01Z</time>
      </trkpt>
      <trkpt lat="45.93606" lon="1.1376">
        <ele>314.4</ele>
        <time>2022-10-02T07:15:02Z</time>
      </trkpt>
      <trkpt lat="45.93609" lon="1.13755">
        <ele>314.5</ele>
        <time>2022-10-02T07:15:03Z</time>
      </trkpt>
      <trkpt lat="45.93613" lon="1.13749">
        <ele>314.7</ele>
        <time>2022-10-02T07:15:04Z</time>
      </trkpt>
      <trkpt lat="45.93617" lon="1.13743">
        <ele>314.9</ele>
        <time>2022-10-02T07:15:05Z</time>
      </trkpt>
      <trkpt lat="45.9362" lon="1.13738">
        <ele>315.1</ele>
        <time>2022-10-02T07:15:06Z</time>
      </trkpt>
      <trkpt lat="45.93623" lon="1.13734">
        <ele>315.2</ele>
        <time>2022-10-02T07:15:07Z</time>
      </trkpt>
      <trkpt lat="45.93628" lon="1.13727">
        <ele>315.6</ele>
        <time>2022-10-02T07:15:08Z</time>
      </trkpt>
      <trkpt lat="45.93632" lon="1.13723">
        <ele>315.8</ele>
        <time>2022-10-02T07:15:09Z</time>
      </trkpt>
      <trkpt lat="45.93636" lon="1.1372">
        <ele>316.1</ele>
        <time>2022-10-02T07:15:10Z</time>
      </trkpt>
      <trkpt lat="45.93641" lon="1.13715">
        <ele>316.4</ele>
        <time>2022-10-02T07:15:11Z</time>
      </trkpt>
      <trkpt lat="45.93644" lon="1.13711">
        <ele>316.6</ele>
        <time>2022-10-02T07:15:12Z</time>
      </trkpt>
      <trkpt lat="45.93647" lon="1.13706">
        <ele>316.9</ele>
        <time>2022-10-02T07:15:13Z</time>
      </trkpt>
      <trkpt lat="45.93652" lon="1.137">
        <ele>317.3</ele>
        <time>2022-10-02T07:15:14Z</time>
      </trkpt>
      <trkpt lat="45.93656" lon="1.13695">
        <ele>317.7</ele>
        <time>2022-10-02T07:15:15Z</time>
      </trkpt>
      <trkpt lat="45.9366" lon="1.13693">
        <ele>318</ele>
        <time>2022-10-02T07:15:16Z</time>
      </trkpt>
      <trkpt lat="45.93664" lon="1.1369">
        <ele>318.3</ele>
        <time>2022-10-02T07:15:17Z</time>
      </trkpt>
      <trkpt lat="45.93666" lon="1.13687">
        <ele>318.6</ele>
        <time>2022-10-02T07:15:18Z</time>
      </trkpt>
      <trkpt lat="45.93672" lon="1.13683">
        <ele>319.1</ele>
        <time>2022-10-02T07:15:19Z</time>
      </trkpt>
      <trkpt lat="45.93679" lon="1.13681">
        <ele>319.6</ele>
        <time>2022-10-02T07:15:20Z</time>
      </trkpt>
      <trkpt lat="45.93681" lon="1.13678">
        <ele>319.9</ele>
        <time>2022-10-02T07:15:21Z</time>
      </trkpt>
      <trkpt lat="45.93684" lon="1.13672">
        <ele>320.4</ele>
        <time>2022-10-02T07:15:22Z</time>
      </trkpt>
      <trkpt lat="45.93687" lon="1.13667">
        <ele>320.8</ele>
        <time>2022-10-02T07:15:23Z</time>
      </trkpt>
      <trkpt lat="45.9369" lon="1.13662">
        <ele>321.1</ele>
        <time>2022-10-02T07:15:24Z</time>
      </trkpt>
      <trkpt lat="45.9369" lon="1.13659">
        <ele>321.3</ele>
        <time>2022-10-02T07:15:25Z</time>
      </trkpt>
      <trkpt lat="45.93695" lon="1.13656">
        <ele>321.8</ele>
        <time>2022-10-02T07:15:26Z</time>
      </trkpt>
      <trkpt lat="45.93701" lon="1.13654">
        <ele>322.4</ele>
        <time>2022-10-02T07:15:27Z</time>
      </trkpt>
      <trkpt lat="45.93705" lon="1.13652">
        <ele>322.7</ele>
        <time>2022-10-02T07:15:28Z</time>
      </trkpt>
      <trkpt lat="45.93708" lon="1.13651">
        <ele>323</ele>
        <time>2022-10-02T07:15:29Z</time>
      </trkpt>
      <trkpt lat="45.93711" lon="1.13649">
        <ele>323.3</ele>
        <time>2022-10-02T07:15:30Z</time>
      </trkpt>
      <trkpt lat="45.93714" lon="1.13648">
        <ele>323.6</ele>
        <time>2022-10-02T07:15:31Z</time>
      </trkpt>
      <trkpt lat="45.93717" lon="1.13646">
        <ele>323.9</ele>
        <time>2022-10-02T07:15:32Z</time>
      </trkpt>
      <trkpt lat="45.9372" lon="1.13644">
        <ele>324.2</ele>
        <time>2022-10-02T07:15:33Z</time>
      </trkpt>
      <trkpt lat="45.93723" lon="1.13641">
        <ele>324.5</ele>
        <time>2022-10-02T07:15:34Z</time>
      </trkpt>
      <trkpt lat="45.93727" lon="1.13639">
        <ele>324.9</ele>
        <time>2022-10-02T07:15:35Z</time>
      </trkpt>
      <trkpt lat="45.93731" lon="1.13637">
        <ele>325.2</ele>
        <time>2022-10-02T07:15:36Z</time>
      </trkpt>
      <trkpt lat="45.93734" lon="1.13634">
        <ele>325.6</ele>
        <time>2022-10-02T07:15:37Z</time>
      </trkpt>
      <trkpt lat="45.93737" lon="1.13631">
        <ele>325.9</ele>
        <time>2022-10-02T07:15:38Z</time>
      </trkpt>
      <trkpt lat="45.9374" lon="1.13629">
        <ele>326.2</ele>
        <time>2022-10-02T07:15:39Z</time>
      </trkpt>
      <trkpt lat="45.93744" lon="1.13627">
        <ele>326.5</ele>
        <time>2022-10-02T07:15:40Z</time>
      </trkpt>
      <trkpt lat="45.93747" lon="1.13626">
        <ele>326.8</ele>
        <time>2022-10-02T07:15:41Z</time>
      </trkpt>
      <trkpt lat="45.9375" lon="1.13624">
        <ele>327.1</ele>
        <time>2022-10-02T07:15:42Z</time>
      </trkpt>
      <trkpt lat="45.93752" lon="1.13623">
        <ele>327.3</ele>
        <time>2022-10-02T07:15:43Z</time>
      </trkpt>
      <trkpt lat="45.93755" lon="1.13622">
        <ele>327.6</ele>
        <time>2022-10-02T07:15:44Z</time>
      </trkpt>
      <trkpt lat="45.93758" lon="1.1362">
        <ele>327.9</ele>
        <time>2022-10-02T07:15:45Z</time>
      </trkpt>
      <trkpt lat="45.93762" lon="1.13619">
        <ele>328.2</ele>
        <time>2022-10-02T07:15:46Z</time>
      </trkpt>
      <trkpt lat="45.93765" lon="1.13617">
        <ele>328.5</ele>
        <time>2022-10-02T07:15:47Z</time>
      </trkpt>
      <trkpt lat="45.93768" lon="1.13616">
        <ele>328.8</ele>
        <time>2022-10-02T07:15:48Z</time>
      </trkpt>
      <trkpt lat="45.93771" lon="1.13616">
        <ele>329</ele>
        <time>2022-10-02T07:15:49Z</time>
      </trkpt>
      <trkpt lat="45.93773" lon="1.13614">
        <ele>329.2</ele>
        <time>2022-10-02T07:15:50Z</time>
      </trkpt>
      <trkpt lat="45.93775" lon="1.13609">
        <ele>329.5</ele>
        <time>2022-10-02T07:15:51Z</time>
      </trkpt>
      <trkpt lat="45.93775" lon="1.13604">
        <ele>329.8</ele>
        <time>2022-10-02T07:15:52Z</time>
      </trkpt>
      <trkpt lat="45.93773" lon="1.13596">
        <ele>329.9</ele>
        <time>2022-10-02T07:15:53Z</time>
      </trkpt>
      <trkpt lat="45.93769" lon="1.1359">
        <ele>330</ele>
        <time>2022-10-02T07:15:54Z</time>
      </trkpt>
      <trkpt lat="45.93766" lon="1.13583">
        <ele>329.9</ele>
        <time>2022-10-02T07:15:55Z</time>
      </trkpt>
      <trkpt lat="45.93763" lon="1.13578">
        <ele>329.9</ele>
        <time>2022-10-02T07:15:56Z</time>
      </trkpt>
      <trkpt lat="45.93761" lon="1.13572">
        <ele>329.8</ele>
        <time>2022-10-02T07:15:57Z</time>
      </trkpt>
      <trkpt lat="45.93756" lon="1.13567">
        <ele>329.7</ele>
        <time>2022-10-02T07:15:58Z</time>
      </trkpt>
      <trkpt lat="45.93752" lon="1.13562">
        <ele>329.6</ele>
        <time>2022-10-02T07:15:59Z</time>
      </trkpt>
      <trkpt lat="45.93748" lon="1.13557">
        <ele>329.6</ele>
        <time>2022-10-02T07:16:00Z</time>
      </trkpt>
      <trkpt lat="45.93744" lon="1.13553">
        <ele>329.5</ele>
        <time>2022-10-02T07:16:01Z</time>
      </trkpt>
      <trkpt lat="45.93742" lon="1.13548">
        <ele>329.5</ele>
        <time>2022-10-02T07:16:02Z</time>
      </trkpt>
      <trkpt lat="45.9374" lon="1.13543">
        <ele>329.4</ele>
        <time>2022-10-02T07:16:03Z</time>
      </trkpt>
      <trkpt lat="45.93738" lon="1.13538">
        <ele>329.4</ele>
        <time>2022-10-02T07:16:04Z</time>
      </trkpt>
      <trkpt lat="45.93733" lon="1.13534">
        <ele>329.3</ele>
        <time>2022-10-02T07:16:05Z</time>
      </trkpt>
      <trkpt lat="45.93729" lon="1.1353">
        <ele>329.3</ele>
        <time>2022-10-02T07:16:06Z</time>
      </trkpt>
      <trkpt lat="45.93726" lon="1.13526">
        <ele>329.2</ele>
        <time>2022-10-02T07:16:07Z</time>
      </trkpt>
      <trkpt lat="45.93723" lon="1.13522">
        <ele>329.1</ele>
        <time>2022-10-02T07:16:08Z</time>
      </trkpt>
      <trkpt lat="45.93719" lon="1.13518">
        <ele>329.1</ele>
        <time>2022-10-02T07:16:09Z</time>
      </trkpt>
      <trkpt lat="45.93715" lon="1.13514">
        <ele>329</ele>
        <time>2022-10-02T07:16:10Z</time>
      </trkpt>
      <trkpt lat="45.93711" lon="1.1351">
        <ele>328.9</ele>
        <time>2022-10-02T07:16:11Z</time>
      </trkpt>
      <trkpt lat="45.93707" lon="1.13504">
        <ele>328.8</ele>
        <time>2022-10-02T07:16:12Z</time>
      </trkpt>
      <trkpt lat="45.93702" lon="1.13498">
        <ele>328.7</ele>
        <time>2022-10-02T07:16:13Z</time>
      </trkpt>
      <trkpt lat="45.93698" lon="1.13492">
        <ele>328.6</ele>
        <time>2022-10-02T07:16:14Z</time>
      </trkpt>
      <trkpt lat="45.93693" lon="1.13485">
        <ele>328.5</ele>
        <time>2022-10-02T07:16:15Z</time>
      </trkpt>
      <trkpt lat="45.93688" lon="1.13479">
        <ele>328.3</ele>
        <time>2022-10-02T07:16:16Z</time>
      </trkpt>
      <trkpt lat="45.93684" lon="1.13471">
        <ele>328.1</ele>
        <time>2022-10-02T07:16:17Z</time>
      </trkpt>
      <trkpt lat="45.9368" lon="1.13465">
        <ele>328</ele>
        <time>2022-10-02T07:16:18Z</time>
      </trkpt>
      <trkpt lat="45.93676" lon="1.13458">
        <ele>327.8</ele>
        <time>2022-10-02T07:16:19Z</time>
      </trkpt>
      <trkpt lat="45.93672" lon="1.13452">
        <ele>327.6</ele>
        <time>2022-10-02T07:16:20Z</time>
      </trkpt>
      <trkpt lat="45.93669" lon="1.13444">
        <ele>327.5</ele>
        <time>2022-10-02T07:16:21Z</time>
      </trkpt>
      <trkpt lat="45.93665" lon="1.13438">
        <ele>327.3</ele>
        <time>2022-10-02T07:16:22Z</time>
      </trkpt>
      <trkpt lat="45.93661" lon="1.13431">
        <ele>327.2</ele>
        <time>2022-10-02T07:16:23Z</time>
      </trkpt>
      <trkpt lat="45.93657" lon="1.13424">
        <ele>327</ele>
        <time>2022-10-02T07:16:24Z</time>
      </trkpt>
      <trkpt lat="45.93654" lon="1.13417">
        <ele>326.9</ele>
        <time>2022-10-02T07:16:25Z</time>
      </trkpt>
      <trkpt lat="45.9365" lon="1.1341">
        <ele>326.7</ele>
        <time>2022-10-02T07:16:26Z</time>
      </trkpt>
      <trkpt lat="45.93647" lon="1.13402">
        <ele>326.6</ele>
        <time>2022-10-02T07:16:27Z</time>
      </trkpt>
      <trkpt lat="45.93645" lon="1.13394">
        <ele>326.5</ele>
        <time>2022-10-02T07:16:28Z</time>
      </trkpt>
      <trkpt lat="45.93641" lon="1.13386">
        <ele>326.3</ele>
        <time>2022-10-02T07:16:29Z</time>
      </trkpt>
      <trkpt lat="45.93639" lon="1.13377">
        <ele>326.1</ele>
        <time>2022-10-02T07:16:30Z</time>
      </trkpt>
      <trkpt lat="45.93636" lon="1.13369">
        <ele>325.9</ele>
        <time>2022-10-02T07:16:31Z</time>
      </trkpt>
      <trkpt lat="45.93633" lon="1.1336">
        <ele>325.7</ele>
        <time>2022-10-02T07:16:32Z</time>
      </trkpt>
      <trkpt lat="45.9363" lon="1.13354">
        <ele>325.6</ele>
        <time>2022-10-02T07:16:33Z</time>
      </trkpt>
      <trkpt lat="45.9363" lon="1.1335">
        <ele>325.5</ele>
        <time>2022-10-02T07:16:34Z</time>
      </trkpt>
      <trkpt lat="45.93629" lon="1.13344">
        <ele>325.4</ele>
        <time>2022-10-02T07:16:35Z</time>
      </trkpt>
      <trkpt lat="45.93631" lon="1.13338">
        <ele>325.3</ele>
        <time>2022-10-02T07:16:36Z</time>
      </trkpt>
      <trkpt lat="45.93637" lon="1.13339">
        <ele>324.5</ele>
        <time>2022-10-02T07:16:37Z</time>
      </trkpt>
      <trkpt lat="45.93642" lon="1.13334">
        <ele>324.2</ele>
        <time>2022-10-02T07:16:38Z</time>
      </trkpt>
      <trkpt lat="45.93646" lon="1.13333">
        <ele>324</ele>
        <time>2022-10-02T07:16:39Z</time>
      </trkpt>
      <trkpt lat="45.93651" lon="1.13333">
        <ele>323.8</ele>
        <time>2022-10-02T07:16:40Z</time>
      </trkpt>
      <trkpt lat="45.93656" lon="1.13332">
        <ele>323.5</ele>
        <time>2022-10-02T07:16:41Z</time>
      </trkpt>
      <trkpt lat="45.93664" lon="1.13329">
        <ele>323.1</ele>
        <time>2022-10-02T07:16:42Z</time>
      </trkpt>
      <trkpt lat="45.93671" lon="1.13328">
        <ele>322.7</ele>
        <time>2022-10-02T07:16:43Z</time>
      </trkpt>
      <trkpt lat="45.93674" lon="1.13325">
        <ele>322.5</ele>
        <time>2022-10-02T07:16:44Z</time>
      </trkpt>
      <trkpt lat="45.93682" lon="1.13327">
        <ele>322.1</ele>
        <time>2022-10-02T07:16:45Z</time>
      </trkpt>
      <trkpt lat="45.93689" lon="1.13329">
        <ele>321.7</ele>
        <time>2022-10-02T07:16:46Z</time>
      </trkpt>
      <trkpt lat="45.93696" lon="1.13326">
        <ele>321.4</ele>
        <time>2022-10-02T07:16:47Z</time>
      </trkpt>
      <trkpt lat="45.93709" lon="1.13321">
        <ele>320.9</ele>
        <time>2022-10-02T07:16:48Z</time>
      </trkpt>
      <trkpt lat="45.93716" lon="1.13319">
        <ele>320.6</ele>
        <time>2022-10-02T07:16:49Z</time>
      </trkpt>
      <trkpt lat="45.93722" lon="1.13314">
        <ele>320.4</ele>
        <time>2022-10-02T07:16:50Z</time>
      </trkpt>
      <trkpt lat="45.93729" lon="1.13308">
        <ele>320.2</ele>
        <time>2022-10-02T07:16:51Z</time>
      </trkpt>
      <trkpt lat="45.93735" lon="1.13302">
        <ele>320</ele>
        <time>2022-10-02T07:16:52Z</time>
      </trkpt>
      <trkpt lat="45.93742" lon="1.13299">
        <ele>319.8</ele>
        <time>2022-10-02T07:16:53Z</time>
      </trkpt>
      <trkpt lat="45.93747" lon="1.13295">
        <ele>319.7</ele>
        <time>2022-10-02T07:16:54Z</time>
      </trkpt>
      <trkpt lat="45.93754" lon="1.13291">
        <ele>319.5</ele>
        <time>2022-10-02T07:16:55Z</time>
      </trkpt>
      <trkpt lat="45.9376" lon="1.13288">
        <ele>319.3</ele>
        <time>2022-10-02T07:16:56Z</time>
      </trkpt>
      <trkpt lat="45.93767" lon="1.13286">
        <ele>319.2</ele>
        <time>2022-10-02T07:16:57Z</time>
      </trkpt>
      <trkpt lat="45.93774" lon="1.13282">
        <ele>319</ele>
        <time>2022-10-02T07:16:58Z</time>
      </trkpt>
      <trkpt lat="45.93781" lon="1.13279">
        <ele>318.9</ele>
        <time>2022-10-02T07:16:59Z</time>
      </trkpt>
      <trkpt lat="45.93788" lon="1.13277">
        <ele>318.8</ele>
        <time>2022-10-02T07:17:00Z</time>
      </trkpt>
      <trkpt lat="45.93794" lon="1.13276">
        <ele>318.7</ele>
        <time>2022-10-02T07:17:01Z</time>
      </trkpt>
      <trkpt lat="45.938" lon="1.13274">
        <ele>318.6</ele>
        <time>2022-10-02T07:17:02Z</time>
      </trkpt>
      <trkpt lat="45.93807" lon="1.13274">
        <ele>318.6</ele>
        <time>2022-10-02T07:17:03Z</time>
      </trkpt>
      <trkpt lat="45.93813" lon="1.13274">
        <ele>318.5</ele>
        <time>2022-10-02T07:17:04Z</time>
      </trkpt>
      <trkpt lat="45.9382" lon="1.13273">
        <ele>318.6</ele>
        <time>2022-10-02T07:17:05Z</time>
      </trkpt>
      <trkpt lat="45.93826" lon="1.13275">
        <ele>318.6</ele>
        <time>2022-10-02T07:17:06Z</time>
      </trkpt>
      <trkpt lat="45.93832" lon="1.13273">
        <ele>318.6</ele>
        <time>2022-10-02T07:17:07Z</time>
      </trkpt>
      <trkpt lat="45.93838" lon="1.13275">
        <ele>318.6</ele>
        <time>2022-10-02T07:17:08Z</time>
      </trkpt>
      <trkpt lat="45.93843" lon="1.13276">
        <ele>318.7</ele>
        <time>2022-10-02T07:17:09Z</time>
      </trkpt>
      <trkpt lat="45.93848" lon="1.13277">
        <ele>318.7</ele>
        <time>2022-10-02T07:17:10Z</time>
      </trkpt>
      <trkpt lat="45.93854" lon="1.13279">
        <ele>318.7</ele>
        <time>2022-10-02T07:17:11Z</time>
      </trkpt>
      <trkpt lat="45.93858" lon="1.13281">
        <ele>318.7</ele>
        <time>2022-10-02T07:17:12Z</time>
      </trkpt>
      <trkpt lat="45.93864" lon="1.13282">
        <ele>318.8</ele>
        <time>2022-10-02T07:17:13Z</time>
      </trkpt>
      <trkpt lat="45.93869" lon="1.13283">
        <ele>318.8</ele>
        <time>2022-10-02T07:17:14Z</time>
      </trkpt>
      <trkpt lat="45.93875" lon="1.13284">
        <ele>318.9</ele>
        <time>2022-10-02T07:17:15Z</time>
      </trkpt>
      <trkpt lat="45.93881" lon="1.13286">
        <ele>318.9</ele>
        <time>2022-10-02T07:17:16Z</time>
      </trkpt>
      <trkpt lat="45.93886" lon="1.13287">
        <ele>318.9</ele>
        <time>2022-10-02T07:17:17Z</time>
      </trkpt>
      <trkpt lat="45.93892" lon="1.13288">
        <ele>318.9</ele>
        <time>2022-10-02T07:17:18Z</time>
      </trkpt>
      <trkpt lat="45.93897" lon="1.13289">
        <ele>319</ele>
        <time>2022-10-02T07:17:19Z</time>
      </trkpt>
      <trkpt lat="45.93903" lon="1.13288">
        <ele>319</ele>
        <time>2022-10-02T07:17:20Z</time>
      </trkpt>
      <trkpt lat="45.93909" lon="1.13287">
        <ele>319</ele>
        <time>2022-10-02T07:17:21Z</time>
      </trkpt>
      <trkpt lat="45.93915" lon="1.13286">
        <ele>319</ele>
        <time>2022-10-02T07:17:22Z</time>
      </trkpt>
      <trkpt lat="45.93921" lon="1.13285">
        <ele>318.9</ele>
        <time>2022-10-02T07:17:23Z</time>
      </trkpt>
      <trkpt lat="45.93926" lon="1.13285">
        <ele>318.9</ele>
        <time>2022-10-02T07:17:24Z</time>
      </trkpt>
      <trkpt lat="45.93933" lon="1.13284">
        <ele>318.8</ele>
        <time>2022-10-02T07:17:25Z</time>
      </trkpt>
      <trkpt lat="45.9394" lon="1.13285">
        <ele>318.8</ele>
        <time>2022-10-02T07:17:26Z</time>
      </trkpt>
      <trkpt lat="45.93943" lon="1.13286">
        <ele>318.7</ele>
        <time>2022-10-02T07:17:27Z</time>
      </trkpt>
      <trkpt lat="45.9395" lon="1.13285">
        <ele>318.6</ele>
        <time>2022-10-02T07:17:28Z</time>
      </trkpt>
      <trkpt lat="45.93954" lon="1.13286">
        <ele>318.5</ele>
        <time>2022-10-02T07:17:29Z</time>
      </trkpt>
      <trkpt lat="45.93961" lon="1.13283">
        <ele>318.3</ele>
        <time>2022-10-02T07:17:30Z</time>
      </trkpt>
      <trkpt lat="45.93965" lon="1.13285">
        <ele>318.1</ele>
        <time>2022-10-02T07:17:31Z</time>
      </trkpt>
      <trkpt lat="45.93971" lon="1.13287">
        <ele>317.9</ele>
        <time>2022-10-02T07:17:32Z</time>
      </trkpt>
      <trkpt lat="45.93977" lon="1.13288">
        <ele>317.7</ele>
        <time>2022-10-02T07:17:33Z</time>
      </trkpt>
      <trkpt lat="45.93983" lon="1.13289">
        <ele>317.4</ele>
        <time>2022-10-02T07:17:34Z</time>
      </trkpt>
      <trkpt lat="45.9399" lon="1.13284">
        <ele>317.1</ele>
        <time>2022-10-02T07:17:35Z</time>
      </trkpt>
      <trkpt lat="45.93996" lon="1.13277">
        <ele>316.8</ele>
        <time>2022-10-02T07:17:36Z</time>
      </trkpt>
      <trkpt lat="45.94001" lon="1.13269">
        <ele>316.4</ele>
        <time>2022-10-02T07:17:37Z</time>
      </trkpt>
      <trkpt lat="45.94004" lon="1.13263">
        <ele>316.1</ele>
        <time>2022-10-02T07:17:38Z</time>
      </trkpt>
      <trkpt lat="45.94008" lon="1.13254">
        <ele>315.7</ele>
        <time>2022-10-02T07:17:39Z</time>
      </trkpt>
      <trkpt lat="45.94013" lon="1.13247">
        <ele>315.3</ele>
        <time>2022-10-02T07:17:40Z</time>
      </trkpt>
      <trkpt lat="45.94018" lon="1.13243">
        <ele>314.9</ele>
        <time>2022-10-02T07:17:41Z</time>
      </trkpt>
      <trkpt lat="45.94022" lon="1.13236">
        <ele>314.5</ele>
        <time>2022-10-02T07:17:42Z</time>
      </trkpt>
      <trkpt lat="45.94028" lon="1.1323">
        <ele>314</ele>
        <time>2022-10-02T07:17:43Z</time>
      </trkpt>
      <trkpt lat="45.94032" lon="1.13223">
        <ele>313.5</ele>
        <time>2022-10-02T07:17:44Z</time>
      </trkpt>
      <trkpt lat="45.94035" lon="1.13214">
        <ele>313</ele>
        <time>2022-10-02T07:17:45Z</time>
      </trkpt>
      <trkpt lat="45.94039" lon="1.13205">
        <ele>312.4</ele>
        <time>2022-10-02T07:17:46Z</time>
      </trkpt>
      <trkpt lat="45.94043" lon="1.13197">
        <ele>311.9</ele>
        <time>2022-10-02T07:17:47Z</time>
      </trkpt>
      <trkpt lat="45.94047" lon="1.13189">
        <ele>311.4</ele>
        <time>2022-10-02T07:17:48Z</time>
      </trkpt>
      <trkpt lat="45.94052" lon="1.13182">
        <ele>310.9</ele>
        <time>2022-10-02T07:17:49Z</time>
      </trkpt>
      <trkpt lat="45.94056" lon="1.13174">
        <ele>310.5</ele>
        <time>2022-10-02T07:17:50Z</time>
      </trkpt>
      <trkpt lat="45.94061" lon="1.1317">
        <ele>310.1</ele>
        <time>2022-10-02T07:17:51Z</time>
      </trkpt>
      <trkpt lat="45.94066" lon="1.13166">
        <ele>309.7</ele>
        <time>2022-10-02T07:17:52Z</time>
      </trkpt>
      <trkpt lat="45.9407" lon="1.13164">
        <ele>309.4</ele>
        <time>2022-10-02T07:17:53Z</time>
      </trkpt>
      <trkpt lat="45.94071" lon="1.13158">
        <ele>309.1</ele>
        <time>2022-10-02T07:17:54Z</time>
      </trkpt>
      <trkpt lat="45.94071" lon="1.13152">
        <ele>308.9</ele>
        <time>2022-10-02T07:17:55Z</time>
      </trkpt>
      <trkpt lat="45.94073" lon="1.13146">
        <ele>308.6</ele>
        <time>2022-10-02T07:17:56Z</time>
      </trkpt>
      <trkpt lat="45.94073" lon="1.13139">
        <ele>308.3</ele>
        <time>2022-10-02T07:17:57Z</time>
      </trkpt>
      <trkpt lat="45.94071" lon="1.13129">
        <ele>308</ele>
        <time>2022-10-02T07:17:58Z</time>
      </trkpt>
      <trkpt lat="45.94071" lon="1.1312">
        <ele>307.8</ele>
        <time>2022-10-02T07:17:59Z</time>
      </trkpt>
      <trkpt lat="45.94069" lon="1.13112">
        <ele>307.6</ele>
        <time>2022-10-02T07:18:00Z</time>
      </trkpt>
      <trkpt lat="45.9407" lon="1.13105">
        <ele>307.5</ele>
        <time>2022-10-02T07:18:01Z</time>
      </trkpt>
      <trkpt lat="45.94069" lon="1.13096">
        <ele>307.3</ele>
        <time>2022-10-02T07:18:02Z</time>
      </trkpt>
      <trkpt lat="45.94066" lon="1.13086">
        <ele>307.2</ele>
        <time>2022-10-02T07:18:03Z</time>
      </trkpt>
      <trkpt lat="45.94064" lon="1.13077">
        <ele>307.1</ele>
        <time>2022-10-02T07:18:04Z</time>
      </trkpt>
      <trkpt lat="45.94062" lon="1.13071">
        <ele>307.1</ele>
        <time>2022-10-02T07:18:05Z</time>
      </trkpt>
      <trkpt lat="45.94062" lon="1.13061">
        <ele>307</ele>
        <time>2022-10-02T07:18:06Z</time>
      </trkpt>
      <trkpt lat="45.94064" lon="1.13053">
        <ele>307</ele>
        <time>2022-10-02T07:18:07Z</time>
      </trkpt>
      <trkpt lat="45.94065" lon="1.13045">
        <ele>307</ele>
        <time>2022-10-02T07:18:08Z</time>
      </trkpt>
      <trkpt lat="45.94068" lon="1.13038">
        <ele>307</ele>
        <time>2022-10-02T07:18:09Z</time>
      </trkpt>
      <trkpt lat="45.94072" lon="1.13034">
        <ele>307.1</ele>
        <time>2022-10-02T07:18:10Z</time>
      </trkpt>
      <trkpt lat="45.94075" lon="1.13028">
        <ele>307.2</ele>
        <time>2022-10-02T07:18:11Z</time>
      </trkpt>
      <trkpt lat="45.9408" lon="1.13024">
        <ele>307.3</ele>
        <time>2022-10-02T07:18:12Z</time>
      </trkpt>
      <trkpt lat="45.94084" lon="1.13018">
        <ele>307.4</ele>
        <time>2022-10-02T07:18:13Z</time>
      </trkpt>
      <trkpt lat="45.94087" lon="1.13014">
        <ele>307.5</ele>
        <time>2022-10-02T07:18:14Z</time>
      </trkpt>
      <trkpt lat="45.94091" lon="1.13009">
        <ele>307.7</ele>
        <time>2022-10-02T07:18:15Z</time>
      </trkpt>
      <trkpt lat="45.94095" lon="1.13002">
        <ele>307.9</ele>
        <time>2022-10-02T07:18:16Z</time>
      </trkpt>
      <trkpt lat="45.94099" lon="1.12997">
        <ele>308.4</ele>
        <time>2022-10-02T07:18:17Z</time>
      </trkpt>
      <trkpt lat="45.94102" lon="1.12992">
        <ele>308.4</ele>
        <time>2022-10-02T07:18:18Z</time>
      </trkpt>
      <trkpt lat="45.94102" lon="1.12983">
        <ele>308.4</ele>
        <time>2022-10-02T07:18:19Z</time>
      </trkpt>
      <trkpt lat="45.94101" lon="1.12978">
        <ele>307.8</ele>
        <time>2022-10-02T07:18:20Z</time>
      </trkpt>
      <trkpt lat="45.94097" lon="1.12973">
        <ele>307.6</ele>
        <time>2022-10-02T07:18:21Z</time>
      </trkpt>
      <trkpt lat="45.94094" lon="1.12966">
        <ele>307.4</ele>
        <time>2022-10-02T07:18:22Z</time>
      </trkpt>
      <trkpt lat="45.94089" lon="1.1296">
        <ele>307.2</ele>
        <time>2022-10-02T07:18:23Z</time>
      </trkpt>
      <trkpt lat="45.94085" lon="1.12956">
        <ele>307</ele>
        <time>2022-10-02T07:18:24Z</time>
      </trkpt>
      <trkpt lat="45.94082" lon="1.12952">
        <ele>306.9</ele>
        <time>2022-10-02T07:18:25Z</time>
      </trkpt>
      <trkpt lat="45.94076" lon="1.12947">
        <ele>306.6</ele>
        <time>2022-10-02T07:18:26Z</time>
      </trkpt>
      <trkpt lat="45.94071" lon="1.12943">
        <ele>306.4</ele>
        <time>2022-10-02T07:18:27Z</time>
      </trkpt>
      <trkpt lat="45.94065" lon="1.12938">
        <ele>306.1</ele>
        <time>2022-10-02T07:18:28Z</time>
      </trkpt>
      <trkpt lat="45.9406" lon="1.12934">
        <ele>305.8</ele>
        <time>2022-10-02T07:18:29Z</time>
      </trkpt>
      <trkpt lat="45.94053" lon="1.12928">
        <ele>305.5</ele>
        <time>2022-10-02T07:18:30Z</time>
      </trkpt>
      <trkpt lat="45.94048" lon="1.12923">
        <ele>305.2</ele>
        <time>2022-10-02T07:18:31Z</time>
      </trkpt>
      <trkpt lat="45.94043" lon="1.12918">
        <ele>305</ele>
        <time>2022-10-02T07:18:32Z</time>
      </trkpt>
      <trkpt lat="45.94037" lon="1.12912">
        <ele>304.8</ele>
        <time>2022-10-02T07:18:33Z</time>
      </trkpt>
      <trkpt lat="45.94031" lon="1.12908">
        <ele>304.5</ele>
        <time>2022-10-02T07:18:34Z</time>
      </trkpt>
      <trkpt lat="45.94025" lon="1.12903">
        <ele>304.2</ele>
        <time>2022-10-02T07:18:35Z</time>
      </trkpt>
      <trkpt lat="45.9402" lon="1.12897">
        <ele>303.9</ele>
        <time>2022-10-02T07:18:36Z</time>
      </trkpt>
      <trkpt lat="45.94015" lon="1.1289">
        <ele>303.6</ele>
        <time>2022-10-02T07:18:37Z</time>
      </trkpt>
      <trkpt lat="45.94011" lon="1.12882">
        <ele>303.3</ele>
        <time>2022-10-02T07:18:38Z</time>
      </trkpt>
      <trkpt lat="45.94007" lon="1.12874">
        <ele>302.9</ele>
        <time>2022-10-02T07:18:39Z</time>
      </trkpt>
      <trkpt lat="45.94005" lon="1.12866">
        <ele>302.6</ele>
        <time>2022-10-02T07:18:40Z</time>
      </trkpt>
      <trkpt lat="45.94002" lon="1.12857">
        <ele>302.2</ele>
        <time>2022-10-02T07:18:41Z</time>
      </trkpt>
      <trkpt lat="45.94" lon="1.12848">
        <ele>301.7</ele>
        <time>2022-10-02T07:18:42Z</time>
      </trkpt>
      <trkpt lat="45.94" lon="1.12837">
        <ele>301.2</ele>
        <time>2022-10-02T07:18:43Z</time>
      </trkpt>
      <trkpt lat="45.93999" lon="1.12826">
        <ele>300.7</ele>
        <time>2022-10-02T07:18:44Z</time>
      </trkpt>
      <trkpt lat="45.93999" lon="1.12815">
        <ele>300.2</ele>
        <time>2022-10-02T07:18:45Z</time>
      </trkpt>
      <trkpt lat="45.93999" lon="1.12803">
        <ele>299.6</ele>
        <time>2022-10-02T07:18:46Z</time>
      </trkpt>
      <trkpt lat="45.93998" lon="1.12793">
        <ele>299.1</ele>
        <time>2022-10-02T07:18:47Z</time>
      </trkpt>
      <trkpt lat="45.93998" lon="1.12781">
        <ele>298.4</ele>
        <time>2022-10-02T07:18:48Z</time>
      </trkpt>
      <trkpt lat="45.93999" lon="1.12769">
        <ele>297.9</ele>
        <time>2022-10-02T07:18:49Z</time>
      </trkpt>
      <trkpt lat="45.93999" lon="1.12757">
        <ele>297.4</ele>
        <time>2022-10-02T07:18:50Z</time>
      </trkpt>
      <trkpt lat="45.93998" lon="1.12746">
        <ele>297</ele>
        <time>2022-10-02T07:18:51Z</time>
      </trkpt>
      <trkpt lat="45.93998" lon="1.12735">
        <ele>296.6</ele>
        <time>2022-10-02T07:18:52Z</time>
      </trkpt>
      <trkpt lat="45.93999" lon="1.12723">
        <ele>296.2</ele>
        <time>2022-10-02T07:18:53Z</time>
      </trkpt>
      <trkpt lat="45.94001" lon="1.12712">
        <ele>296</ele>
        <time>2022-10-02T07:18:54Z</time>
      </trkpt>
      <trkpt lat="45.94003" lon="1.12701">
        <ele>295.8</ele>
        <time>2022-10-02T07:18:55Z</time>
      </trkpt>
      <trkpt lat="45.94006" lon="1.12691">
        <ele>295.6</ele>
        <time>2022-10-02T07:18:56Z</time>
      </trkpt>
      <trkpt lat="45.94006" lon="1.12679">
        <ele>295.5</ele>
        <time>2022-10-02T07:18:57Z</time>
      </trkpt>
      <trkpt lat="45.9401" lon="1.12669">
        <ele>295.4</ele>
        <time>2022-10-02T07:18:58Z</time>
      </trkpt>
      <trkpt lat="45.94012" lon="1.1266">
        <ele>295.3</ele>
        <time>2022-10-02T07:18:59Z</time>
      </trkpt>
      <trkpt lat="45.94014" lon="1.12652">
        <ele>295.2</ele>
        <time>2022-10-02T07:19:00Z</time>
      </trkpt>
      <trkpt lat="45.94016" lon="1.12644">
        <ele>295.2</ele>
        <time>2022-10-02T07:19:01Z</time>
      </trkpt>
      <trkpt lat="45.94017" lon="1.12635">
        <ele>295.2</ele>
        <time>2022-10-02T07:19:02Z</time>
      </trkpt>
      <trkpt lat="45.94018" lon="1.12625">
        <ele>295.3</ele>
        <time>2022-10-02T07:19:03Z</time>
      </trkpt>
      <trkpt lat="45.94019" lon="1.12616">
        <ele>295.3</ele>
        <time>2022-10-02T07:19:04Z</time>
      </trkpt>
      <trkpt lat="45.94023" lon="1.1261">
        <ele>295.3</ele>
        <time>2022-10-02T07:19:05Z</time>
      </trkpt>
      <trkpt lat="45.94026" lon="1.12602">
        <ele>295.3</ele>
        <time>2022-10-02T07:19:06Z</time>
      </trkpt>
      <trkpt lat="45.94029" lon="1.12595">
        <ele>295.2</ele>
        <time>2022-10-02T07:19:07Z</time>
      </trkpt>
      <trkpt lat="45.94033" lon="1.1259">
        <ele>295.2</ele>
        <time>2022-10-02T07:19:08Z</time>
      </trkpt>
      <trkpt lat="45.94036" lon="1.12583">
        <ele>295.1</ele>
        <time>2022-10-02T07:19:09Z</time>
      </trkpt>
      <trkpt lat="45.94037" lon="1.12574">
        <ele>295</ele>
        <time>2022-10-02T07:19:10Z</time>
      </trkpt>
      <trkpt lat="45.9404" lon="1.12566">
        <ele>294.8</ele>
        <time>2022-10-02T07:19:11Z</time>
      </trkpt>
      <trkpt lat="45.94042" lon="1.12558">
        <ele>294.6</ele>
        <time>2022-10-02T07:19:12Z</time>
      </trkpt>
      <trkpt lat="45.94045" lon="1.12549">
        <ele>294.3</ele>
        <time>2022-10-02T07:19:13Z</time>
      </trkpt>
      <trkpt lat="45.94045" lon="1.1254">
        <ele>294</ele>
        <time>2022-10-02T07:19:14Z</time>
      </trkpt>
      <trkpt lat="45.94046" lon="1.12532">
        <ele>293.6</ele>
        <time>2022-10-02T07:19:15Z</time>
      </trkpt>
      <trkpt lat="45.94047" lon="1.12523">
        <ele>293.1</ele>
        <time>2022-10-02T07:19:16Z</time>
      </trkpt>
      <trkpt lat="45.94052" lon="1.12513">
        <ele>292.5</ele>
        <time>2022-10-02T07:19:17Z</time>
      </trkpt>
      <trkpt lat="45.94054" lon="1.12503">
        <ele>292</ele>
        <time>2022-10-02T07:19:18Z</time>
      </trkpt>
      <trkpt lat="45.94058" lon="1.1249">
        <ele>291.3</ele>
        <time>2022-10-02T07:19:19Z</time>
      </trkpt>
      <trkpt lat="45.94061" lon="1.1248">
        <ele>290.8</ele>
        <time>2022-10-02T07:19:20Z</time>
      </trkpt>
      <trkpt lat="45.94065" lon="1.1247">
        <ele>290.2</ele>
        <time>2022-10-02T07:19:21Z</time>
      </trkpt>
      <trkpt lat="45.94069" lon="1.12461">
        <ele>289.8</ele>
        <time>2022-10-02T07:19:22Z</time>
      </trkpt>
      <trkpt lat="45.94072" lon="1.12453">
        <ele>289.4</ele>
        <time>2022-10-02T07:19:23Z</time>
      </trkpt>
      <trkpt lat="45.94077" lon="1.12443">
        <ele>288.8</ele>
        <time>2022-10-02T07:19:24Z</time>
      </trkpt>
      <trkpt lat="45.94082" lon="1.12434">
        <ele>288.3</ele>
        <time>2022-10-02T07:19:25Z</time>
      </trkpt>
      <trkpt lat="45.94085" lon="1.12429">
        <ele>288</ele>
        <time>2022-10-02T07:19:26Z</time>
      </trkpt>
      <trkpt lat="45.94085" lon="1.12424">
        <ele>287.8</ele>
        <time>2022-10-02T07:19:27Z</time>
      </trkpt>
      <trkpt lat="45.94086" lon="1.12418">
        <ele>287.5</ele>
        <time>2022-10-02T07:19:28Z</time>
      </trkpt>
      <trkpt lat="45.94087" lon="1.12412">
        <ele>287.3</ele>
        <time>2022-10-02T07:19:29Z</time>
      </trkpt>
      <trkpt lat="45.94087" lon="1.12407">
        <ele>287</ele>
        <time>2022-10-02T07:19:30Z</time>
      </trkpt>
      <trkpt lat="45.94085" lon="1.12399">
        <ele>285.5</ele>
        <time>2022-10-02T07:19:31Z</time>
      </trkpt>
      <trkpt lat="45.94084" lon="1.12391">
        <ele>285.3</ele>
        <time>2022-10-02T07:19:32Z</time>
      </trkpt>
      <trkpt lat="45.94073" lon="1.12388">
        <ele>284.9</ele>
        <time>2022-10-02T07:19:33Z</time>
      </trkpt>
      <trkpt lat="45.94069" lon="1.12387">
        <ele>284.7</ele>
        <time>2022-10-02T07:19:34Z</time>
      </trkpt>
      <trkpt lat="45.94062" lon="1.12382">
        <ele>284.4</ele>
        <time>2022-10-02T07:19:35Z</time>
      </trkpt>
      <trkpt lat="45.94057" lon="1.12377">
        <ele>284.1</ele>
        <time>2022-10-02T07:19:36Z</time>
      </trkpt>
      <trkpt lat="45.94051" lon="1.12372">
        <ele>283.9</ele>
        <time>2022-10-02T07:19:37Z</time>
      </trkpt>
      <trkpt lat="45.94046" lon="1.12368">
        <ele>283.6</ele>
        <time>2022-10-02T07:19:38Z</time>
      </trkpt>
      <trkpt lat="45.94041" lon="1.12363">
        <ele>283.4</ele>
        <time>2022-10-02T07:19:39Z</time>
      </trkpt>
      <trkpt lat="45.94035" lon="1.12358">
        <ele>283.1</ele>
        <time>2022-10-02T07:19:40Z</time>
      </trkpt>
      <trkpt lat="45.94031" lon="1.12353">
        <ele>282.9</ele>
        <time>2022-10-02T07:19:41Z</time>
      </trkpt>
      <trkpt lat="45.94023" lon="1.12348">
        <ele>282.5</ele>
        <time>2022-10-02T07:19:42Z</time>
      </trkpt>
      <trkpt lat="45.94018" lon="1.12342">
        <ele>282.2</ele>
        <time>2022-10-02T07:19:43Z</time>
      </trkpt>
      <trkpt lat="45.94012" lon="1.12336">
        <ele>282</ele>
        <time>2022-10-02T07:19:44Z</time>
      </trkpt>
      <trkpt lat="45.94007" lon="1.12331">
        <ele>281.8</ele>
        <time>2022-10-02T07:19:45Z</time>
      </trkpt>
      <trkpt lat="45.94001" lon="1.12327">
        <ele>281.5</ele>
        <time>2022-10-02T07:19:46Z</time>
      </trkpt>
      <trkpt lat="45.93995" lon="1.12322">
        <ele>281.4</ele>
        <time>2022-10-02T07:19:47Z</time>
      </trkpt>
      <trkpt lat="45.93989" lon="1.12317">
        <ele>281.2</ele>
        <time>2022-10-02T07:19:48Z</time>
      </trkpt>
      <trkpt lat="45.93984" lon="1.12313">
        <ele>281.1</ele>
        <time>2022-10-02T07:19:49Z</time>
      </trkpt>
      <trkpt lat="45.93978" lon="1.12309">
        <ele>280.9</ele>
        <time>2022-10-02T07:19:50Z</time>
      </trkpt>
      <trkpt lat="45.93973" lon="1.12305">
        <ele>280.8</ele>
        <time>2022-10-02T07:19:51Z</time>
      </trkpt>
      <trkpt lat="45.93967" lon="1.12302">
        <ele>280.6</ele>
        <time>2022-10-02T07:19:52Z</time>
      </trkpt>
      <trkpt lat="45.93962" lon="1.12303">
        <ele>280.5</ele>
        <time>2022-10-02T07:19:53Z</time>
      </trkpt>
      <trkpt lat="45.93956" lon="1.12301">
        <ele>280.4</ele>
        <time>2022-10-02T07:19:54Z</time>
      </trkpt>
      <trkpt lat="45.93951" lon="1.12301">
        <ele>280.3</ele>
        <time>2022-10-02T07:19:55Z</time>
      </trkpt>
      <trkpt lat="45.93945" lon="1.12299">
        <ele>280.2</ele>
        <time>2022-10-02T07:19:56Z</time>
      </trkpt>
      <trkpt lat="45.93939" lon="1.12298">
        <ele>280.1</ele>
        <time>2022-10-02T07:19:57Z</time>
      </trkpt>
      <trkpt lat="45.93933" lon="1.12298">
        <ele>280.1</ele>
        <time>2022-10-02T07:19:58Z</time>
      </trkpt>
      <trkpt lat="45.93927" lon="1.123">
        <ele>280</ele>
        <time>2022-10-02T07:19:59Z</time>
      </trkpt>
      <trkpt lat="45.93922" lon="1.12303">
        <ele>279.9</ele>
        <time>2022-10-02T07:20:00Z</time>
      </trkpt>
      <trkpt lat="45.93917" lon="1.12307">
        <ele>279.9</ele>
        <time>2022-10-02T07:20:01Z</time>
      </trkpt>
      <trkpt lat="45.93912" lon="1.12313">
        <ele>279.8</ele>
        <time>2022-10-02T07:20:02Z</time>
      </trkpt>
      <trkpt lat="45.93908" lon="1.12319">
        <ele>279.8</ele>
        <time>2022-10-02T07:20:03Z</time>
      </trkpt>
      <trkpt lat="45.93904" lon="1.12325">
        <ele>279.7</ele>
        <time>2022-10-02T07:20:04Z</time>
      </trkpt>
      <trkpt lat="45.93901" lon="1.12331">
        <ele>279.7</ele>
        <time>2022-10-02T07:20:05Z</time>
      </trkpt>
      <trkpt lat="45.93896" lon="1.12337">
        <ele>279.6</ele>
        <time>2022-10-02T07:20:06Z</time>
      </trkpt>
      <trkpt lat="45.93894" lon="1.12344">
        <ele>279.6</ele>
        <time>2022-10-02T07:20:07Z</time>
      </trkpt>
      <trkpt lat="45.93891" lon="1.12352">
        <ele>279.6</ele>
        <time>2022-10-02T07:20:08Z</time>
      </trkpt>
      <trkpt lat="45.93888" lon="1.12357">
        <ele>279.6</ele>
        <time>2022-10-02T07:20:09Z</time>
      </trkpt>
      <trkpt lat="45.93884" lon="1.12362">
        <ele>279.6</ele>
        <time>2022-10-02T07:20:10Z</time>
      </trkpt>
      <trkpt lat="45.93879" lon="1.12368">
        <ele>279.6</ele>
        <time>2022-10-02T07:20:11Z</time>
      </trkpt>
      <trkpt lat="45.93875" lon="1.1237">
        <ele>279.6</ele>
        <time>2022-10-02T07:20:12Z</time>
      </trkpt>
      <trkpt lat="45.9387" lon="1.12372">
        <ele>279.7</ele>
        <time>2022-10-02T07:20:13Z</time>
      </trkpt>
      <trkpt lat="45.93865" lon="1.12374">
        <ele>279.8</ele>
        <time>2022-10-02T07:20:14Z</time>
      </trkpt>
      <trkpt lat="45.93861" lon="1.12376">
        <ele>279.9</ele>
        <time>2022-10-02T07:20:15Z</time>
      </trkpt>
      <trkpt lat="45.93858" lon="1.12378">
        <ele>279.9</ele>
        <time>2022-10-02T07:20:16Z</time>
      </trkpt>
      <trkpt lat="45.93853" lon="1.12381">
        <ele>280</ele>
        <time>2022-10-02T07:20:17Z</time>
      </trkpt>
      <trkpt lat="45.93849" lon="1.12382">
        <ele>280.1</ele>
        <time>2022-10-02T07:20:18Z</time>
      </trkpt>
      <trkpt lat="45.93842" lon="1.12384">
        <ele>280.3</ele>
        <time>2022-10-02T07:20:19Z</time>
      </trkpt>
      <trkpt lat="45.93836" lon="1.12386">
        <ele>280.5</ele>
        <time>2022-10-02T07:20:20Z</time>
      </trkpt>
      <trkpt lat="45.93831" lon="1.12389">
        <ele>280.7</ele>
        <time>2022-10-02T07:20:21Z</time>
      </trkpt>
      <trkpt lat="45.93826" lon="1.1239">
        <ele>280.9</ele>
        <time>2022-10-02T07:20:22Z</time>
      </trkpt>
      <trkpt lat="45.93821" lon="1.12391">
        <ele>281</ele>
        <time>2022-10-02T07:20:23Z</time>
      </trkpt>
      <trkpt lat="45.93817" lon="1.12391">
        <ele>281.2</ele>
        <time>2022-10-02T07:20:24Z</time>
      </trkpt>
      <trkpt lat="45.93813" lon="1.12391">
        <ele>281.3</ele>
        <time>2022-10-02T07:20:25Z</time>
      </trkpt>
      <trkpt lat="45.93808" lon="1.12394">
        <ele>281.5</ele>
        <time>2022-10-02T07:20:26Z</time>
      </trkpt>
      <trkpt lat="45.93802" lon="1.12398">
        <ele>281.7</ele>
        <time>2022-10-02T07:20:27Z</time>
      </trkpt>
      <trkpt lat="45.93797" lon="1.124">
        <ele>281.8</ele>
        <time>2022-10-02T07:20:28Z</time>
      </trkpt>
      <trkpt lat="45.93794" lon="1.12404">
        <ele>281.9</ele>
        <time>2022-10-02T07:20:29Z</time>
      </trkpt>
      <trkpt lat="45.93791" lon="1.12406">
        <ele>282</ele>
        <time>2022-10-02T07:20:30Z</time>
      </trkpt>
      <trkpt lat="45.93788" lon="1.1241">
        <ele>282.2</ele>
        <time>2022-10-02T07:20:31Z</time>
      </trkpt>
      <trkpt lat="45.93783" lon="1.12413">
        <ele>282.3</ele>
        <time>2022-10-02T07:20:32Z</time>
      </trkpt>
      <trkpt lat="45.93778" lon="1.12415">
        <ele>282.5</ele>
        <time>2022-10-02T07:20:33Z</time>
      </trkpt>
      <trkpt lat="45.93775" lon="1.12416">
        <ele>282.6</ele>
        <time>2022-10-02T07:20:34Z</time>
      </trkpt>
      <trkpt lat="45.93771" lon="1.12417">
        <ele>282.6</ele>
        <time>2022-10-02T07:20:35Z</time>
      </trkpt>
      <trkpt lat="45.93767" lon="1.12416">
        <ele>282.7</ele>
        <time>2022-10-02T07:20:36Z</time>
      </trkpt>
      <trkpt lat="45.93762" lon="1.12415">
        <ele>282.8</ele>
        <time>2022-10-02T07:20:37Z</time>
      </trkpt>
      <trkpt lat="45.93759" lon="1.12412">
        <ele>282.9</ele>
        <time>2022-10-02T07:20:38Z</time>
      </trkpt>
      <trkpt lat="45.93756" lon="1.1241">
        <ele>282.9</ele>
        <time>2022-10-02T07:20:39Z</time>
      </trkpt>
      <trkpt lat="45.93752" lon="1.12406">
        <ele>283</ele>
        <time>2022-10-02T07:20:40Z</time>
      </trkpt>
      <trkpt lat="45.93748" lon="1.12403">
        <ele>283</ele>
        <time>2022-10-02T07:20:41Z</time>
      </trkpt>
      <trkpt lat="45.93746" lon="1.12399">
        <ele>283.1</ele>
        <time>2022-10-02T07:20:42Z</time>
      </trkpt>
      <trkpt lat="45.93742" lon="1.12393">
        <ele>283.2</ele>
        <time>2022-10-02T07:20:43Z</time>
      </trkpt>
      <trkpt lat="45.93738" lon="1.12387">
        <ele>283.3</ele>
        <time>2022-10-02T07:20:44Z</time>
      </trkpt>
      <trkpt lat="45.93735" lon="1.12379">
        <ele>283.3</ele>
        <time>2022-10-02T07:20:45Z</time>
      </trkpt>
      <trkpt lat="45.93732" lon="1.12371">
        <ele>283.4</ele>
        <time>2022-10-02T07:20:46Z</time>
      </trkpt>
      <trkpt lat="45.93728" lon="1.12365">
        <ele>283.5</ele>
        <time>2022-10-02T07:20:47Z</time>
      </trkpt>
      <trkpt lat="45.93724" lon="1.12359">
        <ele>283.6</ele>
        <time>2022-10-02T07:20:48Z</time>
      </trkpt>
      <trkpt lat="45.9372" lon="1.12355">
        <ele>283.7</ele>
        <time>2022-10-02T07:20:49Z</time>
      </trkpt>
      <trkpt lat="45.93716" lon="1.12351">
        <ele>283.8</ele>
        <time>2022-10-02T07:20:50Z</time>
      </trkpt>
      <trkpt lat="45.93712" lon="1.12347">
        <ele>283.9</ele>
        <time>2022-10-02T07:20:51Z</time>
      </trkpt>
      <trkpt lat="45.93707" lon="1.12345">
        <ele>284</ele>
        <time>2022-10-02T07:20:52Z</time>
      </trkpt>
      <trkpt lat="45.93704" lon="1.12342">
        <ele>284.2</ele>
        <time>2022-10-02T07:20:53Z</time>
      </trkpt>
      <trkpt lat="45.937" lon="1.1234">
        <ele>284.3</ele>
        <time>2022-10-02T07:20:54Z</time>
      </trkpt>
      <trkpt lat="45.93695" lon="1.12337">
        <ele>284.4</ele>
        <time>2022-10-02T07:20:55Z</time>
      </trkpt>
      <trkpt lat="45.93691" lon="1.12334">
        <ele>284.5</ele>
        <time>2022-10-02T07:20:56Z</time>
      </trkpt>
      <trkpt lat="45.93689" lon="1.12331">
        <ele>284.6</ele>
        <time>2022-10-02T07:20:57Z</time>
      </trkpt>
      <trkpt lat="45.93686" lon="1.12329">
        <ele>284.7</ele>
        <time>2022-10-02T07:20:58Z</time>
      </trkpt>
      <trkpt lat="45.93683" lon="1.12328">
        <ele>284.8</ele>
        <time>2022-10-02T07:20:59Z</time>
      </trkpt>
      <trkpt lat="45.9368" lon="1.12326">
        <ele>284.9</ele>
        <time>2022-10-02T07:21:00Z</time>
      </trkpt>
      <trkpt lat="45.93676" lon="1.12324">
        <ele>285</ele>
        <time>2022-10-02T07:21:01Z</time>
      </trkpt>
      <trkpt lat="45.93672" lon="1.12321">
        <ele>285.1</ele>
        <time>2022-10-02T07:21:02Z</time>
      </trkpt>
      <trkpt lat="45.93669" lon="1.12318">
        <ele>285.3</ele>
        <time>2022-10-02T07:21:03Z</time>
      </trkpt>
      <trkpt lat="45.93666" lon="1.12316">
        <ele>285.4</ele>
        <time>2022-10-02T07:21:04Z</time>
      </trkpt>
      <trkpt lat="45.93662" lon="1.12313">
        <ele>285.6</ele>
        <time>2022-10-02T07:21:05Z</time>
      </trkpt>
      <trkpt lat="45.93658" lon="1.12312">
        <ele>285.7</ele>
        <time>2022-10-02T07:21:06Z</time>
      </trkpt>
      <trkpt lat="45.93654" lon="1.12311">
        <ele>285.9</ele>
        <time>2022-10-02T07:21:07Z</time>
      </trkpt>
      <trkpt lat="45.93649" lon="1.12309">
        <ele>286.1</ele>
        <time>2022-10-02T07:21:08Z</time>
      </trkpt>
      <trkpt lat="45.93645" lon="1.12308">
        <ele>286.3</ele>
        <time>2022-10-02T07:21:09Z</time>
      </trkpt>
      <trkpt lat="45.93642" lon="1.12306">
        <ele>286.4</ele>
        <time>2022-10-02T07:21:10Z</time>
      </trkpt>
      <trkpt lat="45.93638" lon="1.12302">
        <ele>286.7</ele>
        <time>2022-10-02T07:21:11Z</time>
      </trkpt>
      <trkpt lat="45.93634" lon="1.12302">
        <ele>286.9</ele>
        <time>2022-10-02T07:21:12Z</time>
      </trkpt>
      <trkpt lat="45.9363" lon="1.12302">
        <ele>287.1</ele>
        <time>2022-10-02T07:21:13Z</time>
      </trkpt>
      <trkpt lat="45.93627" lon="1.12301">
        <ele>287.3</ele>
        <time>2022-10-02T07:21:14Z</time>
      </trkpt>
      <trkpt lat="45.93624" lon="1.12301">
        <ele>287.5</ele>
        <time>2022-10-02T07:21:15Z</time>
      </trkpt>
      <trkpt lat="45.9362" lon="1.12302">
        <ele>287.8</ele>
        <time>2022-10-02T07:21:16Z</time>
      </trkpt>
      <trkpt lat="45.93617" lon="1.12302">
        <ele>288</ele>
        <time>2022-10-02T07:21:17Z</time>
      </trkpt>
      <trkpt lat="45.93614" lon="1.12302">
        <ele>288.1</ele>
        <time>2022-10-02T07:21:18Z</time>
      </trkpt>
      <trkpt lat="45.93612" lon="1.12304">
        <ele>288.3</ele>
        <time>2022-10-02T07:21:19Z</time>
      </trkpt>
      <trkpt lat="45.9361" lon="1.12307">
        <ele>288.4</ele>
        <time>2022-10-02T07:21:20Z</time>
      </trkpt>
      <trkpt lat="45.93608" lon="1.12312">
        <ele>288.7</ele>
        <time>2022-10-02T07:21:21Z</time>
      </trkpt>
      <trkpt lat="45.93606" lon="1.12318">
        <ele>288.9</ele>
        <time>2022-10-02T07:21:23Z</time>
      </trkpt>
      <trkpt lat="45.93603" lon="1.12325">
        <ele>289.3</ele>
        <time>2022-10-02T07:21:24Z</time>
      </trkpt>
      <trkpt lat="45.93599" lon="1.1233">
        <ele>289.6</ele>
        <time>2022-10-02T07:21:25Z</time>
      </trkpt>
      <trkpt lat="45.93597" lon="1.12336">
        <ele>289.8</ele>
        <time>2022-10-02T07:21:26Z</time>
      </trkpt>
      <trkpt lat="45.93592" lon="1.12343">
        <ele>290.1</ele>
        <time>2022-10-02T07:21:27Z</time>
      </trkpt>
      <trkpt lat="45.93588" lon="1.12349">
        <ele>290.4</ele>
        <time>2022-10-02T07:21:28Z</time>
      </trkpt>
      <trkpt lat="45.93585" lon="1.12356">
        <ele>290.8</ele>
        <time>2022-10-02T07:21:29Z</time>
      </trkpt>
      <trkpt lat="45.93581" lon="1.12363">
        <ele>291.1</ele>
        <time>2022-10-02T07:21:30Z</time>
      </trkpt>
      <trkpt lat="45.93577" lon="1.12369">
        <ele>291.5</ele>
        <time>2022-10-02T07:21:31Z</time>
      </trkpt>
      <trkpt lat="45.93574" lon="1.12374">
        <ele>291.8</ele>
        <time>2022-10-02T07:21:32Z</time>
      </trkpt>
      <trkpt lat="45.9357" lon="1.12378">
        <ele>292.1</ele>
        <time>2022-10-02T07:21:33Z</time>
      </trkpt>
      <trkpt lat="45.93567" lon="1.12385">
        <ele>292.6</ele>
        <time>2022-10-02T07:21:34Z</time>
      </trkpt>
      <trkpt lat="45.93564" lon="1.12389">
        <ele>292.9</ele>
        <time>2022-10-02T07:21:35Z</time>
      </trkpt>
      <trkpt lat="45.9356" lon="1.12391">
        <ele>293.3</ele>
        <time>2022-10-02T07:21:36Z</time>
      </trkpt>
      <trkpt lat="45.93556" lon="1.12393">
        <ele>293.7</ele>
        <time>2022-10-02T07:21:37Z</time>
      </trkpt>
      <trkpt lat="45.93552" lon="1.12396">
        <ele>294.1</ele>
        <time>2022-10-02T07:21:38Z</time>
      </trkpt>
      <trkpt lat="45.93548" lon="1.12394">
        <ele>294.5</ele>
        <time>2022-10-02T07:21:39Z</time>
      </trkpt>
      <trkpt lat="45.93545" lon="1.1239">
        <ele>294.8</ele>
        <time>2022-10-02T07:21:40Z</time>
      </trkpt>
      <trkpt lat="45.93541" lon="1.12387">
        <ele>295.2</ele>
        <time>2022-10-02T07:21:41Z</time>
      </trkpt>
      <trkpt lat="45.93538" lon="1.12384">
        <ele>295.5</ele>
        <time>2022-10-02T07:21:42Z</time>
      </trkpt>
      <trkpt lat="45.93534" lon="1.1238">
        <ele>295.9</ele>
        <time>2022-10-02T07:21:43Z</time>
      </trkpt>
      <trkpt lat="45.93529" lon="1.12378">
        <ele>296.2</ele>
        <time>2022-10-02T07:21:44Z</time>
      </trkpt>
      <trkpt lat="45.93524" lon="1.12374">
        <ele>296.5</ele>
        <time>2022-10-02T07:21:45Z</time>
      </trkpt>
      <trkpt lat="45.93519" lon="1.12371">
        <ele>296.8</ele>
        <time>2022-10-02T07:21:46Z</time>
      </trkpt>
      <trkpt lat="45.93514" lon="1.12368">
        <ele>297</ele>
        <time>2022-10-02T07:21:47Z</time>
      </trkpt>
      <trkpt lat="45.93509" lon="1.12365">
        <ele>297.2</ele>
        <time>2022-10-02T07:21:48Z</time>
      </trkpt>
      <trkpt lat="45.93504" lon="1.12363">
        <ele>297.5</ele>
        <time>2022-10-02T07:21:49Z</time>
      </trkpt>
      <trkpt lat="45.935" lon="1.1236">
        <ele>297.7</ele>
        <time>2022-10-02T07:21:50Z</time>
      </trkpt>
      <trkpt lat="45.93495" lon="1.12357">
        <ele>297.9</ele>
        <time>2022-10-02T07:21:51Z</time>
      </trkpt>
      <trkpt lat="45.9349" lon="1.12354">
        <ele>298.2</ele>
        <time>2022-10-02T07:21:52Z</time>
      </trkpt>
      <trkpt lat="45.93485" lon="1.12352">
        <ele>298.4</ele>
        <time>2022-10-02T07:21:53Z</time>
      </trkpt>
      <trkpt lat="45.9348" lon="1.12349">
        <ele>298.7</ele>
        <time>2022-10-02T07:21:54Z</time>
      </trkpt>
      <trkpt lat="45.93475" lon="1.12345">
        <ele>299</ele>
        <time>2022-10-02T07:21:55Z</time>
      </trkpt>
      <trkpt lat="45.93471" lon="1.12342">
        <ele>299.2</ele>
        <time>2022-10-02T07:21:56Z</time>
      </trkpt>
      <trkpt lat="45.93467" lon="1.12338">
        <ele>299.5</ele>
        <time>2022-10-02T07:21:57Z</time>
      </trkpt>
      <trkpt lat="45.93462" lon="1.12334">
        <ele>299.8</ele>
        <time>2022-10-02T07:21:58Z</time>
      </trkpt>
      <trkpt lat="45.93458" lon="1.12331">
        <ele>300.1</ele>
        <time>2022-10-02T07:21:59Z</time>
      </trkpt>
      <trkpt lat="45.93454" lon="1.12328">
        <ele>300.5</ele>
        <time>2022-10-02T07:22:00Z</time>
      </trkpt>
      <trkpt lat="45.93449" lon="1.12324">
        <ele>300.9</ele>
        <time>2022-10-02T07:22:01Z</time>
      </trkpt>
      <trkpt lat="45.93445" lon="1.12321">
        <ele>301.2</ele>
        <time>2022-10-02T07:22:02Z</time>
      </trkpt>
      <trkpt lat="45.93441" lon="1.12319">
        <ele>301.6</ele>
        <time>2022-10-02T07:22:03Z</time>
      </trkpt>
      <trkpt lat="45.93437" lon="1.12316">
        <ele>301.9</ele>
        <time>2022-10-02T07:22:04Z</time>
      </trkpt>
      <trkpt lat="45.93435" lon="1.12312">
        <ele>302.2</ele>
        <time>2022-10-02T07:22:05Z</time>
      </trkpt>
      <trkpt lat="45.93437" lon="1.12307">
        <ele>302.5</ele>
        <time>2022-10-02T07:22:06Z</time>
      </trkpt>
      <trkpt lat="45.93435" lon="1.12302">
        <ele>302.8</ele>
        <time>2022-10-02T07:22:07Z</time>
      </trkpt>
      <trkpt lat="45.93434" lon="1.12297">
        <ele>302.7</ele>
        <time>2022-10-02T07:22:08Z</time>
      </trkpt>
      <trkpt lat="45.93439" lon="1.1229">
        <ele>302.4</ele>
        <time>2022-10-02T07:22:09Z</time>
      </trkpt>
      <trkpt lat="45.93434" lon="1.1229">
        <ele>302.2</ele>
        <time>2022-10-02T07:22:10Z</time>
      </trkpt>
      <trkpt lat="45.93432" lon="1.12287">
        <ele>302</ele>
        <time>2022-10-02T07:22:11Z</time>
      </trkpt>
      <trkpt lat="45.9343" lon="1.12284">
        <ele>301.9</ele>
        <time>2022-10-02T07:22:12Z</time>
      </trkpt>
      <trkpt lat="45.9343" lon="1.1228">
        <ele>301.7</ele>
        <time>2022-10-02T07:22:13Z</time>
      </trkpt>
      <trkpt lat="45.93429" lon="1.12277">
        <ele>301.6</ele>
        <time>2022-10-02T07:22:14Z</time>
      </trkpt>
      <trkpt lat="45.93456" lon="1.12264">
        <ele>299.4</ele>
        <time>2022-10-02T07:22:15Z</time>
      </trkpt>
      <trkpt lat="45.93483" lon="1.1225">
        <ele>296.7</ele>
        <time>2022-10-02T07:22:16Z</time>
      </trkpt>
      <trkpt lat="45.93491" lon="1.12249">
        <ele>295.8</ele>
        <time>2022-10-02T07:22:17Z</time>
      </trkpt>
      <trkpt lat="45.93499" lon="1.12243">
        <ele>295.1</ele>
        <time>2022-10-02T07:22:18Z</time>
      </trkpt>
      <trkpt lat="45.93506" lon="1.12237">
        <ele>294.5</ele>
        <time>2022-10-02T07:22:19Z</time>
      </trkpt>
      <trkpt lat="45.93512" lon="1.1223">
        <ele>294</ele>
        <time>2022-10-02T07:22:20Z</time>
      </trkpt>
      <trkpt lat="45.93517" lon="1.12222">
        <ele>293.5</ele>
        <time>2022-10-02T07:22:21Z</time>
      </trkpt>
      <trkpt lat="45.93521" lon="1.12212">
        <ele>293.1</ele>
        <time>2022-10-02T07:22:22Z</time>
      </trkpt>
      <trkpt lat="45.93524" lon="1.12202">
        <ele>292.7</ele>
        <time>2022-10-02T07:22:23Z</time>
      </trkpt>
      <trkpt lat="45.93528" lon="1.12192">
        <ele>292.2</ele>
        <time>2022-10-02T07:22:24Z</time>
      </trkpt>
      <trkpt lat="45.93531" lon="1.12182">
        <ele>291.9</ele>
        <time>2022-10-02T07:22:25Z</time>
      </trkpt>
      <trkpt lat="45.93534" lon="1.12171">
        <ele>291.7</ele>
        <time>2022-10-02T07:22:26Z</time>
      </trkpt>
      <trkpt lat="45.93538" lon="1.12162">
        <ele>291.4</ele>
        <time>2022-10-02T07:22:27Z</time>
      </trkpt>
      <trkpt lat="45.93541" lon="1.12152">
        <ele>291.2</ele>
        <time>2022-10-02T07:22:28Z</time>
      </trkpt>
      <trkpt lat="45.93544" lon="1.12142">
        <ele>291.1</ele>
        <time>2022-10-02T07:22:29Z</time>
      </trkpt>
      <trkpt lat="45.93547" lon="1.12132">
        <ele>291</ele>
        <time>2022-10-02T07:22:30Z</time>
      </trkpt>
      <trkpt lat="45.9355" lon="1.12124">
        <ele>290.9</ele>
        <time>2022-10-02T07:22:31Z</time>
      </trkpt>
      <trkpt lat="45.93554" lon="1.12115">
        <ele>290.8</ele>
        <time>2022-10-02T07:22:32Z</time>
      </trkpt>
      <trkpt lat="45.93556" lon="1.12107">
        <ele>290.8</ele>
        <time>2022-10-02T07:22:33Z</time>
      </trkpt>
      <trkpt lat="45.93559" lon="1.12098">
        <ele>290.7</ele>
        <time>2022-10-02T07:22:34Z</time>
      </trkpt>
      <trkpt lat="45.93562" lon="1.1209">
        <ele>290.7</ele>
        <time>2022-10-02T07:22:35Z</time>
      </trkpt>
      <trkpt lat="45.93565" lon="1.12081">
        <ele>290.7</ele>
        <time>2022-10-02T07:22:36Z</time>
      </trkpt>
      <trkpt lat="45.93567" lon="1.12074">
        <ele>290.7</ele>
        <time>2022-10-02T07:22:37Z</time>
      </trkpt>
      <trkpt lat="45.9357" lon="1.12066">
        <ele>290.6</ele>
        <time>2022-10-02T07:22:38Z</time>
      </trkpt>
      <trkpt lat="45.93573" lon="1.12058">
        <ele>290.6</ele>
        <time>2022-10-02T07:22:39Z</time>
      </trkpt>
      <trkpt lat="45.93576" lon="1.1205">
        <ele>290.6</ele>
        <time>2022-10-02T07:22:40Z</time>
      </trkpt>
      <trkpt lat="45.9358" lon="1.12043">
        <ele>290.6</ele>
        <time>2022-10-02T07:22:41Z</time>
      </trkpt>
      <trkpt lat="45.93584" lon="1.12036">
        <ele>290.5</ele>
        <time>2022-10-02T07:22:42Z</time>
      </trkpt>
      <trkpt lat="45.93588" lon="1.1203">
        <ele>290.5</ele>
        <time>2022-10-02T07:22:43Z</time>
      </trkpt>
      <trkpt lat="45.93593" lon="1.12025">
        <ele>290.5</ele>
        <time>2022-10-02T07:22:44Z</time>
      </trkpt>
      <trkpt lat="45.93598" lon="1.12019">
        <ele>290.5</ele>
        <time>2022-10-02T07:22:45Z</time>
      </trkpt>
      <trkpt lat="45.93603" lon="1.12014">
        <ele>290.5</ele>
        <time>2022-10-02T07:22:46Z</time>
      </trkpt>
      <trkpt lat="45.93608" lon="1.1201">
        <ele>290.5</ele>
        <time>2022-10-02T07:22:47Z</time>
      </trkpt>
      <trkpt lat="45.93614" lon="1.12006">
        <ele>290.5</ele>
        <time>2022-10-02T07:22:48Z</time>
      </trkpt>
      <trkpt lat="45.93619" lon="1.12001">
        <ele>290.5</ele>
        <time>2022-10-02T07:22:49Z</time>
      </trkpt>
      <trkpt lat="45.93625" lon="1.11997">
        <ele>290.4</ele>
        <time>2022-10-02T07:22:50Z</time>
      </trkpt>
      <trkpt lat="45.9363" lon="1.11994">
        <ele>290.4</ele>
        <time>2022-10-02T07:22:51Z</time>
      </trkpt>
      <trkpt lat="45.93636" lon="1.11991">
        <ele>290.4</ele>
        <time>2022-10-02T07:22:52Z</time>
      </trkpt>
      <trkpt lat="45.93642" lon="1.11989">
        <ele>290.3</ele>
        <time>2022-10-02T07:22:53Z</time>
      </trkpt>
      <trkpt lat="45.93647" lon="1.11987">
        <ele>290.3</ele>
        <time>2022-10-02T07:22:54Z</time>
      </trkpt>
      <trkpt lat="45.93653" lon="1.11986">
        <ele>290.2</ele>
        <time>2022-10-02T07:22:55Z</time>
      </trkpt>
      <trkpt lat="45.93659" lon="1.11986">
        <ele>290.2</ele>
        <time>2022-10-02T07:22:56Z</time>
      </trkpt>
      <trkpt lat="45.93665" lon="1.11985">
        <ele>290.1</ele>
        <time>2022-10-02T07:22:57Z</time>
      </trkpt>
      <trkpt lat="45.93671" lon="1.11983">
        <ele>290.1</ele>
        <time>2022-10-02T07:22:58Z</time>
      </trkpt>
      <trkpt lat="45.93678" lon="1.11984">
        <ele>290</ele>
        <time>2022-10-02T07:22:59Z</time>
      </trkpt>
      <trkpt lat="45.93684" lon="1.11985">
        <ele>290</ele>
        <time>2022-10-02T07:23:00Z</time>
      </trkpt>
      <trkpt lat="45.9369" lon="1.11986">
        <ele>290</ele>
        <time>2022-10-02T07:23:01Z</time>
      </trkpt>
      <trkpt lat="45.93696" lon="1.11987">
        <ele>290</ele>
        <time>2022-10-02T07:23:02Z</time>
      </trkpt>
      <trkpt lat="45.93702" lon="1.11989">
        <ele>289.9</ele>
        <time>2022-10-02T07:23:03Z</time>
      </trkpt>
      <trkpt lat="45.93708" lon="1.1199">
        <ele>289.9</ele>
        <time>2022-10-02T07:23:04Z</time>
      </trkpt>
      <trkpt lat="45.93714" lon="1.11993">
        <ele>289.9</ele>
        <time>2022-10-02T07:23:05Z</time>
      </trkpt>
      <trkpt lat="45.93721" lon="1.11994">
        <ele>289.8</ele>
        <time>2022-10-02T07:23:06Z</time>
      </trkpt>
      <trkpt lat="45.93727" lon="1.11995">
        <ele>289.8</ele>
        <time>2022-10-02T07:23:07Z</time>
      </trkpt>
      <trkpt lat="45.93732" lon="1.11995">
        <ele>289.8</ele>
        <time>2022-10-02T07:23:08Z</time>
      </trkpt>
      <trkpt lat="45.93736" lon="1.11995">
        <ele>289.9</ele>
        <time>2022-10-02T07:23:09Z</time>
      </trkpt>
      <trkpt lat="45.93742" lon="1.11995">
        <ele>289.9</ele>
        <time>2022-10-02T07:23:10Z</time>
      </trkpt>
      <trkpt lat="45.93748" lon="1.11995">
        <ele>290</ele>
        <time>2022-10-02T07:23:11Z</time>
      </trkpt>
      <trkpt lat="45.93754" lon="1.11995">
        <ele>290.1</ele>
        <time>2022-10-02T07:23:12Z</time>
      </trkpt>
      <trkpt lat="45.9376" lon="1.11992">
        <ele>290.2</ele>
        <time>2022-10-02T07:23:13Z</time>
      </trkpt>
      <trkpt lat="45.93765" lon="1.11986">
        <ele>290.2</ele>
        <time>2022-10-02T07:23:14Z</time>
      </trkpt>
      <trkpt lat="45.9377" lon="1.11982">
        <ele>290.3</ele>
        <time>2022-10-02T07:23:15Z</time>
      </trkpt>
      <trkpt lat="45.93775" lon="1.11978">
        <ele>290.4</ele>
        <time>2022-10-02T07:23:16Z</time>
      </trkpt>
      <trkpt lat="45.93779" lon="1.11974">
        <ele>290.5</ele>
        <time>2022-10-02T07:23:17Z</time>
      </trkpt>
      <trkpt lat="45.93784" lon="1.11969">
        <ele>290.6</ele>
        <time>2022-10-02T07:23:18Z</time>
      </trkpt>
      <trkpt lat="45.93788" lon="1.11963">
        <ele>290.7</ele>
        <time>2022-10-02T07:23:19Z</time>
      </trkpt>
      <trkpt lat="45.93793" lon="1.11959">
        <ele>290.7</ele>
        <time>2022-10-02T07:23:20Z</time>
      </trkpt>
      <trkpt lat="45.93798" lon="1.11954">
        <ele>290.8</ele>
        <time>2022-10-02T07:23:21Z</time>
      </trkpt>
      <trkpt lat="45.93803" lon="1.11949">
        <ele>290.8</ele>
        <time>2022-10-02T07:23:22Z</time>
      </trkpt>
      <trkpt lat="45.93812" lon="1.11939">
        <ele>290.7</ele>
        <time>2022-10-02T07:23:23Z</time>
      </trkpt>
      <trkpt lat="45.93816" lon="1.11933">
        <ele>290.6</ele>
        <time>2022-10-02T07:23:24Z</time>
      </trkpt>
      <trkpt lat="45.93819" lon="1.11927">
        <ele>290.5</ele>
        <time>2022-10-02T07:23:25Z</time>
      </trkpt>
      <trkpt lat="45.93823" lon="1.1192">
        <ele>290.3</ele>
        <time>2022-10-02T07:23:26Z</time>
      </trkpt>
      <trkpt lat="45.93826" lon="1.11912">
        <ele>290.1</ele>
        <time>2022-10-02T07:23:27Z</time>
      </trkpt>
      <trkpt lat="45.93827" lon="1.11903">
        <ele>289.9</ele>
        <time>2022-10-02T07:23:28Z</time>
      </trkpt>
      <trkpt lat="45.93829" lon="1.11894">
        <ele>289.6</ele>
        <time>2022-10-02T07:23:29Z</time>
      </trkpt>
      <trkpt lat="45.93832" lon="1.11886">
        <ele>289.4</ele>
        <time>2022-10-02T07:23:30Z</time>
      </trkpt>
      <trkpt lat="45.93832" lon="1.11878">
        <ele>289.2</ele>
        <time>2022-10-02T07:23:31Z</time>
      </trkpt>
      <trkpt lat="45.93833" lon="1.11869">
        <ele>289.1</ele>
        <time>2022-10-02T07:23:32Z</time>
      </trkpt>
      <trkpt lat="45.93834" lon="1.11861">
        <ele>288.9</ele>
        <time>2022-10-02T07:23:33Z</time>
      </trkpt>
      <trkpt lat="45.93834" lon="1.11852">
        <ele>288.8</ele>
        <time>2022-10-02T07:23:34Z</time>
      </trkpt>
      <trkpt lat="45.93834" lon="1.11844">
        <ele>288.8</ele>
        <time>2022-10-02T07:23:35Z</time>
      </trkpt>
      <trkpt lat="45.93834" lon="1.11836">
        <ele>288.7</ele>
        <time>2022-10-02T07:23:36Z</time>
      </trkpt>
      <trkpt lat="45.93834" lon="1.11829">
        <ele>288.6</ele>
        <time>2022-10-02T07:23:37Z</time>
      </trkpt>
      <trkpt lat="45.93836" lon="1.11823">
        <ele>288.5</ele>
        <time>2022-10-02T07:23:38Z</time>
      </trkpt>
      <trkpt lat="45.93837" lon="1.11814">
        <ele>288.5</ele>
        <time>2022-10-02T07:23:39Z</time>
      </trkpt>
      <trkpt lat="45.93836" lon="1.11805">
        <ele>288.4</ele>
        <time>2022-10-02T07:23:40Z</time>
      </trkpt>
      <trkpt lat="45.93837" lon="1.11798">
        <ele>288.4</ele>
        <time>2022-10-02T07:23:41Z</time>
      </trkpt>
      <trkpt lat="45.93836" lon="1.11789">
        <ele>288.3</ele>
        <time>2022-10-02T07:23:42Z</time>
      </trkpt>
      <trkpt lat="45.93836" lon="1.1178">
        <ele>288.3</ele>
        <time>2022-10-02T07:23:43Z</time>
      </trkpt>
      <trkpt lat="45.93835" lon="1.1177">
        <ele>288.3</ele>
        <time>2022-10-02T07:23:44Z</time>
      </trkpt>
      <trkpt lat="45.93835" lon="1.11762">
        <ele>288.3</ele>
        <time>2022-10-02T07:23:45Z</time>
      </trkpt>
      <trkpt lat="45.93835" lon="1.11752">
        <ele>288.3</ele>
        <time>2022-10-02T07:23:46Z</time>
      </trkpt>
      <trkpt lat="45.93836" lon="1.11743">
        <ele>288.3</ele>
        <time>2022-10-02T07:23:47Z</time>
      </trkpt>
      <trkpt lat="45.93836" lon="1.11734">
        <ele>288.3</ele>
        <time>2022-10-02T07:23:48Z</time>
      </trkpt>
      <trkpt lat="45.93838" lon="1.11727">
        <ele>288.3</ele>
        <time>2022-10-02T07:23:49Z</time>
      </trkpt>
      <trkpt lat="45.93841" lon="1.11719">
        <ele>288.3</ele>
        <time>2022-10-02T07:23:50Z</time>
      </trkpt>
      <trkpt lat="45.93841" lon="1.11708">
        <ele>288.2</ele>
        <time>2022-10-02T07:23:51Z</time>
      </trkpt>
      <trkpt lat="45.93847" lon="1.11706">
        <ele>288.2</ele>
        <time>2022-10-02T07:23:52Z</time>
      </trkpt>
      <trkpt lat="45.93853" lon="1.11701">
        <ele>288</ele>
        <time>2022-10-02T07:23:53Z</time>
      </trkpt>
      <trkpt lat="45.93857" lon="1.11697">
        <ele>287.9</ele>
        <time>2022-10-02T07:23:54Z</time>
      </trkpt>
      <trkpt lat="45.93862" lon="1.1169">
        <ele>287.8</ele>
        <time>2022-10-02T07:23:55Z</time>
      </trkpt>
      <trkpt lat="45.93864" lon="1.11684">
        <ele>287.7</ele>
        <time>2022-10-02T07:23:56Z</time>
      </trkpt>
      <trkpt lat="45.93865" lon="1.11678">
        <ele>287.5</ele>
        <time>2022-10-02T07:23:57Z</time>
      </trkpt>
      <trkpt lat="45.93866" lon="1.11674">
        <ele>287.4</ele>
        <time>2022-10-02T07:23:58Z</time>
      </trkpt>
      <trkpt lat="45.93872" lon="1.11672">
        <ele>287.1</ele>
        <time>2022-10-02T07:23:59Z</time>
      </trkpt>
      <trkpt lat="45.93875" lon="1.11673">
        <ele>286.9</ele>
        <time>2022-10-02T07:24:00Z</time>
      </trkpt>
      <trkpt lat="45.93881" lon="1.11671">
        <ele>286.6</ele>
        <time>2022-10-02T07:24:01Z</time>
      </trkpt>
      <trkpt lat="45.93885" lon="1.11674">
        <ele>286.2</ele>
        <time>2022-10-02T07:24:02Z</time>
      </trkpt>
      <trkpt lat="45.93894" lon="1.11674">
        <ele>285.7</ele>
        <time>2022-10-02T07:24:03Z</time>
      </trkpt>
      <trkpt lat="45.93899" lon="1.11677">
        <ele>285.3</ele>
        <time>2022-10-02T07:24:04Z</time>
      </trkpt>
      <trkpt lat="45.93904" lon="1.11679">
        <ele>285</ele>
        <time>2022-10-02T07:24:05Z</time>
      </trkpt>
      <trkpt lat="45.9391" lon="1.11679">
        <ele>284.6</ele>
        <time>2022-10-02T07:24:06Z</time>
      </trkpt>
      <trkpt lat="45.93915" lon="1.11681">
        <ele>284.4</ele>
        <time>2022-10-02T07:24:07Z</time>
      </trkpt>
      <trkpt lat="45.93921" lon="1.11682">
        <ele>284.2</ele>
        <time>2022-10-02T07:24:08Z</time>
      </trkpt>
      <trkpt lat="45.93926" lon="1.11682">
        <ele>284.1</ele>
        <time>2022-10-02T07:24:09Z</time>
      </trkpt>
      <trkpt lat="45.93931" lon="1.11682">
        <ele>284</ele>
        <time>2022-10-02T07:24:10Z</time>
      </trkpt>
      <trkpt lat="45.93932" lon="1.11679">
        <ele>283.9</ele>
        <time>2022-10-02T07:24:11Z</time>
      </trkpt>
      <trkpt lat="45.93933" lon="1.11676">
        <ele>283.9</ele>
        <time>2022-10-02T07:24:12Z</time>
      </trkpt>
      <trkpt lat="45.93934" lon="1.11669">
        <ele>283.4</ele>
        <time>2022-10-02T07:24:13Z</time>
      </trkpt>
      <trkpt lat="45.93933" lon="1.11664">
        <ele>283.4</ele>
        <time>2022-10-02T07:24:14Z</time>
      </trkpt>
      <trkpt lat="45.93932" lon="1.11657">
        <ele>283.3</ele>
        <time>2022-10-02T07:24:15Z</time>
      </trkpt>
      <trkpt lat="45.93929" lon="1.11651">
        <ele>283.2</ele>
        <time>2022-10-02T07:24:16Z</time>
      </trkpt>
      <trkpt lat="45.93926" lon="1.11644">
        <ele>283.2</ele>
        <time>2022-10-02T07:24:17Z</time>
      </trkpt>
      <trkpt lat="45.93923" lon="1.11637">
        <ele>283.2</ele>
        <time>2022-10-02T07:24:18Z</time>
      </trkpt>
      <trkpt lat="45.9392" lon="1.1163">
        <ele>283.2</ele>
        <time>2022-10-02T07:24:19Z</time>
      </trkpt>
      <trkpt lat="45.93916" lon="1.11623">
        <ele>283.2</ele>
        <time>2022-10-02T07:24:20Z</time>
      </trkpt>
      <trkpt lat="45.93913" lon="1.11617">
        <ele>283.3</ele>
        <time>2022-10-02T07:24:21Z</time>
      </trkpt>
      <trkpt lat="45.93909" lon="1.11611">
        <ele>283.4</ele>
        <time>2022-10-02T07:24:22Z</time>
      </trkpt>
      <trkpt lat="45.93905" lon="1.11605">
        <ele>283.5</ele>
        <time>2022-10-02T07:24:23Z</time>
      </trkpt>
      <trkpt lat="45.93901" lon="1.11599">
        <ele>283.6</ele>
        <time>2022-10-02T07:24:24Z</time>
      </trkpt>
      <trkpt lat="45.93897" lon="1.11593">
        <ele>283.7</ele>
        <time>2022-10-02T07:24:25Z</time>
      </trkpt>
      <trkpt lat="45.93893" lon="1.11586">
        <ele>283.9</ele>
        <time>2022-10-02T07:24:26Z</time>
      </trkpt>
      <trkpt lat="45.93889" lon="1.1158">
        <ele>284</ele>
        <time>2022-10-02T07:24:27Z</time>
      </trkpt>
      <trkpt lat="45.93885" lon="1.11573">
        <ele>284</ele>
        <time>2022-10-02T07:24:28Z</time>
      </trkpt>
      <trkpt lat="45.93881" lon="1.11566">
        <ele>284</ele>
        <time>2022-10-02T07:24:29Z</time>
      </trkpt>
      <trkpt lat="45.9388" lon="1.1156">
        <ele>284</ele>
        <time>2022-10-02T07:24:30Z</time>
      </trkpt>
      <trkpt lat="45.93876" lon="1.11555">
        <ele>283.9</ele>
        <time>2022-10-02T07:24:31Z</time>
      </trkpt>
      <trkpt lat="45.93874" lon="1.11546">
        <ele>283.7</ele>
        <time>2022-10-02T07:24:32Z</time>
      </trkpt>
      <trkpt lat="45.9387" lon="1.11538">
        <ele>283.5</ele>
        <time>2022-10-02T07:24:33Z</time>
      </trkpt>
      <trkpt lat="45.93867" lon="1.11531">
        <ele>283.3</ele>
        <time>2022-10-02T07:24:34Z</time>
      </trkpt>
      <trkpt lat="45.93864" lon="1.11522">
        <ele>283</ele>
        <time>2022-10-02T07:24:35Z</time>
      </trkpt>
      <trkpt lat="45.93862" lon="1.11515">
        <ele>282.9</ele>
        <time>2022-10-02T07:24:36Z</time>
      </trkpt>
      <trkpt lat="45.93859" lon="1.11505">
        <ele>282.6</ele>
        <time>2022-10-02T07:24:37Z</time>
      </trkpt>
      <trkpt lat="45.93854" lon="1.11498">
        <ele>282.3</ele>
        <time>2022-10-02T07:24:38Z</time>
      </trkpt>
      <trkpt lat="45.93854" lon="1.1149">
        <ele>282</ele>
        <time>2022-10-02T07:24:39Z</time>
      </trkpt>
      <trkpt lat="45.93853" lon="1.11484">
        <ele>281.9</ele>
        <time>2022-10-02T07:24:40Z</time>
      </trkpt>
      <trkpt lat="45.93852" lon="1.11478">
        <ele>281.7</ele>
        <time>2022-10-02T07:24:41Z</time>
      </trkpt>
      <trkpt lat="45.93853" lon="1.11469">
        <ele>281.4</ele>
        <time>2022-10-02T07:24:42Z</time>
      </trkpt>
      <trkpt lat="45.9385" lon="1.11455">
        <ele>281.1</ele>
        <time>2022-10-02T07:24:43Z</time>
      </trkpt>
      <trkpt lat="45.93848" lon="1.11446">
        <ele>280.9</ele>
        <time>2022-10-02T07:24:44Z</time>
      </trkpt>
      <trkpt lat="45.93846" lon="1.11436">
        <ele>280.7</ele>
        <time>2022-10-02T07:24:45Z</time>
      </trkpt>
      <trkpt lat="45.93845" lon="1.11429">
        <ele>280.6</ele>
        <time>2022-10-02T07:24:46Z</time>
      </trkpt>
      <trkpt lat="45.93847" lon="1.11425">
        <ele>280.5</ele>
        <time>2022-10-02T07:24:47Z</time>
      </trkpt>
      <trkpt lat="45.93847" lon="1.11416">
        <ele>280.4</ele>
        <time>2022-10-02T07:24:48Z</time>
      </trkpt>
      <trkpt lat="45.93846" lon="1.11409">
        <ele>280.3</ele>
        <time>2022-10-02T07:24:49Z</time>
      </trkpt>
      <trkpt lat="45.93846" lon="1.11402">
        <ele>280.2</ele>
        <time>2022-10-02T07:24:50Z</time>
      </trkpt>
      <trkpt lat="45.93841" lon="1.11393">
        <ele>280</ele>
        <time>2022-10-02T07:24:51Z</time>
      </trkpt>
      <trkpt lat="45.93838" lon="1.11383">
        <ele>279.8</ele>
        <time>2022-10-02T07:24:52Z</time>
      </trkpt>
      <trkpt lat="45.93837" lon="1.11374">
        <ele>279.7</ele>
        <time>2022-10-02T07:24:53Z</time>
      </trkpt>
      <trkpt lat="45.93836" lon="1.11364">
        <ele>279.6</ele>
        <time>2022-10-02T07:24:54Z</time>
      </trkpt>
      <trkpt lat="45.93835" lon="1.11353">
        <ele>279.4</ele>
        <time>2022-10-02T07:24:55Z</time>
      </trkpt>
      <trkpt lat="45.93833" lon="1.11344">
        <ele>279.3</ele>
        <time>2022-10-02T07:24:56Z</time>
      </trkpt>
      <trkpt lat="45.93832" lon="1.11335">
        <ele>279.2</ele>
        <time>2022-10-02T07:24:57Z</time>
      </trkpt>
      <trkpt lat="45.93832" lon="1.11326">
        <ele>279.1</ele>
        <time>2022-10-02T07:24:58Z</time>
      </trkpt>
      <trkpt lat="45.93831" lon="1.11317">
        <ele>279</ele>
        <time>2022-10-02T07:24:59Z</time>
      </trkpt>
      <trkpt lat="45.9383" lon="1.11308">
        <ele>278.9</ele>
        <time>2022-10-02T07:25:00Z</time>
      </trkpt>
      <trkpt lat="45.93829" lon="1.113">
        <ele>278.8</ele>
        <time>2022-10-02T07:25:01Z</time>
      </trkpt>
      <trkpt lat="45.93827" lon="1.11291">
        <ele>278.7</ele>
        <time>2022-10-02T07:25:02Z</time>
      </trkpt>
      <trkpt lat="45.93826" lon="1.11283">
        <ele>278.6</ele>
        <time>2022-10-02T07:25:03Z</time>
      </trkpt>
      <trkpt lat="45.93825" lon="1.11274">
        <ele>278.4</ele>
        <time>2022-10-02T07:25:04Z</time>
      </trkpt>
      <trkpt lat="45.93824" lon="1.11265">
        <ele>278.3</ele>
        <time>2022-10-02T07:25:05Z</time>
      </trkpt>
      <trkpt lat="45.93823" lon="1.11256">
        <ele>278.2</ele>
        <time>2022-10-02T07:25:06Z</time>
      </trkpt>
      <trkpt lat="45.93821" lon="1.11247">
        <ele>278.1</ele>
        <time>2022-10-02T07:25:07Z</time>
      </trkpt>
      <trkpt lat="45.93818" lon="1.11237">
        <ele>277.9</ele>
        <time>2022-10-02T07:25:08Z</time>
      </trkpt>
      <trkpt lat="45.93815" lon="1.11229">
        <ele>277.8</ele>
        <time>2022-10-02T07:25:09Z</time>
      </trkpt>
      <trkpt lat="45.93812" lon="1.1122">
        <ele>277.7</ele>
        <time>2022-10-02T07:25:10Z</time>
      </trkpt>
      <trkpt lat="45.93809" lon="1.11212">
        <ele>277.6</ele>
        <time>2022-10-02T07:25:11Z</time>
      </trkpt>
      <trkpt lat="45.93805" lon="1.11205">
        <ele>277.5</ele>
        <time>2022-10-02T07:25:12Z</time>
      </trkpt>
      <trkpt lat="45.93801" lon="1.11199">
        <ele>277.4</ele>
        <time>2022-10-02T07:25:13Z</time>
      </trkpt>
      <trkpt lat="45.93798" lon="1.11192">
        <ele>277.3</ele>
        <time>2022-10-02T07:25:14Z</time>
      </trkpt>
      <trkpt lat="45.93794" lon="1.11186">
        <ele>277.3</ele>
        <time>2022-10-02T07:25:15Z</time>
      </trkpt>
      <trkpt lat="45.9379" lon="1.11179">
        <ele>277.2</ele>
        <time>2022-10-02T07:25:16Z</time>
      </trkpt>
      <trkpt lat="45.93786" lon="1.11174">
        <ele>277.1</ele>
        <time>2022-10-02T07:25:17Z</time>
      </trkpt>
      <trkpt lat="45.93782" lon="1.11168">
        <ele>277.1</ele>
        <time>2022-10-02T07:25:18Z</time>
      </trkpt>
      <trkpt lat="45.93778" lon="1.11161">
        <ele>277</ele>
        <time>2022-10-02T07:25:19Z</time>
      </trkpt>
      <trkpt lat="45.93774" lon="1.11155">
        <ele>277.1</ele>
        <time>2022-10-02T07:25:20Z</time>
      </trkpt>
      <trkpt lat="45.93771" lon="1.11149">
        <ele>277.1</ele>
        <time>2022-10-02T07:25:21Z</time>
      </trkpt>
      <trkpt lat="45.93767" lon="1.11142">
        <ele>277.2</ele>
        <time>2022-10-02T07:25:22Z</time>
      </trkpt>
      <trkpt lat="45.93764" lon="1.11136">
        <ele>277.2</ele>
        <time>2022-10-02T07:25:23Z</time>
      </trkpt>
      <trkpt lat="45.9376" lon="1.11129">
        <ele>277.4</ele>
        <time>2022-10-02T07:25:24Z</time>
      </trkpt>
      <trkpt lat="45.93756" lon="1.11122">
        <ele>277.5</ele>
        <time>2022-10-02T07:25:25Z</time>
      </trkpt>
      <trkpt lat="45.93752" lon="1.11116">
        <ele>277.7</ele>
        <time>2022-10-02T07:25:26Z</time>
      </trkpt>
      <trkpt lat="45.93748" lon="1.11109">
        <ele>277.9</ele>
        <time>2022-10-02T07:25:27Z</time>
      </trkpt>
      <trkpt lat="45.93744" lon="1.11103">
        <ele>278.1</ele>
        <time>2022-10-02T07:25:28Z</time>
      </trkpt>
      <trkpt lat="45.9374" lon="1.11097">
        <ele>278.3</ele>
        <time>2022-10-02T07:25:29Z</time>
      </trkpt>
      <trkpt lat="45.93736" lon="1.11092">
        <ele>278.5</ele>
        <time>2022-10-02T07:25:30Z</time>
      </trkpt>
      <trkpt lat="45.93731" lon="1.11087">
        <ele>278.7</ele>
        <time>2022-10-02T07:25:31Z</time>
      </trkpt>
      <trkpt lat="45.93726" lon="1.11082">
        <ele>278.9</ele>
        <time>2022-10-02T07:25:32Z</time>
      </trkpt>
      <trkpt lat="45.9372" lon="1.11078">
        <ele>279.1</ele>
        <time>2022-10-02T07:25:33Z</time>
      </trkpt>
      <trkpt lat="45.93715" lon="1.11074">
        <ele>279.3</ele>
        <time>2022-10-02T07:25:34Z</time>
      </trkpt>
      <trkpt lat="45.9371" lon="1.11069">
        <ele>279.5</ele>
        <time>2022-10-02T07:25:35Z</time>
      </trkpt>
      <trkpt lat="45.93705" lon="1.11064">
        <ele>279.6</ele>
        <time>2022-10-02T07:25:36Z</time>
      </trkpt>
      <trkpt lat="45.937" lon="1.1106">
        <ele>279.8</ele>
        <time>2022-10-02T07:25:37Z</time>
      </trkpt>
      <trkpt lat="45.93695" lon="1.11055">
        <ele>280</ele>
        <time>2022-10-02T07:25:38Z</time>
      </trkpt>
      <trkpt lat="45.9369" lon="1.11051">
        <ele>280.1</ele>
        <time>2022-10-02T07:25:39Z</time>
      </trkpt>
      <trkpt lat="45.93685" lon="1.11046">
        <ele>280.2</ele>
        <time>2022-10-02T07:25:40Z</time>
      </trkpt>
      <trkpt lat="45.9368" lon="1.11042">
        <ele>280.3</ele>
        <time>2022-10-02T07:25:41Z</time>
      </trkpt>
      <trkpt lat="45.93675" lon="1.11038">
        <ele>280.4</ele>
        <time>2022-10-02T07:25:42Z</time>
      </trkpt>
      <trkpt lat="45.9367" lon="1.11033">
        <ele>280.5</ele>
        <time>2022-10-02T07:25:43Z</time>
      </trkpt>
      <trkpt lat="45.93666" lon="1.11028">
        <ele>280.5</ele>
        <time>2022-10-02T07:25:44Z</time>
      </trkpt>
      <trkpt lat="45.93661" lon="1.11023">
        <ele>280.5</ele>
        <time>2022-10-02T07:25:45Z</time>
      </trkpt>
      <trkpt lat="45.93656" lon="1.11018">
        <ele>280.5</ele>
        <time>2022-10-02T07:25:46Z</time>
      </trkpt>
      <trkpt lat="45.93652" lon="1.11013">
        <ele>280.5</ele>
        <time>2022-10-02T07:25:47Z</time>
      </trkpt>
      <trkpt lat="45.93646" lon="1.11008">
        <ele>280.5</ele>
        <time>2022-10-02T07:25:48Z</time>
      </trkpt>
      <trkpt lat="45.93642" lon="1.11003">
        <ele>280.5</ele>
        <time>2022-10-02T07:25:49Z</time>
      </trkpt>
      <trkpt lat="45.93637" lon="1.10999">
        <ele>280.6</ele>
        <time>2022-10-02T07:25:50Z</time>
      </trkpt>
      <trkpt lat="45.93632" lon="1.10995">
        <ele>280.6</ele>
        <time>2022-10-02T07:25:51Z</time>
      </trkpt>
      <trkpt lat="45.93627" lon="1.1099">
        <ele>280.7</ele>
        <time>2022-10-02T07:25:52Z</time>
      </trkpt>
      <trkpt lat="45.93623" lon="1.10985">
        <ele>280.7</ele>
        <time>2022-10-02T07:25:53Z</time>
      </trkpt>
      <trkpt lat="45.93618" lon="1.10979">
        <ele>280.8</ele>
        <time>2022-10-02T07:25:54Z</time>
      </trkpt>
      <trkpt lat="45.93614" lon="1.10973">
        <ele>280.9</ele>
        <time>2022-10-02T07:25:55Z</time>
      </trkpt>
      <trkpt lat="45.93608" lon="1.10969">
        <ele>281.1</ele>
        <time>2022-10-02T07:25:56Z</time>
      </trkpt>
      <trkpt lat="45.93604" lon="1.10965">
        <ele>281.3</ele>
        <time>2022-10-02T07:25:57Z</time>
      </trkpt>
      <trkpt lat="45.93599" lon="1.10961">
        <ele>281.5</ele>
        <time>2022-10-02T07:25:58Z</time>
      </trkpt>
      <trkpt lat="45.93594" lon="1.10959">
        <ele>281.7</ele>
        <time>2022-10-02T07:25:59Z</time>
      </trkpt>
      <trkpt lat="45.93589" lon="1.10956">
        <ele>282</ele>
        <time>2022-10-02T07:26:00Z</time>
      </trkpt>
      <trkpt lat="45.93585" lon="1.10952">
        <ele>282.3</ele>
        <time>2022-10-02T07:26:01Z</time>
      </trkpt>
      <trkpt lat="45.93583" lon="1.10947">
        <ele>282.4</ele>
        <time>2022-10-02T07:26:02Z</time>
      </trkpt>
      <trkpt lat="45.93581" lon="1.1094">
        <ele>282.2</ele>
        <time>2022-10-02T07:26:03Z</time>
      </trkpt>
      <trkpt lat="45.93581" lon="1.10932">
        <ele>282</ele>
        <time>2022-10-02T07:26:04Z</time>
      </trkpt>
      <trkpt lat="45.9358" lon="1.10923">
        <ele>281.9</ele>
        <time>2022-10-02T07:26:05Z</time>
      </trkpt>
      <trkpt lat="45.93579" lon="1.10914">
        <ele>281.7</ele>
        <time>2022-10-02T07:26:06Z</time>
      </trkpt>
      <trkpt lat="45.93579" lon="1.10905">
        <ele>281.5</ele>
        <time>2022-10-02T07:26:07Z</time>
      </trkpt>
      <trkpt lat="45.93577" lon="1.10896">
        <ele>281.3</ele>
        <time>2022-10-02T07:26:08Z</time>
      </trkpt>
      <trkpt lat="45.93576" lon="1.10887">
        <ele>281.2</ele>
        <time>2022-10-02T07:26:09Z</time>
      </trkpt>
      <trkpt lat="45.93574" lon="1.10879">
        <ele>281.1</ele>
        <time>2022-10-02T07:26:10Z</time>
      </trkpt>
      <trkpt lat="45.93571" lon="1.1087">
        <ele>280.9</ele>
        <time>2022-10-02T07:26:11Z</time>
      </trkpt>
      <trkpt lat="45.93568" lon="1.10862">
        <ele>280.8</ele>
        <time>2022-10-02T07:26:12Z</time>
      </trkpt>
      <trkpt lat="45.93565" lon="1.10855">
        <ele>280.7</ele>
        <time>2022-10-02T07:26:13Z</time>
      </trkpt>
      <trkpt lat="45.93561" lon="1.10848">
        <ele>280.5</ele>
        <time>2022-10-02T07:26:14Z</time>
      </trkpt>
      <trkpt lat="45.93557" lon="1.10841">
        <ele>280.4</ele>
        <time>2022-10-02T07:26:15Z</time>
      </trkpt>
      <trkpt lat="45.93554" lon="1.10834">
        <ele>280.3</ele>
        <time>2022-10-02T07:26:16Z</time>
      </trkpt>
      <trkpt lat="45.93549" lon="1.10828">
        <ele>280.2</ele>
        <time>2022-10-02T07:26:17Z</time>
      </trkpt>
      <trkpt lat="45.93545" lon="1.10822">
        <ele>280.1</ele>
        <time>2022-10-02T07:26:18Z</time>
      </trkpt>
      <trkpt lat="45.93541" lon="1.10815">
        <ele>280</ele>
        <time>2022-10-02T07:26:19Z</time>
      </trkpt>
      <trkpt lat="45.93537" lon="1.10808">
        <ele>279.9</ele>
        <time>2022-10-02T07:26:20Z</time>
      </trkpt>
      <trkpt lat="45.93533" lon="1.10801">
        <ele>279.8</ele>
        <time>2022-10-02T07:26:21Z</time>
      </trkpt>
      <trkpt lat="45.93528" lon="1.10795">
        <ele>279.7</ele>
        <time>2022-10-02T07:26:22Z</time>
      </trkpt>
      <trkpt lat="45.93523" lon="1.10789">
        <ele>279.6</ele>
        <time>2022-10-02T07:26:23Z</time>
      </trkpt>
      <trkpt lat="45.93519" lon="1.10783">
        <ele>279.6</ele>
        <time>2022-10-02T07:26:24Z</time>
      </trkpt>
      <trkpt lat="45.93515" lon="1.10776">
        <ele>279.5</ele>
        <time>2022-10-02T07:26:25Z</time>
      </trkpt>
      <trkpt lat="45.93511" lon="1.10769">
        <ele>279.4</ele>
        <time>2022-10-02T07:26:26Z</time>
      </trkpt>
      <trkpt lat="45.93506" lon="1.10763">
        <ele>279.3</ele>
        <time>2022-10-02T07:26:27Z</time>
      </trkpt>
      <trkpt lat="45.93501" lon="1.10757">
        <ele>279.2</ele>
        <time>2022-10-02T07:26:28Z</time>
      </trkpt>
      <trkpt lat="45.93497" lon="1.10751">
        <ele>279.1</ele>
        <time>2022-10-02T07:26:29Z</time>
      </trkpt>
      <trkpt lat="45.93492" lon="1.10745">
        <ele>279</ele>
        <time>2022-10-02T07:26:30Z</time>
      </trkpt>
      <trkpt lat="45.93488" lon="1.10739">
        <ele>278.9</ele>
        <time>2022-10-02T07:26:31Z</time>
      </trkpt>
      <trkpt lat="45.93484" lon="1.10733">
        <ele>278.8</ele>
        <time>2022-10-02T07:26:32Z</time>
      </trkpt>
      <trkpt lat="45.9348" lon="1.10727">
        <ele>278.7</ele>
        <time>2022-10-02T07:26:33Z</time>
      </trkpt>
      <trkpt lat="45.93479" lon="1.10719">
        <ele>278.6</ele>
        <time>2022-10-02T07:26:34Z</time>
      </trkpt>
      <trkpt lat="45.93481" lon="1.10709">
        <ele>277.6</ele>
        <time>2022-10-02T07:26:35Z</time>
      </trkpt>
      <trkpt lat="45.93485" lon="1.10703">
        <ele>277.3</ele>
        <time>2022-10-02T07:26:36Z</time>
      </trkpt>
      <trkpt lat="45.93491" lon="1.10699">
        <ele>277.1</ele>
        <time>2022-10-02T07:26:37Z</time>
      </trkpt>
      <trkpt lat="45.93497" lon="1.10696">
        <ele>276.8</ele>
        <time>2022-10-02T07:26:38Z</time>
      </trkpt>
      <trkpt lat="45.93503" lon="1.10694">
        <ele>276.6</ele>
        <time>2022-10-02T07:26:39Z</time>
      </trkpt>
      <trkpt lat="45.9351" lon="1.10691">
        <ele>276.4</ele>
        <time>2022-10-02T07:26:40Z</time>
      </trkpt>
      <trkpt lat="45.93517" lon="1.10688">
        <ele>276.2</ele>
        <time>2022-10-02T07:26:41Z</time>
      </trkpt>
      <trkpt lat="45.93523" lon="1.10686">
        <ele>276</ele>
        <time>2022-10-02T07:26:42Z</time>
      </trkpt>
      <trkpt lat="45.93529" lon="1.10685">
        <ele>275.9</ele>
        <time>2022-10-02T07:26:43Z</time>
      </trkpt>
      <trkpt lat="45.93536" lon="1.10683">
        <ele>275.7</ele>
        <time>2022-10-02T07:26:44Z</time>
      </trkpt>
      <trkpt lat="45.93542" lon="1.10681">
        <ele>275.5</ele>
        <time>2022-10-02T07:26:45Z</time>
      </trkpt>
      <trkpt lat="45.93549" lon="1.1068">
        <ele>275.3</ele>
        <time>2022-10-02T07:26:46Z</time>
      </trkpt>
      <trkpt lat="45.93556" lon="1.10678">
        <ele>275.1</ele>
        <time>2022-10-02T07:26:47Z</time>
      </trkpt>
      <trkpt lat="45.93563" lon="1.10675">
        <ele>274.9</ele>
        <time>2022-10-02T07:26:48Z</time>
      </trkpt>
      <trkpt lat="45.9357" lon="1.10672">
        <ele>274.7</ele>
        <time>2022-10-02T07:26:49Z</time>
      </trkpt>
      <trkpt lat="45.93577" lon="1.1067">
        <ele>274.4</ele>
        <time>2022-10-02T07:26:50Z</time>
      </trkpt>
      <trkpt lat="45.93583" lon="1.10669">
        <ele>274.2</ele>
        <time>2022-10-02T07:26:51Z</time>
      </trkpt>
      <trkpt lat="45.9359" lon="1.10667">
        <ele>274</ele>
        <time>2022-10-02T07:26:52Z</time>
      </trkpt>
      <trkpt lat="45.93597" lon="1.10664">
        <ele>273.8</ele>
        <time>2022-10-02T07:26:53Z</time>
      </trkpt>
      <trkpt lat="45.93604" lon="1.10662">
        <ele>273.5</ele>
        <time>2022-10-02T07:26:54Z</time>
      </trkpt>
      <trkpt lat="45.93612" lon="1.10659">
        <ele>273.1</ele>
        <time>2022-10-02T07:26:55Z</time>
      </trkpt>
      <trkpt lat="45.93618" lon="1.10657">
        <ele>272.9</ele>
        <time>2022-10-02T07:26:56Z</time>
      </trkpt>
      <trkpt lat="45.93625" lon="1.10653">
        <ele>272.5</ele>
        <time>2022-10-02T07:26:57Z</time>
      </trkpt>
      <trkpt lat="45.93632" lon="1.10652">
        <ele>272.2</ele>
        <time>2022-10-02T07:26:58Z</time>
      </trkpt>
      <trkpt lat="45.93639" lon="1.10646">
        <ele>271.9</ele>
        <time>2022-10-02T07:26:59Z</time>
      </trkpt>
      <trkpt lat="45.93646" lon="1.10642">
        <ele>271.4</ele>
        <time>2022-10-02T07:27:00Z</time>
      </trkpt>
      <trkpt lat="45.93652" lon="1.10637">
        <ele>270.9</ele>
        <time>2022-10-02T07:27:01Z</time>
      </trkpt>
      <trkpt lat="45.93659" lon="1.10633">
        <ele>270.4</ele>
        <time>2022-10-02T07:27:02Z</time>
      </trkpt>
      <trkpt lat="45.93667" lon="1.10629">
        <ele>269.8</ele>
        <time>2022-10-02T07:27:03Z</time>
      </trkpt>
      <trkpt lat="45.93675" lon="1.10623">
        <ele>269.2</ele>
        <time>2022-10-02T07:27:04Z</time>
      </trkpt>
      <trkpt lat="45.93683" lon="1.10618">
        <ele>268.5</ele>
        <time>2022-10-02T07:27:05Z</time>
      </trkpt>
      <trkpt lat="45.9369" lon="1.10612">
        <ele>267.9</ele>
        <time>2022-10-02T07:27:06Z</time>
      </trkpt>
      <trkpt lat="45.93699" lon="1.10608">
        <ele>267.3</ele>
        <time>2022-10-02T07:27:07Z</time>
      </trkpt>
      <trkpt lat="45.93708" lon="1.10603">
        <ele>266.7</ele>
        <time>2022-10-02T07:27:08Z</time>
      </trkpt>
      <trkpt lat="45.93717" lon="1.10598">
        <ele>266.3</ele>
        <time>2022-10-02T07:27:09Z</time>
      </trkpt>
      <trkpt lat="45.93725" lon="1.10592">
        <ele>265.9</ele>
        <time>2022-10-02T07:27:10Z</time>
      </trkpt>
      <trkpt lat="45.93732" lon="1.10582">
        <ele>265.6</ele>
        <time>2022-10-02T07:27:11Z</time>
      </trkpt>
      <trkpt lat="45.93739" lon="1.10573">
        <ele>265.5</ele>
        <time>2022-10-02T07:27:12Z</time>
      </trkpt>
      <trkpt lat="45.93746" lon="1.10565">
        <ele>265.4</ele>
        <time>2022-10-02T07:27:13Z</time>
      </trkpt>
      <trkpt lat="45.93751" lon="1.10555">
        <ele>265.4</ele>
        <time>2022-10-02T07:27:14Z</time>
      </trkpt>
      <trkpt lat="45.93756" lon="1.10546">
        <ele>265.4</ele>
        <time>2022-10-02T07:27:15Z</time>
      </trkpt>
      <trkpt lat="45.93762" lon="1.10536">
        <ele>265.4</ele>
        <time>2022-10-02T07:27:16Z</time>
      </trkpt>
      <trkpt lat="45.93768" lon="1.10527">
        <ele>265.4</ele>
        <time>2022-10-02T07:27:17Z</time>
      </trkpt>
      <trkpt lat="45.93773" lon="1.10519">
        <ele>265.4</ele>
        <time>2022-10-02T07:27:18Z</time>
      </trkpt>
      <trkpt lat="45.93779" lon="1.10513">
        <ele>265.3</ele>
        <time>2022-10-02T07:27:19Z</time>
      </trkpt>
      <trkpt lat="45.93784" lon="1.10511">
        <ele>265.3</ele>
        <time>2022-10-02T07:27:20Z</time>
      </trkpt>
      <trkpt lat="45.9379" lon="1.10505">
        <ele>265.4</ele>
        <time>2022-10-02T07:27:21Z</time>
      </trkpt>
      <trkpt lat="45.93795" lon="1.10502">
        <ele>265.4</ele>
        <time>2022-10-02T07:27:22Z</time>
      </trkpt>
      <trkpt lat="45.938" lon="1.10495">
        <ele>265.5</ele>
        <time>2022-10-02T07:27:23Z</time>
      </trkpt>
      <trkpt lat="45.93805" lon="1.10488">
        <ele>265.6</ele>
        <time>2022-10-02T07:27:24Z</time>
      </trkpt>
      <trkpt lat="45.93809" lon="1.10483">
        <ele>265.7</ele>
        <time>2022-10-02T07:27:25Z</time>
      </trkpt>
      <trkpt lat="45.93814" lon="1.10478">
        <ele>265.8</ele>
        <time>2022-10-02T07:27:26Z</time>
      </trkpt>
      <trkpt lat="45.93818" lon="1.10473">
        <ele>266</ele>
        <time>2022-10-02T07:27:27Z</time>
      </trkpt>
      <trkpt lat="45.93823" lon="1.1047">
        <ele>266.2</ele>
        <time>2022-10-02T07:27:28Z</time>
      </trkpt>
      <trkpt lat="45.93827" lon="1.10464">
        <ele>266.4</ele>
        <time>2022-10-02T07:27:29Z</time>
      </trkpt>
      <trkpt lat="45.93831" lon="1.10458">
        <ele>266.6</ele>
        <time>2022-10-02T07:27:30Z</time>
      </trkpt>
      <trkpt lat="45.93836" lon="1.10453">
        <ele>266.8</ele>
        <time>2022-10-02T07:27:31Z</time>
      </trkpt>
      <trkpt lat="45.93841" lon="1.10445">
        <ele>267</ele>
        <time>2022-10-02T07:27:32Z</time>
      </trkpt>
      <trkpt lat="45.93845" lon="1.10438">
        <ele>267.2</ele>
        <time>2022-10-02T07:27:33Z</time>
      </trkpt>
      <trkpt lat="45.93849" lon="1.10431">
        <ele>267.4</ele>
        <time>2022-10-02T07:27:34Z</time>
      </trkpt>
      <trkpt lat="45.93854" lon="1.10425">
        <ele>267.6</ele>
        <time>2022-10-02T07:27:35Z</time>
      </trkpt>
      <trkpt lat="45.93858" lon="1.10419">
        <ele>267.8</ele>
        <time>2022-10-02T07:27:36Z</time>
      </trkpt>
      <trkpt lat="45.93863" lon="1.10413">
        <ele>267.9</ele>
        <time>2022-10-02T07:27:37Z</time>
      </trkpt>
      <trkpt lat="45.93865" lon="1.10405">
        <ele>268.1</ele>
        <time>2022-10-02T07:27:38Z</time>
      </trkpt>
      <trkpt lat="45.93869" lon="1.10399">
        <ele>268.3</ele>
        <time>2022-10-02T07:27:39Z</time>
      </trkpt>
      <trkpt lat="45.93873" lon="1.10393">
        <ele>268.4</ele>
        <time>2022-10-02T07:27:40Z</time>
      </trkpt>
      <trkpt lat="45.93877" lon="1.10389">
        <ele>268.6</ele>
        <time>2022-10-02T07:27:41Z</time>
      </trkpt>
      <trkpt lat="45.9388" lon="1.10384">
        <ele>268.7</ele>
        <time>2022-10-02T07:27:42Z</time>
      </trkpt>
      <trkpt lat="45.93885" lon="1.1038">
        <ele>268.7</ele>
        <time>2022-10-02T07:27:43Z</time>
      </trkpt>
      <trkpt lat="45.9389" lon="1.10386">
        <ele>268.5</ele>
        <time>2022-10-02T07:27:44Z</time>
      </trkpt>
      <trkpt lat="45.93896" lon="1.10385">
        <ele>268.4</ele>
        <time>2022-10-02T07:27:45Z</time>
      </trkpt>
      <trkpt lat="45.93901" lon="1.10387">
        <ele>268.3</ele>
        <time>2022-10-02T07:27:46Z</time>
      </trkpt>
      <trkpt lat="45.93907" lon="1.10391">
        <ele>268.2</ele>
        <time>2022-10-02T07:27:47Z</time>
      </trkpt>
      <trkpt lat="45.93912" lon="1.10393">
        <ele>268.1</ele>
        <time>2022-10-02T07:27:48Z</time>
      </trkpt>
      <trkpt lat="45.93918" lon="1.10396">
        <ele>268</ele>
        <time>2022-10-02T07:27:49Z</time>
      </trkpt>
      <trkpt lat="45.93925" lon="1.104">
        <ele>267.9</ele>
        <time>2022-10-02T07:27:50Z</time>
      </trkpt>
      <trkpt lat="45.93931" lon="1.10401">
        <ele>267.9</ele>
        <time>2022-10-02T07:27:51Z</time>
      </trkpt>
      <trkpt lat="45.93936" lon="1.104">
        <ele>267.8</ele>
        <time>2022-10-02T07:27:52Z</time>
      </trkpt>
      <trkpt lat="45.93941" lon="1.10397">
        <ele>267.8</ele>
        <time>2022-10-02T07:27:53Z</time>
      </trkpt>
      <trkpt lat="45.93945" lon="1.10394">
        <ele>267.8</ele>
        <time>2022-10-02T07:27:54Z</time>
      </trkpt>
      <trkpt lat="45.93951" lon="1.10391">
        <ele>267.8</ele>
        <time>2022-10-02T07:27:55Z</time>
      </trkpt>
      <trkpt lat="45.93956" lon="1.10388">
        <ele>267.8</ele>
        <time>2022-10-02T07:27:56Z</time>
      </trkpt>
      <trkpt lat="45.93961" lon="1.10384">
        <ele>267.8</ele>
        <time>2022-10-02T07:27:57Z</time>
      </trkpt>
      <trkpt lat="45.93966" lon="1.10382">
        <ele>267.8</ele>
        <time>2022-10-02T07:27:58Z</time>
      </trkpt>
      <trkpt lat="45.93971" lon="1.1038">
        <ele>267.9</ele>
        <time>2022-10-02T07:28:00Z</time>
      </trkpt>
      <trkpt lat="45.93977" lon="1.10378">
        <ele>267.9</ele>
        <time>2022-10-02T07:28:01Z</time>
      </trkpt>
      <trkpt lat="45.93982" lon="1.10376">
        <ele>268</ele>
        <time>2022-10-02T07:28:02Z</time>
      </trkpt>
      <trkpt lat="45.93988" lon="1.10374">
        <ele>268</ele>
        <time>2022-10-02T07:28:03Z</time>
      </trkpt>
      <trkpt lat="45.93994" lon="1.10372">
        <ele>268.1</ele>
        <time>2022-10-02T07:28:04Z</time>
      </trkpt>
      <trkpt lat="45.93999" lon="1.10371">
        <ele>268.2</ele>
        <time>2022-10-02T07:28:05Z</time>
      </trkpt>
      <trkpt lat="45.94004" lon="1.1037">
        <ele>268.2</ele>
        <time>2022-10-02T07:28:06Z</time>
      </trkpt>
      <trkpt lat="45.9401" lon="1.10368">
        <ele>268.3</ele>
        <time>2022-10-02T07:28:07Z</time>
      </trkpt>
      <trkpt lat="45.94015" lon="1.10366">
        <ele>268.4</ele>
        <time>2022-10-02T07:28:08Z</time>
      </trkpt>
      <trkpt lat="45.9402" lon="1.10363">
        <ele>268.5</ele>
        <time>2022-10-02T07:28:09Z</time>
      </trkpt>
      <trkpt lat="45.94026" lon="1.10361">
        <ele>268.6</ele>
        <time>2022-10-02T07:28:10Z</time>
      </trkpt>
      <trkpt lat="45.94031" lon="1.10359">
        <ele>268.7</ele>
        <time>2022-10-02T07:28:11Z</time>
      </trkpt>
      <trkpt lat="45.94036" lon="1.10356">
        <ele>268.8</ele>
        <time>2022-10-02T07:28:12Z</time>
      </trkpt>
      <trkpt lat="45.94042" lon="1.10354">
        <ele>268.9</ele>
        <time>2022-10-02T07:28:13Z</time>
      </trkpt>
      <trkpt lat="45.94048" lon="1.10352">
        <ele>269</ele>
        <time>2022-10-02T07:28:14Z</time>
      </trkpt>
      <trkpt lat="45.94053" lon="1.10353">
        <ele>269.1</ele>
        <time>2022-10-02T07:28:15Z</time>
      </trkpt>
      <trkpt lat="45.94059" lon="1.10352">
        <ele>269.1</ele>
        <time>2022-10-02T07:28:16Z</time>
      </trkpt>
      <trkpt lat="45.94064" lon="1.10351">
        <ele>269.2</ele>
        <time>2022-10-02T07:28:17Z</time>
      </trkpt>
      <trkpt lat="45.9407" lon="1.10349">
        <ele>269.2</ele>
        <time>2022-10-02T07:28:18Z</time>
      </trkpt>
      <trkpt lat="45.94075" lon="1.10348">
        <ele>269.3</ele>
        <time>2022-10-02T07:28:19Z</time>
      </trkpt>
      <trkpt lat="45.94081" lon="1.10347">
        <ele>269.3</ele>
        <time>2022-10-02T07:28:20Z</time>
      </trkpt>
      <trkpt lat="45.94086" lon="1.10346">
        <ele>269.3</ele>
        <time>2022-10-02T07:28:21Z</time>
      </trkpt>
      <trkpt lat="45.94092" lon="1.10346">
        <ele>269.2</ele>
        <time>2022-10-02T07:28:22Z</time>
      </trkpt>
      <trkpt lat="45.94097" lon="1.10345">
        <ele>269.2</ele>
        <time>2022-10-02T07:28:23Z</time>
      </trkpt>
      <trkpt lat="45.94103" lon="1.10344">
        <ele>269.1</ele>
        <time>2022-10-02T07:28:24Z</time>
      </trkpt>
      <trkpt lat="45.94108" lon="1.10346">
        <ele>269</ele>
        <time>2022-10-02T07:28:25Z</time>
      </trkpt>
      <trkpt lat="45.94115" lon="1.10343">
        <ele>268.9</ele>
        <time>2022-10-02T07:28:26Z</time>
      </trkpt>
      <trkpt lat="45.94119" lon="1.10347">
        <ele>268.8</ele>
        <time>2022-10-02T07:28:27Z</time>
      </trkpt>
      <trkpt lat="45.94124" lon="1.10345">
        <ele>268.7</ele>
        <time>2022-10-02T07:28:28Z</time>
      </trkpt>
      <trkpt lat="45.9413" lon="1.10344">
        <ele>268.7</ele>
        <time>2022-10-02T07:28:29Z</time>
      </trkpt>
      <trkpt lat="45.94135" lon="1.10343">
        <ele>268.6</ele>
        <time>2022-10-02T07:28:30Z</time>
      </trkpt>
      <trkpt lat="45.9414" lon="1.10342">
        <ele>268.6</ele>
        <time>2022-10-02T07:28:31Z</time>
      </trkpt>
      <trkpt lat="45.94145" lon="1.1034">
        <ele>268.5</ele>
        <time>2022-10-02T07:28:32Z</time>
      </trkpt>
      <trkpt lat="45.94151" lon="1.10337">
        <ele>268.5</ele>
        <time>2022-10-02T07:28:33Z</time>
      </trkpt>
      <trkpt lat="45.94156" lon="1.10334">
        <ele>268.4</ele>
        <time>2022-10-02T07:28:34Z</time>
      </trkpt>
      <trkpt lat="45.9416" lon="1.1033">
        <ele>268.3</ele>
        <time>2022-10-02T07:28:35Z</time>
      </trkpt>
      <trkpt lat="45.94166" lon="1.10324">
        <ele>268.3</ele>
        <time>2022-10-02T07:28:36Z</time>
      </trkpt>
      <trkpt lat="45.9417" lon="1.1032">
        <ele>268.3</ele>
        <time>2022-10-02T07:28:37Z</time>
      </trkpt>
      <trkpt lat="45.94174" lon="1.10314">
        <ele>268.2</ele>
        <time>2022-10-02T07:28:38Z</time>
      </trkpt>
      <trkpt lat="45.94179" lon="1.10308">
        <ele>268.2</ele>
        <time>2022-10-02T07:28:39Z</time>
      </trkpt>
      <trkpt lat="45.94183" lon="1.10304">
        <ele>268.2</ele>
        <time>2022-10-02T07:28:40Z</time>
      </trkpt>
      <trkpt lat="45.94187" lon="1.10301">
        <ele>268.2</ele>
        <time>2022-10-02T07:28:41Z</time>
      </trkpt>
      <trkpt lat="45.94191" lon="1.10295">
        <ele>268.3</ele>
        <time>2022-10-02T07:28:42Z</time>
      </trkpt>
      <trkpt lat="45.94194" lon="1.10292">
        <ele>268.3</ele>
        <time>2022-10-02T07:28:43Z</time>
      </trkpt>
      <trkpt lat="45.94198" lon="1.10287">
        <ele>268.3</ele>
        <time>2022-10-02T07:28:44Z</time>
      </trkpt>
      <trkpt lat="45.94202" lon="1.10282">
        <ele>268.3</ele>
        <time>2022-10-02T07:28:45Z</time>
      </trkpt>
      <trkpt lat="45.94207" lon="1.10275">
        <ele>268.4</ele>
        <time>2022-10-02T07:28:46Z</time>
      </trkpt>
      <trkpt lat="45.94214" lon="1.10271">
        <ele>268.4</ele>
        <time>2022-10-02T07:28:47Z</time>
      </trkpt>
      <trkpt lat="45.94219" lon="1.10267">
        <ele>268.5</ele>
        <time>2022-10-02T07:28:48Z</time>
      </trkpt>
      <trkpt lat="45.94224" lon="1.10262">
        <ele>268.5</ele>
        <time>2022-10-02T07:28:49Z</time>
      </trkpt>
      <trkpt lat="45.94229" lon="1.10257">
        <ele>268.6</ele>
        <time>2022-10-02T07:28:50Z</time>
      </trkpt>
      <trkpt lat="45.94234" lon="1.10253">
        <ele>268.6</ele>
        <time>2022-10-02T07:28:51Z</time>
      </trkpt>
      <trkpt lat="45.9424" lon="1.10248">
        <ele>268.6</ele>
        <time>2022-10-02T07:28:52Z</time>
      </trkpt>
      <trkpt lat="45.94247" lon="1.10248">
        <ele>268.7</ele>
        <time>2022-10-02T07:28:53Z</time>
      </trkpt>
      <trkpt lat="45.94251" lon="1.10246">
        <ele>268.7</ele>
        <time>2022-10-02T07:28:54Z</time>
      </trkpt>
      <trkpt lat="45.94257" lon="1.10246">
        <ele>268.8</ele>
        <time>2022-10-02T07:28:55Z</time>
      </trkpt>
      <trkpt lat="45.94262" lon="1.10242">
        <ele>268.8</ele>
        <time>2022-10-02T07:28:56Z</time>
      </trkpt>
      <trkpt lat="45.94267" lon="1.10238">
        <ele>268.9</ele>
        <time>2022-10-02T07:28:57Z</time>
      </trkpt>
      <trkpt lat="45.94273" lon="1.10238">
        <ele>269</ele>
        <time>2022-10-02T07:28:58Z</time>
      </trkpt>
      <trkpt lat="45.94279" lon="1.10237">
        <ele>269</ele>
        <time>2022-10-02T07:28:59Z</time>
      </trkpt>
      <trkpt lat="45.94284" lon="1.10238">
        <ele>269.1</ele>
        <time>2022-10-02T07:29:00Z</time>
      </trkpt>
      <trkpt lat="45.9429" lon="1.10238">
        <ele>269.3</ele>
        <time>2022-10-02T07:29:01Z</time>
      </trkpt>
      <trkpt lat="45.94294" lon="1.10237">
        <ele>269.4</ele>
        <time>2022-10-02T07:29:02Z</time>
      </trkpt>
      <trkpt lat="45.94301" lon="1.10235">
        <ele>269.6</ele>
        <time>2022-10-02T07:29:03Z</time>
      </trkpt>
      <trkpt lat="45.94304" lon="1.10234">
        <ele>269.7</ele>
        <time>2022-10-02T07:29:04Z</time>
      </trkpt>
      <trkpt lat="45.94309" lon="1.10231">
        <ele>269.7</ele>
        <time>2022-10-02T07:29:05Z</time>
      </trkpt>
      <trkpt lat="45.94313" lon="1.10228">
        <ele>269.8</ele>
        <time>2022-10-02T07:29:06Z</time>
      </trkpt>
      <trkpt lat="45.94316" lon="1.10222">
        <ele>269.8</ele>
        <time>2022-10-02T07:29:07Z</time>
      </trkpt>
      <trkpt lat="45.94321" lon="1.10217">
        <ele>269.9</ele>
        <time>2022-10-02T07:29:08Z</time>
      </trkpt>
      <trkpt lat="45.94325" lon="1.1021">
        <ele>270</ele>
        <time>2022-10-02T07:29:09Z</time>
      </trkpt>
      <trkpt lat="45.94329" lon="1.10204">
        <ele>270.2</ele>
        <time>2022-10-02T07:29:10Z</time>
      </trkpt>
      <trkpt lat="45.94333" lon="1.10199">
        <ele>270.3</ele>
        <time>2022-10-02T07:29:11Z</time>
      </trkpt>
      <trkpt lat="45.94337" lon="1.10196">
        <ele>270.4</ele>
        <time>2022-10-02T07:29:12Z</time>
      </trkpt>
      <trkpt lat="45.94343" lon="1.10193">
        <ele>270.5</ele>
        <time>2022-10-02T07:29:13Z</time>
      </trkpt>
      <trkpt lat="45.94348" lon="1.10192">
        <ele>270.7</ele>
        <time>2022-10-02T07:29:14Z</time>
      </trkpt>
      <trkpt lat="45.94353" lon="1.10192">
        <ele>270.8</ele>
        <time>2022-10-02T07:29:15Z</time>
      </trkpt>
      <trkpt lat="45.94359" lon="1.10194">
        <ele>270.9</ele>
        <time>2022-10-02T07:29:16Z</time>
      </trkpt>
      <trkpt lat="45.94364" lon="1.10194">
        <ele>271</ele>
        <time>2022-10-02T07:29:17Z</time>
      </trkpt>
      <trkpt lat="45.9437" lon="1.10193">
        <ele>271.1</ele>
        <time>2022-10-02T07:29:18Z</time>
      </trkpt>
      <trkpt lat="45.94376" lon="1.10193">
        <ele>271.2</ele>
        <time>2022-10-02T07:29:19Z</time>
      </trkpt>
      <trkpt lat="45.9438" lon="1.10195">
        <ele>271.3</ele>
        <time>2022-10-02T07:29:20Z</time>
      </trkpt>
      <trkpt lat="45.94386" lon="1.10194">
        <ele>271.4</ele>
        <time>2022-10-02T07:29:21Z</time>
      </trkpt>
      <trkpt lat="45.94391" lon="1.10195">
        <ele>271.5</ele>
        <time>2022-10-02T07:29:22Z</time>
      </trkpt>
      <trkpt lat="45.94397" lon="1.10197">
        <ele>271.6</ele>
        <time>2022-10-02T07:29:23Z</time>
      </trkpt>
      <trkpt lat="45.94403" lon="1.10199">
        <ele>271.7</ele>
        <time>2022-10-02T07:29:24Z</time>
      </trkpt>
      <trkpt lat="45.94408" lon="1.102">
        <ele>271.8</ele>
        <time>2022-10-02T07:29:25Z</time>
      </trkpt>
      <trkpt lat="45.94414" lon="1.10199">
        <ele>272</ele>
        <time>2022-10-02T07:29:26Z</time>
      </trkpt>
      <trkpt lat="45.94422" lon="1.102">
        <ele>272.1</ele>
        <time>2022-10-02T07:29:27Z</time>
      </trkpt>
      <trkpt lat="45.94428" lon="1.10201">
        <ele>272.3</ele>
        <time>2022-10-02T07:29:28Z</time>
      </trkpt>
      <trkpt lat="45.94434" lon="1.10202">
        <ele>272.4</ele>
        <time>2022-10-02T07:29:29Z</time>
      </trkpt>
      <trkpt lat="45.94438" lon="1.10202">
        <ele>272.5</ele>
        <time>2022-10-02T07:29:30Z</time>
      </trkpt>
      <trkpt lat="45.94444" lon="1.10202">
        <ele>272.6</ele>
        <time>2022-10-02T07:29:31Z</time>
      </trkpt>
      <trkpt lat="45.9445" lon="1.102">
        <ele>272.8</ele>
        <time>2022-10-02T07:29:32Z</time>
      </trkpt>
      <trkpt lat="45.94455" lon="1.102">
        <ele>272.9</ele>
        <time>2022-10-02T07:29:33Z</time>
      </trkpt>
      <trkpt lat="45.9446" lon="1.102">
        <ele>273</ele>
        <time>2022-10-02T07:29:34Z</time>
      </trkpt>
      <trkpt lat="45.94465" lon="1.10199">
        <ele>273.2</ele>
        <time>2022-10-02T07:29:35Z</time>
      </trkpt>
      <trkpt lat="45.94469" lon="1.10198">
        <ele>273.3</ele>
        <time>2022-10-02T07:29:36Z</time>
      </trkpt>
      <trkpt lat="45.94473" lon="1.10199">
        <ele>273.4</ele>
        <time>2022-10-02T07:29:37Z</time>
      </trkpt>
      <trkpt lat="45.94478" lon="1.10201">
        <ele>273.5</ele>
        <time>2022-10-02T07:29:38Z</time>
      </trkpt>
      <trkpt lat="45.94482" lon="1.10203">
        <ele>273.6</ele>
        <time>2022-10-02T07:29:39Z</time>
      </trkpt>
      <trkpt lat="45.94487" lon="1.10207">
        <ele>273.7</ele>
        <time>2022-10-02T07:29:40Z</time>
      </trkpt>
      <trkpt lat="45.94491" lon="1.10212">
        <ele>273.9</ele>
        <time>2022-10-02T07:29:41Z</time>
      </trkpt>
      <trkpt lat="45.94496" lon="1.10217">
        <ele>274</ele>
        <time>2022-10-02T07:29:42Z</time>
      </trkpt>
      <trkpt lat="45.945" lon="1.10223">
        <ele>274.1</ele>
        <time>2022-10-02T07:29:43Z</time>
      </trkpt>
      <trkpt lat="45.94505" lon="1.10229">
        <ele>274.3</ele>
        <time>2022-10-02T07:29:44Z</time>
      </trkpt>
      <trkpt lat="45.94509" lon="1.10236">
        <ele>274.5</ele>
        <time>2022-10-02T07:29:45Z</time>
      </trkpt>
      <trkpt lat="45.94513" lon="1.10242">
        <ele>274.7</ele>
        <time>2022-10-02T07:29:46Z</time>
      </trkpt>
      <trkpt lat="45.94518" lon="1.10248">
        <ele>274.8</ele>
        <time>2022-10-02T07:29:47Z</time>
      </trkpt>
      <trkpt lat="45.94523" lon="1.10255">
        <ele>275</ele>
        <time>2022-10-02T07:29:48Z</time>
      </trkpt>
      <trkpt lat="45.94528" lon="1.1026">
        <ele>275.2</ele>
        <time>2022-10-02T07:29:49Z</time>
      </trkpt>
      <trkpt lat="45.94533" lon="1.10265">
        <ele>275.4</ele>
        <time>2022-10-02T07:29:50Z</time>
      </trkpt>
      <trkpt lat="45.94538" lon="1.10271">
        <ele>275.6</ele>
        <time>2022-10-02T07:29:51Z</time>
      </trkpt>
      <trkpt lat="45.94543" lon="1.10276">
        <ele>275.7</ele>
        <time>2022-10-02T07:29:52Z</time>
      </trkpt>
      <trkpt lat="45.94548" lon="1.10281">
        <ele>275.9</ele>
        <time>2022-10-02T07:29:53Z</time>
      </trkpt>
      <trkpt lat="45.94552" lon="1.10283">
        <ele>276</ele>
        <time>2022-10-02T07:29:54Z</time>
      </trkpt>
      <trkpt lat="45.94559" lon="1.10284">
        <ele>276.3</ele>
        <time>2022-10-02T07:29:55Z</time>
      </trkpt>
      <trkpt lat="45.94564" lon="1.10286">
        <ele>276.4</ele>
        <time>2022-10-02T07:29:56Z</time>
      </trkpt>
      <trkpt lat="45.94569" lon="1.10288">
        <ele>276.6</ele>
        <time>2022-10-02T07:29:57Z</time>
      </trkpt>
      <trkpt lat="45.94573" lon="1.10288">
        <ele>276.7</ele>
        <time>2022-10-02T07:29:58Z</time>
      </trkpt>
      <trkpt lat="45.94581" lon="1.10292">
        <ele>276.9</ele>
        <time>2022-10-02T07:29:59Z</time>
      </trkpt>
      <trkpt lat="45.94586" lon="1.10295">
        <ele>277.1</ele>
        <time>2022-10-02T07:30:00Z</time>
      </trkpt>
      <trkpt lat="45.94592" lon="1.10299">
        <ele>277.2</ele>
        <time>2022-10-02T07:30:01Z</time>
      </trkpt>
      <trkpt lat="45.94597" lon="1.10304">
        <ele>277.3</ele>
        <time>2022-10-02T07:30:02Z</time>
      </trkpt>
      <trkpt lat="45.94602" lon="1.10308">
        <ele>277.5</ele>
        <time>2022-10-02T07:30:03Z</time>
      </trkpt>
      <trkpt lat="45.94607" lon="1.10313">
        <ele>277.6</ele>
        <time>2022-10-02T07:30:04Z</time>
      </trkpt>
      <trkpt lat="45.94613" lon="1.10317">
        <ele>277.8</ele>
        <time>2022-10-02T07:30:05Z</time>
      </trkpt>
      <trkpt lat="45.94616" lon="1.10322">
        <ele>277.9</ele>
        <time>2022-10-02T07:30:06Z</time>
      </trkpt>
      <trkpt lat="45.94621" lon="1.10326">
        <ele>278</ele>
        <time>2022-10-02T07:30:07Z</time>
      </trkpt>
      <trkpt lat="45.94627" lon="1.10329">
        <ele>278.1</ele>
        <time>2022-10-02T07:30:08Z</time>
      </trkpt>
      <trkpt lat="45.94629" lon="1.10331">
        <ele>278.2</ele>
        <time>2022-10-02T07:30:09Z</time>
      </trkpt>
      <trkpt lat="45.94635" lon="1.10334">
        <ele>278.3</ele>
        <time>2022-10-02T07:30:10Z</time>
      </trkpt>
      <trkpt lat="45.94638" lon="1.10338">
        <ele>278.4</ele>
        <time>2022-10-02T07:30:11Z</time>
      </trkpt>
      <trkpt lat="45.94644" lon="1.1034">
        <ele>278.5</ele>
        <time>2022-10-02T07:30:12Z</time>
      </trkpt>
      <trkpt lat="45.94649" lon="1.10344">
        <ele>278.7</ele>
        <time>2022-10-02T07:30:13Z</time>
      </trkpt>
      <trkpt lat="45.94648" lon="1.10346">
        <ele>278.7</ele>
        <time>2022-10-02T07:30:14Z</time>
      </trkpt>
      <trkpt lat="45.94653" lon="1.10352">
        <ele>278.9</ele>
        <time>2022-10-02T07:30:15Z</time>
      </trkpt>
      <trkpt lat="45.94655" lon="1.10355">
        <ele>279.1</ele>
        <time>2022-10-02T07:30:16Z</time>
      </trkpt>
      <trkpt lat="45.94659" lon="1.10355">
        <ele>279.2</ele>
        <time>2022-10-02T07:30:17Z</time>
      </trkpt>
      <trkpt lat="45.94661" lon="1.10358">
        <ele>279.3</ele>
        <time>2022-10-02T07:30:18Z</time>
      </trkpt>
      <trkpt lat="45.94664" lon="1.10362">
        <ele>279.5</ele>
        <time>2022-10-02T07:30:19Z</time>
      </trkpt>
      <trkpt lat="45.94668" lon="1.10366">
        <ele>279.7</ele>
        <time>2022-10-02T07:30:20Z</time>
      </trkpt>
      <trkpt lat="45.94671" lon="1.10369">
        <ele>279.8</ele>
        <time>2022-10-02T07:30:21Z</time>
      </trkpt>
      <trkpt lat="45.94675" lon="1.10371">
        <ele>280</ele>
        <time>2022-10-02T07:30:22Z</time>
      </trkpt>
      <trkpt lat="45.94679" lon="1.10373">
        <ele>280.2</ele>
        <time>2022-10-02T07:30:23Z</time>
      </trkpt>
      <trkpt lat="45.94684" lon="1.10375">
        <ele>280.4</ele>
        <time>2022-10-02T07:30:24Z</time>
      </trkpt>
      <trkpt lat="45.94688" lon="1.10377">
        <ele>280.5</ele>
        <time>2022-10-02T07:30:25Z</time>
      </trkpt>
      <trkpt lat="45.94691" lon="1.10378">
        <ele>280.6</ele>
        <time>2022-10-02T07:30:26Z</time>
      </trkpt>
      <trkpt lat="45.94695" lon="1.10379">
        <ele>280.8</ele>
        <time>2022-10-02T07:30:27Z</time>
      </trkpt>
      <trkpt lat="45.94699" lon="1.10381">
        <ele>281</ele>
        <time>2022-10-02T07:30:28Z</time>
      </trkpt>
      <trkpt lat="45.94702" lon="1.10383">
        <ele>281.1</ele>
        <time>2022-10-02T07:30:29Z</time>
      </trkpt>
      <trkpt lat="45.94705" lon="1.10385">
        <ele>281.2</ele>
        <time>2022-10-02T07:30:30Z</time>
      </trkpt>
      <trkpt lat="45.94707" lon="1.10387">
        <ele>281.3</ele>
        <time>2022-10-02T07:30:31Z</time>
      </trkpt>
      <trkpt lat="45.9471" lon="1.10388">
        <ele>281.5</ele>
        <time>2022-10-02T07:30:32Z</time>
      </trkpt>
      <trkpt lat="45.94713" lon="1.1039">
        <ele>281.6</ele>
        <time>2022-10-02T07:30:33Z</time>
      </trkpt>
      <trkpt lat="45.94716" lon="1.10392">
        <ele>281.8</ele>
        <time>2022-10-02T07:30:34Z</time>
      </trkpt>
      <trkpt lat="45.94719" lon="1.10394">
        <ele>281.9</ele>
        <time>2022-10-02T07:30:35Z</time>
      </trkpt>
      <trkpt lat="45.94722" lon="1.10396">
        <ele>282</ele>
        <time>2022-10-02T07:30:36Z</time>
      </trkpt>
      <trkpt lat="45.94725" lon="1.10398">
        <ele>282.2</ele>
        <time>2022-10-02T07:30:37Z</time>
      </trkpt>
      <trkpt lat="45.94728" lon="1.104">
        <ele>282.3</ele>
        <time>2022-10-02T07:30:38Z</time>
      </trkpt>
      <trkpt lat="45.94733" lon="1.10402">
        <ele>282.6</ele>
        <time>2022-10-02T07:30:39Z</time>
      </trkpt>
      <trkpt lat="45.94737" lon="1.10405">
        <ele>282.7</ele>
        <time>2022-10-02T07:30:40Z</time>
      </trkpt>
      <trkpt lat="45.94741" lon="1.10408">
        <ele>282.9</ele>
        <time>2022-10-02T07:30:41Z</time>
      </trkpt>
      <trkpt lat="45.94746" lon="1.10412">
        <ele>283.1</ele>
        <time>2022-10-02T07:30:42Z</time>
      </trkpt>
      <trkpt lat="45.94749" lon="1.10415">
        <ele>283.3</ele>
        <time>2022-10-02T07:30:43Z</time>
      </trkpt>
      <trkpt lat="45.94753" lon="1.10417">
        <ele>283.5</ele>
        <time>2022-10-02T07:30:44Z</time>
      </trkpt>
      <trkpt lat="45.94758" lon="1.10421">
        <ele>283.7</ele>
        <time>2022-10-02T07:30:45Z</time>
      </trkpt>
      <trkpt lat="45.94761" lon="1.10423">
        <ele>283.8</ele>
        <time>2022-10-02T07:30:46Z</time>
      </trkpt>
      <trkpt lat="45.94766" lon="1.10425">
        <ele>284</ele>
        <time>2022-10-02T07:30:47Z</time>
      </trkpt>
      <trkpt lat="45.94769" lon="1.10427">
        <ele>284.2</ele>
        <time>2022-10-02T07:30:48Z</time>
      </trkpt>
      <trkpt lat="45.94773" lon="1.1043">
        <ele>284.4</ele>
        <time>2022-10-02T07:30:49Z</time>
      </trkpt>
      <trkpt lat="45.94776" lon="1.10432">
        <ele>284.6</ele>
        <time>2022-10-02T07:30:50Z</time>
      </trkpt>
      <trkpt lat="45.94781" lon="1.10436">
        <ele>284.8</ele>
        <time>2022-10-02T07:30:51Z</time>
      </trkpt>
      <trkpt lat="45.94786" lon="1.10439">
        <ele>285.1</ele>
        <time>2022-10-02T07:30:52Z</time>
      </trkpt>
      <trkpt lat="45.94792" lon="1.10444">
        <ele>285.5</ele>
        <time>2022-10-02T07:30:53Z</time>
      </trkpt>
      <trkpt lat="45.94797" lon="1.10447">
        <ele>285.7</ele>
        <time>2022-10-02T07:30:54Z</time>
      </trkpt>
      <trkpt lat="45.94801" lon="1.1045">
        <ele>286</ele>
        <time>2022-10-02T07:30:55Z</time>
      </trkpt>
      <trkpt lat="45.94807" lon="1.10453">
        <ele>286.3</ele>
        <time>2022-10-02T07:30:56Z</time>
      </trkpt>
      <trkpt lat="45.94812" lon="1.10456">
        <ele>286.6</ele>
        <time>2022-10-02T07:30:57Z</time>
      </trkpt>
      <trkpt lat="45.94816" lon="1.10459">
        <ele>286.8</ele>
        <time>2022-10-02T07:30:58Z</time>
      </trkpt>
      <trkpt lat="45.94821" lon="1.10462">
        <ele>287.1</ele>
        <time>2022-10-02T07:30:59Z</time>
      </trkpt>
      <trkpt lat="45.94824" lon="1.10465">
        <ele>287.2</ele>
        <time>2022-10-02T07:31:00Z</time>
      </trkpt>
      <trkpt lat="45.94827" lon="1.10466">
        <ele>287.3</ele>
        <time>2022-10-02T07:31:01Z</time>
      </trkpt>
      <trkpt lat="45.9483" lon="1.10466">
        <ele>287.5</ele>
        <time>2022-10-02T07:31:02Z</time>
      </trkpt>
      <trkpt lat="45.94833" lon="1.10463">
        <ele>287.5</ele>
        <time>2022-10-02T07:31:03Z</time>
      </trkpt>
      <trkpt lat="45.94835" lon="1.10458">
        <ele>287.6</ele>
        <time>2022-10-02T07:31:04Z</time>
      </trkpt>
      <trkpt lat="45.94837" lon="1.10453">
        <ele>287.7</ele>
        <time>2022-10-02T07:31:05Z</time>
      </trkpt>
      <trkpt lat="45.9484" lon="1.10446">
        <ele>287.8</ele>
        <time>2022-10-02T07:31:06Z</time>
      </trkpt>
      <trkpt lat="45.94843" lon="1.1044">
        <ele>288</ele>
        <time>2022-10-02T07:31:07Z</time>
      </trkpt>
      <trkpt lat="45.94846" lon="1.10432">
        <ele>288.2</ele>
        <time>2022-10-02T07:31:08Z</time>
      </trkpt>
      <trkpt lat="45.94849" lon="1.10425">
        <ele>288.3</ele>
        <time>2022-10-02T07:31:09Z</time>
      </trkpt>
      <trkpt lat="45.94853" lon="1.10418">
        <ele>288.4</ele>
        <time>2022-10-02T07:31:10Z</time>
      </trkpt>
      <trkpt lat="45.94856" lon="1.10412">
        <ele>288.5</ele>
        <time>2022-10-02T07:31:11Z</time>
      </trkpt>
      <trkpt lat="45.94859" lon="1.10406">
        <ele>288.5</ele>
        <time>2022-10-02T07:31:12Z</time>
      </trkpt>
      <trkpt lat="45.94863" lon="1.104">
        <ele>288.4</ele>
        <time>2022-10-02T07:31:13Z</time>
      </trkpt>
      <trkpt lat="45.94865" lon="1.10394">
        <ele>288.3</ele>
        <time>2022-10-02T07:31:14Z</time>
      </trkpt>
      <trkpt lat="45.94869" lon="1.10387">
        <ele>288.1</ele>
        <time>2022-10-02T07:31:15Z</time>
      </trkpt>
      <trkpt lat="45.94872" lon="1.10379">
        <ele>287.8</ele>
        <time>2022-10-02T07:31:16Z</time>
      </trkpt>
      <trkpt lat="45.94877" lon="1.10371">
        <ele>287.4</ele>
        <time>2022-10-02T07:31:17Z</time>
      </trkpt>
      <trkpt lat="45.94881" lon="1.10362">
        <ele>287</ele>
        <time>2022-10-02T07:31:18Z</time>
      </trkpt>
      <trkpt lat="45.94885" lon="1.10353">
        <ele>286.5</ele>
        <time>2022-10-02T07:31:19Z</time>
      </trkpt>
      <trkpt lat="45.94889" lon="1.10344">
        <ele>286.1</ele>
        <time>2022-10-02T07:31:20Z</time>
      </trkpt>
      <trkpt lat="45.94892" lon="1.10335">
        <ele>285.6</ele>
        <time>2022-10-02T07:31:21Z</time>
      </trkpt>
      <trkpt lat="45.94896" lon="1.10324">
        <ele>285.1</ele>
        <time>2022-10-02T07:31:22Z</time>
      </trkpt>
      <trkpt lat="45.949" lon="1.10314">
        <ele>284.6</ele>
        <time>2022-10-02T07:31:23Z</time>
      </trkpt>
      <trkpt lat="45.94904" lon="1.10304">
        <ele>284.1</ele>
        <time>2022-10-02T07:31:24Z</time>
      </trkpt>
      <trkpt lat="45.94908" lon="1.10294">
        <ele>283.6</ele>
        <time>2022-10-02T07:31:25Z</time>
      </trkpt>
      <trkpt lat="45.94911" lon="1.10283">
        <ele>283.2</ele>
        <time>2022-10-02T07:31:26Z</time>
      </trkpt>
      <trkpt lat="45.94915" lon="1.10273">
        <ele>282.8</ele>
        <time>2022-10-02T07:31:27Z</time>
      </trkpt>
      <trkpt lat="45.94919" lon="1.10264">
        <ele>282.6</ele>
        <time>2022-10-02T07:31:28Z</time>
      </trkpt>
      <trkpt lat="45.94923" lon="1.10255">
        <ele>282.4</ele>
        <time>2022-10-02T07:31:29Z</time>
      </trkpt>
      <trkpt lat="45.94927" lon="1.10245">
        <ele>282.3</ele>
        <time>2022-10-02T07:31:30Z</time>
      </trkpt>
      <trkpt lat="45.94931" lon="1.10238">
        <ele>282.2</ele>
        <time>2022-10-02T07:31:31Z</time>
      </trkpt>
      <trkpt lat="45.94935" lon="1.10229">
        <ele>282.2</ele>
        <time>2022-10-02T07:31:32Z</time>
      </trkpt>
      <trkpt lat="45.94939" lon="1.1022">
        <ele>282.1</ele>
        <time>2022-10-02T07:31:33Z</time>
      </trkpt>
      <trkpt lat="45.94943" lon="1.1021">
        <ele>282.1</ele>
        <time>2022-10-02T07:31:34Z</time>
      </trkpt>
      <trkpt lat="45.94947" lon="1.10203">
        <ele>282.2</ele>
        <time>2022-10-02T07:31:35Z</time>
      </trkpt>
      <trkpt lat="45.94952" lon="1.10195">
        <ele>282.2</ele>
        <time>2022-10-02T07:31:36Z</time>
      </trkpt>
      <trkpt lat="45.94957" lon="1.10189">
        <ele>282.3</ele>
        <time>2022-10-02T07:31:37Z</time>
      </trkpt>
      <trkpt lat="45.94961" lon="1.10182">
        <ele>282.5</ele>
        <time>2022-10-02T07:31:38Z</time>
      </trkpt>
      <trkpt lat="45.94964" lon="1.10174">
        <ele>282.6</ele>
        <time>2022-10-02T07:31:39Z</time>
      </trkpt>
      <trkpt lat="45.94967" lon="1.10167">
        <ele>282.8</ele>
        <time>2022-10-02T07:31:40Z</time>
      </trkpt>
      <trkpt lat="45.9497" lon="1.1016">
        <ele>283</ele>
        <time>2022-10-02T07:31:41Z</time>
      </trkpt>
      <trkpt lat="45.94971" lon="1.10152">
        <ele>283.2</ele>
        <time>2022-10-02T07:31:42Z</time>
      </trkpt>
      <trkpt lat="45.9497" lon="1.10143">
        <ele>283.4</ele>
        <time>2022-10-02T07:31:43Z</time>
      </trkpt>
      <trkpt lat="45.94968" lon="1.10135">
        <ele>283.6</ele>
        <time>2022-10-02T07:31:44Z</time>
      </trkpt>
      <trkpt lat="45.94966" lon="1.10127">
        <ele>283.7</ele>
        <time>2022-10-02T07:31:45Z</time>
      </trkpt>
      <trkpt lat="45.94963" lon="1.1012">
        <ele>283.7</ele>
        <time>2022-10-02T07:31:46Z</time>
      </trkpt>
      <trkpt lat="45.94961" lon="1.10113">
        <ele>283.7</ele>
        <time>2022-10-02T07:31:47Z</time>
      </trkpt>
      <trkpt lat="45.94959" lon="1.10103">
        <ele>283.6</ele>
        <time>2022-10-02T07:31:48Z</time>
      </trkpt>
      <trkpt lat="45.94955" lon="1.10095">
        <ele>283.3</ele>
        <time>2022-10-02T07:31:49Z</time>
      </trkpt>
      <trkpt lat="45.94954" lon="1.10085">
        <ele>283</ele>
        <time>2022-10-02T07:31:50Z</time>
      </trkpt>
      <trkpt lat="45.94956" lon="1.10073">
        <ele>282.2</ele>
        <time>2022-10-02T07:31:51Z</time>
      </trkpt>
      <trkpt lat="45.94958" lon="1.10062">
        <ele>281.4</ele>
        <time>2022-10-02T07:31:52Z</time>
      </trkpt>
      <trkpt lat="45.9496" lon="1.10051">
        <ele>280.7</ele>
        <time>2022-10-02T07:31:53Z</time>
      </trkpt>
      <trkpt lat="45.94962" lon="1.10039">
        <ele>279.8</ele>
        <time>2022-10-02T07:31:54Z</time>
      </trkpt>
      <trkpt lat="45.94967" lon="1.10029">
        <ele>278.8</ele>
        <time>2022-10-02T07:31:55Z</time>
      </trkpt>
      <trkpt lat="45.94971" lon="1.10018">
        <ele>277.9</ele>
        <time>2022-10-02T07:31:56Z</time>
      </trkpt>
      <trkpt lat="45.94976" lon="1.10006">
        <ele>276.7</ele>
        <time>2022-10-02T07:31:57Z</time>
      </trkpt>
      <trkpt lat="45.94981" lon="1.09996">
        <ele>275.7</ele>
        <time>2022-10-02T07:31:58Z</time>
      </trkpt>
      <trkpt lat="45.94985" lon="1.09986">
        <ele>274.7</ele>
        <time>2022-10-02T07:31:59Z</time>
      </trkpt>
      <trkpt lat="45.94991" lon="1.09974">
        <ele>273.5</ele>
        <time>2022-10-02T07:32:00Z</time>
      </trkpt>
      <trkpt lat="45.94997" lon="1.09963">
        <ele>272.5</ele>
        <time>2022-10-02T07:32:01Z</time>
      </trkpt>
      <trkpt lat="45.95005" lon="1.09955">
        <ele>271.5</ele>
        <time>2022-10-02T07:32:02Z</time>
      </trkpt>
      <trkpt lat="45.95012" lon="1.09946">
        <ele>271.2</ele>
        <time>2022-10-02T07:32:03Z</time>
      </trkpt>
      <trkpt lat="45.95019" lon="1.09937">
        <ele>271</ele>
        <time>2022-10-02T07:32:04Z</time>
      </trkpt>
      <trkpt lat="45.95025" lon="1.0993">
        <ele>270.8</ele>
        <time>2022-10-02T07:32:05Z</time>
      </trkpt>
      <trkpt lat="45.95031" lon="1.09924">
        <ele>270.7</ele>
        <time>2022-10-02T07:32:06Z</time>
      </trkpt>
      <trkpt lat="45.95036" lon="1.0992">
        <ele>270.8</ele>
        <time>2022-10-02T07:32:07Z</time>
      </trkpt>
      <trkpt lat="45.95042" lon="1.09915">
        <ele>270.5</ele>
        <time>2022-10-02T07:32:08Z</time>
      </trkpt>
      <trkpt lat="45.95046" lon="1.0991">
        <ele>270.4</ele>
        <time>2022-10-02T07:32:09Z</time>
      </trkpt>
      <trkpt lat="45.95053" lon="1.09903">
        <ele>270.2</ele>
        <time>2022-10-02T07:32:10Z</time>
      </trkpt>
      <trkpt lat="45.95059" lon="1.09899">
        <ele>270.2</ele>
        <time>2022-10-02T07:32:11Z</time>
      </trkpt>
      <trkpt lat="45.95064" lon="1.09898">
        <ele>270.2</ele>
        <time>2022-10-02T07:32:12Z</time>
      </trkpt>
      <trkpt lat="45.95069" lon="1.09895">
        <ele>270.1</ele>
        <time>2022-10-02T07:32:13Z</time>
      </trkpt>
      <trkpt lat="45.95075" lon="1.09891">
        <ele>270.1</ele>
        <time>2022-10-02T07:32:14Z</time>
      </trkpt>
      <trkpt lat="45.95081" lon="1.09888">
        <ele>270.2</ele>
        <time>2022-10-02T07:32:15Z</time>
      </trkpt>
      <trkpt lat="45.95087" lon="1.09882">
        <ele>270.2</ele>
        <time>2022-10-02T07:32:16Z</time>
      </trkpt>
      <trkpt lat="45.9509" lon="1.09882">
        <ele>270.3</ele>
        <time>2022-10-02T07:32:17Z</time>
      </trkpt>
      <trkpt lat="45.95095" lon="1.09876">
        <ele>270.4</ele>
        <time>2022-10-02T07:32:18Z</time>
      </trkpt>
      <trkpt lat="45.95101" lon="1.09872">
        <ele>270.5</ele>
        <time>2022-10-02T07:32:19Z</time>
      </trkpt>
      <trkpt lat="45.95106" lon="1.09869">
        <ele>270.6</ele>
        <time>2022-10-02T07:32:20Z</time>
      </trkpt>
      <trkpt lat="45.9511" lon="1.09867">
        <ele>270.6</ele>
        <time>2022-10-02T07:32:21Z</time>
      </trkpt>
      <trkpt lat="45.95115" lon="1.09863">
        <ele>270.7</ele>
        <time>2022-10-02T07:32:22Z</time>
      </trkpt>
      <trkpt lat="45.95119" lon="1.09864">
        <ele>270.9</ele>
        <time>2022-10-02T07:32:23Z</time>
      </trkpt>
      <trkpt lat="45.95124" lon="1.09863">
        <ele>271</ele>
        <time>2022-10-02T07:32:24Z</time>
      </trkpt>
      <trkpt lat="45.95131" lon="1.09863">
        <ele>271.2</ele>
        <time>2022-10-02T07:32:25Z</time>
      </trkpt>
      <trkpt lat="45.95136" lon="1.09862">
        <ele>271.3</ele>
        <time>2022-10-02T07:32:26Z</time>
      </trkpt>
      <trkpt lat="45.95143" lon="1.09861">
        <ele>271.5</ele>
        <time>2022-10-02T07:32:27Z</time>
      </trkpt>
      <trkpt lat="45.95149" lon="1.09857">
        <ele>271.7</ele>
        <time>2022-10-02T07:32:28Z</time>
      </trkpt>
      <trkpt lat="45.95154" lon="1.09855">
        <ele>271.9</ele>
        <time>2022-10-02T07:32:29Z</time>
      </trkpt>
      <trkpt lat="45.95158" lon="1.09854">
        <ele>272</ele>
        <time>2022-10-02T07:32:30Z</time>
      </trkpt>
      <trkpt lat="45.95163" lon="1.09853">
        <ele>272.2</ele>
        <time>2022-10-02T07:32:31Z</time>
      </trkpt>
      <trkpt lat="45.9517" lon="1.09851">
        <ele>272.6</ele>
        <time>2022-10-02T07:32:32Z</time>
      </trkpt>
      <trkpt lat="45.95176" lon="1.09848">
        <ele>272.9</ele>
        <time>2022-10-02T07:32:33Z</time>
      </trkpt>
      <trkpt lat="45.95181" lon="1.09847">
        <ele>273.3</ele>
        <time>2022-10-02T07:32:34Z</time>
      </trkpt>
      <trkpt lat="45.95186" lon="1.09847">
        <ele>273.6</ele>
        <time>2022-10-02T07:32:35Z</time>
      </trkpt>
      <trkpt lat="45.95191" lon="1.09848">
        <ele>273.9</ele>
        <time>2022-10-02T07:32:36Z</time>
      </trkpt>
      <trkpt lat="45.95197" lon="1.09848">
        <ele>274.3</ele>
        <time>2022-10-02T07:32:37Z</time>
      </trkpt>
      <trkpt lat="45.95203" lon="1.09848">
        <ele>274.7</ele>
        <time>2022-10-02T07:32:38Z</time>
      </trkpt>
      <trkpt lat="45.95208" lon="1.09849">
        <ele>275</ele>
        <time>2022-10-02T07:32:39Z</time>
      </trkpt>
      <trkpt lat="45.95215" lon="1.09847">
        <ele>275.4</ele>
        <time>2022-10-02T07:32:40Z</time>
      </trkpt>
      <trkpt lat="45.95218" lon="1.09848">
        <ele>275.6</ele>
        <time>2022-10-02T07:32:41Z</time>
      </trkpt>
      <trkpt lat="45.95224" lon="1.09847">
        <ele>275.9</ele>
        <time>2022-10-02T07:32:42Z</time>
      </trkpt>
      <trkpt lat="45.95229" lon="1.09846">
        <ele>276.1</ele>
        <time>2022-10-02T07:32:43Z</time>
      </trkpt>
      <trkpt lat="45.95234" lon="1.09845">
        <ele>276.4</ele>
        <time>2022-10-02T07:32:44Z</time>
      </trkpt>
      <trkpt lat="45.95239" lon="1.09843">
        <ele>276.6</ele>
        <time>2022-10-02T07:32:45Z</time>
      </trkpt>
      <trkpt lat="45.95244" lon="1.09838">
        <ele>276.8</ele>
        <time>2022-10-02T07:32:46Z</time>
      </trkpt>
      <trkpt lat="45.95249" lon="1.09835">
        <ele>277</ele>
        <time>2022-10-02T07:32:47Z</time>
      </trkpt>
      <trkpt lat="45.95252" lon="1.0983">
        <ele>277.1</ele>
        <time>2022-10-02T07:32:48Z</time>
      </trkpt>
      <trkpt lat="45.95254" lon="1.09825">
        <ele>277.2</ele>
        <time>2022-10-02T07:32:49Z</time>
      </trkpt>
      <trkpt lat="45.95256" lon="1.09818">
        <ele>277.4</ele>
        <time>2022-10-02T07:32:50Z</time>
      </trkpt>
      <trkpt lat="45.95258" lon="1.09809">
        <ele>277.5</ele>
        <time>2022-10-02T07:32:51Z</time>
      </trkpt>
      <trkpt lat="45.9526" lon="1.09801">
        <ele>277.6</ele>
        <time>2022-10-02T07:32:52Z</time>
      </trkpt>
      <trkpt lat="45.95262" lon="1.09791">
        <ele>277.7</ele>
        <time>2022-10-02T07:32:53Z</time>
      </trkpt>
      <trkpt lat="45.95265" lon="1.09785">
        <ele>277.7</ele>
        <time>2022-10-02T07:32:54Z</time>
      </trkpt>
      <trkpt lat="45.95266" lon="1.09777">
        <ele>277.8</ele>
        <time>2022-10-02T07:32:55Z</time>
      </trkpt>
      <trkpt lat="45.95268" lon="1.09769">
        <ele>277.9</ele>
        <time>2022-10-02T07:32:56Z</time>
      </trkpt>
      <trkpt lat="45.9527" lon="1.09763">
        <ele>278</ele>
        <time>2022-10-02T07:32:57Z</time>
      </trkpt>
      <trkpt lat="45.95272" lon="1.09754">
        <ele>278.1</ele>
        <time>2022-10-02T07:32:58Z</time>
      </trkpt>
      <trkpt lat="45.95273" lon="1.09747">
        <ele>278.2</ele>
        <time>2022-10-02T07:32:59Z</time>
      </trkpt>
      <trkpt lat="45.95276" lon="1.09739">
        <ele>278.3</ele>
        <time>2022-10-02T07:33:00Z</time>
      </trkpt>
      <trkpt lat="45.95276" lon="1.09732">
        <ele>278.4</ele>
        <time>2022-10-02T07:33:01Z</time>
      </trkpt>
      <trkpt lat="45.95277" lon="1.09726">
        <ele>278.5</ele>
        <time>2022-10-02T07:33:02Z</time>
      </trkpt>
      <trkpt lat="45.95277" lon="1.0972">
        <ele>278.6</ele>
        <time>2022-10-02T07:33:03Z</time>
      </trkpt>
      <trkpt lat="45.95278" lon="1.09713">
        <ele>278.8</ele>
        <time>2022-10-02T07:33:04Z</time>
      </trkpt>
      <trkpt lat="45.95279" lon="1.09708">
        <ele>278.9</ele>
        <time>2022-10-02T07:33:05Z</time>
      </trkpt>
      <trkpt lat="45.95278" lon="1.09703">
        <ele>279</ele>
        <time>2022-10-02T07:33:06Z</time>
      </trkpt>
      <trkpt lat="45.95278" lon="1.09699">
        <ele>279.1</ele>
        <time>2022-10-02T07:33:07Z</time>
      </trkpt>
      <trkpt lat="45.9528" lon="1.09693">
        <ele>279.4</ele>
        <time>2022-10-02T07:33:08Z</time>
      </trkpt>
      <trkpt lat="45.9528" lon="1.09688">
        <ele>279.5</ele>
        <time>2022-10-02T07:33:09Z</time>
      </trkpt>
      <trkpt lat="45.95282" lon="1.09683">
        <ele>279.8</ele>
        <time>2022-10-02T07:33:10Z</time>
      </trkpt>
      <trkpt lat="45.95283" lon="1.09678">
        <ele>280</ele>
        <time>2022-10-02T07:33:11Z</time>
      </trkpt>
      <trkpt lat="45.95283" lon="1.09672">
        <ele>280.3</ele>
        <time>2022-10-02T07:33:12Z</time>
      </trkpt>
      <trkpt lat="45.95284" lon="1.09666">
        <ele>280.6</ele>
        <time>2022-10-02T07:33:13Z</time>
      </trkpt>
      <trkpt lat="45.95285" lon="1.09659">
        <ele>281</ele>
        <time>2022-10-02T07:33:14Z</time>
      </trkpt>
      <trkpt lat="45.95288" lon="1.09653">
        <ele>281.4</ele>
        <time>2022-10-02T07:33:15Z</time>
      </trkpt>
      <trkpt lat="45.9529" lon="1.09646">
        <ele>281.8</ele>
        <time>2022-10-02T07:33:16Z</time>
      </trkpt>
      <trkpt lat="45.95292" lon="1.09639">
        <ele>282.1</ele>
        <time>2022-10-02T07:33:17Z</time>
      </trkpt>
      <trkpt lat="45.95295" lon="1.09636">
        <ele>282.4</ele>
        <time>2022-10-02T07:33:18Z</time>
      </trkpt>
      <trkpt lat="45.95299" lon="1.09633">
        <ele>282.7</ele>
        <time>2022-10-02T07:33:19Z</time>
      </trkpt>
      <trkpt lat="45.95303" lon="1.09634">
        <ele>282.9</ele>
        <time>2022-10-02T07:33:20Z</time>
      </trkpt>
      <trkpt lat="45.95307" lon="1.09636">
        <ele>283.1</ele>
        <time>2022-10-02T07:33:21Z</time>
      </trkpt>
      <trkpt lat="45.95312" lon="1.09637">
        <ele>283.5</ele>
        <time>2022-10-02T07:33:22Z</time>
      </trkpt>
      <trkpt lat="45.95317" lon="1.09639">
        <ele>283.8</ele>
        <time>2022-10-02T07:33:23Z</time>
      </trkpt>
      <trkpt lat="45.95322" lon="1.09642">
        <ele>284.1</ele>
        <time>2022-10-02T07:33:24Z</time>
      </trkpt>
      <trkpt lat="45.95328" lon="1.09644">
        <ele>284.5</ele>
        <time>2022-10-02T07:33:25Z</time>
      </trkpt>
      <trkpt lat="45.95333" lon="1.09647">
        <ele>284.8</ele>
        <time>2022-10-02T07:33:26Z</time>
      </trkpt>
      <trkpt lat="45.95337" lon="1.09651">
        <ele>285.2</ele>
        <time>2022-10-02T07:33:27Z</time>
      </trkpt>
      <trkpt lat="45.95342" lon="1.09655">
        <ele>285.5</ele>
        <time>2022-10-02T07:33:28Z</time>
      </trkpt>
      <trkpt lat="45.95347" lon="1.09658">
        <ele>285.9</ele>
        <time>2022-10-02T07:33:29Z</time>
      </trkpt>
      <trkpt lat="45.95351" lon="1.09659">
        <ele>286.2</ele>
        <time>2022-10-02T07:33:30Z</time>
      </trkpt>
      <trkpt lat="45.95356" lon="1.09662">
        <ele>286.5</ele>
        <time>2022-10-02T07:33:31Z</time>
      </trkpt>
      <trkpt lat="45.9536" lon="1.09665">
        <ele>286.7</ele>
        <time>2022-10-02T07:33:32Z</time>
      </trkpt>
      <trkpt lat="45.95365" lon="1.09667">
        <ele>286.9</ele>
        <time>2022-10-02T07:33:33Z</time>
      </trkpt>
      <trkpt lat="45.95369" lon="1.09669">
        <ele>287.1</ele>
        <time>2022-10-02T07:33:34Z</time>
      </trkpt>
      <trkpt lat="45.95373" lon="1.09671">
        <ele>287.3</ele>
        <time>2022-10-02T07:33:35Z</time>
      </trkpt>
      <trkpt lat="45.95378" lon="1.09673">
        <ele>287.5</ele>
        <time>2022-10-02T07:33:36Z</time>
      </trkpt>
      <trkpt lat="45.95383" lon="1.09674">
        <ele>287.7</ele>
        <time>2022-10-02T07:33:37Z</time>
      </trkpt>
      <trkpt lat="45.95387" lon="1.09676">
        <ele>287.8</ele>
        <time>2022-10-02T07:33:38Z</time>
      </trkpt>
      <trkpt lat="45.95392" lon="1.09678">
        <ele>288</ele>
        <time>2022-10-02T07:33:39Z</time>
      </trkpt>
      <trkpt lat="45.95397" lon="1.09678">
        <ele>288.1</ele>
        <time>2022-10-02T07:33:40Z</time>
      </trkpt>
      <trkpt lat="45.95402" lon="1.09679">
        <ele>288.2</ele>
        <time>2022-10-02T07:33:41Z</time>
      </trkpt>
      <trkpt lat="45.95407" lon="1.0968">
        <ele>288.3</ele>
        <time>2022-10-02T07:33:42Z</time>
      </trkpt>
      <trkpt lat="45.95412" lon="1.0968">
        <ele>288.4</ele>
        <time>2022-10-02T07:33:43Z</time>
      </trkpt>
      <trkpt lat="45.95417" lon="1.09682">
        <ele>288.6</ele>
        <time>2022-10-02T07:33:44Z</time>
      </trkpt>
      <trkpt lat="45.95421" lon="1.09685">
        <ele>288.7</ele>
        <time>2022-10-02T07:33:45Z</time>
      </trkpt>
      <trkpt lat="45.95426" lon="1.09685">
        <ele>288.8</ele>
        <time>2022-10-02T07:33:46Z</time>
      </trkpt>
      <trkpt lat="45.95431" lon="1.09685">
        <ele>289</ele>
        <time>2022-10-02T07:33:47Z</time>
      </trkpt>
      <trkpt lat="45.95436" lon="1.09687">
        <ele>289.2</ele>
        <time>2022-10-02T07:33:48Z</time>
      </trkpt>
      <trkpt lat="45.95442" lon="1.09689">
        <ele>289.3</ele>
        <time>2022-10-02T07:33:49Z</time>
      </trkpt>
      <trkpt lat="45.95447" lon="1.0969">
        <ele>289.5</ele>
        <time>2022-10-02T07:33:50Z</time>
      </trkpt>
      <trkpt lat="45.95452" lon="1.09691">
        <ele>289.7</ele>
        <time>2022-10-02T07:33:51Z</time>
      </trkpt>
      <trkpt lat="45.95456" lon="1.09692">
        <ele>289.9</ele>
        <time>2022-10-02T07:33:52Z</time>
      </trkpt>
      <trkpt lat="45.95461" lon="1.09693">
        <ele>290.1</ele>
        <time>2022-10-02T07:33:53Z</time>
      </trkpt>
      <trkpt lat="45.95466" lon="1.09693">
        <ele>290.3</ele>
        <time>2022-10-02T07:33:54Z</time>
      </trkpt>
      <trkpt lat="45.95471" lon="1.09695">
        <ele>290.5</ele>
        <time>2022-10-02T07:33:55Z</time>
      </trkpt>
      <trkpt lat="45.95476" lon="1.09695">
        <ele>290.7</ele>
        <time>2022-10-02T07:33:56Z</time>
      </trkpt>
      <trkpt lat="45.9548" lon="1.09696">
        <ele>291</ele>
        <time>2022-10-02T07:33:57Z</time>
      </trkpt>
      <trkpt lat="45.95485" lon="1.09698">
        <ele>291.2</ele>
        <time>2022-10-02T07:33:58Z</time>
      </trkpt>
      <trkpt lat="45.9549" lon="1.09699">
        <ele>291.5</ele>
        <time>2022-10-02T07:33:59Z</time>
      </trkpt>
      <trkpt lat="45.95495" lon="1.09701">
        <ele>291.9</ele>
        <time>2022-10-02T07:34:00Z</time>
      </trkpt>
      <trkpt lat="45.95499" lon="1.09702">
        <ele>292.2</ele>
        <time>2022-10-02T07:34:01Z</time>
      </trkpt>
      <trkpt lat="45.95504" lon="1.09703">
        <ele>292.6</ele>
        <time>2022-10-02T07:34:02Z</time>
      </trkpt>
      <trkpt lat="45.95509" lon="1.09704">
        <ele>293</ele>
        <time>2022-10-02T07:34:03Z</time>
      </trkpt>
      <trkpt lat="45.95513" lon="1.09706">
        <ele>293.4</ele>
        <time>2022-10-02T07:34:04Z</time>
      </trkpt>
      <trkpt lat="45.95517" lon="1.09708">
        <ele>293.7</ele>
        <time>2022-10-02T07:34:05Z</time>
      </trkpt>
      <trkpt lat="45.95521" lon="1.0971">
        <ele>294</ele>
        <time>2022-10-02T07:34:06Z</time>
      </trkpt>
      <trkpt lat="45.95524" lon="1.09709">
        <ele>294.3</ele>
        <time>2022-10-02T07:34:07Z</time>
      </trkpt>
      <trkpt lat="45.95528" lon="1.0971">
        <ele>294.6</ele>
        <time>2022-10-02T07:34:08Z</time>
      </trkpt>
      <trkpt lat="45.95533" lon="1.09711">
        <ele>294.8</ele>
        <time>2022-10-02T07:34:09Z</time>
      </trkpt>
      <trkpt lat="45.9554" lon="1.0971">
        <ele>295.1</ele>
        <time>2022-10-02T07:34:10Z</time>
      </trkpt>
      <trkpt lat="45.95546" lon="1.09713">
        <ele>295.3</ele>
        <time>2022-10-02T07:34:11Z</time>
      </trkpt>
      <trkpt lat="45.95551" lon="1.09716">
        <ele>295.5</ele>
        <time>2022-10-02T07:34:12Z</time>
      </trkpt>
      <trkpt lat="45.95559" lon="1.09719">
        <ele>295.6</ele>
        <time>2022-10-02T07:34:13Z</time>
      </trkpt>
      <trkpt lat="45.95565" lon="1.0972">
        <ele>295.7</ele>
        <time>2022-10-02T07:34:14Z</time>
      </trkpt>
      <trkpt lat="45.95571" lon="1.09722">
        <ele>295.7</ele>
        <time>2022-10-02T07:34:15Z</time>
      </trkpt>
      <trkpt lat="45.95576" lon="1.09724">
        <ele>295.8</ele>
        <time>2022-10-02T07:34:16Z</time>
      </trkpt>
      <trkpt lat="45.95582" lon="1.09727">
        <ele>295.7</ele>
        <time>2022-10-02T07:34:17Z</time>
      </trkpt>
      <trkpt lat="45.95587" lon="1.0973">
        <ele>295.7</ele>
        <time>2022-10-02T07:34:18Z</time>
      </trkpt>
      <trkpt lat="45.95594" lon="1.09732">
        <ele>295.7</ele>
        <time>2022-10-02T07:34:19Z</time>
      </trkpt>
      <trkpt lat="45.956" lon="1.09733">
        <ele>295.6</ele>
        <time>2022-10-02T07:34:20Z</time>
      </trkpt>
      <trkpt lat="45.95606" lon="1.09736">
        <ele>295.5</ele>
        <time>2022-10-02T07:34:21Z</time>
      </trkpt>
      <trkpt lat="45.95612" lon="1.09738">
        <ele>295.5</ele>
        <time>2022-10-02T07:34:22Z</time>
      </trkpt>
      <trkpt lat="45.95619" lon="1.09739">
        <ele>295.4</ele>
        <time>2022-10-02T07:34:23Z</time>
      </trkpt>
      <trkpt lat="45.95625" lon="1.09741">
        <ele>295.4</ele>
        <time>2022-10-02T07:34:24Z</time>
      </trkpt>
      <trkpt lat="45.95631" lon="1.09743">
        <ele>295.3</ele>
        <time>2022-10-02T07:34:25Z</time>
      </trkpt>
      <trkpt lat="45.95638" lon="1.09743">
        <ele>295.3</ele>
        <time>2022-10-02T07:34:26Z</time>
      </trkpt>
      <trkpt lat="45.95645" lon="1.09743">
        <ele>295.2</ele>
        <time>2022-10-02T07:34:27Z</time>
      </trkpt>
      <trkpt lat="45.95652" lon="1.09744">
        <ele>295.2</ele>
        <time>2022-10-02T07:34:28Z</time>
      </trkpt>
      <trkpt lat="45.95657" lon="1.09747">
        <ele>295.2</ele>
        <time>2022-10-02T07:34:29Z</time>
      </trkpt>
      <trkpt lat="45.95662" lon="1.09749">
        <ele>295.2</ele>
        <time>2022-10-02T07:34:30Z</time>
      </trkpt>
      <trkpt lat="45.95668" lon="1.09751">
        <ele>295.2</ele>
        <time>2022-10-02T07:34:31Z</time>
      </trkpt>
      <trkpt lat="45.95674" lon="1.09753">
        <ele>295.2</ele>
        <time>2022-10-02T07:34:32Z</time>
      </trkpt>
      <trkpt lat="45.95681" lon="1.09754">
        <ele>295.3</ele>
        <time>2022-10-02T07:34:33Z</time>
      </trkpt>
      <trkpt lat="45.95687" lon="1.09755">
        <ele>295.3</ele>
        <time>2022-10-02T07:34:34Z</time>
      </trkpt>
      <trkpt lat="45.95693" lon="1.09757">
        <ele>295.4</ele>
        <time>2022-10-02T07:34:35Z</time>
      </trkpt>
      <trkpt lat="45.95697" lon="1.09759">
        <ele>295.5</ele>
        <time>2022-10-02T07:34:36Z</time>
      </trkpt>
      <trkpt lat="45.95703" lon="1.09757">
        <ele>295.5</ele>
        <time>2022-10-02T07:34:37Z</time>
      </trkpt>
      <trkpt lat="45.95708" lon="1.09761">
        <ele>295.5</ele>
        <time>2022-10-02T07:34:38Z</time>
      </trkpt>
      <trkpt lat="45.95712" lon="1.09763">
        <ele>295.6</ele>
        <time>2022-10-02T07:34:39Z</time>
      </trkpt>
      <trkpt lat="45.95716" lon="1.09763">
        <ele>295.4</ele>
        <time>2022-10-02T07:34:40Z</time>
      </trkpt>
      <trkpt lat="45.95718" lon="1.09762">
        <ele>295.4</ele>
        <time>2022-10-02T07:34:41Z</time>
      </trkpt>
      <trkpt lat="45.9572" lon="1.09758">
        <ele>295.3</ele>
        <time>2022-10-02T07:34:42Z</time>
      </trkpt>
      <trkpt lat="45.95722" lon="1.09751">
        <ele>295.1</ele>
        <time>2022-10-02T07:34:43Z</time>
      </trkpt>
      <trkpt lat="45.95724" lon="1.09744">
        <ele>295</ele>
        <time>2022-10-02T07:34:45Z</time>
      </trkpt>
      <trkpt lat="45.95725" lon="1.09736">
        <ele>294.9</ele>
        <time>2022-10-02T07:34:46Z</time>
      </trkpt>
      <trkpt lat="45.95726" lon="1.09728">
        <ele>294.7</ele>
        <time>2022-10-02T07:34:47Z</time>
      </trkpt>
      <trkpt lat="45.95727" lon="1.0972">
        <ele>294.5</ele>
        <time>2022-10-02T07:34:48Z</time>
      </trkpt>
      <trkpt lat="45.95728" lon="1.09711">
        <ele>294.4</ele>
        <time>2022-10-02T07:34:49Z</time>
      </trkpt>
      <trkpt lat="45.9573" lon="1.09702">
        <ele>294.1</ele>
        <time>2022-10-02T07:34:50Z</time>
      </trkpt>
      <trkpt lat="45.95731" lon="1.09694">
        <ele>293.9</ele>
        <time>2022-10-02T07:34:51Z</time>
      </trkpt>
      <trkpt lat="45.95731" lon="1.09684">
        <ele>293.7</ele>
        <time>2022-10-02T07:34:52Z</time>
      </trkpt>
      <trkpt lat="45.95732" lon="1.09675">
        <ele>293.5</ele>
        <time>2022-10-02T07:34:53Z</time>
      </trkpt>
      <trkpt lat="45.95733" lon="1.09666">
        <ele>293.3</ele>
        <time>2022-10-02T07:34:54Z</time>
      </trkpt>
      <trkpt lat="45.95734" lon="1.09657">
        <ele>293.1</ele>
        <time>2022-10-02T07:34:55Z</time>
      </trkpt>
      <trkpt lat="45.95733" lon="1.09647">
        <ele>292.9</ele>
        <time>2022-10-02T07:34:56Z</time>
      </trkpt>
      <trkpt lat="45.95734" lon="1.09638">
        <ele>292.7</ele>
        <time>2022-10-02T07:34:57Z</time>
      </trkpt>
      <trkpt lat="45.95736" lon="1.09629">
        <ele>292.6</ele>
        <time>2022-10-02T07:34:58Z</time>
      </trkpt>
      <trkpt lat="45.95737" lon="1.09619">
        <ele>292.4</ele>
        <time>2022-10-02T07:34:59Z</time>
      </trkpt>
      <trkpt lat="45.95737" lon="1.09609">
        <ele>292.2</ele>
        <time>2022-10-02T07:35:00Z</time>
      </trkpt>
      <trkpt lat="45.95738" lon="1.09599">
        <ele>292</ele>
        <time>2022-10-02T07:35:01Z</time>
      </trkpt>
      <trkpt lat="45.95739" lon="1.0959">
        <ele>291.8</ele>
        <time>2022-10-02T07:35:02Z</time>
      </trkpt>
      <trkpt lat="45.9574" lon="1.09581">
        <ele>291.7</ele>
        <time>2022-10-02T07:35:03Z</time>
      </trkpt>
      <trkpt lat="45.95741" lon="1.09572">
        <ele>291.6</ele>
        <time>2022-10-02T07:35:04Z</time>
      </trkpt>
      <trkpt lat="45.95741" lon="1.09563">
        <ele>291.5</ele>
        <time>2022-10-02T07:35:05Z</time>
      </trkpt>
      <trkpt lat="45.95742" lon="1.09552">
        <ele>291.3</ele>
        <time>2022-10-02T07:35:06Z</time>
      </trkpt>
      <trkpt lat="45.95742" lon="1.09541">
        <ele>291.3</ele>
        <time>2022-10-02T07:35:07Z</time>
      </trkpt>
      <trkpt lat="45.95741" lon="1.0953">
        <ele>291.2</ele>
        <time>2022-10-02T07:35:08Z</time>
      </trkpt>
      <trkpt lat="45.95741" lon="1.09521">
        <ele>291.2</ele>
        <time>2022-10-02T07:35:09Z</time>
      </trkpt>
      <trkpt lat="45.95742" lon="1.09512">
        <ele>291.2</ele>
        <time>2022-10-02T07:35:10Z</time>
      </trkpt>
      <trkpt lat="45.95742" lon="1.09503">
        <ele>291.1</ele>
        <time>2022-10-02T07:35:11Z</time>
      </trkpt>
      <trkpt lat="45.95743" lon="1.09494">
        <ele>291.1</ele>
        <time>2022-10-02T07:35:12Z</time>
      </trkpt>
      <trkpt lat="45.95744" lon="1.09484">
        <ele>291.1</ele>
        <time>2022-10-02T07:35:13Z</time>
      </trkpt>
      <trkpt lat="45.95744" lon="1.09475">
        <ele>291.1</ele>
        <time>2022-10-02T07:35:14Z</time>
      </trkpt>
      <trkpt lat="45.95745" lon="1.09466">
        <ele>291</ele>
        <time>2022-10-02T07:35:15Z</time>
      </trkpt>
      <trkpt lat="45.95746" lon="1.09457">
        <ele>291</ele>
        <time>2022-10-02T07:35:16Z</time>
      </trkpt>
      <trkpt lat="45.95747" lon="1.09448">
        <ele>291</ele>
        <time>2022-10-02T07:35:17Z</time>
      </trkpt>
      <trkpt lat="45.95747" lon="1.09439">
        <ele>291</ele>
        <time>2022-10-02T07:35:18Z</time>
      </trkpt>
      <trkpt lat="45.95747" lon="1.0943">
        <ele>290.9</ele>
        <time>2022-10-02T07:35:19Z</time>
      </trkpt>
      <trkpt lat="45.95748" lon="1.09421">
        <ele>290.9</ele>
        <time>2022-10-02T07:35:20Z</time>
      </trkpt>
      <trkpt lat="45.95749" lon="1.09413">
        <ele>290.9</ele>
        <time>2022-10-02T07:35:21Z</time>
      </trkpt>
      <trkpt lat="45.95749" lon="1.09404">
        <ele>290.9</ele>
        <time>2022-10-02T07:35:22Z</time>
      </trkpt>
      <trkpt lat="45.9575" lon="1.09396">
        <ele>290.8</ele>
        <time>2022-10-02T07:35:23Z</time>
      </trkpt>
      <trkpt lat="45.9575" lon="1.09387">
        <ele>290.8</ele>
        <time>2022-10-02T07:35:24Z</time>
      </trkpt>
      <trkpt lat="45.9575" lon="1.09379">
        <ele>290.9</ele>
        <time>2022-10-02T07:35:25Z</time>
      </trkpt>
      <trkpt lat="45.95751" lon="1.09371">
        <ele>290.9</ele>
        <time>2022-10-02T07:35:26Z</time>
      </trkpt>
      <trkpt lat="45.95751" lon="1.09362">
        <ele>290.9</ele>
        <time>2022-10-02T07:35:27Z</time>
      </trkpt>
      <trkpt lat="45.95751" lon="1.09354">
        <ele>291</ele>
        <time>2022-10-02T07:35:28Z</time>
      </trkpt>
      <trkpt lat="45.95751" lon="1.09346">
        <ele>291</ele>
        <time>2022-10-02T07:35:29Z</time>
      </trkpt>
      <trkpt lat="45.95754" lon="1.09341">
        <ele>291</ele>
        <time>2022-10-02T07:35:30Z</time>
      </trkpt>
      <trkpt lat="45.95757" lon="1.09339">
        <ele>290.8</ele>
        <time>2022-10-02T07:35:31Z</time>
      </trkpt>
      <trkpt lat="45.9576" lon="1.0934">
        <ele>290.8</ele>
        <time>2022-10-02T07:35:32Z</time>
      </trkpt>
      <trkpt lat="45.95763" lon="1.09344">
        <ele>290.7</ele>
        <time>2022-10-02T07:35:33Z</time>
      </trkpt>
      <trkpt lat="45.95766" lon="1.0935">
        <ele>290.6</ele>
        <time>2022-10-02T07:35:34Z</time>
      </trkpt>
      <trkpt lat="45.95769" lon="1.09356">
        <ele>290.6</ele>
        <time>2022-10-02T07:35:35Z</time>
      </trkpt>
      <trkpt lat="45.95773" lon="1.09363">
        <ele>290.6</ele>
        <time>2022-10-02T07:35:36Z</time>
      </trkpt>
      <trkpt lat="45.95777" lon="1.09368">
        <ele>290.6</ele>
        <time>2022-10-02T07:35:37Z</time>
      </trkpt>
      <trkpt lat="45.9578" lon="1.09374">
        <ele>290.7</ele>
        <time>2022-10-02T07:35:38Z</time>
      </trkpt>
      <trkpt lat="45.95784" lon="1.09379">
        <ele>290.7</ele>
        <time>2022-10-02T07:35:39Z</time>
      </trkpt>
      <trkpt lat="45.95788" lon="1.09385">
        <ele>290.8</ele>
        <time>2022-10-02T07:35:40Z</time>
      </trkpt>
      <trkpt lat="45.95792" lon="1.09389">
        <ele>290.9</ele>
        <time>2022-10-02T07:35:41Z</time>
      </trkpt>
      <trkpt lat="45.95796" lon="1.09395">
        <ele>291.1</ele>
        <time>2022-10-02T07:35:42Z</time>
      </trkpt>
      <trkpt lat="45.958" lon="1.09401">
        <ele>291.2</ele>
        <time>2022-10-02T07:35:43Z</time>
      </trkpt>
      <trkpt lat="45.95805" lon="1.09407">
        <ele>291.3</ele>
        <time>2022-10-02T07:35:44Z</time>
      </trkpt>
      <trkpt lat="45.9581" lon="1.09413">
        <ele>291.5</ele>
        <time>2022-10-02T07:35:45Z</time>
      </trkpt>
      <trkpt lat="45.95814" lon="1.09419">
        <ele>291.6</ele>
        <time>2022-10-02T07:35:46Z</time>
      </trkpt>
      <trkpt lat="45.95818" lon="1.09426">
        <ele>291.8</ele>
        <time>2022-10-02T07:35:47Z</time>
      </trkpt>
      <trkpt lat="45.95821" lon="1.09432">
        <ele>291.9</ele>
        <time>2022-10-02T07:35:48Z</time>
      </trkpt>
      <trkpt lat="45.95826" lon="1.09438">
        <ele>292.1</ele>
        <time>2022-10-02T07:35:49Z</time>
      </trkpt>
      <trkpt lat="45.9583" lon="1.09444">
        <ele>292.3</ele>
        <time>2022-10-02T07:35:50Z</time>
      </trkpt>
      <trkpt lat="45.95834" lon="1.0945">
        <ele>292.4</ele>
        <time>2022-10-02T07:35:51Z</time>
      </trkpt>
      <trkpt lat="45.95837" lon="1.09455">
        <ele>292.5</ele>
        <time>2022-10-02T07:35:52Z</time>
      </trkpt>
      <trkpt lat="45.95841" lon="1.0946">
        <ele>292.7</ele>
        <time>2022-10-02T07:35:53Z</time>
      </trkpt>
      <trkpt lat="45.95844" lon="1.09465">
        <ele>292.8</ele>
        <time>2022-10-02T07:35:54Z</time>
      </trkpt>
      <trkpt lat="45.95848" lon="1.09469">
        <ele>292.9</ele>
        <time>2022-10-02T07:35:55Z</time>
      </trkpt>
      <trkpt lat="45.95852" lon="1.09475">
        <ele>293</ele>
        <time>2022-10-02T07:35:56Z</time>
      </trkpt>
      <trkpt lat="45.95856" lon="1.0948">
        <ele>293.1</ele>
        <time>2022-10-02T07:35:57Z</time>
      </trkpt>
      <trkpt lat="45.9586" lon="1.09486">
        <ele>293.3</ele>
        <time>2022-10-02T07:35:58Z</time>
      </trkpt>
      <trkpt lat="45.95864" lon="1.09492">
        <ele>293.5</ele>
        <time>2022-10-02T07:35:59Z</time>
      </trkpt>
      <trkpt lat="45.95867" lon="1.09498">
        <ele>293.6</ele>
        <time>2022-10-02T07:36:00Z</time>
      </trkpt>
      <trkpt lat="45.95871" lon="1.09503">
        <ele>293.8</ele>
        <time>2022-10-02T07:36:01Z</time>
      </trkpt>
      <trkpt lat="45.95875" lon="1.09509">
        <ele>294</ele>
        <time>2022-10-02T07:36:02Z</time>
      </trkpt>
      <trkpt lat="45.95878" lon="1.09515">
        <ele>294.1</ele>
        <time>2022-10-02T07:36:03Z</time>
      </trkpt>
      <trkpt lat="45.95882" lon="1.09518">
        <ele>294.2</ele>
        <time>2022-10-02T07:36:04Z</time>
      </trkpt>
      <trkpt lat="45.95886" lon="1.09523">
        <ele>294.4</ele>
        <time>2022-10-02T07:36:05Z</time>
      </trkpt>
      <trkpt lat="45.95889" lon="1.09529">
        <ele>294.5</ele>
        <time>2022-10-02T07:36:06Z</time>
      </trkpt>
      <trkpt lat="45.95894" lon="1.09535">
        <ele>294.7</ele>
        <time>2022-10-02T07:36:07Z</time>
      </trkpt>
      <trkpt lat="45.95898" lon="1.09541">
        <ele>294.9</ele>
        <time>2022-10-02T07:36:08Z</time>
      </trkpt>
      <trkpt lat="45.95903" lon="1.09546">
        <ele>295</ele>
        <time>2022-10-02T07:36:09Z</time>
      </trkpt>
      <trkpt lat="45.95905" lon="1.09551">
        <ele>295.1</ele>
        <time>2022-10-02T07:36:10Z</time>
      </trkpt>
      <trkpt lat="45.95907" lon="1.09556">
        <ele>295.2</ele>
        <time>2022-10-02T07:36:11Z</time>
      </trkpt>
      <trkpt lat="45.95909" lon="1.09561">
        <ele>295.3</ele>
        <time>2022-10-02T07:36:12Z</time>
      </trkpt>
      <trkpt lat="45.95912" lon="1.09568">
        <ele>295.4</ele>
        <time>2022-10-02T07:36:13Z</time>
      </trkpt>
      <trkpt lat="45.95916" lon="1.09572">
        <ele>295.4</ele>
        <time>2022-10-02T07:36:14Z</time>
      </trkpt>
      <trkpt lat="45.95919" lon="1.09577">
        <ele>295.5</ele>
        <time>2022-10-02T07:36:15Z</time>
      </trkpt>
      <trkpt lat="45.95922" lon="1.09583">
        <ele>295.6</ele>
        <time>2022-10-02T07:36:16Z</time>
      </trkpt>
      <trkpt lat="45.95925" lon="1.09588">
        <ele>295.7</ele>
        <time>2022-10-02T07:36:17Z</time>
      </trkpt>
      <trkpt lat="45.9593" lon="1.09592">
        <ele>295.8</ele>
        <time>2022-10-02T07:36:18Z</time>
      </trkpt>
      <trkpt lat="45.95933" lon="1.09597">
        <ele>295.9</ele>
        <time>2022-10-02T07:36:19Z</time>
      </trkpt>
      <trkpt lat="45.95936" lon="1.09602">
        <ele>296</ele>
        <time>2022-10-02T07:36:20Z</time>
      </trkpt>
      <trkpt lat="45.95938" lon="1.09607">
        <ele>296.1</ele>
        <time>2022-10-02T07:36:21Z</time>
      </trkpt>
      <trkpt lat="45.95941" lon="1.0961">
        <ele>296.2</ele>
        <time>2022-10-02T07:36:22Z</time>
      </trkpt>
      <trkpt lat="45.95944" lon="1.09613">
        <ele>296.3</ele>
        <time>2022-10-02T07:36:23Z</time>
      </trkpt>
      <trkpt lat="45.95948" lon="1.09615">
        <ele>296.4</ele>
        <time>2022-10-02T07:36:24Z</time>
      </trkpt>
      <trkpt lat="45.9595" lon="1.0962">
        <ele>296.5</ele>
        <time>2022-10-02T07:36:25Z</time>
      </trkpt>
      <trkpt lat="45.95954" lon="1.09626">
        <ele>296.7</ele>
        <time>2022-10-02T07:36:26Z</time>
      </trkpt>
      <trkpt lat="45.95957" lon="1.09631">
        <ele>296.8</ele>
        <time>2022-10-02T07:36:27Z</time>
      </trkpt>
      <trkpt lat="45.95959" lon="1.09637">
        <ele>296.9</ele>
        <time>2022-10-02T07:36:28Z</time>
      </trkpt>
      <trkpt lat="45.95963" lon="1.09643">
        <ele>297</ele>
        <time>2022-10-02T07:36:29Z</time>
      </trkpt>
      <trkpt lat="45.95967" lon="1.09649">
        <ele>297.2</ele>
        <time>2022-10-02T07:36:30Z</time>
      </trkpt>
      <trkpt lat="45.9597" lon="1.09655">
        <ele>297.3</ele>
        <time>2022-10-02T07:36:31Z</time>
      </trkpt>
      <trkpt lat="45.95974" lon="1.09661">
        <ele>297.4</ele>
        <time>2022-10-02T07:36:32Z</time>
      </trkpt>
      <trkpt lat="45.95978" lon="1.09666">
        <ele>297.5</ele>
        <time>2022-10-02T07:36:33Z</time>
      </trkpt>
      <trkpt lat="45.95982" lon="1.09671">
        <ele>297.6</ele>
        <time>2022-10-02T07:36:34Z</time>
      </trkpt>
      <trkpt lat="45.95986" lon="1.09677">
        <ele>297.6</ele>
        <time>2022-10-02T07:36:35Z</time>
      </trkpt>
      <trkpt lat="45.9599" lon="1.09682">
        <ele>297.7</ele>
        <time>2022-10-02T07:36:36Z</time>
      </trkpt>
      <trkpt lat="45.95995" lon="1.09687">
        <ele>297.8</ele>
        <time>2022-10-02T07:36:37Z</time>
      </trkpt>
      <trkpt lat="45.95999" lon="1.09691">
        <ele>297.8</ele>
        <time>2022-10-02T07:36:38Z</time>
      </trkpt>
      <trkpt lat="45.96005" lon="1.09695">
        <ele>297.8</ele>
        <time>2022-10-02T07:36:39Z</time>
      </trkpt>
      <trkpt lat="45.96009" lon="1.09698">
        <ele>297.8</ele>
        <time>2022-10-02T07:36:40Z</time>
      </trkpt>
      <trkpt lat="45.96014" lon="1.09702">
        <ele>297.8</ele>
        <time>2022-10-02T07:36:41Z</time>
      </trkpt>
      <trkpt lat="45.96019" lon="1.09706">
        <ele>297.9</ele>
        <time>2022-10-02T07:36:42Z</time>
      </trkpt>
      <trkpt lat="45.96024" lon="1.0971">
        <ele>297.9</ele>
        <time>2022-10-02T07:36:43Z</time>
      </trkpt>
      <trkpt lat="45.96029" lon="1.09713">
        <ele>298</ele>
        <time>2022-10-02T07:36:44Z</time>
      </trkpt>
      <trkpt lat="45.96035" lon="1.09717">
        <ele>298.1</ele>
        <time>2022-10-02T07:36:45Z</time>
      </trkpt>
      <trkpt lat="45.96039" lon="1.0972">
        <ele>298.2</ele>
        <time>2022-10-02T07:36:46Z</time>
      </trkpt>
      <trkpt lat="45.96044" lon="1.09724">
        <ele>298.4</ele>
        <time>2022-10-02T07:36:47Z</time>
      </trkpt>
      <trkpt lat="45.96053" lon="1.09733">
        <ele>298.7</ele>
        <time>2022-10-02T07:36:48Z</time>
      </trkpt>
      <trkpt lat="45.96058" lon="1.09737">
        <ele>298.8</ele>
        <time>2022-10-02T07:36:49Z</time>
      </trkpt>
      <trkpt lat="45.96063" lon="1.09741">
        <ele>299</ele>
        <time>2022-10-02T07:36:50Z</time>
      </trkpt>
      <trkpt lat="45.96067" lon="1.09745">
        <ele>299.2</ele>
        <time>2022-10-02T07:36:51Z</time>
      </trkpt>
      <trkpt lat="45.96072" lon="1.09749">
        <ele>299.3</ele>
        <time>2022-10-02T07:36:52Z</time>
      </trkpt>
      <trkpt lat="45.96076" lon="1.09753">
        <ele>299.4</ele>
        <time>2022-10-02T07:36:53Z</time>
      </trkpt>
      <trkpt lat="45.9608" lon="1.09758">
        <ele>299.6</ele>
        <time>2022-10-02T07:36:54Z</time>
      </trkpt>
      <trkpt lat="45.96085" lon="1.09763">
        <ele>299.7</ele>
        <time>2022-10-02T07:36:55Z</time>
      </trkpt>
      <trkpt lat="45.9609" lon="1.09768">
        <ele>299.8</ele>
        <time>2022-10-02T07:36:56Z</time>
      </trkpt>
      <trkpt lat="45.96094" lon="1.09773">
        <ele>300</ele>
        <time>2022-10-02T07:36:57Z</time>
      </trkpt>
      <trkpt lat="45.96098" lon="1.09776">
        <ele>300.1</ele>
        <time>2022-10-02T07:36:58Z</time>
      </trkpt>
      <trkpt lat="45.96101" lon="1.09782">
        <ele>300.3</ele>
        <time>2022-10-02T07:36:59Z</time>
      </trkpt>
      <trkpt lat="45.96105" lon="1.09787">
        <ele>300.5</ele>
        <time>2022-10-02T07:37:00Z</time>
      </trkpt>
      <trkpt lat="45.96106" lon="1.09792">
        <ele>300.7</ele>
        <time>2022-10-02T07:37:01Z</time>
      </trkpt>
      <trkpt lat="45.9611" lon="1.09798">
        <ele>300.9</ele>
        <time>2022-10-02T07:37:02Z</time>
      </trkpt>
      <trkpt lat="45.96114" lon="1.09803">
        <ele>301.2</ele>
        <time>2022-10-02T07:37:03Z</time>
      </trkpt>
      <trkpt lat="45.96117" lon="1.09808">
        <ele>301.4</ele>
        <time>2022-10-02T07:37:04Z</time>
      </trkpt>
      <trkpt lat="45.96122" lon="1.09813">
        <ele>301.7</ele>
        <time>2022-10-02T07:37:05Z</time>
      </trkpt>
      <trkpt lat="45.96126" lon="1.09818">
        <ele>302</ele>
        <time>2022-10-02T07:37:06Z</time>
      </trkpt>
      <trkpt lat="45.96129" lon="1.09821">
        <ele>302.2</ele>
        <time>2022-10-02T07:37:07Z</time>
      </trkpt>
      <trkpt lat="45.96132" lon="1.09825">
        <ele>302.3</ele>
        <time>2022-10-02T07:37:08Z</time>
      </trkpt>
      <trkpt lat="45.96135" lon="1.0983">
        <ele>302.6</ele>
        <time>2022-10-02T07:37:09Z</time>
      </trkpt>
      <trkpt lat="45.96138" lon="1.09834">
        <ele>302.8</ele>
        <time>2022-10-02T07:37:10Z</time>
      </trkpt>
      <trkpt lat="45.9614" lon="1.09838">
        <ele>303</ele>
        <time>2022-10-02T07:37:11Z</time>
      </trkpt>
      <trkpt lat="45.96141" lon="1.09843">
        <ele>303.2</ele>
        <time>2022-10-02T07:37:12Z</time>
      </trkpt>
      <trkpt lat="45.96144" lon="1.09846">
        <ele>303.5</ele>
        <time>2022-10-02T07:37:13Z</time>
      </trkpt>
      <trkpt lat="45.96146" lon="1.09849">
        <ele>303.7</ele>
        <time>2022-10-02T07:37:14Z</time>
      </trkpt>
      <trkpt lat="45.96148" lon="1.09852">
        <ele>303.9</ele>
        <time>2022-10-02T07:37:15Z</time>
      </trkpt>
      <trkpt lat="45.9615" lon="1.09855">
        <ele>304.1</ele>
        <time>2022-10-02T07:37:16Z</time>
      </trkpt>
      <trkpt lat="45.96152" lon="1.09858">
        <ele>304.4</ele>
        <time>2022-10-02T07:37:17Z</time>
      </trkpt>
      <trkpt lat="45.96155" lon="1.09861">
        <ele>304.6</ele>
        <time>2022-10-02T07:37:18Z</time>
      </trkpt>
      <trkpt lat="45.96158" lon="1.09863">
        <ele>304.7</ele>
        <time>2022-10-02T07:37:19Z</time>
      </trkpt>
      <trkpt lat="45.96162" lon="1.09866">
        <ele>304.8</ele>
        <time>2022-10-02T07:37:20Z</time>
      </trkpt>
      <trkpt lat="45.96166" lon="1.09871">
        <ele>305</ele>
        <time>2022-10-02T07:37:21Z</time>
      </trkpt>
      <trkpt lat="45.9617" lon="1.09875">
        <ele>305.2</ele>
        <time>2022-10-02T07:37:22Z</time>
      </trkpt>
      <trkpt lat="45.96174" lon="1.09881">
        <ele>305.3</ele>
        <time>2022-10-02T07:37:23Z</time>
      </trkpt>
      <trkpt lat="45.96178" lon="1.09886">
        <ele>305.5</ele>
        <time>2022-10-02T07:37:24Z</time>
      </trkpt>
      <trkpt lat="45.96182" lon="1.09891">
        <ele>305.7</ele>
        <time>2022-10-02T07:37:25Z</time>
      </trkpt>
      <trkpt lat="45.96187" lon="1.09897">
        <ele>305.9</ele>
        <time>2022-10-02T07:37:26Z</time>
      </trkpt>
      <trkpt lat="45.96191" lon="1.09902">
        <ele>306.1</ele>
        <time>2022-10-02T07:37:27Z</time>
      </trkpt>
      <trkpt lat="45.96196" lon="1.09906">
        <ele>306.4</ele>
        <time>2022-10-02T07:37:28Z</time>
      </trkpt>
      <trkpt lat="45.962" lon="1.09911">
        <ele>306.6</ele>
        <time>2022-10-02T07:37:29Z</time>
      </trkpt>
      <trkpt lat="45.96205" lon="1.09916">
        <ele>306.9</ele>
        <time>2022-10-02T07:37:30Z</time>
      </trkpt>
      <trkpt lat="45.96211" lon="1.0992">
        <ele>307.2</ele>
        <time>2022-10-02T07:37:31Z</time>
      </trkpt>
      <trkpt lat="45.96215" lon="1.09925">
        <ele>307.5</ele>
        <time>2022-10-02T07:37:32Z</time>
      </trkpt>
      <trkpt lat="45.9622" lon="1.0993">
        <ele>307.7</ele>
        <time>2022-10-02T07:37:33Z</time>
      </trkpt>
      <trkpt lat="45.96224" lon="1.09935">
        <ele>308</ele>
        <time>2022-10-02T07:37:34Z</time>
      </trkpt>
      <trkpt lat="45.96229" lon="1.09939">
        <ele>308.2</ele>
        <time>2022-10-02T07:37:35Z</time>
      </trkpt>
      <trkpt lat="45.96234" lon="1.09945">
        <ele>308.5</ele>
        <time>2022-10-02T07:37:36Z</time>
      </trkpt>
      <trkpt lat="45.96239" lon="1.0995">
        <ele>308.7</ele>
        <time>2022-10-02T07:37:37Z</time>
      </trkpt>
      <trkpt lat="45.96244" lon="1.09955">
        <ele>309</ele>
        <time>2022-10-02T07:37:38Z</time>
      </trkpt>
      <trkpt lat="45.96249" lon="1.0996">
        <ele>309.2</ele>
        <time>2022-10-02T07:37:39Z</time>
      </trkpt>
      <trkpt lat="45.96252" lon="1.09965">
        <ele>309.4</ele>
        <time>2022-10-02T07:37:40Z</time>
      </trkpt>
      <trkpt lat="45.96258" lon="1.0997">
        <ele>309.6</ele>
        <time>2022-10-02T07:37:41Z</time>
      </trkpt>
      <trkpt lat="45.96262" lon="1.09974">
        <ele>309.8</ele>
        <time>2022-10-02T07:37:42Z</time>
      </trkpt>
      <trkpt lat="45.96267" lon="1.09979">
        <ele>310</ele>
        <time>2022-10-02T07:37:43Z</time>
      </trkpt>
      <trkpt lat="45.96272" lon="1.09984">
        <ele>310.1</ele>
        <time>2022-10-02T07:37:44Z</time>
      </trkpt>
      <trkpt lat="45.96277" lon="1.09988">
        <ele>310.3</ele>
        <time>2022-10-02T07:37:45Z</time>
      </trkpt>
      <trkpt lat="45.96282" lon="1.09993">
        <ele>310.4</ele>
        <time>2022-10-02T07:37:46Z</time>
      </trkpt>
      <trkpt lat="45.96287" lon="1.09999">
        <ele>310.5</ele>
        <time>2022-10-02T07:37:47Z</time>
      </trkpt>
      <trkpt lat="45.96291" lon="1.10004">
        <ele>310.7</ele>
        <time>2022-10-02T07:37:48Z</time>
      </trkpt>
      <trkpt lat="45.96296" lon="1.10008">
        <ele>310.8</ele>
        <time>2022-10-02T07:37:49Z</time>
      </trkpt>
      <trkpt lat="45.96301" lon="1.10009">
        <ele>310.8</ele>
        <time>2022-10-02T07:37:50Z</time>
      </trkpt>
      <trkpt lat="45.96305" lon="1.10006">
        <ele>310.9</ele>
        <time>2022-10-02T07:37:51Z</time>
      </trkpt>
      <trkpt lat="45.96308" lon="1.10004">
        <ele>310.4</ele>
        <time>2022-10-02T07:37:52Z</time>
      </trkpt>
      <trkpt lat="45.96312" lon="1.1">
        <ele>310.1</ele>
        <time>2022-10-02T07:37:53Z</time>
      </trkpt>
      <trkpt lat="45.96315" lon="1.09995">
        <ele>309.8</ele>
        <time>2022-10-02T07:37:54Z</time>
      </trkpt>
      <trkpt lat="45.96318" lon="1.09989">
        <ele>309.4</ele>
        <time>2022-10-02T07:37:55Z</time>
      </trkpt>
      <trkpt lat="45.96322" lon="1.09982">
        <ele>309</ele>
        <time>2022-10-02T07:37:56Z</time>
      </trkpt>
      <trkpt lat="45.96323" lon="1.09973">
        <ele>308.6</ele>
        <time>2022-10-02T07:37:57Z</time>
      </trkpt>
      <trkpt lat="45.96327" lon="1.09965">
        <ele>308.2</ele>
        <time>2022-10-02T07:37:58Z</time>
      </trkpt>
      <trkpt lat="45.9633" lon="1.09957">
        <ele>307.9</ele>
        <time>2022-10-02T07:37:59Z</time>
      </trkpt>
      <trkpt lat="45.96333" lon="1.09949">
        <ele>307.7</ele>
        <time>2022-10-02T07:38:00Z</time>
      </trkpt>
      <trkpt lat="45.96335" lon="1.09941">
        <ele>307.4</ele>
        <time>2022-10-02T07:38:01Z</time>
      </trkpt>
      <trkpt lat="45.96339" lon="1.09933">
        <ele>307.1</ele>
        <time>2022-10-02T07:38:02Z</time>
      </trkpt>
      <trkpt lat="45.96341" lon="1.09922">
        <ele>306.8</ele>
        <time>2022-10-02T07:38:03Z</time>
      </trkpt>
      <trkpt lat="45.96343" lon="1.09915">
        <ele>306.5</ele>
        <time>2022-10-02T07:38:04Z</time>
      </trkpt>
      <trkpt lat="45.96346" lon="1.09907">
        <ele>306.3</ele>
        <time>2022-10-02T07:38:05Z</time>
      </trkpt>
      <trkpt lat="45.96348" lon="1.09898">
        <ele>306</ele>
        <time>2022-10-02T07:38:06Z</time>
      </trkpt>
      <trkpt lat="45.96351" lon="1.0989">
        <ele>305.8</ele>
        <time>2022-10-02T07:38:07Z</time>
      </trkpt>
      <trkpt lat="45.96355" lon="1.09883">
        <ele>305.6</ele>
        <time>2022-10-02T07:38:08Z</time>
      </trkpt>
      <trkpt lat="45.96358" lon="1.09875">
        <ele>305.3</ele>
        <time>2022-10-02T07:38:09Z</time>
      </trkpt>
      <trkpt lat="45.9636" lon="1.09868">
        <ele>305.2</ele>
        <time>2022-10-02T07:38:10Z</time>
      </trkpt>
      <trkpt lat="45.96364" lon="1.0986">
        <ele>304.9</ele>
        <time>2022-10-02T07:38:11Z</time>
      </trkpt>
      <trkpt lat="45.96366" lon="1.09851">
        <ele>304.7</ele>
        <time>2022-10-02T07:38:12Z</time>
      </trkpt>
      <trkpt lat="45.96369" lon="1.09842">
        <ele>304.5</ele>
        <time>2022-10-02T07:38:13Z</time>
      </trkpt>
      <trkpt lat="45.96372" lon="1.09834">
        <ele>304.3</ele>
        <time>2022-10-02T07:38:14Z</time>
      </trkpt>
      <trkpt lat="45.96375" lon="1.09828">
        <ele>304.2</ele>
        <time>2022-10-02T07:38:15Z</time>
      </trkpt>
      <trkpt lat="45.96378" lon="1.0982">
        <ele>304</ele>
        <time>2022-10-02T07:38:16Z</time>
      </trkpt>
      <trkpt lat="45.96383" lon="1.09814">
        <ele>303.9</ele>
        <time>2022-10-02T07:38:17Z</time>
      </trkpt>
      <trkpt lat="45.96387" lon="1.09808">
        <ele>303.7</ele>
        <time>2022-10-02T07:38:18Z</time>
      </trkpt>
      <trkpt lat="45.9639" lon="1.09801">
        <ele>303.6</ele>
        <time>2022-10-02T07:38:19Z</time>
      </trkpt>
      <trkpt lat="45.96394" lon="1.09795">
        <ele>303.4</ele>
        <time>2022-10-02T07:38:20Z</time>
      </trkpt>
      <trkpt lat="45.96398" lon="1.09788">
        <ele>303.2</ele>
        <time>2022-10-02T07:38:21Z</time>
      </trkpt>
      <trkpt lat="45.96403" lon="1.09782">
        <ele>303</ele>
        <time>2022-10-02T07:38:22Z</time>
      </trkpt>
      <trkpt lat="45.96407" lon="1.09776">
        <ele>302.8</ele>
        <time>2022-10-02T07:38:23Z</time>
      </trkpt>
      <trkpt lat="45.96411" lon="1.0977">
        <ele>302.5</ele>
        <time>2022-10-02T07:38:24Z</time>
      </trkpt>
      <trkpt lat="45.96416" lon="1.09765">
        <ele>302.3</ele>
        <time>2022-10-02T07:38:25Z</time>
      </trkpt>
      <trkpt lat="45.96421" lon="1.0976">
        <ele>302</ele>
        <time>2022-10-02T07:38:26Z</time>
      </trkpt>
      <trkpt lat="45.96425" lon="1.09755">
        <ele>301.8</ele>
        <time>2022-10-02T07:38:27Z</time>
      </trkpt>
      <trkpt lat="45.9643" lon="1.09751">
        <ele>301.5</ele>
        <time>2022-10-02T07:38:28Z</time>
      </trkpt>
      <trkpt lat="45.96434" lon="1.09746">
        <ele>301.3</ele>
        <time>2022-10-02T07:38:29Z</time>
      </trkpt>
      <trkpt lat="45.9644" lon="1.09742">
        <ele>301</ele>
        <time>2022-10-02T07:38:30Z</time>
      </trkpt>
      <trkpt lat="45.96444" lon="1.09735">
        <ele>300.6</ele>
        <time>2022-10-02T07:38:31Z</time>
      </trkpt>
      <trkpt lat="45.9645" lon="1.09731">
        <ele>300.3</ele>
        <time>2022-10-02T07:38:32Z</time>
      </trkpt>
      <trkpt lat="45.96456" lon="1.09725">
        <ele>299.9</ele>
        <time>2022-10-02T07:38:33Z</time>
      </trkpt>
      <trkpt lat="45.96461" lon="1.09721">
        <ele>299.6</ele>
        <time>2022-10-02T07:38:34Z</time>
      </trkpt>
      <trkpt lat="45.96466" lon="1.09715">
        <ele>299.3</ele>
        <time>2022-10-02T07:38:35Z</time>
      </trkpt>
      <trkpt lat="45.96472" lon="1.09709">
        <ele>299</ele>
        <time>2022-10-02T07:38:36Z</time>
      </trkpt>
      <trkpt lat="45.96477" lon="1.09703">
        <ele>298.7</ele>
        <time>2022-10-02T07:38:37Z</time>
      </trkpt>
      <trkpt lat="45.96482" lon="1.09697">
        <ele>298.5</ele>
        <time>2022-10-02T07:38:38Z</time>
      </trkpt>
      <trkpt lat="45.96487" lon="1.09691">
        <ele>298.2</ele>
        <time>2022-10-02T07:38:39Z</time>
      </trkpt>
      <trkpt lat="45.96492" lon="1.09686">
        <ele>297.9</ele>
        <time>2022-10-02T07:38:40Z</time>
      </trkpt>
      <trkpt lat="45.96498" lon="1.09681">
        <ele>297.6</ele>
        <time>2022-10-02T07:38:41Z</time>
      </trkpt>
      <trkpt lat="45.96503" lon="1.09678">
        <ele>297.4</ele>
        <time>2022-10-02T07:38:42Z</time>
      </trkpt>
      <trkpt lat="45.96509" lon="1.09673">
        <ele>297.1</ele>
        <time>2022-10-02T07:38:43Z</time>
      </trkpt>
      <trkpt lat="45.96514" lon="1.09668">
        <ele>296.8</ele>
        <time>2022-10-02T07:38:44Z</time>
      </trkpt>
      <trkpt lat="45.96519" lon="1.09662">
        <ele>296.6</ele>
        <time>2022-10-02T07:38:45Z</time>
      </trkpt>
      <trkpt lat="45.96524" lon="1.09656">
        <ele>296.3</ele>
        <time>2022-10-02T07:38:46Z</time>
      </trkpt>
      <trkpt lat="45.96529" lon="1.09652">
        <ele>296.2</ele>
        <time>2022-10-02T07:38:47Z</time>
      </trkpt>
      <trkpt lat="45.96533" lon="1.09647">
        <ele>296</ele>
        <time>2022-10-02T07:38:48Z</time>
      </trkpt>
      <trkpt lat="45.96538" lon="1.09642">
        <ele>295.9</ele>
        <time>2022-10-02T07:38:49Z</time>
      </trkpt>
      <trkpt lat="45.96543" lon="1.09637">
        <ele>295.8</ele>
        <time>2022-10-02T07:38:50Z</time>
      </trkpt>
      <trkpt lat="45.96548" lon="1.09631">
        <ele>295.6</ele>
        <time>2022-10-02T07:38:51Z</time>
      </trkpt>
      <trkpt lat="45.96551" lon="1.09625">
        <ele>295.5</ele>
        <time>2022-10-02T07:38:52Z</time>
      </trkpt>
      <trkpt lat="45.96554" lon="1.09619">
        <ele>295.4</ele>
        <time>2022-10-02T07:38:53Z</time>
      </trkpt>
      <trkpt lat="45.9656" lon="1.09617">
        <ele>295.2</ele>
        <time>2022-10-02T07:38:54Z</time>
      </trkpt>
      <trkpt lat="45.96563" lon="1.09613">
        <ele>295.1</ele>
        <time>2022-10-02T07:38:55Z</time>
      </trkpt>
      <trkpt lat="45.96564" lon="1.09608">
        <ele>295</ele>
        <time>2022-10-02T07:38:56Z</time>
      </trkpt>
      <trkpt lat="45.96566" lon="1.09605">
        <ele>294.9</ele>
        <time>2022-10-02T07:38:57Z</time>
      </trkpt>
      <trkpt lat="45.96566" lon="1.09601">
        <ele>294.8</ele>
        <time>2022-10-02T07:38:58Z</time>
      </trkpt>
      <trkpt lat="45.96565" lon="1.09596">
        <ele>294.7</ele>
        <time>2022-10-02T07:38:59Z</time>
      </trkpt>
      <trkpt lat="45.96563" lon="1.09591">
        <ele>294.5</ele>
        <time>2022-10-02T07:39:00Z</time>
      </trkpt>
      <trkpt lat="45.9656" lon="1.09584">
        <ele>294.3</ele>
        <time>2022-10-02T07:39:01Z</time>
      </trkpt>
      <trkpt lat="45.96558" lon="1.09578">
        <ele>294.1</ele>
        <time>2022-10-02T07:39:02Z</time>
      </trkpt>
      <trkpt lat="45.96555" lon="1.09571">
        <ele>293.9</ele>
        <time>2022-10-02T07:39:03Z</time>
      </trkpt>
      <trkpt lat="45.96552" lon="1.09564">
        <ele>293.7</ele>
        <time>2022-10-02T07:39:04Z</time>
      </trkpt>
      <trkpt lat="45.96549" lon="1.09558">
        <ele>293.6</ele>
        <time>2022-10-02T07:39:05Z</time>
      </trkpt>
      <trkpt lat="45.96546" lon="1.09551">
        <ele>293.5</ele>
        <time>2022-10-02T07:39:06Z</time>
      </trkpt>
      <trkpt lat="45.96543" lon="1.09544">
        <ele>293.4</ele>
        <time>2022-10-02T07:39:07Z</time>
      </trkpt>
      <trkpt lat="45.96541" lon="1.09538">
        <ele>293.4</ele>
        <time>2022-10-02T07:39:08Z</time>
      </trkpt>
      <trkpt lat="45.96538" lon="1.09531">
        <ele>293.4</ele>
        <time>2022-10-02T07:39:09Z</time>
      </trkpt>
      <trkpt lat="45.96535" lon="1.09525">
        <ele>293.4</ele>
        <time>2022-10-02T07:39:10Z</time>
      </trkpt>
      <trkpt lat="45.96531" lon="1.09518">
        <ele>293.4</ele>
        <time>2022-10-02T07:39:11Z</time>
      </trkpt>
      <trkpt lat="45.96527" lon="1.09512">
        <ele>293.4</ele>
        <time>2022-10-02T07:39:12Z</time>
      </trkpt>
      <trkpt lat="45.96524" lon="1.09506">
        <ele>293.4</ele>
        <time>2022-10-02T07:39:13Z</time>
      </trkpt>
      <trkpt lat="45.9652" lon="1.095">
        <ele>293.5</ele>
        <time>2022-10-02T07:39:14Z</time>
      </trkpt>
      <trkpt lat="45.96517" lon="1.09494">
        <ele>293.5</ele>
        <time>2022-10-02T07:39:15Z</time>
      </trkpt>
      <trkpt lat="45.96513" lon="1.09488">
        <ele>293.5</ele>
        <time>2022-10-02T07:39:16Z</time>
      </trkpt>
      <trkpt lat="45.9651" lon="1.09481">
        <ele>293.5</ele>
        <time>2022-10-02T07:39:17Z</time>
      </trkpt>
      <trkpt lat="45.96508" lon="1.09475">
        <ele>293.5</ele>
        <time>2022-10-02T07:39:18Z</time>
      </trkpt>
      <trkpt lat="45.96504" lon="1.09469">
        <ele>293.6</ele>
        <time>2022-10-02T07:39:19Z</time>
      </trkpt>
      <trkpt lat="45.96501" lon="1.09464">
        <ele>293.6</ele>
        <time>2022-10-02T07:39:20Z</time>
      </trkpt>
      <trkpt lat="45.96499" lon="1.09459">
        <ele>293.6</ele>
        <time>2022-10-02T07:39:21Z</time>
      </trkpt>
      <trkpt lat="45.96497" lon="1.09453">
        <ele>293.6</ele>
        <time>2022-10-02T07:39:22Z</time>
      </trkpt>
      <trkpt lat="45.96495" lon="1.09447">
        <ele>293.6</ele>
        <time>2022-10-02T07:39:23Z</time>
      </trkpt>
      <trkpt lat="45.96493" lon="1.09441">
        <ele>293.6</ele>
        <time>2022-10-02T07:39:24Z</time>
      </trkpt>
      <trkpt lat="45.96492" lon="1.09435">
        <ele>293.6</ele>
        <time>2022-10-02T07:39:25Z</time>
      </trkpt>
      <trkpt lat="45.96491" lon="1.09429">
        <ele>293.6</ele>
        <time>2022-10-02T07:39:26Z</time>
      </trkpt>
      <trkpt lat="45.9649" lon="1.09424">
        <ele>293.6</ele>
        <time>2022-10-02T07:39:27Z</time>
      </trkpt>
      <trkpt lat="45.96489" lon="1.09418">
        <ele>293.6</ele>
        <time>2022-10-02T07:39:28Z</time>
      </trkpt>
      <trkpt lat="45.96488" lon="1.09412">
        <ele>293.6</ele>
        <time>2022-10-02T07:39:29Z</time>
      </trkpt>
      <trkpt lat="45.96486" lon="1.09405">
        <ele>293.6</ele>
        <time>2022-10-02T07:39:30Z</time>
      </trkpt>
      <trkpt lat="45.96486" lon="1.09398">
        <ele>293.6</ele>
        <time>2022-10-02T07:39:31Z</time>
      </trkpt>
      <trkpt lat="45.96486" lon="1.0939">
        <ele>293.5</ele>
        <time>2022-10-02T07:39:32Z</time>
      </trkpt>
      <trkpt lat="45.96484" lon="1.09382">
        <ele>293.5</ele>
        <time>2022-10-02T07:39:33Z</time>
      </trkpt>
      <trkpt lat="45.96482" lon="1.09374">
        <ele>293.5</ele>
        <time>2022-10-02T07:39:34Z</time>
      </trkpt>
      <trkpt lat="45.96481" lon="1.09366">
        <ele>293.5</ele>
        <time>2022-10-02T07:39:35Z</time>
      </trkpt>
      <trkpt lat="45.96479" lon="1.09358">
        <ele>293.6</ele>
        <time>2022-10-02T07:39:36Z</time>
      </trkpt>
      <trkpt lat="45.96477" lon="1.09351">
        <ele>293.6</ele>
        <time>2022-10-02T07:39:37Z</time>
      </trkpt>
      <trkpt lat="45.96476" lon="1.09342">
        <ele>293.6</ele>
        <time>2022-10-02T07:39:38Z</time>
      </trkpt>
      <trkpt lat="45.96476" lon="1.09333">
        <ele>293.7</ele>
        <time>2022-10-02T07:39:39Z</time>
      </trkpt>
      <trkpt lat="45.96474" lon="1.09325">
        <ele>293.7</ele>
        <time>2022-10-02T07:39:40Z</time>
      </trkpt>
      <trkpt lat="45.96473" lon="1.09318">
        <ele>293.7</ele>
        <time>2022-10-02T07:39:41Z</time>
      </trkpt>
      <trkpt lat="45.96472" lon="1.0931">
        <ele>293.7</ele>
        <time>2022-10-02T07:39:42Z</time>
      </trkpt>
      <trkpt lat="45.96472" lon="1.09301">
        <ele>293.8</ele>
        <time>2022-10-02T07:39:43Z</time>
      </trkpt>
      <trkpt lat="45.96471" lon="1.09293">
        <ele>293.8</ele>
        <time>2022-10-02T07:39:44Z</time>
      </trkpt>
      <trkpt lat="45.9647" lon="1.09285">
        <ele>293.8</ele>
        <time>2022-10-02T07:39:45Z</time>
      </trkpt>
      <trkpt lat="45.9647" lon="1.09275">
        <ele>293.8</ele>
        <time>2022-10-02T07:39:46Z</time>
      </trkpt>
      <trkpt lat="45.96471" lon="1.09267">
        <ele>293.8</ele>
        <time>2022-10-02T07:39:47Z</time>
      </trkpt>
      <trkpt lat="45.9647" lon="1.09258">
        <ele>293.8</ele>
        <time>2022-10-02T07:39:48Z</time>
      </trkpt>
      <trkpt lat="45.96469" lon="1.09249">
        <ele>293.8</ele>
        <time>2022-10-02T07:39:49Z</time>
      </trkpt>
      <trkpt lat="45.96468" lon="1.09242">
        <ele>293.8</ele>
        <time>2022-10-02T07:39:50Z</time>
      </trkpt>
      <trkpt lat="45.96467" lon="1.09234">
        <ele>293.8</ele>
        <time>2022-10-02T07:39:51Z</time>
      </trkpt>
      <trkpt lat="45.96466" lon="1.09225">
        <ele>293.8</ele>
        <time>2022-10-02T07:39:52Z</time>
      </trkpt>
      <trkpt lat="45.96465" lon="1.09217">
        <ele>293.9</ele>
        <time>2022-10-02T07:39:53Z</time>
      </trkpt>
      <trkpt lat="45.96462" lon="1.09209">
        <ele>293.9</ele>
        <time>2022-10-02T07:39:54Z</time>
      </trkpt>
      <trkpt lat="45.9646" lon="1.09202">
        <ele>293.9</ele>
        <time>2022-10-02T07:39:55Z</time>
      </trkpt>
      <trkpt lat="45.96458" lon="1.09194">
        <ele>293.9</ele>
        <time>2022-10-02T07:39:56Z</time>
      </trkpt>
      <trkpt lat="45.96457" lon="1.09186">
        <ele>293.9</ele>
        <time>2022-10-02T07:39:57Z</time>
      </trkpt>
      <trkpt lat="45.96456" lon="1.09177">
        <ele>293.8</ele>
        <time>2022-10-02T07:39:58Z</time>
      </trkpt>
      <trkpt lat="45.96455" lon="1.09169">
        <ele>293.8</ele>
        <time>2022-10-02T07:39:59Z</time>
      </trkpt>
      <trkpt lat="45.96454" lon="1.09162">
        <ele>293.7</ele>
        <time>2022-10-02T07:40:00Z</time>
      </trkpt>
      <trkpt lat="45.96454" lon="1.09154">
        <ele>293.7</ele>
        <time>2022-10-02T07:40:01Z</time>
      </trkpt>
      <trkpt lat="45.96453" lon="1.09147">
        <ele>293.6</ele>
        <time>2022-10-02T07:40:02Z</time>
      </trkpt>
      <trkpt lat="45.96454" lon="1.09139">
        <ele>293.6</ele>
        <time>2022-10-02T07:40:03Z</time>
      </trkpt>
      <trkpt lat="45.96459" lon="1.09138">
        <ele>293.6</ele>
        <time>2022-10-02T07:40:04Z</time>
      </trkpt>
      <trkpt lat="45.96462" lon="1.09135">
        <ele>293.6</ele>
        <time>2022-10-02T07:40:05Z</time>
      </trkpt>
      <trkpt lat="45.96466" lon="1.09133">
        <ele>293.6</ele>
        <time>2022-10-02T07:40:06Z</time>
      </trkpt>
      <trkpt lat="45.96473" lon="1.09132">
        <ele>293.6</ele>
        <time>2022-10-02T07:40:07Z</time>
      </trkpt>
      <trkpt lat="45.96479" lon="1.09131">
        <ele>293.7</ele>
        <time>2022-10-02T07:40:08Z</time>
      </trkpt>
      <trkpt lat="45.96484" lon="1.09132">
        <ele>293.7</ele>
        <time>2022-10-02T07:40:09Z</time>
      </trkpt>
      <trkpt lat="45.96491" lon="1.09134">
        <ele>293.8</ele>
        <time>2022-10-02T07:40:10Z</time>
      </trkpt>
      <trkpt lat="45.96497" lon="1.09136">
        <ele>293.9</ele>
        <time>2022-10-02T07:40:11Z</time>
      </trkpt>
      <trkpt lat="45.96502" lon="1.09137">
        <ele>294</ele>
        <time>2022-10-02T07:40:12Z</time>
      </trkpt>
      <trkpt lat="45.96507" lon="1.0914">
        <ele>294.2</ele>
        <time>2022-10-02T07:40:13Z</time>
      </trkpt>
      <trkpt lat="45.96512" lon="1.09142">
        <ele>294.4</ele>
        <time>2022-10-02T07:40:14Z</time>
      </trkpt>
      <trkpt lat="45.96516" lon="1.09144">
        <ele>294.7</ele>
        <time>2022-10-02T07:40:15Z</time>
      </trkpt>
      <trkpt lat="45.96522" lon="1.09143">
        <ele>295.1</ele>
        <time>2022-10-02T07:40:16Z</time>
      </trkpt>
      <trkpt lat="45.96528" lon="1.09142">
        <ele>295.5</ele>
        <time>2022-10-02T07:40:17Z</time>
      </trkpt>
      <trkpt lat="45.96533" lon="1.09136">
        <ele>296.2</ele>
        <time>2022-10-02T07:40:18Z</time>
      </trkpt>
      <trkpt lat="45.96538" lon="1.09133">
        <ele>296.7</ele>
        <time>2022-10-02T07:40:19Z</time>
      </trkpt>
      <trkpt lat="45.96542" lon="1.09129">
        <ele>297.2</ele>
        <time>2022-10-02T07:40:20Z</time>
      </trkpt>
      <trkpt lat="45.96545" lon="1.09124">
        <ele>297.7</ele>
        <time>2022-10-02T07:40:21Z</time>
      </trkpt>
      <trkpt lat="45.9655" lon="1.0912">
        <ele>298.2</ele>
        <time>2022-10-02T07:40:22Z</time>
      </trkpt>
      <trkpt lat="45.96555" lon="1.09116">
        <ele>298.8</ele>
        <time>2022-10-02T07:40:23Z</time>
      </trkpt>
      <trkpt lat="45.96559" lon="1.09112">
        <ele>299.3</ele>
        <time>2022-10-02T07:40:24Z</time>
      </trkpt>
      <trkpt lat="45.96564" lon="1.09107">
        <ele>299.9</ele>
        <time>2022-10-02T07:40:25Z</time>
      </trkpt>
      <trkpt lat="45.96569" lon="1.09103">
        <ele>300.4</ele>
        <time>2022-10-02T07:40:26Z</time>
      </trkpt>
      <trkpt lat="45.96574" lon="1.09097">
        <ele>301</ele>
        <time>2022-10-02T07:40:27Z</time>
      </trkpt>
      <trkpt lat="45.96578" lon="1.09093">
        <ele>301.5</ele>
        <time>2022-10-02T07:40:28Z</time>
      </trkpt>
      <trkpt lat="45.96582" lon="1.09089">
        <ele>302</ele>
        <time>2022-10-02T07:40:29Z</time>
      </trkpt>
      <trkpt lat="45.96586" lon="1.09085">
        <ele>302.4</ele>
        <time>2022-10-02T07:40:30Z</time>
      </trkpt>
      <trkpt lat="45.9659" lon="1.09079">
        <ele>303</ele>
        <time>2022-10-02T07:40:31Z</time>
      </trkpt>
      <trkpt lat="45.96593" lon="1.09075">
        <ele>303.5</ele>
        <time>2022-10-02T07:40:32Z</time>
      </trkpt>
      <trkpt lat="45.96597" lon="1.09071">
        <ele>304</ele>
        <time>2022-10-02T07:40:33Z</time>
      </trkpt>
      <trkpt lat="45.96602" lon="1.09068">
        <ele>304.5</ele>
        <time>2022-10-02T07:40:34Z</time>
      </trkpt>
      <trkpt lat="45.96606" lon="1.09065">
        <ele>305</ele>
        <time>2022-10-02T07:40:35Z</time>
      </trkpt>
      <trkpt lat="45.96609" lon="1.09063">
        <ele>305.3</ele>
        <time>2022-10-02T07:40:36Z</time>
      </trkpt>
      <trkpt lat="45.96612" lon="1.09059">
        <ele>305.8</ele>
        <time>2022-10-02T07:40:37Z</time>
      </trkpt>
      <trkpt lat="45.96617" lon="1.09055">
        <ele>306.4</ele>
        <time>2022-10-02T07:40:38Z</time>
      </trkpt>
      <trkpt lat="45.96618" lon="1.09052">
        <ele>306.6</ele>
        <time>2022-10-02T07:40:39Z</time>
      </trkpt>
      <trkpt lat="45.96622" lon="1.09049">
        <ele>307.1</ele>
        <time>2022-10-02T07:40:40Z</time>
      </trkpt>
      <trkpt lat="45.96626" lon="1.09046">
        <ele>307.6</ele>
        <time>2022-10-02T07:40:41Z</time>
      </trkpt>
      <trkpt lat="45.96629" lon="1.09046">
        <ele>307.9</ele>
        <time>2022-10-02T07:40:42Z</time>
      </trkpt>
      <trkpt lat="45.96633" lon="1.09042">
        <ele>308.5</ele>
        <time>2022-10-02T07:40:43Z</time>
      </trkpt>
      <trkpt lat="45.96636" lon="1.0904">
        <ele>308.9</ele>
        <time>2022-10-02T07:40:44Z</time>
      </trkpt>
      <trkpt lat="45.96638" lon="1.09035">
        <ele>309.2</ele>
        <time>2022-10-02T07:40:45Z</time>
      </trkpt>
      <trkpt lat="45.9664" lon="1.09032">
        <ele>309.5</ele>
        <time>2022-10-02T07:40:46Z</time>
      </trkpt>
      <trkpt lat="45.96642" lon="1.09027">
        <ele>309.9</ele>
        <time>2022-10-02T07:40:47Z</time>
      </trkpt>
      <trkpt lat="45.96642" lon="1.09024">
        <ele>310.1</ele>
        <time>2022-10-02T07:40:48Z</time>
      </trkpt>
      <trkpt lat="45.96642" lon="1.09019">
        <ele>310.4</ele>
        <time>2022-10-02T07:40:49Z</time>
      </trkpt>
      <trkpt lat="45.96641" lon="1.09013">
        <ele>310.8</ele>
        <time>2022-10-02T07:40:50Z</time>
      </trkpt>
      <trkpt lat="45.9664" lon="1.09006">
        <ele>311.2</ele>
        <time>2022-10-02T07:40:51Z</time>
      </trkpt>
      <trkpt lat="45.96641" lon="1.08997">
        <ele>311.7</ele>
        <time>2022-10-02T07:40:52Z</time>
      </trkpt>
      <trkpt lat="45.96643" lon="1.08991">
        <ele>311.9</ele>
        <time>2022-10-02T07:40:53Z</time>
      </trkpt>
      <trkpt lat="45.96645" lon="1.08986">
        <ele>312.2</ele>
        <time>2022-10-02T07:40:54Z</time>
      </trkpt>
      <trkpt lat="45.96645" lon="1.0898">
        <ele>312.4</ele>
        <time>2022-10-02T07:40:55Z</time>
      </trkpt>
      <trkpt lat="45.96647" lon="1.08974">
        <ele>312.6</ele>
        <time>2022-10-02T07:40:56Z</time>
      </trkpt>
      <trkpt lat="45.96648" lon="1.08967">
        <ele>312.7</ele>
        <time>2022-10-02T07:40:57Z</time>
      </trkpt>
      <trkpt lat="45.9665" lon="1.08961">
        <ele>312.8</ele>
        <time>2022-10-02T07:40:58Z</time>
      </trkpt>
      <trkpt lat="45.96652" lon="1.08955">
        <ele>312.9</ele>
        <time>2022-10-02T07:40:59Z</time>
      </trkpt>
      <trkpt lat="45.96654" lon="1.08949">
        <ele>313</ele>
        <time>2022-10-02T07:41:00Z</time>
      </trkpt>
      <trkpt lat="45.96655" lon="1.08942">
        <ele>313</ele>
        <time>2022-10-02T07:41:01Z</time>
      </trkpt>
      <trkpt lat="45.96657" lon="1.08934">
        <ele>312.9</ele>
        <time>2022-10-02T07:41:02Z</time>
      </trkpt>
      <trkpt lat="45.96658" lon="1.08926">
        <ele>312.9</ele>
        <time>2022-10-02T07:41:03Z</time>
      </trkpt>
      <trkpt lat="45.9666" lon="1.08919">
        <ele>312.8</ele>
        <time>2022-10-02T07:41:04Z</time>
      </trkpt>
      <trkpt lat="45.96664" lon="1.08913">
        <ele>312.7</ele>
        <time>2022-10-02T07:41:05Z</time>
      </trkpt>
      <trkpt lat="45.96667" lon="1.08909">
        <ele>312.5</ele>
        <time>2022-10-02T07:41:06Z</time>
      </trkpt>
      <trkpt lat="45.96671" lon="1.08906">
        <ele>312.4</ele>
        <time>2022-10-02T07:41:07Z</time>
      </trkpt>
      <trkpt lat="45.96677" lon="1.08907">
        <ele>312.2</ele>
        <time>2022-10-02T07:41:08Z</time>
      </trkpt>
      <trkpt lat="45.96681" lon="1.08907">
        <ele>312.1</ele>
        <time>2022-10-02T07:41:09Z</time>
      </trkpt>
      <trkpt lat="45.96687" lon="1.08908">
        <ele>311.9</ele>
        <time>2022-10-02T07:41:10Z</time>
      </trkpt>
      <trkpt lat="45.96693" lon="1.08912">
        <ele>311.7</ele>
        <time>2022-10-02T07:41:11Z</time>
      </trkpt>
      <trkpt lat="45.96698" lon="1.08914">
        <ele>311.4</ele>
        <time>2022-10-02T07:41:12Z</time>
      </trkpt>
      <trkpt lat="45.96704" lon="1.08918">
        <ele>311.1</ele>
        <time>2022-10-02T07:41:13Z</time>
      </trkpt>
      <trkpt lat="45.96709" lon="1.08921">
        <ele>310.9</ele>
        <time>2022-10-02T07:41:14Z</time>
      </trkpt>
      <trkpt lat="45.96715" lon="1.08924">
        <ele>310.6</ele>
        <time>2022-10-02T07:41:15Z</time>
      </trkpt>
      <trkpt lat="45.96721" lon="1.08926">
        <ele>310.3</ele>
        <time>2022-10-02T07:41:16Z</time>
      </trkpt>
      <trkpt lat="45.96727" lon="1.08927">
        <ele>310</ele>
        <time>2022-10-02T07:41:17Z</time>
      </trkpt>
      <trkpt lat="45.96733" lon="1.08929">
        <ele>310</ele>
        <time>2022-10-02T07:41:18Z</time>
      </trkpt>
      <trkpt lat="45.96739" lon="1.0893">
        <ele>309.7</ele>
        <time>2022-10-02T07:41:19Z</time>
      </trkpt>
      <trkpt lat="45.96746" lon="1.0893">
        <ele>309.7</ele>
        <time>2022-10-02T07:41:20Z</time>
      </trkpt>
      <trkpt lat="45.96753" lon="1.08929">
        <ele>309.3</ele>
        <time>2022-10-02T07:41:21Z</time>
      </trkpt>
      <trkpt lat="45.9676" lon="1.0893">
        <ele>309.2</ele>
        <time>2022-10-02T07:41:22Z</time>
      </trkpt>
      <trkpt lat="45.96768" lon="1.0893">
        <ele>308.7</ele>
        <time>2022-10-02T07:41:23Z</time>
      </trkpt>
      <trkpt lat="45.96776" lon="1.0893">
        <ele>307.7</ele>
        <time>2022-10-02T07:41:24Z</time>
      </trkpt>
      <trkpt lat="45.96784" lon="1.08929">
        <ele>307.7</ele>
        <time>2022-10-02T07:41:25Z</time>
      </trkpt>
      <trkpt lat="45.96793" lon="1.08928">
        <ele>306.7</ele>
        <time>2022-10-02T07:41:26Z</time>
      </trkpt>
      <trkpt lat="45.968" lon="1.08931">
        <ele>305.6</ele>
        <time>2022-10-02T07:41:27Z</time>
      </trkpt>
      <trkpt lat="45.96805" lon="1.08934">
        <ele>305.6</ele>
        <time>2022-10-02T07:41:28Z</time>
      </trkpt>
      <trkpt lat="45.96814" lon="1.08935">
        <ele>304.4</ele>
        <time>2022-10-02T07:41:29Z</time>
      </trkpt>
      <trkpt lat="45.96822" lon="1.08935">
        <ele>303.3</ele>
        <time>2022-10-02T07:41:30Z</time>
      </trkpt>
      <trkpt lat="45.96828" lon="1.08935">
        <ele>303.3</ele>
        <time>2022-10-02T07:41:31Z</time>
      </trkpt>
      <trkpt lat="45.96835" lon="1.08935">
        <ele>301.9</ele>
        <time>2022-10-02T07:41:32Z</time>
      </trkpt>
      <trkpt lat="45.96841" lon="1.08935">
        <ele>301.9</ele>
        <time>2022-10-02T07:41:33Z</time>
      </trkpt>
      <trkpt lat="45.96847" lon="1.08934">
        <ele>300.7</ele>
        <time>2022-10-02T07:41:34Z</time>
      </trkpt>
      <trkpt lat="45.96854" lon="1.08935">
        <ele>300.7</ele>
        <time>2022-10-02T07:41:35Z</time>
      </trkpt>
      <trkpt lat="45.9686" lon="1.08934">
        <ele>299.6</ele>
        <time>2022-10-02T07:41:36Z</time>
      </trkpt>
      <trkpt lat="45.96866" lon="1.08934">
        <ele>299.6</ele>
        <time>2022-10-02T07:41:37Z</time>
      </trkpt>
      <trkpt lat="45.96873" lon="1.08933">
        <ele>298.7</ele>
        <time>2022-10-02T07:41:38Z</time>
      </trkpt>
      <trkpt lat="45.96877" lon="1.08933">
        <ele>298.7</ele>
        <time>2022-10-02T07:41:39Z</time>
      </trkpt>
      <trkpt lat="45.96884" lon="1.0893">
        <ele>298</ele>
        <time>2022-10-02T07:41:40Z</time>
      </trkpt>
      <trkpt lat="45.96894" lon="1.08928">
        <ele>297.8</ele>
        <time>2022-10-02T07:41:42Z</time>
      </trkpt>
      <trkpt lat="45.96898" lon="1.08928">
        <ele>297.8</ele>
        <time>2022-10-02T07:41:43Z</time>
      </trkpt>
      <trkpt lat="45.96903" lon="1.08929">
        <ele>297.8</ele>
        <time>2022-10-02T07:41:44Z</time>
      </trkpt>
      <trkpt lat="45.96908" lon="1.08931">
        <ele>298</ele>
        <time>2022-10-02T07:41:45Z</time>
      </trkpt>
      <trkpt lat="45.96914" lon="1.0893">
        <ele>298</ele>
        <time>2022-10-02T07:41:46Z</time>
      </trkpt>
      <trkpt lat="45.96917" lon="1.08929">
        <ele>298.5</ele>
        <time>2022-10-02T07:41:47Z</time>
      </trkpt>
      <trkpt lat="45.96922" lon="1.08931">
        <ele>298.5</ele>
        <time>2022-10-02T07:41:48Z</time>
      </trkpt>
      <trkpt lat="45.96927" lon="1.08931">
        <ele>298.5</ele>
        <time>2022-10-02T07:41:49Z</time>
      </trkpt>
      <trkpt lat="45.96932" lon="1.08932">
        <ele>299.1</ele>
        <time>2022-10-02T07:41:50Z</time>
      </trkpt>
      <trkpt lat="45.96938" lon="1.08935">
        <ele>299.1</ele>
        <time>2022-10-02T07:41:51Z</time>
      </trkpt>
      <trkpt lat="45.96943" lon="1.08936">
        <ele>299.7</ele>
        <time>2022-10-02T07:41:52Z</time>
      </trkpt>
      <trkpt lat="45.96948" lon="1.08938">
        <ele>303.6</ele>
        <time>2022-10-02T07:41:53Z</time>
      </trkpt>
      <trkpt lat="45.96954" lon="1.08937">
        <ele>304.3</ele>
        <time>2022-10-02T07:41:54Z</time>
      </trkpt>
      <trkpt lat="45.96961" lon="1.08938">
        <ele>304.3</ele>
        <time>2022-10-02T07:41:55Z</time>
      </trkpt>
      <trkpt lat="45.96965" lon="1.08938">
        <ele>305.1</ele>
        <time>2022-10-02T07:41:56Z</time>
      </trkpt>
      <trkpt lat="45.96971" lon="1.08937">
        <ele>305.1</ele>
        <time>2022-10-02T07:41:57Z</time>
      </trkpt>
      <trkpt lat="45.9698" lon="1.08937">
        <ele>305.9</ele>
        <time>2022-10-02T07:41:58Z</time>
      </trkpt>
      <trkpt lat="45.96984" lon="1.08934">
        <ele>301.5</ele>
        <time>2022-10-02T07:41:59Z</time>
      </trkpt>
      <trkpt lat="45.9699" lon="1.08933">
        <ele>301.9</ele>
        <time>2022-10-02T07:42:00Z</time>
      </trkpt>
      <trkpt lat="45.96995" lon="1.08934">
        <ele>301.9</ele>
        <time>2022-10-02T07:42:01Z</time>
      </trkpt>
      <trkpt lat="45.97001" lon="1.08936">
        <ele>302.3</ele>
        <time>2022-10-02T07:42:02Z</time>
      </trkpt>
      <trkpt lat="45.97008" lon="1.08936">
        <ele>302.3</ele>
        <time>2022-10-02T07:42:03Z</time>
      </trkpt>
      <trkpt lat="45.97011" lon="1.08936">
        <ele>302.3</ele>
        <time>2022-10-02T07:42:04Z</time>
      </trkpt>
      <trkpt lat="45.97015" lon="1.08936">
        <ele>302.6</ele>
        <time>2022-10-02T07:42:05Z</time>
      </trkpt>
      <trkpt lat="45.97019" lon="1.08936">
        <ele>302.6</ele>
        <time>2022-10-02T07:42:06Z</time>
      </trkpt>
      <trkpt lat="45.97025" lon="1.08937">
        <ele>308.2</ele>
        <time>2022-10-02T07:42:07Z</time>
      </trkpt>
      <trkpt lat="45.9703" lon="1.08938">
        <ele>308.1</ele>
        <time>2022-10-02T07:42:08Z</time>
      </trkpt>
      <trkpt lat="45.97036" lon="1.08938">
        <ele>308.1</ele>
        <time>2022-10-02T07:42:09Z</time>
      </trkpt>
      <trkpt lat="45.97041" lon="1.08939">
        <ele>308.6</ele>
        <time>2022-10-02T07:42:10Z</time>
      </trkpt>
      <trkpt lat="45.97049" lon="1.08938">
        <ele>309.1</ele>
        <time>2022-10-02T07:42:11Z</time>
      </trkpt>
      <trkpt lat="45.97055" lon="1.08936">
        <ele>304.6</ele>
        <time>2022-10-02T07:42:12Z</time>
      </trkpt>
      <trkpt lat="45.9706" lon="1.08936">
        <ele>304.6</ele>
        <time>2022-10-02T07:42:13Z</time>
      </trkpt>
      <trkpt lat="45.97066" lon="1.08938">
        <ele>309.5</ele>
        <time>2022-10-02T07:42:14Z</time>
      </trkpt>
      <trkpt lat="45.97071" lon="1.08938">
        <ele>309.5</ele>
        <time>2022-10-02T07:42:15Z</time>
      </trkpt>
      <trkpt lat="45.97078" lon="1.08939">
        <ele>310</ele>
        <time>2022-10-02T07:42:16Z</time>
      </trkpt>
      <trkpt lat="45.97084" lon="1.0894">
        <ele>310.6</ele>
        <time>2022-10-02T07:42:17Z</time>
      </trkpt>
      <trkpt lat="45.97091" lon="1.08941">
        <ele>310.5</ele>
        <time>2022-10-02T07:42:18Z</time>
      </trkpt>
      <trkpt lat="45.97098" lon="1.08943">
        <ele>310.8</ele>
        <time>2022-10-02T07:42:19Z</time>
      </trkpt>
      <trkpt lat="45.971" lon="1.08945">
        <ele>310.8</ele>
        <time>2022-10-02T07:42:20Z</time>
      </trkpt>
      <trkpt lat="45.97108" lon="1.08944">
        <ele>310.8</ele>
        <time>2022-10-02T07:42:21Z</time>
      </trkpt>
      <trkpt lat="45.97114" lon="1.08944">
        <ele>311</ele>
        <time>2022-10-02T07:42:22Z</time>
      </trkpt>
      <trkpt lat="45.97119" lon="1.08943">
        <ele>311</ele>
        <time>2022-10-02T07:42:23Z</time>
      </trkpt>
      <trkpt lat="45.97125" lon="1.08942">
        <ele>311</ele>
        <time>2022-10-02T07:42:24Z</time>
      </trkpt>
      <trkpt lat="45.9713" lon="1.0894">
        <ele>311</ele>
        <time>2022-10-02T07:42:25Z</time>
      </trkpt>
      <trkpt lat="45.97137" lon="1.08939">
        <ele>311.2</ele>
        <time>2022-10-02T07:42:26Z</time>
      </trkpt>
      <trkpt lat="45.97143" lon="1.08938">
        <ele>311.1</ele>
        <time>2022-10-02T07:42:27Z</time>
      </trkpt>
      <trkpt lat="45.9715" lon="1.08937">
        <ele>311.5</ele>
        <time>2022-10-02T07:42:28Z</time>
      </trkpt>
      <trkpt lat="45.97157" lon="1.08937">
        <ele>311.8</ele>
        <time>2022-10-02T07:42:29Z</time>
      </trkpt>
      <trkpt lat="45.97163" lon="1.08938">
        <ele>311.8</ele>
        <time>2022-10-02T07:42:30Z</time>
      </trkpt>
      <trkpt lat="45.97169" lon="1.08938">
        <ele>312.4</ele>
        <time>2022-10-02T07:42:31Z</time>
      </trkpt>
      <trkpt lat="45.97175" lon="1.08938">
        <ele>312.4</ele>
        <time>2022-10-02T07:42:32Z</time>
      </trkpt>
      <trkpt lat="45.9718" lon="1.08938">
        <ele>313</ele>
        <time>2022-10-02T07:42:33Z</time>
      </trkpt>
      <trkpt lat="45.97184" lon="1.08939">
        <ele>313</ele>
        <time>2022-10-02T07:42:34Z</time>
      </trkpt>
      <trkpt lat="45.9719" lon="1.08938">
        <ele>313</ele>
        <time>2022-10-02T07:42:35Z</time>
      </trkpt>
      <trkpt lat="45.97197" lon="1.08938">
        <ele>313.7</ele>
        <time>2022-10-02T07:42:36Z</time>
      </trkpt>
      <trkpt lat="45.97203" lon="1.08938">
        <ele>313.6</ele>
        <time>2022-10-02T07:42:37Z</time>
      </trkpt>
      <trkpt lat="45.97209" lon="1.08938">
        <ele>314.2</ele>
        <time>2022-10-02T07:42:38Z</time>
      </trkpt>
      <trkpt lat="45.97215" lon="1.08938">
        <ele>314.8</ele>
        <time>2022-10-02T07:42:39Z</time>
      </trkpt>
      <trkpt lat="45.97221" lon="1.08939">
        <ele>314.8</ele>
        <time>2022-10-02T07:42:40Z</time>
      </trkpt>
      <trkpt lat="45.97226" lon="1.0894">
        <ele>314.8</ele>
        <time>2022-10-02T07:42:41Z</time>
      </trkpt>
      <trkpt lat="45.97231" lon="1.0894">
        <ele>315.3</ele>
        <time>2022-10-02T07:42:42Z</time>
      </trkpt>
      <trkpt lat="45.97235" lon="1.0894">
        <ele>315.3</ele>
        <time>2022-10-02T07:42:43Z</time>
      </trkpt>
      <trkpt lat="45.9724" lon="1.08941">
        <ele>315.8</ele>
        <time>2022-10-02T07:42:44Z</time>
      </trkpt>
      <trkpt lat="45.97245" lon="1.08943">
        <ele>315.8</ele>
        <time>2022-10-02T07:42:45Z</time>
      </trkpt>
      <trkpt lat="45.97251" lon="1.08946">
        <ele>315.9</ele>
        <time>2022-10-02T07:42:46Z</time>
      </trkpt>
      <trkpt lat="45.97256" lon="1.08946">
        <ele>316.1</ele>
        <time>2022-10-02T07:42:47Z</time>
      </trkpt>
      <trkpt lat="45.97261" lon="1.08947">
        <ele>316.3</ele>
        <time>2022-10-02T07:42:48Z</time>
      </trkpt>
      <trkpt lat="45.97267" lon="1.08948">
        <ele>316.5</ele>
        <time>2022-10-02T07:42:49Z</time>
      </trkpt>
      <trkpt lat="45.97272" lon="1.08947">
        <ele>316.7</ele>
        <time>2022-10-02T07:42:50Z</time>
      </trkpt>
      <trkpt lat="45.97277" lon="1.08947">
        <ele>316.9</ele>
        <time>2022-10-02T07:42:51Z</time>
      </trkpt>
      <trkpt lat="45.97283" lon="1.08947">
        <ele>317.1</ele>
        <time>2022-10-02T07:42:52Z</time>
      </trkpt>
      <trkpt lat="45.97288" lon="1.08946">
        <ele>317.3</ele>
        <time>2022-10-02T07:42:53Z</time>
      </trkpt>
      <trkpt lat="45.97293" lon="1.08947">
        <ele>317.5</ele>
        <time>2022-10-02T07:42:54Z</time>
      </trkpt>
      <trkpt lat="45.97299" lon="1.08948">
        <ele>317.8</ele>
        <time>2022-10-02T07:42:55Z</time>
      </trkpt>
      <trkpt lat="45.97306" lon="1.08949">
        <ele>318.2</ele>
        <time>2022-10-02T07:42:56Z</time>
      </trkpt>
      <trkpt lat="45.97312" lon="1.08951">
        <ele>318.5</ele>
        <time>2022-10-02T07:42:57Z</time>
      </trkpt>
      <trkpt lat="45.97319" lon="1.08953">
        <ele>318.9</ele>
        <time>2022-10-02T07:42:58Z</time>
      </trkpt>
      <trkpt lat="45.97323" lon="1.08954">
        <ele>319.1</ele>
        <time>2022-10-02T07:42:59Z</time>
      </trkpt>
      <trkpt lat="45.97328" lon="1.08954">
        <ele>319.4</ele>
        <time>2022-10-02T07:43:00Z</time>
      </trkpt>
      <trkpt lat="45.97332" lon="1.08954">
        <ele>319.6</ele>
        <time>2022-10-02T07:43:01Z</time>
      </trkpt>
      <trkpt lat="45.97337" lon="1.08953">
        <ele>319.8</ele>
        <time>2022-10-02T07:43:02Z</time>
      </trkpt>
      <trkpt lat="45.97343" lon="1.08949">
        <ele>320</ele>
        <time>2022-10-02T07:43:03Z</time>
      </trkpt>
      <trkpt lat="45.97348" lon="1.08946">
        <ele>320.2</ele>
        <time>2022-10-02T07:43:04Z</time>
      </trkpt>
      <trkpt lat="45.97353" lon="1.08944">
        <ele>320.3</ele>
        <time>2022-10-02T07:43:05Z</time>
      </trkpt>
      <trkpt lat="45.97356" lon="1.08942">
        <ele>320.4</ele>
        <time>2022-10-02T07:43:06Z</time>
      </trkpt>
      <trkpt lat="45.97362" lon="1.0894">
        <ele>320.5</ele>
        <time>2022-10-02T07:43:07Z</time>
      </trkpt>
      <trkpt lat="45.97366" lon="1.0894">
        <ele>320.5</ele>
        <time>2022-10-02T07:43:08Z</time>
      </trkpt>
      <trkpt lat="45.97371" lon="1.08939">
        <ele>320.6</ele>
        <time>2022-10-02T07:43:09Z</time>
      </trkpt>
      <trkpt lat="45.97376" lon="1.08939">
        <ele>320.5</ele>
        <time>2022-10-02T07:43:10Z</time>
      </trkpt>
      <trkpt lat="45.97381" lon="1.0894">
        <ele>320.5</ele>
        <time>2022-10-02T07:43:11Z</time>
      </trkpt>
      <trkpt lat="45.97386" lon="1.0894">
        <ele>320.5</ele>
        <time>2022-10-02T07:43:12Z</time>
      </trkpt>
      <trkpt lat="45.9739" lon="1.08938">
        <ele>320.4</ele>
        <time>2022-10-02T07:43:13Z</time>
      </trkpt>
      <trkpt lat="45.97395" lon="1.08933">
        <ele>320.3</ele>
        <time>2022-10-02T07:43:14Z</time>
      </trkpt>
      <trkpt lat="45.97401" lon="1.08933">
        <ele>320.2</ele>
        <time>2022-10-02T07:43:15Z</time>
      </trkpt>
      <trkpt lat="45.97407" lon="1.08931">
        <ele>320.1</ele>
        <time>2022-10-02T07:43:16Z</time>
      </trkpt>
      <trkpt lat="45.97412" lon="1.08929">
        <ele>319.9</ele>
        <time>2022-10-02T07:43:17Z</time>
      </trkpt>
      <trkpt lat="45.97417" lon="1.08925">
        <ele>319.8</ele>
        <time>2022-10-02T07:43:18Z</time>
      </trkpt>
      <trkpt lat="45.97422" lon="1.08923">
        <ele>319.7</ele>
        <time>2022-10-02T07:43:19Z</time>
      </trkpt>
      <trkpt lat="45.97428" lon="1.08918">
        <ele>319.5</ele>
        <time>2022-10-02T07:43:20Z</time>
      </trkpt>
      <trkpt lat="45.97435" lon="1.08913">
        <ele>319.3</ele>
        <time>2022-10-02T07:43:21Z</time>
      </trkpt>
      <trkpt lat="45.97442" lon="1.08913">
        <ele>319.2</ele>
        <time>2022-10-02T07:43:22Z</time>
      </trkpt>
      <trkpt lat="45.97449" lon="1.08909">
        <ele>319</ele>
        <time>2022-10-02T07:43:23Z</time>
      </trkpt>
      <trkpt lat="45.97454" lon="1.08907">
        <ele>318.9</ele>
        <time>2022-10-02T07:43:24Z</time>
      </trkpt>
      <trkpt lat="45.97458" lon="1.08904">
        <ele>318.8</ele>
        <time>2022-10-02T07:43:25Z</time>
      </trkpt>
      <trkpt lat="45.97464" lon="1.089">
        <ele>318.7</ele>
        <time>2022-10-02T07:43:26Z</time>
      </trkpt>
      <trkpt lat="45.97469" lon="1.08897">
        <ele>318.6</ele>
        <time>2022-10-02T07:43:27Z</time>
      </trkpt>
      <trkpt lat="45.97472" lon="1.08893">
        <ele>318.5</ele>
        <time>2022-10-02T07:43:28Z</time>
      </trkpt>
      <trkpt lat="45.97476" lon="1.08888">
        <ele>318.3</ele>
        <time>2022-10-02T07:43:29Z</time>
      </trkpt>
      <trkpt lat="45.97481" lon="1.08885">
        <ele>318.2</ele>
        <time>2022-10-02T07:43:30Z</time>
      </trkpt>
      <trkpt lat="45.97486" lon="1.0888">
        <ele>318.1</ele>
        <time>2022-10-02T07:43:31Z</time>
      </trkpt>
      <trkpt lat="45.97491" lon="1.08876">
        <ele>318</ele>
        <time>2022-10-02T07:43:32Z</time>
      </trkpt>
      <trkpt lat="45.975" lon="1.08868">
        <ele>317.9</ele>
        <time>2022-10-02T07:43:33Z</time>
      </trkpt>
      <trkpt lat="45.97503" lon="1.08864">
        <ele>317.8</ele>
        <time>2022-10-02T07:43:34Z</time>
      </trkpt>
      <trkpt lat="45.97507" lon="1.08858">
        <ele>317.7</ele>
        <time>2022-10-02T07:43:35Z</time>
      </trkpt>
      <trkpt lat="45.97511" lon="1.08852">
        <ele>317.7</ele>
        <time>2022-10-02T07:43:36Z</time>
      </trkpt>
      <trkpt lat="45.97514" lon="1.08846">
        <ele>317.6</ele>
        <time>2022-10-02T07:43:37Z</time>
      </trkpt>
      <trkpt lat="45.97518" lon="1.08839">
        <ele>317.6</ele>
        <time>2022-10-02T07:43:38Z</time>
      </trkpt>
      <trkpt lat="45.97521" lon="1.08834">
        <ele>317.6</ele>
        <time>2022-10-02T07:43:39Z</time>
      </trkpt>
      <trkpt lat="45.97525" lon="1.08827">
        <ele>317.5</ele>
        <time>2022-10-02T07:43:40Z</time>
      </trkpt>
      <trkpt lat="45.97527" lon="1.0882">
        <ele>317.5</ele>
        <time>2022-10-02T07:43:41Z</time>
      </trkpt>
      <trkpt lat="45.9753" lon="1.08813">
        <ele>317.4</ele>
        <time>2022-10-02T07:43:42Z</time>
      </trkpt>
      <trkpt lat="45.97532" lon="1.08805">
        <ele>317.4</ele>
        <time>2022-10-02T07:43:43Z</time>
      </trkpt>
      <trkpt lat="45.97533" lon="1.08797">
        <ele>317.4</ele>
        <time>2022-10-02T07:43:44Z</time>
      </trkpt>
      <trkpt lat="45.97535" lon="1.0879">
        <ele>317.4</ele>
        <time>2022-10-02T07:43:45Z</time>
      </trkpt>
      <trkpt lat="45.97537" lon="1.08782">
        <ele>317.4</ele>
        <time>2022-10-02T07:43:46Z</time>
      </trkpt>
      <trkpt lat="45.97539" lon="1.08774">
        <ele>317.4</ele>
        <time>2022-10-02T07:43:47Z</time>
      </trkpt>
      <trkpt lat="45.97542" lon="1.08767">
        <ele>317.5</ele>
        <time>2022-10-02T07:43:48Z</time>
      </trkpt>
      <trkpt lat="45.97544" lon="1.0876">
        <ele>317.5</ele>
        <time>2022-10-02T07:43:49Z</time>
      </trkpt>
      <trkpt lat="45.97546" lon="1.08753">
        <ele>317.5</ele>
        <time>2022-10-02T07:43:50Z</time>
      </trkpt>
      <trkpt lat="45.97549" lon="1.08745">
        <ele>317.6</ele>
        <time>2022-10-02T07:43:51Z</time>
      </trkpt>
      <trkpt lat="45.97551" lon="1.08738">
        <ele>317.6</ele>
        <time>2022-10-02T07:43:52Z</time>
      </trkpt>
      <trkpt lat="45.97554" lon="1.08732">
        <ele>317.7</ele>
        <time>2022-10-02T07:43:53Z</time>
      </trkpt>
      <trkpt lat="45.97558" lon="1.08726">
        <ele>317.8</ele>
        <time>2022-10-02T07:43:54Z</time>
      </trkpt>
      <trkpt lat="45.97561" lon="1.08722">
        <ele>317.9</ele>
        <time>2022-10-02T07:43:55Z</time>
      </trkpt>
      <trkpt lat="45.97564" lon="1.08716">
        <ele>318</ele>
        <time>2022-10-02T07:43:56Z</time>
      </trkpt>
      <trkpt lat="45.97568" lon="1.08711">
        <ele>318.2</ele>
        <time>2022-10-02T07:43:57Z</time>
      </trkpt>
      <trkpt lat="45.97571" lon="1.08705">
        <ele>318.3</ele>
        <time>2022-10-02T07:43:58Z</time>
      </trkpt>
      <trkpt lat="45.97574" lon="1.087">
        <ele>318.4</ele>
        <time>2022-10-02T07:43:59Z</time>
      </trkpt>
      <trkpt lat="45.97575" lon="1.08696">
        <ele>318.5</ele>
        <time>2022-10-02T07:44:00Z</time>
      </trkpt>
      <trkpt lat="45.97578" lon="1.08694">
        <ele>318.6</ele>
        <time>2022-10-02T07:44:01Z</time>
      </trkpt>
      <trkpt lat="45.9758" lon="1.08695">
        <ele>318.7</ele>
        <time>2022-10-02T07:44:02Z</time>
      </trkpt>
      <trkpt lat="45.97582" lon="1.08691">
        <ele>318.8</ele>
        <time>2022-10-02T07:44:03Z</time>
      </trkpt>
      <trkpt lat="45.97584" lon="1.08687">
        <ele>319</ele>
        <time>2022-10-02T07:44:04Z</time>
      </trkpt>
      <trkpt lat="45.97586" lon="1.08684">
        <ele>319.1</ele>
        <time>2022-10-02T07:44:05Z</time>
      </trkpt>
      <trkpt lat="45.97589" lon="1.08681">
        <ele>319.2</ele>
        <time>2022-10-02T07:44:06Z</time>
      </trkpt>
      <trkpt lat="45.97592" lon="1.08677">
        <ele>319.4</ele>
        <time>2022-10-02T07:44:07Z</time>
      </trkpt>
      <trkpt lat="45.97595" lon="1.08673">
        <ele>319.6</ele>
        <time>2022-10-02T07:44:08Z</time>
      </trkpt>
      <trkpt lat="45.97599" lon="1.08669">
        <ele>319.8</ele>
        <time>2022-10-02T07:44:09Z</time>
      </trkpt>
      <trkpt lat="45.97602" lon="1.08664">
        <ele>319.9</ele>
        <time>2022-10-02T07:44:10Z</time>
      </trkpt>
      <trkpt lat="45.97606" lon="1.0866">
        <ele>320.1</ele>
        <time>2022-10-02T07:44:11Z</time>
      </trkpt>
      <trkpt lat="45.97611" lon="1.08657">
        <ele>320.2</ele>
        <time>2022-10-02T07:44:12Z</time>
      </trkpt>
      <trkpt lat="45.97615" lon="1.08654">
        <ele>320.3</ele>
        <time>2022-10-02T07:44:13Z</time>
      </trkpt>
      <trkpt lat="45.97619" lon="1.0865">
        <ele>320.3</ele>
        <time>2022-10-02T07:44:14Z</time>
      </trkpt>
      <trkpt lat="45.97625" lon="1.08648">
        <ele>320.2</ele>
        <time>2022-10-02T07:44:15Z</time>
      </trkpt>
      <trkpt lat="45.97631" lon="1.08646">
        <ele>320.1</ele>
        <time>2022-10-02T07:44:16Z</time>
      </trkpt>
      <trkpt lat="45.97637" lon="1.08644">
        <ele>320</ele>
        <time>2022-10-02T07:44:17Z</time>
      </trkpt>
      <trkpt lat="45.97643" lon="1.08642">
        <ele>319.8</ele>
        <time>2022-10-02T07:44:18Z</time>
      </trkpt>
      <trkpt lat="45.97649" lon="1.08637">
        <ele>319.5</ele>
        <time>2022-10-02T07:44:19Z</time>
      </trkpt>
      <trkpt lat="45.97653" lon="1.08635">
        <ele>319.3</ele>
        <time>2022-10-02T07:44:20Z</time>
      </trkpt>
      <trkpt lat="45.9766" lon="1.08635">
        <ele>319</ele>
        <time>2022-10-02T07:44:21Z</time>
      </trkpt>
      <trkpt lat="45.97666" lon="1.08634">
        <ele>318.7</ele>
        <time>2022-10-02T07:44:22Z</time>
      </trkpt>
      <trkpt lat="45.9767" lon="1.08632">
        <ele>318.5</ele>
        <time>2022-10-02T07:44:23Z</time>
      </trkpt>
      <trkpt lat="45.97676" lon="1.08631">
        <ele>318.2</ele>
        <time>2022-10-02T07:44:24Z</time>
      </trkpt>
      <trkpt lat="45.97682" lon="1.08628">
        <ele>318</ele>
        <time>2022-10-02T07:44:25Z</time>
      </trkpt>
      <trkpt lat="45.97686" lon="1.08627">
        <ele>317.9</ele>
        <time>2022-10-02T07:44:26Z</time>
      </trkpt>
      <trkpt lat="45.97692" lon="1.08625">
        <ele>317.7</ele>
        <time>2022-10-02T07:44:27Z</time>
      </trkpt>
      <trkpt lat="45.97698" lon="1.08624">
        <ele>317.6</ele>
        <time>2022-10-02T07:44:28Z</time>
      </trkpt>
      <trkpt lat="45.97703" lon="1.08622">
        <ele>317.5</ele>
        <time>2022-10-02T07:44:29Z</time>
      </trkpt>
      <trkpt lat="45.97708" lon="1.0862">
        <ele>317.5</ele>
        <time>2022-10-02T07:44:30Z</time>
      </trkpt>
      <trkpt lat="45.97715" lon="1.08616">
        <ele>317.5</ele>
        <time>2022-10-02T07:44:31Z</time>
      </trkpt>
      <trkpt lat="45.97721" lon="1.08614">
        <ele>317.4</ele>
        <time>2022-10-02T07:44:32Z</time>
      </trkpt>
      <trkpt lat="45.97726" lon="1.08612">
        <ele>317.4</ele>
        <time>2022-10-02T07:44:33Z</time>
      </trkpt>
      <trkpt lat="45.97731" lon="1.08609">
        <ele>317.4</ele>
        <time>2022-10-02T07:44:34Z</time>
      </trkpt>
      <trkpt lat="45.97736" lon="1.08607">
        <ele>317.4</ele>
        <time>2022-10-02T07:44:35Z</time>
      </trkpt>
      <trkpt lat="45.97741" lon="1.08606">
        <ele>317.3</ele>
        <time>2022-10-02T07:44:36Z</time>
      </trkpt>
      <trkpt lat="45.97747" lon="1.08603">
        <ele>317.3</ele>
        <time>2022-10-02T07:44:37Z</time>
      </trkpt>
      <trkpt lat="45.97752" lon="1.08601">
        <ele>317.3</ele>
        <time>2022-10-02T07:44:38Z</time>
      </trkpt>
      <trkpt lat="45.97757" lon="1.08599">
        <ele>317.2</ele>
        <time>2022-10-02T07:44:39Z</time>
      </trkpt>
      <trkpt lat="45.97763" lon="1.08595">
        <ele>317.2</ele>
        <time>2022-10-02T07:44:40Z</time>
      </trkpt>
      <trkpt lat="45.97766" lon="1.08592">
        <ele>317.2</ele>
        <time>2022-10-02T07:44:41Z</time>
      </trkpt>
      <trkpt lat="45.97768" lon="1.08588">
        <ele>317.2</ele>
        <time>2022-10-02T07:44:42Z</time>
      </trkpt>
      <trkpt lat="45.97773" lon="1.08583">
        <ele>317.2</ele>
        <time>2022-10-02T07:44:43Z</time>
      </trkpt>
      <trkpt lat="45.97777" lon="1.0858">
        <ele>317.2</ele>
        <time>2022-10-02T07:44:44Z</time>
      </trkpt>
      <trkpt lat="45.97781" lon="1.08575">
        <ele>317.2</ele>
        <time>2022-10-02T07:44:45Z</time>
      </trkpt>
      <trkpt lat="45.97787" lon="1.08567">
        <ele>317.3</ele>
        <time>2022-10-02T07:44:46Z</time>
      </trkpt>
      <trkpt lat="45.97793" lon="1.08562">
        <ele>317.3</ele>
        <time>2022-10-02T07:44:47Z</time>
      </trkpt>
      <trkpt lat="45.97799" lon="1.08557">
        <ele>317.3</ele>
        <time>2022-10-02T07:44:48Z</time>
      </trkpt>
      <trkpt lat="45.97803" lon="1.08556">
        <ele>317.3</ele>
        <time>2022-10-02T07:44:49Z</time>
      </trkpt>
      <trkpt lat="45.97809" lon="1.08556">
        <ele>317.3</ele>
        <time>2022-10-02T07:44:50Z</time>
      </trkpt>
      <trkpt lat="45.97813" lon="1.08555">
        <ele>317.3</ele>
        <time>2022-10-02T07:44:51Z</time>
      </trkpt>
      <trkpt lat="45.97817" lon="1.08555">
        <ele>317.3</ele>
        <time>2022-10-02T07:44:52Z</time>
      </trkpt>
      <trkpt lat="45.9782" lon="1.08555">
        <ele>317.4</ele>
        <time>2022-10-02T07:44:53Z</time>
      </trkpt>
      <trkpt lat="45.97822" lon="1.08556">
        <ele>317.4</ele>
        <time>2022-10-02T07:44:54Z</time>
      </trkpt>
      <trkpt lat="45.97826" lon="1.0856">
        <ele>317.4</ele>
        <time>2022-10-02T07:44:55Z</time>
      </trkpt>
      <trkpt lat="45.97829" lon="1.08563">
        <ele>317.4</ele>
        <time>2022-10-02T07:44:56Z</time>
      </trkpt>
      <trkpt lat="45.97833" lon="1.08566">
        <ele>317.4</ele>
        <time>2022-10-02T07:44:57Z</time>
      </trkpt>
      <trkpt lat="45.97837" lon="1.08569">
        <ele>317.5</ele>
        <time>2022-10-02T07:44:58Z</time>
      </trkpt>
      <trkpt lat="45.97842" lon="1.08573">
        <ele>317.5</ele>
        <time>2022-10-02T07:44:59Z</time>
      </trkpt>
      <trkpt lat="45.97845" lon="1.08578">
        <ele>317.6</ele>
        <time>2022-10-02T07:45:00Z</time>
      </trkpt>
      <trkpt lat="45.97849" lon="1.08582">
        <ele>317.7</ele>
        <time>2022-10-02T07:45:01Z</time>
      </trkpt>
      <trkpt lat="45.97853" lon="1.08586">
        <ele>317.8</ele>
        <time>2022-10-02T07:45:02Z</time>
      </trkpt>
      <trkpt lat="45.97856" lon="1.08589">
        <ele>317.9</ele>
        <time>2022-10-02T07:45:03Z</time>
      </trkpt>
      <trkpt lat="45.97862" lon="1.08592">
        <ele>318</ele>
        <time>2022-10-02T07:45:04Z</time>
      </trkpt>
      <trkpt lat="45.97867" lon="1.08594">
        <ele>318.1</ele>
        <time>2022-10-02T07:45:05Z</time>
      </trkpt>
      <trkpt lat="45.97872" lon="1.08593">
        <ele>318.3</ele>
        <time>2022-10-02T07:45:06Z</time>
      </trkpt>
      <trkpt lat="45.97878" lon="1.08594">
        <ele>318.4</ele>
        <time>2022-10-02T07:45:07Z</time>
      </trkpt>
      <trkpt lat="45.97884" lon="1.08597">
        <ele>318.6</ele>
        <time>2022-10-02T07:45:08Z</time>
      </trkpt>
      <trkpt lat="45.97888" lon="1.08599">
        <ele>318.7</ele>
        <time>2022-10-02T07:45:09Z</time>
      </trkpt>
      <trkpt lat="45.9789" lon="1.086">
        <ele>318.7</ele>
        <time>2022-10-02T07:45:10Z</time>
      </trkpt>
      <trkpt lat="45.97895" lon="1.08603">
        <ele>318.9</ele>
        <time>2022-10-02T07:45:11Z</time>
      </trkpt>
      <trkpt lat="45.97903" lon="1.08604">
        <ele>319.1</ele>
        <time>2022-10-02T07:45:12Z</time>
      </trkpt>
      <trkpt lat="45.97911" lon="1.08607">
        <ele>319.3</ele>
        <time>2022-10-02T07:45:13Z</time>
      </trkpt>
      <trkpt lat="45.97917" lon="1.08608">
        <ele>319.5</ele>
        <time>2022-10-02T07:45:14Z</time>
      </trkpt>
      <trkpt lat="45.97923" lon="1.08612">
        <ele>319.6</ele>
        <time>2022-10-02T07:45:15Z</time>
      </trkpt>
      <trkpt lat="45.97929" lon="1.08612">
        <ele>319.8</ele>
        <time>2022-10-02T07:45:16Z</time>
      </trkpt>
      <trkpt lat="45.97933" lon="1.08615">
        <ele>319.9</ele>
        <time>2022-10-02T07:45:17Z</time>
      </trkpt>
      <trkpt lat="45.97938" lon="1.08615">
        <ele>320</ele>
        <time>2022-10-02T07:45:18Z</time>
      </trkpt>
      <trkpt lat="45.97942" lon="1.08614">
        <ele>320.1</ele>
        <time>2022-10-02T07:45:19Z</time>
      </trkpt>
      <trkpt lat="45.97946" lon="1.08615">
        <ele>320.1</ele>
        <time>2022-10-02T07:45:20Z</time>
      </trkpt>
      <trkpt lat="45.97948" lon="1.08615">
        <ele>320.2</ele>
        <time>2022-10-02T07:45:21Z</time>
      </trkpt>
      <trkpt lat="45.97951" lon="1.08615">
        <ele>320.2</ele>
        <time>2022-10-02T07:45:22Z</time>
      </trkpt>
      <trkpt lat="45.97953" lon="1.08615">
        <ele>320.3</ele>
        <time>2022-10-02T07:45:23Z</time>
      </trkpt>
      <trkpt lat="45.97956" lon="1.08615">
        <ele>320.3</ele>
        <time>2022-10-02T07:45:24Z</time>
      </trkpt>
      <trkpt lat="45.97959" lon="1.08614">
        <ele>320.3</ele>
        <time>2022-10-02T07:45:25Z</time>
      </trkpt>
      <trkpt lat="45.97961" lon="1.08612">
        <ele>320.4</ele>
        <time>2022-10-02T07:45:26Z</time>
      </trkpt>
      <trkpt lat="45.97964" lon="1.0861">
        <ele>320.4</ele>
        <time>2022-10-02T07:45:27Z</time>
      </trkpt>
      <trkpt lat="45.97967" lon="1.08609">
        <ele>320.5</ele>
        <time>2022-10-02T07:45:28Z</time>
      </trkpt>
      <trkpt lat="45.9797" lon="1.08608">
        <ele>320.6</ele>
        <time>2022-10-02T07:45:29Z</time>
      </trkpt>
      <trkpt lat="45.97974" lon="1.08608">
        <ele>320.7</ele>
        <time>2022-10-02T07:45:30Z</time>
      </trkpt>
      <trkpt lat="45.97978" lon="1.08607">
        <ele>320.8</ele>
        <time>2022-10-02T07:45:31Z</time>
      </trkpt>
      <trkpt lat="45.97981" lon="1.08606">
        <ele>320.9</ele>
        <time>2022-10-02T07:45:32Z</time>
      </trkpt>
      <trkpt lat="45.97985" lon="1.08604">
        <ele>321</ele>
        <time>2022-10-02T07:45:33Z</time>
      </trkpt>
      <trkpt lat="45.97989" lon="1.08601">
        <ele>321.1</ele>
        <time>2022-10-02T07:45:34Z</time>
      </trkpt>
      <trkpt lat="45.97993" lon="1.08599">
        <ele>321.5</ele>
        <time>2022-10-02T07:45:35Z</time>
      </trkpt>
      <trkpt lat="45.97997" lon="1.08597">
        <ele>321.8</ele>
        <time>2022-10-02T07:45:36Z</time>
      </trkpt>
      <trkpt lat="45.98" lon="1.08594">
        <ele>322.1</ele>
        <time>2022-10-02T07:45:37Z</time>
      </trkpt>
      <trkpt lat="45.98003" lon="1.0859">
        <ele>322.4</ele>
        <time>2022-10-02T07:45:38Z</time>
      </trkpt>
      <trkpt lat="45.98006" lon="1.08584">
        <ele>322.8</ele>
        <time>2022-10-02T07:45:39Z</time>
      </trkpt>
      <trkpt lat="45.98008" lon="1.0858">
        <ele>323.1</ele>
        <time>2022-10-02T07:45:40Z</time>
      </trkpt>
      <trkpt lat="45.98011" lon="1.08576">
        <ele>323.4</ele>
        <time>2022-10-02T07:45:41Z</time>
      </trkpt>
      <trkpt lat="45.98013" lon="1.08571">
        <ele>323.7</ele>
        <time>2022-10-02T07:45:42Z</time>
      </trkpt>
      <trkpt lat="45.98016" lon="1.08567">
        <ele>324.1</ele>
        <time>2022-10-02T07:45:43Z</time>
      </trkpt>
      <trkpt lat="45.98018" lon="1.08562">
        <ele>324.4</ele>
        <time>2022-10-02T07:45:44Z</time>
      </trkpt>
      <trkpt lat="45.9802" lon="1.08557">
        <ele>324.8</ele>
        <time>2022-10-02T07:45:45Z</time>
      </trkpt>
      <trkpt lat="45.98021" lon="1.08551">
        <ele>325.1</ele>
        <time>2022-10-02T07:45:46Z</time>
      </trkpt>
      <trkpt lat="45.98022" lon="1.08545">
        <ele>325.4</ele>
        <time>2022-10-02T07:45:47Z</time>
      </trkpt>
      <trkpt lat="45.98023" lon="1.08539">
        <ele>325.7</ele>
        <time>2022-10-02T07:45:48Z</time>
      </trkpt>
      <trkpt lat="45.98024" lon="1.08533">
        <ele>326</ele>
        <time>2022-10-02T07:45:49Z</time>
      </trkpt>
      <trkpt lat="45.98025" lon="1.08527">
        <ele>326.3</ele>
        <time>2022-10-02T07:45:50Z</time>
      </trkpt>
      <trkpt lat="45.98027" lon="1.08523">
        <ele>326.6</ele>
        <time>2022-10-02T07:45:51Z</time>
      </trkpt>
      <trkpt lat="45.98028" lon="1.08516">
        <ele>326.9</ele>
        <time>2022-10-02T07:45:52Z</time>
      </trkpt>
      <trkpt lat="45.98028" lon="1.0851">
        <ele>327.2</ele>
        <time>2022-10-02T07:45:53Z</time>
      </trkpt>
      <trkpt lat="45.98029" lon="1.08505">
        <ele>327.5</ele>
        <time>2022-10-02T07:45:54Z</time>
      </trkpt>
      <trkpt lat="45.98029" lon="1.08499">
        <ele>327.9</ele>
        <time>2022-10-02T07:45:55Z</time>
      </trkpt>
      <trkpt lat="45.9803" lon="1.08493">
        <ele>328.2</ele>
        <time>2022-10-02T07:45:56Z</time>
      </trkpt>
      <trkpt lat="45.98029" lon="1.08488">
        <ele>328.5</ele>
        <time>2022-10-02T07:45:57Z</time>
      </trkpt>
      <trkpt lat="45.98028" lon="1.08482">
        <ele>328.8</ele>
        <time>2022-10-02T07:45:58Z</time>
      </trkpt>
      <trkpt lat="45.98028" lon="1.08476">
        <ele>329.2</ele>
        <time>2022-10-02T07:45:59Z</time>
      </trkpt>
      <trkpt lat="45.98029" lon="1.0847">
        <ele>329.5</ele>
        <time>2022-10-02T07:46:00Z</time>
      </trkpt>
      <trkpt lat="45.98029" lon="1.08465">
        <ele>329.8</ele>
        <time>2022-10-02T07:46:01Z</time>
      </trkpt>
      <trkpt lat="45.98031" lon="1.08459">
        <ele>330</ele>
        <time>2022-10-02T07:46:02Z</time>
      </trkpt>
      <trkpt lat="45.98032" lon="1.08454">
        <ele>330.3</ele>
        <time>2022-10-02T07:46:03Z</time>
      </trkpt>
      <trkpt lat="45.98033" lon="1.08449">
        <ele>330.5</ele>
        <time>2022-10-02T07:46:04Z</time>
      </trkpt>
      <trkpt lat="45.98032" lon="1.08443">
        <ele>330.7</ele>
        <time>2022-10-02T07:46:05Z</time>
      </trkpt>
      <trkpt lat="45.98032" lon="1.08437">
        <ele>330.8</ele>
        <time>2022-10-02T07:46:06Z</time>
      </trkpt>
      <trkpt lat="45.98032" lon="1.08431">
        <ele>331</ele>
        <time>2022-10-02T07:46:07Z</time>
      </trkpt>
      <trkpt lat="45.98033" lon="1.08424">
        <ele>331.1</ele>
        <time>2022-10-02T07:46:08Z</time>
      </trkpt>
      <trkpt lat="45.98033" lon="1.08418">
        <ele>331.1</ele>
        <time>2022-10-02T07:46:09Z</time>
      </trkpt>
      <trkpt lat="45.98035" lon="1.08415">
        <ele>331.1</ele>
        <time>2022-10-02T07:46:10Z</time>
      </trkpt>
      <trkpt lat="45.98037" lon="1.08411">
        <ele>331</ele>
        <time>2022-10-02T07:46:11Z</time>
      </trkpt>
      <trkpt lat="45.98037" lon="1.08405">
        <ele>330.9</ele>
        <time>2022-10-02T07:46:12Z</time>
      </trkpt>
      <trkpt lat="45.98036" lon="1.08398">
        <ele>330.6</ele>
        <time>2022-10-02T07:46:13Z</time>
      </trkpt>
      <trkpt lat="45.98036" lon="1.08388">
        <ele>330.2</ele>
        <time>2022-10-02T07:46:14Z</time>
      </trkpt>
      <trkpt lat="45.98035" lon="1.0838">
        <ele>329.9</ele>
        <time>2022-10-02T07:46:15Z</time>
      </trkpt>
      <trkpt lat="45.98033" lon="1.08372">
        <ele>329.5</ele>
        <time>2022-10-02T07:46:16Z</time>
      </trkpt>
      <trkpt lat="45.98031" lon="1.08366">
        <ele>329.2</ele>
        <time>2022-10-02T07:46:17Z</time>
      </trkpt>
      <trkpt lat="45.98029" lon="1.08357">
        <ele>328.8</ele>
        <time>2022-10-02T07:46:18Z</time>
      </trkpt>
      <trkpt lat="45.98026" lon="1.0835">
        <ele>328.6</ele>
        <time>2022-10-02T07:46:19Z</time>
      </trkpt>
      <trkpt lat="45.98025" lon="1.08344">
        <ele>328.4</ele>
        <time>2022-10-02T07:46:20Z</time>
      </trkpt>
      <trkpt lat="45.98022" lon="1.08335">
        <ele>328.2</ele>
        <time>2022-10-02T07:46:21Z</time>
      </trkpt>
      <trkpt lat="45.98021" lon="1.08332">
        <ele>328.1</ele>
        <time>2022-10-02T07:46:22Z</time>
      </trkpt>
      <trkpt lat="45.98019" lon="1.08325">
        <ele>328</ele>
        <time>2022-10-02T07:46:23Z</time>
      </trkpt>
      <trkpt lat="45.98017" lon="1.08317">
        <ele>327.9</ele>
        <time>2022-10-02T07:46:24Z</time>
      </trkpt>
      <trkpt lat="45.98016" lon="1.0831">
        <ele>327.8</ele>
        <time>2022-10-02T07:46:25Z</time>
      </trkpt>
      <trkpt lat="45.98016" lon="1.08304">
        <ele>327.8</ele>
        <time>2022-10-02T07:46:26Z</time>
      </trkpt>
      <trkpt lat="45.98016" lon="1.08297">
        <ele>327.7</ele>
        <time>2022-10-02T07:46:27Z</time>
      </trkpt>
      <trkpt lat="45.98015" lon="1.08289">
        <ele>327.7</ele>
        <time>2022-10-02T07:46:28Z</time>
      </trkpt>
      <trkpt lat="45.98013" lon="1.08282">
        <ele>327.7</ele>
        <time>2022-10-02T07:46:29Z</time>
      </trkpt>
      <trkpt lat="45.98012" lon="1.08277">
        <ele>327.6</ele>
        <time>2022-10-02T07:46:30Z</time>
      </trkpt>
      <trkpt lat="45.9801" lon="1.08271">
        <ele>327.6</ele>
        <time>2022-10-02T07:46:31Z</time>
      </trkpt>
      <trkpt lat="45.98009" lon="1.08267">
        <ele>327.6</ele>
        <time>2022-10-02T07:46:32Z</time>
      </trkpt>
      <trkpt lat="45.98008" lon="1.08263">
        <ele>327.6</ele>
        <time>2022-10-02T07:46:33Z</time>
      </trkpt>
      <trkpt lat="45.98008" lon="1.08258">
        <ele>327.6</ele>
        <time>2022-10-02T07:46:34Z</time>
      </trkpt>
      <trkpt lat="45.98008" lon="1.08255">
        <ele>327.5</ele>
        <time>2022-10-02T07:46:35Z</time>
      </trkpt>
      <trkpt lat="45.98007" lon="1.0825">
        <ele>327.5</ele>
        <time>2022-10-02T07:46:36Z</time>
      </trkpt>
      <trkpt lat="45.98006" lon="1.08244">
        <ele>327.5</ele>
        <time>2022-10-02T07:46:37Z</time>
      </trkpt>
      <trkpt lat="45.98007" lon="1.08236">
        <ele>327.5</ele>
        <time>2022-10-02T07:46:38Z</time>
      </trkpt>
      <trkpt lat="45.98006" lon="1.08224">
        <ele>327.6</ele>
        <time>2022-10-02T07:46:39Z</time>
      </trkpt>
      <trkpt lat="45.98007" lon="1.08216">
        <ele>327.6</ele>
        <time>2022-10-02T07:46:40Z</time>
      </trkpt>
      <trkpt lat="45.98007" lon="1.08208">
        <ele>327.7</ele>
        <time>2022-10-02T07:46:41Z</time>
      </trkpt>
      <trkpt lat="45.98007" lon="1.08201">
        <ele>327.8</ele>
        <time>2022-10-02T07:46:42Z</time>
      </trkpt>
      <trkpt lat="45.98008" lon="1.08194">
        <ele>327.9</ele>
        <time>2022-10-02T07:46:43Z</time>
      </trkpt>
      <trkpt lat="45.98008" lon="1.08186">
        <ele>328</ele>
        <time>2022-10-02T07:46:44Z</time>
      </trkpt>
      <trkpt lat="45.98006" lon="1.08178">
        <ele>328.1</ele>
        <time>2022-10-02T07:46:45Z</time>
      </trkpt>
      <trkpt lat="45.98006" lon="1.0817">
        <ele>328.2</ele>
        <time>2022-10-02T07:46:46Z</time>
      </trkpt>
      <trkpt lat="45.98006" lon="1.08164">
        <ele>328.3</ele>
        <time>2022-10-02T07:46:47Z</time>
      </trkpt>
      <trkpt lat="45.98006" lon="1.08158">
        <ele>328.4</ele>
        <time>2022-10-02T07:46:48Z</time>
      </trkpt>
      <trkpt lat="45.98007" lon="1.08152">
        <ele>328.4</ele>
        <time>2022-10-02T07:46:49Z</time>
      </trkpt>
      <trkpt lat="45.98008" lon="1.08146">
        <ele>328.5</ele>
        <time>2022-10-02T07:46:50Z</time>
      </trkpt>
      <trkpt lat="45.98007" lon="1.08136">
        <ele>328.6</ele>
        <time>2022-10-02T07:46:51Z</time>
      </trkpt>
      <trkpt lat="45.98007" lon="1.08128">
        <ele>328.7</ele>
        <time>2022-10-02T07:46:52Z</time>
      </trkpt>
      <trkpt lat="45.98005" lon="1.08121">
        <ele>328.9</ele>
        <time>2022-10-02T07:46:53Z</time>
      </trkpt>
      <trkpt lat="45.98005" lon="1.08113">
        <ele>329</ele>
        <time>2022-10-02T07:46:54Z</time>
      </trkpt>
      <trkpt lat="45.98005" lon="1.08105">
        <ele>329.2</ele>
        <time>2022-10-02T07:46:55Z</time>
      </trkpt>
      <trkpt lat="45.98002" lon="1.08096">
        <ele>329.5</ele>
        <time>2022-10-02T07:46:56Z</time>
      </trkpt>
      <trkpt lat="45.98003" lon="1.08088">
        <ele>329.7</ele>
        <time>2022-10-02T07:46:57Z</time>
      </trkpt>
      <trkpt lat="45.98003" lon="1.08081">
        <ele>329.9</ele>
        <time>2022-10-02T07:46:58Z</time>
      </trkpt>
      <trkpt lat="45.98002" lon="1.08074">
        <ele>330.1</ele>
        <time>2022-10-02T07:46:59Z</time>
      </trkpt>
      <trkpt lat="45.98002" lon="1.08068">
        <ele>330.2</ele>
        <time>2022-10-02T07:47:00Z</time>
      </trkpt>
      <trkpt lat="45.98002" lon="1.08062">
        <ele>330.3</ele>
        <time>2022-10-02T07:47:01Z</time>
      </trkpt>
      <trkpt lat="45.98002" lon="1.08054">
        <ele>330.5</ele>
        <time>2022-10-02T07:47:02Z</time>
      </trkpt>
      <trkpt lat="45.98004" lon="1.08047">
        <ele>330.7</ele>
        <time>2022-10-02T07:47:03Z</time>
      </trkpt>
      <trkpt lat="45.98005" lon="1.0804">
        <ele>330.8</ele>
        <time>2022-10-02T07:47:04Z</time>
      </trkpt>
      <trkpt lat="45.98006" lon="1.08031">
        <ele>330.9</ele>
        <time>2022-10-02T07:47:05Z</time>
      </trkpt>
      <trkpt lat="45.98005" lon="1.08023">
        <ele>331</ele>
        <time>2022-10-02T07:47:06Z</time>
      </trkpt>
      <trkpt lat="45.98006" lon="1.08015">
        <ele>331.2</ele>
        <time>2022-10-02T07:47:07Z</time>
      </trkpt>
      <trkpt lat="45.98011" lon="1.08011">
        <ele>331.3</ele>
        <time>2022-10-02T07:47:08Z</time>
      </trkpt>
      <trkpt lat="45.98012" lon="1.08004">
        <ele>331.4</ele>
        <time>2022-10-02T07:47:09Z</time>
      </trkpt>
      <trkpt lat="45.98013" lon="1.07998">
        <ele>331.5</ele>
        <time>2022-10-02T07:47:10Z</time>
      </trkpt>
      <trkpt lat="45.98013" lon="1.07992">
        <ele>331.6</ele>
        <time>2022-10-02T07:47:11Z</time>
      </trkpt>
      <trkpt lat="45.98013" lon="1.07982">
        <ele>331.7</ele>
        <time>2022-10-02T07:47:12Z</time>
      </trkpt>
      <trkpt lat="45.98015" lon="1.07975">
        <ele>331.9</ele>
        <time>2022-10-02T07:47:13Z</time>
      </trkpt>
      <trkpt lat="45.98015" lon="1.07968">
        <ele>332</ele>
        <time>2022-10-02T07:47:14Z</time>
      </trkpt>
      <trkpt lat="45.98017" lon="1.07963">
        <ele>332.1</ele>
        <time>2022-10-02T07:47:15Z</time>
      </trkpt>
      <trkpt lat="45.98018" lon="1.07956">
        <ele>332.2</ele>
        <time>2022-10-02T07:47:16Z</time>
      </trkpt>
      <trkpt lat="45.98017" lon="1.07948">
        <ele>332.3</ele>
        <time>2022-10-02T07:47:17Z</time>
      </trkpt>
      <trkpt lat="45.98018" lon="1.0794">
        <ele>332.5</ele>
        <time>2022-10-02T07:47:18Z</time>
      </trkpt>
      <trkpt lat="45.98019" lon="1.07934">
        <ele>332.6</ele>
        <time>2022-10-02T07:47:19Z</time>
      </trkpt>
      <trkpt lat="45.98018" lon="1.07924">
        <ele>332.7</ele>
        <time>2022-10-02T07:47:20Z</time>
      </trkpt>
      <trkpt lat="45.98019" lon="1.07917">
        <ele>332.8</ele>
        <time>2022-10-02T07:47:21Z</time>
      </trkpt>
      <trkpt lat="45.98018" lon="1.07911">
        <ele>332.9</ele>
        <time>2022-10-02T07:47:22Z</time>
      </trkpt>
      <trkpt lat="45.98017" lon="1.07903">
        <ele>332.9</ele>
        <time>2022-10-02T07:47:23Z</time>
      </trkpt>
      <trkpt lat="45.98017" lon="1.07896">
        <ele>333</ele>
        <time>2022-10-02T07:47:24Z</time>
      </trkpt>
      <trkpt lat="45.98019" lon="1.0789">
        <ele>332.9</ele>
        <time>2022-10-02T07:47:25Z</time>
      </trkpt>
      <trkpt lat="45.9802" lon="1.07883">
        <ele>332.9</ele>
        <time>2022-10-02T07:47:26Z</time>
      </trkpt>
      <trkpt lat="45.98022" lon="1.07876">
        <ele>332.9</ele>
        <time>2022-10-02T07:47:27Z</time>
      </trkpt>
      <trkpt lat="45.98025" lon="1.07872">
        <ele>332.9</ele>
        <time>2022-10-02T07:47:28Z</time>
      </trkpt>
      <trkpt lat="45.98026" lon="1.07864">
        <ele>332.8</ele>
        <time>2022-10-02T07:47:29Z</time>
      </trkpt>
      <trkpt lat="45.98028" lon="1.07858">
        <ele>332.8</ele>
        <time>2022-10-02T07:47:30Z</time>
      </trkpt>
      <trkpt lat="45.9803" lon="1.07854">
        <ele>332.9</ele>
        <time>2022-10-02T07:47:31Z</time>
      </trkpt>
      <trkpt lat="45.98031" lon="1.0785">
        <ele>332.9</ele>
        <time>2022-10-02T07:47:32Z</time>
      </trkpt>
      <trkpt lat="45.98031" lon="1.07843">
        <ele>332.9</ele>
        <time>2022-10-02T07:47:33Z</time>
      </trkpt>
      <trkpt lat="45.98032" lon="1.07836">
        <ele>332.9</ele>
        <time>2022-10-02T07:47:34Z</time>
      </trkpt>
      <trkpt lat="45.98033" lon="1.07828">
        <ele>333</ele>
        <time>2022-10-02T07:47:35Z</time>
      </trkpt>
      <trkpt lat="45.98035" lon="1.07819">
        <ele>333.1</ele>
        <time>2022-10-02T07:47:36Z</time>
      </trkpt>
      <trkpt lat="45.98036" lon="1.07812">
        <ele>333.1</ele>
        <time>2022-10-02T07:47:37Z</time>
      </trkpt>
      <trkpt lat="45.98038" lon="1.07804">
        <ele>333.2</ele>
        <time>2022-10-02T07:47:38Z</time>
      </trkpt>
      <trkpt lat="45.98041" lon="1.07797">
        <ele>333.3</ele>
        <time>2022-10-02T07:47:39Z</time>
      </trkpt>
      <trkpt lat="45.98042" lon="1.0779">
        <ele>333.4</ele>
        <time>2022-10-02T07:47:40Z</time>
      </trkpt>
      <trkpt lat="45.98044" lon="1.07782">
        <ele>333.6</ele>
        <time>2022-10-02T07:47:41Z</time>
      </trkpt>
      <trkpt lat="45.98046" lon="1.07773">
        <ele>333.8</ele>
        <time>2022-10-02T07:47:42Z</time>
      </trkpt>
      <trkpt lat="45.98049" lon="1.07766">
        <ele>333.9</ele>
        <time>2022-10-02T07:47:43Z</time>
      </trkpt>
      <trkpt lat="45.98051" lon="1.0776">
        <ele>334.1</ele>
        <time>2022-10-02T07:47:44Z</time>
      </trkpt>
      <trkpt lat="45.98053" lon="1.07753">
        <ele>334.3</ele>
        <time>2022-10-02T07:47:45Z</time>
      </trkpt>
      <trkpt lat="45.98055" lon="1.07745">
        <ele>334.5</ele>
        <time>2022-10-02T07:47:46Z</time>
      </trkpt>
      <trkpt lat="45.98056" lon="1.07738">
        <ele>334.7</ele>
        <time>2022-10-02T07:47:47Z</time>
      </trkpt>
      <trkpt lat="45.98059" lon="1.07731">
        <ele>335.1</ele>
        <time>2022-10-02T07:47:48Z</time>
      </trkpt>
      <trkpt lat="45.9806" lon="1.07723">
        <ele>335.5</ele>
        <time>2022-10-02T07:47:49Z</time>
      </trkpt>
      <trkpt lat="45.98062" lon="1.07717">
        <ele>335.8</ele>
        <time>2022-10-02T07:47:50Z</time>
      </trkpt>
      <trkpt lat="45.98064" lon="1.07709">
        <ele>336.3</ele>
        <time>2022-10-02T07:47:51Z</time>
      </trkpt>
      <trkpt lat="45.98065" lon="1.07703">
        <ele>336.7</ele>
        <time>2022-10-02T07:47:52Z</time>
      </trkpt>
      <trkpt lat="45.98067" lon="1.07697">
        <ele>337.1</ele>
        <time>2022-10-02T07:47:53Z</time>
      </trkpt>
      <trkpt lat="45.98069" lon="1.07691">
        <ele>337.7</ele>
        <time>2022-10-02T07:47:54Z</time>
      </trkpt>
      <trkpt lat="45.9807" lon="1.07685">
        <ele>338.2</ele>
        <time>2022-10-02T07:47:55Z</time>
      </trkpt>
      <trkpt lat="45.98071" lon="1.07678">
        <ele>338.7</ele>
        <time>2022-10-02T07:47:56Z</time>
      </trkpt>
      <trkpt lat="45.98072" lon="1.07672">
        <ele>339.2</ele>
        <time>2022-10-02T07:47:57Z</time>
      </trkpt>
      <trkpt lat="45.98074" lon="1.07666">
        <ele>339.6</ele>
        <time>2022-10-02T07:47:58Z</time>
      </trkpt>
      <trkpt lat="45.98076" lon="1.0766">
        <ele>340</ele>
        <time>2022-10-02T07:47:59Z</time>
      </trkpt>
      <trkpt lat="45.98078" lon="1.07654">
        <ele>340.4</ele>
        <time>2022-10-02T07:48:00Z</time>
      </trkpt>
      <trkpt lat="45.98079" lon="1.07648">
        <ele>340.7</ele>
        <time>2022-10-02T07:48:01Z</time>
      </trkpt>
      <trkpt lat="45.98081" lon="1.07643">
        <ele>341.1</ele>
        <time>2022-10-02T07:48:02Z</time>
      </trkpt>
      <trkpt lat="45.98081" lon="1.07638">
        <ele>341.4</ele>
        <time>2022-10-02T07:48:03Z</time>
      </trkpt>
      <trkpt lat="45.98083" lon="1.07633">
        <ele>341.7</ele>
        <time>2022-10-02T07:48:04Z</time>
      </trkpt>
      <trkpt lat="45.98084" lon="1.07628">
        <ele>342.1</ele>
        <time>2022-10-02T07:48:05Z</time>
      </trkpt>
      <trkpt lat="45.98085" lon="1.07623">
        <ele>342.5</ele>
        <time>2022-10-02T07:48:06Z</time>
      </trkpt>
      <trkpt lat="45.98086" lon="1.07617">
        <ele>342.8</ele>
        <time>2022-10-02T07:48:07Z</time>
      </trkpt>
      <trkpt lat="45.98087" lon="1.07611">
        <ele>343.2</ele>
        <time>2022-10-02T07:48:08Z</time>
      </trkpt>
      <trkpt lat="45.98088" lon="1.07606">
        <ele>343.6</ele>
        <time>2022-10-02T07:48:09Z</time>
      </trkpt>
      <trkpt lat="45.9809" lon="1.07601">
        <ele>344</ele>
        <time>2022-10-02T07:48:11Z</time>
      </trkpt>
      <trkpt lat="45.98091" lon="1.07596">
        <ele>344.4</ele>
        <time>2022-10-02T07:48:12Z</time>
      </trkpt>
      <trkpt lat="45.98094" lon="1.07594">
        <ele>345</ele>
        <time>2022-10-02T07:48:13Z</time>
      </trkpt>
      <trkpt lat="45.98098" lon="1.07594">
        <ele>345</ele>
        <time>2022-10-02T07:48:14Z</time>
      </trkpt>
      <trkpt lat="45.98101" lon="1.07598">
        <ele>345</ele>
        <time>2022-10-02T07:48:15Z</time>
      </trkpt>
      <trkpt lat="45.98104" lon="1.07605">
        <ele>345</ele>
        <time>2022-10-02T07:48:16Z</time>
      </trkpt>
      <trkpt lat="45.98107" lon="1.0761">
        <ele>345</ele>
        <time>2022-10-02T07:48:17Z</time>
      </trkpt>
      <trkpt lat="45.98111" lon="1.07616">
        <ele>345.1</ele>
        <time>2022-10-02T07:48:18Z</time>
      </trkpt>
      <trkpt lat="45.98115" lon="1.07622">
        <ele>345.1</ele>
        <time>2022-10-02T07:48:19Z</time>
      </trkpt>
      <trkpt lat="45.98118" lon="1.07628">
        <ele>345.1</ele>
        <time>2022-10-02T07:48:20Z</time>
      </trkpt>
      <trkpt lat="45.98122" lon="1.07635">
        <ele>345.1</ele>
        <time>2022-10-02T07:48:21Z</time>
      </trkpt>
      <trkpt lat="45.98125" lon="1.07641">
        <ele>345.1</ele>
        <time>2022-10-02T07:48:22Z</time>
      </trkpt>
      <trkpt lat="45.98128" lon="1.07647">
        <ele>345.1</ele>
        <time>2022-10-02T07:48:23Z</time>
      </trkpt>
      <trkpt lat="45.98132" lon="1.07653">
        <ele>345.1</ele>
        <time>2022-10-02T07:48:24Z</time>
      </trkpt>
      <trkpt lat="45.98135" lon="1.07659">
        <ele>345.1</ele>
        <time>2022-10-02T07:48:25Z</time>
      </trkpt>
      <trkpt lat="45.98139" lon="1.07663">
        <ele>345</ele>
        <time>2022-10-02T07:48:26Z</time>
      </trkpt>
      <trkpt lat="45.98141" lon="1.07669">
        <ele>345</ele>
        <time>2022-10-02T07:48:27Z</time>
      </trkpt>
      <trkpt lat="45.98144" lon="1.07674">
        <ele>345</ele>
        <time>2022-10-02T07:48:28Z</time>
      </trkpt>
      <trkpt lat="45.98145" lon="1.07681">
        <ele>344.9</ele>
        <time>2022-10-02T07:48:29Z</time>
      </trkpt>
      <trkpt lat="45.98149" lon="1.07689">
        <ele>344.9</ele>
        <time>2022-10-02T07:48:30Z</time>
      </trkpt>
      <trkpt lat="45.9815" lon="1.07697">
        <ele>344.9</ele>
        <time>2022-10-02T07:48:31Z</time>
      </trkpt>
      <trkpt lat="45.98152" lon="1.07702">
        <ele>344.9</ele>
        <time>2022-10-02T07:48:32Z</time>
      </trkpt>
      <trkpt lat="45.9815" lon="1.07712">
        <ele>344.9</ele>
        <time>2022-10-02T07:48:33Z</time>
      </trkpt>
      <trkpt lat="45.98149" lon="1.07718">
        <ele>344.9</ele>
        <time>2022-10-02T07:48:34Z</time>
      </trkpt>
      <trkpt lat="45.98151" lon="1.07726">
        <ele>344.9</ele>
        <time>2022-10-02T07:48:35Z</time>
      </trkpt>
      <trkpt lat="45.98154" lon="1.07731">
        <ele>344.9</ele>
        <time>2022-10-02T07:48:36Z</time>
      </trkpt>
      <trkpt lat="45.98158" lon="1.07736">
        <ele>344.9</ele>
        <time>2022-10-02T07:48:37Z</time>
      </trkpt>
      <trkpt lat="45.9816" lon="1.07743">
        <ele>344.9</ele>
        <time>2022-10-02T07:48:38Z</time>
      </trkpt>
      <trkpt lat="45.98164" lon="1.07748">
        <ele>344.9</ele>
        <time>2022-10-02T07:48:39Z</time>
      </trkpt>
      <trkpt lat="45.98169" lon="1.07754">
        <ele>344.9</ele>
        <time>2022-10-02T07:48:40Z</time>
      </trkpt>
      <trkpt lat="45.98172" lon="1.0776">
        <ele>344.9</ele>
        <time>2022-10-02T07:48:41Z</time>
      </trkpt>
      <trkpt lat="45.98175" lon="1.07767">
        <ele>344.8</ele>
        <time>2022-10-02T07:48:42Z</time>
      </trkpt>
      <trkpt lat="45.9818" lon="1.07768">
        <ele>344.8</ele>
        <time>2022-10-02T07:48:43Z</time>
      </trkpt>
      <trkpt lat="45.98181" lon="1.07776">
        <ele>344.9</ele>
        <time>2022-10-02T07:48:44Z</time>
      </trkpt>
      <trkpt lat="45.9818" lon="1.07784">
        <ele>344.9</ele>
        <time>2022-10-02T07:48:45Z</time>
      </trkpt>
      <trkpt lat="45.98181" lon="1.07791">
        <ele>345</ele>
        <time>2022-10-02T07:48:46Z</time>
      </trkpt>
      <trkpt lat="45.98182" lon="1.07799">
        <ele>345</ele>
        <time>2022-10-02T07:48:47Z</time>
      </trkpt>
      <trkpt lat="45.98183" lon="1.07808">
        <ele>345.2</ele>
        <time>2022-10-02T07:48:48Z</time>
      </trkpt>
      <trkpt lat="45.98183" lon="1.07815">
        <ele>345.3</ele>
        <time>2022-10-02T07:48:49Z</time>
      </trkpt>
      <trkpt lat="45.98185" lon="1.07826">
        <ele>345.4</ele>
        <time>2022-10-02T07:48:50Z</time>
      </trkpt>
      <trkpt lat="45.98184" lon="1.07833">
        <ele>345.6</ele>
        <time>2022-10-02T07:48:51Z</time>
      </trkpt>
      <trkpt lat="45.98186" lon="1.0784">
        <ele>345.7</ele>
        <time>2022-10-02T07:48:52Z</time>
      </trkpt>
      <trkpt lat="45.98189" lon="1.07846">
        <ele>345.8</ele>
        <time>2022-10-02T07:48:53Z</time>
      </trkpt>
      <trkpt lat="45.98191" lon="1.07852">
        <ele>345.9</ele>
        <time>2022-10-02T07:48:54Z</time>
      </trkpt>
      <trkpt lat="45.98195" lon="1.07858">
        <ele>346.1</ele>
        <time>2022-10-02T07:48:55Z</time>
      </trkpt>
      <trkpt lat="45.98197" lon="1.07865">
        <ele>346.2</ele>
        <time>2022-10-02T07:48:56Z</time>
      </trkpt>
      <trkpt lat="45.98202" lon="1.07873">
        <ele>346.4</ele>
        <time>2022-10-02T07:48:57Z</time>
      </trkpt>
      <trkpt lat="45.98205" lon="1.0788">
        <ele>346.6</ele>
        <time>2022-10-02T07:48:58Z</time>
      </trkpt>
      <trkpt lat="45.98209" lon="1.07888">
        <ele>346.8</ele>
        <time>2022-10-02T07:48:59Z</time>
      </trkpt>
      <trkpt lat="45.98215" lon="1.07896">
        <ele>347</ele>
        <time>2022-10-02T07:49:00Z</time>
      </trkpt>
      <trkpt lat="45.98218" lon="1.07902">
        <ele>347.2</ele>
        <time>2022-10-02T07:49:01Z</time>
      </trkpt>
      <trkpt lat="45.98223" lon="1.07909">
        <ele>347.3</ele>
        <time>2022-10-02T07:49:02Z</time>
      </trkpt>
      <trkpt lat="45.98226" lon="1.07915">
        <ele>347.5</ele>
        <time>2022-10-02T07:49:03Z</time>
      </trkpt>
      <trkpt lat="45.9823" lon="1.07923">
        <ele>347.9</ele>
        <time>2022-10-02T07:49:04Z</time>
      </trkpt>
      <trkpt lat="45.98233" lon="1.0793">
        <ele>348.3</ele>
        <time>2022-10-02T07:49:05Z</time>
      </trkpt>
      <trkpt lat="45.98237" lon="1.07936">
        <ele>348.7</ele>
        <time>2022-10-02T07:49:06Z</time>
      </trkpt>
      <trkpt lat="45.9824" lon="1.07942">
        <ele>349.1</ele>
        <time>2022-10-02T07:49:07Z</time>
      </trkpt>
      <trkpt lat="45.98244" lon="1.07946">
        <ele>349.5</ele>
        <time>2022-10-02T07:49:08Z</time>
      </trkpt>
      <trkpt lat="45.98248" lon="1.07952">
        <ele>349.9</ele>
        <time>2022-10-02T07:49:09Z</time>
      </trkpt>
      <trkpt lat="45.98251" lon="1.07958">
        <ele>350.2</ele>
        <time>2022-10-02T07:49:10Z</time>
      </trkpt>
      <trkpt lat="45.98255" lon="1.07963">
        <ele>350.5</ele>
        <time>2022-10-02T07:49:11Z</time>
      </trkpt>
      <trkpt lat="45.98258" lon="1.07968">
        <ele>350.8</ele>
        <time>2022-10-02T07:49:12Z</time>
      </trkpt>
      <trkpt lat="45.98262" lon="1.07973">
        <ele>351.1</ele>
        <time>2022-10-02T07:49:13Z</time>
      </trkpt>
      <trkpt lat="45.98265" lon="1.07978">
        <ele>351.3</ele>
        <time>2022-10-02T07:49:14Z</time>
      </trkpt>
      <trkpt lat="45.98271" lon="1.07982">
        <ele>351.6</ele>
        <time>2022-10-02T07:49:15Z</time>
      </trkpt>
      <trkpt lat="45.98275" lon="1.07987">
        <ele>351.9</ele>
        <time>2022-10-02T07:49:16Z</time>
      </trkpt>
      <trkpt lat="45.98279" lon="1.07991">
        <ele>352.2</ele>
        <time>2022-10-02T07:49:17Z</time>
      </trkpt>
      <trkpt lat="45.98284" lon="1.07995">
        <ele>352.4</ele>
        <time>2022-10-02T07:49:18Z</time>
      </trkpt>
      <trkpt lat="45.98288" lon="1.07999">
        <ele>352.6</ele>
        <time>2022-10-02T07:49:19Z</time>
      </trkpt>
      <trkpt lat="45.98292" lon="1.08004">
        <ele>352.8</ele>
        <time>2022-10-02T07:49:20Z</time>
      </trkpt>
      <trkpt lat="45.98296" lon="1.08009">
        <ele>352.9</ele>
        <time>2022-10-02T07:49:21Z</time>
      </trkpt>
      <trkpt lat="45.98299" lon="1.08014">
        <ele>352.9</ele>
        <time>2022-10-02T07:49:22Z</time>
      </trkpt>
      <trkpt lat="45.98299" lon="1.08023">
        <ele>352.9</ele>
        <time>2022-10-02T07:49:23Z</time>
      </trkpt>
      <trkpt lat="45.98302" lon="1.08028">
        <ele>352.8</ele>
        <time>2022-10-02T07:49:24Z</time>
      </trkpt>
      <trkpt lat="45.98306" lon="1.08034">
        <ele>352.6</ele>
        <time>2022-10-02T07:49:25Z</time>
      </trkpt>
      <trkpt lat="45.98311" lon="1.08041">
        <ele>352.4</ele>
        <time>2022-10-02T07:49:26Z</time>
      </trkpt>
      <trkpt lat="45.98316" lon="1.08047">
        <ele>352.2</ele>
        <time>2022-10-02T07:49:27Z</time>
      </trkpt>
      <trkpt lat="45.98319" lon="1.08055">
        <ele>352</ele>
        <time>2022-10-02T07:49:28Z</time>
      </trkpt>
      <trkpt lat="45.98324" lon="1.08061">
        <ele>351.8</ele>
        <time>2022-10-02T07:49:29Z</time>
      </trkpt>
      <trkpt lat="45.98329" lon="1.08067">
        <ele>351.6</ele>
        <time>2022-10-02T07:49:30Z</time>
      </trkpt>
      <trkpt lat="45.98335" lon="1.08073">
        <ele>351.5</ele>
        <time>2022-10-02T07:49:31Z</time>
      </trkpt>
      <trkpt lat="45.98341" lon="1.08078">
        <ele>351.4</ele>
        <time>2022-10-02T07:49:32Z</time>
      </trkpt>
      <trkpt lat="45.98347" lon="1.08083">
        <ele>351.3</ele>
        <time>2022-10-02T07:49:33Z</time>
      </trkpt>
      <trkpt lat="45.98352" lon="1.08089">
        <ele>351.2</ele>
        <time>2022-10-02T07:49:34Z</time>
      </trkpt>
      <trkpt lat="45.98357" lon="1.08093">
        <ele>351.2</ele>
        <time>2022-10-02T07:49:35Z</time>
      </trkpt>
      <trkpt lat="45.98361" lon="1.08098">
        <ele>351.1</ele>
        <time>2022-10-02T07:49:36Z</time>
      </trkpt>
      <trkpt lat="45.98367" lon="1.08101">
        <ele>351.1</ele>
        <time>2022-10-02T07:49:37Z</time>
      </trkpt>
      <trkpt lat="45.98374" lon="1.08104">
        <ele>351</ele>
        <time>2022-10-02T07:49:38Z</time>
      </trkpt>
      <trkpt lat="45.98379" lon="1.08107">
        <ele>350.9</ele>
        <time>2022-10-02T07:49:39Z</time>
      </trkpt>
      <trkpt lat="45.98385" lon="1.0811">
        <ele>350.8</ele>
        <time>2022-10-02T07:49:40Z</time>
      </trkpt>
      <trkpt lat="45.9839" lon="1.08112">
        <ele>350.6</ele>
        <time>2022-10-02T07:49:41Z</time>
      </trkpt>
      <trkpt lat="45.98395" lon="1.08116">
        <ele>350.4</ele>
        <time>2022-10-02T07:49:42Z</time>
      </trkpt>
      <trkpt lat="45.98401" lon="1.08121">
        <ele>350.1</ele>
        <time>2022-10-02T07:49:43Z</time>
      </trkpt>
      <trkpt lat="45.98406" lon="1.08125">
        <ele>349.8</ele>
        <time>2022-10-02T07:49:44Z</time>
      </trkpt>
      <trkpt lat="45.98413" lon="1.08131">
        <ele>349.5</ele>
        <time>2022-10-02T07:49:45Z</time>
      </trkpt>
      <trkpt lat="45.98418" lon="1.08138">
        <ele>349.1</ele>
        <time>2022-10-02T07:49:46Z</time>
      </trkpt>
      <trkpt lat="45.98424" lon="1.08145">
        <ele>348.8</ele>
        <time>2022-10-02T07:49:47Z</time>
      </trkpt>
      <trkpt lat="45.98429" lon="1.08151">
        <ele>348.5</ele>
        <time>2022-10-02T07:49:48Z</time>
      </trkpt>
      <trkpt lat="45.98434" lon="1.08159">
        <ele>348.2</ele>
        <time>2022-10-02T07:49:49Z</time>
      </trkpt>
      <trkpt lat="45.98439" lon="1.08167">
        <ele>347.9</ele>
        <time>2022-10-02T07:49:50Z</time>
      </trkpt>
      <trkpt lat="45.98442" lon="1.08176">
        <ele>347.6</ele>
        <time>2022-10-02T07:49:51Z</time>
      </trkpt>
      <trkpt lat="45.98446" lon="1.08184">
        <ele>347.3</ele>
        <time>2022-10-02T07:49:52Z</time>
      </trkpt>
      <trkpt lat="45.9845" lon="1.08192">
        <ele>347.1</ele>
        <time>2022-10-02T07:49:53Z</time>
      </trkpt>
      <trkpt lat="45.98452" lon="1.08202">
        <ele>346.8</ele>
        <time>2022-10-02T07:49:54Z</time>
      </trkpt>
      <trkpt lat="45.98457" lon="1.08211">
        <ele>346.5</ele>
        <time>2022-10-02T07:49:55Z</time>
      </trkpt>
      <trkpt lat="45.9846" lon="1.0822">
        <ele>346.1</ele>
        <time>2022-10-02T07:49:56Z</time>
      </trkpt>
      <trkpt lat="45.98464" lon="1.08229">
        <ele>345.8</ele>
        <time>2022-10-02T07:49:57Z</time>
      </trkpt>
      <trkpt lat="45.98468" lon="1.08237">
        <ele>345.5</ele>
        <time>2022-10-02T07:49:58Z</time>
      </trkpt>
      <trkpt lat="45.98474" lon="1.08243">
        <ele>345.2</ele>
        <time>2022-10-02T07:49:59Z</time>
      </trkpt>
      <trkpt lat="45.9848" lon="1.0825">
        <ele>344.9</ele>
        <time>2022-10-02T07:50:00Z</time>
      </trkpt>
      <trkpt lat="45.98486" lon="1.08257">
        <ele>344.7</ele>
        <time>2022-10-02T07:50:01Z</time>
      </trkpt>
      <trkpt lat="45.98497" lon="1.08269">
        <ele>344.3</ele>
        <time>2022-10-02T07:50:02Z</time>
      </trkpt>
      <trkpt lat="45.98503" lon="1.08275">
        <ele>344.1</ele>
        <time>2022-10-02T07:50:03Z</time>
      </trkpt>
      <trkpt lat="45.9851" lon="1.0828">
        <ele>343.9</ele>
        <time>2022-10-02T07:50:04Z</time>
      </trkpt>
      <trkpt lat="45.98516" lon="1.08285">
        <ele>343.8</ele>
        <time>2022-10-02T07:50:05Z</time>
      </trkpt>
      <trkpt lat="45.98522" lon="1.08289">
        <ele>343.6</ele>
        <time>2022-10-02T07:50:06Z</time>
      </trkpt>
      <trkpt lat="45.98529" lon="1.08291">
        <ele>343.5</ele>
        <time>2022-10-02T07:50:07Z</time>
      </trkpt>
      <trkpt lat="45.98535" lon="1.0829">
        <ele>343.4</ele>
        <time>2022-10-02T07:50:08Z</time>
      </trkpt>
      <trkpt lat="45.98543" lon="1.0829">
        <ele>343.3</ele>
        <time>2022-10-02T07:50:09Z</time>
      </trkpt>
      <trkpt lat="45.98549" lon="1.08287">
        <ele>343.1</ele>
        <time>2022-10-02T07:50:10Z</time>
      </trkpt>
      <trkpt lat="45.98555" lon="1.08285">
        <ele>343</ele>
        <time>2022-10-02T07:50:11Z</time>
      </trkpt>
      <trkpt lat="45.98561" lon="1.08281">
        <ele>342.9</ele>
        <time>2022-10-02T07:50:12Z</time>
      </trkpt>
      <trkpt lat="45.98567" lon="1.08278">
        <ele>342.7</ele>
        <time>2022-10-02T07:50:13Z</time>
      </trkpt>
      <trkpt lat="45.98572" lon="1.08278">
        <ele>342.6</ele>
        <time>2022-10-02T07:50:14Z</time>
      </trkpt>
      <trkpt lat="45.98579" lon="1.08276">
        <ele>342.5</ele>
        <time>2022-10-02T07:50:15Z</time>
      </trkpt>
      <trkpt lat="45.98585" lon="1.08274">
        <ele>342.4</ele>
        <time>2022-10-02T07:50:16Z</time>
      </trkpt>
      <trkpt lat="45.98591" lon="1.08274">
        <ele>342.3</ele>
        <time>2022-10-02T07:50:17Z</time>
      </trkpt>
      <trkpt lat="45.98597" lon="1.08271">
        <ele>342.3</ele>
        <time>2022-10-02T07:50:18Z</time>
      </trkpt>
      <trkpt lat="45.98602" lon="1.08269">
        <ele>342.2</ele>
        <time>2022-10-02T07:50:19Z</time>
      </trkpt>
      <trkpt lat="45.98608" lon="1.08266">
        <ele>342.2</ele>
        <time>2022-10-02T07:50:20Z</time>
      </trkpt>
      <trkpt lat="45.98614" lon="1.08265">
        <ele>342.1</ele>
        <time>2022-10-02T07:50:21Z</time>
      </trkpt>
      <trkpt lat="45.98619" lon="1.08265">
        <ele>342.1</ele>
        <time>2022-10-02T07:50:22Z</time>
      </trkpt>
      <trkpt lat="45.98625" lon="1.08264">
        <ele>342.1</ele>
        <time>2022-10-02T07:50:23Z</time>
      </trkpt>
      <trkpt lat="45.98632" lon="1.08263">
        <ele>342.2</ele>
        <time>2022-10-02T07:50:24Z</time>
      </trkpt>
      <trkpt lat="45.98637" lon="1.08262">
        <ele>342.2</ele>
        <time>2022-10-02T07:50:25Z</time>
      </trkpt>
      <trkpt lat="45.98643" lon="1.08259">
        <ele>342.2</ele>
        <time>2022-10-02T07:50:26Z</time>
      </trkpt>
      <trkpt lat="45.98649" lon="1.08258">
        <ele>342.3</ele>
        <time>2022-10-02T07:50:27Z</time>
      </trkpt>
      <trkpt lat="45.98656" lon="1.08259">
        <ele>342.4</ele>
        <time>2022-10-02T07:50:28Z</time>
      </trkpt>
      <trkpt lat="45.98662" lon="1.08257">
        <ele>342.5</ele>
        <time>2022-10-02T07:50:29Z</time>
      </trkpt>
      <trkpt lat="45.98667" lon="1.08254">
        <ele>342.6</ele>
        <time>2022-10-02T07:50:30Z</time>
      </trkpt>
      <trkpt lat="45.98673" lon="1.08253">
        <ele>342.7</ele>
        <time>2022-10-02T07:50:31Z</time>
      </trkpt>
      <trkpt lat="45.98679" lon="1.08251">
        <ele>342.9</ele>
        <time>2022-10-02T07:50:32Z</time>
      </trkpt>
      <trkpt lat="45.98685" lon="1.0825">
        <ele>343.1</ele>
        <time>2022-10-02T07:50:33Z</time>
      </trkpt>
      <trkpt lat="45.9869" lon="1.08249">
        <ele>343.3</ele>
        <time>2022-10-02T07:50:34Z</time>
      </trkpt>
      <trkpt lat="45.98696" lon="1.08249">
        <ele>343.5</ele>
        <time>2022-10-02T07:50:35Z</time>
      </trkpt>
      <trkpt lat="45.98702" lon="1.08248">
        <ele>343.8</ele>
        <time>2022-10-02T07:50:36Z</time>
      </trkpt>
      <trkpt lat="45.9871" lon="1.08248">
        <ele>344.1</ele>
        <time>2022-10-02T07:50:37Z</time>
      </trkpt>
      <trkpt lat="45.98716" lon="1.08245">
        <ele>344.4</ele>
        <time>2022-10-02T07:50:38Z</time>
      </trkpt>
      <trkpt lat="45.98722" lon="1.08244">
        <ele>344.7</ele>
        <time>2022-10-02T07:50:39Z</time>
      </trkpt>
      <trkpt lat="45.98727" lon="1.08244">
        <ele>344.9</ele>
        <time>2022-10-02T07:50:40Z</time>
      </trkpt>
      <trkpt lat="45.98732" lon="1.08246">
        <ele>345.2</ele>
        <time>2022-10-02T07:50:41Z</time>
      </trkpt>
      <trkpt lat="45.98738" lon="1.08248">
        <ele>345.4</ele>
        <time>2022-10-02T07:50:42Z</time>
      </trkpt>
      <trkpt lat="45.98744" lon="1.08249">
        <ele>345.7</ele>
        <time>2022-10-02T07:50:43Z</time>
      </trkpt>
      <trkpt lat="45.98749" lon="1.08251">
        <ele>345.8</ele>
        <time>2022-10-02T07:50:44Z</time>
      </trkpt>
      <trkpt lat="45.98754" lon="1.08253">
        <ele>345.9</ele>
        <time>2022-10-02T07:50:45Z</time>
      </trkpt>
      <trkpt lat="45.98759" lon="1.08255">
        <ele>346</ele>
        <time>2022-10-02T07:50:46Z</time>
      </trkpt>
      <trkpt lat="45.98765" lon="1.08259">
        <ele>346.2</ele>
        <time>2022-10-02T07:50:47Z</time>
      </trkpt>
      <trkpt lat="45.98771" lon="1.08263">
        <ele>346.4</ele>
        <time>2022-10-02T07:50:48Z</time>
      </trkpt>
      <trkpt lat="45.98776" lon="1.08267">
        <ele>346.5</ele>
        <time>2022-10-02T07:50:49Z</time>
      </trkpt>
      <trkpt lat="45.9878" lon="1.08271">
        <ele>346.7</ele>
        <time>2022-10-02T07:50:50Z</time>
      </trkpt>
      <trkpt lat="45.98786" lon="1.08275">
        <ele>346.9</ele>
        <time>2022-10-02T07:50:51Z</time>
      </trkpt>
      <trkpt lat="45.98791" lon="1.08279">
        <ele>347.2</ele>
        <time>2022-10-02T07:50:52Z</time>
      </trkpt>
      <trkpt lat="45.98797" lon="1.08283">
        <ele>347.5</ele>
        <time>2022-10-02T07:50:53Z</time>
      </trkpt>
      <trkpt lat="45.98801" lon="1.08287">
        <ele>347.7</ele>
        <time>2022-10-02T07:50:54Z</time>
      </trkpt>
      <trkpt lat="45.98806" lon="1.08292">
        <ele>348.1</ele>
        <time>2022-10-02T07:50:55Z</time>
      </trkpt>
      <trkpt lat="45.98811" lon="1.08295">
        <ele>348.3</ele>
        <time>2022-10-02T07:50:56Z</time>
      </trkpt>
      <trkpt lat="45.98815" lon="1.08298">
        <ele>348.6</ele>
        <time>2022-10-02T07:50:57Z</time>
      </trkpt>
      <trkpt lat="45.98821" lon="1.083">
        <ele>349</ele>
        <time>2022-10-02T07:50:58Z</time>
      </trkpt>
      <trkpt lat="45.98826" lon="1.08302">
        <ele>349.3</ele>
        <time>2022-10-02T07:50:59Z</time>
      </trkpt>
      <trkpt lat="45.9883" lon="1.08307">
        <ele>349.7</ele>
        <time>2022-10-02T07:51:00Z</time>
      </trkpt>
      <trkpt lat="45.98834" lon="1.08311">
        <ele>350</ele>
        <time>2022-10-02T07:51:01Z</time>
      </trkpt>
      <trkpt lat="45.98838" lon="1.08316">
        <ele>350.3</ele>
        <time>2022-10-02T07:51:02Z</time>
      </trkpt>
      <trkpt lat="45.98843" lon="1.08319">
        <ele>350.7</ele>
        <time>2022-10-02T07:51:03Z</time>
      </trkpt>
      <trkpt lat="45.98846" lon="1.08323">
        <ele>351</ele>
        <time>2022-10-02T07:51:04Z</time>
      </trkpt>
      <trkpt lat="45.9885" lon="1.08327">
        <ele>351.3</ele>
        <time>2022-10-02T07:51:05Z</time>
      </trkpt>
      <trkpt lat="45.98855" lon="1.08331">
        <ele>351.7</ele>
        <time>2022-10-02T07:51:06Z</time>
      </trkpt>
      <trkpt lat="45.98859" lon="1.08334">
        <ele>352.1</ele>
        <time>2022-10-02T07:51:07Z</time>
      </trkpt>
      <trkpt lat="45.98864" lon="1.08338">
        <ele>352.4</ele>
        <time>2022-10-02T07:51:08Z</time>
      </trkpt>
      <trkpt lat="45.98869" lon="1.08341">
        <ele>352.7</ele>
        <time>2022-10-02T07:51:09Z</time>
      </trkpt>
      <trkpt lat="45.98873" lon="1.08344">
        <ele>353</ele>
        <time>2022-10-02T07:51:10Z</time>
      </trkpt>
      <trkpt lat="45.98877" lon="1.08348">
        <ele>353.2</ele>
        <time>2022-10-02T07:51:11Z</time>
      </trkpt>
      <trkpt lat="45.98881" lon="1.08352">
        <ele>353.3</ele>
        <time>2022-10-02T07:51:12Z</time>
      </trkpt>
      <trkpt lat="45.98886" lon="1.08355">
        <ele>353.5</ele>
        <time>2022-10-02T07:51:13Z</time>
      </trkpt>
      <trkpt lat="45.9889" lon="1.08359">
        <ele>353.6</ele>
        <time>2022-10-02T07:51:14Z</time>
      </trkpt>
      <trkpt lat="45.98895" lon="1.08363">
        <ele>353.6</ele>
        <time>2022-10-02T07:51:15Z</time>
      </trkpt>
      <trkpt lat="45.989" lon="1.08367">
        <ele>353.6</ele>
        <time>2022-10-02T07:51:16Z</time>
      </trkpt>
      <trkpt lat="45.98905" lon="1.08369">
        <ele>353.7</ele>
        <time>2022-10-02T07:51:17Z</time>
      </trkpt>
      <trkpt lat="45.98909" lon="1.08372">
        <ele>353.7</ele>
        <time>2022-10-02T07:51:18Z</time>
      </trkpt>
      <trkpt lat="45.98914" lon="1.08376">
        <ele>353.7</ele>
        <time>2022-10-02T07:51:19Z</time>
      </trkpt>
      <trkpt lat="45.98918" lon="1.0838">
        <ele>353.7</ele>
        <time>2022-10-02T07:51:20Z</time>
      </trkpt>
      <trkpt lat="45.98922" lon="1.08385">
        <ele>353.8</ele>
        <time>2022-10-02T07:51:21Z</time>
      </trkpt>
      <trkpt lat="45.98926" lon="1.08389">
        <ele>353.9</ele>
        <time>2022-10-02T07:51:22Z</time>
      </trkpt>
      <trkpt lat="45.9893" lon="1.08393">
        <ele>353.9</ele>
        <time>2022-10-02T07:51:23Z</time>
      </trkpt>
      <trkpt lat="45.98934" lon="1.08398">
        <ele>354</ele>
        <time>2022-10-02T07:51:24Z</time>
      </trkpt>
      <trkpt lat="45.98939" lon="1.08402">
        <ele>354.1</ele>
        <time>2022-10-02T07:51:25Z</time>
      </trkpt>
      <trkpt lat="45.98943" lon="1.08405">
        <ele>354.2</ele>
        <time>2022-10-02T07:51:26Z</time>
      </trkpt>
      <trkpt lat="45.98946" lon="1.0841">
        <ele>354.3</ele>
        <time>2022-10-02T07:51:27Z</time>
      </trkpt>
      <trkpt lat="45.98951" lon="1.08415">
        <ele>354.5</ele>
        <time>2022-10-02T07:51:28Z</time>
      </trkpt>
      <trkpt lat="45.98955" lon="1.08422">
        <ele>354.7</ele>
        <time>2022-10-02T07:51:29Z</time>
      </trkpt>
      <trkpt lat="45.98959" lon="1.08426">
        <ele>354.9</ele>
        <time>2022-10-02T07:51:30Z</time>
      </trkpt>
      <trkpt lat="45.98964" lon="1.08428">
        <ele>355.1</ele>
        <time>2022-10-02T07:51:31Z</time>
      </trkpt>
      <trkpt lat="45.98968" lon="1.08434">
        <ele>355.3</ele>
        <time>2022-10-02T07:51:32Z</time>
      </trkpt>
      <trkpt lat="45.98971" lon="1.08439">
        <ele>355.5</ele>
        <time>2022-10-02T07:51:33Z</time>
      </trkpt>
      <trkpt lat="45.98974" lon="1.08445">
        <ele>355.8</ele>
        <time>2022-10-02T07:51:34Z</time>
      </trkpt>
      <trkpt lat="45.98977" lon="1.08451">
        <ele>356</ele>
        <time>2022-10-02T07:51:35Z</time>
      </trkpt>
      <trkpt lat="45.98979" lon="1.08458">
        <ele>356.2</ele>
        <time>2022-10-02T07:51:36Z</time>
      </trkpt>
      <trkpt lat="45.98982" lon="1.08463">
        <ele>356.5</ele>
        <time>2022-10-02T07:51:37Z</time>
      </trkpt>
      <trkpt lat="45.98987" lon="1.08472">
        <ele>356.8</ele>
        <time>2022-10-02T07:51:38Z</time>
      </trkpt>
      <trkpt lat="45.98992" lon="1.08477">
        <ele>357</ele>
        <time>2022-10-02T07:51:39Z</time>
      </trkpt>
      <trkpt lat="45.98994" lon="1.08483">
        <ele>357.2</ele>
        <time>2022-10-02T07:51:40Z</time>
      </trkpt>
      <trkpt lat="45.98998" lon="1.08491">
        <ele>357.4</ele>
        <time>2022-10-02T07:51:41Z</time>
      </trkpt>
      <trkpt lat="45.99001" lon="1.08498">
        <ele>357.7</ele>
        <time>2022-10-02T07:51:42Z</time>
      </trkpt>
      <trkpt lat="45.99004" lon="1.08505">
        <ele>357.9</ele>
        <time>2022-10-02T07:51:43Z</time>
      </trkpt>
      <trkpt lat="45.99007" lon="1.08512">
        <ele>358.2</ele>
        <time>2022-10-02T07:51:44Z</time>
      </trkpt>
      <trkpt lat="45.9901" lon="1.08519">
        <ele>358.5</ele>
        <time>2022-10-02T07:51:45Z</time>
      </trkpt>
      <trkpt lat="45.99014" lon="1.08527">
        <ele>358.8</ele>
        <time>2022-10-02T07:51:46Z</time>
      </trkpt>
      <trkpt lat="45.99016" lon="1.08536">
        <ele>359.1</ele>
        <time>2022-10-02T07:51:47Z</time>
      </trkpt>
      <trkpt lat="45.99021" lon="1.08542">
        <ele>359.5</ele>
        <time>2022-10-02T07:51:48Z</time>
      </trkpt>
      <trkpt lat="45.99022" lon="1.08549">
        <ele>359.7</ele>
        <time>2022-10-02T07:51:49Z</time>
      </trkpt>
      <trkpt lat="45.99023" lon="1.08557">
        <ele>359.9</ele>
        <time>2022-10-02T07:51:50Z</time>
      </trkpt>
      <trkpt lat="45.99025" lon="1.08564">
        <ele>360.1</ele>
        <time>2022-10-02T07:51:51Z</time>
      </trkpt>
      <trkpt lat="45.99026" lon="1.08572">
        <ele>360.3</ele>
        <time>2022-10-02T07:51:52Z</time>
      </trkpt>
      <trkpt lat="45.9903" lon="1.0858">
        <ele>360.4</ele>
        <time>2022-10-02T07:51:53Z</time>
      </trkpt>
      <trkpt lat="45.99034" lon="1.08588">
        <ele>360.5</ele>
        <time>2022-10-02T07:51:54Z</time>
      </trkpt>
      <trkpt lat="45.99038" lon="1.08595">
        <ele>360.5</ele>
        <time>2022-10-02T07:51:55Z</time>
      </trkpt>
      <trkpt lat="45.99043" lon="1.08603">
        <ele>360.6</ele>
        <time>2022-10-02T07:51:56Z</time>
      </trkpt>
      <trkpt lat="45.99046" lon="1.08609">
        <ele>360.6</ele>
        <time>2022-10-02T07:51:57Z</time>
      </trkpt>
      <trkpt lat="45.99049" lon="1.08615">
        <ele>360.6</ele>
        <time>2022-10-02T07:51:58Z</time>
      </trkpt>
      <trkpt lat="45.99049" lon="1.08624">
        <ele>360.5</ele>
        <time>2022-10-02T07:51:59Z</time>
      </trkpt>
      <trkpt lat="45.9905" lon="1.08631">
        <ele>360.5</ele>
        <time>2022-10-02T07:52:00Z</time>
      </trkpt>
      <trkpt lat="45.99054" lon="1.0864">
        <ele>360.4</ele>
        <time>2022-10-02T07:52:01Z</time>
      </trkpt>
      <trkpt lat="45.99057" lon="1.08647">
        <ele>360.4</ele>
        <time>2022-10-02T07:52:02Z</time>
      </trkpt>
      <trkpt lat="45.99058" lon="1.08655">
        <ele>360.4</ele>
        <time>2022-10-02T07:52:03Z</time>
      </trkpt>
      <trkpt lat="45.9906" lon="1.08663">
        <ele>360.4</ele>
        <time>2022-10-02T07:52:04Z</time>
      </trkpt>
      <trkpt lat="45.99061" lon="1.08671">
        <ele>360.3</ele>
        <time>2022-10-02T07:52:05Z</time>
      </trkpt>
      <trkpt lat="45.99064" lon="1.0868">
        <ele>360.3</ele>
        <time>2022-10-02T07:52:06Z</time>
      </trkpt>
      <trkpt lat="45.99065" lon="1.08687">
        <ele>360.3</ele>
        <time>2022-10-02T07:52:07Z</time>
      </trkpt>
      <trkpt lat="45.99067" lon="1.08695">
        <ele>360.3</ele>
        <time>2022-10-02T07:52:08Z</time>
      </trkpt>
      <trkpt lat="45.9907" lon="1.08703">
        <ele>360.3</ele>
        <time>2022-10-02T07:52:09Z</time>
      </trkpt>
      <trkpt lat="45.9907" lon="1.08711">
        <ele>360.3</ele>
        <time>2022-10-02T07:52:10Z</time>
      </trkpt>
      <trkpt lat="45.99073" lon="1.08718">
        <ele>360.3</ele>
        <time>2022-10-02T07:52:11Z</time>
      </trkpt>
      <trkpt lat="45.99075" lon="1.08725">
        <ele>360.3</ele>
        <time>2022-10-02T07:52:12Z</time>
      </trkpt>
      <trkpt lat="45.99076" lon="1.08733">
        <ele>360.3</ele>
        <time>2022-10-02T07:52:13Z</time>
      </trkpt>
      <trkpt lat="45.99079" lon="1.0874">
        <ele>360.3</ele>
        <time>2022-10-02T07:52:14Z</time>
      </trkpt>
      <trkpt lat="45.99082" lon="1.08749">
        <ele>360.3</ele>
        <time>2022-10-02T07:52:15Z</time>
      </trkpt>
      <trkpt lat="45.99084" lon="1.08757">
        <ele>360.3</ele>
        <time>2022-10-02T07:52:16Z</time>
      </trkpt>
      <trkpt lat="45.99087" lon="1.08765">
        <ele>360.3</ele>
        <time>2022-10-02T07:52:17Z</time>
      </trkpt>
      <trkpt lat="45.99089" lon="1.08773">
        <ele>360.3</ele>
        <time>2022-10-02T07:52:18Z</time>
      </trkpt>
      <trkpt lat="45.99092" lon="1.08782">
        <ele>360.3</ele>
        <time>2022-10-02T07:52:19Z</time>
      </trkpt>
      <trkpt lat="45.99094" lon="1.0879">
        <ele>360.4</ele>
        <time>2022-10-02T07:52:20Z</time>
      </trkpt>
      <trkpt lat="45.99096" lon="1.08799">
        <ele>360.4</ele>
        <time>2022-10-02T07:52:21Z</time>
      </trkpt>
      <trkpt lat="45.99098" lon="1.08806">
        <ele>360.3</ele>
        <time>2022-10-02T07:52:22Z</time>
      </trkpt>
      <trkpt lat="45.991" lon="1.08814">
        <ele>360.3</ele>
        <time>2022-10-02T07:52:23Z</time>
      </trkpt>
      <trkpt lat="45.99103" lon="1.08822">
        <ele>360.2</ele>
        <time>2022-10-02T07:52:24Z</time>
      </trkpt>
      <trkpt lat="45.99105" lon="1.0883">
        <ele>360.1</ele>
        <time>2022-10-02T07:52:25Z</time>
      </trkpt>
      <trkpt lat="45.99107" lon="1.08838">
        <ele>360</ele>
        <time>2022-10-02T07:52:26Z</time>
      </trkpt>
      <trkpt lat="45.99109" lon="1.08846">
        <ele>359.8</ele>
        <time>2022-10-02T07:52:27Z</time>
      </trkpt>
      <trkpt lat="45.99112" lon="1.08854">
        <ele>359.6</ele>
        <time>2022-10-02T07:52:28Z</time>
      </trkpt>
      <trkpt lat="45.99113" lon="1.08863">
        <ele>359.4</ele>
        <time>2022-10-02T07:52:29Z</time>
      </trkpt>
      <trkpt lat="45.99115" lon="1.08873">
        <ele>359.2</ele>
        <time>2022-10-02T07:52:30Z</time>
      </trkpt>
      <trkpt lat="45.99116" lon="1.08881">
        <ele>359</ele>
        <time>2022-10-02T07:52:31Z</time>
      </trkpt>
      <trkpt lat="45.99117" lon="1.08887">
        <ele>358.8</ele>
        <time>2022-10-02T07:52:32Z</time>
      </trkpt>
      <trkpt lat="45.9912" lon="1.08898">
        <ele>358.6</ele>
        <time>2022-10-02T07:52:33Z</time>
      </trkpt>
      <trkpt lat="45.99124" lon="1.08907">
        <ele>358.3</ele>
        <time>2022-10-02T07:52:34Z</time>
      </trkpt>
      <trkpt lat="45.99126" lon="1.08917">
        <ele>358.1</ele>
        <time>2022-10-02T07:52:35Z</time>
      </trkpt>
      <trkpt lat="45.99127" lon="1.08925">
        <ele>357.9</ele>
        <time>2022-10-02T07:52:36Z</time>
      </trkpt>
      <trkpt lat="45.99126" lon="1.08933">
        <ele>357.7</ele>
        <time>2022-10-02T07:52:37Z</time>
      </trkpt>
      <trkpt lat="45.99128" lon="1.08941">
        <ele>357.5</ele>
        <time>2022-10-02T07:52:38Z</time>
      </trkpt>
      <trkpt lat="45.9913" lon="1.08951">
        <ele>357.2</ele>
        <time>2022-10-02T07:52:39Z</time>
      </trkpt>
      <trkpt lat="45.99133" lon="1.08959">
        <ele>357</ele>
        <time>2022-10-02T07:52:40Z</time>
      </trkpt>
      <trkpt lat="45.99135" lon="1.08967">
        <ele>356.7</ele>
        <time>2022-10-02T07:52:41Z</time>
      </trkpt>
      <trkpt lat="45.99137" lon="1.08977">
        <ele>356.4</ele>
        <time>2022-10-02T07:52:42Z</time>
      </trkpt>
      <trkpt lat="45.99139" lon="1.08986">
        <ele>356.1</ele>
        <time>2022-10-02T07:52:43Z</time>
      </trkpt>
      <trkpt lat="45.99142" lon="1.08995">
        <ele>355.8</ele>
        <time>2022-10-02T07:52:44Z</time>
      </trkpt>
      <trkpt lat="45.99143" lon="1.09004">
        <ele>355.6</ele>
        <time>2022-10-02T07:52:45Z</time>
      </trkpt>
      <trkpt lat="45.99147" lon="1.09013">
        <ele>355.3</ele>
        <time>2022-10-02T07:52:46Z</time>
      </trkpt>
      <trkpt lat="45.99149" lon="1.09021">
        <ele>355</ele>
        <time>2022-10-02T07:52:47Z</time>
      </trkpt>
      <trkpt lat="45.99151" lon="1.09031">
        <ele>354.8</ele>
        <time>2022-10-02T07:52:48Z</time>
      </trkpt>
      <trkpt lat="45.99153" lon="1.09041">
        <ele>354.6</ele>
        <time>2022-10-02T07:52:49Z</time>
      </trkpt>
      <trkpt lat="45.99155" lon="1.0905">
        <ele>354.4</ele>
        <time>2022-10-02T07:52:50Z</time>
      </trkpt>
      <trkpt lat="45.99158" lon="1.09059">
        <ele>354.3</ele>
        <time>2022-10-02T07:52:51Z</time>
      </trkpt>
      <trkpt lat="45.99161" lon="1.0907">
        <ele>354.1</ele>
        <time>2022-10-02T07:52:52Z</time>
      </trkpt>
      <trkpt lat="45.99163" lon="1.09079">
        <ele>354</ele>
        <time>2022-10-02T07:52:53Z</time>
      </trkpt>
      <trkpt lat="45.99162" lon="1.09087">
        <ele>353.9</ele>
        <time>2022-10-02T07:52:54Z</time>
      </trkpt>
      <trkpt lat="45.99164" lon="1.09097">
        <ele>353.8</ele>
        <time>2022-10-02T07:52:55Z</time>
      </trkpt>
      <trkpt lat="45.99168" lon="1.09106">
        <ele>353.7</ele>
        <time>2022-10-02T07:52:56Z</time>
      </trkpt>
      <trkpt lat="45.9917" lon="1.09116">
        <ele>353.6</ele>
        <time>2022-10-02T07:52:57Z</time>
      </trkpt>
      <trkpt lat="45.99172" lon="1.09125">
        <ele>353.5</ele>
        <time>2022-10-02T07:52:58Z</time>
      </trkpt>
      <trkpt lat="45.99174" lon="1.09134">
        <ele>353.4</ele>
        <time>2022-10-02T07:52:59Z</time>
      </trkpt>
      <trkpt lat="45.99175" lon="1.09143">
        <ele>353.4</ele>
        <time>2022-10-02T07:53:00Z</time>
      </trkpt>
      <trkpt lat="45.99177" lon="1.09152">
        <ele>353.3</ele>
        <time>2022-10-02T07:53:01Z</time>
      </trkpt>
      <trkpt lat="45.99178" lon="1.09161">
        <ele>353.3</ele>
        <time>2022-10-02T07:53:02Z</time>
      </trkpt>
      <trkpt lat="45.99179" lon="1.09169">
        <ele>353.3</ele>
        <time>2022-10-02T07:53:03Z</time>
      </trkpt>
      <trkpt lat="45.9918" lon="1.09176">
        <ele>353.4</ele>
        <time>2022-10-02T07:53:04Z</time>
      </trkpt>
      <trkpt lat="45.99182" lon="1.09184">
        <ele>353.4</ele>
        <time>2022-10-02T07:53:05Z</time>
      </trkpt>
      <trkpt lat="45.99184" lon="1.0919">
        <ele>353.4</ele>
        <time>2022-10-02T07:53:06Z</time>
      </trkpt>
      <trkpt lat="45.99186" lon="1.09198">
        <ele>353.4</ele>
        <time>2022-10-02T07:53:07Z</time>
      </trkpt>
      <trkpt lat="45.99188" lon="1.09205">
        <ele>353.4</ele>
        <time>2022-10-02T07:53:08Z</time>
      </trkpt>
      <trkpt lat="45.99189" lon="1.09212">
        <ele>353.4</ele>
        <time>2022-10-02T07:53:09Z</time>
      </trkpt>
      <trkpt lat="45.99191" lon="1.09221">
        <ele>353.5</ele>
        <time>2022-10-02T07:53:10Z</time>
      </trkpt>
      <trkpt lat="45.99192" lon="1.09229">
        <ele>353.5</ele>
        <time>2022-10-02T07:53:11Z</time>
      </trkpt>
      <trkpt lat="45.99194" lon="1.09236">
        <ele>353.6</ele>
        <time>2022-10-02T07:53:12Z</time>
      </trkpt>
      <trkpt lat="45.99195" lon="1.09242">
        <ele>353.6</ele>
        <time>2022-10-02T07:53:13Z</time>
      </trkpt>
      <trkpt lat="45.99198" lon="1.09248">
        <ele>353.7</ele>
        <time>2022-10-02T07:53:14Z</time>
      </trkpt>
      <trkpt lat="45.99199" lon="1.09254">
        <ele>353.8</ele>
        <time>2022-10-02T07:53:15Z</time>
      </trkpt>
      <trkpt lat="45.99199" lon="1.0926">
        <ele>353.9</ele>
        <time>2022-10-02T07:53:16Z</time>
      </trkpt>
      <trkpt lat="45.99199" lon="1.09265">
        <ele>353.9</ele>
        <time>2022-10-02T07:53:17Z</time>
      </trkpt>
      <trkpt lat="45.99201" lon="1.09269">
        <ele>354</ele>
        <time>2022-10-02T07:53:18Z</time>
      </trkpt>
      <trkpt lat="45.99202" lon="1.09271">
        <ele>354</ele>
        <time>2022-10-02T07:53:19Z</time>
      </trkpt>
      <trkpt lat="45.99202" lon="1.09273">
        <ele>354</ele>
        <time>2022-10-02T07:53:20Z</time>
      </trkpt>
      <trkpt lat="45.99203" lon="1.09275">
        <ele>354.1</ele>
        <time>2022-10-02T07:53:22Z</time>
      </trkpt>
      <trkpt lat="45.99207" lon="1.09277">
        <ele>354.2</ele>
        <time>2022-10-02T07:53:29Z</time>
      </trkpt>
      <trkpt lat="45.99208" lon="1.09277">
        <ele>354.2</ele>
        <time>2022-10-02T07:53:30Z</time>
      </trkpt>
      <trkpt lat="45.99211" lon="1.09272">
        <ele>353.9</ele>
        <time>2022-10-02T07:57:31Z</time>
      </trkpt>
      <trkpt lat="45.9921" lon="1.09271">
        <ele>353.9</ele>
        <time>2022-10-02T07:57:32Z</time>
      </trkpt>
      <trkpt lat="45.99214" lon="1.09266">
        <ele>353.7</ele>
        <time>2022-10-02T07:57:37Z</time>
      </trkpt>
      <trkpt lat="45.99216" lon="1.09263">
        <ele>353.6</ele>
        <time>2022-10-02T07:57:38Z</time>
      </trkpt>
      <trkpt lat="45.99218" lon="1.0926">
        <ele>353.5</ele>
        <time>2022-10-02T07:57:39Z</time>
      </trkpt>
      <trkpt lat="45.99223" lon="1.09255">
        <ele>353.3</ele>
        <time>2022-10-02T07:57:40Z</time>
      </trkpt>
      <trkpt lat="45.99227" lon="1.09249">
        <ele>353.1</ele>
        <time>2022-10-02T07:57:41Z</time>
      </trkpt>
      <trkpt lat="45.99231" lon="1.09242">
        <ele>352.9</ele>
        <time>2022-10-02T07:57:42Z</time>
      </trkpt>
      <trkpt lat="45.99235" lon="1.09235">
        <ele>352.6</ele>
        <time>2022-10-02T07:57:43Z</time>
      </trkpt>
      <trkpt lat="45.9924" lon="1.09229">
        <ele>352.4</ele>
        <time>2022-10-02T07:57:44Z</time>
      </trkpt>
      <trkpt lat="45.99245" lon="1.09223">
        <ele>352.3</ele>
        <time>2022-10-02T07:57:45Z</time>
      </trkpt>
      <trkpt lat="45.99249" lon="1.09215">
        <ele>352.1</ele>
        <time>2022-10-02T07:57:46Z</time>
      </trkpt>
      <trkpt lat="45.99253" lon="1.09208">
        <ele>352</ele>
        <time>2022-10-02T07:57:47Z</time>
      </trkpt>
      <trkpt lat="45.99257" lon="1.09202">
        <ele>352</ele>
        <time>2022-10-02T07:57:48Z</time>
      </trkpt>
      <trkpt lat="45.99261" lon="1.09195">
        <ele>351.9</ele>
        <time>2022-10-02T07:57:49Z</time>
      </trkpt>
      <trkpt lat="45.99264" lon="1.09188">
        <ele>351.9</ele>
        <time>2022-10-02T07:57:50Z</time>
      </trkpt>
      <trkpt lat="45.99269" lon="1.09181">
        <ele>351.8</ele>
        <time>2022-10-02T07:57:51Z</time>
      </trkpt>
      <trkpt lat="45.99273" lon="1.09174">
        <ele>351.8</ele>
        <time>2022-10-02T07:57:52Z</time>
      </trkpt>
      <trkpt lat="45.99277" lon="1.09168">
        <ele>351.8</ele>
        <time>2022-10-02T07:57:53Z</time>
      </trkpt>
      <trkpt lat="45.99279" lon="1.09162">
        <ele>351.8</ele>
        <time>2022-10-02T07:57:54Z</time>
      </trkpt>
      <trkpt lat="45.99283" lon="1.09156">
        <ele>351.8</ele>
        <time>2022-10-02T07:57:55Z</time>
      </trkpt>
      <trkpt lat="45.99288" lon="1.0915">
        <ele>351.8</ele>
        <time>2022-10-02T07:57:56Z</time>
      </trkpt>
      <trkpt lat="45.99292" lon="1.09142">
        <ele>351.8</ele>
        <time>2022-10-02T07:57:57Z</time>
      </trkpt>
      <trkpt lat="45.99295" lon="1.09136">
        <ele>351.8</ele>
        <time>2022-10-02T07:57:58Z</time>
      </trkpt>
      <trkpt lat="45.99299" lon="1.0913">
        <ele>351.8</ele>
        <time>2022-10-02T07:57:59Z</time>
      </trkpt>
      <trkpt lat="45.99303" lon="1.09125">
        <ele>351.8</ele>
        <time>2022-10-02T07:58:00Z</time>
      </trkpt>
      <trkpt lat="45.99308" lon="1.09118">
        <ele>351.9</ele>
        <time>2022-10-02T07:58:01Z</time>
      </trkpt>
      <trkpt lat="45.99312" lon="1.09112">
        <ele>351.9</ele>
        <time>2022-10-02T07:58:02Z</time>
      </trkpt>
      <trkpt lat="45.99317" lon="1.09107">
        <ele>351.8</ele>
        <time>2022-10-02T07:58:03Z</time>
      </trkpt>
      <trkpt lat="45.99322" lon="1.09101">
        <ele>351.8</ele>
        <time>2022-10-02T07:58:04Z</time>
      </trkpt>
      <trkpt lat="45.99326" lon="1.09093">
        <ele>351.7</ele>
        <time>2022-10-02T07:58:05Z</time>
      </trkpt>
      <trkpt lat="45.9933" lon="1.09086">
        <ele>351.6</ele>
        <time>2022-10-02T07:58:06Z</time>
      </trkpt>
      <trkpt lat="45.99334" lon="1.0908">
        <ele>351.5</ele>
        <time>2022-10-02T07:58:07Z</time>
      </trkpt>
      <trkpt lat="45.99337" lon="1.09072">
        <ele>351.3</ele>
        <time>2022-10-02T07:58:09Z</time>
      </trkpt>
      <trkpt lat="45.99342" lon="1.09067">
        <ele>351</ele>
        <time>2022-10-02T07:58:10Z</time>
      </trkpt>
      <trkpt lat="45.99345" lon="1.09061">
        <ele>350.8</ele>
        <time>2022-10-02T07:58:11Z</time>
      </trkpt>
      <trkpt lat="45.99349" lon="1.09055">
        <ele>350.5</ele>
        <time>2022-10-02T07:58:12Z</time>
      </trkpt>
      <trkpt lat="45.99354" lon="1.09048">
        <ele>350.2</ele>
        <time>2022-10-02T07:58:13Z</time>
      </trkpt>
      <trkpt lat="45.99358" lon="1.09041">
        <ele>349.8</ele>
        <time>2022-10-02T07:58:14Z</time>
      </trkpt>
      <trkpt lat="45.99363" lon="1.09033">
        <ele>349.4</ele>
        <time>2022-10-02T07:58:15Z</time>
      </trkpt>
      <trkpt lat="45.99367" lon="1.09025">
        <ele>349</ele>
        <time>2022-10-02T07:58:16Z</time>
      </trkpt>
      <trkpt lat="45.99372" lon="1.09017">
        <ele>348.5</ele>
        <time>2022-10-02T07:58:17Z</time>
      </trkpt>
      <trkpt lat="45.99376" lon="1.0901">
        <ele>348.1</ele>
        <time>2022-10-02T07:58:18Z</time>
      </trkpt>
      <trkpt lat="45.99381" lon="1.09002">
        <ele>347.6</ele>
        <time>2022-10-02T07:58:19Z</time>
      </trkpt>
      <trkpt lat="45.99385" lon="1.08994">
        <ele>347</ele>
        <time>2022-10-02T07:58:20Z</time>
      </trkpt>
      <trkpt lat="45.99389" lon="1.08986">
        <ele>346.5</ele>
        <time>2022-10-02T07:58:21Z</time>
      </trkpt>
      <trkpt lat="45.99394" lon="1.08979">
        <ele>345.9</ele>
        <time>2022-10-02T07:58:22Z</time>
      </trkpt>
      <trkpt lat="45.99401" lon="1.08973">
        <ele>345.3</ele>
        <time>2022-10-02T07:58:23Z</time>
      </trkpt>
      <trkpt lat="45.99406" lon="1.08964">
        <ele>344.7</ele>
        <time>2022-10-02T07:58:24Z</time>
      </trkpt>
      <trkpt lat="45.99412" lon="1.08956">
        <ele>344.1</ele>
        <time>2022-10-02T07:58:25Z</time>
      </trkpt>
      <trkpt lat="45.99417" lon="1.08945">
        <ele>343.5</ele>
        <time>2022-10-02T07:58:26Z</time>
      </trkpt>
      <trkpt lat="45.99422" lon="1.08939">
        <ele>343.1</ele>
        <time>2022-10-02T07:58:27Z</time>
      </trkpt>
      <trkpt lat="45.99426" lon="1.08931">
        <ele>342.7</ele>
        <time>2022-10-02T07:58:28Z</time>
      </trkpt>
      <trkpt lat="45.99432" lon="1.08923">
        <ele>342.2</ele>
        <time>2022-10-02T07:58:29Z</time>
      </trkpt>
      <trkpt lat="45.9944" lon="1.08915">
        <ele>341.6</ele>
        <time>2022-10-02T07:58:30Z</time>
      </trkpt>
      <trkpt lat="45.99444" lon="1.08912">
        <ele>341.3</ele>
        <time>2022-10-02T07:58:31Z</time>
      </trkpt>
      <trkpt lat="45.99453" lon="1.08917">
        <ele>340.5</ele>
        <time>2022-10-02T07:58:32Z</time>
      </trkpt>
      <trkpt lat="45.99458" lon="1.08909">
        <ele>339.9</ele>
        <time>2022-10-02T07:58:33Z</time>
      </trkpt>
      <trkpt lat="45.99462" lon="1.08901">
        <ele>339.3</ele>
        <time>2022-10-02T07:58:34Z</time>
      </trkpt>
      <trkpt lat="45.99463" lon="1.08888">
        <ele>338.5</ele>
        <time>2022-10-02T07:58:35Z</time>
      </trkpt>
      <trkpt lat="45.99463" lon="1.0888">
        <ele>338.1</ele>
        <time>2022-10-02T07:58:36Z</time>
      </trkpt>
      <trkpt lat="45.99464" lon="1.0887">
        <ele>337.6</ele>
        <time>2022-10-02T07:58:37Z</time>
      </trkpt>
      <trkpt lat="45.99464" lon="1.0886">
        <ele>337.2</ele>
        <time>2022-10-02T07:58:38Z</time>
      </trkpt>
      <trkpt lat="45.99464" lon="1.08849">
        <ele>336.8</ele>
        <time>2022-10-02T07:58:39Z</time>
      </trkpt>
      <trkpt lat="45.99462" lon="1.08836">
        <ele>336.3</ele>
        <time>2022-10-02T07:58:40Z</time>
      </trkpt>
      <trkpt lat="45.99458" lon="1.08819">
        <ele>335.9</ele>
        <time>2022-10-02T07:58:41Z</time>
      </trkpt>
      <trkpt lat="45.99457" lon="1.08808">
        <ele>335.7</ele>
        <time>2022-10-02T07:58:42Z</time>
      </trkpt>
      <trkpt lat="45.99456" lon="1.08797">
        <ele>335.5</ele>
        <time>2022-10-02T07:58:43Z</time>
      </trkpt>
      <trkpt lat="45.99457" lon="1.08787">
        <ele>335.4</ele>
        <time>2022-10-02T07:58:44Z</time>
      </trkpt>
      <trkpt lat="45.99458" lon="1.08778">
        <ele>335.3</ele>
        <time>2022-10-02T07:58:45Z</time>
      </trkpt>
      <trkpt lat="45.99459" lon="1.08769">
        <ele>335.2</ele>
        <time>2022-10-02T07:58:46Z</time>
      </trkpt>
      <trkpt lat="45.9946" lon="1.0876">
        <ele>335.1</ele>
        <time>2022-10-02T07:58:47Z</time>
      </trkpt>
      <trkpt lat="45.99461" lon="1.0875">
        <ele>334.9</ele>
        <time>2022-10-02T07:58:48Z</time>
      </trkpt>
      <trkpt lat="45.99462" lon="1.08742">
        <ele>334.8</ele>
        <time>2022-10-02T07:58:49Z</time>
      </trkpt>
      <trkpt lat="45.99463" lon="1.08733">
        <ele>334.8</ele>
        <time>2022-10-02T07:58:50Z</time>
      </trkpt>
      <trkpt lat="45.99465" lon="1.08725">
        <ele>334.7</ele>
        <time>2022-10-02T07:58:51Z</time>
      </trkpt>
      <trkpt lat="45.99467" lon="1.08718">
        <ele>334.5</ele>
        <time>2022-10-02T07:58:52Z</time>
      </trkpt>
      <trkpt lat="45.99469" lon="1.0871">
        <ele>334.4</ele>
        <time>2022-10-02T07:58:53Z</time>
      </trkpt>
      <trkpt lat="45.99471" lon="1.087">
        <ele>334.3</ele>
        <time>2022-10-02T07:58:54Z</time>
      </trkpt>
      <trkpt lat="45.99472" lon="1.08691">
        <ele>334.2</ele>
        <time>2022-10-02T07:58:55Z</time>
      </trkpt>
      <trkpt lat="45.99475" lon="1.08683">
        <ele>334</ele>
        <time>2022-10-02T07:58:56Z</time>
      </trkpt>
      <trkpt lat="45.99477" lon="1.08674">
        <ele>333.9</ele>
        <time>2022-10-02T07:58:57Z</time>
      </trkpt>
      <trkpt lat="45.99476" lon="1.08662">
        <ele>333.7</ele>
        <time>2022-10-02T07:58:58Z</time>
      </trkpt>
      <trkpt lat="45.99477" lon="1.08653">
        <ele>333.5</ele>
        <time>2022-10-02T07:58:59Z</time>
      </trkpt>
      <trkpt lat="45.99479" lon="1.08644">
        <ele>333.4</ele>
        <time>2022-10-02T07:59:00Z</time>
      </trkpt>
      <trkpt lat="45.99481" lon="1.08634">
        <ele>333.2</ele>
        <time>2022-10-02T07:59:01Z</time>
      </trkpt>
      <trkpt lat="45.99482" lon="1.08625">
        <ele>333</ele>
        <time>2022-10-02T07:59:02Z</time>
      </trkpt>
      <trkpt lat="45.99483" lon="1.08616">
        <ele>332.9</ele>
        <time>2022-10-02T07:59:03Z</time>
      </trkpt>
      <trkpt lat="45.99486" lon="1.08608">
        <ele>332.8</ele>
        <time>2022-10-02T07:59:04Z</time>
      </trkpt>
      <trkpt lat="45.99486" lon="1.08599">
        <ele>332.7</ele>
        <time>2022-10-02T07:59:05Z</time>
      </trkpt>
      <trkpt lat="45.99487" lon="1.08589">
        <ele>332.5</ele>
        <time>2022-10-02T07:59:06Z</time>
      </trkpt>
      <trkpt lat="45.99489" lon="1.08583">
        <ele>332.5</ele>
        <time>2022-10-02T07:59:07Z</time>
      </trkpt>
      <trkpt lat="45.9949" lon="1.08576">
        <ele>332.3</ele>
        <time>2022-10-02T07:59:08Z</time>
      </trkpt>
      <trkpt lat="45.99494" lon="1.08571">
        <ele>332.2</ele>
        <time>2022-10-02T07:59:09Z</time>
      </trkpt>
      <trkpt lat="45.99495" lon="1.08563">
        <ele>332.1</ele>
        <time>2022-10-02T07:59:10Z</time>
      </trkpt>
      <trkpt lat="45.99495" lon="1.08554">
        <ele>331.9</ele>
        <time>2022-10-02T07:59:11Z</time>
      </trkpt>
      <trkpt lat="45.99495" lon="1.08546">
        <ele>331.8</ele>
        <time>2022-10-02T07:59:12Z</time>
      </trkpt>
      <trkpt lat="45.99495" lon="1.08536">
        <ele>331.6</ele>
        <time>2022-10-02T07:59:13Z</time>
      </trkpt>
      <trkpt lat="45.99496" lon="1.08526">
        <ele>331.4</ele>
        <time>2022-10-02T07:59:14Z</time>
      </trkpt>
      <trkpt lat="45.99497" lon="1.08516">
        <ele>331.1</ele>
        <time>2022-10-02T07:59:15Z</time>
      </trkpt>
      <trkpt lat="45.99498" lon="1.08507">
        <ele>330.9</ele>
        <time>2022-10-02T07:59:16Z</time>
      </trkpt>
      <trkpt lat="45.995" lon="1.08499">
        <ele>330.6</ele>
        <time>2022-10-02T07:59:17Z</time>
      </trkpt>
      <trkpt lat="45.99503" lon="1.0849">
        <ele>330.3</ele>
        <time>2022-10-02T07:59:18Z</time>
      </trkpt>
      <trkpt lat="45.99505" lon="1.08482">
        <ele>329.9</ele>
        <time>2022-10-02T07:59:19Z</time>
      </trkpt>
      <trkpt lat="45.99506" lon="1.08472">
        <ele>329.5</ele>
        <time>2022-10-02T07:59:20Z</time>
      </trkpt>
      <trkpt lat="45.99508" lon="1.08462">
        <ele>329</ele>
        <time>2022-10-02T07:59:21Z</time>
      </trkpt>
      <trkpt lat="45.9951" lon="1.08452">
        <ele>328.4</ele>
        <time>2022-10-02T07:59:22Z</time>
      </trkpt>
      <trkpt lat="45.99513" lon="1.08443">
        <ele>327.9</ele>
        <time>2022-10-02T07:59:23Z</time>
      </trkpt>
      <trkpt lat="45.99513" lon="1.08432">
        <ele>327.4</ele>
        <time>2022-10-02T07:59:24Z</time>
      </trkpt>
      <trkpt lat="45.99514" lon="1.08419">
        <ele>327</ele>
        <time>2022-10-02T07:59:25Z</time>
      </trkpt>
      <trkpt lat="45.99515" lon="1.08409">
        <ele>326.6</ele>
        <time>2022-10-02T07:59:26Z</time>
      </trkpt>
      <trkpt lat="45.99515" lon="1.08399">
        <ele>326.3</ele>
        <time>2022-10-02T07:59:27Z</time>
      </trkpt>
      <trkpt lat="45.99517" lon="1.08389">
        <ele>326</ele>
        <time>2022-10-02T07:59:28Z</time>
      </trkpt>
      <trkpt lat="45.99517" lon="1.08378">
        <ele>325.8</ele>
        <time>2022-10-02T07:59:29Z</time>
      </trkpt>
      <trkpt lat="45.99515" lon="1.0837">
        <ele>325.7</ele>
        <time>2022-10-02T07:59:30Z</time>
      </trkpt>
      <trkpt lat="45.99513" lon="1.08361">
        <ele>325.7</ele>
        <time>2022-10-02T07:59:31Z</time>
      </trkpt>
      <trkpt lat="45.99511" lon="1.08353">
        <ele>325.6</ele>
        <time>2022-10-02T07:59:32Z</time>
      </trkpt>
      <trkpt lat="45.99509" lon="1.08344">
        <ele>325.6</ele>
        <time>2022-10-02T07:59:33Z</time>
      </trkpt>
      <trkpt lat="45.99507" lon="1.08337">
        <ele>325.6</ele>
        <time>2022-10-02T07:59:34Z</time>
      </trkpt>
      <trkpt lat="45.99504" lon="1.0833">
        <ele>325.6</ele>
        <time>2022-10-02T07:59:35Z</time>
      </trkpt>
      <trkpt lat="45.995" lon="1.08323">
        <ele>325.7</ele>
        <time>2022-10-02T07:59:36Z</time>
      </trkpt>
      <trkpt lat="45.99497" lon="1.08317">
        <ele>325.7</ele>
        <time>2022-10-02T07:59:37Z</time>
      </trkpt>
      <trkpt lat="45.99493" lon="1.08311">
        <ele>325.7</ele>
        <time>2022-10-02T07:59:38Z</time>
      </trkpt>
      <trkpt lat="45.9949" lon="1.08304">
        <ele>325.8</ele>
        <time>2022-10-02T07:59:39Z</time>
      </trkpt>
      <trkpt lat="45.99485" lon="1.08297">
        <ele>325.9</ele>
        <time>2022-10-02T07:59:40Z</time>
      </trkpt>
      <trkpt lat="45.99481" lon="1.0829">
        <ele>325.9</ele>
        <time>2022-10-02T07:59:41Z</time>
      </trkpt>
      <trkpt lat="45.99478" lon="1.08286">
        <ele>326</ele>
        <time>2022-10-02T07:59:42Z</time>
      </trkpt>
      <trkpt lat="45.99474" lon="1.08279">
        <ele>326.1</ele>
        <time>2022-10-02T07:59:43Z</time>
      </trkpt>
      <trkpt lat="45.9947" lon="1.08275">
        <ele>326.2</ele>
        <time>2022-10-02T07:59:44Z</time>
      </trkpt>
      <trkpt lat="45.99466" lon="1.08269">
        <ele>326.3</ele>
        <time>2022-10-02T07:59:45Z</time>
      </trkpt>
      <trkpt lat="45.99462" lon="1.08262">
        <ele>326.5</ele>
        <time>2022-10-02T07:59:46Z</time>
      </trkpt>
      <trkpt lat="45.99458" lon="1.08255">
        <ele>326.6</ele>
        <time>2022-10-02T07:59:47Z</time>
      </trkpt>
      <trkpt lat="45.99453" lon="1.08247">
        <ele>326.8</ele>
        <time>2022-10-02T07:59:48Z</time>
      </trkpt>
      <trkpt lat="45.99452" lon="1.08238">
        <ele>327</ele>
        <time>2022-10-02T07:59:49Z</time>
      </trkpt>
      <trkpt lat="45.99451" lon="1.08231">
        <ele>327.2</ele>
        <time>2022-10-02T07:59:50Z</time>
      </trkpt>
      <trkpt lat="45.99449" lon="1.08225">
        <ele>327.4</ele>
        <time>2022-10-02T07:59:51Z</time>
      </trkpt>
      <trkpt lat="45.99447" lon="1.08217">
        <ele>327.6</ele>
        <time>2022-10-02T07:59:52Z</time>
      </trkpt>
      <trkpt lat="45.99445" lon="1.08209">
        <ele>327.8</ele>
        <time>2022-10-02T07:59:53Z</time>
      </trkpt>
      <trkpt lat="45.99447" lon="1.08201">
        <ele>327.9</ele>
        <time>2022-10-02T07:59:54Z</time>
      </trkpt>
      <trkpt lat="45.99449" lon="1.08192">
        <ele>328.1</ele>
        <time>2022-10-02T07:59:55Z</time>
      </trkpt>
      <trkpt lat="45.9945" lon="1.08184">
        <ele>328.3</ele>
        <time>2022-10-02T07:59:56Z</time>
      </trkpt>
      <trkpt lat="45.99451" lon="1.08175">
        <ele>328.4</ele>
        <time>2022-10-02T07:59:57Z</time>
      </trkpt>
      <trkpt lat="45.99452" lon="1.08167">
        <ele>328.6</ele>
        <time>2022-10-02T07:59:58Z</time>
      </trkpt>
      <trkpt lat="45.99453" lon="1.08159">
        <ele>328.8</ele>
        <time>2022-10-02T07:59:59Z</time>
      </trkpt>
      <trkpt lat="45.99455" lon="1.08153">
        <ele>328.9</ele>
        <time>2022-10-02T08:00:00Z</time>
      </trkpt>
      <trkpt lat="45.99457" lon="1.08145">
        <ele>329.1</ele>
        <time>2022-10-02T08:00:01Z</time>
      </trkpt>
      <trkpt lat="45.99459" lon="1.08139">
        <ele>329.2</ele>
        <time>2022-10-02T08:00:02Z</time>
      </trkpt>
      <trkpt lat="45.99461" lon="1.08131">
        <ele>329.3</ele>
        <time>2022-10-02T08:00:03Z</time>
      </trkpt>
      <trkpt lat="45.99466" lon="1.08125">
        <ele>329.5</ele>
        <time>2022-10-02T08:00:04Z</time>
      </trkpt>
      <trkpt lat="45.99467" lon="1.08122">
        <ele>329.6</ele>
        <time>2022-10-02T08:00:05Z</time>
      </trkpt>
      <trkpt lat="45.99469" lon="1.08118">
        <ele>329.7</ele>
        <time>2022-10-02T08:00:06Z</time>
      </trkpt>
      <trkpt lat="45.99472" lon="1.08113">
        <ele>329.8</ele>
        <time>2022-10-02T08:00:07Z</time>
      </trkpt>
      <trkpt lat="45.99475" lon="1.0811">
        <ele>329.9</ele>
        <time>2022-10-02T08:00:08Z</time>
      </trkpt>
      <trkpt lat="45.99479" lon="1.08106">
        <ele>330.1</ele>
        <time>2022-10-02T08:00:09Z</time>
      </trkpt>
      <trkpt lat="45.99484" lon="1.08102">
        <ele>330.2</ele>
        <time>2022-10-02T08:00:10Z</time>
      </trkpt>
      <trkpt lat="45.99487" lon="1.08097">
        <ele>330.3</ele>
        <time>2022-10-02T08:00:11Z</time>
      </trkpt>
      <trkpt lat="45.99491" lon="1.08091">
        <ele>330.5</ele>
        <time>2022-10-02T08:00:12Z</time>
      </trkpt>
      <trkpt lat="45.99495" lon="1.08086">
        <ele>330.7</ele>
        <time>2022-10-02T08:00:13Z</time>
      </trkpt>
      <trkpt lat="45.99499" lon="1.0808">
        <ele>330.9</ele>
        <time>2022-10-02T08:00:14Z</time>
      </trkpt>
      <trkpt lat="45.99504" lon="1.08078">
        <ele>331</ele>
        <time>2022-10-02T08:00:15Z</time>
      </trkpt>
      <trkpt lat="45.99509" lon="1.08074">
        <ele>331.2</ele>
        <time>2022-10-02T08:00:16Z</time>
      </trkpt>
      <trkpt lat="45.99513" lon="1.08071">
        <ele>331.3</ele>
        <time>2022-10-02T08:00:17Z</time>
      </trkpt>
      <trkpt lat="45.99517" lon="1.08064">
        <ele>331.5</ele>
        <time>2022-10-02T08:00:18Z</time>
      </trkpt>
      <trkpt lat="45.99523" lon="1.08062">
        <ele>331.7</ele>
        <time>2022-10-02T08:00:19Z</time>
      </trkpt>
      <trkpt lat="45.99533" lon="1.08053">
        <ele>332.1</ele>
        <time>2022-10-02T08:00:20Z</time>
      </trkpt>
      <trkpt lat="45.9954" lon="1.08051">
        <ele>332.3</ele>
        <time>2022-10-02T08:00:21Z</time>
      </trkpt>
      <trkpt lat="45.99545" lon="1.08049">
        <ele>332.5</ele>
        <time>2022-10-02T08:00:22Z</time>
      </trkpt>
      <trkpt lat="45.9955" lon="1.08047">
        <ele>332.7</ele>
        <time>2022-10-02T08:00:23Z</time>
      </trkpt>
      <trkpt lat="45.99555" lon="1.08045">
        <ele>332.8</ele>
        <time>2022-10-02T08:00:24Z</time>
      </trkpt>
      <trkpt lat="45.99561" lon="1.08045">
        <ele>333</ele>
        <time>2022-10-02T08:00:25Z</time>
      </trkpt>
      <trkpt lat="45.99567" lon="1.08046">
        <ele>333.1</ele>
        <time>2022-10-02T08:00:26Z</time>
      </trkpt>
      <trkpt lat="45.99573" lon="1.08047">
        <ele>333.3</ele>
        <time>2022-10-02T08:00:27Z</time>
      </trkpt>
      <trkpt lat="45.99578" lon="1.08049">
        <ele>333.4</ele>
        <time>2022-10-02T08:00:28Z</time>
      </trkpt>
      <trkpt lat="45.99583" lon="1.08051">
        <ele>333.5</ele>
        <time>2022-10-02T08:00:29Z</time>
      </trkpt>
      <trkpt lat="45.99589" lon="1.08053">
        <ele>333.7</ele>
        <time>2022-10-02T08:00:30Z</time>
      </trkpt>
      <trkpt lat="45.99595" lon="1.08055">
        <ele>333.8</ele>
        <time>2022-10-02T08:00:31Z</time>
      </trkpt>
      <trkpt lat="45.996" lon="1.08058">
        <ele>334</ele>
        <time>2022-10-02T08:00:32Z</time>
      </trkpt>
      <trkpt lat="45.99605" lon="1.08061">
        <ele>334.1</ele>
        <time>2022-10-02T08:00:33Z</time>
      </trkpt>
      <trkpt lat="45.99611" lon="1.08063">
        <ele>334.3</ele>
        <time>2022-10-02T08:00:34Z</time>
      </trkpt>
      <trkpt lat="45.99616" lon="1.08065">
        <ele>334.4</ele>
        <time>2022-10-02T08:00:35Z</time>
      </trkpt>
      <trkpt lat="45.99622" lon="1.08065">
        <ele>334.6</ele>
        <time>2022-10-02T08:00:36Z</time>
      </trkpt>
      <trkpt lat="45.99628" lon="1.08065">
        <ele>334.8</ele>
        <time>2022-10-02T08:00:37Z</time>
      </trkpt>
      <trkpt lat="45.99633" lon="1.08064">
        <ele>335</ele>
        <time>2022-10-02T08:00:38Z</time>
      </trkpt>
      <trkpt lat="45.99638" lon="1.08063">
        <ele>335.2</ele>
        <time>2022-10-02T08:00:39Z</time>
      </trkpt>
      <trkpt lat="45.99642" lon="1.08059">
        <ele>335.5</ele>
        <time>2022-10-02T08:00:40Z</time>
      </trkpt>
      <trkpt lat="45.99646" lon="1.08054">
        <ele>335.7</ele>
        <time>2022-10-02T08:00:41Z</time>
      </trkpt>
      <trkpt lat="45.99651" lon="1.08049">
        <ele>336.1</ele>
        <time>2022-10-02T08:00:42Z</time>
      </trkpt>
      <trkpt lat="45.99654" lon="1.08046">
        <ele>336.3</ele>
        <time>2022-10-02T08:00:43Z</time>
      </trkpt>
      <trkpt lat="45.99657" lon="1.08041">
        <ele>336.7</ele>
        <time>2022-10-02T08:00:44Z</time>
      </trkpt>
      <trkpt lat="45.9966" lon="1.08037">
        <ele>336.9</ele>
        <time>2022-10-02T08:00:45Z</time>
      </trkpt>
      <trkpt lat="45.99663" lon="1.08033">
        <ele>337.3</ele>
        <time>2022-10-02T08:00:46Z</time>
      </trkpt>
      <trkpt lat="45.99666" lon="1.08029">
        <ele>337.6</ele>
        <time>2022-10-02T08:00:47Z</time>
      </trkpt>
      <trkpt lat="45.99669" lon="1.08028">
        <ele>337.9</ele>
        <time>2022-10-02T08:00:48Z</time>
      </trkpt>
      <trkpt lat="45.99673" lon="1.0803">
        <ele>338.8</ele>
        <time>2022-10-02T08:00:49Z</time>
      </trkpt>
      <trkpt lat="45.99675" lon="1.08035">
        <ele>339.1</ele>
        <time>2022-10-02T08:00:50Z</time>
      </trkpt>
      <trkpt lat="45.99676" lon="1.08041">
        <ele>339.4</ele>
        <time>2022-10-02T08:00:51Z</time>
      </trkpt>
      <trkpt lat="45.99675" lon="1.08046">
        <ele>339.6</ele>
        <time>2022-10-02T08:00:52Z</time>
      </trkpt>
      <trkpt lat="45.99674" lon="1.08053">
        <ele>340</ele>
        <time>2022-10-02T08:00:53Z</time>
      </trkpt>
      <trkpt lat="45.99672" lon="1.0806">
        <ele>340.3</ele>
        <time>2022-10-02T08:00:54Z</time>
      </trkpt>
      <trkpt lat="45.99673" lon="1.08066">
        <ele>340.6</ele>
        <time>2022-10-02T08:00:55Z</time>
      </trkpt>
      <trkpt lat="45.99674" lon="1.08073">
        <ele>340.8</ele>
        <time>2022-10-02T08:00:56Z</time>
      </trkpt>
      <trkpt lat="45.99676" lon="1.08078">
        <ele>341</ele>
        <time>2022-10-02T08:00:57Z</time>
      </trkpt>
      <trkpt lat="45.99679" lon="1.08083">
        <ele>341.2</ele>
        <time>2022-10-02T08:00:58Z</time>
      </trkpt>
      <trkpt lat="45.99682" lon="1.08086">
        <ele>341.4</ele>
        <time>2022-10-02T08:00:59Z</time>
      </trkpt>
      <trkpt lat="45.99686" lon="1.08089">
        <ele>341.5</ele>
        <time>2022-10-02T08:01:00Z</time>
      </trkpt>
      <trkpt lat="45.9969" lon="1.08093">
        <ele>341.6</ele>
        <time>2022-10-02T08:01:01Z</time>
      </trkpt>
      <trkpt lat="45.99694" lon="1.08099">
        <ele>341.7</ele>
        <time>2022-10-02T08:01:02Z</time>
      </trkpt>
      <trkpt lat="45.99699" lon="1.08103">
        <ele>341.8</ele>
        <time>2022-10-02T08:01:03Z</time>
      </trkpt>
      <trkpt lat="45.99702" lon="1.08109">
        <ele>341.8</ele>
        <time>2022-10-02T08:01:04Z</time>
      </trkpt>
      <trkpt lat="45.99706" lon="1.08114">
        <ele>341.9</ele>
        <time>2022-10-02T08:01:05Z</time>
      </trkpt>
      <trkpt lat="45.99711" lon="1.0812">
        <ele>342.1</ele>
        <time>2022-10-02T08:01:06Z</time>
      </trkpt>
      <trkpt lat="45.99716" lon="1.08124">
        <ele>342.2</ele>
        <time>2022-10-02T08:01:07Z</time>
      </trkpt>
      <trkpt lat="45.9972" lon="1.08131">
        <ele>342.4</ele>
        <time>2022-10-02T08:01:08Z</time>
      </trkpt>
      <trkpt lat="45.99724" lon="1.08138">
        <ele>342.5</ele>
        <time>2022-10-02T08:01:09Z</time>
      </trkpt>
      <trkpt lat="45.99728" lon="1.08145">
        <ele>342.7</ele>
        <time>2022-10-02T08:01:10Z</time>
      </trkpt>
      <trkpt lat="45.99731" lon="1.08153">
        <ele>342.9</ele>
        <time>2022-10-02T08:01:11Z</time>
      </trkpt>
      <trkpt lat="45.99734" lon="1.08159">
        <ele>343.2</ele>
        <time>2022-10-02T08:01:12Z</time>
      </trkpt>
      <trkpt lat="45.99736" lon="1.08167">
        <ele>343.4</ele>
        <time>2022-10-02T08:01:13Z</time>
      </trkpt>
      <trkpt lat="45.99738" lon="1.08174">
        <ele>343.7</ele>
        <time>2022-10-02T08:01:14Z</time>
      </trkpt>
      <trkpt lat="45.99741" lon="1.08181">
        <ele>344</ele>
        <time>2022-10-02T08:01:15Z</time>
      </trkpt>
      <trkpt lat="45.99744" lon="1.08189">
        <ele>344.3</ele>
        <time>2022-10-02T08:01:16Z</time>
      </trkpt>
      <trkpt lat="45.99746" lon="1.08195">
        <ele>344.6</ele>
        <time>2022-10-02T08:01:17Z</time>
      </trkpt>
      <trkpt lat="45.9975" lon="1.08201">
        <ele>344.9</ele>
        <time>2022-10-02T08:01:18Z</time>
      </trkpt>
      <trkpt lat="45.99754" lon="1.08207">
        <ele>345.2</ele>
        <time>2022-10-02T08:01:19Z</time>
      </trkpt>
      <trkpt lat="45.99757" lon="1.08213">
        <ele>345.5</ele>
        <time>2022-10-02T08:01:20Z</time>
      </trkpt>
      <trkpt lat="45.9976" lon="1.08219">
        <ele>345.7</ele>
        <time>2022-10-02T08:01:21Z</time>
      </trkpt>
      <trkpt lat="45.99764" lon="1.08225">
        <ele>345.9</ele>
        <time>2022-10-02T08:01:22Z</time>
      </trkpt>
      <trkpt lat="45.99767" lon="1.08231">
        <ele>346.1</ele>
        <time>2022-10-02T08:01:23Z</time>
      </trkpt>
      <trkpt lat="45.99769" lon="1.08237">
        <ele>346.4</ele>
        <time>2022-10-02T08:01:24Z</time>
      </trkpt>
      <trkpt lat="45.99773" lon="1.08243">
        <ele>346.6</ele>
        <time>2022-10-02T08:01:25Z</time>
      </trkpt>
      <trkpt lat="45.99774" lon="1.08249">
        <ele>346.8</ele>
        <time>2022-10-02T08:01:26Z</time>
      </trkpt>
      <trkpt lat="45.99777" lon="1.08256">
        <ele>347</ele>
        <time>2022-10-02T08:01:27Z</time>
      </trkpt>
      <trkpt lat="45.99779" lon="1.08261">
        <ele>347.2</ele>
        <time>2022-10-02T08:01:28Z</time>
      </trkpt>
      <trkpt lat="45.99783" lon="1.08266">
        <ele>347.4</ele>
        <time>2022-10-02T08:01:29Z</time>
      </trkpt>
      <trkpt lat="45.99786" lon="1.08271">
        <ele>347.6</ele>
        <time>2022-10-02T08:01:30Z</time>
      </trkpt>
      <trkpt lat="45.9979" lon="1.08275">
        <ele>347.8</ele>
        <time>2022-10-02T08:01:31Z</time>
      </trkpt>
      <trkpt lat="45.99793" lon="1.08281">
        <ele>348</ele>
        <time>2022-10-02T08:01:32Z</time>
      </trkpt>
      <trkpt lat="45.99796" lon="1.08287">
        <ele>348.3</ele>
        <time>2022-10-02T08:01:33Z</time>
      </trkpt>
      <trkpt lat="45.99799" lon="1.08292">
        <ele>348.5</ele>
        <time>2022-10-02T08:01:34Z</time>
      </trkpt>
      <trkpt lat="45.99802" lon="1.08297">
        <ele>348.7</ele>
        <time>2022-10-02T08:01:35Z</time>
      </trkpt>
      <trkpt lat="45.99805" lon="1.08303">
        <ele>348.9</ele>
        <time>2022-10-02T08:01:36Z</time>
      </trkpt>
      <trkpt lat="45.99807" lon="1.08307">
        <ele>349.1</ele>
        <time>2022-10-02T08:01:37Z</time>
      </trkpt>
      <trkpt lat="45.99811" lon="1.08313">
        <ele>349.3</ele>
        <time>2022-10-02T08:01:38Z</time>
      </trkpt>
      <trkpt lat="45.99813" lon="1.08317">
        <ele>349.5</ele>
        <time>2022-10-02T08:01:39Z</time>
      </trkpt>
      <trkpt lat="45.99815" lon="1.08322">
        <ele>349.6</ele>
        <time>2022-10-02T08:01:40Z</time>
      </trkpt>
      <trkpt lat="45.99818" lon="1.08327">
        <ele>349.8</ele>
        <time>2022-10-02T08:01:41Z</time>
      </trkpt>
      <trkpt lat="45.99821" lon="1.08331">
        <ele>349.9</ele>
        <time>2022-10-02T08:01:42Z</time>
      </trkpt>
      <trkpt lat="45.99825" lon="1.08334">
        <ele>350.1</ele>
        <time>2022-10-02T08:01:43Z</time>
      </trkpt>
      <trkpt lat="45.99829" lon="1.08338">
        <ele>350.2</ele>
        <time>2022-10-02T08:01:44Z</time>
      </trkpt>
      <trkpt lat="45.99832" lon="1.08341">
        <ele>350.3</ele>
        <time>2022-10-02T08:01:45Z</time>
      </trkpt>
      <trkpt lat="45.99836" lon="1.08343">
        <ele>350.4</ele>
        <time>2022-10-02T08:01:46Z</time>
      </trkpt>
      <trkpt lat="45.99839" lon="1.08347">
        <ele>350.4</ele>
        <time>2022-10-02T08:01:47Z</time>
      </trkpt>
      <trkpt lat="45.99843" lon="1.0835">
        <ele>350.5</ele>
        <time>2022-10-02T08:01:48Z</time>
      </trkpt>
      <trkpt lat="45.99847" lon="1.08351">
        <ele>350.5</ele>
        <time>2022-10-02T08:01:49Z</time>
      </trkpt>
      <trkpt lat="45.99851" lon="1.08352">
        <ele>350.6</ele>
        <time>2022-10-02T08:01:50Z</time>
      </trkpt>
      <trkpt lat="45.99855" lon="1.08353">
        <ele>350.6</ele>
        <time>2022-10-02T08:01:51Z</time>
      </trkpt>
      <trkpt lat="45.99859" lon="1.08355">
        <ele>350.6</ele>
        <time>2022-10-02T08:01:52Z</time>
      </trkpt>
      <trkpt lat="45.99863" lon="1.08357">
        <ele>350.7</ele>
        <time>2022-10-02T08:01:53Z</time>
      </trkpt>
      <trkpt lat="45.99867" lon="1.08359">
        <ele>350.7</ele>
        <time>2022-10-02T08:01:54Z</time>
      </trkpt>
      <trkpt lat="45.99871" lon="1.08362">
        <ele>350.8</ele>
        <time>2022-10-02T08:01:55Z</time>
      </trkpt>
      <trkpt lat="45.99877" lon="1.08366">
        <ele>350.9</ele>
        <time>2022-10-02T08:01:56Z</time>
      </trkpt>
      <trkpt lat="45.99881" lon="1.08369">
        <ele>351</ele>
        <time>2022-10-02T08:01:57Z</time>
      </trkpt>
      <trkpt lat="45.99886" lon="1.08371">
        <ele>351.1</ele>
        <time>2022-10-02T08:01:58Z</time>
      </trkpt>
      <trkpt lat="45.9989" lon="1.08377">
        <ele>351.2</ele>
        <time>2022-10-02T08:01:59Z</time>
      </trkpt>
      <trkpt lat="45.99892" lon="1.08382">
        <ele>351.3</ele>
        <time>2022-10-02T08:02:00Z</time>
      </trkpt>
      <trkpt lat="45.99896" lon="1.08386">
        <ele>351.4</ele>
        <time>2022-10-02T08:02:01Z</time>
      </trkpt>
      <trkpt lat="45.999" lon="1.08389">
        <ele>351.5</ele>
        <time>2022-10-02T08:02:02Z</time>
      </trkpt>
      <trkpt lat="45.99903" lon="1.08393">
        <ele>351.6</ele>
        <time>2022-10-02T08:02:03Z</time>
      </trkpt>
      <trkpt lat="45.99906" lon="1.08396">
        <ele>351.7</ele>
        <time>2022-10-02T08:02:04Z</time>
      </trkpt>
      <trkpt lat="45.99909" lon="1.08397">
        <ele>351.8</ele>
        <time>2022-10-02T08:02:05Z</time>
      </trkpt>
      <trkpt lat="45.9991" lon="1.084">
        <ele>351.9</ele>
        <time>2022-10-02T08:02:06Z</time>
      </trkpt>
      <trkpt lat="45.99911" lon="1.08401">
        <ele>351.9</ele>
        <time>2022-10-02T08:02:07Z</time>
      </trkpt>
      <trkpt lat="45.99911" lon="1.08404">
        <ele>352</ele>
        <time>2022-10-02T08:02:08Z</time>
      </trkpt>
      <trkpt lat="45.99911" lon="1.08409">
        <ele>352</ele>
        <time>2022-10-02T08:02:09Z</time>
      </trkpt>
      <trkpt lat="45.9991" lon="1.08414">
        <ele>352.1</ele>
        <time>2022-10-02T08:02:10Z</time>
      </trkpt>
      <trkpt lat="45.99908" lon="1.08419">
        <ele>352.1</ele>
        <time>2022-10-02T08:02:11Z</time>
      </trkpt>
      <trkpt lat="45.99907" lon="1.08424">
        <ele>352.1</ele>
        <time>2022-10-02T08:02:12Z</time>
      </trkpt>
      <trkpt lat="45.99908" lon="1.08431">
        <ele>352.2</ele>
        <time>2022-10-02T08:02:13Z</time>
      </trkpt>
      <trkpt lat="45.9991" lon="1.08436">
        <ele>352.5</ele>
        <time>2022-10-02T08:02:14Z</time>
      </trkpt>
      <trkpt lat="45.99912" lon="1.08439">
        <ele>352.5</ele>
        <time>2022-10-02T08:02:15Z</time>
      </trkpt>
      <trkpt lat="45.99917" lon="1.08442">
        <ele>352.6</ele>
        <time>2022-10-02T08:02:16Z</time>
      </trkpt>
      <trkpt lat="45.99922" lon="1.08441">
        <ele>352.7</ele>
        <time>2022-10-02T08:02:17Z</time>
      </trkpt>
      <trkpt lat="45.99927" lon="1.08439">
        <ele>352.8</ele>
        <time>2022-10-02T08:02:18Z</time>
      </trkpt>
      <trkpt lat="45.99933" lon="1.08437">
        <ele>353</ele>
        <time>2022-10-02T08:02:19Z</time>
      </trkpt>
      <trkpt lat="45.99937" lon="1.08436">
        <ele>353.2</ele>
        <time>2022-10-02T08:02:20Z</time>
      </trkpt>
      <trkpt lat="45.99942" lon="1.08435">
        <ele>353.4</ele>
        <time>2022-10-02T08:02:21Z</time>
      </trkpt>
      <trkpt lat="45.99947" lon="1.08433">
        <ele>353.6</ele>
        <time>2022-10-02T08:02:22Z</time>
      </trkpt>
      <trkpt lat="45.99952" lon="1.08432">
        <ele>353.8</ele>
        <time>2022-10-02T08:02:23Z</time>
      </trkpt>
      <trkpt lat="45.99957" lon="1.0843">
        <ele>354</ele>
        <time>2022-10-02T08:02:24Z</time>
      </trkpt>
      <trkpt lat="45.99961" lon="1.08428">
        <ele>354.2</ele>
        <time>2022-10-02T08:02:25Z</time>
      </trkpt>
      <trkpt lat="45.99966" lon="1.08428">
        <ele>354.5</ele>
        <time>2022-10-02T08:02:26Z</time>
      </trkpt>
      <trkpt lat="45.99971" lon="1.08428">
        <ele>354.7</ele>
        <time>2022-10-02T08:02:27Z</time>
      </trkpt>
      <trkpt lat="45.99973" lon="1.08429">
        <ele>354.8</ele>
        <time>2022-10-02T08:02:28Z</time>
      </trkpt>
      <trkpt lat="45.99981" lon="1.0843">
        <ele>355.2</ele>
        <time>2022-10-02T08:02:29Z</time>
      </trkpt>
      <trkpt lat="45.99985" lon="1.08428">
        <ele>355.5</ele>
        <time>2022-10-02T08:02:30Z</time>
      </trkpt>
      <trkpt lat="45.99991" lon="1.08426">
        <ele>355.8</ele>
        <time>2022-10-02T08:02:31Z</time>
      </trkpt>
      <trkpt lat="45.99995" lon="1.08425">
        <ele>356</ele>
        <time>2022-10-02T08:02:32Z</time>
      </trkpt>
      <trkpt lat="46.00001" lon="1.08422">
        <ele>356.3</ele>
        <time>2022-10-02T08:02:33Z</time>
      </trkpt>
      <trkpt lat="46.00006" lon="1.0842">
        <ele>356.5</ele>
        <time>2022-10-02T08:02:34Z</time>
      </trkpt>
      <trkpt lat="46.00011" lon="1.08413">
        <ele>356.8</ele>
        <time>2022-10-02T08:02:35Z</time>
      </trkpt>
      <trkpt lat="46.00014" lon="1.08405">
        <ele>357</ele>
        <time>2022-10-02T08:02:36Z</time>
      </trkpt>
      <trkpt lat="46.00017" lon="1.08397">
        <ele>357.2</ele>
        <time>2022-10-02T08:02:37Z</time>
      </trkpt>
      <trkpt lat="46.00024" lon="1.08389">
        <ele>357.4</ele>
        <time>2022-10-02T08:02:38Z</time>
      </trkpt>
      <trkpt lat="46.00028" lon="1.08383">
        <ele>357.5</ele>
        <time>2022-10-02T08:02:39Z</time>
      </trkpt>
      <trkpt lat="46.00033" lon="1.08377">
        <ele>357.5</ele>
        <time>2022-10-02T08:02:40Z</time>
      </trkpt>
      <trkpt lat="46.00037" lon="1.08371">
        <ele>357.6</ele>
        <time>2022-10-02T08:02:41Z</time>
      </trkpt>
      <trkpt lat="46.00042" lon="1.08368">
        <ele>357.6</ele>
        <time>2022-10-02T08:02:42Z</time>
      </trkpt>
      <trkpt lat="46.00047" lon="1.08365">
        <ele>357.6</ele>
        <time>2022-10-02T08:02:43Z</time>
      </trkpt>
      <trkpt lat="46.0005" lon="1.0836">
        <ele>357.6</ele>
        <time>2022-10-02T08:02:44Z</time>
      </trkpt>
      <trkpt lat="46.00054" lon="1.08351">
        <ele>357.6</ele>
        <time>2022-10-02T08:02:45Z</time>
      </trkpt>
      <trkpt lat="46.00059" lon="1.08349">
        <ele>357.6</ele>
        <time>2022-10-02T08:02:46Z</time>
      </trkpt>
      <trkpt lat="46.00064" lon="1.08344">
        <ele>357.7</ele>
        <time>2022-10-02T08:02:47Z</time>
      </trkpt>
      <trkpt lat="46.00069" lon="1.08342">
        <ele>357.8</ele>
        <time>2022-10-02T08:02:48Z</time>
      </trkpt>
      <trkpt lat="46.00073" lon="1.08338">
        <ele>357.9</ele>
        <time>2022-10-02T08:02:49Z</time>
      </trkpt>
      <trkpt lat="46.00078" lon="1.08334">
        <ele>358.1</ele>
        <time>2022-10-02T08:02:50Z</time>
      </trkpt>
      <trkpt lat="46.00082" lon="1.08329">
        <ele>358.2</ele>
        <time>2022-10-02T08:02:51Z</time>
      </trkpt>
      <trkpt lat="46.00087" lon="1.08325">
        <ele>358.5</ele>
        <time>2022-10-02T08:02:52Z</time>
      </trkpt>
      <trkpt lat="46.0009" lon="1.08321">
        <ele>358.7</ele>
        <time>2022-10-02T08:02:53Z</time>
      </trkpt>
      <trkpt lat="46.00096" lon="1.08318">
        <ele>358.9</ele>
        <time>2022-10-02T08:02:54Z</time>
      </trkpt>
      <trkpt lat="46.00101" lon="1.08317">
        <ele>359.2</ele>
        <time>2022-10-02T08:02:55Z</time>
      </trkpt>
      <trkpt lat="46.00107" lon="1.08316">
        <ele>359.4</ele>
        <time>2022-10-02T08:02:56Z</time>
      </trkpt>
      <trkpt lat="46.00111" lon="1.08317">
        <ele>359.6</ele>
        <time>2022-10-02T08:02:57Z</time>
      </trkpt>
      <trkpt lat="46.00117" lon="1.08316">
        <ele>359.7</ele>
        <time>2022-10-02T08:02:58Z</time>
      </trkpt>
      <trkpt lat="46.00121" lon="1.08315">
        <ele>359.9</ele>
        <time>2022-10-02T08:02:59Z</time>
      </trkpt>
      <trkpt lat="46.00127" lon="1.08317">
        <ele>360</ele>
        <time>2022-10-02T08:03:00Z</time>
      </trkpt>
      <trkpt lat="46.00132" lon="1.08317">
        <ele>360.1</ele>
        <time>2022-10-02T08:03:01Z</time>
      </trkpt>
      <trkpt lat="46.00137" lon="1.08319">
        <ele>360.2</ele>
        <time>2022-10-02T08:03:02Z</time>
      </trkpt>
      <trkpt lat="46.00144" lon="1.08319">
        <ele>360.3</ele>
        <time>2022-10-02T08:03:03Z</time>
      </trkpt>
      <trkpt lat="46.0015" lon="1.08321">
        <ele>360.4</ele>
        <time>2022-10-02T08:03:04Z</time>
      </trkpt>
      <trkpt lat="46.00156" lon="1.08322">
        <ele>360.3</ele>
        <time>2022-10-02T08:03:05Z</time>
      </trkpt>
      <trkpt lat="46.00163" lon="1.08322">
        <ele>360.3</ele>
        <time>2022-10-02T08:03:06Z</time>
      </trkpt>
      <trkpt lat="46.0017" lon="1.08323">
        <ele>360.2</ele>
        <time>2022-10-02T08:03:07Z</time>
      </trkpt>
      <trkpt lat="46.00176" lon="1.08324">
        <ele>360.1</ele>
        <time>2022-10-02T08:03:08Z</time>
      </trkpt>
      <trkpt lat="46.00182" lon="1.08326">
        <ele>360.1</ele>
        <time>2022-10-02T08:03:09Z</time>
      </trkpt>
      <trkpt lat="46.00188" lon="1.08326">
        <ele>360</ele>
        <time>2022-10-02T08:03:10Z</time>
      </trkpt>
      <trkpt lat="46.00193" lon="1.08328">
        <ele>359.9</ele>
        <time>2022-10-02T08:03:11Z</time>
      </trkpt>
      <trkpt lat="46.00197" lon="1.08328">
        <ele>359.9</ele>
        <time>2022-10-02T08:03:12Z</time>
      </trkpt>
      <trkpt lat="46.00201" lon="1.08331">
        <ele>359.8</ele>
        <time>2022-10-02T08:03:13Z</time>
      </trkpt>
      <trkpt lat="46.00206" lon="1.08331">
        <ele>359.7</ele>
        <time>2022-10-02T08:03:14Z</time>
      </trkpt>
      <trkpt lat="46.00212" lon="1.08335">
        <ele>359.6</ele>
        <time>2022-10-02T08:03:15Z</time>
      </trkpt>
      <trkpt lat="46.00217" lon="1.08334">
        <ele>359.5</ele>
        <time>2022-10-02T08:03:16Z</time>
      </trkpt>
      <trkpt lat="46.00223" lon="1.08336">
        <ele>359.4</ele>
        <time>2022-10-02T08:03:17Z</time>
      </trkpt>
      <trkpt lat="46.00229" lon="1.08336">
        <ele>359.2</ele>
        <time>2022-10-02T08:03:18Z</time>
      </trkpt>
      <trkpt lat="46.00235" lon="1.08336">
        <ele>359.1</ele>
        <time>2022-10-02T08:03:19Z</time>
      </trkpt>
      <trkpt lat="46.00241" lon="1.0834">
        <ele>358.9</ele>
        <time>2022-10-02T08:03:20Z</time>
      </trkpt>
      <trkpt lat="46.00249" lon="1.08343">
        <ele>358.6</ele>
        <time>2022-10-02T08:03:21Z</time>
      </trkpt>
      <trkpt lat="46.00253" lon="1.08341">
        <ele>358.5</ele>
        <time>2022-10-02T08:03:22Z</time>
      </trkpt>
      <trkpt lat="46.00261" lon="1.08338">
        <ele>358.3</ele>
        <time>2022-10-02T08:03:23Z</time>
      </trkpt>
      <trkpt lat="46.00264" lon="1.08335">
        <ele>358.2</ele>
        <time>2022-10-02T08:03:24Z</time>
      </trkpt>
      <trkpt lat="46.00271" lon="1.0833">
        <ele>358</ele>
        <time>2022-10-02T08:03:25Z</time>
      </trkpt>
      <trkpt lat="46.00278" lon="1.08328">
        <ele>358</ele>
        <time>2022-10-02T08:03:26Z</time>
      </trkpt>
      <trkpt lat="46.00284" lon="1.08322">
        <ele>358</ele>
        <time>2022-10-02T08:03:27Z</time>
      </trkpt>
      <trkpt lat="46.00291" lon="1.08318">
        <ele>358</ele>
        <time>2022-10-02T08:03:28Z</time>
      </trkpt>
      <trkpt lat="46.00297" lon="1.08314">
        <ele>358</ele>
        <time>2022-10-02T08:03:29Z</time>
      </trkpt>
      <trkpt lat="46.00304" lon="1.08311">
        <ele>358</ele>
        <time>2022-10-02T08:03:30Z</time>
      </trkpt>
      <trkpt lat="46.00309" lon="1.08308">
        <ele>358.1</ele>
        <time>2022-10-02T08:03:31Z</time>
      </trkpt>
      <trkpt lat="46.00315" lon="1.08303">
        <ele>358.2</ele>
        <time>2022-10-02T08:03:32Z</time>
      </trkpt>
      <trkpt lat="46.0032" lon="1.08301">
        <ele>358.3</ele>
        <time>2022-10-02T08:03:33Z</time>
      </trkpt>
      <trkpt lat="46.00326" lon="1.08302">
        <ele>358.5</ele>
        <time>2022-10-02T08:03:34Z</time>
      </trkpt>
      <trkpt lat="46.00331" lon="1.08298">
        <ele>358.7</ele>
        <time>2022-10-02T08:03:35Z</time>
      </trkpt>
      <trkpt lat="46.00334" lon="1.08296">
        <ele>358.8</ele>
        <time>2022-10-02T08:03:36Z</time>
      </trkpt>
      <trkpt lat="46.00339" lon="1.08292">
        <ele>359</ele>
        <time>2022-10-02T08:03:37Z</time>
      </trkpt>
      <trkpt lat="46.00344" lon="1.08287">
        <ele>359.2</ele>
        <time>2022-10-02T08:03:38Z</time>
      </trkpt>
      <trkpt lat="46.00348" lon="1.08283">
        <ele>359.2</ele>
        <time>2022-10-02T08:03:39Z</time>
      </trkpt>
      <trkpt lat="46.00351" lon="1.08277">
        <ele>359.3</ele>
        <time>2022-10-02T08:03:40Z</time>
      </trkpt>
      <trkpt lat="46.00354" lon="1.08272">
        <ele>359.3</ele>
        <time>2022-10-02T08:03:41Z</time>
      </trkpt>
      <trkpt lat="46.00359" lon="1.08264">
        <ele>359.2</ele>
        <time>2022-10-02T08:03:42Z</time>
      </trkpt>
      <trkpt lat="46.00363" lon="1.08258">
        <ele>359.1</ele>
        <time>2022-10-02T08:03:43Z</time>
      </trkpt>
      <trkpt lat="46.00366" lon="1.08252">
        <ele>359</ele>
        <time>2022-10-02T08:03:44Z</time>
      </trkpt>
      <trkpt lat="46.0037" lon="1.08246">
        <ele>358.7</ele>
        <time>2022-10-02T08:03:45Z</time>
      </trkpt>
      <trkpt lat="46.00374" lon="1.0824">
        <ele>358.5</ele>
        <time>2022-10-02T08:03:46Z</time>
      </trkpt>
      <trkpt lat="46.00377" lon="1.08233">
        <ele>358.3</ele>
        <time>2022-10-02T08:03:47Z</time>
      </trkpt>
      <trkpt lat="46.00381" lon="1.08227">
        <ele>358.1</ele>
        <time>2022-10-02T08:03:48Z</time>
      </trkpt>
      <trkpt lat="46.00385" lon="1.08221">
        <ele>357.9</ele>
        <time>2022-10-02T08:03:49Z</time>
      </trkpt>
      <trkpt lat="46.00389" lon="1.08215">
        <ele>357.7</ele>
        <time>2022-10-02T08:03:50Z</time>
      </trkpt>
      <trkpt lat="46.00392" lon="1.08207">
        <ele>357.5</ele>
        <time>2022-10-02T08:03:51Z</time>
      </trkpt>
      <trkpt lat="46.00395" lon="1.08199">
        <ele>357.4</ele>
        <time>2022-10-02T08:03:52Z</time>
      </trkpt>
      <trkpt lat="46.00398" lon="1.08192">
        <ele>357.2</ele>
        <time>2022-10-02T08:03:53Z</time>
      </trkpt>
      <trkpt lat="46.00401" lon="1.08185">
        <ele>357.1</ele>
        <time>2022-10-02T08:03:54Z</time>
      </trkpt>
      <trkpt lat="46.00405" lon="1.08179">
        <ele>357</ele>
        <time>2022-10-02T08:03:55Z</time>
      </trkpt>
      <trkpt lat="46.0041" lon="1.08173">
        <ele>356.9</ele>
        <time>2022-10-02T08:03:56Z</time>
      </trkpt>
      <trkpt lat="46.00413" lon="1.08167">
        <ele>356.8</ele>
        <time>2022-10-02T08:03:57Z</time>
      </trkpt>
      <trkpt lat="46.00416" lon="1.08164">
        <ele>356.8</ele>
        <time>2022-10-02T08:03:58Z</time>
      </trkpt>
      <trkpt lat="46.00419" lon="1.08159">
        <ele>356.8</ele>
        <time>2022-10-02T08:03:59Z</time>
      </trkpt>
      <trkpt lat="46.00422" lon="1.08154">
        <ele>356.7</ele>
        <time>2022-10-02T08:04:00Z</time>
      </trkpt>
      <trkpt lat="46.00425" lon="1.08148">
        <ele>356.7</ele>
        <time>2022-10-02T08:04:01Z</time>
      </trkpt>
      <trkpt lat="46.00429" lon="1.08141">
        <ele>356.7</ele>
        <time>2022-10-02T08:04:02Z</time>
      </trkpt>
      <trkpt lat="46.00431" lon="1.08134">
        <ele>356.7</ele>
        <time>2022-10-02T08:04:03Z</time>
      </trkpt>
      <trkpt lat="46.00434" lon="1.08128">
        <ele>356.7</ele>
        <time>2022-10-02T08:04:04Z</time>
      </trkpt>
      <trkpt lat="46.00437" lon="1.08122">
        <ele>356.7</ele>
        <time>2022-10-02T08:04:05Z</time>
      </trkpt>
      <trkpt lat="46.0044" lon="1.08116">
        <ele>356.8</ele>
        <time>2022-10-02T08:04:06Z</time>
      </trkpt>
      <trkpt lat="46.00444" lon="1.08113">
        <ele>356.9</ele>
        <time>2022-10-02T08:04:07Z</time>
      </trkpt>
      <trkpt lat="46.00448" lon="1.08109">
        <ele>357</ele>
        <time>2022-10-02T08:04:08Z</time>
      </trkpt>
      <trkpt lat="46.0045" lon="1.08103">
        <ele>357.2</ele>
        <time>2022-10-02T08:04:09Z</time>
      </trkpt>
      <trkpt lat="46.00451" lon="1.08098">
        <ele>357.3</ele>
        <time>2022-10-02T08:04:10Z</time>
      </trkpt>
      <trkpt lat="46.00454" lon="1.08093">
        <ele>357.4</ele>
        <time>2022-10-02T08:04:11Z</time>
      </trkpt>
      <trkpt lat="46.00454" lon="1.08091">
        <ele>357.5</ele>
        <time>2022-10-02T08:04:12Z</time>
      </trkpt>
      <trkpt lat="46.00457" lon="1.08087">
        <ele>357.6</ele>
        <time>2022-10-02T08:04:13Z</time>
      </trkpt>
      <trkpt lat="46.0046" lon="1.08082">
        <ele>357.8</ele>
        <time>2022-10-02T08:04:14Z</time>
      </trkpt>
      <trkpt lat="46.00464" lon="1.08077">
        <ele>357.9</ele>
        <time>2022-10-02T08:04:15Z</time>
      </trkpt>
      <trkpt lat="46.00466" lon="1.08072">
        <ele>358.1</ele>
        <time>2022-10-02T08:04:16Z</time>
      </trkpt>
      <trkpt lat="46.00466" lon="1.08067">
        <ele>358.3</ele>
        <time>2022-10-02T08:04:17Z</time>
      </trkpt>
      <trkpt lat="46.00468" lon="1.08063">
        <ele>358.5</ele>
        <time>2022-10-02T08:04:18Z</time>
      </trkpt>
      <trkpt lat="46.0047" lon="1.08058">
        <ele>358.7</ele>
        <time>2022-10-02T08:04:19Z</time>
      </trkpt>
      <trkpt lat="46.00472" lon="1.0805">
        <ele>359</ele>
        <time>2022-10-02T08:04:20Z</time>
      </trkpt>
      <trkpt lat="46.00473" lon="1.08044">
        <ele>359.2</ele>
        <time>2022-10-02T08:04:21Z</time>
      </trkpt>
      <trkpt lat="46.00475" lon="1.08038">
        <ele>359.5</ele>
        <time>2022-10-02T08:04:22Z</time>
      </trkpt>
      <trkpt lat="46.00478" lon="1.08032">
        <ele>359.8</ele>
        <time>2022-10-02T08:04:23Z</time>
      </trkpt>
      <trkpt lat="46.0048" lon="1.08029">
        <ele>360</ele>
        <time>2022-10-02T08:04:24Z</time>
      </trkpt>
      <trkpt lat="46.0048" lon="1.08023">
        <ele>360.2</ele>
        <time>2022-10-02T08:04:25Z</time>
      </trkpt>
      <trkpt lat="46.00482" lon="1.08018">
        <ele>360.4</ele>
        <time>2022-10-02T08:04:26Z</time>
      </trkpt>
      <trkpt lat="46.00485" lon="1.0801">
        <ele>360.8</ele>
        <time>2022-10-02T08:04:27Z</time>
      </trkpt>
      <trkpt lat="46.00486" lon="1.08008">
        <ele>360.9</ele>
        <time>2022-10-02T08:04:28Z</time>
      </trkpt>
      <trkpt lat="46.00488" lon="1.08002">
        <ele>361.2</ele>
        <time>2022-10-02T08:04:29Z</time>
      </trkpt>
      <trkpt lat="46.00491" lon="1.07994">
        <ele>361.5</ele>
        <time>2022-10-02T08:04:30Z</time>
      </trkpt>
      <trkpt lat="46.00493" lon="1.07981">
        <ele>362</ele>
        <time>2022-10-02T08:04:31Z</time>
      </trkpt>
      <trkpt lat="46.00496" lon="1.07971">
        <ele>362.4</ele>
        <time>2022-10-02T08:04:32Z</time>
      </trkpt>
      <trkpt lat="46.005" lon="1.07962">
        <ele>362.8</ele>
        <time>2022-10-02T08:04:33Z</time>
      </trkpt>
      <trkpt lat="46.00503" lon="1.07955">
        <ele>363.1</ele>
        <time>2022-10-02T08:04:34Z</time>
      </trkpt>
      <trkpt lat="46.00508" lon="1.07949">
        <ele>363.4</ele>
        <time>2022-10-02T08:04:35Z</time>
      </trkpt>
      <trkpt lat="46.00511" lon="1.07943">
        <ele>363.7</ele>
        <time>2022-10-02T08:04:36Z</time>
      </trkpt>
      <trkpt lat="46.00515" lon="1.07936">
        <ele>364</ele>
        <time>2022-10-02T08:04:37Z</time>
      </trkpt>
      <trkpt lat="46.00518" lon="1.07929">
        <ele>364.2</ele>
        <time>2022-10-02T08:04:38Z</time>
      </trkpt>
      <trkpt lat="46.00523" lon="1.07923">
        <ele>364.6</ele>
        <time>2022-10-02T08:04:39Z</time>
      </trkpt>
      <trkpt lat="46.00526" lon="1.07916">
        <ele>364.9</ele>
        <time>2022-10-02T08:04:40Z</time>
      </trkpt>
      <trkpt lat="46.00529" lon="1.07909">
        <ele>365.2</ele>
        <time>2022-10-02T08:04:41Z</time>
      </trkpt>
      <trkpt lat="46.00532" lon="1.07903">
        <ele>365.5</ele>
        <time>2022-10-02T08:04:42Z</time>
      </trkpt>
      <trkpt lat="46.00535" lon="1.07896">
        <ele>365.9</ele>
        <time>2022-10-02T08:04:43Z</time>
      </trkpt>
      <trkpt lat="46.00539" lon="1.0789">
        <ele>366.3</ele>
        <time>2022-10-02T08:04:44Z</time>
      </trkpt>
      <trkpt lat="46.00542" lon="1.07885">
        <ele>366.7</ele>
        <time>2022-10-02T08:04:45Z</time>
      </trkpt>
      <trkpt lat="46.00545" lon="1.07879">
        <ele>367.2</ele>
        <time>2022-10-02T08:04:46Z</time>
      </trkpt>
      <trkpt lat="46.00548" lon="1.07874">
        <ele>367.6</ele>
        <time>2022-10-02T08:04:47Z</time>
      </trkpt>
      <trkpt lat="46.0055" lon="1.07867">
        <ele>368.1</ele>
        <time>2022-10-02T08:04:48Z</time>
      </trkpt>
      <trkpt lat="46.00553" lon="1.07861">
        <ele>368.6</ele>
        <time>2022-10-02T08:04:49Z</time>
      </trkpt>
      <trkpt lat="46.00556" lon="1.07855">
        <ele>369.1</ele>
        <time>2022-10-02T08:04:50Z</time>
      </trkpt>
      <trkpt lat="46.00559" lon="1.07848">
        <ele>369.5</ele>
        <time>2022-10-02T08:04:51Z</time>
      </trkpt>
      <trkpt lat="46.00561" lon="1.07841">
        <ele>369.9</ele>
        <time>2022-10-02T08:04:52Z</time>
      </trkpt>
      <trkpt lat="46.00562" lon="1.07836">
        <ele>370.2</ele>
        <time>2022-10-02T08:04:53Z</time>
      </trkpt>
      <trkpt lat="46.00563" lon="1.0783">
        <ele>370.5</ele>
        <time>2022-10-02T08:04:54Z</time>
      </trkpt>
      <trkpt lat="46.00566" lon="1.07823">
        <ele>370.9</ele>
        <time>2022-10-02T08:04:55Z</time>
      </trkpt>
      <trkpt lat="46.00569" lon="1.07816">
        <ele>371.1</ele>
        <time>2022-10-02T08:04:56Z</time>
      </trkpt>
      <trkpt lat="46.00572" lon="1.0781">
        <ele>371.3</ele>
        <time>2022-10-02T08:04:57Z</time>
      </trkpt>
      <trkpt lat="46.00573" lon="1.07802">
        <ele>371.5</ele>
        <time>2022-10-02T08:04:58Z</time>
      </trkpt>
      <trkpt lat="46.00577" lon="1.07797">
        <ele>371.5</ele>
        <time>2022-10-02T08:04:59Z</time>
      </trkpt>
      <trkpt lat="46.0058" lon="1.0779">
        <ele>371.6</ele>
        <time>2022-10-02T08:05:00Z</time>
      </trkpt>
      <trkpt lat="46.00584" lon="1.07784">
        <ele>371.5</ele>
        <time>2022-10-02T08:05:01Z</time>
      </trkpt>
      <trkpt lat="46.00588" lon="1.07778">
        <ele>371.5</ele>
        <time>2022-10-02T08:05:02Z</time>
      </trkpt>
      <trkpt lat="46.00592" lon="1.07772">
        <ele>371.4</ele>
        <time>2022-10-02T08:05:03Z</time>
      </trkpt>
      <trkpt lat="46.00595" lon="1.07767">
        <ele>371.4</ele>
        <time>2022-10-02T08:05:04Z</time>
      </trkpt>
      <trkpt lat="46.00599" lon="1.07763">
        <ele>371.3</ele>
        <time>2022-10-02T08:05:05Z</time>
      </trkpt>
      <trkpt lat="46.00604" lon="1.07758">
        <ele>371.1</ele>
        <time>2022-10-02T08:05:06Z</time>
      </trkpt>
      <trkpt lat="46.00607" lon="1.07753">
        <ele>371</ele>
        <time>2022-10-02T08:05:07Z</time>
      </trkpt>
      <trkpt lat="46.00611" lon="1.07749">
        <ele>370.8</ele>
        <time>2022-10-02T08:05:08Z</time>
      </trkpt>
      <trkpt lat="46.00616" lon="1.07744">
        <ele>370.5</ele>
        <time>2022-10-02T08:05:09Z</time>
      </trkpt>
      <trkpt lat="46.0062" lon="1.07739">
        <ele>370.3</ele>
        <time>2022-10-02T08:05:10Z</time>
      </trkpt>
      <trkpt lat="46.00624" lon="1.07735">
        <ele>370.1</ele>
        <time>2022-10-02T08:05:11Z</time>
      </trkpt>
      <trkpt lat="46.00628" lon="1.07732">
        <ele>369.9</ele>
        <time>2022-10-02T08:05:12Z</time>
      </trkpt>
      <trkpt lat="46.00631" lon="1.07725">
        <ele>369.6</ele>
        <time>2022-10-02T08:05:13Z</time>
      </trkpt>
      <trkpt lat="46.00636" lon="1.0772">
        <ele>369.4</ele>
        <time>2022-10-02T08:05:14Z</time>
      </trkpt>
      <trkpt lat="46.00644" lon="1.07715">
        <ele>369</ele>
        <time>2022-10-02T08:05:15Z</time>
      </trkpt>
      <trkpt lat="46.00649" lon="1.07712">
        <ele>368.7</ele>
        <time>2022-10-02T08:05:16Z</time>
      </trkpt>
      <trkpt lat="46.00656" lon="1.07708">
        <ele>368.4</ele>
        <time>2022-10-02T08:05:17Z</time>
      </trkpt>
      <trkpt lat="46.00661" lon="1.07704">
        <ele>368.2</ele>
        <time>2022-10-02T08:05:18Z</time>
      </trkpt>
      <trkpt lat="46.00667" lon="1.07697">
        <ele>367.9</ele>
        <time>2022-10-02T08:05:19Z</time>
      </trkpt>
      <trkpt lat="46.00673" lon="1.07693">
        <ele>367.7</ele>
        <time>2022-10-02T08:05:20Z</time>
      </trkpt>
      <trkpt lat="46.00679" lon="1.07688">
        <ele>367.4</ele>
        <time>2022-10-02T08:05:21Z</time>
      </trkpt>
      <trkpt lat="46.00684" lon="1.07683">
        <ele>367.2</ele>
        <time>2022-10-02T08:05:22Z</time>
      </trkpt>
      <trkpt lat="46.00689" lon="1.07679">
        <ele>366.8</ele>
        <time>2022-10-02T08:05:23Z</time>
      </trkpt>
      <trkpt lat="46.00694" lon="1.07671">
        <ele>366.5</ele>
        <time>2022-10-02T08:05:24Z</time>
      </trkpt>
      <trkpt lat="46.00697" lon="1.07664">
        <ele>366.2</ele>
        <time>2022-10-02T08:05:25Z</time>
      </trkpt>
      <trkpt lat="46.00702" lon="1.07658">
        <ele>366</ele>
        <time>2022-10-02T08:05:26Z</time>
      </trkpt>
      <trkpt lat="46.00706" lon="1.07653">
        <ele>365.8</ele>
        <time>2022-10-02T08:05:27Z</time>
      </trkpt>
      <trkpt lat="46.0071" lon="1.07647">
        <ele>365.6</ele>
        <time>2022-10-02T08:05:28Z</time>
      </trkpt>
      <trkpt lat="46.00715" lon="1.07642">
        <ele>365.5</ele>
        <time>2022-10-02T08:05:29Z</time>
      </trkpt>
      <trkpt lat="46.0072" lon="1.07636">
        <ele>365.4</ele>
        <time>2022-10-02T08:05:30Z</time>
      </trkpt>
      <trkpt lat="46.00725" lon="1.07629">
        <ele>365.3</ele>
        <time>2022-10-02T08:05:31Z</time>
      </trkpt>
      <trkpt lat="46.00729" lon="1.07623">
        <ele>365.2</ele>
        <time>2022-10-02T08:05:32Z</time>
      </trkpt>
      <trkpt lat="46.00733" lon="1.07617">
        <ele>365.1</ele>
        <time>2022-10-02T08:05:33Z</time>
      </trkpt>
      <trkpt lat="46.00738" lon="1.0761">
        <ele>365</ele>
        <time>2022-10-02T08:05:34Z</time>
      </trkpt>
      <trkpt lat="46.00743" lon="1.07604">
        <ele>364.8</ele>
        <time>2022-10-02T08:05:35Z</time>
      </trkpt>
      <trkpt lat="46.00746" lon="1.07598">
        <ele>364.7</ele>
        <time>2022-10-02T08:05:36Z</time>
      </trkpt>
      <trkpt lat="46.00749" lon="1.07593">
        <ele>364.9</ele>
        <time>2022-10-02T08:05:37Z</time>
      </trkpt>
      <trkpt lat="46.00753" lon="1.07592">
        <ele>365.1</ele>
        <time>2022-10-02T08:05:38Z</time>
      </trkpt>
      <trkpt lat="46.00756" lon="1.0759">
        <ele>365.3</ele>
        <time>2022-10-02T08:05:39Z</time>
      </trkpt>
      <trkpt lat="46.00761" lon="1.0759">
        <ele>365.5</ele>
        <time>2022-10-02T08:05:40Z</time>
      </trkpt>
      <trkpt lat="46.00767" lon="1.07589">
        <ele>365.8</ele>
        <time>2022-10-02T08:05:41Z</time>
      </trkpt>
      <trkpt lat="46.00771" lon="1.07589">
        <ele>366</ele>
        <time>2022-10-02T08:05:42Z</time>
      </trkpt>
      <trkpt lat="46.00773" lon="1.07588">
        <ele>366</ele>
        <time>2022-10-02T08:05:43Z</time>
      </trkpt>
      <trkpt lat="46.00777" lon="1.07588">
        <ele>366</ele>
        <time>2022-10-02T08:05:44Z</time>
      </trkpt>
      <trkpt lat="46.00781" lon="1.07587">
        <ele>366</ele>
        <time>2022-10-02T08:05:45Z</time>
      </trkpt>
      <trkpt lat="46.00787" lon="1.07585">
        <ele>365.9</ele>
        <time>2022-10-02T08:05:46Z</time>
      </trkpt>
      <trkpt lat="46.00792" lon="1.07583">
        <ele>365.8</ele>
        <time>2022-10-02T08:05:47Z</time>
      </trkpt>
      <trkpt lat="46.00798" lon="1.07581">
        <ele>365.8</ele>
        <time>2022-10-02T08:05:48Z</time>
      </trkpt>
      <trkpt lat="46.00804" lon="1.0758">
        <ele>365.7</ele>
        <time>2022-10-02T08:05:49Z</time>
      </trkpt>
      <trkpt lat="46.0081" lon="1.07579">
        <ele>365.7</ele>
        <time>2022-10-02T08:05:50Z</time>
      </trkpt>
      <trkpt lat="46.00815" lon="1.07575">
        <ele>365.7</ele>
        <time>2022-10-02T08:05:51Z</time>
      </trkpt>
      <trkpt lat="46.00821" lon="1.07573">
        <ele>365.8</ele>
        <time>2022-10-02T08:05:52Z</time>
      </trkpt>
      <trkpt lat="46.00827" lon="1.07572">
        <ele>365.8</ele>
        <time>2022-10-02T08:05:53Z</time>
      </trkpt>
      <trkpt lat="46.00833" lon="1.07569">
        <ele>365.8</ele>
        <time>2022-10-02T08:05:54Z</time>
      </trkpt>
      <trkpt lat="46.00839" lon="1.07566">
        <ele>365.8</ele>
        <time>2022-10-02T08:05:55Z</time>
      </trkpt>
      <trkpt lat="46.00845" lon="1.07564">
        <ele>365.8</ele>
        <time>2022-10-02T08:05:56Z</time>
      </trkpt>
      <trkpt lat="46.00849" lon="1.07563">
        <ele>365.8</ele>
        <time>2022-10-02T08:05:57Z</time>
      </trkpt>
      <trkpt lat="46.00855" lon="1.07563">
        <ele>365.8</ele>
        <time>2022-10-02T08:05:58Z</time>
      </trkpt>
      <trkpt lat="46.0086" lon="1.07562">
        <ele>365.8</ele>
        <time>2022-10-02T08:05:59Z</time>
      </trkpt>
      <trkpt lat="46.00867" lon="1.07561">
        <ele>365.8</ele>
        <time>2022-10-02T08:06:00Z</time>
      </trkpt>
      <trkpt lat="46.00873" lon="1.07558">
        <ele>365.9</ele>
        <time>2022-10-02T08:06:01Z</time>
      </trkpt>
      <trkpt lat="46.00879" lon="1.07555">
        <ele>365.9</ele>
        <time>2022-10-02T08:06:02Z</time>
      </trkpt>
      <trkpt lat="46.00883" lon="1.07552">
        <ele>366</ele>
        <time>2022-10-02T08:06:03Z</time>
      </trkpt>
      <trkpt lat="46.00888" lon="1.07548">
        <ele>366</ele>
        <time>2022-10-02T08:06:04Z</time>
      </trkpt>
      <trkpt lat="46.00893" lon="1.07547">
        <ele>366.1</ele>
        <time>2022-10-02T08:06:05Z</time>
      </trkpt>
      <trkpt lat="46.00898" lon="1.07544">
        <ele>366.1</ele>
        <time>2022-10-02T08:06:06Z</time>
      </trkpt>
      <trkpt lat="46.00902" lon="1.07542">
        <ele>366.2</ele>
        <time>2022-10-02T08:06:07Z</time>
      </trkpt>
      <trkpt lat="46.00908" lon="1.07541">
        <ele>366.3</ele>
        <time>2022-10-02T08:06:08Z</time>
      </trkpt>
      <trkpt lat="46.0091" lon="1.0754">
        <ele>366.4</ele>
        <time>2022-10-02T08:06:09Z</time>
      </trkpt>
      <trkpt lat="46.00916" lon="1.07539">
        <ele>366.5</ele>
        <time>2022-10-02T08:06:10Z</time>
      </trkpt>
      <trkpt lat="46.00921" lon="1.07538">
        <ele>366.7</ele>
        <time>2022-10-02T08:06:11Z</time>
      </trkpt>
      <trkpt lat="46.00926" lon="1.07536">
        <ele>366.9</ele>
        <time>2022-10-02T08:06:13Z</time>
      </trkpt>
      <trkpt lat="46.00931" lon="1.07534">
        <ele>367.1</ele>
        <time>2022-10-02T08:06:14Z</time>
      </trkpt>
      <trkpt lat="46.00931" lon="1.07531">
        <ele>367.1</ele>
        <time>2022-10-02T08:06:15Z</time>
      </trkpt>
      <trkpt lat="46.0093" lon="1.07527">
        <ele>367.3</ele>
        <time>2022-10-02T08:06:16Z</time>
      </trkpt>
      <trkpt lat="46.00932" lon="1.07523">
        <ele>367.4</ele>
        <time>2022-10-02T08:06:17Z</time>
      </trkpt>
      <trkpt lat="46.00931" lon="1.07517">
        <ele>367.5</ele>
        <time>2022-10-02T08:06:18Z</time>
      </trkpt>
      <trkpt lat="46.0093" lon="1.07512">
        <ele>367.4</ele>
        <time>2022-10-02T08:06:19Z</time>
      </trkpt>
      <trkpt lat="46.00927" lon="1.07505">
        <ele>367.3</ele>
        <time>2022-10-02T08:06:20Z</time>
      </trkpt>
      <trkpt lat="46.00926" lon="1.07498">
        <ele>367.2</ele>
        <time>2022-10-02T08:06:21Z</time>
      </trkpt>
      <trkpt lat="46.00923" lon="1.07493">
        <ele>367.2</ele>
        <time>2022-10-02T08:06:22Z</time>
      </trkpt>
      <trkpt lat="46.00922" lon="1.07487">
        <ele>367.1</ele>
        <time>2022-10-02T08:06:23Z</time>
      </trkpt>
      <trkpt lat="46.00919" lon="1.07478">
        <ele>367.1</ele>
        <time>2022-10-02T08:06:24Z</time>
      </trkpt>
      <trkpt lat="46.00918" lon="1.07471">
        <ele>367.1</ele>
        <time>2022-10-02T08:06:25Z</time>
      </trkpt>
      <trkpt lat="46.00916" lon="1.07463">
        <ele>367.2</ele>
        <time>2022-10-02T08:06:26Z</time>
      </trkpt>
      <trkpt lat="46.00914" lon="1.07455">
        <ele>367.3</ele>
        <time>2022-10-02T08:06:27Z</time>
      </trkpt>
      <trkpt lat="46.00913" lon="1.07448">
        <ele>367.5</ele>
        <time>2022-10-02T08:06:28Z</time>
      </trkpt>
      <trkpt lat="46.00911" lon="1.07442">
        <ele>367.6</ele>
        <time>2022-10-02T08:06:29Z</time>
      </trkpt>
      <trkpt lat="46.0091" lon="1.07433">
        <ele>367.9</ele>
        <time>2022-10-02T08:06:30Z</time>
      </trkpt>
      <trkpt lat="46.00909" lon="1.07426">
        <ele>368.1</ele>
        <time>2022-10-02T08:06:31Z</time>
      </trkpt>
      <trkpt lat="46.00908" lon="1.07418">
        <ele>368.4</ele>
        <time>2022-10-02T08:06:32Z</time>
      </trkpt>
      <trkpt lat="46.00909" lon="1.0741">
        <ele>368.7</ele>
        <time>2022-10-02T08:06:33Z</time>
      </trkpt>
      <trkpt lat="46.00905" lon="1.07401">
        <ele>369.2</ele>
        <time>2022-10-02T08:06:34Z</time>
      </trkpt>
      <trkpt lat="46.00905" lon="1.07395">
        <ele>369.5</ele>
        <time>2022-10-02T08:06:35Z</time>
      </trkpt>
      <trkpt lat="46.00907" lon="1.07387">
        <ele>369.9</ele>
        <time>2022-10-02T08:06:36Z</time>
      </trkpt>
      <trkpt lat="46.00909" lon="1.07382">
        <ele>370.3</ele>
        <time>2022-10-02T08:06:37Z</time>
      </trkpt>
      <trkpt lat="46.00911" lon="1.07375">
        <ele>370.7</ele>
        <time>2022-10-02T08:06:38Z</time>
      </trkpt>
      <trkpt lat="46.00914" lon="1.07369">
        <ele>371.2</ele>
        <time>2022-10-02T08:06:39Z</time>
      </trkpt>
      <trkpt lat="46.00915" lon="1.07363">
        <ele>371.6</ele>
        <time>2022-10-02T08:06:40Z</time>
      </trkpt>
      <trkpt lat="46.00918" lon="1.07359">
        <ele>372</ele>
        <time>2022-10-02T08:06:41Z</time>
      </trkpt>
      <trkpt lat="46.00921" lon="1.07354">
        <ele>372.5</ele>
        <time>2022-10-02T08:06:42Z</time>
      </trkpt>
      <trkpt lat="46.00923" lon="1.0735">
        <ele>372.9</ele>
        <time>2022-10-02T08:06:43Z</time>
      </trkpt>
      <trkpt lat="46.00925" lon="1.07346">
        <ele>373.2</ele>
        <time>2022-10-02T08:06:44Z</time>
      </trkpt>
      <trkpt lat="46.00927" lon="1.07344">
        <ele>373.5</ele>
        <time>2022-10-02T08:06:45Z</time>
      </trkpt>
      <trkpt lat="46.0093" lon="1.07341">
        <ele>373.8</ele>
        <time>2022-10-02T08:06:46Z</time>
      </trkpt>
      <trkpt lat="46.00933" lon="1.07338">
        <ele>374.1</ele>
        <time>2022-10-02T08:06:47Z</time>
      </trkpt>
      <trkpt lat="46.00935" lon="1.07334">
        <ele>374.4</ele>
        <time>2022-10-02T08:06:48Z</time>
      </trkpt>
      <trkpt lat="46.00939" lon="1.07331">
        <ele>374.7</ele>
        <time>2022-10-02T08:06:49Z</time>
      </trkpt>
      <trkpt lat="46.00941" lon="1.07328">
        <ele>375</ele>
        <time>2022-10-02T08:06:50Z</time>
      </trkpt>
      <trkpt lat="46.00944" lon="1.07325">
        <ele>375.2</ele>
        <time>2022-10-02T08:06:51Z</time>
      </trkpt>
      <trkpt lat="46.00947" lon="1.07321">
        <ele>375.4</ele>
        <time>2022-10-02T08:06:52Z</time>
      </trkpt>
      <trkpt lat="46.00949" lon="1.07318">
        <ele>375.7</ele>
        <time>2022-10-02T08:06:53Z</time>
      </trkpt>
      <trkpt lat="46.00953" lon="1.07315">
        <ele>375.9</ele>
        <time>2022-10-02T08:06:54Z</time>
      </trkpt>
      <trkpt lat="46.00956" lon="1.07313">
        <ele>376</ele>
        <time>2022-10-02T08:06:55Z</time>
      </trkpt>
      <trkpt lat="46.00959" lon="1.0731">
        <ele>376.2</ele>
        <time>2022-10-02T08:06:56Z</time>
      </trkpt>
      <trkpt lat="46.00961" lon="1.07306">
        <ele>376.3</ele>
        <time>2022-10-02T08:06:57Z</time>
      </trkpt>
      <trkpt lat="46.00964" lon="1.07301">
        <ele>376.4</ele>
        <time>2022-10-02T08:06:58Z</time>
      </trkpt>
      <trkpt lat="46.00966" lon="1.07296">
        <ele>376.4</ele>
        <time>2022-10-02T08:06:59Z</time>
      </trkpt>
      <trkpt lat="46.0097" lon="1.07289">
        <ele>376.5</ele>
        <time>2022-10-02T08:07:00Z</time>
      </trkpt>
      <trkpt lat="46.00973" lon="1.07282">
        <ele>376.5</ele>
        <time>2022-10-02T08:07:01Z</time>
      </trkpt>
      <trkpt lat="46.00977" lon="1.07276">
        <ele>376.4</ele>
        <time>2022-10-02T08:07:02Z</time>
      </trkpt>
      <trkpt lat="46.00979" lon="1.07269">
        <ele>376.3</ele>
        <time>2022-10-02T08:07:03Z</time>
      </trkpt>
      <trkpt lat="46.00983" lon="1.07262">
        <ele>376.1</ele>
        <time>2022-10-02T08:07:04Z</time>
      </trkpt>
      <trkpt lat="46.00985" lon="1.07254">
        <ele>375.9</ele>
        <time>2022-10-02T08:07:05Z</time>
      </trkpt>
      <trkpt lat="46.00989" lon="1.07247">
        <ele>375.7</ele>
        <time>2022-10-02T08:07:06Z</time>
      </trkpt>
      <trkpt lat="46.00991" lon="1.0724">
        <ele>375.5</ele>
        <time>2022-10-02T08:07:07Z</time>
      </trkpt>
      <trkpt lat="46.00994" lon="1.07235">
        <ele>375.3</ele>
        <time>2022-10-02T08:07:08Z</time>
      </trkpt>
      <trkpt lat="46.00995" lon="1.07227">
        <ele>375.1</ele>
        <time>2022-10-02T08:07:09Z</time>
      </trkpt>
      <trkpt lat="46.00999" lon="1.0722">
        <ele>374.7</ele>
        <time>2022-10-02T08:07:10Z</time>
      </trkpt>
      <trkpt lat="46.01004" lon="1.07214">
        <ele>374.3</ele>
        <time>2022-10-02T08:07:11Z</time>
      </trkpt>
      <trkpt lat="46.01006" lon="1.07206">
        <ele>374</ele>
        <time>2022-10-02T08:07:12Z</time>
      </trkpt>
      <trkpt lat="46.01009" lon="1.072">
        <ele>373.6</ele>
        <time>2022-10-02T08:07:13Z</time>
      </trkpt>
      <trkpt lat="46.01012" lon="1.07193">
        <ele>373.2</ele>
        <time>2022-10-02T08:07:14Z</time>
      </trkpt>
      <trkpt lat="46.01015" lon="1.07188">
        <ele>372.8</ele>
        <time>2022-10-02T08:07:15Z</time>
      </trkpt>
      <trkpt lat="46.01019" lon="1.07182">
        <ele>372.4</ele>
        <time>2022-10-02T08:07:16Z</time>
      </trkpt>
      <trkpt lat="46.01022" lon="1.07176">
        <ele>371.9</ele>
        <time>2022-10-02T08:07:17Z</time>
      </trkpt>
      <trkpt lat="46.01026" lon="1.07171">
        <ele>371.5</ele>
        <time>2022-10-02T08:07:18Z</time>
      </trkpt>
      <trkpt lat="46.01028" lon="1.07166">
        <ele>371.2</ele>
        <time>2022-10-02T08:07:19Z</time>
      </trkpt>
      <trkpt lat="46.01032" lon="1.07162">
        <ele>370.8</ele>
        <time>2022-10-02T08:07:20Z</time>
      </trkpt>
      <trkpt lat="46.01034" lon="1.07158">
        <ele>370.4</ele>
        <time>2022-10-02T08:07:21Z</time>
      </trkpt>
      <trkpt lat="46.01036" lon="1.07154">
        <ele>370</ele>
        <time>2022-10-02T08:07:22Z</time>
      </trkpt>
      <trkpt lat="46.01041" lon="1.07148">
        <ele>369.3</ele>
        <time>2022-10-02T08:07:23Z</time>
      </trkpt>
      <trkpt lat="46.01045" lon="1.07143">
        <ele>368.8</ele>
        <time>2022-10-02T08:07:24Z</time>
      </trkpt>
      <trkpt lat="46.01049" lon="1.07138">
        <ele>368.3</ele>
        <time>2022-10-02T08:07:25Z</time>
      </trkpt>
      <trkpt lat="46.01052" lon="1.07129">
        <ele>367.5</ele>
        <time>2022-10-02T08:07:26Z</time>
      </trkpt>
      <trkpt lat="46.01055" lon="1.07118">
        <ele>366.7</ele>
        <time>2022-10-02T08:07:27Z</time>
      </trkpt>
      <trkpt lat="46.01057" lon="1.07106">
        <ele>366</ele>
        <time>2022-10-02T08:07:28Z</time>
      </trkpt>
      <trkpt lat="46.01061" lon="1.07093">
        <ele>365.3</ele>
        <time>2022-10-02T08:07:29Z</time>
      </trkpt>
      <trkpt lat="46.01064" lon="1.07084">
        <ele>365.1</ele>
        <time>2022-10-02T08:07:30Z</time>
      </trkpt>
      <trkpt lat="46.01066" lon="1.07077">
        <ele>364.9</ele>
        <time>2022-10-02T08:07:31Z</time>
      </trkpt>
      <trkpt lat="46.01069" lon="1.07069">
        <ele>364.8</ele>
        <time>2022-10-02T08:07:32Z</time>
      </trkpt>
      <trkpt lat="46.01072" lon="1.07061">
        <ele>364.8</ele>
        <time>2022-10-02T08:07:33Z</time>
      </trkpt>
      <trkpt lat="46.01076" lon="1.07054">
        <ele>364.8</ele>
        <time>2022-10-02T08:07:34Z</time>
      </trkpt>
      <trkpt lat="46.01079" lon="1.07048">
        <ele>364.9</ele>
        <time>2022-10-02T08:07:35Z</time>
      </trkpt>
      <trkpt lat="46.01082" lon="1.07042">
        <ele>365</ele>
        <time>2022-10-02T08:07:36Z</time>
      </trkpt>
      <trkpt lat="46.01085" lon="1.07036">
        <ele>365.2</ele>
        <time>2022-10-02T08:07:37Z</time>
      </trkpt>
      <trkpt lat="46.01088" lon="1.07032">
        <ele>365.4</ele>
        <time>2022-10-02T08:07:38Z</time>
      </trkpt>
      <trkpt lat="46.0109" lon="1.07025">
        <ele>365.7</ele>
        <time>2022-10-02T08:07:39Z</time>
      </trkpt>
      <trkpt lat="46.01094" lon="1.07022">
        <ele>366</ele>
        <time>2022-10-02T08:07:40Z</time>
      </trkpt>
      <trkpt lat="46.01097" lon="1.07014">
        <ele>366.4</ele>
        <time>2022-10-02T08:07:41Z</time>
      </trkpt>
      <trkpt lat="46.01099" lon="1.07009">
        <ele>366.8</ele>
        <time>2022-10-02T08:07:42Z</time>
      </trkpt>
      <trkpt lat="46.01101" lon="1.07004">
        <ele>367.1</ele>
        <time>2022-10-02T08:07:43Z</time>
      </trkpt>
      <trkpt lat="46.01104" lon="1.06998">
        <ele>367.5</ele>
        <time>2022-10-02T08:07:44Z</time>
      </trkpt>
      <trkpt lat="46.01106" lon="1.06992">
        <ele>367.8</ele>
        <time>2022-10-02T08:07:45Z</time>
      </trkpt>
      <trkpt lat="46.01108" lon="1.06986">
        <ele>368.1</ele>
        <time>2022-10-02T08:07:46Z</time>
      </trkpt>
      <trkpt lat="46.01108" lon="1.0698">
        <ele>368.4</ele>
        <time>2022-10-02T08:07:47Z</time>
      </trkpt>
      <trkpt lat="46.01113" lon="1.06974">
        <ele>368.7</ele>
        <time>2022-10-02T08:07:48Z</time>
      </trkpt>
      <trkpt lat="46.01115" lon="1.06964">
        <ele>369</ele>
        <time>2022-10-02T08:07:49Z</time>
      </trkpt>
      <trkpt lat="46.01119" lon="1.06959">
        <ele>369.2</ele>
        <time>2022-10-02T08:07:50Z</time>
      </trkpt>
      <trkpt lat="46.01123" lon="1.06955">
        <ele>369.2</ele>
        <time>2022-10-02T08:07:51Z</time>
      </trkpt>
      <trkpt lat="46.01125" lon="1.06947">
        <ele>369.3</ele>
        <time>2022-10-02T08:07:52Z</time>
      </trkpt>
      <trkpt lat="46.0113" lon="1.06942">
        <ele>369.4</ele>
        <time>2022-10-02T08:07:53Z</time>
      </trkpt>
      <trkpt lat="46.01133" lon="1.06937">
        <ele>369.4</ele>
        <time>2022-10-02T08:07:54Z</time>
      </trkpt>
      <trkpt lat="46.01139" lon="1.0693">
        <ele>369.4</ele>
        <time>2022-10-02T08:07:55Z</time>
      </trkpt>
      <trkpt lat="46.01143" lon="1.06925">
        <ele>369.3</ele>
        <time>2022-10-02T08:07:56Z</time>
      </trkpt>
      <trkpt lat="46.01148" lon="1.0692">
        <ele>369.1</ele>
        <time>2022-10-02T08:07:57Z</time>
      </trkpt>
      <trkpt lat="46.01153" lon="1.06911">
        <ele>368.9</ele>
        <time>2022-10-02T08:07:58Z</time>
      </trkpt>
      <trkpt lat="46.01158" lon="1.06909">
        <ele>368.7</ele>
        <time>2022-10-02T08:07:59Z</time>
      </trkpt>
      <trkpt lat="46.01157" lon="1.069">
        <ele>368.4</ele>
        <time>2022-10-02T08:08:00Z</time>
      </trkpt>
      <trkpt lat="46.0116" lon="1.06892">
        <ele>368</ele>
        <time>2022-10-02T08:08:01Z</time>
      </trkpt>
      <trkpt lat="46.01159" lon="1.06884">
        <ele>367.7</ele>
        <time>2022-10-02T08:08:02Z</time>
      </trkpt>
      <trkpt lat="46.01159" lon="1.06877">
        <ele>367.3</ele>
        <time>2022-10-02T08:08:03Z</time>
      </trkpt>
      <trkpt lat="46.01159" lon="1.06871">
        <ele>366.9</ele>
        <time>2022-10-02T08:08:04Z</time>
      </trkpt>
      <trkpt lat="46.01158" lon="1.06862">
        <ele>366.4</ele>
        <time>2022-10-02T08:08:05Z</time>
      </trkpt>
      <trkpt lat="46.01156" lon="1.06853">
        <ele>365.8</ele>
        <time>2022-10-02T08:08:06Z</time>
      </trkpt>
      <trkpt lat="46.01152" lon="1.06841">
        <ele>365</ele>
        <time>2022-10-02T08:08:07Z</time>
      </trkpt>
      <trkpt lat="46.01148" lon="1.0683">
        <ele>364.2</ele>
        <time>2022-10-02T08:08:08Z</time>
      </trkpt>
      <trkpt lat="46.01146" lon="1.06821">
        <ele>363.5</ele>
        <time>2022-10-02T08:08:09Z</time>
      </trkpt>
      <trkpt lat="46.01143" lon="1.06811">
        <ele>363</ele>
        <time>2022-10-02T08:08:10Z</time>
      </trkpt>
      <trkpt lat="46.0114" lon="1.06801">
        <ele>362.5</ele>
        <time>2022-10-02T08:08:11Z</time>
      </trkpt>
      <trkpt lat="46.01138" lon="1.06792">
        <ele>362.1</ele>
        <time>2022-10-02T08:08:12Z</time>
      </trkpt>
      <trkpt lat="46.01135" lon="1.06783">
        <ele>361.7</ele>
        <time>2022-10-02T08:08:13Z</time>
      </trkpt>
      <trkpt lat="46.01133" lon="1.06773">
        <ele>361.4</ele>
        <time>2022-10-02T08:08:14Z</time>
      </trkpt>
      <trkpt lat="46.0113" lon="1.06764">
        <ele>361</ele>
        <time>2022-10-02T08:08:15Z</time>
      </trkpt>
      <trkpt lat="46.01127" lon="1.06755">
        <ele>360.8</ele>
        <time>2022-10-02T08:08:16Z</time>
      </trkpt>
      <trkpt lat="46.01126" lon="1.06748">
        <ele>360.7</ele>
        <time>2022-10-02T08:08:17Z</time>
      </trkpt>
      <trkpt lat="46.01125" lon="1.06742">
        <ele>360.6</ele>
        <time>2022-10-02T08:08:18Z</time>
      </trkpt>
      <trkpt lat="46.01126" lon="1.06735">
        <ele>360.6</ele>
        <time>2022-10-02T08:08:19Z</time>
      </trkpt>
      <trkpt lat="46.01123" lon="1.06726">
        <ele>360.6</ele>
        <time>2022-10-02T08:08:20Z</time>
      </trkpt>
      <trkpt lat="46.0112" lon="1.06717">
        <ele>360.8</ele>
        <time>2022-10-02T08:08:21Z</time>
      </trkpt>
      <trkpt lat="46.01117" lon="1.06708">
        <ele>361</ele>
        <time>2022-10-02T08:08:22Z</time>
      </trkpt>
      <trkpt lat="46.01115" lon="1.067">
        <ele>361.2</ele>
        <time>2022-10-02T08:08:23Z</time>
      </trkpt>
      <trkpt lat="46.01114" lon="1.06693">
        <ele>361.5</ele>
        <time>2022-10-02T08:08:24Z</time>
      </trkpt>
      <trkpt lat="46.01113" lon="1.06685">
        <ele>361.8</ele>
        <time>2022-10-02T08:08:25Z</time>
      </trkpt>
      <trkpt lat="46.01112" lon="1.06679">
        <ele>362.1</ele>
        <time>2022-10-02T08:08:26Z</time>
      </trkpt>
      <trkpt lat="46.0111" lon="1.06671">
        <ele>362.5</ele>
        <time>2022-10-02T08:08:27Z</time>
      </trkpt>
      <trkpt lat="46.01108" lon="1.06666">
        <ele>362.9</ele>
        <time>2022-10-02T08:08:28Z</time>
      </trkpt>
      <trkpt lat="46.01108" lon="1.06658">
        <ele>363.3</ele>
        <time>2022-10-02T08:08:29Z</time>
      </trkpt>
      <trkpt lat="46.01103" lon="1.06651">
        <ele>363.7</ele>
        <time>2022-10-02T08:08:30Z</time>
      </trkpt>
      <trkpt lat="46.01103" lon="1.06645">
        <ele>364</ele>
        <time>2022-10-02T08:08:31Z</time>
      </trkpt>
      <trkpt lat="46.01101" lon="1.06638">
        <ele>364.2</ele>
        <time>2022-10-02T08:08:32Z</time>
      </trkpt>
      <trkpt lat="46.011" lon="1.06632">
        <ele>364.3</ele>
        <time>2022-10-02T08:08:33Z</time>
      </trkpt>
      <trkpt lat="46.01098" lon="1.06626">
        <ele>364.4</ele>
        <time>2022-10-02T08:08:34Z</time>
      </trkpt>
      <trkpt lat="46.01095" lon="1.06618">
        <ele>364.3</ele>
        <time>2022-10-02T08:08:35Z</time>
      </trkpt>
      <trkpt lat="46.01093" lon="1.06609">
        <ele>364.1</ele>
        <time>2022-10-02T08:08:36Z</time>
      </trkpt>
      <trkpt lat="46.01091" lon="1.066">
        <ele>363.9</ele>
        <time>2022-10-02T08:08:37Z</time>
      </trkpt>
      <trkpt lat="46.01088" lon="1.06592">
        <ele>363.5</ele>
        <time>2022-10-02T08:08:38Z</time>
      </trkpt>
      <trkpt lat="46.01085" lon="1.06583">
        <ele>363.1</ele>
        <time>2022-10-02T08:08:39Z</time>
      </trkpt>
      <trkpt lat="46.01082" lon="1.06574">
        <ele>362.8</ele>
        <time>2022-10-02T08:08:40Z</time>
      </trkpt>
      <trkpt lat="46.01079" lon="1.06565">
        <ele>362.4</ele>
        <time>2022-10-02T08:08:41Z</time>
      </trkpt>
      <trkpt lat="46.01077" lon="1.06555">
        <ele>362</ele>
        <time>2022-10-02T08:08:42Z</time>
      </trkpt>
      <trkpt lat="46.01074" lon="1.06546">
        <ele>361.7</ele>
        <time>2022-10-02T08:08:43Z</time>
      </trkpt>
      <trkpt lat="46.01073" lon="1.06537">
        <ele>361.4</ele>
        <time>2022-10-02T08:08:44Z</time>
      </trkpt>
      <trkpt lat="46.01071" lon="1.06528">
        <ele>361</ele>
        <time>2022-10-02T08:08:45Z</time>
      </trkpt>
      <trkpt lat="46.0107" lon="1.06518">
        <ele>360.6</ele>
        <time>2022-10-02T08:08:46Z</time>
      </trkpt>
      <trkpt lat="46.01069" lon="1.06509">
        <ele>360.3</ele>
        <time>2022-10-02T08:08:47Z</time>
      </trkpt>
      <trkpt lat="46.01069" lon="1.06487">
        <ele>359.5</ele>
        <time>2022-10-02T08:08:48Z</time>
      </trkpt>
      <trkpt lat="46.01071" lon="1.06476">
        <ele>359.2</ele>
        <time>2022-10-02T08:08:49Z</time>
      </trkpt>
      <trkpt lat="46.01071" lon="1.06466">
        <ele>358.9</ele>
        <time>2022-10-02T08:08:50Z</time>
      </trkpt>
      <trkpt lat="46.01072" lon="1.06455">
        <ele>358.6</ele>
        <time>2022-10-02T08:08:51Z</time>
      </trkpt>
      <trkpt lat="46.01074" lon="1.06447">
        <ele>358.4</ele>
        <time>2022-10-02T08:08:52Z</time>
      </trkpt>
      <trkpt lat="46.01075" lon="1.06438">
        <ele>358.1</ele>
        <time>2022-10-02T08:08:53Z</time>
      </trkpt>
      <trkpt lat="46.01076" lon="1.06428">
        <ele>357.8</ele>
        <time>2022-10-02T08:08:54Z</time>
      </trkpt>
      <trkpt lat="46.01078" lon="1.06418">
        <ele>357.4</ele>
        <time>2022-10-02T08:08:55Z</time>
      </trkpt>
      <trkpt lat="46.01081" lon="1.06411">
        <ele>357.1</ele>
        <time>2022-10-02T08:08:56Z</time>
      </trkpt>
      <trkpt lat="46.01082" lon="1.06402">
        <ele>356.8</ele>
        <time>2022-10-02T08:08:57Z</time>
      </trkpt>
      <trkpt lat="46.01083" lon="1.06391">
        <ele>356.4</ele>
        <time>2022-10-02T08:08:58Z</time>
      </trkpt>
      <trkpt lat="46.01086" lon="1.06381">
        <ele>356.2</ele>
        <time>2022-10-02T08:08:59Z</time>
      </trkpt>
      <trkpt lat="46.01088" lon="1.06371">
        <ele>356</ele>
        <time>2022-10-02T08:09:00Z</time>
      </trkpt>
      <trkpt lat="46.01089" lon="1.06364">
        <ele>355.9</ele>
        <time>2022-10-02T08:09:01Z</time>
      </trkpt>
      <trkpt lat="46.01093" lon="1.06356">
        <ele>355.7</ele>
        <time>2022-10-02T08:09:02Z</time>
      </trkpt>
      <trkpt lat="46.01095" lon="1.06351">
        <ele>355.5</ele>
        <time>2022-10-02T08:09:03Z</time>
      </trkpt>
      <trkpt lat="46.01099" lon="1.06343">
        <ele>355.3</ele>
        <time>2022-10-02T08:09:04Z</time>
      </trkpt>
      <trkpt lat="46.01102" lon="1.06334">
        <ele>355.1</ele>
        <time>2022-10-02T08:09:05Z</time>
      </trkpt>
      <trkpt lat="46.01103" lon="1.06326">
        <ele>355</ele>
        <time>2022-10-02T08:09:06Z</time>
      </trkpt>
      <trkpt lat="46.01105" lon="1.06317">
        <ele>354.8</ele>
        <time>2022-10-02T08:09:07Z</time>
      </trkpt>
      <trkpt lat="46.01108" lon="1.06308">
        <ele>354.8</ele>
        <time>2022-10-02T08:09:08Z</time>
      </trkpt>
      <trkpt lat="46.0111" lon="1.063">
        <ele>354.7</ele>
        <time>2022-10-02T08:09:09Z</time>
      </trkpt>
      <trkpt lat="46.01112" lon="1.06291">
        <ele>354.8</ele>
        <time>2022-10-02T08:09:10Z</time>
      </trkpt>
      <trkpt lat="46.01115" lon="1.06283">
        <ele>354.8</ele>
        <time>2022-10-02T08:09:11Z</time>
      </trkpt>
      <trkpt lat="46.01117" lon="1.06276">
        <ele>354.9</ele>
        <time>2022-10-02T08:09:12Z</time>
      </trkpt>
      <trkpt lat="46.01119" lon="1.06268">
        <ele>355</ele>
        <time>2022-10-02T08:09:13Z</time>
      </trkpt>
      <trkpt lat="46.01121" lon="1.0626">
        <ele>355.2</ele>
        <time>2022-10-02T08:09:14Z</time>
      </trkpt>
      <trkpt lat="46.01122" lon="1.06253">
        <ele>355.3</ele>
        <time>2022-10-02T08:09:15Z</time>
      </trkpt>
      <trkpt lat="46.01124" lon="1.06245">
        <ele>355.5</ele>
        <time>2022-10-02T08:09:16Z</time>
      </trkpt>
      <trkpt lat="46.01123" lon="1.06237">
        <ele>355.7</ele>
        <time>2022-10-02T08:09:17Z</time>
      </trkpt>
      <trkpt lat="46.01126" lon="1.0623">
        <ele>355.9</ele>
        <time>2022-10-02T08:09:18Z</time>
      </trkpt>
      <trkpt lat="46.01128" lon="1.06222">
        <ele>356.2</ele>
        <time>2022-10-02T08:09:19Z</time>
      </trkpt>
      <trkpt lat="46.0113" lon="1.06215">
        <ele>356.5</ele>
        <time>2022-10-02T08:09:20Z</time>
      </trkpt>
      <trkpt lat="46.01133" lon="1.06208">
        <ele>356.8</ele>
        <time>2022-10-02T08:09:21Z</time>
      </trkpt>
      <trkpt lat="46.01134" lon="1.06199">
        <ele>357.2</ele>
        <time>2022-10-02T08:09:22Z</time>
      </trkpt>
      <trkpt lat="46.01137" lon="1.06193">
        <ele>357.5</ele>
        <time>2022-10-02T08:09:23Z</time>
      </trkpt>
      <trkpt lat="46.01139" lon="1.06186">
        <ele>357.9</ele>
        <time>2022-10-02T08:09:24Z</time>
      </trkpt>
      <trkpt lat="46.01141" lon="1.0618">
        <ele>358.2</ele>
        <time>2022-10-02T08:09:25Z</time>
      </trkpt>
      <trkpt lat="46.01142" lon="1.06173">
        <ele>358.6</ele>
        <time>2022-10-02T08:09:26Z</time>
      </trkpt>
      <trkpt lat="46.01145" lon="1.06166">
        <ele>359</ele>
        <time>2022-10-02T08:09:27Z</time>
      </trkpt>
      <trkpt lat="46.01147" lon="1.0616">
        <ele>359.2</ele>
        <time>2022-10-02T08:09:28Z</time>
      </trkpt>
      <trkpt lat="46.01149" lon="1.06153">
        <ele>359.5</ele>
        <time>2022-10-02T08:09:29Z</time>
      </trkpt>
      <trkpt lat="46.01152" lon="1.06147">
        <ele>359.7</ele>
        <time>2022-10-02T08:09:30Z</time>
      </trkpt>
      <trkpt lat="46.01153" lon="1.06138">
        <ele>359.9</ele>
        <time>2022-10-02T08:09:31Z</time>
      </trkpt>
      <trkpt lat="46.01153" lon="1.06133">
        <ele>359.9</ele>
        <time>2022-10-02T08:09:32Z</time>
      </trkpt>
      <trkpt lat="46.01156" lon="1.06126">
        <ele>360</ele>
        <time>2022-10-02T08:09:33Z</time>
      </trkpt>
      <trkpt lat="46.01156" lon="1.06119">
        <ele>360</ele>
        <time>2022-10-02T08:09:34Z</time>
      </trkpt>
      <trkpt lat="46.01159" lon="1.06112">
        <ele>360</ele>
        <time>2022-10-02T08:09:35Z</time>
      </trkpt>
      <trkpt lat="46.01163" lon="1.06107">
        <ele>359.8</ele>
        <time>2022-10-02T08:09:36Z</time>
      </trkpt>
      <trkpt lat="46.01165" lon="1.06097">
        <ele>359.5</ele>
        <time>2022-10-02T08:09:37Z</time>
      </trkpt>
      <trkpt lat="46.01171" lon="1.06092">
        <ele>359.2</ele>
        <time>2022-10-02T08:09:38Z</time>
      </trkpt>
      <trkpt lat="46.01174" lon="1.06083">
        <ele>358.8</ele>
        <time>2022-10-02T08:09:39Z</time>
      </trkpt>
      <trkpt lat="46.01177" lon="1.06074">
        <ele>358.4</ele>
        <time>2022-10-02T08:09:40Z</time>
      </trkpt>
      <trkpt lat="46.01181" lon="1.06066">
        <ele>358</ele>
        <time>2022-10-02T08:09:41Z</time>
      </trkpt>
      <trkpt lat="46.01184" lon="1.06056">
        <ele>357.5</ele>
        <time>2022-10-02T08:09:42Z</time>
      </trkpt>
      <trkpt lat="46.01188" lon="1.06046">
        <ele>357</ele>
        <time>2022-10-02T08:09:43Z</time>
      </trkpt>
      <trkpt lat="46.01192" lon="1.06035">
        <ele>356.6</ele>
        <time>2022-10-02T08:09:44Z</time>
      </trkpt>
      <trkpt lat="46.01195" lon="1.06026">
        <ele>356.2</ele>
        <time>2022-10-02T08:09:45Z</time>
      </trkpt>
      <trkpt lat="46.01198" lon="1.06017">
        <ele>355.9</ele>
        <time>2022-10-02T08:09:46Z</time>
      </trkpt>
      <trkpt lat="46.01202" lon="1.06008">
        <ele>355.5</ele>
        <time>2022-10-02T08:09:47Z</time>
      </trkpt>
      <trkpt lat="46.01204" lon="1.05998">
        <ele>355.2</ele>
        <time>2022-10-02T08:09:48Z</time>
      </trkpt>
      <trkpt lat="46.01207" lon="1.05989">
        <ele>355</ele>
        <time>2022-10-02T08:09:49Z</time>
      </trkpt>
      <trkpt lat="46.01209" lon="1.05978">
        <ele>354.8</ele>
        <time>2022-10-02T08:09:50Z</time>
      </trkpt>
      <trkpt lat="46.0121" lon="1.05969">
        <ele>354.6</ele>
        <time>2022-10-02T08:09:51Z</time>
      </trkpt>
      <trkpt lat="46.01211" lon="1.05959">
        <ele>354.5</ele>
        <time>2022-10-02T08:09:52Z</time>
      </trkpt>
      <trkpt lat="46.01212" lon="1.0595">
        <ele>354.4</ele>
        <time>2022-10-02T08:09:53Z</time>
      </trkpt>
      <trkpt lat="46.01214" lon="1.05941">
        <ele>354.3</ele>
        <time>2022-10-02T08:09:54Z</time>
      </trkpt>
      <trkpt lat="46.01218" lon="1.05932">
        <ele>354.2</ele>
        <time>2022-10-02T08:09:55Z</time>
      </trkpt>
      <trkpt lat="46.0122" lon="1.05924">
        <ele>354.1</ele>
        <time>2022-10-02T08:09:56Z</time>
      </trkpt>
      <trkpt lat="46.01223" lon="1.05917">
        <ele>354</ele>
        <time>2022-10-02T08:09:57Z</time>
      </trkpt>
      <trkpt lat="46.01225" lon="1.05908">
        <ele>354</ele>
        <time>2022-10-02T08:09:58Z</time>
      </trkpt>
      <trkpt lat="46.01226" lon="1.05899">
        <ele>353.9</ele>
        <time>2022-10-02T08:09:59Z</time>
      </trkpt>
      <trkpt lat="46.01227" lon="1.05892">
        <ele>353.9</ele>
        <time>2022-10-02T08:10:00Z</time>
      </trkpt>
      <trkpt lat="46.01229" lon="1.05885">
        <ele>353.8</ele>
        <time>2022-10-02T08:10:01Z</time>
      </trkpt>
      <trkpt lat="46.01232" lon="1.05875">
        <ele>353.8</ele>
        <time>2022-10-02T08:10:02Z</time>
      </trkpt>
      <trkpt lat="46.01231" lon="1.05865">
        <ele>353.8</ele>
        <time>2022-10-02T08:10:03Z</time>
      </trkpt>
      <trkpt lat="46.01234" lon="1.05857">
        <ele>353.8</ele>
        <time>2022-10-02T08:10:04Z</time>
      </trkpt>
      <trkpt lat="46.01237" lon="1.05848">
        <ele>353.8</ele>
        <time>2022-10-02T08:10:05Z</time>
      </trkpt>
      <trkpt lat="46.01241" lon="1.05842">
        <ele>353.8</ele>
        <time>2022-10-02T08:10:06Z</time>
      </trkpt>
      <trkpt lat="46.01243" lon="1.05833">
        <ele>353.9</ele>
        <time>2022-10-02T08:10:07Z</time>
      </trkpt>
      <trkpt lat="46.01247" lon="1.05826">
        <ele>354</ele>
        <time>2022-10-02T08:10:08Z</time>
      </trkpt>
      <trkpt lat="46.0125" lon="1.05821">
        <ele>354.1</ele>
        <time>2022-10-02T08:10:09Z</time>
      </trkpt>
      <trkpt lat="46.01253" lon="1.05814">
        <ele>354.2</ele>
        <time>2022-10-02T08:10:10Z</time>
      </trkpt>
      <trkpt lat="46.01255" lon="1.05807">
        <ele>354.3</ele>
        <time>2022-10-02T08:10:11Z</time>
      </trkpt>
      <trkpt lat="46.01258" lon="1.05798">
        <ele>354.5</ele>
        <time>2022-10-02T08:10:12Z</time>
      </trkpt>
      <trkpt lat="46.01259" lon="1.05791">
        <ele>354.7</ele>
        <time>2022-10-02T08:10:13Z</time>
      </trkpt>
      <trkpt lat="46.01261" lon="1.05784">
        <ele>354.9</ele>
        <time>2022-10-02T08:10:14Z</time>
      </trkpt>
      <trkpt lat="46.01263" lon="1.05776">
        <ele>355.2</ele>
        <time>2022-10-02T08:10:15Z</time>
      </trkpt>
      <trkpt lat="46.01265" lon="1.05769">
        <ele>355.5</ele>
        <time>2022-10-02T08:10:16Z</time>
      </trkpt>
      <trkpt lat="46.01267" lon="1.05762">
        <ele>355.7</ele>
        <time>2022-10-02T08:10:17Z</time>
      </trkpt>
      <trkpt lat="46.01267" lon="1.05755">
        <ele>356</ele>
        <time>2022-10-02T08:10:18Z</time>
      </trkpt>
      <trkpt lat="46.01268" lon="1.05747">
        <ele>356.4</ele>
        <time>2022-10-02T08:10:19Z</time>
      </trkpt>
      <trkpt lat="46.01269" lon="1.0574">
        <ele>356.7</ele>
        <time>2022-10-02T08:10:20Z</time>
      </trkpt>
      <trkpt lat="46.01272" lon="1.05734">
        <ele>357</ele>
        <time>2022-10-02T08:10:21Z</time>
      </trkpt>
      <trkpt lat="46.01273" lon="1.0573">
        <ele>357.3</ele>
        <time>2022-10-02T08:10:22Z</time>
      </trkpt>
      <trkpt lat="46.01274" lon="1.05726">
        <ele>357.5</ele>
        <time>2022-10-02T08:10:23Z</time>
      </trkpt>
      <trkpt lat="46.01274" lon="1.05723">
        <ele>357.7</ele>
        <time>2022-10-02T08:10:24Z</time>
      </trkpt>
      <trkpt lat="46.01275" lon="1.05721">
        <ele>357.9</ele>
        <time>2022-10-02T08:10:25Z</time>
      </trkpt>
      <trkpt lat="46.01275" lon="1.05719">
        <ele>357.9</ele>
        <time>2022-10-02T08:10:26Z</time>
      </trkpt>
      <trkpt lat="46.01276" lon="1.05718">
        <ele>358.1</ele>
        <time>2022-10-02T08:10:27Z</time>
      </trkpt>
      <trkpt lat="46.01277" lon="1.05718">
        <ele>358.1</ele>
        <time>2022-10-02T08:10:28Z</time>
      </trkpt>
      <trkpt lat="46.01277" lon="1.0571">
        <ele>358.6</ele>
        <time>2022-10-02T08:11:00Z</time>
      </trkpt>
      <trkpt lat="46.01277" lon="1.05706">
        <ele>358.8</ele>
        <time>2022-10-02T08:11:01Z</time>
      </trkpt>
      <trkpt lat="46.01277" lon="1.05701">
        <ele>358.9</ele>
        <time>2022-10-02T08:11:02Z</time>
      </trkpt>
      <trkpt lat="46.01276" lon="1.05696">
        <ele>359.1</ele>
        <time>2022-10-02T08:11:03Z</time>
      </trkpt>
      <trkpt lat="46.01275" lon="1.0569">
        <ele>359.2</ele>
        <time>2022-10-02T08:11:04Z</time>
      </trkpt>
      <trkpt lat="46.01274" lon="1.05683">
        <ele>359.4</ele>
        <time>2022-10-02T08:11:05Z</time>
      </trkpt>
      <trkpt lat="46.01272" lon="1.05675">
        <ele>359.6</ele>
        <time>2022-10-02T08:11:06Z</time>
      </trkpt>
      <trkpt lat="46.01272" lon="1.05669">
        <ele>359.7</ele>
        <time>2022-10-02T08:11:07Z</time>
      </trkpt>
      <trkpt lat="46.01271" lon="1.05662">
        <ele>359.9</ele>
        <time>2022-10-02T08:11:08Z</time>
      </trkpt>
      <trkpt lat="46.0127" lon="1.05655">
        <ele>360.1</ele>
        <time>2022-10-02T08:11:09Z</time>
      </trkpt>
      <trkpt lat="46.0127" lon="1.05651">
        <ele>360.4</ele>
        <time>2022-10-02T08:11:10Z</time>
      </trkpt>
      <trkpt lat="46.01268" lon="1.05645">
        <ele>360.7</ele>
        <time>2022-10-02T08:11:11Z</time>
      </trkpt>
      <trkpt lat="46.01268" lon="1.05639">
        <ele>361</ele>
        <time>2022-10-02T08:11:12Z</time>
      </trkpt>
      <trkpt lat="46.01267" lon="1.05632">
        <ele>361.5</ele>
        <time>2022-10-02T08:11:13Z</time>
      </trkpt>
      <trkpt lat="46.01265" lon="1.05624">
        <ele>362</ele>
        <time>2022-10-02T08:11:14Z</time>
      </trkpt>
      <trkpt lat="46.01263" lon="1.05616">
        <ele>362.5</ele>
        <time>2022-10-02T08:11:15Z</time>
      </trkpt>
      <trkpt lat="46.01263" lon="1.05611">
        <ele>362.8</ele>
        <time>2022-10-02T08:11:16Z</time>
      </trkpt>
      <trkpt lat="46.01262" lon="1.05605">
        <ele>363.2</ele>
        <time>2022-10-02T08:11:17Z</time>
      </trkpt>
      <trkpt lat="46.01261" lon="1.05598">
        <ele>363.5</ele>
        <time>2022-10-02T08:11:18Z</time>
      </trkpt>
      <trkpt lat="46.0126" lon="1.0559">
        <ele>363.9</ele>
        <time>2022-10-02T08:11:19Z</time>
      </trkpt>
      <trkpt lat="46.0126" lon="1.05584">
        <ele>364.1</ele>
        <time>2022-10-02T08:11:20Z</time>
      </trkpt>
      <trkpt lat="46.01259" lon="1.05578">
        <ele>364.3</ele>
        <time>2022-10-02T08:11:21Z</time>
      </trkpt>
      <trkpt lat="46.0126" lon="1.05569">
        <ele>364.5</ele>
        <time>2022-10-02T08:11:22Z</time>
      </trkpt>
      <trkpt lat="46.01259" lon="1.05562">
        <ele>364.6</ele>
        <time>2022-10-02T08:11:23Z</time>
      </trkpt>
      <trkpt lat="46.01261" lon="1.05556">
        <ele>364.8</ele>
        <time>2022-10-02T08:11:24Z</time>
      </trkpt>
      <trkpt lat="46.0126" lon="1.05547">
        <ele>364.9</ele>
        <time>2022-10-02T08:11:25Z</time>
      </trkpt>
      <trkpt lat="46.01258" lon="1.05538">
        <ele>365</ele>
        <time>2022-10-02T08:11:26Z</time>
      </trkpt>
      <trkpt lat="46.01257" lon="1.05529">
        <ele>365.1</ele>
        <time>2022-10-02T08:11:27Z</time>
      </trkpt>
      <trkpt lat="46.01256" lon="1.05521">
        <ele>365.3</ele>
        <time>2022-10-02T08:11:28Z</time>
      </trkpt>
      <trkpt lat="46.01254" lon="1.05514">
        <ele>365.4</ele>
        <time>2022-10-02T08:11:29Z</time>
      </trkpt>
      <trkpt lat="46.01252" lon="1.05507">
        <ele>365.5</ele>
        <time>2022-10-02T08:11:30Z</time>
      </trkpt>
      <trkpt lat="46.01251" lon="1.055">
        <ele>365.6</ele>
        <time>2022-10-02T08:11:31Z</time>
      </trkpt>
      <trkpt lat="46.01248" lon="1.05493">
        <ele>365.7</ele>
        <time>2022-10-02T08:11:32Z</time>
      </trkpt>
      <trkpt lat="46.01246" lon="1.05485">
        <ele>365.8</ele>
        <time>2022-10-02T08:11:33Z</time>
      </trkpt>
      <trkpt lat="46.01244" lon="1.05477">
        <ele>366</ele>
        <time>2022-10-02T08:11:34Z</time>
      </trkpt>
      <trkpt lat="46.01242" lon="1.0547">
        <ele>366.1</ele>
        <time>2022-10-02T08:11:35Z</time>
      </trkpt>
      <trkpt lat="46.0124" lon="1.05462">
        <ele>366.2</ele>
        <time>2022-10-02T08:11:36Z</time>
      </trkpt>
      <trkpt lat="46.01238" lon="1.05455">
        <ele>366.2</ele>
        <time>2022-10-02T08:11:37Z</time>
      </trkpt>
      <trkpt lat="46.01237" lon="1.05448">
        <ele>366.3</ele>
        <time>2022-10-02T08:11:38Z</time>
      </trkpt>
      <trkpt lat="46.01236" lon="1.05442">
        <ele>366.3</ele>
        <time>2022-10-02T08:11:39Z</time>
      </trkpt>
      <trkpt lat="46.01234" lon="1.05434">
        <ele>366.3</ele>
        <time>2022-10-02T08:11:40Z</time>
      </trkpt>
      <trkpt lat="46.01234" lon="1.05428">
        <ele>366.2</ele>
        <time>2022-10-02T08:11:41Z</time>
      </trkpt>
      <trkpt lat="46.01232" lon="1.05421">
        <ele>366.2</ele>
        <time>2022-10-02T08:11:42Z</time>
      </trkpt>
      <trkpt lat="46.0123" lon="1.05413">
        <ele>366.2</ele>
        <time>2022-10-02T08:11:43Z</time>
      </trkpt>
      <trkpt lat="46.01229" lon="1.05405">
        <ele>366.2</ele>
        <time>2022-10-02T08:11:44Z</time>
      </trkpt>
      <trkpt lat="46.01227" lon="1.05397">
        <ele>366.3</ele>
        <time>2022-10-02T08:11:45Z</time>
      </trkpt>
      <trkpt lat="46.01225" lon="1.05389">
        <ele>366.4</ele>
        <time>2022-10-02T08:11:46Z</time>
      </trkpt>
      <trkpt lat="46.01223" lon="1.05383">
        <ele>366.5</ele>
        <time>2022-10-02T08:11:47Z</time>
      </trkpt>
      <trkpt lat="46.01219" lon="1.05376">
        <ele>366.7</ele>
        <time>2022-10-02T08:11:48Z</time>
      </trkpt>
      <trkpt lat="46.01215" lon="1.05371">
        <ele>366.9</ele>
        <time>2022-10-02T08:11:49Z</time>
      </trkpt>
      <trkpt lat="46.0121" lon="1.05365">
        <ele>367.1</ele>
        <time>2022-10-02T08:11:50Z</time>
      </trkpt>
      <trkpt lat="46.01206" lon="1.05357">
        <ele>367.4</ele>
        <time>2022-10-02T08:11:51Z</time>
      </trkpt>
      <trkpt lat="46.01202" lon="1.05351">
        <ele>367.7</ele>
        <time>2022-10-02T08:11:52Z</time>
      </trkpt>
      <trkpt lat="46.01198" lon="1.05346">
        <ele>367.9</ele>
        <time>2022-10-02T08:11:53Z</time>
      </trkpt>
      <trkpt lat="46.01196" lon="1.05342">
        <ele>368.1</ele>
        <time>2022-10-02T08:11:54Z</time>
      </trkpt>
      <trkpt lat="46.01191" lon="1.05338">
        <ele>368.4</ele>
        <time>2022-10-02T08:11:55Z</time>
      </trkpt>
      <trkpt lat="46.01186" lon="1.05333">
        <ele>368.7</ele>
        <time>2022-10-02T08:11:56Z</time>
      </trkpt>
      <trkpt lat="46.01181" lon="1.05327">
        <ele>369.1</ele>
        <time>2022-10-02T08:11:57Z</time>
      </trkpt>
      <trkpt lat="46.01176" lon="1.05322">
        <ele>369.4</ele>
        <time>2022-10-02T08:11:58Z</time>
      </trkpt>
      <trkpt lat="46.01172" lon="1.05321">
        <ele>369.7</ele>
        <time>2022-10-02T08:11:59Z</time>
      </trkpt>
      <trkpt lat="46.01169" lon="1.05316">
        <ele>370.1</ele>
        <time>2022-10-02T08:12:00Z</time>
      </trkpt>
      <trkpt lat="46.01165" lon="1.05312">
        <ele>370.6</ele>
        <time>2022-10-02T08:12:01Z</time>
      </trkpt>
      <trkpt lat="46.01162" lon="1.05306">
        <ele>371.1</ele>
        <time>2022-10-02T08:12:02Z</time>
      </trkpt>
      <trkpt lat="46.01159" lon="1.05302">
        <ele>371.6</ele>
        <time>2022-10-02T08:12:03Z</time>
      </trkpt>
      <trkpt lat="46.01157" lon="1.05297">
        <ele>372</ele>
        <time>2022-10-02T08:12:04Z</time>
      </trkpt>
      <trkpt lat="46.01155" lon="1.05293">
        <ele>372.4</ele>
        <time>2022-10-02T08:12:05Z</time>
      </trkpt>
      <trkpt lat="46.01154" lon="1.0529">
        <ele>372.7</ele>
        <time>2022-10-02T08:12:06Z</time>
      </trkpt>
      <trkpt lat="46.01152" lon="1.05284">
        <ele>373.3</ele>
        <time>2022-10-02T08:12:07Z</time>
      </trkpt>
      <trkpt lat="46.01151" lon="1.0528">
        <ele>373.5</ele>
        <time>2022-10-02T08:12:08Z</time>
      </trkpt>
      <trkpt lat="46.01151" lon="1.05276">
        <ele>373.7</ele>
        <time>2022-10-02T08:12:09Z</time>
      </trkpt>
      <trkpt lat="46.01152" lon="1.05271">
        <ele>373.9</ele>
        <time>2022-10-02T08:12:10Z</time>
      </trkpt>
      <trkpt lat="46.01155" lon="1.05267">
        <ele>374.1</ele>
        <time>2022-10-02T08:12:11Z</time>
      </trkpt>
      <trkpt lat="46.01158" lon="1.05263">
        <ele>374.3</ele>
        <time>2022-10-02T08:12:12Z</time>
      </trkpt>
      <trkpt lat="46.01161" lon="1.0526">
        <ele>374.6</ele>
        <time>2022-10-02T08:12:13Z</time>
      </trkpt>
      <trkpt lat="46.01163" lon="1.05256">
        <ele>374.8</ele>
        <time>2022-10-02T08:12:14Z</time>
      </trkpt>
      <trkpt lat="46.01165" lon="1.05252">
        <ele>375</ele>
        <time>2022-10-02T08:12:15Z</time>
      </trkpt>
      <trkpt lat="46.01167" lon="1.05248">
        <ele>375.3</ele>
        <time>2022-10-02T08:12:16Z</time>
      </trkpt>
      <trkpt lat="46.01169" lon="1.05244">
        <ele>375.5</ele>
        <time>2022-10-02T08:12:17Z</time>
      </trkpt>
      <trkpt lat="46.01171" lon="1.05239">
        <ele>375.9</ele>
        <time>2022-10-02T08:12:18Z</time>
      </trkpt>
      <trkpt lat="46.01173" lon="1.05235">
        <ele>376.2</ele>
        <time>2022-10-02T08:12:19Z</time>
      </trkpt>
      <trkpt lat="46.01175" lon="1.05231">
        <ele>376.6</ele>
        <time>2022-10-02T08:12:20Z</time>
      </trkpt>
      <trkpt lat="46.01178" lon="1.05229">
        <ele>377</ele>
        <time>2022-10-02T08:12:21Z</time>
      </trkpt>
      <trkpt lat="46.01182" lon="1.05228">
        <ele>377.5</ele>
        <time>2022-10-02T08:12:22Z</time>
      </trkpt>
      <trkpt lat="46.01185" lon="1.05228">
        <ele>377.9</ele>
        <time>2022-10-02T08:12:23Z</time>
      </trkpt>
      <trkpt lat="46.01188" lon="1.05228">
        <ele>378.3</ele>
        <time>2022-10-02T08:12:24Z</time>
      </trkpt>
      <trkpt lat="46.01192" lon="1.05228">
        <ele>378.7</ele>
        <time>2022-10-02T08:12:25Z</time>
      </trkpt>
      <trkpt lat="46.01196" lon="1.05229">
        <ele>379.1</ele>
        <time>2022-10-02T08:12:26Z</time>
      </trkpt>
      <trkpt lat="46.01199" lon="1.0523">
        <ele>379.4</ele>
        <time>2022-10-02T08:12:27Z</time>
      </trkpt>
      <trkpt lat="46.01202" lon="1.05231">
        <ele>379.7</ele>
        <time>2022-10-02T08:12:28Z</time>
      </trkpt>
      <trkpt lat="46.01205" lon="1.05232">
        <ele>380</ele>
        <time>2022-10-02T08:12:29Z</time>
      </trkpt>
      <trkpt lat="46.01208" lon="1.05233">
        <ele>380.3</ele>
        <time>2022-10-02T08:12:30Z</time>
      </trkpt>
      <trkpt lat="46.01211" lon="1.05234">
        <ele>380.6</ele>
        <time>2022-10-02T08:12:31Z</time>
      </trkpt>
      <trkpt lat="46.01213" lon="1.05234">
        <ele>380.9</ele>
        <time>2022-10-02T08:12:32Z</time>
      </trkpt>
      <trkpt lat="46.01216" lon="1.05234">
        <ele>381.2</ele>
        <time>2022-10-02T08:12:33Z</time>
      </trkpt>
      <trkpt lat="46.01219" lon="1.05235">
        <ele>381.5</ele>
        <time>2022-10-02T08:12:34Z</time>
      </trkpt>
      <trkpt lat="46.01221" lon="1.05236">
        <ele>381.8</ele>
        <time>2022-10-02T08:12:35Z</time>
      </trkpt>
      <trkpt lat="46.01224" lon="1.05237">
        <ele>382.2</ele>
        <time>2022-10-02T08:12:36Z</time>
      </trkpt>
      <trkpt lat="46.01227" lon="1.05238">
        <ele>382.5</ele>
        <time>2022-10-02T08:12:37Z</time>
      </trkpt>
      <trkpt lat="46.01228" lon="1.05238">
        <ele>382.8</ele>
        <time>2022-10-02T08:12:38Z</time>
      </trkpt>
      <trkpt lat="46.01231" lon="1.05239">
        <ele>383.1</ele>
        <time>2022-10-02T08:12:39Z</time>
      </trkpt>
      <trkpt lat="46.01232" lon="1.05239">
        <ele>383.3</ele>
        <time>2022-10-02T08:12:40Z</time>
      </trkpt>
      <trkpt lat="46.01233" lon="1.05239">
        <ele>383.5</ele>
        <time>2022-10-02T08:12:41Z</time>
      </trkpt>
      <trkpt lat="46.01235" lon="1.05239">
        <ele>383.8</ele>
        <time>2022-10-02T08:12:42Z</time>
      </trkpt>
      <trkpt lat="46.01237" lon="1.05238">
        <ele>384</ele>
        <time>2022-10-02T08:12:43Z</time>
      </trkpt>
      <trkpt lat="46.01238" lon="1.05238">
        <ele>384.2</ele>
        <time>2022-10-02T08:12:44Z</time>
      </trkpt>
      <trkpt lat="46.01239" lon="1.05238">
        <ele>384.4</ele>
        <time>2022-10-02T08:12:45Z</time>
      </trkpt>
      <trkpt lat="46.0124" lon="1.05238">
        <ele>384.6</ele>
        <time>2022-10-02T08:12:46Z</time>
      </trkpt>
      <trkpt lat="46.01241" lon="1.05239">
        <ele>384.8</ele>
        <time>2022-10-02T08:12:47Z</time>
      </trkpt>
      <trkpt lat="46.01243" lon="1.05239">
        <ele>385.1</ele>
        <time>2022-10-02T08:12:48Z</time>
      </trkpt>
      <trkpt lat="46.01245" lon="1.05238">
        <ele>385.5</ele>
        <time>2022-10-02T08:12:49Z</time>
      </trkpt>
      <trkpt lat="46.01246" lon="1.05238">
        <ele>385.6</ele>
        <time>2022-10-02T08:12:50Z</time>
      </trkpt>
      <trkpt lat="46.01255" lon="1.05238">
        <ele>387.3</ele>
        <time>2022-10-02T08:13:27Z</time>
      </trkpt>
      <trkpt lat="46.01257" lon="1.05239">
        <ele>387.7</ele>
        <time>2022-10-02T08:13:28Z</time>
      </trkpt>
      <trkpt lat="46.01259" lon="1.0524">
        <ele>388.2</ele>
        <time>2022-10-02T08:13:29Z</time>
      </trkpt>
      <trkpt lat="46.01262" lon="1.05239">
        <ele>388.7</ele>
        <time>2022-10-02T08:13:30Z</time>
      </trkpt>
      <trkpt lat="46.01264" lon="1.05238">
        <ele>389.2</ele>
        <time>2022-10-02T08:13:31Z</time>
      </trkpt>
      <trkpt lat="46.01267" lon="1.05238">
        <ele>389.6</ele>
        <time>2022-10-02T08:13:32Z</time>
      </trkpt>
      <trkpt lat="46.0127" lon="1.05238">
        <ele>390.1</ele>
        <time>2022-10-02T08:13:33Z</time>
      </trkpt>
      <trkpt lat="46.01274" lon="1.05238">
        <ele>390.6</ele>
        <time>2022-10-02T08:13:34Z</time>
      </trkpt>
      <trkpt lat="46.01277" lon="1.05238">
        <ele>391</ele>
        <time>2022-10-02T08:13:35Z</time>
      </trkpt>
      <trkpt lat="46.0128" lon="1.05238">
        <ele>391.4</ele>
        <time>2022-10-02T08:13:36Z</time>
      </trkpt>
      <trkpt lat="46.01286" lon="1.05238">
        <ele>392</ele>
        <time>2022-10-02T08:13:37Z</time>
      </trkpt>
      <trkpt lat="46.01289" lon="1.05238">
        <ele>392.4</ele>
        <time>2022-10-02T08:13:38Z</time>
      </trkpt>
      <trkpt lat="46.01293" lon="1.05236">
        <ele>392.9</ele>
        <time>2022-10-02T08:13:39Z</time>
      </trkpt>
      <trkpt lat="46.01297" lon="1.05234">
        <ele>393.2</ele>
        <time>2022-10-02T08:13:40Z</time>
      </trkpt>
      <trkpt lat="46.013" lon="1.05232">
        <ele>393.6</ele>
        <time>2022-10-02T08:13:41Z</time>
      </trkpt>
      <trkpt lat="46.01303" lon="1.05234">
        <ele>393.8</ele>
        <time>2022-10-02T08:13:42Z</time>
      </trkpt>
      <trkpt lat="46.01307" lon="1.05232">
        <ele>394.2</ele>
        <time>2022-10-02T08:13:43Z</time>
      </trkpt>
      <trkpt lat="46.01311" lon="1.0523">
        <ele>394.6</ele>
        <time>2022-10-02T08:13:44Z</time>
      </trkpt>
      <trkpt lat="46.01318" lon="1.05227">
        <ele>395.2</ele>
        <time>2022-10-02T08:13:45Z</time>
      </trkpt>
      <trkpt lat="46.01324" lon="1.05226">
        <ele>395.6</ele>
        <time>2022-10-02T08:13:46Z</time>
      </trkpt>
      <trkpt lat="46.01329" lon="1.05224">
        <ele>395.9</ele>
        <time>2022-10-02T08:13:47Z</time>
      </trkpt>
      <trkpt lat="46.01332" lon="1.05222">
        <ele>396.2</ele>
        <time>2022-10-02T08:13:48Z</time>
      </trkpt>
      <trkpt lat="46.01337" lon="1.05221">
        <ele>396.5</ele>
        <time>2022-10-02T08:13:49Z</time>
      </trkpt>
      <trkpt lat="46.01341" lon="1.0522">
        <ele>396.8</ele>
        <time>2022-10-02T08:13:50Z</time>
      </trkpt>
      <trkpt lat="46.01345" lon="1.05219">
        <ele>397.1</ele>
        <time>2022-10-02T08:13:51Z</time>
      </trkpt>
      <trkpt lat="46.01348" lon="1.05219">
        <ele>397.3</ele>
        <time>2022-10-02T08:13:52Z</time>
      </trkpt>
      <trkpt lat="46.01351" lon="1.05219">
        <ele>397.6</ele>
        <time>2022-10-02T08:13:53Z</time>
      </trkpt>
      <trkpt lat="46.01353" lon="1.05219">
        <ele>397.7</ele>
        <time>2022-10-02T08:13:54Z</time>
      </trkpt>
      <trkpt lat="46.01353" lon="1.05221">
        <ele>397.8</ele>
        <time>2022-10-02T08:13:55Z</time>
      </trkpt>
      <trkpt lat="46.01355" lon="1.05221">
        <ele>397.9</ele>
        <time>2022-10-02T08:13:56Z</time>
      </trkpt>
      <trkpt lat="46.01356" lon="1.05222">
        <ele>398</ele>
        <time>2022-10-02T08:13:57Z</time>
      </trkpt>
      <trkpt lat="46.01358" lon="1.05223">
        <ele>398.2</ele>
        <time>2022-10-02T08:13:59Z</time>
      </trkpt>
      <trkpt lat="46.0136" lon="1.05225">
        <ele>398.3</ele>
        <time>2022-10-02T08:14:00Z</time>
      </trkpt>
      <trkpt lat="46.01361" lon="1.05227">
        <ele>398.4</ele>
        <time>2022-10-02T08:14:01Z</time>
      </trkpt>
      <trkpt lat="46.01364" lon="1.05228">
        <ele>398.6</ele>
        <time>2022-10-02T08:14:02Z</time>
      </trkpt>
      <trkpt lat="46.01366" lon="1.05229">
        <ele>398.7</ele>
        <time>2022-10-02T08:14:03Z</time>
      </trkpt>
      <trkpt lat="46.01369" lon="1.0523">
        <ele>398.9</ele>
        <time>2022-10-02T08:14:04Z</time>
      </trkpt>
      <trkpt lat="46.01371" lon="1.0523">
        <ele>399</ele>
        <time>2022-10-02T08:14:05Z</time>
      </trkpt>
      <trkpt lat="46.01372" lon="1.05231">
        <ele>399.1</ele>
        <time>2022-10-02T08:14:06Z</time>
      </trkpt>
      <trkpt lat="46.01375" lon="1.05231">
        <ele>399.3</ele>
        <time>2022-10-02T08:14:07Z</time>
      </trkpt>
      <trkpt lat="46.01377" lon="1.05232">
        <ele>399.4</ele>
        <time>2022-10-02T08:14:08Z</time>
      </trkpt>
      <trkpt lat="46.01381" lon="1.05232">
        <ele>399.7</ele>
        <time>2022-10-02T08:14:09Z</time>
      </trkpt>
      <trkpt lat="46.01383" lon="1.05232">
        <ele>399.8</ele>
        <time>2022-10-02T08:14:10Z</time>
      </trkpt>
      <trkpt lat="46.01385" lon="1.05232">
        <ele>400</ele>
        <time>2022-10-02T08:14:11Z</time>
      </trkpt>
      <trkpt lat="46.01389" lon="1.05232">
        <ele>400.2</ele>
        <time>2022-10-02T08:14:12Z</time>
      </trkpt>
      <trkpt lat="46.01392" lon="1.05233">
        <ele>400.4</ele>
        <time>2022-10-02T08:14:13Z</time>
      </trkpt>
      <trkpt lat="46.01395" lon="1.05234">
        <ele>400.6</ele>
        <time>2022-10-02T08:14:14Z</time>
      </trkpt>
      <trkpt lat="46.01397" lon="1.05234">
        <ele>400.8</ele>
        <time>2022-10-02T08:14:15Z</time>
      </trkpt>
      <trkpt lat="46.014" lon="1.05235">
        <ele>401</ele>
        <time>2022-10-02T08:14:16Z</time>
      </trkpt>
      <trkpt lat="46.01402" lon="1.05237">
        <ele>401.2</ele>
        <time>2022-10-02T08:14:17Z</time>
      </trkpt>
      <trkpt lat="46.01405" lon="1.05238">
        <ele>401.4</ele>
        <time>2022-10-02T08:14:18Z</time>
      </trkpt>
      <trkpt lat="46.01407" lon="1.05239">
        <ele>401.5</ele>
        <time>2022-10-02T08:14:19Z</time>
      </trkpt>
      <trkpt lat="46.01409" lon="1.0524">
        <ele>401.7</ele>
        <time>2022-10-02T08:14:20Z</time>
      </trkpt>
      <trkpt lat="46.0141" lon="1.05242">
        <ele>401.8</ele>
        <time>2022-10-02T08:14:21Z</time>
      </trkpt>
      <trkpt lat="46.01412" lon="1.05243">
        <ele>401.9</ele>
        <time>2022-10-02T08:14:22Z</time>
      </trkpt>
      <trkpt lat="46.01414" lon="1.05246">
        <ele>402.1</ele>
        <time>2022-10-02T08:14:23Z</time>
      </trkpt>
      <trkpt lat="46.01415" lon="1.05249">
        <ele>402.3</ele>
        <time>2022-10-02T08:14:24Z</time>
      </trkpt>
      <trkpt lat="46.01417" lon="1.05251">
        <ele>402.4</ele>
        <time>2022-10-02T08:14:25Z</time>
      </trkpt>
      <trkpt lat="46.01421" lon="1.05253">
        <ele>402.7</ele>
        <time>2022-10-02T08:14:26Z</time>
      </trkpt>
      <trkpt lat="46.01426" lon="1.05256">
        <ele>403</ele>
        <time>2022-10-02T08:14:27Z</time>
      </trkpt>
      <trkpt lat="46.01435" lon="1.05261">
        <ele>403.6</ele>
        <time>2022-10-02T08:14:28Z</time>
      </trkpt>
      <trkpt lat="46.01439" lon="1.05265">
        <ele>403.9</ele>
        <time>2022-10-02T08:14:29Z</time>
      </trkpt>
      <trkpt lat="46.01446" lon="1.05268">
        <ele>404.3</ele>
        <time>2022-10-02T08:14:30Z</time>
      </trkpt>
      <trkpt lat="46.01451" lon="1.05271">
        <ele>404.7</ele>
        <time>2022-10-02T08:14:31Z</time>
      </trkpt>
      <trkpt lat="46.01456" lon="1.05274">
        <ele>405.2</ele>
        <time>2022-10-02T08:14:32Z</time>
      </trkpt>
      <trkpt lat="46.0146" lon="1.05278">
        <ele>405.5</ele>
        <time>2022-10-02T08:14:33Z</time>
      </trkpt>
      <trkpt lat="46.01463" lon="1.0528">
        <ele>405.9</ele>
        <time>2022-10-02T08:14:34Z</time>
      </trkpt>
      <trkpt lat="46.01468" lon="1.05282">
        <ele>406.4</ele>
        <time>2022-10-02T08:14:35Z</time>
      </trkpt>
      <trkpt lat="46.01472" lon="1.05283">
        <ele>406.9</ele>
        <time>2022-10-02T08:14:36Z</time>
      </trkpt>
      <trkpt lat="46.01476" lon="1.05285">
        <ele>407.4</ele>
        <time>2022-10-02T08:14:37Z</time>
      </trkpt>
      <trkpt lat="46.01479" lon="1.05287">
        <ele>407.7</ele>
        <time>2022-10-02T08:14:38Z</time>
      </trkpt>
      <trkpt lat="46.01483" lon="1.0529">
        <ele>408.3</ele>
        <time>2022-10-02T08:14:39Z</time>
      </trkpt>
      <trkpt lat="46.01486" lon="1.05292">
        <ele>408.7</ele>
        <time>2022-10-02T08:14:40Z</time>
      </trkpt>
      <trkpt lat="46.01489" lon="1.05292">
        <ele>409</ele>
        <time>2022-10-02T08:14:41Z</time>
      </trkpt>
      <trkpt lat="46.01497" lon="1.05295">
        <ele>409.7</ele>
        <time>2022-10-02T08:14:42Z</time>
      </trkpt>
      <trkpt lat="46.01501" lon="1.05297">
        <ele>410</ele>
        <time>2022-10-02T08:14:43Z</time>
      </trkpt>
      <trkpt lat="46.01506" lon="1.05299">
        <ele>410.4</ele>
        <time>2022-10-02T08:14:44Z</time>
      </trkpt>
      <trkpt lat="46.0151" lon="1.05301">
        <ele>410.7</ele>
        <time>2022-10-02T08:14:45Z</time>
      </trkpt>
      <trkpt lat="46.01513" lon="1.05302">
        <ele>411</ele>
        <time>2022-10-02T08:14:46Z</time>
      </trkpt>
      <trkpt lat="46.01518" lon="1.05305">
        <ele>411.4</ele>
        <time>2022-10-02T08:14:47Z</time>
      </trkpt>
      <trkpt lat="46.01521" lon="1.05305">
        <ele>411.7</ele>
        <time>2022-10-02T08:14:48Z</time>
      </trkpt>
      <trkpt lat="46.01525" lon="1.05306">
        <ele>412</ele>
        <time>2022-10-02T08:14:49Z</time>
      </trkpt>
      <trkpt lat="46.01528" lon="1.05309">
        <ele>412.3</ele>
        <time>2022-10-02T08:14:50Z</time>
      </trkpt>
      <trkpt lat="46.01531" lon="1.05311">
        <ele>412.6</ele>
        <time>2022-10-02T08:14:51Z</time>
      </trkpt>
      <trkpt lat="46.01534" lon="1.05314">
        <ele>412.8</ele>
        <time>2022-10-02T08:14:52Z</time>
      </trkpt>
      <trkpt lat="46.01538" lon="1.05316">
        <ele>413.2</ele>
        <time>2022-10-02T08:14:53Z</time>
      </trkpt>
      <trkpt lat="46.01542" lon="1.05318">
        <ele>413.5</ele>
        <time>2022-10-02T08:14:54Z</time>
      </trkpt>
      <trkpt lat="46.01547" lon="1.05319">
        <ele>413.9</ele>
        <time>2022-10-02T08:14:55Z</time>
      </trkpt>
      <trkpt lat="46.01551" lon="1.0532">
        <ele>414.2</ele>
        <time>2022-10-02T08:14:56Z</time>
      </trkpt>
      <trkpt lat="46.01556" lon="1.05322">
        <ele>414.5</ele>
        <time>2022-10-02T08:14:57Z</time>
      </trkpt>
      <trkpt lat="46.01561" lon="1.05325">
        <ele>414.8</ele>
        <time>2022-10-02T08:14:58Z</time>
      </trkpt>
      <trkpt lat="46.01565" lon="1.05327">
        <ele>415.1</ele>
        <time>2022-10-02T08:14:59Z</time>
      </trkpt>
      <trkpt lat="46.01569" lon="1.0533">
        <ele>415.4</ele>
        <time>2022-10-02T08:15:00Z</time>
      </trkpt>
      <trkpt lat="46.01572" lon="1.05333">
        <ele>415.7</ele>
        <time>2022-10-02T08:15:01Z</time>
      </trkpt>
      <trkpt lat="46.01576" lon="1.05335">
        <ele>415.9</ele>
        <time>2022-10-02T08:15:02Z</time>
      </trkpt>
      <trkpt lat="46.0158" lon="1.05334">
        <ele>416.3</ele>
        <time>2022-10-02T08:15:03Z</time>
      </trkpt>
      <trkpt lat="46.01583" lon="1.05333">
        <ele>416.6</ele>
        <time>2022-10-02T08:15:04Z</time>
      </trkpt>
      <trkpt lat="46.01586" lon="1.05331">
        <ele>416.9</ele>
        <time>2022-10-02T08:15:05Z</time>
      </trkpt>
      <trkpt lat="46.0159" lon="1.05328">
        <ele>417.2</ele>
        <time>2022-10-02T08:15:06Z</time>
      </trkpt>
      <trkpt lat="46.01594" lon="1.05326">
        <ele>417.6</ele>
        <time>2022-10-02T08:15:07Z</time>
      </trkpt>
      <trkpt lat="46.01598" lon="1.05325">
        <ele>418</ele>
        <time>2022-10-02T08:15:08Z</time>
      </trkpt>
      <trkpt lat="46.01601" lon="1.05325">
        <ele>418.3</ele>
        <time>2022-10-02T08:15:09Z</time>
      </trkpt>
      <trkpt lat="46.01605" lon="1.05325">
        <ele>418.7</ele>
        <time>2022-10-02T08:15:10Z</time>
      </trkpt>
      <trkpt lat="46.01608" lon="1.05325">
        <ele>419</ele>
        <time>2022-10-02T08:15:11Z</time>
      </trkpt>
      <trkpt lat="46.01611" lon="1.05324">
        <ele>419.3</ele>
        <time>2022-10-02T08:15:12Z</time>
      </trkpt>
      <trkpt lat="46.01615" lon="1.05323">
        <ele>419.7</ele>
        <time>2022-10-02T08:15:13Z</time>
      </trkpt>
      <trkpt lat="46.01619" lon="1.05323">
        <ele>420.1</ele>
        <time>2022-10-02T08:15:14Z</time>
      </trkpt>
      <trkpt lat="46.01622" lon="1.05322">
        <ele>420.5</ele>
        <time>2022-10-02T08:15:15Z</time>
      </trkpt>
      <trkpt lat="46.01625" lon="1.0532">
        <ele>420.9</ele>
        <time>2022-10-02T08:15:17Z</time>
      </trkpt>
      <trkpt lat="46.01628" lon="1.05318">
        <ele>421.2</ele>
        <time>2022-10-02T08:15:18Z</time>
      </trkpt>
      <trkpt lat="46.01631" lon="1.05317">
        <ele>421.4</ele>
        <time>2022-10-02T08:15:19Z</time>
      </trkpt>
      <trkpt lat="46.01635" lon="1.05318">
        <ele>421.8</ele>
        <time>2022-10-02T08:15:20Z</time>
      </trkpt>
      <trkpt lat="46.01639" lon="1.05318">
        <ele>422.3</ele>
        <time>2022-10-02T08:15:21Z</time>
      </trkpt>
      <trkpt lat="46.01644" lon="1.05318">
        <ele>422.8</ele>
        <time>2022-10-02T08:15:22Z</time>
      </trkpt>
      <trkpt lat="46.01649" lon="1.05319">
        <ele>423.2</ele>
        <time>2022-10-02T08:15:23Z</time>
      </trkpt>
      <trkpt lat="46.01652" lon="1.05319">
        <ele>423.5</ele>
        <time>2022-10-02T08:15:24Z</time>
      </trkpt>
      <trkpt lat="46.01657" lon="1.05318">
        <ele>423.9</ele>
        <time>2022-10-02T08:15:25Z</time>
      </trkpt>
      <trkpt lat="46.01661" lon="1.05318">
        <ele>424.3</ele>
        <time>2022-10-02T08:15:26Z</time>
      </trkpt>
      <trkpt lat="46.01664" lon="1.05317">
        <ele>424.5</ele>
        <time>2022-10-02T08:15:27Z</time>
      </trkpt>
      <trkpt lat="46.01671" lon="1.05313">
        <ele>426.3</ele>
        <time>2022-10-02T08:15:28Z</time>
      </trkpt>
      <trkpt lat="46.01675" lon="1.05312">
        <ele>426.7</ele>
        <time>2022-10-02T08:15:29Z</time>
      </trkpt>
      <trkpt lat="46.01679" lon="1.05307">
        <ele>427.1</ele>
        <time>2022-10-02T08:15:30Z</time>
      </trkpt>
      <trkpt lat="46.01681" lon="1.05304">
        <ele>427.3</ele>
        <time>2022-10-02T08:15:31Z</time>
      </trkpt>
      <trkpt lat="46.01684" lon="1.05301">
        <ele>427.5</ele>
        <time>2022-10-02T08:15:32Z</time>
      </trkpt>
      <trkpt lat="46.01687" lon="1.05299">
        <ele>427.7</ele>
        <time>2022-10-02T08:15:33Z</time>
      </trkpt>
      <trkpt lat="46.01691" lon="1.053">
        <ele>427.9</ele>
        <time>2022-10-02T08:15:34Z</time>
      </trkpt>
      <trkpt lat="46.01694" lon="1.05301">
        <ele>428</ele>
        <time>2022-10-02T08:15:35Z</time>
      </trkpt>
      <trkpt lat="46.01697" lon="1.05303">
        <ele>428.3</ele>
        <time>2022-10-02T08:15:36Z</time>
      </trkpt>
      <trkpt lat="46.01701" lon="1.05306">
        <ele>428.5</ele>
        <time>2022-10-02T08:15:37Z</time>
      </trkpt>
      <trkpt lat="46.01704" lon="1.05308">
        <ele>428.7</ele>
        <time>2022-10-02T08:15:38Z</time>
      </trkpt>
      <trkpt lat="46.01708" lon="1.0531">
        <ele>428.9</ele>
        <time>2022-10-02T08:15:39Z</time>
      </trkpt>
      <trkpt lat="46.01713" lon="1.05313">
        <ele>429.2</ele>
        <time>2022-10-02T08:15:40Z</time>
      </trkpt>
      <trkpt lat="46.01716" lon="1.05314">
        <ele>429.4</ele>
        <time>2022-10-02T08:15:41Z</time>
      </trkpt>
      <trkpt lat="46.01719" lon="1.05317">
        <ele>429.5</ele>
        <time>2022-10-02T08:15:42Z</time>
      </trkpt>
      <trkpt lat="46.01722" lon="1.05319">
        <ele>429.7</ele>
        <time>2022-10-02T08:15:43Z</time>
      </trkpt>
      <trkpt lat="46.01724" lon="1.05318">
        <ele>429.8</ele>
        <time>2022-10-02T08:15:44Z</time>
      </trkpt>
      <trkpt lat="46.01729" lon="1.0532">
        <ele>430</ele>
        <time>2022-10-02T08:15:45Z</time>
      </trkpt>
      <trkpt lat="46.01732" lon="1.05321">
        <ele>430.1</ele>
        <time>2022-10-02T08:15:46Z</time>
      </trkpt>
      <trkpt lat="46.01735" lon="1.05323">
        <ele>430.3</ele>
        <time>2022-10-02T08:15:47Z</time>
      </trkpt>
      <trkpt lat="46.01738" lon="1.05324">
        <ele>430.4</ele>
        <time>2022-10-02T08:15:48Z</time>
      </trkpt>
      <trkpt lat="46.01741" lon="1.05324">
        <ele>430.5</ele>
        <time>2022-10-02T08:15:49Z</time>
      </trkpt>
      <trkpt lat="46.01743" lon="1.05322">
        <ele>430.6</ele>
        <time>2022-10-02T08:15:50Z</time>
      </trkpt>
      <trkpt lat="46.01746" lon="1.05323">
        <ele>430.8</ele>
        <time>2022-10-02T08:15:51Z</time>
      </trkpt>
      <trkpt lat="46.01751" lon="1.05324">
        <ele>431</ele>
        <time>2022-10-02T08:15:52Z</time>
      </trkpt>
      <trkpt lat="46.01756" lon="1.05325">
        <ele>431.2</ele>
        <time>2022-10-02T08:15:53Z</time>
      </trkpt>
      <trkpt lat="46.0176" lon="1.05326">
        <ele>431.4</ele>
        <time>2022-10-02T08:15:54Z</time>
      </trkpt>
      <trkpt lat="46.01766" lon="1.05328">
        <ele>431.6</ele>
        <time>2022-10-02T08:15:55Z</time>
      </trkpt>
      <trkpt lat="46.01772" lon="1.0533">
        <ele>431.9</ele>
        <time>2022-10-02T08:15:56Z</time>
      </trkpt>
      <trkpt lat="46.01777" lon="1.05332">
        <ele>432.1</ele>
        <time>2022-10-02T08:15:57Z</time>
      </trkpt>
      <trkpt lat="46.01781" lon="1.05337">
        <ele>432.3</ele>
        <time>2022-10-02T08:15:58Z</time>
      </trkpt>
      <trkpt lat="46.01787" lon="1.0534">
        <ele>432.5</ele>
        <time>2022-10-02T08:15:59Z</time>
      </trkpt>
      <trkpt lat="46.01797" lon="1.05342">
        <ele>433</ele>
        <time>2022-10-02T08:16:00Z</time>
      </trkpt>
      <trkpt lat="46.01803" lon="1.05345">
        <ele>433</ele>
        <time>2022-10-02T08:16:01Z</time>
      </trkpt>
      <trkpt lat="46.01811" lon="1.05348">
        <ele>433</ele>
        <time>2022-10-02T08:16:02Z</time>
      </trkpt>
      <trkpt lat="46.01816" lon="1.05349">
        <ele>432.9</ele>
        <time>2022-10-02T08:16:03Z</time>
      </trkpt>
      <trkpt lat="46.01821" lon="1.0535">
        <ele>432.8</ele>
        <time>2022-10-02T08:16:04Z</time>
      </trkpt>
      <trkpt lat="46.01825" lon="1.05351">
        <ele>432.7</ele>
        <time>2022-10-02T08:16:05Z</time>
      </trkpt>
      <trkpt lat="46.01831" lon="1.05352">
        <ele>432.6</ele>
        <time>2022-10-02T08:16:06Z</time>
      </trkpt>
      <trkpt lat="46.01834" lon="1.05353">
        <ele>432.4</ele>
        <time>2022-10-02T08:16:07Z</time>
      </trkpt>
      <trkpt lat="46.01839" lon="1.05353">
        <ele>432.3</ele>
        <time>2022-10-02T08:16:08Z</time>
      </trkpt>
      <trkpt lat="46.01841" lon="1.05354">
        <ele>432.2</ele>
        <time>2022-10-02T08:16:09Z</time>
      </trkpt>
      <trkpt lat="46.01843" lon="1.05352">
        <ele>432.1</ele>
        <time>2022-10-02T08:16:10Z</time>
      </trkpt>
      <trkpt lat="46.01848" lon="1.05353">
        <ele>432</ele>
        <time>2022-10-02T08:16:11Z</time>
      </trkpt>
      <trkpt lat="46.01852" lon="1.05352">
        <ele>431.9</ele>
        <time>2022-10-02T08:16:12Z</time>
      </trkpt>
      <trkpt lat="46.01857" lon="1.05352">
        <ele>431.8</ele>
        <time>2022-10-02T08:16:13Z</time>
      </trkpt>
      <trkpt lat="46.01866" lon="1.05353">
        <ele>431.6</ele>
        <time>2022-10-02T08:16:14Z</time>
      </trkpt>
      <trkpt lat="46.01873" lon="1.05355">
        <ele>431.5</ele>
        <time>2022-10-02T08:16:15Z</time>
      </trkpt>
      <trkpt lat="46.01881" lon="1.05357">
        <ele>431.4</ele>
        <time>2022-10-02T08:16:16Z</time>
      </trkpt>
      <trkpt lat="46.01885" lon="1.05357">
        <ele>431.3</ele>
        <time>2022-10-02T08:16:17Z</time>
      </trkpt>
      <trkpt lat="46.01892" lon="1.05358">
        <ele>431.2</ele>
        <time>2022-10-02T08:16:18Z</time>
      </trkpt>
      <trkpt lat="46.01898" lon="1.05357">
        <ele>431.1</ele>
        <time>2022-10-02T08:16:19Z</time>
      </trkpt>
      <trkpt lat="46.01905" lon="1.05355">
        <ele>431</ele>
        <time>2022-10-02T08:16:20Z</time>
      </trkpt>
      <trkpt lat="46.01909" lon="1.05352">
        <ele>430.9</ele>
        <time>2022-10-02T08:16:21Z</time>
      </trkpt>
      <trkpt lat="46.01914" lon="1.0535">
        <ele>430.9</ele>
        <time>2022-10-02T08:16:22Z</time>
      </trkpt>
      <trkpt lat="46.01921" lon="1.05346">
        <ele>431</ele>
        <time>2022-10-02T08:16:23Z</time>
      </trkpt>
      <trkpt lat="46.01927" lon="1.05342">
        <ele>431.1</ele>
        <time>2022-10-02T08:16:24Z</time>
      </trkpt>
      <trkpt lat="46.01934" lon="1.05337">
        <ele>431.2</ele>
        <time>2022-10-02T08:16:25Z</time>
      </trkpt>
      <trkpt lat="46.01938" lon="1.05332">
        <ele>431.3</ele>
        <time>2022-10-02T08:16:26Z</time>
      </trkpt>
      <trkpt lat="46.01942" lon="1.05327">
        <ele>431.5</ele>
        <time>2022-10-02T08:16:27Z</time>
      </trkpt>
      <trkpt lat="46.01944" lon="1.05322">
        <ele>431.6</ele>
        <time>2022-10-02T08:16:28Z</time>
      </trkpt>
      <trkpt lat="46.01949" lon="1.05317">
        <ele>431.7</ele>
        <time>2022-10-02T08:16:29Z</time>
      </trkpt>
      <trkpt lat="46.01954" lon="1.05313">
        <ele>431.8</ele>
        <time>2022-10-02T08:16:30Z</time>
      </trkpt>
      <trkpt lat="46.01959" lon="1.05312">
        <ele>431.8</ele>
        <time>2022-10-02T08:16:31Z</time>
      </trkpt>
      <trkpt lat="46.01965" lon="1.05309">
        <ele>431.9</ele>
        <time>2022-10-02T08:16:32Z</time>
      </trkpt>
      <trkpt lat="46.01969" lon="1.05305">
        <ele>432</ele>
        <time>2022-10-02T08:16:33Z</time>
      </trkpt>
      <trkpt lat="46.01974" lon="1.05301">
        <ele>432.1</ele>
        <time>2022-10-02T08:16:34Z</time>
      </trkpt>
      <trkpt lat="46.01981" lon="1.05301">
        <ele>432.2</ele>
        <time>2022-10-02T08:16:35Z</time>
      </trkpt>
      <trkpt lat="46.01988" lon="1.053">
        <ele>432.3</ele>
        <time>2022-10-02T08:16:36Z</time>
      </trkpt>
      <trkpt lat="46.01993" lon="1.05299">
        <ele>432.5</ele>
        <time>2022-10-02T08:16:37Z</time>
      </trkpt>
      <trkpt lat="46.01999" lon="1.05298">
        <ele>432.8</ele>
        <time>2022-10-02T08:16:38Z</time>
      </trkpt>
      <trkpt lat="46.02005" lon="1.05299">
        <ele>433.2</ele>
        <time>2022-10-02T08:16:39Z</time>
      </trkpt>
      <trkpt lat="46.02009" lon="1.05298">
        <ele>433.5</ele>
        <time>2022-10-02T08:16:40Z</time>
      </trkpt>
      <trkpt lat="46.02014" lon="1.05297">
        <ele>433.9</ele>
        <time>2022-10-02T08:16:41Z</time>
      </trkpt>
      <trkpt lat="46.02019" lon="1.05296">
        <ele>434.4</ele>
        <time>2022-10-02T08:16:42Z</time>
      </trkpt>
      <trkpt lat="46.02024" lon="1.05291">
        <ele>435</ele>
        <time>2022-10-02T08:16:43Z</time>
      </trkpt>
      <trkpt lat="46.02029" lon="1.05292">
        <ele>435.6</ele>
        <time>2022-10-02T08:16:44Z</time>
      </trkpt>
      <trkpt lat="46.02036" lon="1.05293">
        <ele>436.6</ele>
        <time>2022-10-02T08:16:45Z</time>
      </trkpt>
      <trkpt lat="46.02043" lon="1.05293">
        <ele>437.5</ele>
        <time>2022-10-02T08:16:46Z</time>
      </trkpt>
      <trkpt lat="46.02046" lon="1.05292">
        <ele>438.1</ele>
        <time>2022-10-02T08:16:47Z</time>
      </trkpt>
      <trkpt lat="46.02052" lon="1.05288">
        <ele>439.1</ele>
        <time>2022-10-02T08:16:48Z</time>
      </trkpt>
      <trkpt lat="46.02057" lon="1.05285">
        <ele>439.9</ele>
        <time>2022-10-02T08:16:49Z</time>
      </trkpt>
      <trkpt lat="46.02063" lon="1.05284">
        <ele>441</ele>
        <time>2022-10-02T08:16:50Z</time>
      </trkpt>
      <trkpt lat="46.02067" lon="1.05283">
        <ele>441.9</ele>
        <time>2022-10-02T08:16:51Z</time>
      </trkpt>
      <trkpt lat="46.02074" lon="1.05281">
        <ele>443.3</ele>
        <time>2022-10-02T08:16:52Z</time>
      </trkpt>
      <trkpt lat="46.0208" lon="1.0528">
        <ele>444.3</ele>
        <time>2022-10-02T08:16:53Z</time>
      </trkpt>
      <trkpt lat="46.02085" lon="1.05277">
        <ele>445.2</ele>
        <time>2022-10-02T08:16:54Z</time>
      </trkpt>
      <trkpt lat="46.0209" lon="1.05277">
        <ele>445.9</ele>
        <time>2022-10-02T08:16:55Z</time>
      </trkpt>
      <trkpt lat="46.02096" lon="1.05278">
        <ele>446.4</ele>
        <time>2022-10-02T08:16:56Z</time>
      </trkpt>
      <trkpt lat="46.02097" lon="1.05284">
        <ele>446.7</ele>
        <time>2022-10-02T08:16:57Z</time>
      </trkpt>
      <trkpt lat="46.02098" lon="1.05289">
        <ele>446.8</ele>
        <time>2022-10-02T08:16:58Z</time>
      </trkpt>
      <trkpt lat="46.02101" lon="1.05294">
        <ele>446.9</ele>
        <time>2022-10-02T08:16:59Z</time>
      </trkpt>
      <trkpt lat="46.02104" lon="1.05298">
        <ele>446.9</ele>
        <time>2022-10-02T08:17:00Z</time>
      </trkpt>
      <trkpt lat="46.02105" lon="1.05306">
        <ele>446.7</ele>
        <time>2022-10-02T08:17:01Z</time>
      </trkpt>
      <trkpt lat="46.02105" lon="1.0531">
        <ele>446.6</ele>
        <time>2022-10-02T08:17:02Z</time>
      </trkpt>
      <trkpt lat="46.02104" lon="1.05318">
        <ele>446.1</ele>
        <time>2022-10-02T08:17:03Z</time>
      </trkpt>
      <trkpt lat="46.02104" lon="1.05325">
        <ele>445.6</ele>
        <time>2022-10-02T08:17:04Z</time>
      </trkpt>
      <trkpt lat="46.02104" lon="1.05331">
        <ele>445</ele>
        <time>2022-10-02T08:17:05Z</time>
      </trkpt>
      <trkpt lat="46.02103" lon="1.05339">
        <ele>444.3</ele>
        <time>2022-10-02T08:17:06Z</time>
      </trkpt>
      <trkpt lat="46.02102" lon="1.05346">
        <ele>443.5</ele>
        <time>2022-10-02T08:17:07Z</time>
      </trkpt>
      <trkpt lat="46.02102" lon="1.05354">
        <ele>442.6</ele>
        <time>2022-10-02T08:17:08Z</time>
      </trkpt>
      <trkpt lat="46.02101" lon="1.0536">
        <ele>441.8</ele>
        <time>2022-10-02T08:17:09Z</time>
      </trkpt>
      <trkpt lat="46.02099" lon="1.05368">
        <ele>440.7</ele>
        <time>2022-10-02T08:17:10Z</time>
      </trkpt>
      <trkpt lat="46.02095" lon="1.05375">
        <ele>439.7</ele>
        <time>2022-10-02T08:17:11Z</time>
      </trkpt>
      <trkpt lat="46.02086" lon="1.0539">
        <ele>437.5</ele>
        <time>2022-10-02T08:17:12Z</time>
      </trkpt>
      <trkpt lat="46.02083" lon="1.05398">
        <ele>436.7</ele>
        <time>2022-10-02T08:17:13Z</time>
      </trkpt>
      <trkpt lat="46.02082" lon="1.05401">
        <ele>436.3</ele>
        <time>2022-10-02T08:17:14Z</time>
      </trkpt>
      <trkpt lat="46.02081" lon="1.05402">
        <ele>436.2</ele>
        <time>2022-10-02T08:17:15Z</time>
      </trkpt>
      <trkpt lat="46.02079" lon="1.05404">
        <ele>436</ele>
        <time>2022-10-02T08:17:16Z</time>
      </trkpt>
      <trkpt lat="46.02077" lon="1.05406">
        <ele>435.8</ele>
        <time>2022-10-02T08:17:17Z</time>
      </trkpt>
      <trkpt lat="46.02077" lon="1.05408">
        <ele>435.6</ele>
        <time>2022-10-02T08:17:18Z</time>
      </trkpt>
      <trkpt lat="46.02075" lon="1.0541">
        <ele>435.4</ele>
        <time>2022-10-02T08:17:19Z</time>
      </trkpt>
      <trkpt lat="46.02075" lon="1.05412">
        <ele>435.3</ele>
        <time>2022-10-02T08:17:20Z</time>
      </trkpt>
      <trkpt lat="46.02073" lon="1.05416">
        <ele>435</ele>
        <time>2022-10-02T08:17:21Z</time>
      </trkpt>
      <trkpt lat="46.0207" lon="1.05424">
        <ele>434.5</ele>
        <time>2022-10-02T08:17:22Z</time>
      </trkpt>
      <trkpt lat="46.0207" lon="1.05432">
        <ele>434</ele>
        <time>2022-10-02T08:17:23Z</time>
      </trkpt>
      <trkpt lat="46.02068" lon="1.05439">
        <ele>433.7</ele>
        <time>2022-10-02T08:17:24Z</time>
      </trkpt>
      <trkpt lat="46.02067" lon="1.05445">
        <ele>433.5</ele>
        <time>2022-10-02T08:17:25Z</time>
      </trkpt>
      <trkpt lat="46.02064" lon="1.05449">
        <ele>433.3</ele>
        <time>2022-10-02T08:17:26Z</time>
      </trkpt>
      <trkpt lat="46.02063" lon="1.05454">
        <ele>433.2</ele>
        <time>2022-10-02T08:17:27Z</time>
      </trkpt>
      <trkpt lat="46.02059" lon="1.0546">
        <ele>433</ele>
        <time>2022-10-02T08:17:28Z</time>
      </trkpt>
      <trkpt lat="46.02057" lon="1.05467">
        <ele>432.8</ele>
        <time>2022-10-02T08:17:29Z</time>
      </trkpt>
      <trkpt lat="46.02055" lon="1.05473">
        <ele>432.7</ele>
        <time>2022-10-02T08:17:30Z</time>
      </trkpt>
      <trkpt lat="46.02053" lon="1.0548">
        <ele>432.5</ele>
        <time>2022-10-02T08:17:31Z</time>
      </trkpt>
      <trkpt lat="46.02051" lon="1.05488">
        <ele>432.4</ele>
        <time>2022-10-02T08:17:32Z</time>
      </trkpt>
      <trkpt lat="46.02053" lon="1.05498">
        <ele>432.2</ele>
        <time>2022-10-02T08:17:33Z</time>
      </trkpt>
      <trkpt lat="46.02054" lon="1.05505">
        <ele>432.1</ele>
        <time>2022-10-02T08:17:34Z</time>
      </trkpt>
      <trkpt lat="46.02055" lon="1.05513">
        <ele>431.9</ele>
        <time>2022-10-02T08:17:35Z</time>
      </trkpt>
      <trkpt lat="46.02056" lon="1.05522">
        <ele>431.7</ele>
        <time>2022-10-02T08:17:36Z</time>
      </trkpt>
      <trkpt lat="46.02055" lon="1.05531">
        <ele>431.5</ele>
        <time>2022-10-02T08:17:37Z</time>
      </trkpt>
      <trkpt lat="46.02056" lon="1.0554">
        <ele>431.4</ele>
        <time>2022-10-02T08:17:38Z</time>
      </trkpt>
      <trkpt lat="46.02056" lon="1.05548">
        <ele>431.2</ele>
        <time>2022-10-02T08:17:39Z</time>
      </trkpt>
      <trkpt lat="46.02057" lon="1.05555">
        <ele>431.1</ele>
        <time>2022-10-02T08:17:40Z</time>
      </trkpt>
      <trkpt lat="46.02057" lon="1.05564">
        <ele>431</ele>
        <time>2022-10-02T08:17:41Z</time>
      </trkpt>
      <trkpt lat="46.02058" lon="1.05571">
        <ele>431</ele>
        <time>2022-10-02T08:17:42Z</time>
      </trkpt>
      <trkpt lat="46.02059" lon="1.05577">
        <ele>431</ele>
        <time>2022-10-02T08:17:43Z</time>
      </trkpt>
      <trkpt lat="46.02063" lon="1.05581">
        <ele>431.2</ele>
        <time>2022-10-02T08:17:44Z</time>
      </trkpt>
      <trkpt lat="46.02065" lon="1.05582">
        <ele>431.3</ele>
        <time>2022-10-02T08:17:45Z</time>
      </trkpt>
      <trkpt lat="46.0207" lon="1.05584">
        <ele>431.6</ele>
        <time>2022-10-02T08:17:46Z</time>
      </trkpt>
      <trkpt lat="46.02075" lon="1.05586">
        <ele>432</ele>
        <time>2022-10-02T08:17:47Z</time>
      </trkpt>
      <trkpt lat="46.02081" lon="1.05587">
        <ele>432.5</ele>
        <time>2022-10-02T08:17:48Z</time>
      </trkpt>
      <trkpt lat="46.02086" lon="1.0559">
        <ele>433</ele>
        <time>2022-10-02T08:17:49Z</time>
      </trkpt>
      <trkpt lat="46.0209" lon="1.05591">
        <ele>433.4</ele>
        <time>2022-10-02T08:17:50Z</time>
      </trkpt>
      <trkpt lat="46.02095" lon="1.05593">
        <ele>433.8</ele>
        <time>2022-10-02T08:17:51Z</time>
      </trkpt>
      <trkpt lat="46.021" lon="1.05594">
        <ele>434.4</ele>
        <time>2022-10-02T08:17:52Z</time>
      </trkpt>
      <trkpt lat="46.02105" lon="1.05596">
        <ele>434.8</ele>
        <time>2022-10-02T08:17:53Z</time>
      </trkpt>
      <trkpt lat="46.02109" lon="1.05601">
        <ele>435.2</ele>
        <time>2022-10-02T08:17:54Z</time>
      </trkpt>
      <trkpt lat="46.02113" lon="1.05604">
        <ele>435.5</ele>
        <time>2022-10-02T08:17:55Z</time>
      </trkpt>
      <trkpt lat="46.02116" lon="1.05608">
        <ele>435.7</ele>
        <time>2022-10-02T08:17:56Z</time>
      </trkpt>
      <trkpt lat="46.02118" lon="1.05611">
        <ele>435.8</ele>
        <time>2022-10-02T08:17:57Z</time>
      </trkpt>
      <trkpt lat="46.02118" lon="1.05616">
        <ele>435.9</ele>
        <time>2022-10-02T08:17:58Z</time>
      </trkpt>
      <trkpt lat="46.02118" lon="1.05621">
        <ele>435.6</ele>
        <time>2022-10-02T08:17:59Z</time>
      </trkpt>
      <trkpt lat="46.02118" lon="1.0563">
        <ele>435</ele>
        <time>2022-10-02T08:18:00Z</time>
      </trkpt>
      <trkpt lat="46.02118" lon="1.05637">
        <ele>434.7</ele>
        <time>2022-10-02T08:18:01Z</time>
      </trkpt>
      <trkpt lat="46.02119" lon="1.05646">
        <ele>434.3</ele>
        <time>2022-10-02T08:18:02Z</time>
      </trkpt>
      <trkpt lat="46.02117" lon="1.05654">
        <ele>433.9</ele>
        <time>2022-10-02T08:18:03Z</time>
      </trkpt>
      <trkpt lat="46.02118" lon="1.05663">
        <ele>433.6</ele>
        <time>2022-10-02T08:18:04Z</time>
      </trkpt>
      <trkpt lat="46.02116" lon="1.0567">
        <ele>433.3</ele>
        <time>2022-10-02T08:18:05Z</time>
      </trkpt>
      <trkpt lat="46.02114" lon="1.05678">
        <ele>433</ele>
        <time>2022-10-02T08:18:06Z</time>
      </trkpt>
      <trkpt lat="46.02112" lon="1.05685">
        <ele>432.6</ele>
        <time>2022-10-02T08:18:07Z</time>
      </trkpt>
      <trkpt lat="46.02109" lon="1.05692">
        <ele>432.2</ele>
        <time>2022-10-02T08:18:08Z</time>
      </trkpt>
      <trkpt lat="46.02104" lon="1.05698">
        <ele>431.6</ele>
        <time>2022-10-02T08:18:09Z</time>
      </trkpt>
      <trkpt lat="46.02099" lon="1.05703">
        <ele>431</ele>
        <time>2022-10-02T08:18:10Z</time>
      </trkpt>
      <trkpt lat="46.02094" lon="1.05707">
        <ele>430.4</ele>
        <time>2022-10-02T08:18:11Z</time>
      </trkpt>
      <trkpt lat="46.02088" lon="1.0571">
        <ele>429.6</ele>
        <time>2022-10-02T08:18:12Z</time>
      </trkpt>
      <trkpt lat="46.02083" lon="1.05713">
        <ele>428.9</ele>
        <time>2022-10-02T08:18:13Z</time>
      </trkpt>
      <trkpt lat="46.02079" lon="1.05717">
        <ele>428.2</ele>
        <time>2022-10-02T08:18:14Z</time>
      </trkpt>
      <trkpt lat="46.02074" lon="1.05721">
        <ele>427.5</ele>
        <time>2022-10-02T08:18:15Z</time>
      </trkpt>
      <trkpt lat="46.02069" lon="1.05726">
        <ele>426.7</ele>
        <time>2022-10-02T08:18:16Z</time>
      </trkpt>
      <trkpt lat="46.02064" lon="1.05731">
        <ele>425.9</ele>
        <time>2022-10-02T08:18:17Z</time>
      </trkpt>
      <trkpt lat="46.02062" lon="1.05736">
        <ele>425.4</ele>
        <time>2022-10-02T08:18:18Z</time>
      </trkpt>
      <trkpt lat="46.0206" lon="1.05739">
        <ele>424.9</ele>
        <time>2022-10-02T08:18:19Z</time>
      </trkpt>
      <trkpt lat="46.02057" lon="1.05743">
        <ele>424.3</ele>
        <time>2022-10-02T08:18:20Z</time>
      </trkpt>
      <trkpt lat="46.02054" lon="1.05747">
        <ele>423.7</ele>
        <time>2022-10-02T08:18:21Z</time>
      </trkpt>
      <trkpt lat="46.02051" lon="1.05751">
        <ele>423.1</ele>
        <time>2022-10-02T08:18:22Z</time>
      </trkpt>
      <trkpt lat="46.0205" lon="1.05752">
        <ele>422.5</ele>
        <time>2022-10-02T08:18:23Z</time>
      </trkpt>
      <trkpt lat="46.02049" lon="1.05756">
        <ele>421.8</ele>
        <time>2022-10-02T08:18:24Z</time>
      </trkpt>
      <trkpt lat="46.0205" lon="1.05759">
        <ele>421.2</ele>
        <time>2022-10-02T08:18:25Z</time>
      </trkpt>
      <trkpt lat="46.02053" lon="1.05761">
        <ele>419.2</ele>
        <time>2022-10-02T08:18:26Z</time>
      </trkpt>
      <trkpt lat="46.02056" lon="1.05763">
        <ele>418.6</ele>
        <time>2022-10-02T08:18:27Z</time>
      </trkpt>
      <trkpt lat="46.02061" lon="1.05766">
        <ele>419.1</ele>
        <time>2022-10-02T08:18:28Z</time>
      </trkpt>
      <trkpt lat="46.02066" lon="1.05768">
        <ele>419.2</ele>
        <time>2022-10-02T08:18:29Z</time>
      </trkpt>
      <trkpt lat="46.02071" lon="1.0577">
        <ele>419.3</ele>
        <time>2022-10-02T08:18:30Z</time>
      </trkpt>
      <trkpt lat="46.02076" lon="1.0577">
        <ele>419.3</ele>
        <time>2022-10-02T08:18:31Z</time>
      </trkpt>
      <trkpt lat="46.02082" lon="1.05771">
        <ele>419.3</ele>
        <time>2022-10-02T08:18:32Z</time>
      </trkpt>
      <trkpt lat="46.02086" lon="1.05771">
        <ele>419.3</ele>
        <time>2022-10-02T08:18:33Z</time>
      </trkpt>
      <trkpt lat="46.02091" lon="1.05771">
        <ele>419.2</ele>
        <time>2022-10-02T08:18:34Z</time>
      </trkpt>
      <trkpt lat="46.02095" lon="1.05771">
        <ele>419.1</ele>
        <time>2022-10-02T08:18:35Z</time>
      </trkpt>
      <trkpt lat="46.02101" lon="1.05771">
        <ele>418.9</ele>
        <time>2022-10-02T08:18:36Z</time>
      </trkpt>
      <trkpt lat="46.02106" lon="1.0577">
        <ele>418.6</ele>
        <time>2022-10-02T08:18:37Z</time>
      </trkpt>
      <trkpt lat="46.02111" lon="1.0577">
        <ele>418.3</ele>
        <time>2022-10-02T08:18:38Z</time>
      </trkpt>
      <trkpt lat="46.02117" lon="1.0577">
        <ele>418</ele>
        <time>2022-10-02T08:18:39Z</time>
      </trkpt>
      <trkpt lat="46.02121" lon="1.05769">
        <ele>417.6</ele>
        <time>2022-10-02T08:18:40Z</time>
      </trkpt>
      <trkpt lat="46.02125" lon="1.05768">
        <ele>417.4</ele>
        <time>2022-10-02T08:18:41Z</time>
      </trkpt>
      <trkpt lat="46.02128" lon="1.05766">
        <ele>417.1</ele>
        <time>2022-10-02T08:18:42Z</time>
      </trkpt>
      <trkpt lat="46.02132" lon="1.05764">
        <ele>416.7</ele>
        <time>2022-10-02T08:18:43Z</time>
      </trkpt>
      <trkpt lat="46.02135" lon="1.05765">
        <ele>416.6</ele>
        <time>2022-10-02T08:18:44Z</time>
      </trkpt>
      <trkpt lat="46.02138" lon="1.05764">
        <ele>416.3</ele>
        <time>2022-10-02T08:18:45Z</time>
      </trkpt>
      <trkpt lat="46.02143" lon="1.05763">
        <ele>416.1</ele>
        <time>2022-10-02T08:18:46Z</time>
      </trkpt>
      <trkpt lat="46.02147" lon="1.05763">
        <ele>415.8</ele>
        <time>2022-10-02T08:18:47Z</time>
      </trkpt>
      <trkpt lat="46.02151" lon="1.05763">
        <ele>415.6</ele>
        <time>2022-10-02T08:18:48Z</time>
      </trkpt>
      <trkpt lat="46.02155" lon="1.05763">
        <ele>415.4</ele>
        <time>2022-10-02T08:18:49Z</time>
      </trkpt>
      <trkpt lat="46.0216" lon="1.05763">
        <ele>415.1</ele>
        <time>2022-10-02T08:18:50Z</time>
      </trkpt>
      <trkpt lat="46.02164" lon="1.05763">
        <ele>415</ele>
        <time>2022-10-02T08:18:51Z</time>
      </trkpt>
      <trkpt lat="46.02172" lon="1.05766">
        <ele>414.7</ele>
        <time>2022-10-02T08:18:52Z</time>
      </trkpt>
      <trkpt lat="46.02179" lon="1.05768">
        <ele>414.4</ele>
        <time>2022-10-02T08:18:53Z</time>
      </trkpt>
      <trkpt lat="46.02186" lon="1.05773">
        <ele>414.2</ele>
        <time>2022-10-02T08:18:54Z</time>
      </trkpt>
      <trkpt lat="46.02193" lon="1.05777">
        <ele>414</ele>
        <time>2022-10-02T08:18:55Z</time>
      </trkpt>
      <trkpt lat="46.02198" lon="1.05781">
        <ele>413.8</ele>
        <time>2022-10-02T08:18:56Z</time>
      </trkpt>
      <trkpt lat="46.02203" lon="1.05785">
        <ele>413.7</ele>
        <time>2022-10-02T08:18:57Z</time>
      </trkpt>
      <trkpt lat="46.02207" lon="1.0579">
        <ele>413.5</ele>
        <time>2022-10-02T08:18:58Z</time>
      </trkpt>
      <trkpt lat="46.02212" lon="1.05795">
        <ele>413.3</ele>
        <time>2022-10-02T08:18:59Z</time>
      </trkpt>
      <trkpt lat="46.02215" lon="1.05802">
        <ele>413.1</ele>
        <time>2022-10-02T08:19:00Z</time>
      </trkpt>
      <trkpt lat="46.02217" lon="1.05807">
        <ele>412.9</ele>
        <time>2022-10-02T08:19:01Z</time>
      </trkpt>
      <trkpt lat="46.0222" lon="1.05813">
        <ele>412.7</ele>
        <time>2022-10-02T08:19:02Z</time>
      </trkpt>
      <trkpt lat="46.02221" lon="1.05818">
        <ele>412.5</ele>
        <time>2022-10-02T08:19:03Z</time>
      </trkpt>
      <trkpt lat="46.02224" lon="1.05824">
        <ele>412.3</ele>
        <time>2022-10-02T08:19:04Z</time>
      </trkpt>
      <trkpt lat="46.02226" lon="1.05829">
        <ele>412.1</ele>
        <time>2022-10-02T08:19:05Z</time>
      </trkpt>
      <trkpt lat="46.02228" lon="1.05835">
        <ele>411.9</ele>
        <time>2022-10-02T08:19:06Z</time>
      </trkpt>
      <trkpt lat="46.0223" lon="1.0584">
        <ele>411.8</ele>
        <time>2022-10-02T08:19:07Z</time>
      </trkpt>
      <trkpt lat="46.02233" lon="1.05846">
        <ele>411.7</ele>
        <time>2022-10-02T08:19:08Z</time>
      </trkpt>
      <trkpt lat="46.02236" lon="1.05849">
        <ele>411.6</ele>
        <time>2022-10-02T08:19:09Z</time>
      </trkpt>
      <trkpt lat="46.02239" lon="1.05856">
        <ele>411.5</ele>
        <time>2022-10-02T08:19:10Z</time>
      </trkpt>
      <trkpt lat="46.02242" lon="1.05863">
        <ele>411.3</ele>
        <time>2022-10-02T08:19:11Z</time>
      </trkpt>
      <trkpt lat="46.02245" lon="1.05867">
        <ele>411.2</ele>
        <time>2022-10-02T08:19:12Z</time>
      </trkpt>
      <trkpt lat="46.02248" lon="1.05873">
        <ele>411</ele>
        <time>2022-10-02T08:19:13Z</time>
      </trkpt>
      <trkpt lat="46.02251" lon="1.05876">
        <ele>410.9</ele>
        <time>2022-10-02T08:19:14Z</time>
      </trkpt>
      <trkpt lat="46.02254" lon="1.05882">
        <ele>410.7</ele>
        <time>2022-10-02T08:19:15Z</time>
      </trkpt>
      <trkpt lat="46.02256" lon="1.05886">
        <ele>410.6</ele>
        <time>2022-10-02T08:19:16Z</time>
      </trkpt>
      <trkpt lat="46.02258" lon="1.0589">
        <ele>410.4</ele>
        <time>2022-10-02T08:19:17Z</time>
      </trkpt>
      <trkpt lat="46.0226" lon="1.05895">
        <ele>410.3</ele>
        <time>2022-10-02T08:19:18Z</time>
      </trkpt>
      <trkpt lat="46.02262" lon="1.05899">
        <ele>410.2</ele>
        <time>2022-10-02T08:19:19Z</time>
      </trkpt>
      <trkpt lat="46.02265" lon="1.05904">
        <ele>410</ele>
        <time>2022-10-02T08:19:20Z</time>
      </trkpt>
      <trkpt lat="46.02267" lon="1.05909">
        <ele>409.9</ele>
        <time>2022-10-02T08:19:21Z</time>
      </trkpt>
      <trkpt lat="46.02268" lon="1.05914">
        <ele>409.7</ele>
        <time>2022-10-02T08:19:22Z</time>
      </trkpt>
      <trkpt lat="46.02269" lon="1.05919">
        <ele>409.5</ele>
        <time>2022-10-02T08:19:23Z</time>
      </trkpt>
      <trkpt lat="46.0227" lon="1.05924">
        <ele>409.3</ele>
        <time>2022-10-02T08:19:24Z</time>
      </trkpt>
      <trkpt lat="46.02272" lon="1.05929">
        <ele>409.2</ele>
        <time>2022-10-02T08:19:25Z</time>
      </trkpt>
      <trkpt lat="46.02273" lon="1.05935">
        <ele>408.9</ele>
        <time>2022-10-02T08:19:26Z</time>
      </trkpt>
      <trkpt lat="46.02274" lon="1.05942">
        <ele>408.7</ele>
        <time>2022-10-02T08:19:27Z</time>
      </trkpt>
      <trkpt lat="46.02276" lon="1.05948">
        <ele>408.6</ele>
        <time>2022-10-02T08:19:28Z</time>
      </trkpt>
      <trkpt lat="46.02279" lon="1.05956">
        <ele>408.4</ele>
        <time>2022-10-02T08:19:29Z</time>
      </trkpt>
      <trkpt lat="46.02281" lon="1.05963">
        <ele>408.3</ele>
        <time>2022-10-02T08:19:30Z</time>
      </trkpt>
      <trkpt lat="46.02285" lon="1.05971">
        <ele>408.3</ele>
        <time>2022-10-02T08:19:31Z</time>
      </trkpt>
      <trkpt lat="46.02288" lon="1.05978">
        <ele>408.3</ele>
        <time>2022-10-02T08:19:32Z</time>
      </trkpt>
      <trkpt lat="46.02291" lon="1.05985">
        <ele>408.3</ele>
        <time>2022-10-02T08:19:33Z</time>
      </trkpt>
      <trkpt lat="46.02295" lon="1.05992">
        <ele>408.3</ele>
        <time>2022-10-02T08:19:34Z</time>
      </trkpt>
      <trkpt lat="46.02297" lon="1.05999">
        <ele>408.3</ele>
        <time>2022-10-02T08:19:35Z</time>
      </trkpt>
      <trkpt lat="46.02298" lon="1.06006">
        <ele>408.4</ele>
        <time>2022-10-02T08:19:36Z</time>
      </trkpt>
      <trkpt lat="46.02299" lon="1.06013">
        <ele>408.5</ele>
        <time>2022-10-02T08:19:37Z</time>
      </trkpt>
      <trkpt lat="46.02297" lon="1.0602">
        <ele>408.3</ele>
        <time>2022-10-02T08:19:38Z</time>
      </trkpt>
      <trkpt lat="46.02295" lon="1.06026">
        <ele>408.2</ele>
        <time>2022-10-02T08:19:39Z</time>
      </trkpt>
      <trkpt lat="46.02293" lon="1.06032">
        <ele>408</ele>
        <time>2022-10-02T08:19:40Z</time>
      </trkpt>
      <trkpt lat="46.02291" lon="1.06037">
        <ele>408</ele>
        <time>2022-10-02T08:19:41Z</time>
      </trkpt>
      <trkpt lat="46.02287" lon="1.06042">
        <ele>407.9</ele>
        <time>2022-10-02T08:19:42Z</time>
      </trkpt>
      <trkpt lat="46.02284" lon="1.06047">
        <ele>408</ele>
        <time>2022-10-02T08:19:43Z</time>
      </trkpt>
      <trkpt lat="46.02282" lon="1.06051">
        <ele>408.1</ele>
        <time>2022-10-02T08:19:44Z</time>
      </trkpt>
      <trkpt lat="46.02279" lon="1.06058">
        <ele>408.2</ele>
        <time>2022-10-02T08:19:45Z</time>
      </trkpt>
      <trkpt lat="46.02276" lon="1.06063">
        <ele>408.3</ele>
        <time>2022-10-02T08:19:46Z</time>
      </trkpt>
      <trkpt lat="46.02274" lon="1.06068">
        <ele>408.4</ele>
        <time>2022-10-02T08:19:47Z</time>
      </trkpt>
      <trkpt lat="46.02272" lon="1.06073">
        <ele>408.6</ele>
        <time>2022-10-02T08:19:48Z</time>
      </trkpt>
      <trkpt lat="46.02269" lon="1.06079">
        <ele>408.7</ele>
        <time>2022-10-02T08:19:49Z</time>
      </trkpt>
      <trkpt lat="46.02267" lon="1.06083">
        <ele>408.8</ele>
        <time>2022-10-02T08:19:50Z</time>
      </trkpt>
      <trkpt lat="46.02264" lon="1.06087">
        <ele>408.9</ele>
        <time>2022-10-02T08:19:51Z</time>
      </trkpt>
      <trkpt lat="46.02261" lon="1.06091">
        <ele>409</ele>
        <time>2022-10-02T08:19:52Z</time>
      </trkpt>
      <trkpt lat="46.02258" lon="1.06094">
        <ele>409.1</ele>
        <time>2022-10-02T08:19:53Z</time>
      </trkpt>
      <trkpt lat="46.02255" lon="1.06097">
        <ele>409.1</ele>
        <time>2022-10-02T08:19:54Z</time>
      </trkpt>
      <trkpt lat="46.02252" lon="1.06101">
        <ele>409.1</ele>
        <time>2022-10-02T08:19:55Z</time>
      </trkpt>
      <trkpt lat="46.0225" lon="1.06104">
        <ele>409.1</ele>
        <time>2022-10-02T08:19:56Z</time>
      </trkpt>
      <trkpt lat="46.02248" lon="1.06107">
        <ele>409.1</ele>
        <time>2022-10-02T08:19:57Z</time>
      </trkpt>
      <trkpt lat="46.02246" lon="1.06111">
        <ele>409.1</ele>
        <time>2022-10-02T08:19:58Z</time>
      </trkpt>
      <trkpt lat="46.02243" lon="1.06115">
        <ele>409</ele>
        <time>2022-10-02T08:19:59Z</time>
      </trkpt>
      <trkpt lat="46.02241" lon="1.06119">
        <ele>408.9</ele>
        <time>2022-10-02T08:20:00Z</time>
      </trkpt>
      <trkpt lat="46.02239" lon="1.06126">
        <ele>408.8</ele>
        <time>2022-10-02T08:20:01Z</time>
      </trkpt>
      <trkpt lat="46.02236" lon="1.06131">
        <ele>408.7</ele>
        <time>2022-10-02T08:20:02Z</time>
      </trkpt>
      <trkpt lat="46.02234" lon="1.06137">
        <ele>408.5</ele>
        <time>2022-10-02T08:20:03Z</time>
      </trkpt>
      <trkpt lat="46.02231" lon="1.06142">
        <ele>408.4</ele>
        <time>2022-10-02T08:20:04Z</time>
      </trkpt>
      <trkpt lat="46.02228" lon="1.06148">
        <ele>408.2</ele>
        <time>2022-10-02T08:20:05Z</time>
      </trkpt>
      <trkpt lat="46.02225" lon="1.06156">
        <ele>408</ele>
        <time>2022-10-02T08:20:06Z</time>
      </trkpt>
      <trkpt lat="46.02222" lon="1.06161">
        <ele>407.8</ele>
        <time>2022-10-02T08:20:07Z</time>
      </trkpt>
      <trkpt lat="46.02218" lon="1.06166">
        <ele>407.6</ele>
        <time>2022-10-02T08:20:08Z</time>
      </trkpt>
      <trkpt lat="46.02218" lon="1.06172">
        <ele>407.5</ele>
        <time>2022-10-02T08:20:09Z</time>
      </trkpt>
      <trkpt lat="46.02217" lon="1.06181">
        <ele>407.4</ele>
        <time>2022-10-02T08:20:10Z</time>
      </trkpt>
      <trkpt lat="46.02217" lon="1.06186">
        <ele>407.3</ele>
        <time>2022-10-02T08:20:11Z</time>
      </trkpt>
      <trkpt lat="46.02217" lon="1.06192">
        <ele>407.2</ele>
        <time>2022-10-02T08:20:12Z</time>
      </trkpt>
      <trkpt lat="46.02217" lon="1.06198">
        <ele>407.1</ele>
        <time>2022-10-02T08:20:13Z</time>
      </trkpt>
      <trkpt lat="46.02216" lon="1.06205">
        <ele>407</ele>
        <time>2022-10-02T08:20:14Z</time>
      </trkpt>
      <trkpt lat="46.02216" lon="1.06209">
        <ele>406.9</ele>
        <time>2022-10-02T08:20:15Z</time>
      </trkpt>
      <trkpt lat="46.02215" lon="1.06215">
        <ele>406.8</ele>
        <time>2022-10-02T08:20:16Z</time>
      </trkpt>
      <trkpt lat="46.02214" lon="1.06221">
        <ele>406.7</ele>
        <time>2022-10-02T08:20:17Z</time>
      </trkpt>
      <trkpt lat="46.02214" lon="1.06229">
        <ele>406.5</ele>
        <time>2022-10-02T08:20:18Z</time>
      </trkpt>
      <trkpt lat="46.02214" lon="1.06236">
        <ele>406.4</ele>
        <time>2022-10-02T08:20:19Z</time>
      </trkpt>
      <trkpt lat="46.02214" lon="1.0624">
        <ele>406.3</ele>
        <time>2022-10-02T08:20:20Z</time>
      </trkpt>
      <trkpt lat="46.02216" lon="1.06246">
        <ele>406.2</ele>
        <time>2022-10-02T08:20:21Z</time>
      </trkpt>
      <trkpt lat="46.02217" lon="1.06254">
        <ele>406.1</ele>
        <time>2022-10-02T08:20:22Z</time>
      </trkpt>
      <trkpt lat="46.02218" lon="1.06259">
        <ele>406</ele>
        <time>2022-10-02T08:20:23Z</time>
      </trkpt>
      <trkpt lat="46.02219" lon="1.06266">
        <ele>405.9</ele>
        <time>2022-10-02T08:20:24Z</time>
      </trkpt>
      <trkpt lat="46.0222" lon="1.06271">
        <ele>405.8</ele>
        <time>2022-10-02T08:20:25Z</time>
      </trkpt>
      <trkpt lat="46.02221" lon="1.06277">
        <ele>405.7</ele>
        <time>2022-10-02T08:20:26Z</time>
      </trkpt>
      <trkpt lat="46.02222" lon="1.06287">
        <ele>405.5</ele>
        <time>2022-10-02T08:20:27Z</time>
      </trkpt>
      <trkpt lat="46.02221" lon="1.06296">
        <ele>405.3</ele>
        <time>2022-10-02T08:20:28Z</time>
      </trkpt>
      <trkpt lat="46.02221" lon="1.06305">
        <ele>405</ele>
        <time>2022-10-02T08:20:29Z</time>
      </trkpt>
      <trkpt lat="46.02222" lon="1.06313">
        <ele>404.8</ele>
        <time>2022-10-02T08:20:30Z</time>
      </trkpt>
      <trkpt lat="46.02222" lon="1.0632">
        <ele>404.5</ele>
        <time>2022-10-02T08:20:31Z</time>
      </trkpt>
      <trkpt lat="46.02225" lon="1.06328">
        <ele>404.1</ele>
        <time>2022-10-02T08:20:32Z</time>
      </trkpt>
      <trkpt lat="46.02225" lon="1.06336">
        <ele>403.8</ele>
        <time>2022-10-02T08:20:33Z</time>
      </trkpt>
      <trkpt lat="46.02226" lon="1.06344">
        <ele>403.4</ele>
        <time>2022-10-02T08:20:34Z</time>
      </trkpt>
      <trkpt lat="46.02227" lon="1.06352">
        <ele>402.9</ele>
        <time>2022-10-02T08:20:35Z</time>
      </trkpt>
      <trkpt lat="46.02229" lon="1.06361">
        <ele>402.3</ele>
        <time>2022-10-02T08:20:36Z</time>
      </trkpt>
      <trkpt lat="46.0223" lon="1.06367">
        <ele>402</ele>
        <time>2022-10-02T08:20:37Z</time>
      </trkpt>
      <trkpt lat="46.02231" lon="1.06371">
        <ele>401.7</ele>
        <time>2022-10-02T08:20:38Z</time>
      </trkpt>
      <trkpt lat="46.0223" lon="1.06373">
        <ele>401.5</ele>
        <time>2022-10-02T08:20:39Z</time>
      </trkpt>
      <trkpt lat="46.0223" lon="1.0638">
        <ele>401.1</ele>
        <time>2022-10-02T08:20:40Z</time>
      </trkpt>
      <trkpt lat="46.02233" lon="1.0639">
        <ele>400.5</ele>
        <time>2022-10-02T08:20:41Z</time>
      </trkpt>
      <trkpt lat="46.02232" lon="1.06396">
        <ele>400.1</ele>
        <time>2022-10-02T08:20:42Z</time>
      </trkpt>
      <trkpt lat="46.02233" lon="1.06404">
        <ele>399.7</ele>
        <time>2022-10-02T08:20:43Z</time>
      </trkpt>
      <trkpt lat="46.02236" lon="1.06412">
        <ele>399.2</ele>
        <time>2022-10-02T08:20:44Z</time>
      </trkpt>
      <trkpt lat="46.02237" lon="1.06419">
        <ele>398.8</ele>
        <time>2022-10-02T08:20:45Z</time>
      </trkpt>
      <trkpt lat="46.02237" lon="1.06426">
        <ele>398.5</ele>
        <time>2022-10-02T08:20:46Z</time>
      </trkpt>
      <trkpt lat="46.02239" lon="1.06434">
        <ele>398.1</ele>
        <time>2022-10-02T08:20:47Z</time>
      </trkpt>
      <trkpt lat="46.02243" lon="1.06441">
        <ele>397.8</ele>
        <time>2022-10-02T08:20:48Z</time>
      </trkpt>
      <trkpt lat="46.02244" lon="1.06449">
        <ele>397.5</ele>
        <time>2022-10-02T08:20:49Z</time>
      </trkpt>
      <trkpt lat="46.02244" lon="1.06458">
        <ele>397.3</ele>
        <time>2022-10-02T08:20:50Z</time>
      </trkpt>
      <trkpt lat="46.02246" lon="1.06466">
        <ele>397</ele>
        <time>2022-10-02T08:20:51Z</time>
      </trkpt>
      <trkpt lat="46.02248" lon="1.06475">
        <ele>396.8</ele>
        <time>2022-10-02T08:20:52Z</time>
      </trkpt>
      <trkpt lat="46.02248" lon="1.0648">
        <ele>396.7</ele>
        <time>2022-10-02T08:20:53Z</time>
      </trkpt>
      <trkpt lat="46.02249" lon="1.06486">
        <ele>396.6</ele>
        <time>2022-10-02T08:20:54Z</time>
      </trkpt>
      <trkpt lat="46.02252" lon="1.06493">
        <ele>396.5</ele>
        <time>2022-10-02T08:20:55Z</time>
      </trkpt>
      <trkpt lat="46.02254" lon="1.065">
        <ele>396.4</ele>
        <time>2022-10-02T08:20:56Z</time>
      </trkpt>
      <trkpt lat="46.02255" lon="1.06507">
        <ele>396.3</ele>
        <time>2022-10-02T08:20:57Z</time>
      </trkpt>
      <trkpt lat="46.02256" lon="1.06513">
        <ele>396.2</ele>
        <time>2022-10-02T08:20:58Z</time>
      </trkpt>
      <trkpt lat="46.02258" lon="1.06519">
        <ele>396.1</ele>
        <time>2022-10-02T08:20:59Z</time>
      </trkpt>
      <trkpt lat="46.0226" lon="1.06526">
        <ele>396.1</ele>
        <time>2022-10-02T08:21:00Z</time>
      </trkpt>
      <trkpt lat="46.02261" lon="1.06532">
        <ele>396</ele>
        <time>2022-10-02T08:21:01Z</time>
      </trkpt>
      <trkpt lat="46.0226" lon="1.06537">
        <ele>396</ele>
        <time>2022-10-02T08:21:02Z</time>
      </trkpt>
      <trkpt lat="46.02262" lon="1.06545">
        <ele>395.7</ele>
        <time>2022-10-02T08:21:03Z</time>
      </trkpt>
      <trkpt lat="46.02262" lon="1.06554">
        <ele>395.1</ele>
        <time>2022-10-02T08:21:04Z</time>
      </trkpt>
      <trkpt lat="46.02262" lon="1.06561">
        <ele>394.7</ele>
        <time>2022-10-02T08:21:05Z</time>
      </trkpt>
      <trkpt lat="46.02263" lon="1.06567">
        <ele>394.3</ele>
        <time>2022-10-02T08:21:06Z</time>
      </trkpt>
      <trkpt lat="46.02264" lon="1.06571">
        <ele>394.1</ele>
        <time>2022-10-02T08:21:07Z</time>
      </trkpt>
      <trkpt lat="46.02263" lon="1.06572">
        <ele>393.9</ele>
        <time>2022-10-02T08:21:08Z</time>
      </trkpt>
      <trkpt lat="46.02264" lon="1.06576">
        <ele>393.7</ele>
        <time>2022-10-02T08:21:09Z</time>
      </trkpt>
      <trkpt lat="46.02264" lon="1.06582">
        <ele>393.3</ele>
        <time>2022-10-02T08:21:10Z</time>
      </trkpt>
      <trkpt lat="46.02264" lon="1.0659">
        <ele>392.9</ele>
        <time>2022-10-02T08:21:11Z</time>
      </trkpt>
      <trkpt lat="46.02266" lon="1.06596">
        <ele>392.6</ele>
        <time>2022-10-02T08:21:12Z</time>
      </trkpt>
      <trkpt lat="46.02268" lon="1.06603">
        <ele>392.2</ele>
        <time>2022-10-02T08:21:13Z</time>
      </trkpt>
      <trkpt lat="46.02271" lon="1.06609">
        <ele>392</ele>
        <time>2022-10-02T08:21:14Z</time>
      </trkpt>
      <trkpt lat="46.02273" lon="1.06615">
        <ele>391.7</ele>
        <time>2022-10-02T08:21:15Z</time>
      </trkpt>
      <trkpt lat="46.02276" lon="1.06621">
        <ele>391.4</ele>
        <time>2022-10-02T08:21:16Z</time>
      </trkpt>
      <trkpt lat="46.02275" lon="1.06627">
        <ele>391.1</ele>
        <time>2022-10-02T08:21:17Z</time>
      </trkpt>
      <trkpt lat="46.02278" lon="1.06633">
        <ele>390.8</ele>
        <time>2022-10-02T08:21:18Z</time>
      </trkpt>
      <trkpt lat="46.02279" lon="1.0664">
        <ele>390.5</ele>
        <time>2022-10-02T08:21:19Z</time>
      </trkpt>
      <trkpt lat="46.02279" lon="1.06647">
        <ele>390.1</ele>
        <time>2022-10-02T08:21:20Z</time>
      </trkpt>
      <trkpt lat="46.0228" lon="1.06655">
        <ele>389.5</ele>
        <time>2022-10-02T08:21:21Z</time>
      </trkpt>
      <trkpt lat="46.02279" lon="1.06665">
        <ele>388.9</ele>
        <time>2022-10-02T08:21:22Z</time>
      </trkpt>
      <trkpt lat="46.02279" lon="1.06676">
        <ele>388</ele>
        <time>2022-10-02T08:21:23Z</time>
      </trkpt>
      <trkpt lat="46.02279" lon="1.06685">
        <ele>387.4</ele>
        <time>2022-10-02T08:21:24Z</time>
      </trkpt>
      <trkpt lat="46.02278" lon="1.06693">
        <ele>386.7</ele>
        <time>2022-10-02T08:21:25Z</time>
      </trkpt>
      <trkpt lat="46.02277" lon="1.06701">
        <ele>386.1</ele>
        <time>2022-10-02T08:21:26Z</time>
      </trkpt>
      <trkpt lat="46.02274" lon="1.06705">
        <ele>385.6</ele>
        <time>2022-10-02T08:21:27Z</time>
      </trkpt>
      <trkpt lat="46.02271" lon="1.0671">
        <ele>385.1</ele>
        <time>2022-10-02T08:21:28Z</time>
      </trkpt>
      <trkpt lat="46.02269" lon="1.06716">
        <ele>384.6</ele>
        <time>2022-10-02T08:21:29Z</time>
      </trkpt>
      <trkpt lat="46.02267" lon="1.06722">
        <ele>384.1</ele>
        <time>2022-10-02T08:21:30Z</time>
      </trkpt>
      <trkpt lat="46.02268" lon="1.06729">
        <ele>383.5</ele>
        <time>2022-10-02T08:21:31Z</time>
      </trkpt>
      <trkpt lat="46.02267" lon="1.06735">
        <ele>383.1</ele>
        <time>2022-10-02T08:21:32Z</time>
      </trkpt>
      <trkpt lat="46.02266" lon="1.0674">
        <ele>382.8</ele>
        <time>2022-10-02T08:21:33Z</time>
      </trkpt>
      <trkpt lat="46.02266" lon="1.06749">
        <ele>382.2</ele>
        <time>2022-10-02T08:21:34Z</time>
      </trkpt>
      <trkpt lat="46.02266" lon="1.06757">
        <ele>381.7</ele>
        <time>2022-10-02T08:21:35Z</time>
      </trkpt>
      <trkpt lat="46.02265" lon="1.06765">
        <ele>381.3</ele>
        <time>2022-10-02T08:21:36Z</time>
      </trkpt>
      <trkpt lat="46.02265" lon="1.06773">
        <ele>380.9</ele>
        <time>2022-10-02T08:21:37Z</time>
      </trkpt>
      <trkpt lat="46.02264" lon="1.06781">
        <ele>380.6</ele>
        <time>2022-10-02T08:21:38Z</time>
      </trkpt>
      <trkpt lat="46.02265" lon="1.0679">
        <ele>380.3</ele>
        <time>2022-10-02T08:21:39Z</time>
      </trkpt>
      <trkpt lat="46.02265" lon="1.06798">
        <ele>380</ele>
        <time>2022-10-02T08:21:40Z</time>
      </trkpt>
      <trkpt lat="46.02267" lon="1.06805">
        <ele>379.8</ele>
        <time>2022-10-02T08:21:41Z</time>
      </trkpt>
      <trkpt lat="46.02267" lon="1.06811">
        <ele>379.6</ele>
        <time>2022-10-02T08:21:42Z</time>
      </trkpt>
      <trkpt lat="46.02269" lon="1.06819">
        <ele>379.4</ele>
        <time>2022-10-02T08:21:43Z</time>
      </trkpt>
      <trkpt lat="46.02269" lon="1.06826">
        <ele>379.2</ele>
        <time>2022-10-02T08:21:45Z</time>
      </trkpt>
      <trkpt lat="46.0227" lon="1.06833">
        <ele>379</ele>
        <time>2022-10-02T08:21:46Z</time>
      </trkpt>
      <trkpt lat="46.02272" lon="1.06839">
        <ele>379</ele>
        <time>2022-10-02T08:21:47Z</time>
      </trkpt>
      <trkpt lat="46.02273" lon="1.06845">
        <ele>379.2</ele>
        <time>2022-10-02T08:21:48Z</time>
      </trkpt>
      <trkpt lat="46.02274" lon="1.06852">
        <ele>379.3</ele>
        <time>2022-10-02T08:21:49Z</time>
      </trkpt>
      <trkpt lat="46.02274" lon="1.06858">
        <ele>379.3</ele>
        <time>2022-10-02T08:21:50Z</time>
      </trkpt>
      <trkpt lat="46.02274" lon="1.06867">
        <ele>379.2</ele>
        <time>2022-10-02T08:21:51Z</time>
      </trkpt>
      <trkpt lat="46.02275" lon="1.06874">
        <ele>379.1</ele>
        <time>2022-10-02T08:21:52Z</time>
      </trkpt>
      <trkpt lat="46.02275" lon="1.06882">
        <ele>378.9</ele>
        <time>2022-10-02T08:21:53Z</time>
      </trkpt>
      <trkpt lat="46.02275" lon="1.0689">
        <ele>378.7</ele>
        <time>2022-10-02T08:21:54Z</time>
      </trkpt>
      <trkpt lat="46.02274" lon="1.06897">
        <ele>378.5</ele>
        <time>2022-10-02T08:21:55Z</time>
      </trkpt>
      <trkpt lat="46.02273" lon="1.06905">
        <ele>378.2</ele>
        <time>2022-10-02T08:21:56Z</time>
      </trkpt>
      <trkpt lat="46.02273" lon="1.06911">
        <ele>378</ele>
        <time>2022-10-02T08:21:57Z</time>
      </trkpt>
      <trkpt lat="46.02273" lon="1.06918">
        <ele>377.7</ele>
        <time>2022-10-02T08:21:58Z</time>
      </trkpt>
      <trkpt lat="46.02272" lon="1.06925">
        <ele>377.4</ele>
        <time>2022-10-02T08:21:59Z</time>
      </trkpt>
      <trkpt lat="46.02271" lon="1.06932">
        <ele>377</ele>
        <time>2022-10-02T08:22:00Z</time>
      </trkpt>
      <trkpt lat="46.0227" lon="1.06938">
        <ele>376.6</ele>
        <time>2022-10-02T08:22:01Z</time>
      </trkpt>
      <trkpt lat="46.02267" lon="1.06945">
        <ele>376.1</ele>
        <time>2022-10-02T08:22:02Z</time>
      </trkpt>
      <trkpt lat="46.02264" lon="1.06951">
        <ele>375.5</ele>
        <time>2022-10-02T08:22:03Z</time>
      </trkpt>
      <trkpt lat="46.02261" lon="1.0696">
        <ele>374.5</ele>
        <time>2022-10-02T08:22:04Z</time>
      </trkpt>
      <trkpt lat="46.02259" lon="1.06969">
        <ele>373.6</ele>
        <time>2022-10-02T08:22:05Z</time>
      </trkpt>
      <trkpt lat="46.02256" lon="1.06976">
        <ele>372.9</ele>
        <time>2022-10-02T08:22:06Z</time>
      </trkpt>
      <trkpt lat="46.02255" lon="1.06986">
        <ele>372</ele>
        <time>2022-10-02T08:22:07Z</time>
      </trkpt>
      <trkpt lat="46.02254" lon="1.06994">
        <ele>371.2</ele>
        <time>2022-10-02T08:22:08Z</time>
      </trkpt>
      <trkpt lat="46.02255" lon="1.07004">
        <ele>370.3</ele>
        <time>2022-10-02T08:22:09Z</time>
      </trkpt>
      <trkpt lat="46.02256" lon="1.07011">
        <ele>369.7</ele>
        <time>2022-10-02T08:22:10Z</time>
      </trkpt>
      <trkpt lat="46.02255" lon="1.0702">
        <ele>369</ele>
        <time>2022-10-02T08:22:11Z</time>
      </trkpt>
      <trkpt lat="46.02256" lon="1.07029">
        <ele>368.2</ele>
        <time>2022-10-02T08:22:12Z</time>
      </trkpt>
      <trkpt lat="46.02257" lon="1.07037">
        <ele>367.6</ele>
        <time>2022-10-02T08:22:13Z</time>
      </trkpt>
      <trkpt lat="46.02259" lon="1.07045">
        <ele>366.9</ele>
        <time>2022-10-02T08:22:14Z</time>
      </trkpt>
      <trkpt lat="46.02261" lon="1.07053">
        <ele>366.3</ele>
        <time>2022-10-02T08:22:15Z</time>
      </trkpt>
      <trkpt lat="46.02264" lon="1.07057">
        <ele>365.8</ele>
        <time>2022-10-02T08:22:16Z</time>
      </trkpt>
      <trkpt lat="46.02269" lon="1.07063">
        <ele>365.1</ele>
        <time>2022-10-02T08:22:17Z</time>
      </trkpt>
      <trkpt lat="46.02274" lon="1.07069">
        <ele>364.3</ele>
        <time>2022-10-02T08:22:18Z</time>
      </trkpt>
      <trkpt lat="46.02277" lon="1.07078">
        <ele>363.5</ele>
        <time>2022-10-02T08:22:19Z</time>
      </trkpt>
      <trkpt lat="46.02281" lon="1.07085">
        <ele>362.6</ele>
        <time>2022-10-02T08:22:20Z</time>
      </trkpt>
      <trkpt lat="46.02283" lon="1.07093">
        <ele>361.8</ele>
        <time>2022-10-02T08:22:21Z</time>
      </trkpt>
      <trkpt lat="46.02285" lon="1.07102">
        <ele>360.9</ele>
        <time>2022-10-02T08:22:22Z</time>
      </trkpt>
      <trkpt lat="46.02286" lon="1.0711">
        <ele>360.1</ele>
        <time>2022-10-02T08:22:23Z</time>
      </trkpt>
      <trkpt lat="46.02287" lon="1.07119">
        <ele>359.3</ele>
        <time>2022-10-02T08:22:24Z</time>
      </trkpt>
      <trkpt lat="46.02286" lon="1.07127">
        <ele>358.6</ele>
        <time>2022-10-02T08:22:25Z</time>
      </trkpt>
      <trkpt lat="46.02285" lon="1.07135">
        <ele>357.9</ele>
        <time>2022-10-02T08:22:26Z</time>
      </trkpt>
      <trkpt lat="46.02286" lon="1.07142">
        <ele>357.4</ele>
        <time>2022-10-02T08:22:27Z</time>
      </trkpt>
      <trkpt lat="46.02288" lon="1.0715">
        <ele>356.8</ele>
        <time>2022-10-02T08:22:28Z</time>
      </trkpt>
      <trkpt lat="46.0229" lon="1.07156">
        <ele>355.9</ele>
        <time>2022-10-02T08:22:29Z</time>
      </trkpt>
      <trkpt lat="46.02293" lon="1.07164">
        <ele>355</ele>
        <time>2022-10-02T08:22:30Z</time>
      </trkpt>
      <trkpt lat="46.02295" lon="1.07171">
        <ele>354.2</ele>
        <time>2022-10-02T08:22:31Z</time>
      </trkpt>
      <trkpt lat="46.02298" lon="1.07176">
        <ele>353.5</ele>
        <time>2022-10-02T08:22:32Z</time>
      </trkpt>
      <trkpt lat="46.02301" lon="1.07183">
        <ele>352.6</ele>
        <time>2022-10-02T08:22:33Z</time>
      </trkpt>
      <trkpt lat="46.02304" lon="1.07189">
        <ele>351.9</ele>
        <time>2022-10-02T08:22:34Z</time>
      </trkpt>
      <trkpt lat="46.02305" lon="1.07197">
        <ele>351.1</ele>
        <time>2022-10-02T08:22:35Z</time>
      </trkpt>
      <trkpt lat="46.02309" lon="1.07202">
        <ele>350.3</ele>
        <time>2022-10-02T08:22:36Z</time>
      </trkpt>
      <trkpt lat="46.02312" lon="1.07207">
        <ele>349.7</ele>
        <time>2022-10-02T08:22:37Z</time>
      </trkpt>
      <trkpt lat="46.02313" lon="1.07212">
        <ele>349.2</ele>
        <time>2022-10-02T08:22:38Z</time>
      </trkpt>
      <trkpt lat="46.02312" lon="1.07218">
        <ele>348.7</ele>
        <time>2022-10-02T08:22:39Z</time>
      </trkpt>
      <trkpt lat="46.0231" lon="1.07221">
        <ele>348.4</ele>
        <time>2022-10-02T08:22:40Z</time>
      </trkpt>
      <trkpt lat="46.02311" lon="1.07229">
        <ele>347.7</ele>
        <time>2022-10-02T08:22:41Z</time>
      </trkpt>
      <trkpt lat="46.02311" lon="1.07235">
        <ele>347.2</ele>
        <time>2022-10-02T08:22:42Z</time>
      </trkpt>
      <trkpt lat="46.0231" lon="1.07239">
        <ele>346.8</ele>
        <time>2022-10-02T08:22:43Z</time>
      </trkpt>
      <trkpt lat="46.02309" lon="1.07244">
        <ele>346.4</ele>
        <time>2022-10-02T08:22:44Z</time>
      </trkpt>
      <trkpt lat="46.02308" lon="1.07253">
        <ele>345.8</ele>
        <time>2022-10-02T08:22:45Z</time>
      </trkpt>
      <trkpt lat="46.02307" lon="1.07261">
        <ele>345.3</ele>
        <time>2022-10-02T08:22:46Z</time>
      </trkpt>
      <trkpt lat="46.02308" lon="1.07269">
        <ele>344.9</ele>
        <time>2022-10-02T08:22:47Z</time>
      </trkpt>
      <trkpt lat="46.02308" lon="1.07277">
        <ele>344.6</ele>
        <time>2022-10-02T08:22:48Z</time>
      </trkpt>
      <trkpt lat="46.02309" lon="1.07284">
        <ele>344.2</ele>
        <time>2022-10-02T08:22:49Z</time>
      </trkpt>
      <trkpt lat="46.02307" lon="1.07291">
        <ele>343.9</ele>
        <time>2022-10-02T08:22:50Z</time>
      </trkpt>
      <trkpt lat="46.02305" lon="1.07299">
        <ele>343.5</ele>
        <time>2022-10-02T08:22:51Z</time>
      </trkpt>
      <trkpt lat="46.02302" lon="1.07306">
        <ele>343.1</ele>
        <time>2022-10-02T08:22:52Z</time>
      </trkpt>
      <trkpt lat="46.02298" lon="1.07315">
        <ele>342.6</ele>
        <time>2022-10-02T08:22:53Z</time>
      </trkpt>
      <trkpt lat="46.02296" lon="1.07323">
        <ele>342.3</ele>
        <time>2022-10-02T08:22:54Z</time>
      </trkpt>
      <trkpt lat="46.02294" lon="1.07332">
        <ele>341.9</ele>
        <time>2022-10-02T08:22:55Z</time>
      </trkpt>
      <trkpt lat="46.02291" lon="1.0734">
        <ele>341.6</ele>
        <time>2022-10-02T08:22:56Z</time>
      </trkpt>
      <trkpt lat="46.02288" lon="1.07347">
        <ele>341.3</ele>
        <time>2022-10-02T08:22:57Z</time>
      </trkpt>
      <trkpt lat="46.02287" lon="1.07355">
        <ele>341</ele>
        <time>2022-10-02T08:22:58Z</time>
      </trkpt>
      <trkpt lat="46.02286" lon="1.07363">
        <ele>340.8</ele>
        <time>2022-10-02T08:22:59Z</time>
      </trkpt>
      <trkpt lat="46.02284" lon="1.07371">
        <ele>340.4</ele>
        <time>2022-10-02T08:23:00Z</time>
      </trkpt>
      <trkpt lat="46.02283" lon="1.07378">
        <ele>340.1</ele>
        <time>2022-10-02T08:23:01Z</time>
      </trkpt>
      <trkpt lat="46.02282" lon="1.07386">
        <ele>339.8</ele>
        <time>2022-10-02T08:23:02Z</time>
      </trkpt>
      <trkpt lat="46.0228" lon="1.07392">
        <ele>339.5</ele>
        <time>2022-10-02T08:23:03Z</time>
      </trkpt>
      <trkpt lat="46.0228" lon="1.07399">
        <ele>339.1</ele>
        <time>2022-10-02T08:23:04Z</time>
      </trkpt>
      <trkpt lat="46.0228" lon="1.07411">
        <ele>338.4</ele>
        <time>2022-10-02T08:23:05Z</time>
      </trkpt>
      <trkpt lat="46.02278" lon="1.07423">
        <ele>337.7</ele>
        <time>2022-10-02T08:23:06Z</time>
      </trkpt>
      <trkpt lat="46.02275" lon="1.07435">
        <ele>336.9</ele>
        <time>2022-10-02T08:23:07Z</time>
      </trkpt>
      <trkpt lat="46.02271" lon="1.07444">
        <ele>336.2</ele>
        <time>2022-10-02T08:23:08Z</time>
      </trkpt>
      <trkpt lat="46.0227" lon="1.07455">
        <ele>335.6</ele>
        <time>2022-10-02T08:23:09Z</time>
      </trkpt>
      <trkpt lat="46.02268" lon="1.07464">
        <ele>335.1</ele>
        <time>2022-10-02T08:23:10Z</time>
      </trkpt>
      <trkpt lat="46.02266" lon="1.07477">
        <ele>334.4</ele>
        <time>2022-10-02T08:23:11Z</time>
      </trkpt>
      <trkpt lat="46.02266" lon="1.07488">
        <ele>333.9</ele>
        <time>2022-10-02T08:23:12Z</time>
      </trkpt>
      <trkpt lat="46.02266" lon="1.07501">
        <ele>333.4</ele>
        <time>2022-10-02T08:23:13Z</time>
      </trkpt>
      <trkpt lat="46.02265" lon="1.07511">
        <ele>333</ele>
        <time>2022-10-02T08:23:14Z</time>
      </trkpt>
      <trkpt lat="46.02264" lon="1.07522">
        <ele>332.5</ele>
        <time>2022-10-02T08:23:15Z</time>
      </trkpt>
      <trkpt lat="46.02261" lon="1.07532">
        <ele>332.4</ele>
        <time>2022-10-02T08:23:16Z</time>
      </trkpt>
      <trkpt lat="46.02259" lon="1.07543">
        <ele>332.3</ele>
        <time>2022-10-02T08:23:17Z</time>
      </trkpt>
      <trkpt lat="46.02258" lon="1.07554">
        <ele>332.2</ele>
        <time>2022-10-02T08:23:18Z</time>
      </trkpt>
      <trkpt lat="46.02257" lon="1.07564">
        <ele>332.2</ele>
        <time>2022-10-02T08:23:19Z</time>
      </trkpt>
      <trkpt lat="46.02256" lon="1.07572">
        <ele>332.1</ele>
        <time>2022-10-02T08:23:20Z</time>
      </trkpt>
      <trkpt lat="46.02255" lon="1.07582">
        <ele>332.1</ele>
        <time>2022-10-02T08:23:21Z</time>
      </trkpt>
      <trkpt lat="46.02254" lon="1.07591">
        <ele>332</ele>
        <time>2022-10-02T08:23:22Z</time>
      </trkpt>
      <trkpt lat="46.02254" lon="1.07599">
        <ele>332</ele>
        <time>2022-10-02T08:23:23Z</time>
      </trkpt>
      <trkpt lat="46.02253" lon="1.07607">
        <ele>331.9</ele>
        <time>2022-10-02T08:23:24Z</time>
      </trkpt>
      <trkpt lat="46.02251" lon="1.07615">
        <ele>331.9</ele>
        <time>2022-10-02T08:23:25Z</time>
      </trkpt>
      <trkpt lat="46.0225" lon="1.07624">
        <ele>331.8</ele>
        <time>2022-10-02T08:23:26Z</time>
      </trkpt>
      <trkpt lat="46.0225" lon="1.07632">
        <ele>331.8</ele>
        <time>2022-10-02T08:23:27Z</time>
      </trkpt>
      <trkpt lat="46.02249" lon="1.07641">
        <ele>331.8</ele>
        <time>2022-10-02T08:23:28Z</time>
      </trkpt>
      <trkpt lat="46.02247" lon="1.07649">
        <ele>331.9</ele>
        <time>2022-10-02T08:23:29Z</time>
      </trkpt>
      <trkpt lat="46.02246" lon="1.07658">
        <ele>331.9</ele>
        <time>2022-10-02T08:23:30Z</time>
      </trkpt>
      <trkpt lat="46.02245" lon="1.07666">
        <ele>331.9</ele>
        <time>2022-10-02T08:23:31Z</time>
      </trkpt>
      <trkpt lat="46.02243" lon="1.07674">
        <ele>332</ele>
        <time>2022-10-02T08:23:32Z</time>
      </trkpt>
      <trkpt lat="46.0224" lon="1.07681">
        <ele>332.1</ele>
        <time>2022-10-02T08:23:33Z</time>
      </trkpt>
      <trkpt lat="46.02237" lon="1.07688">
        <ele>332.2</ele>
        <time>2022-10-02T08:23:34Z</time>
      </trkpt>
      <trkpt lat="46.02238" lon="1.07696">
        <ele>332.4</ele>
        <time>2022-10-02T08:23:35Z</time>
      </trkpt>
      <trkpt lat="46.02236" lon="1.07702">
        <ele>332.5</ele>
        <time>2022-10-02T08:23:36Z</time>
      </trkpt>
      <trkpt lat="46.02234" lon="1.07708">
        <ele>332.5</ele>
        <time>2022-10-02T08:23:37Z</time>
      </trkpt>
      <trkpt lat="46.02232" lon="1.07714">
        <ele>332.6</ele>
        <time>2022-10-02T08:23:38Z</time>
      </trkpt>
      <trkpt lat="46.02229" lon="1.07725">
        <ele>332.7</ele>
        <time>2022-10-02T08:23:39Z</time>
      </trkpt>
      <trkpt lat="46.02228" lon="1.0773">
        <ele>332.7</ele>
        <time>2022-10-02T08:23:40Z</time>
      </trkpt>
      <trkpt lat="46.02227" lon="1.07735">
        <ele>332.7</ele>
        <time>2022-10-02T08:23:41Z</time>
      </trkpt>
      <trkpt lat="46.02225" lon="1.07739">
        <ele>332.6</ele>
        <time>2022-10-02T08:23:42Z</time>
      </trkpt>
      <trkpt lat="46.02224" lon="1.07743">
        <ele>332.6</ele>
        <time>2022-10-02T08:23:43Z</time>
      </trkpt>
      <trkpt lat="46.02223" lon="1.07749">
        <ele>332.4</ele>
        <time>2022-10-02T08:23:44Z</time>
      </trkpt>
      <trkpt lat="46.02221" lon="1.07757">
        <ele>332.2</ele>
        <time>2022-10-02T08:23:45Z</time>
      </trkpt>
      <trkpt lat="46.0222" lon="1.07762">
        <ele>332</ele>
        <time>2022-10-02T08:23:46Z</time>
      </trkpt>
      <trkpt lat="46.02217" lon="1.07766">
        <ele>331.8</ele>
        <time>2022-10-02T08:23:47Z</time>
      </trkpt>
      <trkpt lat="46.02216" lon="1.07773">
        <ele>331.5</ele>
        <time>2022-10-02T08:23:48Z</time>
      </trkpt>
      <trkpt lat="46.02214" lon="1.07781">
        <ele>331.1</ele>
        <time>2022-10-02T08:23:49Z</time>
      </trkpt>
      <trkpt lat="46.02211" lon="1.07787">
        <ele>330.7</ele>
        <time>2022-10-02T08:23:50Z</time>
      </trkpt>
      <trkpt lat="46.0221" lon="1.07795">
        <ele>330.2</ele>
        <time>2022-10-02T08:23:51Z</time>
      </trkpt>
      <trkpt lat="46.02208" lon="1.07803">
        <ele>329.7</ele>
        <time>2022-10-02T08:23:52Z</time>
      </trkpt>
      <trkpt lat="46.02206" lon="1.07809">
        <ele>329.2</ele>
        <time>2022-10-02T08:23:53Z</time>
      </trkpt>
      <trkpt lat="46.02206" lon="1.07817">
        <ele>328.7</ele>
        <time>2022-10-02T08:23:54Z</time>
      </trkpt>
      <trkpt lat="46.02206" lon="1.07824">
        <ele>328.1</ele>
        <time>2022-10-02T08:23:55Z</time>
      </trkpt>
      <trkpt lat="46.02206" lon="1.0783">
        <ele>327.6</ele>
        <time>2022-10-02T08:23:56Z</time>
      </trkpt>
      <trkpt lat="46.02207" lon="1.07837">
        <ele>327.1</ele>
        <time>2022-10-02T08:23:57Z</time>
      </trkpt>
      <trkpt lat="46.02208" lon="1.07843">
        <ele>326.5</ele>
        <time>2022-10-02T08:23:58Z</time>
      </trkpt>
      <trkpt lat="46.02209" lon="1.07849">
        <ele>325.9</ele>
        <time>2022-10-02T08:23:59Z</time>
      </trkpt>
      <trkpt lat="46.02211" lon="1.07856">
        <ele>325.2</ele>
        <time>2022-10-02T08:24:00Z</time>
      </trkpt>
      <trkpt lat="46.0221" lon="1.07864">
        <ele>324.5</ele>
        <time>2022-10-02T08:24:01Z</time>
      </trkpt>
      <trkpt lat="46.02211" lon="1.07871">
        <ele>323.7</ele>
        <time>2022-10-02T08:24:02Z</time>
      </trkpt>
      <trkpt lat="46.02214" lon="1.07879">
        <ele>322.9</ele>
        <time>2022-10-02T08:24:03Z</time>
      </trkpt>
      <trkpt lat="46.02217" lon="1.07887">
        <ele>322.1</ele>
        <time>2022-10-02T08:24:04Z</time>
      </trkpt>
      <trkpt lat="46.0222" lon="1.07892">
        <ele>321.4</ele>
        <time>2022-10-02T08:24:05Z</time>
      </trkpt>
      <trkpt lat="46.02222" lon="1.07899">
        <ele>320.7</ele>
        <time>2022-10-02T08:24:06Z</time>
      </trkpt>
      <trkpt lat="46.02223" lon="1.07904">
        <ele>320.3</ele>
        <time>2022-10-02T08:24:07Z</time>
      </trkpt>
      <trkpt lat="46.02224" lon="1.07911">
        <ele>319.7</ele>
        <time>2022-10-02T08:24:08Z</time>
      </trkpt>
      <trkpt lat="46.02227" lon="1.07918">
        <ele>319</ele>
        <time>2022-10-02T08:24:09Z</time>
      </trkpt>
      <trkpt lat="46.02229" lon="1.07926">
        <ele>318.3</ele>
        <time>2022-10-02T08:24:10Z</time>
      </trkpt>
      <trkpt lat="46.02235" lon="1.07934">
        <ele>317.5</ele>
        <time>2022-10-02T08:24:11Z</time>
      </trkpt>
      <trkpt lat="46.02238" lon="1.0794">
        <ele>317</ele>
        <time>2022-10-02T08:24:12Z</time>
      </trkpt>
      <trkpt lat="46.0224" lon="1.07947">
        <ele>316.5</ele>
        <time>2022-10-02T08:24:13Z</time>
      </trkpt>
      <trkpt lat="46.0224" lon="1.07953">
        <ele>316</ele>
        <time>2022-10-02T08:24:14Z</time>
      </trkpt>
      <trkpt lat="46.02243" lon="1.07953">
        <ele>315.7</ele>
        <time>2022-10-02T08:24:15Z</time>
      </trkpt>
      <trkpt lat="46.02246" lon="1.07958">
        <ele>315.2</ele>
        <time>2022-10-02T08:24:16Z</time>
      </trkpt>
      <trkpt lat="46.02252" lon="1.07967">
        <ele>314.1</ele>
        <time>2022-10-02T08:24:17Z</time>
      </trkpt>
      <trkpt lat="46.02256" lon="1.07969">
        <ele>313.4</ele>
        <time>2022-10-02T08:24:18Z</time>
      </trkpt>
      <trkpt lat="46.02262" lon="1.07976">
        <ele>312.3</ele>
        <time>2022-10-02T08:24:19Z</time>
      </trkpt>
      <trkpt lat="46.02264" lon="1.07982">
        <ele>311.6</ele>
        <time>2022-10-02T08:24:20Z</time>
      </trkpt>
      <trkpt lat="46.02267" lon="1.07987">
        <ele>310.9</ele>
        <time>2022-10-02T08:24:21Z</time>
      </trkpt>
      <trkpt lat="46.0227" lon="1.07993">
        <ele>310.3</ele>
        <time>2022-10-02T08:24:22Z</time>
      </trkpt>
      <trkpt lat="46.02272" lon="1.07997">
        <ele>309.7</ele>
        <time>2022-10-02T08:24:23Z</time>
      </trkpt>
      <trkpt lat="46.02274" lon="1.08">
        <ele>309.3</ele>
        <time>2022-10-02T08:24:24Z</time>
      </trkpt>
      <trkpt lat="46.02276" lon="1.08005">
        <ele>308.7</ele>
        <time>2022-10-02T08:24:25Z</time>
      </trkpt>
      <trkpt lat="46.02279" lon="1.08011">
        <ele>307.9</ele>
        <time>2022-10-02T08:24:26Z</time>
      </trkpt>
      <trkpt lat="46.0228" lon="1.08019">
        <ele>307.1</ele>
        <time>2022-10-02T08:24:27Z</time>
      </trkpt>
      <trkpt lat="46.0228" lon="1.08028">
        <ele>306.1</ele>
        <time>2022-10-02T08:24:28Z</time>
      </trkpt>
      <trkpt lat="46.0228" lon="1.08035">
        <ele>305.3</ele>
        <time>2022-10-02T08:24:29Z</time>
      </trkpt>
      <trkpt lat="46.02279" lon="1.08043">
        <ele>304.4</ele>
        <time>2022-10-02T08:24:30Z</time>
      </trkpt>
      <trkpt lat="46.02277" lon="1.08051">
        <ele>303.5</ele>
        <time>2022-10-02T08:24:31Z</time>
      </trkpt>
      <trkpt lat="46.02278" lon="1.08059">
        <ele>302.7</ele>
        <time>2022-10-02T08:24:32Z</time>
      </trkpt>
      <trkpt lat="46.02277" lon="1.08068">
        <ele>301.9</ele>
        <time>2022-10-02T08:24:33Z</time>
      </trkpt>
      <trkpt lat="46.02276" lon="1.08077">
        <ele>301.2</ele>
        <time>2022-10-02T08:24:34Z</time>
      </trkpt>
      <trkpt lat="46.02275" lon="1.08087">
        <ele>300.6</ele>
        <time>2022-10-02T08:24:35Z</time>
      </trkpt>
      <trkpt lat="46.02273" lon="1.08096">
        <ele>300</ele>
        <time>2022-10-02T08:24:36Z</time>
      </trkpt>
      <trkpt lat="46.02272" lon="1.08105">
        <ele>299.4</ele>
        <time>2022-10-02T08:24:37Z</time>
      </trkpt>
      <trkpt lat="46.0227" lon="1.08115">
        <ele>298.9</ele>
        <time>2022-10-02T08:24:38Z</time>
      </trkpt>
      <trkpt lat="46.02269" lon="1.08123">
        <ele>298.5</ele>
        <time>2022-10-02T08:24:39Z</time>
      </trkpt>
      <trkpt lat="46.02269" lon="1.08133">
        <ele>298</ele>
        <time>2022-10-02T08:24:40Z</time>
      </trkpt>
      <trkpt lat="46.02268" lon="1.08142">
        <ele>297.7</ele>
        <time>2022-10-02T08:24:41Z</time>
      </trkpt>
      <trkpt lat="46.02267" lon="1.0815">
        <ele>297.4</ele>
        <time>2022-10-02T08:24:42Z</time>
      </trkpt>
      <trkpt lat="46.02267" lon="1.08156">
        <ele>297.2</ele>
        <time>2022-10-02T08:24:43Z</time>
      </trkpt>
      <trkpt lat="46.02266" lon="1.08164">
        <ele>297</ele>
        <time>2022-10-02T08:24:44Z</time>
      </trkpt>
      <trkpt lat="46.02263" lon="1.08172">
        <ele>296.8</ele>
        <time>2022-10-02T08:24:45Z</time>
      </trkpt>
      <trkpt lat="46.02262" lon="1.0818">
        <ele>296.6</ele>
        <time>2022-10-02T08:24:46Z</time>
      </trkpt>
      <trkpt lat="46.02258" lon="1.08186">
        <ele>296.4</ele>
        <time>2022-10-02T08:24:47Z</time>
      </trkpt>
      <trkpt lat="46.02255" lon="1.08195">
        <ele>296.1</ele>
        <time>2022-10-02T08:24:48Z</time>
      </trkpt>
      <trkpt lat="46.02253" lon="1.08201">
        <ele>295.9</ele>
        <time>2022-10-02T08:24:49Z</time>
      </trkpt>
      <trkpt lat="46.02251" lon="1.0821">
        <ele>295.6</ele>
        <time>2022-10-02T08:24:50Z</time>
      </trkpt>
      <trkpt lat="46.02251" lon="1.08218">
        <ele>295.2</ele>
        <time>2022-10-02T08:24:51Z</time>
      </trkpt>
      <trkpt lat="46.0225" lon="1.08228">
        <ele>294.8</ele>
        <time>2022-10-02T08:24:52Z</time>
      </trkpt>
      <trkpt lat="46.02251" lon="1.08237">
        <ele>294.4</ele>
        <time>2022-10-02T08:24:53Z</time>
      </trkpt>
      <trkpt lat="46.02253" lon="1.08246">
        <ele>294</ele>
        <time>2022-10-02T08:24:54Z</time>
      </trkpt>
      <trkpt lat="46.02255" lon="1.08254">
        <ele>293.7</ele>
        <time>2022-10-02T08:24:55Z</time>
      </trkpt>
      <trkpt lat="46.02257" lon="1.08261">
        <ele>293.3</ele>
        <time>2022-10-02T08:24:56Z</time>
      </trkpt>
      <trkpt lat="46.0226" lon="1.08266">
        <ele>293.1</ele>
        <time>2022-10-02T08:24:57Z</time>
      </trkpt>
      <trkpt lat="46.02261" lon="1.08271">
        <ele>292.8</ele>
        <time>2022-10-02T08:24:58Z</time>
      </trkpt>
      <trkpt lat="46.02262" lon="1.08275">
        <ele>292.6</ele>
        <time>2022-10-02T08:24:59Z</time>
      </trkpt>
      <trkpt lat="46.0226" lon="1.08279">
        <ele>292.2</ele>
        <time>2022-10-02T08:25:00Z</time>
      </trkpt>
      <trkpt lat="46.02259" lon="1.08285">
        <ele>291.9</ele>
        <time>2022-10-02T08:25:01Z</time>
      </trkpt>
      <trkpt lat="46.02259" lon="1.08289">
        <ele>291.6</ele>
        <time>2022-10-02T08:25:02Z</time>
      </trkpt>
      <trkpt lat="46.02259" lon="1.08294">
        <ele>291.2</ele>
        <time>2022-10-02T08:25:03Z</time>
      </trkpt>
      <trkpt lat="46.0226" lon="1.08298">
        <ele>290.8</ele>
        <time>2022-10-02T08:25:04Z</time>
      </trkpt>
      <trkpt lat="46.02263" lon="1.08304">
        <ele>290.2</ele>
        <time>2022-10-02T08:25:05Z</time>
      </trkpt>
      <trkpt lat="46.02266" lon="1.08308">
        <ele>289.5</ele>
        <time>2022-10-02T08:25:06Z</time>
      </trkpt>
      <trkpt lat="46.02274" lon="1.08314">
        <ele>288.9</ele>
        <time>2022-10-02T08:25:07Z</time>
      </trkpt>
      <trkpt lat="46.02278" lon="1.08319">
        <ele>288.4</ele>
        <time>2022-10-02T08:25:08Z</time>
      </trkpt>
      <trkpt lat="46.02281" lon="1.08325">
        <ele>288.1</ele>
        <time>2022-10-02T08:25:09Z</time>
      </trkpt>
      <trkpt lat="46.02286" lon="1.08332">
        <ele>287.6</ele>
        <time>2022-10-02T08:25:10Z</time>
      </trkpt>
      <trkpt lat="46.02291" lon="1.0834">
        <ele>286.9</ele>
        <time>2022-10-02T08:25:11Z</time>
      </trkpt>
      <trkpt lat="46.02295" lon="1.08349">
        <ele>286.3</ele>
        <time>2022-10-02T08:25:12Z</time>
      </trkpt>
      <trkpt lat="46.02299" lon="1.08357">
        <ele>285.7</ele>
        <time>2022-10-02T08:25:13Z</time>
      </trkpt>
      <trkpt lat="46.02305" lon="1.08366">
        <ele>285</ele>
        <time>2022-10-02T08:25:14Z</time>
      </trkpt>
      <trkpt lat="46.02311" lon="1.08375">
        <ele>284.4</ele>
        <time>2022-10-02T08:25:15Z</time>
      </trkpt>
      <trkpt lat="46.02316" lon="1.08384">
        <ele>283.9</ele>
        <time>2022-10-02T08:25:16Z</time>
      </trkpt>
      <trkpt lat="46.0232" lon="1.08392">
        <ele>283.5</ele>
        <time>2022-10-02T08:25:17Z</time>
      </trkpt>
      <trkpt lat="46.02324" lon="1.08398">
        <ele>283.2</ele>
        <time>2022-10-02T08:25:18Z</time>
      </trkpt>
      <trkpt lat="46.02327" lon="1.08404">
        <ele>283</ele>
        <time>2022-10-02T08:25:19Z</time>
      </trkpt>
      <trkpt lat="46.02329" lon="1.08409">
        <ele>282.9</ele>
        <time>2022-10-02T08:25:20Z</time>
      </trkpt>
      <trkpt lat="46.02329" lon="1.08412">
        <ele>282.6</ele>
        <time>2022-10-02T08:25:21Z</time>
      </trkpt>
      <trkpt lat="46.02329" lon="1.08417">
        <ele>282.5</ele>
        <time>2022-10-02T08:25:22Z</time>
      </trkpt>
      <trkpt lat="46.02328" lon="1.08423">
        <ele>282.3</ele>
        <time>2022-10-02T08:25:23Z</time>
      </trkpt>
      <trkpt lat="46.02326" lon="1.08429">
        <ele>282.1</ele>
        <time>2022-10-02T08:25:24Z</time>
      </trkpt>
      <trkpt lat="46.02321" lon="1.08436">
        <ele>281.8</ele>
        <time>2022-10-02T08:25:25Z</time>
      </trkpt>
      <trkpt lat="46.02318" lon="1.08442">
        <ele>281.6</ele>
        <time>2022-10-02T08:25:26Z</time>
      </trkpt>
      <trkpt lat="46.02314" lon="1.0845">
        <ele>281.3</ele>
        <time>2022-10-02T08:25:27Z</time>
      </trkpt>
      <trkpt lat="46.02309" lon="1.08455">
        <ele>280.9</ele>
        <time>2022-10-02T08:25:28Z</time>
      </trkpt>
      <trkpt lat="46.02305" lon="1.08463">
        <ele>280.6</ele>
        <time>2022-10-02T08:25:29Z</time>
      </trkpt>
      <trkpt lat="46.023" lon="1.0847">
        <ele>280.2</ele>
        <time>2022-10-02T08:25:30Z</time>
      </trkpt>
      <trkpt lat="46.02297" lon="1.08479">
        <ele>279.8</ele>
        <time>2022-10-02T08:25:31Z</time>
      </trkpt>
      <trkpt lat="46.02292" lon="1.08489">
        <ele>279.4</ele>
        <time>2022-10-02T08:25:32Z</time>
      </trkpt>
      <trkpt lat="46.02288" lon="1.08498">
        <ele>278.9</ele>
        <time>2022-10-02T08:25:33Z</time>
      </trkpt>
      <trkpt lat="46.02284" lon="1.08507">
        <ele>278.5</ele>
        <time>2022-10-02T08:25:34Z</time>
      </trkpt>
      <trkpt lat="46.0228" lon="1.08517">
        <ele>277.8</ele>
        <time>2022-10-02T08:25:35Z</time>
      </trkpt>
      <trkpt lat="46.02277" lon="1.08526">
        <ele>277.4</ele>
        <time>2022-10-02T08:25:36Z</time>
      </trkpt>
      <trkpt lat="46.02276" lon="1.08537">
        <ele>276.8</ele>
        <time>2022-10-02T08:25:37Z</time>
      </trkpt>
      <trkpt lat="46.02274" lon="1.08548">
        <ele>276.1</ele>
        <time>2022-10-02T08:25:38Z</time>
      </trkpt>
      <trkpt lat="46.02272" lon="1.08559">
        <ele>275.5</ele>
        <time>2022-10-02T08:25:39Z</time>
      </trkpt>
      <trkpt lat="46.02268" lon="1.08569">
        <ele>275</ele>
        <time>2022-10-02T08:25:40Z</time>
      </trkpt>
      <trkpt lat="46.02264" lon="1.08579">
        <ele>274.3</ele>
        <time>2022-10-02T08:25:41Z</time>
      </trkpt>
      <trkpt lat="46.02261" lon="1.08588">
        <ele>273.7</ele>
        <time>2022-10-02T08:25:42Z</time>
      </trkpt>
      <trkpt lat="46.02256" lon="1.08596">
        <ele>273</ele>
        <time>2022-10-02T08:25:43Z</time>
      </trkpt>
      <trkpt lat="46.02251" lon="1.08607">
        <ele>272.2</ele>
        <time>2022-10-02T08:25:44Z</time>
      </trkpt>
      <trkpt lat="46.02243" lon="1.08614">
        <ele>271.4</ele>
        <time>2022-10-02T08:25:45Z</time>
      </trkpt>
      <trkpt lat="46.0224" lon="1.08623">
        <ele>270.9</ele>
        <time>2022-10-02T08:25:46Z</time>
      </trkpt>
      <trkpt lat="46.02233" lon="1.08632">
        <ele>270.1</ele>
        <time>2022-10-02T08:25:47Z</time>
      </trkpt>
      <trkpt lat="46.02226" lon="1.08644">
        <ele>269.1</ele>
        <time>2022-10-02T08:25:48Z</time>
      </trkpt>
      <trkpt lat="46.02214" lon="1.08653">
        <ele>268</ele>
        <time>2022-10-02T08:25:49Z</time>
      </trkpt>
      <trkpt lat="46.02206" lon="1.08663">
        <ele>267.1</ele>
        <time>2022-10-02T08:25:50Z</time>
      </trkpt>
      <trkpt lat="46.02201" lon="1.08675">
        <ele>266.4</ele>
        <time>2022-10-02T08:25:51Z</time>
      </trkpt>
      <trkpt lat="46.02194" lon="1.08688">
        <ele>265.7</ele>
        <time>2022-10-02T08:25:52Z</time>
      </trkpt>
      <trkpt lat="46.02189" lon="1.08699">
        <ele>265.1</ele>
        <time>2022-10-02T08:25:53Z</time>
      </trkpt>
      <trkpt lat="46.02183" lon="1.08712">
        <ele>264.5</ele>
        <time>2022-10-02T08:25:54Z</time>
      </trkpt>
      <trkpt lat="46.02176" lon="1.08722">
        <ele>264.1</ele>
        <time>2022-10-02T08:25:55Z</time>
      </trkpt>
      <trkpt lat="46.02172" lon="1.08732">
        <ele>263.7</ele>
        <time>2022-10-02T08:25:56Z</time>
      </trkpt>
      <trkpt lat="46.02169" lon="1.08743">
        <ele>263.5</ele>
        <time>2022-10-02T08:25:57Z</time>
      </trkpt>
      <trkpt lat="46.02163" lon="1.08751">
        <ele>263.3</ele>
        <time>2022-10-02T08:25:58Z</time>
      </trkpt>
      <trkpt lat="46.02154" lon="1.0875">
        <ele>263</ele>
        <time>2022-10-02T08:25:59Z</time>
      </trkpt>
      <trkpt lat="46.02148" lon="1.08752">
        <ele>263.2</ele>
        <time>2022-10-02T08:26:00Z</time>
      </trkpt>
      <trkpt lat="46.02141" lon="1.08748">
        <ele>263.4</ele>
        <time>2022-10-02T08:26:01Z</time>
      </trkpt>
      <trkpt lat="46.02138" lon="1.08742">
        <ele>263.5</ele>
        <time>2022-10-02T08:26:02Z</time>
      </trkpt>
      <trkpt lat="46.02134" lon="1.08736">
        <ele>263.8</ele>
        <time>2022-10-02T08:26:03Z</time>
      </trkpt>
      <trkpt lat="46.02128" lon="1.08733">
        <ele>264.1</ele>
        <time>2022-10-02T08:26:04Z</time>
      </trkpt>
      <trkpt lat="46.02125" lon="1.08727">
        <ele>264.4</ele>
        <time>2022-10-02T08:26:05Z</time>
      </trkpt>
      <trkpt lat="46.02122" lon="1.0872">
        <ele>264.8</ele>
        <time>2022-10-02T08:26:06Z</time>
      </trkpt>
      <trkpt lat="46.02117" lon="1.08713">
        <ele>265.2</ele>
        <time>2022-10-02T08:26:07Z</time>
      </trkpt>
      <trkpt lat="46.02113" lon="1.08708">
        <ele>265.6</ele>
        <time>2022-10-02T08:26:08Z</time>
      </trkpt>
      <trkpt lat="46.02107" lon="1.08704">
        <ele>266.2</ele>
        <time>2022-10-02T08:26:09Z</time>
      </trkpt>
      <trkpt lat="46.02099" lon="1.08698">
        <ele>266.9</ele>
        <time>2022-10-02T08:26:10Z</time>
      </trkpt>
      <trkpt lat="46.02096" lon="1.08693">
        <ele>267.4</ele>
        <time>2022-10-02T08:26:11Z</time>
      </trkpt>
      <trkpt lat="46.02091" lon="1.08688">
        <ele>267.9</ele>
        <time>2022-10-02T08:26:12Z</time>
      </trkpt>
      <trkpt lat="46.02086" lon="1.08683">
        <ele>268.4</ele>
        <time>2022-10-02T08:26:13Z</time>
      </trkpt>
      <trkpt lat="46.02082" lon="1.08677">
        <ele>268.9</ele>
        <time>2022-10-02T08:26:14Z</time>
      </trkpt>
      <trkpt lat="46.02077" lon="1.08675">
        <ele>269.4</ele>
        <time>2022-10-02T08:26:15Z</time>
      </trkpt>
      <trkpt lat="46.02072" lon="1.08671">
        <ele>270.1</ele>
        <time>2022-10-02T08:26:16Z</time>
      </trkpt>
      <trkpt lat="46.02065" lon="1.08667">
        <ele>271</ele>
        <time>2022-10-02T08:26:17Z</time>
      </trkpt>
      <trkpt lat="46.0206" lon="1.08664">
        <ele>271.7</ele>
        <time>2022-10-02T08:26:18Z</time>
      </trkpt>
      <trkpt lat="46.02057" lon="1.08663">
        <ele>272</ele>
        <time>2022-10-02T08:26:19Z</time>
      </trkpt>
      <trkpt lat="46.02054" lon="1.08657">
        <ele>272.6</ele>
        <time>2022-10-02T08:26:20Z</time>
      </trkpt>
      <trkpt lat="46.02051" lon="1.08654">
        <ele>273</ele>
        <time>2022-10-02T08:26:21Z</time>
      </trkpt>
      <trkpt lat="46.02047" lon="1.0865">
        <ele>273.5</ele>
        <time>2022-10-02T08:26:22Z</time>
      </trkpt>
      <trkpt lat="46.02043" lon="1.08646">
        <ele>274.1</ele>
        <time>2022-10-02T08:26:23Z</time>
      </trkpt>
      <trkpt lat="46.02038" lon="1.08642">
        <ele>274.7</ele>
        <time>2022-10-02T08:26:24Z</time>
      </trkpt>
      <trkpt lat="46.02032" lon="1.08638">
        <ele>275.3</ele>
        <time>2022-10-02T08:26:25Z</time>
      </trkpt>
      <trkpt lat="46.02027" lon="1.08635">
        <ele>276</ele>
        <time>2022-10-02T08:26:26Z</time>
      </trkpt>
      <trkpt lat="46.02021" lon="1.08631">
        <ele>277.8</ele>
        <time>2022-10-02T08:26:27Z</time>
      </trkpt>
      <trkpt lat="46.02018" lon="1.08628">
        <ele>278.2</ele>
        <time>2022-10-02T08:26:28Z</time>
      </trkpt>
      <trkpt lat="46.02016" lon="1.08627">
        <ele>278.6</ele>
        <time>2022-10-02T08:26:29Z</time>
      </trkpt>
      <trkpt lat="46.02014" lon="1.08631">
        <ele>279</ele>
        <time>2022-10-02T08:26:30Z</time>
      </trkpt>
      <trkpt lat="46.02014" lon="1.08636">
        <ele>279.4</ele>
        <time>2022-10-02T08:26:31Z</time>
      </trkpt>
      <trkpt lat="46.02015" lon="1.0864">
        <ele>279.7</ele>
        <time>2022-10-02T08:26:32Z</time>
      </trkpt>
      <trkpt lat="46.02015" lon="1.08646">
        <ele>280.1</ele>
        <time>2022-10-02T08:26:33Z</time>
      </trkpt>
      <trkpt lat="46.02016" lon="1.08652">
        <ele>280.5</ele>
        <time>2022-10-02T08:26:34Z</time>
      </trkpt>
      <trkpt lat="46.02015" lon="1.08658">
        <ele>280.8</ele>
        <time>2022-10-02T08:26:35Z</time>
      </trkpt>
      <trkpt lat="46.02017" lon="1.08663">
        <ele>281.2</ele>
        <time>2022-10-02T08:26:36Z</time>
      </trkpt>
      <trkpt lat="46.02017" lon="1.0867">
        <ele>281.5</ele>
        <time>2022-10-02T08:26:37Z</time>
      </trkpt>
      <trkpt lat="46.02019" lon="1.08676">
        <ele>281.8</ele>
        <time>2022-10-02T08:26:38Z</time>
      </trkpt>
      <trkpt lat="46.0202" lon="1.08683">
        <ele>282.2</ele>
        <time>2022-10-02T08:26:39Z</time>
      </trkpt>
      <trkpt lat="46.0202" lon="1.08689">
        <ele>282.5</ele>
        <time>2022-10-02T08:26:40Z</time>
      </trkpt>
      <trkpt lat="46.02022" lon="1.08695">
        <ele>282.8</ele>
        <time>2022-10-02T08:26:41Z</time>
      </trkpt>
      <trkpt lat="46.02022" lon="1.08701">
        <ele>283.1</ele>
        <time>2022-10-02T08:26:42Z</time>
      </trkpt>
      <trkpt lat="46.02025" lon="1.08706">
        <ele>283.5</ele>
        <time>2022-10-02T08:26:43Z</time>
      </trkpt>
      <trkpt lat="46.02028" lon="1.08714">
        <ele>283.9</ele>
        <time>2022-10-02T08:26:44Z</time>
      </trkpt>
      <trkpt lat="46.02029" lon="1.08721">
        <ele>284.2</ele>
        <time>2022-10-02T08:26:45Z</time>
      </trkpt>
      <trkpt lat="46.02031" lon="1.08727">
        <ele>284.4</ele>
        <time>2022-10-02T08:26:46Z</time>
      </trkpt>
      <trkpt lat="46.02031" lon="1.08732">
        <ele>284.6</ele>
        <time>2022-10-02T08:26:47Z</time>
      </trkpt>
      <trkpt lat="46.02033" lon="1.08736">
        <ele>284.8</ele>
        <time>2022-10-02T08:26:48Z</time>
      </trkpt>
      <trkpt lat="46.02034" lon="1.08742">
        <ele>285</ele>
        <time>2022-10-02T08:26:49Z</time>
      </trkpt>
      <trkpt lat="46.02035" lon="1.08748">
        <ele>285.1</ele>
        <time>2022-10-02T08:26:50Z</time>
      </trkpt>
      <trkpt lat="46.02036" lon="1.08755">
        <ele>285.3</ele>
        <time>2022-10-02T08:26:51Z</time>
      </trkpt>
      <trkpt lat="46.02037" lon="1.08763">
        <ele>285.5</ele>
        <time>2022-10-02T08:26:52Z</time>
      </trkpt>
      <trkpt lat="46.02038" lon="1.08771">
        <ele>285.6</ele>
        <time>2022-10-02T08:26:53Z</time>
      </trkpt>
      <trkpt lat="46.02039" lon="1.08778">
        <ele>285.8</ele>
        <time>2022-10-02T08:26:54Z</time>
      </trkpt>
      <trkpt lat="46.0204" lon="1.08784">
        <ele>286</ele>
        <time>2022-10-02T08:26:55Z</time>
      </trkpt>
      <trkpt lat="46.02042" lon="1.08792">
        <ele>286.2</ele>
        <time>2022-10-02T08:26:56Z</time>
      </trkpt>
      <trkpt lat="46.02041" lon="1.08798">
        <ele>286.4</ele>
        <time>2022-10-02T08:26:57Z</time>
      </trkpt>
      <trkpt lat="46.02041" lon="1.08806">
        <ele>286.6</ele>
        <time>2022-10-02T08:26:58Z</time>
      </trkpt>
      <trkpt lat="46.02043" lon="1.08814">
        <ele>286.9</ele>
        <time>2022-10-02T08:26:59Z</time>
      </trkpt>
      <trkpt lat="46.02041" lon="1.08819">
        <ele>287.1</ele>
        <time>2022-10-02T08:27:00Z</time>
      </trkpt>
      <trkpt lat="46.02039" lon="1.0882">
        <ele>287.2</ele>
        <time>2022-10-02T08:27:01Z</time>
      </trkpt>
      <trkpt lat="46.02033" lon="1.08824">
        <ele>287.4</ele>
        <time>2022-10-02T08:27:02Z</time>
      </trkpt>
      <trkpt lat="46.02028" lon="1.08831">
        <ele>287.7</ele>
        <time>2022-10-02T08:27:03Z</time>
      </trkpt>
      <trkpt lat="46.02024" lon="1.08832">
        <ele>287.8</ele>
        <time>2022-10-02T08:27:04Z</time>
      </trkpt>
      <trkpt lat="46.02018" lon="1.08833">
        <ele>288.1</ele>
        <time>2022-10-02T08:27:05Z</time>
      </trkpt>
      <trkpt lat="46.02015" lon="1.08833">
        <ele>288.2</ele>
        <time>2022-10-02T08:27:06Z</time>
      </trkpt>
      <trkpt lat="46.02009" lon="1.08835">
        <ele>288.5</ele>
        <time>2022-10-02T08:27:07Z</time>
      </trkpt>
      <trkpt lat="46.02005" lon="1.08835">
        <ele>288.7</ele>
        <time>2022-10-02T08:27:08Z</time>
      </trkpt>
      <trkpt lat="46.02" lon="1.0883">
        <ele>289</ele>
        <time>2022-10-02T08:27:09Z</time>
      </trkpt>
      <trkpt lat="46.01997" lon="1.08826">
        <ele>289.2</ele>
        <time>2022-10-02T08:27:10Z</time>
      </trkpt>
      <trkpt lat="46.01993" lon="1.08826">
        <ele>289.4</ele>
        <time>2022-10-02T08:27:11Z</time>
      </trkpt>
      <trkpt lat="46.01988" lon="1.08825">
        <ele>289.7</ele>
        <time>2022-10-02T08:27:12Z</time>
      </trkpt>
      <trkpt lat="46.01983" lon="1.08829">
        <ele>290</ele>
        <time>2022-10-02T08:27:13Z</time>
      </trkpt>
      <trkpt lat="46.01979" lon="1.08833">
        <ele>290.3</ele>
        <time>2022-10-02T08:27:14Z</time>
      </trkpt>
      <trkpt lat="46.01972" lon="1.08835">
        <ele>290.7</ele>
        <time>2022-10-02T08:27:15Z</time>
      </trkpt>
      <trkpt lat="46.01966" lon="1.08838">
        <ele>291</ele>
        <time>2022-10-02T08:27:16Z</time>
      </trkpt>
      <trkpt lat="46.01958" lon="1.0885">
        <ele>291.6</ele>
        <time>2022-10-02T08:27:17Z</time>
      </trkpt>
      <trkpt lat="46.01954" lon="1.08861">
        <ele>292</ele>
        <time>2022-10-02T08:27:18Z</time>
      </trkpt>
      <trkpt lat="46.0195" lon="1.0887">
        <ele>292.3</ele>
        <time>2022-10-02T08:27:19Z</time>
      </trkpt>
      <trkpt lat="46.01947" lon="1.08877">
        <ele>292.7</ele>
        <time>2022-10-02T08:27:20Z</time>
      </trkpt>
      <trkpt lat="46.01947" lon="1.08885">
        <ele>293</ele>
        <time>2022-10-02T08:27:21Z</time>
      </trkpt>
      <trkpt lat="46.01946" lon="1.08891">
        <ele>293.3</ele>
        <time>2022-10-02T08:27:22Z</time>
      </trkpt>
      <trkpt lat="46.01947" lon="1.089">
        <ele>293.7</ele>
        <time>2022-10-02T08:27:23Z</time>
      </trkpt>
      <trkpt lat="46.01946" lon="1.08908">
        <ele>294.1</ele>
        <time>2022-10-02T08:27:24Z</time>
      </trkpt>
      <trkpt lat="46.01945" lon="1.08915">
        <ele>294.5</ele>
        <time>2022-10-02T08:27:25Z</time>
      </trkpt>
      <trkpt lat="46.01942" lon="1.08922">
        <ele>294.9</ele>
        <time>2022-10-02T08:27:26Z</time>
      </trkpt>
      <trkpt lat="46.01939" lon="1.08926">
        <ele>295.3</ele>
        <time>2022-10-02T08:27:27Z</time>
      </trkpt>
      <trkpt lat="46.01935" lon="1.0893">
        <ele>295.8</ele>
        <time>2022-10-02T08:27:28Z</time>
      </trkpt>
      <trkpt lat="46.01931" lon="1.08931">
        <ele>296.1</ele>
        <time>2022-10-02T08:27:29Z</time>
      </trkpt>
      <trkpt lat="46.01928" lon="1.08932">
        <ele>296.3</ele>
        <time>2022-10-02T08:27:30Z</time>
      </trkpt>
      <trkpt lat="46.01925" lon="1.08935">
        <ele>296.7</ele>
        <time>2022-10-02T08:27:31Z</time>
      </trkpt>
      <trkpt lat="46.01921" lon="1.08937">
        <ele>297</ele>
        <time>2022-10-02T08:27:32Z</time>
      </trkpt>
      <trkpt lat="46.01917" lon="1.08939">
        <ele>297.3</ele>
        <time>2022-10-02T08:27:33Z</time>
      </trkpt>
      <trkpt lat="46.01913" lon="1.08941">
        <ele>297.7</ele>
        <time>2022-10-02T08:27:34Z</time>
      </trkpt>
      <trkpt lat="46.01909" lon="1.08942">
        <ele>298</ele>
        <time>2022-10-02T08:27:35Z</time>
      </trkpt>
      <trkpt lat="46.01904" lon="1.08942">
        <ele>298.3</ele>
        <time>2022-10-02T08:27:36Z</time>
      </trkpt>
      <trkpt lat="46.019" lon="1.08943">
        <ele>298.7</ele>
        <time>2022-10-02T08:27:37Z</time>
      </trkpt>
      <trkpt lat="46.01896" lon="1.08944">
        <ele>298.9</ele>
        <time>2022-10-02T08:27:38Z</time>
      </trkpt>
      <trkpt lat="46.01893" lon="1.08946">
        <ele>299.1</ele>
        <time>2022-10-02T08:27:39Z</time>
      </trkpt>
      <trkpt lat="46.0189" lon="1.08948">
        <ele>299.3</ele>
        <time>2022-10-02T08:27:40Z</time>
      </trkpt>
      <trkpt lat="46.01887" lon="1.0895">
        <ele>299.4</ele>
        <time>2022-10-02T08:27:41Z</time>
      </trkpt>
      <trkpt lat="46.01883" lon="1.08951">
        <ele>299.6</ele>
        <time>2022-10-02T08:27:42Z</time>
      </trkpt>
      <trkpt lat="46.01879" lon="1.08951">
        <ele>299.7</ele>
        <time>2022-10-02T08:27:43Z</time>
      </trkpt>
      <trkpt lat="46.01874" lon="1.08952">
        <ele>299.8</ele>
        <time>2022-10-02T08:27:44Z</time>
      </trkpt>
      <trkpt lat="46.01869" lon="1.08952">
        <ele>300</ele>
        <time>2022-10-02T08:27:45Z</time>
      </trkpt>
      <trkpt lat="46.01864" lon="1.08952">
        <ele>300.1</ele>
        <time>2022-10-02T08:27:46Z</time>
      </trkpt>
      <trkpt lat="46.01858" lon="1.08953">
        <ele>300.3</ele>
        <time>2022-10-02T08:27:47Z</time>
      </trkpt>
      <trkpt lat="46.01854" lon="1.08954">
        <ele>300.4</ele>
        <time>2022-10-02T08:27:48Z</time>
      </trkpt>
      <trkpt lat="46.01849" lon="1.08956">
        <ele>300.6</ele>
        <time>2022-10-02T08:27:49Z</time>
      </trkpt>
      <trkpt lat="46.01844" lon="1.08957">
        <ele>300.8</ele>
        <time>2022-10-02T08:27:50Z</time>
      </trkpt>
      <trkpt lat="46.01836" lon="1.08956">
        <ele>301.2</ele>
        <time>2022-10-02T08:27:51Z</time>
      </trkpt>
      <trkpt lat="46.01832" lon="1.08954">
        <ele>301.4</ele>
        <time>2022-10-02T08:27:52Z</time>
      </trkpt>
      <trkpt lat="46.01828" lon="1.08953">
        <ele>301.6</ele>
        <time>2022-10-02T08:27:53Z</time>
      </trkpt>
      <trkpt lat="46.01822" lon="1.0895">
        <ele>302</ele>
        <time>2022-10-02T08:27:54Z</time>
      </trkpt>
      <trkpt lat="46.01818" lon="1.08949">
        <ele>302.3</ele>
        <time>2022-10-02T08:27:55Z</time>
      </trkpt>
      <trkpt lat="46.01813" lon="1.08949">
        <ele>302.6</ele>
        <time>2022-10-02T08:27:56Z</time>
      </trkpt>
      <trkpt lat="46.01809" lon="1.08948">
        <ele>303</ele>
        <time>2022-10-02T08:27:57Z</time>
      </trkpt>
      <trkpt lat="46.01804" lon="1.08946">
        <ele>303.4</ele>
        <time>2022-10-02T08:27:58Z</time>
      </trkpt>
      <trkpt lat="46.018" lon="1.08942">
        <ele>303.8</ele>
        <time>2022-10-02T08:27:59Z</time>
      </trkpt>
      <trkpt lat="46.01795" lon="1.0894">
        <ele>304.1</ele>
        <time>2022-10-02T08:28:00Z</time>
      </trkpt>
      <trkpt lat="46.01791" lon="1.08938">
        <ele>304.5</ele>
        <time>2022-10-02T08:28:01Z</time>
      </trkpt>
      <trkpt lat="46.01788" lon="1.08939">
        <ele>304.7</ele>
        <time>2022-10-02T08:28:02Z</time>
      </trkpt>
      <trkpt lat="46.01784" lon="1.08941">
        <ele>305</ele>
        <time>2022-10-02T08:28:03Z</time>
      </trkpt>
      <trkpt lat="46.01783" lon="1.08944">
        <ele>305.2</ele>
        <time>2022-10-02T08:28:04Z</time>
      </trkpt>
      <trkpt lat="46.01781" lon="1.08949">
        <ele>305.4</ele>
        <time>2022-10-02T08:28:05Z</time>
      </trkpt>
      <trkpt lat="46.01779" lon="1.08953">
        <ele>305.6</ele>
        <time>2022-10-02T08:28:06Z</time>
      </trkpt>
      <trkpt lat="46.01777" lon="1.08958">
        <ele>305.8</ele>
        <time>2022-10-02T08:28:07Z</time>
      </trkpt>
      <trkpt lat="46.01774" lon="1.08963">
        <ele>306</ele>
        <time>2022-10-02T08:28:08Z</time>
      </trkpt>
      <trkpt lat="46.01772" lon="1.08968">
        <ele>306.2</ele>
        <time>2022-10-02T08:28:09Z</time>
      </trkpt>
      <trkpt lat="46.01769" lon="1.08974">
        <ele>306.5</ele>
        <time>2022-10-02T08:28:10Z</time>
      </trkpt>
      <trkpt lat="46.01766" lon="1.08986">
        <ele>307</ele>
        <time>2022-10-02T08:28:11Z</time>
      </trkpt>
      <trkpt lat="46.01763" lon="1.08993">
        <ele>307.3</ele>
        <time>2022-10-02T08:28:12Z</time>
      </trkpt>
      <trkpt lat="46.0176" lon="1.09002">
        <ele>307.6</ele>
        <time>2022-10-02T08:28:13Z</time>
      </trkpt>
      <trkpt lat="46.01758" lon="1.09008">
        <ele>307.7</ele>
        <time>2022-10-02T08:28:14Z</time>
      </trkpt>
      <trkpt lat="46.01756" lon="1.09015">
        <ele>307.9</ele>
        <time>2022-10-02T08:28:15Z</time>
      </trkpt>
      <trkpt lat="46.01753" lon="1.0902">
        <ele>308.1</ele>
        <time>2022-10-02T08:28:16Z</time>
      </trkpt>
      <trkpt lat="46.01751" lon="1.09024">
        <ele>308.2</ele>
        <time>2022-10-02T08:28:17Z</time>
      </trkpt>
      <trkpt lat="46.0175" lon="1.09031">
        <ele>308.4</ele>
        <time>2022-10-02T08:28:18Z</time>
      </trkpt>
      <trkpt lat="46.01747" lon="1.09037">
        <ele>308.5</ele>
        <time>2022-10-02T08:28:20Z</time>
      </trkpt>
      <trkpt lat="46.01744" lon="1.09041">
        <ele>308.7</ele>
        <time>2022-10-02T08:28:21Z</time>
      </trkpt>
      <trkpt lat="46.01739" lon="1.09038">
        <ele>309</ele>
        <time>2022-10-02T08:28:22Z</time>
      </trkpt>
      <trkpt lat="46.01736" lon="1.09036">
        <ele>309.1</ele>
        <time>2022-10-02T08:28:23Z</time>
      </trkpt>
      <trkpt lat="46.01734" lon="1.09034">
        <ele>309.2</ele>
        <time>2022-10-02T08:28:24Z</time>
      </trkpt>
      <trkpt lat="46.01731" lon="1.09033">
        <ele>309.2</ele>
        <time>2022-10-02T08:28:25Z</time>
      </trkpt>
      <trkpt lat="46.01729" lon="1.0903">
        <ele>309.3</ele>
        <time>2022-10-02T08:28:26Z</time>
      </trkpt>
      <trkpt lat="46.01727" lon="1.0903">
        <ele>309.3</ele>
        <time>2022-10-02T08:28:27Z</time>
      </trkpt>
      <trkpt lat="46.01725" lon="1.09027">
        <ele>309.4</ele>
        <time>2022-10-02T08:28:28Z</time>
      </trkpt>
      <trkpt lat="46.01722" lon="1.09023">
        <ele>309.5</ele>
        <time>2022-10-02T08:28:29Z</time>
      </trkpt>
      <trkpt lat="46.01721" lon="1.09021">
        <ele>309.5</ele>
        <time>2022-10-02T08:28:30Z</time>
      </trkpt>
      <trkpt lat="46.01718" lon="1.09019">
        <ele>309.6</ele>
        <time>2022-10-02T08:28:31Z</time>
      </trkpt>
      <trkpt lat="46.01715" lon="1.09017">
        <ele>309.7</ele>
        <time>2022-10-02T08:28:32Z</time>
      </trkpt>
      <trkpt lat="46.01712" lon="1.09014">
        <ele>309.8</ele>
        <time>2022-10-02T08:28:33Z</time>
      </trkpt>
      <trkpt lat="46.01707" lon="1.09011">
        <ele>310</ele>
        <time>2022-10-02T08:28:34Z</time>
      </trkpt>
      <trkpt lat="46.01703" lon="1.09009">
        <ele>310.2</ele>
        <time>2022-10-02T08:28:35Z</time>
      </trkpt>
      <trkpt lat="46.017" lon="1.09007">
        <ele>310.3</ele>
        <time>2022-10-02T08:28:36Z</time>
      </trkpt>
      <trkpt lat="46.01696" lon="1.09006">
        <ele>310.5</ele>
        <time>2022-10-02T08:28:37Z</time>
      </trkpt>
      <trkpt lat="46.01694" lon="1.09004">
        <ele>310.7</ele>
        <time>2022-10-02T08:28:38Z</time>
      </trkpt>
      <trkpt lat="46.01692" lon="1.09003">
        <ele>310.8</ele>
        <time>2022-10-02T08:28:39Z</time>
      </trkpt>
      <trkpt lat="46.0169" lon="1.09002">
        <ele>310.9</ele>
        <time>2022-10-02T08:28:40Z</time>
      </trkpt>
      <trkpt lat="46.01688" lon="1.08999">
        <ele>311.1</ele>
        <time>2022-10-02T08:28:41Z</time>
      </trkpt>
      <trkpt lat="46.01685" lon="1.08994">
        <ele>311.3</ele>
        <time>2022-10-02T08:28:42Z</time>
      </trkpt>
      <trkpt lat="46.01684" lon="1.08989">
        <ele>311.5</ele>
        <time>2022-10-02T08:28:43Z</time>
      </trkpt>
      <trkpt lat="46.01682" lon="1.08984">
        <ele>311.7</ele>
        <time>2022-10-02T08:28:44Z</time>
      </trkpt>
      <trkpt lat="46.0168" lon="1.08978">
        <ele>311.9</ele>
        <time>2022-10-02T08:28:45Z</time>
      </trkpt>
      <trkpt lat="46.01679" lon="1.08973">
        <ele>312.1</ele>
        <time>2022-10-02T08:28:46Z</time>
      </trkpt>
      <trkpt lat="46.01677" lon="1.08968">
        <ele>312.3</ele>
        <time>2022-10-02T08:28:47Z</time>
      </trkpt>
      <trkpt lat="46.01674" lon="1.08964">
        <ele>312.4</ele>
        <time>2022-10-02T08:28:48Z</time>
      </trkpt>
      <trkpt lat="46.01668" lon="1.08956">
        <ele>312.8</ele>
        <time>2022-10-02T08:28:49Z</time>
      </trkpt>
      <trkpt lat="46.01663" lon="1.08949">
        <ele>313.1</ele>
        <time>2022-10-02T08:28:50Z</time>
      </trkpt>
      <trkpt lat="46.0166" lon="1.08942">
        <ele>313.3</ele>
        <time>2022-10-02T08:28:51Z</time>
      </trkpt>
      <trkpt lat="46.01656" lon="1.08935">
        <ele>313.5</ele>
        <time>2022-10-02T08:28:52Z</time>
      </trkpt>
      <trkpt lat="46.01651" lon="1.08928">
        <ele>313.8</ele>
        <time>2022-10-02T08:28:53Z</time>
      </trkpt>
      <trkpt lat="46.01648" lon="1.0892">
        <ele>314.1</ele>
        <time>2022-10-02T08:28:54Z</time>
      </trkpt>
      <trkpt lat="46.01646" lon="1.08914">
        <ele>314.3</ele>
        <time>2022-10-02T08:28:55Z</time>
      </trkpt>
      <trkpt lat="46.01643" lon="1.0891">
        <ele>314.6</ele>
        <time>2022-10-02T08:28:56Z</time>
      </trkpt>
      <trkpt lat="46.01639" lon="1.08902">
        <ele>314.9</ele>
        <time>2022-10-02T08:28:57Z</time>
      </trkpt>
      <trkpt lat="46.01637" lon="1.08896">
        <ele>315.1</ele>
        <time>2022-10-02T08:28:58Z</time>
      </trkpt>
      <trkpt lat="46.01635" lon="1.08891">
        <ele>315.4</ele>
        <time>2022-10-02T08:28:59Z</time>
      </trkpt>
      <trkpt lat="46.0163" lon="1.08885">
        <ele>315.7</ele>
        <time>2022-10-02T08:29:00Z</time>
      </trkpt>
      <trkpt lat="46.01625" lon="1.08882">
        <ele>316.2</ele>
        <time>2022-10-02T08:29:01Z</time>
      </trkpt>
      <trkpt lat="46.0162" lon="1.0888">
        <ele>316.3</ele>
        <time>2022-10-02T08:29:02Z</time>
      </trkpt>
      <trkpt lat="46.01616" lon="1.0889">
        <ele>316.4</ele>
        <time>2022-10-02T08:29:03Z</time>
      </trkpt>
      <trkpt lat="46.01611" lon="1.0889">
        <ele>316.5</ele>
        <time>2022-10-02T08:29:04Z</time>
      </trkpt>
      <trkpt lat="46.01606" lon="1.08892">
        <ele>316.6</ele>
        <time>2022-10-02T08:29:05Z</time>
      </trkpt>
      <trkpt lat="46.016" lon="1.08894">
        <ele>316.6</ele>
        <time>2022-10-02T08:29:06Z</time>
      </trkpt>
      <trkpt lat="46.01594" lon="1.08896">
        <ele>316.7</ele>
        <time>2022-10-02T08:29:07Z</time>
      </trkpt>
      <trkpt lat="46.01589" lon="1.08897">
        <ele>316.7</ele>
        <time>2022-10-02T08:29:08Z</time>
      </trkpt>
      <trkpt lat="46.01583" lon="1.08898">
        <ele>316.7</ele>
        <time>2022-10-02T08:29:09Z</time>
      </trkpt>
      <trkpt lat="46.01578" lon="1.08901">
        <ele>316.7</ele>
        <time>2022-10-02T08:29:10Z</time>
      </trkpt>
      <trkpt lat="46.01572" lon="1.08905">
        <ele>316.7</ele>
        <time>2022-10-02T08:29:11Z</time>
      </trkpt>
      <trkpt lat="46.01567" lon="1.08908">
        <ele>316.7</ele>
        <time>2022-10-02T08:29:12Z</time>
      </trkpt>
      <trkpt lat="46.01562" lon="1.08912">
        <ele>316.7</ele>
        <time>2022-10-02T08:29:13Z</time>
      </trkpt>
      <trkpt lat="46.01557" lon="1.08916">
        <ele>316.8</ele>
        <time>2022-10-02T08:29:14Z</time>
      </trkpt>
      <trkpt lat="46.01552" lon="1.0892">
        <ele>316.8</ele>
        <time>2022-10-02T08:29:15Z</time>
      </trkpt>
      <trkpt lat="46.01547" lon="1.08925">
        <ele>316.9</ele>
        <time>2022-10-02T08:29:16Z</time>
      </trkpt>
      <trkpt lat="46.01541" lon="1.08929">
        <ele>317</ele>
        <time>2022-10-02T08:29:17Z</time>
      </trkpt>
      <trkpt lat="46.01536" lon="1.08932">
        <ele>317.1</ele>
        <time>2022-10-02T08:29:18Z</time>
      </trkpt>
      <trkpt lat="46.01531" lon="1.08935">
        <ele>317.2</ele>
        <time>2022-10-02T08:29:19Z</time>
      </trkpt>
      <trkpt lat="46.01526" lon="1.08939">
        <ele>317.3</ele>
        <time>2022-10-02T08:29:20Z</time>
      </trkpt>
      <trkpt lat="46.01521" lon="1.08942">
        <ele>317.4</ele>
        <time>2022-10-02T08:29:21Z</time>
      </trkpt>
      <trkpt lat="46.01516" lon="1.08944">
        <ele>317.5</ele>
        <time>2022-10-02T08:29:22Z</time>
      </trkpt>
      <trkpt lat="46.01511" lon="1.08947">
        <ele>317.7</ele>
        <time>2022-10-02T08:29:23Z</time>
      </trkpt>
      <trkpt lat="46.01506" lon="1.08952">
        <ele>317.8</ele>
        <time>2022-10-02T08:29:24Z</time>
      </trkpt>
      <trkpt lat="46.01502" lon="1.08957">
        <ele>317.9</ele>
        <time>2022-10-02T08:29:25Z</time>
      </trkpt>
      <trkpt lat="46.01497" lon="1.08961">
        <ele>318</ele>
        <time>2022-10-02T08:29:26Z</time>
      </trkpt>
      <trkpt lat="46.01492" lon="1.08965">
        <ele>318.1</ele>
        <time>2022-10-02T08:29:27Z</time>
      </trkpt>
      <trkpt lat="46.01488" lon="1.08969">
        <ele>318.2</ele>
        <time>2022-10-02T08:29:28Z</time>
      </trkpt>
      <trkpt lat="46.01483" lon="1.08972">
        <ele>318.3</ele>
        <time>2022-10-02T08:29:29Z</time>
      </trkpt>
      <trkpt lat="46.01478" lon="1.08977">
        <ele>318.3</ele>
        <time>2022-10-02T08:29:30Z</time>
      </trkpt>
      <trkpt lat="46.01474" lon="1.08981">
        <ele>318.4</ele>
        <time>2022-10-02T08:29:31Z</time>
      </trkpt>
      <trkpt lat="46.01469" lon="1.08986">
        <ele>318.4</ele>
        <time>2022-10-02T08:29:32Z</time>
      </trkpt>
      <trkpt lat="46.01465" lon="1.0899">
        <ele>318.4</ele>
        <time>2022-10-02T08:29:33Z</time>
      </trkpt>
      <trkpt lat="46.0146" lon="1.08994">
        <ele>318.3</ele>
        <time>2022-10-02T08:29:34Z</time>
      </trkpt>
      <trkpt lat="46.01456" lon="1.08999">
        <ele>318.2</ele>
        <time>2022-10-02T08:29:35Z</time>
      </trkpt>
      <trkpt lat="46.01453" lon="1.09001">
        <ele>318.2</ele>
        <time>2022-10-02T08:29:36Z</time>
      </trkpt>
      <trkpt lat="46.01449" lon="1.09008">
        <ele>318</ele>
        <time>2022-10-02T08:29:37Z</time>
      </trkpt>
      <trkpt lat="46.01447" lon="1.09013">
        <ele>317.8</ele>
        <time>2022-10-02T08:29:38Z</time>
      </trkpt>
      <trkpt lat="46.01444" lon="1.09018">
        <ele>317.6</ele>
        <time>2022-10-02T08:29:39Z</time>
      </trkpt>
      <trkpt lat="46.01439" lon="1.09023">
        <ele>317.3</ele>
        <time>2022-10-02T08:29:40Z</time>
      </trkpt>
      <trkpt lat="46.01435" lon="1.09027">
        <ele>317</ele>
        <time>2022-10-02T08:29:41Z</time>
      </trkpt>
      <trkpt lat="46.01428" lon="1.09035">
        <ele>316.4</ele>
        <time>2022-10-02T08:29:42Z</time>
      </trkpt>
      <trkpt lat="46.01424" lon="1.0904">
        <ele>316.1</ele>
        <time>2022-10-02T08:29:43Z</time>
      </trkpt>
      <trkpt lat="46.01419" lon="1.09046">
        <ele>315.6</ele>
        <time>2022-10-02T08:29:44Z</time>
      </trkpt>
      <trkpt lat="46.01414" lon="1.09054">
        <ele>315.1</ele>
        <time>2022-10-02T08:29:45Z</time>
      </trkpt>
      <trkpt lat="46.01409" lon="1.09062">
        <ele>314.5</ele>
        <time>2022-10-02T08:29:46Z</time>
      </trkpt>
      <trkpt lat="46.01405" lon="1.09072">
        <ele>313.7</ele>
        <time>2022-10-02T08:29:47Z</time>
      </trkpt>
      <trkpt lat="46.01401" lon="1.0908">
        <ele>313</ele>
        <time>2022-10-02T08:29:48Z</time>
      </trkpt>
      <trkpt lat="46.01395" lon="1.09087">
        <ele>312.2</ele>
        <time>2022-10-02T08:29:49Z</time>
      </trkpt>
      <trkpt lat="46.01389" lon="1.09091">
        <ele>311.6</ele>
        <time>2022-10-02T08:29:50Z</time>
      </trkpt>
      <trkpt lat="46.01384" lon="1.09097">
        <ele>311</ele>
        <time>2022-10-02T08:29:51Z</time>
      </trkpt>
      <trkpt lat="46.01384" lon="1.09107">
        <ele>310.5</ele>
        <time>2022-10-02T08:29:52Z</time>
      </trkpt>
      <trkpt lat="46.01383" lon="1.09117">
        <ele>309.8</ele>
        <time>2022-10-02T08:29:53Z</time>
      </trkpt>
      <trkpt lat="46.01381" lon="1.09126">
        <ele>309.3</ele>
        <time>2022-10-02T08:29:54Z</time>
      </trkpt>
      <trkpt lat="46.01375" lon="1.09127">
        <ele>308.8</ele>
        <time>2022-10-02T08:29:55Z</time>
      </trkpt>
      <trkpt lat="46.01369" lon="1.09127">
        <ele>308.4</ele>
        <time>2022-10-02T08:29:56Z</time>
      </trkpt>
      <trkpt lat="46.01366" lon="1.09127">
        <ele>308.2</ele>
        <time>2022-10-02T08:29:57Z</time>
      </trkpt>
      <trkpt lat="46.01359" lon="1.09129">
        <ele>307.9</ele>
        <time>2022-10-02T08:29:58Z</time>
      </trkpt>
      <trkpt lat="46.01353" lon="1.0913">
        <ele>307.8</ele>
        <time>2022-10-02T08:29:59Z</time>
      </trkpt>
      <trkpt lat="46.01349" lon="1.0913">
        <ele>307.7</ele>
        <time>2022-10-02T08:30:00Z</time>
      </trkpt>
      <trkpt lat="46.01344" lon="1.09132">
        <ele>307.6</ele>
        <time>2022-10-02T08:30:01Z</time>
      </trkpt>
      <trkpt lat="46.01339" lon="1.09135">
        <ele>307.6</ele>
        <time>2022-10-02T08:30:02Z</time>
      </trkpt>
      <trkpt lat="46.01334" lon="1.09135">
        <ele>307.5</ele>
        <time>2022-10-02T08:30:03Z</time>
      </trkpt>
      <trkpt lat="46.01329" lon="1.09138">
        <ele>307.5</ele>
        <time>2022-10-02T08:30:04Z</time>
      </trkpt>
      <trkpt lat="46.01325" lon="1.09139">
        <ele>307.5</ele>
        <time>2022-10-02T08:30:05Z</time>
      </trkpt>
      <trkpt lat="46.01321" lon="1.09142">
        <ele>307.6</ele>
        <time>2022-10-02T08:30:06Z</time>
      </trkpt>
      <trkpt lat="46.01317" lon="1.09143">
        <ele>307.6</ele>
        <time>2022-10-02T08:30:07Z</time>
      </trkpt>
      <trkpt lat="46.01312" lon="1.09145">
        <ele>307.6</ele>
        <time>2022-10-02T08:30:08Z</time>
      </trkpt>
      <trkpt lat="46.01308" lon="1.09147">
        <ele>307.6</ele>
        <time>2022-10-02T08:30:09Z</time>
      </trkpt>
      <trkpt lat="46.01304" lon="1.09148">
        <ele>307.6</ele>
        <time>2022-10-02T08:30:10Z</time>
      </trkpt>
      <trkpt lat="46.01299" lon="1.09149">
        <ele>307.6</ele>
        <time>2022-10-02T08:30:11Z</time>
      </trkpt>
      <trkpt lat="46.01293" lon="1.0915">
        <ele>307.6</ele>
        <time>2022-10-02T08:30:12Z</time>
      </trkpt>
      <trkpt lat="46.01288" lon="1.0915">
        <ele>307.6</ele>
        <time>2022-10-02T08:30:13Z</time>
      </trkpt>
      <trkpt lat="46.01282" lon="1.09151">
        <ele>307.7</ele>
        <time>2022-10-02T08:30:14Z</time>
      </trkpt>
      <trkpt lat="46.01277" lon="1.09151">
        <ele>307.7</ele>
        <time>2022-10-02T08:30:15Z</time>
      </trkpt>
      <trkpt lat="46.01272" lon="1.09152">
        <ele>307.8</ele>
        <time>2022-10-02T08:30:16Z</time>
      </trkpt>
      <trkpt lat="46.01267" lon="1.0915">
        <ele>307.8</ele>
        <time>2022-10-02T08:30:17Z</time>
      </trkpt>
      <trkpt lat="46.01261" lon="1.09151">
        <ele>307.8</ele>
        <time>2022-10-02T08:30:18Z</time>
      </trkpt>
      <trkpt lat="46.01256" lon="1.0915">
        <ele>307.9</ele>
        <time>2022-10-02T08:30:19Z</time>
      </trkpt>
      <trkpt lat="46.01251" lon="1.0915">
        <ele>307.9</ele>
        <time>2022-10-02T08:30:20Z</time>
      </trkpt>
      <trkpt lat="46.0124" lon="1.09151">
        <ele>307.9</ele>
        <time>2022-10-02T08:30:21Z</time>
      </trkpt>
      <trkpt lat="46.01235" lon="1.09157">
        <ele>307.9</ele>
        <time>2022-10-02T08:30:22Z</time>
      </trkpt>
      <trkpt lat="46.01232" lon="1.09163">
        <ele>307.9</ele>
        <time>2022-10-02T08:30:23Z</time>
      </trkpt>
      <trkpt lat="46.0123" lon="1.09168">
        <ele>307.9</ele>
        <time>2022-10-02T08:30:24Z</time>
      </trkpt>
      <trkpt lat="46.01228" lon="1.09175">
        <ele>308</ele>
        <time>2022-10-02T08:30:25Z</time>
      </trkpt>
      <trkpt lat="46.01228" lon="1.09178">
        <ele>308</ele>
        <time>2022-10-02T08:30:26Z</time>
      </trkpt>
      <trkpt lat="46.01226" lon="1.09183">
        <ele>308.1</ele>
        <time>2022-10-02T08:30:27Z</time>
      </trkpt>
      <trkpt lat="46.01223" lon="1.09183">
        <ele>308.2</ele>
        <time>2022-10-02T08:30:28Z</time>
      </trkpt>
      <trkpt lat="46.01218" lon="1.09184">
        <ele>308.4</ele>
        <time>2022-10-02T08:30:29Z</time>
      </trkpt>
      <trkpt lat="46.01216" lon="1.09184">
        <ele>308.5</ele>
        <time>2022-10-02T08:30:30Z</time>
      </trkpt>
      <trkpt lat="46.01213" lon="1.09182">
        <ele>308.7</ele>
        <time>2022-10-02T08:30:31Z</time>
      </trkpt>
      <trkpt lat="46.0121" lon="1.09181">
        <ele>308.9</ele>
        <time>2022-10-02T08:30:32Z</time>
      </trkpt>
      <trkpt lat="46.01209" lon="1.09182">
        <ele>309</ele>
        <time>2022-10-02T08:30:33Z</time>
      </trkpt>
      <trkpt lat="46.01207" lon="1.09183">
        <ele>309.2</ele>
        <time>2022-10-02T08:30:34Z</time>
      </trkpt>
      <trkpt lat="46.01204" lon="1.09184">
        <ele>309.4</ele>
        <time>2022-10-02T08:30:35Z</time>
      </trkpt>
      <trkpt lat="46.01202" lon="1.09185">
        <ele>309.6</ele>
        <time>2022-10-02T08:30:36Z</time>
      </trkpt>
      <trkpt lat="46.012" lon="1.09186">
        <ele>309.8</ele>
        <time>2022-10-02T08:30:37Z</time>
      </trkpt>
      <trkpt lat="46.01198" lon="1.09188">
        <ele>310</ele>
        <time>2022-10-02T08:30:38Z</time>
      </trkpt>
      <trkpt lat="46.01197" lon="1.09189">
        <ele>310.1</ele>
        <time>2022-10-02T08:30:39Z</time>
      </trkpt>
      <trkpt lat="46.01194" lon="1.09189">
        <ele>310.4</ele>
        <time>2022-10-02T08:30:40Z</time>
      </trkpt>
      <trkpt lat="46.01192" lon="1.09189">
        <ele>310.6</ele>
        <time>2022-10-02T08:30:41Z</time>
      </trkpt>
      <trkpt lat="46.01191" lon="1.09189">
        <ele>310.8</ele>
        <time>2022-10-02T08:30:42Z</time>
      </trkpt>
      <trkpt lat="46.01188" lon="1.0919">
        <ele>311.1</ele>
        <time>2022-10-02T08:30:43Z</time>
      </trkpt>
      <trkpt lat="46.01187" lon="1.09192">
        <ele>311.3</ele>
        <time>2022-10-02T08:30:45Z</time>
      </trkpt>
      <trkpt lat="46.01185" lon="1.09196">
        <ele>311.6</ele>
        <time>2022-10-02T08:30:46Z</time>
      </trkpt>
      <trkpt lat="46.01184" lon="1.09198">
        <ele>311.8</ele>
        <time>2022-10-02T08:30:47Z</time>
      </trkpt>
      <trkpt lat="46.01181" lon="1.09199">
        <ele>312.1</ele>
        <time>2022-10-02T08:30:48Z</time>
      </trkpt>
      <trkpt lat="46.01178" lon="1.092">
        <ele>312.4</ele>
        <time>2022-10-02T08:30:49Z</time>
      </trkpt>
      <trkpt lat="46.01177" lon="1.09204">
        <ele>312.7</ele>
        <time>2022-10-02T08:30:50Z</time>
      </trkpt>
      <trkpt lat="46.01175" lon="1.09207">
        <ele>312.9</ele>
        <time>2022-10-02T08:30:51Z</time>
      </trkpt>
      <trkpt lat="46.01174" lon="1.0921">
        <ele>313.2</ele>
        <time>2022-10-02T08:30:52Z</time>
      </trkpt>
      <trkpt lat="46.0117" lon="1.09212">
        <ele>313.5</ele>
        <time>2022-10-02T08:30:53Z</time>
      </trkpt>
      <trkpt lat="46.01167" lon="1.09213">
        <ele>313.6</ele>
        <time>2022-10-02T08:30:54Z</time>
      </trkpt>
      <trkpt lat="46.01165" lon="1.09213">
        <ele>313.8</ele>
        <time>2022-10-02T08:30:55Z</time>
      </trkpt>
      <trkpt lat="46.01162" lon="1.09215">
        <ele>313.9</ele>
        <time>2022-10-02T08:30:56Z</time>
      </trkpt>
      <trkpt lat="46.01158" lon="1.09216">
        <ele>314</ele>
        <time>2022-10-02T08:30:57Z</time>
      </trkpt>
      <trkpt lat="46.01153" lon="1.09217">
        <ele>314.1</ele>
        <time>2022-10-02T08:30:58Z</time>
      </trkpt>
      <trkpt lat="46.01145" lon="1.09219">
        <ele>314.2</ele>
        <time>2022-10-02T08:30:59Z</time>
      </trkpt>
      <trkpt lat="46.0114" lon="1.09219">
        <ele>314.2</ele>
        <time>2022-10-02T08:31:00Z</time>
      </trkpt>
      <trkpt lat="46.01133" lon="1.0922">
        <ele>314.3</ele>
        <time>2022-10-02T08:31:01Z</time>
      </trkpt>
      <trkpt lat="46.01127" lon="1.09222">
        <ele>314.3</ele>
        <time>2022-10-02T08:31:02Z</time>
      </trkpt>
      <trkpt lat="46.0112" lon="1.09223">
        <ele>314.3</ele>
        <time>2022-10-02T08:31:03Z</time>
      </trkpt>
      <trkpt lat="46.01114" lon="1.09224">
        <ele>314.3</ele>
        <time>2022-10-02T08:31:04Z</time>
      </trkpt>
      <trkpt lat="46.01109" lon="1.09225">
        <ele>314.3</ele>
        <time>2022-10-02T08:31:05Z</time>
      </trkpt>
      <trkpt lat="46.01102" lon="1.09228">
        <ele>314.3</ele>
        <time>2022-10-02T08:31:06Z</time>
      </trkpt>
      <trkpt lat="46.01096" lon="1.09229">
        <ele>314.3</ele>
        <time>2022-10-02T08:31:07Z</time>
      </trkpt>
      <trkpt lat="46.01089" lon="1.09232">
        <ele>314.3</ele>
        <time>2022-10-02T08:31:08Z</time>
      </trkpt>
      <trkpt lat="46.01084" lon="1.09231">
        <ele>314.4</ele>
        <time>2022-10-02T08:31:09Z</time>
      </trkpt>
      <trkpt lat="46.01078" lon="1.09232">
        <ele>314.4</ele>
        <time>2022-10-02T08:31:10Z</time>
      </trkpt>
      <trkpt lat="46.01073" lon="1.0923">
        <ele>314.5</ele>
        <time>2022-10-02T08:31:11Z</time>
      </trkpt>
      <trkpt lat="46.01067" lon="1.0923">
        <ele>314.6</ele>
        <time>2022-10-02T08:31:12Z</time>
      </trkpt>
      <trkpt lat="46.01062" lon="1.09232">
        <ele>314.7</ele>
        <time>2022-10-02T08:31:13Z</time>
      </trkpt>
      <trkpt lat="46.01055" lon="1.09232">
        <ele>314.8</ele>
        <time>2022-10-02T08:31:14Z</time>
      </trkpt>
      <trkpt lat="46.01049" lon="1.09236">
        <ele>314.9</ele>
        <time>2022-10-02T08:31:15Z</time>
      </trkpt>
      <trkpt lat="46.01045" lon="1.09238">
        <ele>315</ele>
        <time>2022-10-02T08:31:16Z</time>
      </trkpt>
      <trkpt lat="46.0104" lon="1.0924">
        <ele>315.2</ele>
        <time>2022-10-02T08:31:17Z</time>
      </trkpt>
      <trkpt lat="46.01037" lon="1.0924">
        <ele>315.3</ele>
        <time>2022-10-02T08:31:18Z</time>
      </trkpt>
      <trkpt lat="46.01037" lon="1.09236">
        <ele>315.4</ele>
        <time>2022-10-02T08:31:19Z</time>
      </trkpt>
      <trkpt lat="46.01034" lon="1.09234">
        <ele>315.4</ele>
        <time>2022-10-02T08:31:20Z</time>
      </trkpt>
      <trkpt lat="46.01035" lon="1.09226">
        <ele>315.3</ele>
        <time>2022-10-02T08:31:21Z</time>
      </trkpt>
      <trkpt lat="46.01036" lon="1.0922">
        <ele>315.3</ele>
        <time>2022-10-02T08:31:22Z</time>
      </trkpt>
      <trkpt lat="46.01036" lon="1.09215">
        <ele>315.3</ele>
        <time>2022-10-02T08:31:23Z</time>
      </trkpt>
      <trkpt lat="46.01036" lon="1.09207">
        <ele>315.2</ele>
        <time>2022-10-02T08:31:24Z</time>
      </trkpt>
      <trkpt lat="46.01037" lon="1.092">
        <ele>315.2</ele>
        <time>2022-10-02T08:31:25Z</time>
      </trkpt>
      <trkpt lat="46.01038" lon="1.09192">
        <ele>315.2</ele>
        <time>2022-10-02T08:31:26Z</time>
      </trkpt>
      <trkpt lat="46.0104" lon="1.09184">
        <ele>315.2</ele>
        <time>2022-10-02T08:31:27Z</time>
      </trkpt>
      <trkpt lat="46.01042" lon="1.09177">
        <ele>315.2</ele>
        <time>2022-10-02T08:31:28Z</time>
      </trkpt>
      <trkpt lat="46.01042" lon="1.09169">
        <ele>315.3</ele>
        <time>2022-10-02T08:31:29Z</time>
      </trkpt>
      <trkpt lat="46.01043" lon="1.09161">
        <ele>315.3</ele>
        <time>2022-10-02T08:31:30Z</time>
      </trkpt>
      <trkpt lat="46.01045" lon="1.09152">
        <ele>315.4</ele>
        <time>2022-10-02T08:31:31Z</time>
      </trkpt>
      <trkpt lat="46.01045" lon="1.09145">
        <ele>315.5</ele>
        <time>2022-10-02T08:31:32Z</time>
      </trkpt>
      <trkpt lat="46.01046" lon="1.09138">
        <ele>315.5</ele>
        <time>2022-10-02T08:31:33Z</time>
      </trkpt>
      <trkpt lat="46.01048" lon="1.0913">
        <ele>315.6</ele>
        <time>2022-10-02T08:31:34Z</time>
      </trkpt>
      <trkpt lat="46.01052" lon="1.09124">
        <ele>315.7</ele>
        <time>2022-10-02T08:31:35Z</time>
      </trkpt>
      <trkpt lat="46.01054" lon="1.09117">
        <ele>315.7</ele>
        <time>2022-10-02T08:31:36Z</time>
      </trkpt>
      <trkpt lat="46.01057" lon="1.09111">
        <ele>315.8</ele>
        <time>2022-10-02T08:31:37Z</time>
      </trkpt>
      <trkpt lat="46.0106" lon="1.09103">
        <ele>315.8</ele>
        <time>2022-10-02T08:31:38Z</time>
      </trkpt>
      <trkpt lat="46.01062" lon="1.09095">
        <ele>315.9</ele>
        <time>2022-10-02T08:31:39Z</time>
      </trkpt>
      <trkpt lat="46.01067" lon="1.09094">
        <ele>315.9</ele>
        <time>2022-10-02T08:31:40Z</time>
      </trkpt>
      <trkpt lat="46.01073" lon="1.0909">
        <ele>315.9</ele>
        <time>2022-10-02T08:31:41Z</time>
      </trkpt>
      <trkpt lat="46.01078" lon="1.09088">
        <ele>315.9</ele>
        <time>2022-10-02T08:31:42Z</time>
      </trkpt>
      <trkpt lat="46.01081" lon="1.09083">
        <ele>315.9</ele>
        <time>2022-10-02T08:31:43Z</time>
      </trkpt>
      <trkpt lat="46.01083" lon="1.09075">
        <ele>315.8</ele>
        <time>2022-10-02T08:31:44Z</time>
      </trkpt>
      <trkpt lat="46.01086" lon="1.0907">
        <ele>315.8</ele>
        <time>2022-10-02T08:31:45Z</time>
      </trkpt>
      <trkpt lat="46.01091" lon="1.09066">
        <ele>315.8</ele>
        <time>2022-10-02T08:31:46Z</time>
      </trkpt>
      <trkpt lat="46.01095" lon="1.09063">
        <ele>315.8</ele>
        <time>2022-10-02T08:31:47Z</time>
      </trkpt>
      <trkpt lat="46.01099" lon="1.09061">
        <ele>315.8</ele>
        <time>2022-10-02T08:31:48Z</time>
      </trkpt>
      <trkpt lat="46.01102" lon="1.09055">
        <ele>315.8</ele>
        <time>2022-10-02T08:31:49Z</time>
      </trkpt>
      <trkpt lat="46.01105" lon="1.09048">
        <ele>315.8</ele>
        <time>2022-10-02T08:31:50Z</time>
      </trkpt>
      <trkpt lat="46.01109" lon="1.09042">
        <ele>315.8</ele>
        <time>2022-10-02T08:31:51Z</time>
      </trkpt>
      <trkpt lat="46.01112" lon="1.09034">
        <ele>315.9</ele>
        <time>2022-10-02T08:31:52Z</time>
      </trkpt>
      <trkpt lat="46.01113" lon="1.09025">
        <ele>316.1</ele>
        <time>2022-10-02T08:31:53Z</time>
      </trkpt>
      <trkpt lat="46.01116" lon="1.09018">
        <ele>316.2</ele>
        <time>2022-10-02T08:31:54Z</time>
      </trkpt>
      <trkpt lat="46.01118" lon="1.09012">
        <ele>316.3</ele>
        <time>2022-10-02T08:31:55Z</time>
      </trkpt>
      <trkpt lat="46.0112" lon="1.09004">
        <ele>316.5</ele>
        <time>2022-10-02T08:31:56Z</time>
      </trkpt>
      <trkpt lat="46.01123" lon="1.09">
        <ele>316.6</ele>
        <time>2022-10-02T08:31:57Z</time>
      </trkpt>
      <trkpt lat="46.01125" lon="1.08993">
        <ele>316.8</ele>
        <time>2022-10-02T08:31:58Z</time>
      </trkpt>
      <trkpt lat="46.01128" lon="1.08988">
        <ele>316.9</ele>
        <time>2022-10-02T08:31:59Z</time>
      </trkpt>
      <trkpt lat="46.0113" lon="1.08982">
        <ele>317</ele>
        <time>2022-10-02T08:32:00Z</time>
      </trkpt>
      <trkpt lat="46.01131" lon="1.08973">
        <ele>317.1</ele>
        <time>2022-10-02T08:32:01Z</time>
      </trkpt>
      <trkpt lat="46.01135" lon="1.08964">
        <ele>317.2</ele>
        <time>2022-10-02T08:32:02Z</time>
      </trkpt>
      <trkpt lat="46.01138" lon="1.08955">
        <ele>317.3</ele>
        <time>2022-10-02T08:32:03Z</time>
      </trkpt>
      <trkpt lat="46.01141" lon="1.08948">
        <ele>317.3</ele>
        <time>2022-10-02T08:32:04Z</time>
      </trkpt>
      <trkpt lat="46.01143" lon="1.08939">
        <ele>317.4</ele>
        <time>2022-10-02T08:32:05Z</time>
      </trkpt>
      <trkpt lat="46.01145" lon="1.08933">
        <ele>317.5</ele>
        <time>2022-10-02T08:32:06Z</time>
      </trkpt>
      <trkpt lat="46.01148" lon="1.08928">
        <ele>317.6</ele>
        <time>2022-10-02T08:32:07Z</time>
      </trkpt>
      <trkpt lat="46.01151" lon="1.08923">
        <ele>317.7</ele>
        <time>2022-10-02T08:32:08Z</time>
      </trkpt>
      <trkpt lat="46.01154" lon="1.08913">
        <ele>317.9</ele>
        <time>2022-10-02T08:32:09Z</time>
      </trkpt>
      <trkpt lat="46.01154" lon="1.08904">
        <ele>318.1</ele>
        <time>2022-10-02T08:32:10Z</time>
      </trkpt>
      <trkpt lat="46.01156" lon="1.08894">
        <ele>318.4</ele>
        <time>2022-10-02T08:32:11Z</time>
      </trkpt>
      <trkpt lat="46.01157" lon="1.08885">
        <ele>318.6</ele>
        <time>2022-10-02T08:32:12Z</time>
      </trkpt>
      <trkpt lat="46.01159" lon="1.08876">
        <ele>318.9</ele>
        <time>2022-10-02T08:32:13Z</time>
      </trkpt>
      <trkpt lat="46.0116" lon="1.08868">
        <ele>319.2</ele>
        <time>2022-10-02T08:32:14Z</time>
      </trkpt>
      <trkpt lat="46.0116" lon="1.08861">
        <ele>319.5</ele>
        <time>2022-10-02T08:32:15Z</time>
      </trkpt>
      <trkpt lat="46.01159" lon="1.08854">
        <ele>319.8</ele>
        <time>2022-10-02T08:32:16Z</time>
      </trkpt>
      <trkpt lat="46.0116" lon="1.08847">
        <ele>320.2</ele>
        <time>2022-10-02T08:32:17Z</time>
      </trkpt>
      <trkpt lat="46.01157" lon="1.0884">
        <ele>320.6</ele>
        <time>2022-10-02T08:32:18Z</time>
      </trkpt>
      <trkpt lat="46.01156" lon="1.08833">
        <ele>321</ele>
        <time>2022-10-02T08:32:19Z</time>
      </trkpt>
      <trkpt lat="46.01155" lon="1.08828">
        <ele>321.4</ele>
        <time>2022-10-02T08:32:20Z</time>
      </trkpt>
      <trkpt lat="46.01156" lon="1.08821">
        <ele>321.8</ele>
        <time>2022-10-02T08:32:21Z</time>
      </trkpt>
      <trkpt lat="46.01157" lon="1.08816">
        <ele>322</ele>
        <time>2022-10-02T08:32:22Z</time>
      </trkpt>
      <trkpt lat="46.0116" lon="1.08809">
        <ele>322.4</ele>
        <time>2022-10-02T08:32:23Z</time>
      </trkpt>
      <trkpt lat="46.01162" lon="1.08803">
        <ele>322.8</ele>
        <time>2022-10-02T08:32:24Z</time>
      </trkpt>
      <trkpt lat="46.01165" lon="1.08799">
        <ele>323</ele>
        <time>2022-10-02T08:32:25Z</time>
      </trkpt>
      <trkpt lat="46.01168" lon="1.08794">
        <ele>323.3</ele>
        <time>2022-10-02T08:32:26Z</time>
      </trkpt>
      <trkpt lat="46.0117" lon="1.08789">
        <ele>323.5</ele>
        <time>2022-10-02T08:32:27Z</time>
      </trkpt>
      <trkpt lat="46.01173" lon="1.08784">
        <ele>323.6</ele>
        <time>2022-10-02T08:32:28Z</time>
      </trkpt>
      <trkpt lat="46.01177" lon="1.08779">
        <ele>323.8</ele>
        <time>2022-10-02T08:32:29Z</time>
      </trkpt>
      <trkpt lat="46.01181" lon="1.08775">
        <ele>324</ele>
        <time>2022-10-02T08:32:30Z</time>
      </trkpt>
      <trkpt lat="46.01184" lon="1.0877">
        <ele>324.2</ele>
        <time>2022-10-02T08:32:31Z</time>
      </trkpt>
      <trkpt lat="46.01187" lon="1.08764">
        <ele>324.4</ele>
        <time>2022-10-02T08:32:32Z</time>
      </trkpt>
      <trkpt lat="46.0119" lon="1.08757">
        <ele>324.5</ele>
        <time>2022-10-02T08:32:33Z</time>
      </trkpt>
      <trkpt lat="46.01192" lon="1.08751">
        <ele>324.6</ele>
        <time>2022-10-02T08:32:34Z</time>
      </trkpt>
      <trkpt lat="46.01194" lon="1.08744">
        <ele>324.7</ele>
        <time>2022-10-02T08:32:35Z</time>
      </trkpt>
      <trkpt lat="46.01196" lon="1.08737">
        <ele>324.9</ele>
        <time>2022-10-02T08:32:36Z</time>
      </trkpt>
      <trkpt lat="46.01198" lon="1.08729">
        <ele>325</ele>
        <time>2022-10-02T08:32:37Z</time>
      </trkpt>
      <trkpt lat="46.012" lon="1.08722">
        <ele>325.1</ele>
        <time>2022-10-02T08:32:38Z</time>
      </trkpt>
      <trkpt lat="46.01201" lon="1.08714">
        <ele>325.2</ele>
        <time>2022-10-02T08:32:39Z</time>
      </trkpt>
      <trkpt lat="46.01201" lon="1.08706">
        <ele>325.4</ele>
        <time>2022-10-02T08:32:40Z</time>
      </trkpt>
      <trkpt lat="46.01201" lon="1.08697">
        <ele>325.6</ele>
        <time>2022-10-02T08:32:41Z</time>
      </trkpt>
      <trkpt lat="46.01201" lon="1.08689">
        <ele>325.8</ele>
        <time>2022-10-02T08:32:42Z</time>
      </trkpt>
      <trkpt lat="46.01201" lon="1.08681">
        <ele>326</ele>
        <time>2022-10-02T08:32:43Z</time>
      </trkpt>
      <trkpt lat="46.01201" lon="1.08672">
        <ele>326.2</ele>
        <time>2022-10-02T08:32:44Z</time>
      </trkpt>
      <trkpt lat="46.01202" lon="1.08665">
        <ele>326.4</ele>
        <time>2022-10-02T08:32:45Z</time>
      </trkpt>
      <trkpt lat="46.01203" lon="1.08656">
        <ele>326.7</ele>
        <time>2022-10-02T08:32:46Z</time>
      </trkpt>
      <trkpt lat="46.01203" lon="1.08649">
        <ele>326.9</ele>
        <time>2022-10-02T08:32:47Z</time>
      </trkpt>
      <trkpt lat="46.01202" lon="1.08641">
        <ele>327.3</ele>
        <time>2022-10-02T08:32:48Z</time>
      </trkpt>
      <trkpt lat="46.01201" lon="1.08634">
        <ele>327.6</ele>
        <time>2022-10-02T08:32:49Z</time>
      </trkpt>
      <trkpt lat="46.012" lon="1.08629">
        <ele>328</ele>
        <time>2022-10-02T08:32:50Z</time>
      </trkpt>
      <trkpt lat="46.01199" lon="1.08625">
        <ele>328.2</ele>
        <time>2022-10-02T08:32:51Z</time>
      </trkpt>
      <trkpt lat="46.01197" lon="1.08623">
        <ele>328.4</ele>
        <time>2022-10-02T08:32:52Z</time>
      </trkpt>
      <trkpt lat="46.01193" lon="1.08623">
        <ele>328.7</ele>
        <time>2022-10-02T08:32:53Z</time>
      </trkpt>
      <trkpt lat="46.0119" lon="1.08627">
        <ele>328.6</ele>
        <time>2022-10-02T08:32:54Z</time>
      </trkpt>
      <trkpt lat="46.01185" lon="1.08629">
        <ele>328.5</ele>
        <time>2022-10-02T08:32:55Z</time>
      </trkpt>
      <trkpt lat="46.01179" lon="1.08628">
        <ele>328.4</ele>
        <time>2022-10-02T08:32:56Z</time>
      </trkpt>
      <trkpt lat="46.01173" lon="1.08633">
        <ele>328.3</ele>
        <time>2022-10-02T08:32:57Z</time>
      </trkpt>
      <trkpt lat="46.01168" lon="1.08635">
        <ele>328.1</ele>
        <time>2022-10-02T08:32:58Z</time>
      </trkpt>
      <trkpt lat="46.01162" lon="1.08638">
        <ele>328</ele>
        <time>2022-10-02T08:32:59Z</time>
      </trkpt>
      <trkpt lat="46.01156" lon="1.08639">
        <ele>327.9</ele>
        <time>2022-10-02T08:33:00Z</time>
      </trkpt>
      <trkpt lat="46.01151" lon="1.08642">
        <ele>327.8</ele>
        <time>2022-10-02T08:33:01Z</time>
      </trkpt>
      <trkpt lat="46.01145" lon="1.08644">
        <ele>327.7</ele>
        <time>2022-10-02T08:33:02Z</time>
      </trkpt>
      <trkpt lat="46.0114" lon="1.08644">
        <ele>327.5</ele>
        <time>2022-10-02T08:33:03Z</time>
      </trkpt>
      <trkpt lat="46.01133" lon="1.08647">
        <ele>327.4</ele>
        <time>2022-10-02T08:33:04Z</time>
      </trkpt>
      <trkpt lat="46.01127" lon="1.08647">
        <ele>327.3</ele>
        <time>2022-10-02T08:33:05Z</time>
      </trkpt>
      <trkpt lat="46.01121" lon="1.08646">
        <ele>327.1</ele>
        <time>2022-10-02T08:33:06Z</time>
      </trkpt>
      <trkpt lat="46.01115" lon="1.08645">
        <ele>326.9</ele>
        <time>2022-10-02T08:33:07Z</time>
      </trkpt>
      <trkpt lat="46.01109" lon="1.08645">
        <ele>326.7</ele>
        <time>2022-10-02T08:33:08Z</time>
      </trkpt>
      <trkpt lat="46.01103" lon="1.08644">
        <ele>326.5</ele>
        <time>2022-10-02T08:33:09Z</time>
      </trkpt>
      <trkpt lat="46.01096" lon="1.08645">
        <ele>326.2</ele>
        <time>2022-10-02T08:33:10Z</time>
      </trkpt>
      <trkpt lat="46.0109" lon="1.08643">
        <ele>325.9</ele>
        <time>2022-10-02T08:33:11Z</time>
      </trkpt>
      <trkpt lat="46.01084" lon="1.08643">
        <ele>325.6</ele>
        <time>2022-10-02T08:33:12Z</time>
      </trkpt>
      <trkpt lat="46.01078" lon="1.08643">
        <ele>325.2</ele>
        <time>2022-10-02T08:33:13Z</time>
      </trkpt>
      <trkpt lat="46.01071" lon="1.08643">
        <ele>324.9</ele>
        <time>2022-10-02T08:33:14Z</time>
      </trkpt>
      <trkpt lat="46.01064" lon="1.08642">
        <ele>324.5</ele>
        <time>2022-10-02T08:33:15Z</time>
      </trkpt>
      <trkpt lat="46.01057" lon="1.08643">
        <ele>324.1</ele>
        <time>2022-10-02T08:33:16Z</time>
      </trkpt>
      <trkpt lat="46.0105" lon="1.0864">
        <ele>323.7</ele>
        <time>2022-10-02T08:33:17Z</time>
      </trkpt>
      <trkpt lat="46.01043" lon="1.0864">
        <ele>323.3</ele>
        <time>2022-10-02T08:33:18Z</time>
      </trkpt>
      <trkpt lat="46.01036" lon="1.0864">
        <ele>323</ele>
        <time>2022-10-02T08:33:19Z</time>
      </trkpt>
      <trkpt lat="46.01029" lon="1.08639">
        <ele>322.8</ele>
        <time>2022-10-02T08:33:20Z</time>
      </trkpt>
      <trkpt lat="46.01022" lon="1.08638">
        <ele>322.6</ele>
        <time>2022-10-02T08:33:21Z</time>
      </trkpt>
      <trkpt lat="46.01014" lon="1.08637">
        <ele>322.5</ele>
        <time>2022-10-02T08:33:22Z</time>
      </trkpt>
      <trkpt lat="46.01008" lon="1.08635">
        <ele>322.3</ele>
        <time>2022-10-02T08:33:23Z</time>
      </trkpt>
      <trkpt lat="46.01002" lon="1.08634">
        <ele>322.2</ele>
        <time>2022-10-02T08:33:24Z</time>
      </trkpt>
      <trkpt lat="46.00997" lon="1.08632">
        <ele>322.1</ele>
        <time>2022-10-02T08:33:25Z</time>
      </trkpt>
      <trkpt lat="46.00992" lon="1.08628">
        <ele>322</ele>
        <time>2022-10-02T08:33:26Z</time>
      </trkpt>
      <trkpt lat="46.00986" lon="1.08625">
        <ele>321.9</ele>
        <time>2022-10-02T08:33:27Z</time>
      </trkpt>
      <trkpt lat="46.00982" lon="1.08622">
        <ele>321.8</ele>
        <time>2022-10-02T08:33:28Z</time>
      </trkpt>
      <trkpt lat="46.00976" lon="1.0862">
        <ele>321.7</ele>
        <time>2022-10-02T08:33:29Z</time>
      </trkpt>
      <trkpt lat="46.00971" lon="1.08617">
        <ele>321.6</ele>
        <time>2022-10-02T08:33:30Z</time>
      </trkpt>
      <trkpt lat="46.00965" lon="1.08615">
        <ele>321.6</ele>
        <time>2022-10-02T08:33:31Z</time>
      </trkpt>
      <trkpt lat="46.00959" lon="1.08613">
        <ele>321.6</ele>
        <time>2022-10-02T08:33:32Z</time>
      </trkpt>
      <trkpt lat="46.00953" lon="1.08612">
        <ele>321.6</ele>
        <time>2022-10-02T08:33:33Z</time>
      </trkpt>
      <trkpt lat="46.00947" lon="1.0861">
        <ele>321.6</ele>
        <time>2022-10-02T08:33:34Z</time>
      </trkpt>
      <trkpt lat="46.00941" lon="1.08609">
        <ele>321.7</ele>
        <time>2022-10-02T08:33:35Z</time>
      </trkpt>
      <trkpt lat="46.00936" lon="1.08608">
        <ele>321.8</ele>
        <time>2022-10-02T08:33:36Z</time>
      </trkpt>
      <trkpt lat="46.0093" lon="1.08606">
        <ele>321.9</ele>
        <time>2022-10-02T08:33:37Z</time>
      </trkpt>
      <trkpt lat="46.00925" lon="1.08605">
        <ele>322</ele>
        <time>2022-10-02T08:33:38Z</time>
      </trkpt>
      <trkpt lat="46.00921" lon="1.08605">
        <ele>322.1</ele>
        <time>2022-10-02T08:33:39Z</time>
      </trkpt>
      <trkpt lat="46.00915" lon="1.08604">
        <ele>322.3</ele>
        <time>2022-10-02T08:33:40Z</time>
      </trkpt>
      <trkpt lat="46.00909" lon="1.08603">
        <ele>322.5</ele>
        <time>2022-10-02T08:33:41Z</time>
      </trkpt>
      <trkpt lat="46.00904" lon="1.08601">
        <ele>322.6</ele>
        <time>2022-10-02T08:33:42Z</time>
      </trkpt>
      <trkpt lat="46.00898" lon="1.086">
        <ele>322.7</ele>
        <time>2022-10-02T08:33:43Z</time>
      </trkpt>
      <trkpt lat="46.00893" lon="1.08599">
        <ele>322.9</ele>
        <time>2022-10-02T08:33:44Z</time>
      </trkpt>
      <trkpt lat="46.00887" lon="1.08597">
        <ele>323.2</ele>
        <time>2022-10-02T08:33:45Z</time>
      </trkpt>
      <trkpt lat="46.00881" lon="1.08596">
        <ele>323.5</ele>
        <time>2022-10-02T08:33:46Z</time>
      </trkpt>
      <trkpt lat="46.00876" lon="1.08594">
        <ele>323.9</ele>
        <time>2022-10-02T08:33:47Z</time>
      </trkpt>
      <trkpt lat="46.0087" lon="1.08594">
        <ele>324.3</ele>
        <time>2022-10-02T08:33:48Z</time>
      </trkpt>
      <trkpt lat="46.00864" lon="1.08594">
        <ele>324.9</ele>
        <time>2022-10-02T08:33:49Z</time>
      </trkpt>
      <trkpt lat="46.0086" lon="1.08593">
        <ele>325.3</ele>
        <time>2022-10-02T08:33:50Z</time>
      </trkpt>
      <trkpt lat="46.00855" lon="1.08592">
        <ele>325.8</ele>
        <time>2022-10-02T08:33:51Z</time>
      </trkpt>
      <trkpt lat="46.00851" lon="1.08593">
        <ele>326.3</ele>
        <time>2022-10-02T08:33:52Z</time>
      </trkpt>
      <trkpt lat="46.00847" lon="1.08595">
        <ele>326.7</ele>
        <time>2022-10-02T08:33:53Z</time>
      </trkpt>
      <trkpt lat="46.00843" lon="1.08596">
        <ele>327.2</ele>
        <time>2022-10-02T08:33:54Z</time>
      </trkpt>
      <trkpt lat="46.00839" lon="1.08595">
        <ele>327.6</ele>
        <time>2022-10-02T08:33:55Z</time>
      </trkpt>
      <trkpt lat="46.00835" lon="1.08596">
        <ele>328</ele>
        <time>2022-10-02T08:33:56Z</time>
      </trkpt>
      <trkpt lat="46.0083" lon="1.08592">
        <ele>328.5</ele>
        <time>2022-10-02T08:33:57Z</time>
      </trkpt>
      <trkpt lat="46.00826" lon="1.0859">
        <ele>328.9</ele>
        <time>2022-10-02T08:33:58Z</time>
      </trkpt>
      <trkpt lat="46.00823" lon="1.08586">
        <ele>329.2</ele>
        <time>2022-10-02T08:33:59Z</time>
      </trkpt>
      <trkpt lat="46.0082" lon="1.0858">
        <ele>329.6</ele>
        <time>2022-10-02T08:34:00Z</time>
      </trkpt>
      <trkpt lat="46.00816" lon="1.08577">
        <ele>329.8</ele>
        <time>2022-10-02T08:34:01Z</time>
      </trkpt>
      <trkpt lat="46.00814" lon="1.08572">
        <ele>330.1</ele>
        <time>2022-10-02T08:34:02Z</time>
      </trkpt>
      <trkpt lat="46.00812" lon="1.08569">
        <ele>330.2</ele>
        <time>2022-10-02T08:34:03Z</time>
      </trkpt>
      <trkpt lat="46.00809" lon="1.08567">
        <ele>330.3</ele>
        <time>2022-10-02T08:34:04Z</time>
      </trkpt>
      <trkpt lat="46.00806" lon="1.08565">
        <ele>330.5</ele>
        <time>2022-10-02T08:34:05Z</time>
      </trkpt>
      <trkpt lat="46.00803" lon="1.08562">
        <ele>330.6</ele>
        <time>2022-10-02T08:34:06Z</time>
      </trkpt>
      <trkpt lat="46.00797" lon="1.08561">
        <ele>330.7</ele>
        <time>2022-10-02T08:34:07Z</time>
      </trkpt>
      <trkpt lat="46.0079" lon="1.08564">
        <ele>330.9</ele>
        <time>2022-10-02T08:34:08Z</time>
      </trkpt>
      <trkpt lat="46.00784" lon="1.0857">
        <ele>331</ele>
        <time>2022-10-02T08:34:09Z</time>
      </trkpt>
      <trkpt lat="46.00777" lon="1.08574">
        <ele>331</ele>
        <time>2022-10-02T08:34:10Z</time>
      </trkpt>
      <trkpt lat="46.00769" lon="1.08579">
        <ele>330.6</ele>
        <time>2022-10-02T08:34:11Z</time>
      </trkpt>
      <trkpt lat="46.00762" lon="1.08581">
        <ele>330.2</ele>
        <time>2022-10-02T08:34:12Z</time>
      </trkpt>
      <trkpt lat="46.00755" lon="1.08581">
        <ele>329.7</ele>
        <time>2022-10-02T08:34:13Z</time>
      </trkpt>
      <trkpt lat="46.00749" lon="1.08579">
        <ele>329.1</ele>
        <time>2022-10-02T08:34:14Z</time>
      </trkpt>
      <trkpt lat="46.00742" lon="1.08577">
        <ele>328.6</ele>
        <time>2022-10-02T08:34:15Z</time>
      </trkpt>
      <trkpt lat="46.00737" lon="1.08571">
        <ele>328.1</ele>
        <time>2022-10-02T08:34:16Z</time>
      </trkpt>
      <trkpt lat="46.0073" lon="1.08566">
        <ele>327.6</ele>
        <time>2022-10-02T08:34:17Z</time>
      </trkpt>
      <trkpt lat="46.00726" lon="1.0856">
        <ele>327.3</ele>
        <time>2022-10-02T08:34:18Z</time>
      </trkpt>
      <trkpt lat="46.00721" lon="1.08554">
        <ele>327</ele>
        <time>2022-10-02T08:34:19Z</time>
      </trkpt>
      <trkpt lat="46.00716" lon="1.08548">
        <ele>326.7</ele>
        <time>2022-10-02T08:34:20Z</time>
      </trkpt>
      <trkpt lat="46.00711" lon="1.08544">
        <ele>326.4</ele>
        <time>2022-10-02T08:34:21Z</time>
      </trkpt>
      <trkpt lat="46.00707" lon="1.08542">
        <ele>326.3</ele>
        <time>2022-10-02T08:34:22Z</time>
      </trkpt>
      <trkpt lat="46.00702" lon="1.08542">
        <ele>326.2</ele>
        <time>2022-10-02T08:34:23Z</time>
      </trkpt>
      <trkpt lat="46.00698" lon="1.08543">
        <ele>326.1</ele>
        <time>2022-10-02T08:34:24Z</time>
      </trkpt>
      <trkpt lat="46.00696" lon="1.0855">
        <ele>326</ele>
        <time>2022-10-02T08:34:25Z</time>
      </trkpt>
      <trkpt lat="46.00693" lon="1.08556">
        <ele>326</ele>
        <time>2022-10-02T08:34:26Z</time>
      </trkpt>
      <trkpt lat="46.0069" lon="1.08565">
        <ele>326</ele>
        <time>2022-10-02T08:34:27Z</time>
      </trkpt>
      <trkpt lat="46.00686" lon="1.08573">
        <ele>326.1</ele>
        <time>2022-10-02T08:34:28Z</time>
      </trkpt>
      <trkpt lat="46.00682" lon="1.0858">
        <ele>326.1</ele>
        <time>2022-10-02T08:34:29Z</time>
      </trkpt>
      <trkpt lat="46.00677" lon="1.08587">
        <ele>326.2</ele>
        <time>2022-10-02T08:34:30Z</time>
      </trkpt>
      <trkpt lat="46.00672" lon="1.08591">
        <ele>326.2</ele>
        <time>2022-10-02T08:34:31Z</time>
      </trkpt>
      <trkpt lat="46.00665" lon="1.08598">
        <ele>326.1</ele>
        <time>2022-10-02T08:34:32Z</time>
      </trkpt>
      <trkpt lat="46.00659" lon="1.086">
        <ele>326</ele>
        <time>2022-10-02T08:34:33Z</time>
      </trkpt>
      <trkpt lat="46.00652" lon="1.08599">
        <ele>325.9</ele>
        <time>2022-10-02T08:34:34Z</time>
      </trkpt>
      <trkpt lat="46.00646" lon="1.08601">
        <ele>325.8</ele>
        <time>2022-10-02T08:34:35Z</time>
      </trkpt>
      <trkpt lat="46.00639" lon="1.08602">
        <ele>325.6</ele>
        <time>2022-10-02T08:34:36Z</time>
      </trkpt>
      <trkpt lat="46.00633" lon="1.08605">
        <ele>325.5</ele>
        <time>2022-10-02T08:34:37Z</time>
      </trkpt>
      <trkpt lat="46.00627" lon="1.08607">
        <ele>325.5</ele>
        <time>2022-10-02T08:34:38Z</time>
      </trkpt>
      <trkpt lat="46.00622" lon="1.08611">
        <ele>325.4</ele>
        <time>2022-10-02T08:34:39Z</time>
      </trkpt>
      <trkpt lat="46.00616" lon="1.08613">
        <ele>325.4</ele>
        <time>2022-10-02T08:34:40Z</time>
      </trkpt>
      <trkpt lat="46.0061" lon="1.08616">
        <ele>325.4</ele>
        <time>2022-10-02T08:34:41Z</time>
      </trkpt>
      <trkpt lat="46.00604" lon="1.08618">
        <ele>325.4</ele>
        <time>2022-10-02T08:34:42Z</time>
      </trkpt>
      <trkpt lat="46.00598" lon="1.08623">
        <ele>325.4</ele>
        <time>2022-10-02T08:34:43Z</time>
      </trkpt>
      <trkpt lat="46.00594" lon="1.08623">
        <ele>325.4</ele>
        <time>2022-10-02T08:34:44Z</time>
      </trkpt>
      <trkpt lat="46.00589" lon="1.08626">
        <ele>325.4</ele>
        <time>2022-10-02T08:34:45Z</time>
      </trkpt>
      <trkpt lat="46.00583" lon="1.08629">
        <ele>325.5</ele>
        <time>2022-10-02T08:34:46Z</time>
      </trkpt>
      <trkpt lat="46.00578" lon="1.08629">
        <ele>325.5</ele>
        <time>2022-10-02T08:34:47Z</time>
      </trkpt>
      <trkpt lat="46.00574" lon="1.08633">
        <ele>325.6</ele>
        <time>2022-10-02T08:34:48Z</time>
      </trkpt>
      <trkpt lat="46.00569" lon="1.08638">
        <ele>325.6</ele>
        <time>2022-10-02T08:34:49Z</time>
      </trkpt>
      <trkpt lat="46.00565" lon="1.08641">
        <ele>325.6</ele>
        <time>2022-10-02T08:34:50Z</time>
      </trkpt>
      <trkpt lat="46.0056" lon="1.08646">
        <ele>325.6</ele>
        <time>2022-10-02T08:34:51Z</time>
      </trkpt>
      <trkpt lat="46.00556" lon="1.08651">
        <ele>325.6</ele>
        <time>2022-10-02T08:34:52Z</time>
      </trkpt>
      <trkpt lat="46.00555" lon="1.08654">
        <ele>325.5</ele>
        <time>2022-10-02T08:34:53Z</time>
      </trkpt>
      <trkpt lat="46.00553" lon="1.08661">
        <ele>325.5</ele>
        <time>2022-10-02T08:34:54Z</time>
      </trkpt>
      <trkpt lat="46.00548" lon="1.08667">
        <ele>325.3</ele>
        <time>2022-10-02T08:34:55Z</time>
      </trkpt>
      <trkpt lat="46.00543" lon="1.08674">
        <ele>325.1</ele>
        <time>2022-10-02T08:34:56Z</time>
      </trkpt>
      <trkpt lat="46.00539" lon="1.08681">
        <ele>325</ele>
        <time>2022-10-02T08:34:57Z</time>
      </trkpt>
      <trkpt lat="46.00534" lon="1.08689">
        <ele>324.9</ele>
        <time>2022-10-02T08:34:58Z</time>
      </trkpt>
      <trkpt lat="46.0053" lon="1.08695">
        <ele>324.8</ele>
        <time>2022-10-02T08:34:59Z</time>
      </trkpt>
      <trkpt lat="46.00526" lon="1.08702">
        <ele>324.6</ele>
        <time>2022-10-02T08:35:00Z</time>
      </trkpt>
      <trkpt lat="46.00523" lon="1.0871">
        <ele>324.4</ele>
        <time>2022-10-02T08:35:01Z</time>
      </trkpt>
      <trkpt lat="46.0052" lon="1.08718">
        <ele>324.1</ele>
        <time>2022-10-02T08:35:02Z</time>
      </trkpt>
      <trkpt lat="46.00518" lon="1.08726">
        <ele>323.8</ele>
        <time>2022-10-02T08:35:03Z</time>
      </trkpt>
      <trkpt lat="46.00517" lon="1.08737">
        <ele>323.4</ele>
        <time>2022-10-02T08:35:04Z</time>
      </trkpt>
      <trkpt lat="46.00516" lon="1.08743">
        <ele>323.1</ele>
        <time>2022-10-02T08:35:05Z</time>
      </trkpt>
      <trkpt lat="46.00513" lon="1.08752">
        <ele>322.8</ele>
        <time>2022-10-02T08:35:06Z</time>
      </trkpt>
      <trkpt lat="46.0051" lon="1.08756">
        <ele>322.6</ele>
        <time>2022-10-02T08:35:08Z</time>
      </trkpt>
      <trkpt lat="46.00504" lon="1.08765">
        <ele>322.2</ele>
        <time>2022-10-02T08:35:09Z</time>
      </trkpt>
      <trkpt lat="46.00499" lon="1.08774">
        <ele>321.9</ele>
        <time>2022-10-02T08:35:10Z</time>
      </trkpt>
      <trkpt lat="46.00497" lon="1.08784">
        <ele>321.7</ele>
        <time>2022-10-02T08:35:11Z</time>
      </trkpt>
      <trkpt lat="46.00496" lon="1.08793">
        <ele>321.6</ele>
        <time>2022-10-02T08:35:12Z</time>
      </trkpt>
      <trkpt lat="46.00496" lon="1.08803">
        <ele>321.5</ele>
        <time>2022-10-02T08:35:13Z</time>
      </trkpt>
      <trkpt lat="46.00495" lon="1.08812">
        <ele>321.5</ele>
        <time>2022-10-02T08:35:14Z</time>
      </trkpt>
      <trkpt lat="46.00495" lon="1.08821">
        <ele>321.5</ele>
        <time>2022-10-02T08:35:15Z</time>
      </trkpt>
      <trkpt lat="46.00498" lon="1.08829">
        <ele>321.5</ele>
        <time>2022-10-02T08:35:16Z</time>
      </trkpt>
      <trkpt lat="46.00498" lon="1.08839">
        <ele>321.5</ele>
        <time>2022-10-02T08:35:17Z</time>
      </trkpt>
      <trkpt lat="46.00497" lon="1.08847">
        <ele>321.6</ele>
        <time>2022-10-02T08:35:18Z</time>
      </trkpt>
      <trkpt lat="46.00496" lon="1.08856">
        <ele>321.7</ele>
        <time>2022-10-02T08:35:19Z</time>
      </trkpt>
      <trkpt lat="46.00493" lon="1.08861">
        <ele>321.8</ele>
        <time>2022-10-02T08:35:20Z</time>
      </trkpt>
      <trkpt lat="46.00485" lon="1.08864">
        <ele>322.1</ele>
        <time>2022-10-02T08:35:21Z</time>
      </trkpt>
      <trkpt lat="46.00481" lon="1.08862">
        <ele>322.4</ele>
        <time>2022-10-02T08:35:22Z</time>
      </trkpt>
      <trkpt lat="46.00476" lon="1.08867">
        <ele>322.7</ele>
        <time>2022-10-02T08:35:23Z</time>
      </trkpt>
      <trkpt lat="46.00469" lon="1.08865">
        <ele>323.1</ele>
        <time>2022-10-02T08:35:24Z</time>
      </trkpt>
      <trkpt lat="46.00466" lon="1.08866">
        <ele>323.3</ele>
        <time>2022-10-02T08:35:25Z</time>
      </trkpt>
      <trkpt lat="46.0046" lon="1.08867">
        <ele>323.6</ele>
        <time>2022-10-02T08:35:26Z</time>
      </trkpt>
      <trkpt lat="46.00455" lon="1.0887">
        <ele>323.9</ele>
        <time>2022-10-02T08:35:27Z</time>
      </trkpt>
      <trkpt lat="46.00452" lon="1.08874">
        <ele>324.1</ele>
        <time>2022-10-02T08:35:28Z</time>
      </trkpt>
      <trkpt lat="46.00448" lon="1.08874">
        <ele>324.4</ele>
        <time>2022-10-02T08:35:29Z</time>
      </trkpt>
      <trkpt lat="46.00443" lon="1.08873">
        <ele>324.6</ele>
        <time>2022-10-02T08:35:30Z</time>
      </trkpt>
      <trkpt lat="46.00437" lon="1.08875">
        <ele>324.9</ele>
        <time>2022-10-02T08:35:31Z</time>
      </trkpt>
      <trkpt lat="46.00432" lon="1.08877">
        <ele>325.2</ele>
        <time>2022-10-02T08:35:32Z</time>
      </trkpt>
      <trkpt lat="46.00423" lon="1.08877">
        <ele>325.7</ele>
        <time>2022-10-02T08:35:33Z</time>
      </trkpt>
      <trkpt lat="46.00417" lon="1.08881">
        <ele>326</ele>
        <time>2022-10-02T08:35:34Z</time>
      </trkpt>
      <trkpt lat="46.00413" lon="1.08883">
        <ele>326.2</ele>
        <time>2022-10-02T08:35:35Z</time>
      </trkpt>
      <trkpt lat="46.00412" lon="1.08889">
        <ele>326.4</ele>
        <time>2022-10-02T08:35:36Z</time>
      </trkpt>
      <trkpt lat="46.00408" lon="1.08892">
        <ele>326.6</ele>
        <time>2022-10-02T08:35:37Z</time>
      </trkpt>
      <trkpt lat="46.00404" lon="1.08895">
        <ele>326.7</ele>
        <time>2022-10-02T08:35:38Z</time>
      </trkpt>
      <trkpt lat="46.004" lon="1.089">
        <ele>326.9</ele>
        <time>2022-10-02T08:35:39Z</time>
      </trkpt>
      <trkpt lat="46.00397" lon="1.08907">
        <ele>327</ele>
        <time>2022-10-02T08:35:40Z</time>
      </trkpt>
      <trkpt lat="46.00394" lon="1.08912">
        <ele>327.2</ele>
        <time>2022-10-02T08:35:41Z</time>
      </trkpt>
      <trkpt lat="46.00388" lon="1.08915">
        <ele>327.3</ele>
        <time>2022-10-02T08:35:42Z</time>
      </trkpt>
      <trkpt lat="46.00382" lon="1.08918">
        <ele>327.4</ele>
        <time>2022-10-02T08:35:43Z</time>
      </trkpt>
      <trkpt lat="46.00384" lon="1.08926">
        <ele>327.6</ele>
        <time>2022-10-02T08:35:44Z</time>
      </trkpt>
      <trkpt lat="46.00379" lon="1.0893">
        <ele>327.7</ele>
        <time>2022-10-02T08:35:45Z</time>
      </trkpt>
      <trkpt lat="46.00377" lon="1.08933">
        <ele>327.7</ele>
        <time>2022-10-02T08:35:46Z</time>
      </trkpt>
      <trkpt lat="46.00373" lon="1.08936">
        <ele>327.9</ele>
        <time>2022-10-02T08:35:47Z</time>
      </trkpt>
      <trkpt lat="46.0037" lon="1.08939">
        <ele>328</ele>
        <time>2022-10-02T08:35:48Z</time>
      </trkpt>
      <trkpt lat="46.00367" lon="1.08938">
        <ele>328.1</ele>
        <time>2022-10-02T08:35:49Z</time>
      </trkpt>
      <trkpt lat="46.0036" lon="1.08938">
        <ele>328.3</ele>
        <time>2022-10-02T08:35:50Z</time>
      </trkpt>
      <trkpt lat="46.00353" lon="1.08936">
        <ele>328.5</ele>
        <time>2022-10-02T08:35:51Z</time>
      </trkpt>
      <trkpt lat="46.0035" lon="1.08942">
        <ele>328.7</ele>
        <time>2022-10-02T08:35:52Z</time>
      </trkpt>
      <trkpt lat="46.00345" lon="1.08941">
        <ele>328.9</ele>
        <time>2022-10-02T08:35:53Z</time>
      </trkpt>
      <trkpt lat="46.0034" lon="1.0894">
        <ele>329.1</ele>
        <time>2022-10-02T08:35:54Z</time>
      </trkpt>
      <trkpt lat="46.00336" lon="1.08942">
        <ele>329.3</ele>
        <time>2022-10-02T08:35:55Z</time>
      </trkpt>
      <trkpt lat="46.0033" lon="1.08941">
        <ele>329.5</ele>
        <time>2022-10-02T08:35:56Z</time>
      </trkpt>
      <trkpt lat="46.00325" lon="1.08939">
        <ele>329.7</ele>
        <time>2022-10-02T08:35:57Z</time>
      </trkpt>
      <trkpt lat="46.0032" lon="1.08937">
        <ele>330</ele>
        <time>2022-10-02T08:35:58Z</time>
      </trkpt>
      <trkpt lat="46.00314" lon="1.08936">
        <ele>330.2</ele>
        <time>2022-10-02T08:35:59Z</time>
      </trkpt>
      <trkpt lat="46.00309" lon="1.08936">
        <ele>330.5</ele>
        <time>2022-10-02T08:36:00Z</time>
      </trkpt>
      <trkpt lat="46.00304" lon="1.08936">
        <ele>330.8</ele>
        <time>2022-10-02T08:36:01Z</time>
      </trkpt>
      <trkpt lat="46.00298" lon="1.08936">
        <ele>331.1</ele>
        <time>2022-10-02T08:36:02Z</time>
      </trkpt>
      <trkpt lat="46.00294" lon="1.08938">
        <ele>331.3</ele>
        <time>2022-10-02T08:36:03Z</time>
      </trkpt>
      <trkpt lat="46.0029" lon="1.08934">
        <ele>331.6</ele>
        <time>2022-10-02T08:36:04Z</time>
      </trkpt>
      <trkpt lat="46.00286" lon="1.08934">
        <ele>331.8</ele>
        <time>2022-10-02T08:36:05Z</time>
      </trkpt>
      <trkpt lat="46.00282" lon="1.08935">
        <ele>332.1</ele>
        <time>2022-10-02T08:36:06Z</time>
      </trkpt>
      <trkpt lat="46.00276" lon="1.08932">
        <ele>332.4</ele>
        <time>2022-10-02T08:36:07Z</time>
      </trkpt>
      <trkpt lat="46.00272" lon="1.08932">
        <ele>332.6</ele>
        <time>2022-10-02T08:36:08Z</time>
      </trkpt>
      <trkpt lat="46.00268" lon="1.0893">
        <ele>332.8</ele>
        <time>2022-10-02T08:36:09Z</time>
      </trkpt>
      <trkpt lat="46.00265" lon="1.08927">
        <ele>333</ele>
        <time>2022-10-02T08:36:10Z</time>
      </trkpt>
      <trkpt lat="46.0026" lon="1.08926">
        <ele>333.2</ele>
        <time>2022-10-02T08:36:11Z</time>
      </trkpt>
      <trkpt lat="46.00255" lon="1.08923">
        <ele>333.4</ele>
        <time>2022-10-02T08:36:12Z</time>
      </trkpt>
      <trkpt lat="46.00252" lon="1.08922">
        <ele>333.6</ele>
        <time>2022-10-02T08:36:13Z</time>
      </trkpt>
      <trkpt lat="46.00248" lon="1.08918">
        <ele>333.8</ele>
        <time>2022-10-02T08:36:14Z</time>
      </trkpt>
      <trkpt lat="46.00242" lon="1.08919">
        <ele>334.1</ele>
        <time>2022-10-02T08:36:15Z</time>
      </trkpt>
      <trkpt lat="46.00237" lon="1.08919">
        <ele>334.3</ele>
        <time>2022-10-02T08:36:16Z</time>
      </trkpt>
      <trkpt lat="46.00233" lon="1.0892">
        <ele>334.5</ele>
        <time>2022-10-02T08:36:17Z</time>
      </trkpt>
      <trkpt lat="46.00227" lon="1.08921">
        <ele>334.7</ele>
        <time>2022-10-02T08:36:18Z</time>
      </trkpt>
      <trkpt lat="46.00222" lon="1.0892">
        <ele>335</ele>
        <time>2022-10-02T08:36:19Z</time>
      </trkpt>
      <trkpt lat="46.00217" lon="1.08919">
        <ele>335.3</ele>
        <time>2022-10-02T08:36:20Z</time>
      </trkpt>
      <trkpt lat="46.00212" lon="1.0892">
        <ele>335.6</ele>
        <time>2022-10-02T08:36:21Z</time>
      </trkpt>
      <trkpt lat="46.00209" lon="1.0892">
        <ele>335.9</ele>
        <time>2022-10-02T08:36:22Z</time>
      </trkpt>
      <trkpt lat="46.00205" lon="1.08924">
        <ele>336.3</ele>
        <time>2022-10-02T08:36:23Z</time>
      </trkpt>
      <trkpt lat="46.00203" lon="1.08926">
        <ele>336.5</ele>
        <time>2022-10-02T08:36:24Z</time>
      </trkpt>
      <trkpt lat="46.002" lon="1.08932">
        <ele>336.9</ele>
        <time>2022-10-02T08:36:25Z</time>
      </trkpt>
      <trkpt lat="46.00198" lon="1.08938">
        <ele>337.3</ele>
        <time>2022-10-02T08:36:26Z</time>
      </trkpt>
      <trkpt lat="46.00196" lon="1.08944">
        <ele>337.6</ele>
        <time>2022-10-02T08:36:27Z</time>
      </trkpt>
      <trkpt lat="46.00196" lon="1.0895">
        <ele>338</ele>
        <time>2022-10-02T08:36:28Z</time>
      </trkpt>
      <trkpt lat="46.00197" lon="1.08956">
        <ele>338.3</ele>
        <time>2022-10-02T08:36:29Z</time>
      </trkpt>
      <trkpt lat="46.00196" lon="1.08961">
        <ele>338.5</ele>
        <time>2022-10-02T08:36:30Z</time>
      </trkpt>
      <trkpt lat="46.00195" lon="1.08966">
        <ele>338.8</ele>
        <time>2022-10-02T08:36:31Z</time>
      </trkpt>
      <trkpt lat="46.00194" lon="1.08971">
        <ele>339.1</ele>
        <time>2022-10-02T08:36:32Z</time>
      </trkpt>
      <trkpt lat="46.00189" lon="1.08976">
        <ele>339.4</ele>
        <time>2022-10-02T08:36:33Z</time>
      </trkpt>
      <trkpt lat="46.00185" lon="1.08979">
        <ele>339.7</ele>
        <time>2022-10-02T08:36:34Z</time>
      </trkpt>
      <trkpt lat="46.0018" lon="1.08982">
        <ele>339.9</ele>
        <time>2022-10-02T08:36:35Z</time>
      </trkpt>
      <trkpt lat="46.00177" lon="1.08984">
        <ele>340</ele>
        <time>2022-10-02T08:36:36Z</time>
      </trkpt>
      <trkpt lat="46.00173" lon="1.08988">
        <ele>340.1</ele>
        <time>2022-10-02T08:36:37Z</time>
      </trkpt>
      <trkpt lat="46.00169" lon="1.0899">
        <ele>340.3</ele>
        <time>2022-10-02T08:36:38Z</time>
      </trkpt>
      <trkpt lat="46.00164" lon="1.08992">
        <ele>340.4</ele>
        <time>2022-10-02T08:36:39Z</time>
      </trkpt>
      <trkpt lat="46.0016" lon="1.08994">
        <ele>340.5</ele>
        <time>2022-10-02T08:36:40Z</time>
      </trkpt>
      <trkpt lat="46.00155" lon="1.08996">
        <ele>340.7</ele>
        <time>2022-10-02T08:36:41Z</time>
      </trkpt>
      <trkpt lat="46.00149" lon="1.08998">
        <ele>340.9</ele>
        <time>2022-10-02T08:36:42Z</time>
      </trkpt>
      <trkpt lat="46.00144" lon="1.08999">
        <ele>341</ele>
        <time>2022-10-02T08:36:43Z</time>
      </trkpt>
      <trkpt lat="46.00139" lon="1.09">
        <ele>341.2</ele>
        <time>2022-10-02T08:36:44Z</time>
      </trkpt>
      <trkpt lat="46.00133" lon="1.09001">
        <ele>341.3</ele>
        <time>2022-10-02T08:36:45Z</time>
      </trkpt>
      <trkpt lat="46.00129" lon="1.09003">
        <ele>341.4</ele>
        <time>2022-10-02T08:36:46Z</time>
      </trkpt>
      <trkpt lat="46.00125" lon="1.09003">
        <ele>341.6</ele>
        <time>2022-10-02T08:36:47Z</time>
      </trkpt>
      <trkpt lat="46.00119" lon="1.09006">
        <ele>341.8</ele>
        <time>2022-10-02T08:36:48Z</time>
      </trkpt>
      <trkpt lat="46.00115" lon="1.09007">
        <ele>341.9</ele>
        <time>2022-10-02T08:36:49Z</time>
      </trkpt>
      <trkpt lat="46.0011" lon="1.0901">
        <ele>342</ele>
        <time>2022-10-02T08:36:50Z</time>
      </trkpt>
      <trkpt lat="46.00107" lon="1.0901">
        <ele>342.1</ele>
        <time>2022-10-02T08:36:51Z</time>
      </trkpt>
      <trkpt lat="46.00104" lon="1.09009">
        <ele>342.3</ele>
        <time>2022-10-02T08:36:52Z</time>
      </trkpt>
      <trkpt lat="46.00101" lon="1.09009">
        <ele>342.4</ele>
        <time>2022-10-02T08:36:53Z</time>
      </trkpt>
      <trkpt lat="46.00098" lon="1.09009">
        <ele>342.4</ele>
        <time>2022-10-02T08:36:54Z</time>
      </trkpt>
      <trkpt lat="46.00096" lon="1.09009">
        <ele>342.4</ele>
        <time>2022-10-02T08:36:55Z</time>
      </trkpt>
      <trkpt lat="46.00093" lon="1.09009">
        <ele>342.6</ele>
        <time>2022-10-02T08:36:56Z</time>
      </trkpt>
      <trkpt lat="46.0009" lon="1.09008">
        <ele>342.8</ele>
        <time>2022-10-02T08:36:57Z</time>
      </trkpt>
      <trkpt lat="46.00086" lon="1.09007">
        <ele>342.9</ele>
        <time>2022-10-02T08:36:58Z</time>
      </trkpt>
      <trkpt lat="46.00083" lon="1.09008">
        <ele>343.1</ele>
        <time>2022-10-02T08:36:59Z</time>
      </trkpt>
      <trkpt lat="46.00079" lon="1.09007">
        <ele>343.3</ele>
        <time>2022-10-02T08:37:00Z</time>
      </trkpt>
      <trkpt lat="46.00075" lon="1.09006">
        <ele>343.6</ele>
        <time>2022-10-02T08:37:01Z</time>
      </trkpt>
      <trkpt lat="46.00071" lon="1.09005">
        <ele>343.8</ele>
        <time>2022-10-02T08:37:02Z</time>
      </trkpt>
      <trkpt lat="46.00067" lon="1.09003">
        <ele>344</ele>
        <time>2022-10-02T08:37:03Z</time>
      </trkpt>
      <trkpt lat="46.00059" lon="1.09004">
        <ele>344.4</ele>
        <time>2022-10-02T08:37:04Z</time>
      </trkpt>
      <trkpt lat="46.00054" lon="1.09003">
        <ele>344.7</ele>
        <time>2022-10-02T08:37:05Z</time>
      </trkpt>
      <trkpt lat="46.00049" lon="1.09004">
        <ele>344.9</ele>
        <time>2022-10-02T08:37:06Z</time>
      </trkpt>
      <trkpt lat="46.00045" lon="1.09004">
        <ele>345.1</ele>
        <time>2022-10-02T08:37:07Z</time>
      </trkpt>
      <trkpt lat="46.00041" lon="1.09003">
        <ele>345.3</ele>
        <time>2022-10-02T08:37:08Z</time>
      </trkpt>
      <trkpt lat="46.00036" lon="1.09007">
        <ele>345.6</ele>
        <time>2022-10-02T08:37:09Z</time>
      </trkpt>
      <trkpt lat="46.00031" lon="1.09007">
        <ele>345.8</ele>
        <time>2022-10-02T08:37:10Z</time>
      </trkpt>
      <trkpt lat="46.00027" lon="1.09007">
        <ele>346</ele>
        <time>2022-10-02T08:37:11Z</time>
      </trkpt>
      <trkpt lat="46.00023" lon="1.09007">
        <ele>346.3</ele>
        <time>2022-10-02T08:37:12Z</time>
      </trkpt>
      <trkpt lat="46.00019" lon="1.09008">
        <ele>346.5</ele>
        <time>2022-10-02T08:37:13Z</time>
      </trkpt>
      <trkpt lat="46.00015" lon="1.09009">
        <ele>346.7</ele>
        <time>2022-10-02T08:37:14Z</time>
      </trkpt>
      <trkpt lat="46.0001" lon="1.09009">
        <ele>346.9</ele>
        <time>2022-10-02T08:37:15Z</time>
      </trkpt>
      <trkpt lat="46.00006" lon="1.09009">
        <ele>347.1</ele>
        <time>2022-10-02T08:37:16Z</time>
      </trkpt>
      <trkpt lat="46.00002" lon="1.09008">
        <ele>347.4</ele>
        <time>2022-10-02T08:37:17Z</time>
      </trkpt>
      <trkpt lat="45.99998" lon="1.09006">
        <ele>347.6</ele>
        <time>2022-10-02T08:37:18Z</time>
      </trkpt>
      <trkpt lat="45.99994" lon="1.09005">
        <ele>347.8</ele>
        <time>2022-10-02T08:37:19Z</time>
      </trkpt>
      <trkpt lat="45.99991" lon="1.09003">
        <ele>348</ele>
        <time>2022-10-02T08:37:20Z</time>
      </trkpt>
      <trkpt lat="45.99988" lon="1.09001">
        <ele>348.2</ele>
        <time>2022-10-02T08:37:21Z</time>
      </trkpt>
      <trkpt lat="45.99985" lon="1.08998">
        <ele>348.4</ele>
        <time>2022-10-02T08:37:22Z</time>
      </trkpt>
      <trkpt lat="45.99982" lon="1.08994">
        <ele>348.6</ele>
        <time>2022-10-02T08:37:23Z</time>
      </trkpt>
      <trkpt lat="45.99979" lon="1.08991">
        <ele>348.8</ele>
        <time>2022-10-02T08:37:24Z</time>
      </trkpt>
      <trkpt lat="45.99975" lon="1.08988">
        <ele>349</ele>
        <time>2022-10-02T08:37:25Z</time>
      </trkpt>
      <trkpt lat="45.99972" lon="1.08988">
        <ele>349.2</ele>
        <time>2022-10-02T08:37:26Z</time>
      </trkpt>
      <trkpt lat="45.99968" lon="1.08989">
        <ele>349.4</ele>
        <time>2022-10-02T08:37:27Z</time>
      </trkpt>
      <trkpt lat="45.99965" lon="1.0899">
        <ele>349.8</ele>
        <time>2022-10-02T08:37:28Z</time>
      </trkpt>
      <trkpt lat="45.99959" lon="1.08992">
        <ele>350</ele>
        <time>2022-10-02T08:37:29Z</time>
      </trkpt>
      <trkpt lat="45.99954" lon="1.08995">
        <ele>350.1</ele>
        <time>2022-10-02T08:37:30Z</time>
      </trkpt>
      <trkpt lat="45.99948" lon="1.08998">
        <ele>350.2</ele>
        <time>2022-10-02T08:37:31Z</time>
      </trkpt>
      <trkpt lat="45.99943" lon="1.09">
        <ele>350.3</ele>
        <time>2022-10-02T08:37:32Z</time>
      </trkpt>
      <trkpt lat="45.99937" lon="1.09004">
        <ele>350.4</ele>
        <time>2022-10-02T08:37:33Z</time>
      </trkpt>
      <trkpt lat="45.99931" lon="1.09008">
        <ele>350.5</ele>
        <time>2022-10-02T08:37:34Z</time>
      </trkpt>
      <trkpt lat="45.99925" lon="1.09011">
        <ele>350.6</ele>
        <time>2022-10-02T08:37:35Z</time>
      </trkpt>
      <trkpt lat="45.99919" lon="1.09013">
        <ele>350.8</ele>
        <time>2022-10-02T08:37:36Z</time>
      </trkpt>
      <trkpt lat="45.99913" lon="1.09015">
        <ele>350.9</ele>
        <time>2022-10-02T08:37:37Z</time>
      </trkpt>
      <trkpt lat="45.99907" lon="1.09019">
        <ele>351</ele>
        <time>2022-10-02T08:37:38Z</time>
      </trkpt>
      <trkpt lat="45.99902" lon="1.09021">
        <ele>351.1</ele>
        <time>2022-10-02T08:37:39Z</time>
      </trkpt>
      <trkpt lat="45.99897" lon="1.09024">
        <ele>351.3</ele>
        <time>2022-10-02T08:37:40Z</time>
      </trkpt>
      <trkpt lat="45.99891" lon="1.09029">
        <ele>351.4</ele>
        <time>2022-10-02T08:37:41Z</time>
      </trkpt>
      <trkpt lat="45.99884" lon="1.09033">
        <ele>351.5</ele>
        <time>2022-10-02T08:37:42Z</time>
      </trkpt>
      <trkpt lat="45.99878" lon="1.09036">
        <ele>351.6</ele>
        <time>2022-10-02T08:37:43Z</time>
      </trkpt>
      <trkpt lat="45.9987" lon="1.09037">
        <ele>351.6</ele>
        <time>2022-10-02T08:37:44Z</time>
      </trkpt>
      <trkpt lat="45.99864" lon="1.09042">
        <ele>351.6</ele>
        <time>2022-10-02T08:37:45Z</time>
      </trkpt>
      <trkpt lat="45.99859" lon="1.09046">
        <ele>351.5</ele>
        <time>2022-10-02T08:37:46Z</time>
      </trkpt>
      <trkpt lat="45.99854" lon="1.09052">
        <ele>351.4</ele>
        <time>2022-10-02T08:37:47Z</time>
      </trkpt>
      <trkpt lat="45.99848" lon="1.09054">
        <ele>351.3</ele>
        <time>2022-10-02T08:37:48Z</time>
      </trkpt>
      <trkpt lat="45.99841" lon="1.09058">
        <ele>351.1</ele>
        <time>2022-10-02T08:37:49Z</time>
      </trkpt>
      <trkpt lat="45.99835" lon="1.09061">
        <ele>350.9</ele>
        <time>2022-10-02T08:37:50Z</time>
      </trkpt>
      <trkpt lat="45.9983" lon="1.09062">
        <ele>350.8</ele>
        <time>2022-10-02T08:37:51Z</time>
      </trkpt>
      <trkpt lat="45.99824" lon="1.09067">
        <ele>350.6</ele>
        <time>2022-10-02T08:37:52Z</time>
      </trkpt>
      <trkpt lat="45.99819" lon="1.09071">
        <ele>350.4</ele>
        <time>2022-10-02T08:37:53Z</time>
      </trkpt>
      <trkpt lat="45.99813" lon="1.09074">
        <ele>350.3</ele>
        <time>2022-10-02T08:37:54Z</time>
      </trkpt>
      <trkpt lat="45.99807" lon="1.09076">
        <ele>350.1</ele>
        <time>2022-10-02T08:37:55Z</time>
      </trkpt>
      <trkpt lat="45.998" lon="1.09078">
        <ele>349.9</ele>
        <time>2022-10-02T08:37:56Z</time>
      </trkpt>
      <trkpt lat="45.99793" lon="1.09081">
        <ele>349.7</ele>
        <time>2022-10-02T08:37:57Z</time>
      </trkpt>
      <trkpt lat="45.99787" lon="1.09083">
        <ele>349.5</ele>
        <time>2022-10-02T08:37:58Z</time>
      </trkpt>
      <trkpt lat="45.9978" lon="1.09085">
        <ele>349.4</ele>
        <time>2022-10-02T08:37:59Z</time>
      </trkpt>
      <trkpt lat="45.99774" lon="1.09086">
        <ele>349.5</ele>
        <time>2022-10-02T08:38:00Z</time>
      </trkpt>
      <trkpt lat="45.99768" lon="1.09088">
        <ele>349.7</ele>
        <time>2022-10-02T08:38:01Z</time>
      </trkpt>
      <trkpt lat="45.99763" lon="1.09088">
        <ele>349.9</ele>
        <time>2022-10-02T08:38:02Z</time>
      </trkpt>
      <trkpt lat="45.99757" lon="1.09091">
        <ele>350.2</ele>
        <time>2022-10-02T08:38:03Z</time>
      </trkpt>
      <trkpt lat="45.99753" lon="1.09094">
        <ele>350.5</ele>
        <time>2022-10-02T08:38:04Z</time>
      </trkpt>
      <trkpt lat="45.99748" lon="1.09099">
        <ele>351</ele>
        <time>2022-10-02T08:38:05Z</time>
      </trkpt>
      <trkpt lat="45.99744" lon="1.091">
        <ele>351.4</ele>
        <time>2022-10-02T08:38:06Z</time>
      </trkpt>
      <trkpt lat="45.9974" lon="1.09102">
        <ele>351.6</ele>
        <time>2022-10-02T08:38:07Z</time>
      </trkpt>
      <trkpt lat="45.99737" lon="1.09102">
        <ele>351.9</ele>
        <time>2022-10-02T08:38:08Z</time>
      </trkpt>
      <trkpt lat="45.99733" lon="1.09104">
        <ele>352.2</ele>
        <time>2022-10-02T08:38:09Z</time>
      </trkpt>
      <trkpt lat="45.99729" lon="1.09109">
        <ele>352.7</ele>
        <time>2022-10-02T08:38:10Z</time>
      </trkpt>
      <trkpt lat="45.99725" lon="1.09112">
        <ele>353</ele>
        <time>2022-10-02T08:38:11Z</time>
      </trkpt>
      <trkpt lat="45.99723" lon="1.09117">
        <ele>353.3</ele>
        <time>2022-10-02T08:38:12Z</time>
      </trkpt>
      <trkpt lat="45.99719" lon="1.09121">
        <ele>353.7</ele>
        <time>2022-10-02T08:38:13Z</time>
      </trkpt>
      <trkpt lat="45.99714" lon="1.09121">
        <ele>354</ele>
        <time>2022-10-02T08:38:14Z</time>
      </trkpt>
      <trkpt lat="45.99712" lon="1.09125">
        <ele>354.2</ele>
        <time>2022-10-02T08:38:15Z</time>
      </trkpt>
      <trkpt lat="45.99705" lon="1.09129">
        <ele>354.7</ele>
        <time>2022-10-02T08:38:16Z</time>
      </trkpt>
      <trkpt lat="45.997" lon="1.09133">
        <ele>355</ele>
        <time>2022-10-02T08:38:17Z</time>
      </trkpt>
      <trkpt lat="45.99697" lon="1.09138">
        <ele>355.3</ele>
        <time>2022-10-02T08:38:18Z</time>
      </trkpt>
      <trkpt lat="45.99692" lon="1.09141">
        <ele>355.5</ele>
        <time>2022-10-02T08:38:19Z</time>
      </trkpt>
      <trkpt lat="45.99688" lon="1.09144">
        <ele>355.8</ele>
        <time>2022-10-02T08:38:20Z</time>
      </trkpt>
      <trkpt lat="45.99684" lon="1.09147">
        <ele>356.1</ele>
        <time>2022-10-02T08:38:21Z</time>
      </trkpt>
      <trkpt lat="45.99679" lon="1.09149">
        <ele>356.4</ele>
        <time>2022-10-02T08:38:22Z</time>
      </trkpt>
      <trkpt lat="45.99675" lon="1.09153">
        <ele>356.7</ele>
        <time>2022-10-02T08:38:23Z</time>
      </trkpt>
      <trkpt lat="45.99671" lon="1.09158">
        <ele>357</ele>
        <time>2022-10-02T08:38:24Z</time>
      </trkpt>
      <trkpt lat="45.99666" lon="1.09161">
        <ele>357.4</ele>
        <time>2022-10-02T08:38:25Z</time>
      </trkpt>
      <trkpt lat="45.99662" lon="1.09164">
        <ele>357.8</ele>
        <time>2022-10-02T08:38:26Z</time>
      </trkpt>
      <trkpt lat="45.99658" lon="1.09166">
        <ele>358.1</ele>
        <time>2022-10-02T08:38:27Z</time>
      </trkpt>
      <trkpt lat="45.99652" lon="1.09167">
        <ele>358.5</ele>
        <time>2022-10-02T08:38:28Z</time>
      </trkpt>
      <trkpt lat="45.99648" lon="1.09168">
        <ele>358.8</ele>
        <time>2022-10-02T08:38:29Z</time>
      </trkpt>
      <trkpt lat="45.99644" lon="1.0917">
        <ele>359.2</ele>
        <time>2022-10-02T08:38:30Z</time>
      </trkpt>
      <trkpt lat="45.99639" lon="1.09174">
        <ele>359.6</ele>
        <time>2022-10-02T08:38:31Z</time>
      </trkpt>
      <trkpt lat="45.99634" lon="1.09175">
        <ele>360</ele>
        <time>2022-10-02T08:38:32Z</time>
      </trkpt>
      <trkpt lat="45.99628" lon="1.09176">
        <ele>360.4</ele>
        <time>2022-10-02T08:38:33Z</time>
      </trkpt>
      <trkpt lat="45.99624" lon="1.09177">
        <ele>360.7</ele>
        <time>2022-10-02T08:38:34Z</time>
      </trkpt>
      <trkpt lat="45.9962" lon="1.09178">
        <ele>361</ele>
        <time>2022-10-02T08:38:35Z</time>
      </trkpt>
      <trkpt lat="45.99615" lon="1.0918">
        <ele>361.3</ele>
        <time>2022-10-02T08:38:36Z</time>
      </trkpt>
      <trkpt lat="45.99611" lon="1.09184">
        <ele>361.6</ele>
        <time>2022-10-02T08:38:37Z</time>
      </trkpt>
      <trkpt lat="45.99605" lon="1.09186">
        <ele>362</ele>
        <time>2022-10-02T08:38:38Z</time>
      </trkpt>
      <trkpt lat="45.996" lon="1.0919">
        <ele>362.3</ele>
        <time>2022-10-02T08:38:39Z</time>
      </trkpt>
      <trkpt lat="45.99597" lon="1.09194">
        <ele>362.4</ele>
        <time>2022-10-02T08:38:40Z</time>
      </trkpt>
      <trkpt lat="45.99593" lon="1.09196">
        <ele>362.6</ele>
        <time>2022-10-02T08:38:41Z</time>
      </trkpt>
      <trkpt lat="45.99588" lon="1.09197">
        <ele>362.8</ele>
        <time>2022-10-02T08:38:42Z</time>
      </trkpt>
      <trkpt lat="45.99586" lon="1.09204">
        <ele>362.9</ele>
        <time>2022-10-02T08:38:43Z</time>
      </trkpt>
      <trkpt lat="45.99582" lon="1.0921">
        <ele>363.1</ele>
        <time>2022-10-02T08:38:44Z</time>
      </trkpt>
      <trkpt lat="45.99578" lon="1.09212">
        <ele>363.1</ele>
        <time>2022-10-02T08:38:45Z</time>
      </trkpt>
      <trkpt lat="45.99573" lon="1.09216">
        <ele>363.2</ele>
        <time>2022-10-02T08:38:46Z</time>
      </trkpt>
      <trkpt lat="45.99569" lon="1.0922">
        <ele>363.2</ele>
        <time>2022-10-02T08:38:47Z</time>
      </trkpt>
      <trkpt lat="45.99565" lon="1.09225">
        <ele>363.2</ele>
        <time>2022-10-02T08:38:48Z</time>
      </trkpt>
      <trkpt lat="45.99561" lon="1.09229">
        <ele>363.2</ele>
        <time>2022-10-02T08:38:49Z</time>
      </trkpt>
      <trkpt lat="45.99555" lon="1.09233">
        <ele>363</ele>
        <time>2022-10-02T08:38:50Z</time>
      </trkpt>
      <trkpt lat="45.9955" lon="1.09238">
        <ele>362.9</ele>
        <time>2022-10-02T08:38:51Z</time>
      </trkpt>
      <trkpt lat="45.99545" lon="1.09243">
        <ele>362.7</ele>
        <time>2022-10-02T08:38:52Z</time>
      </trkpt>
      <trkpt lat="45.99539" lon="1.09248">
        <ele>362.4</ele>
        <time>2022-10-02T08:38:53Z</time>
      </trkpt>
      <trkpt lat="45.99534" lon="1.09254">
        <ele>362.1</ele>
        <time>2022-10-02T08:38:54Z</time>
      </trkpt>
      <trkpt lat="45.99528" lon="1.09262">
        <ele>361.8</ele>
        <time>2022-10-02T08:38:55Z</time>
      </trkpt>
      <trkpt lat="45.99522" lon="1.09268">
        <ele>361.5</ele>
        <time>2022-10-02T08:38:56Z</time>
      </trkpt>
      <trkpt lat="45.99516" lon="1.09273">
        <ele>361.4</ele>
        <time>2022-10-02T08:38:57Z</time>
      </trkpt>
      <trkpt lat="45.9951" lon="1.09278">
        <ele>361.3</ele>
        <time>2022-10-02T08:38:58Z</time>
      </trkpt>
      <trkpt lat="45.99507" lon="1.09283">
        <ele>361.3</ele>
        <time>2022-10-02T08:38:59Z</time>
      </trkpt>
      <trkpt lat="45.99502" lon="1.09282">
        <ele>361.2</ele>
        <time>2022-10-02T08:39:00Z</time>
      </trkpt>
      <trkpt lat="45.99495" lon="1.09284">
        <ele>361.2</ele>
        <time>2022-10-02T08:39:01Z</time>
      </trkpt>
      <trkpt lat="45.99489" lon="1.09286">
        <ele>361.2</ele>
        <time>2022-10-02T08:39:02Z</time>
      </trkpt>
      <trkpt lat="45.99483" lon="1.09286">
        <ele>361.3</ele>
        <time>2022-10-02T08:39:03Z</time>
      </trkpt>
      <trkpt lat="45.99477" lon="1.09285">
        <ele>361.3</ele>
        <time>2022-10-02T08:39:04Z</time>
      </trkpt>
      <trkpt lat="45.99472" lon="1.09286">
        <ele>361.4</ele>
        <time>2022-10-02T08:39:05Z</time>
      </trkpt>
      <trkpt lat="45.99467" lon="1.09286">
        <ele>361.5</ele>
        <time>2022-10-02T08:39:06Z</time>
      </trkpt>
      <trkpt lat="45.99461" lon="1.09285">
        <ele>361.6</ele>
        <time>2022-10-02T08:39:07Z</time>
      </trkpt>
      <trkpt lat="45.99455" lon="1.09286">
        <ele>361.6</ele>
        <time>2022-10-02T08:39:08Z</time>
      </trkpt>
      <trkpt lat="45.99449" lon="1.09286">
        <ele>361.7</ele>
        <time>2022-10-02T08:39:09Z</time>
      </trkpt>
      <trkpt lat="45.99443" lon="1.09287">
        <ele>361.8</ele>
        <time>2022-10-02T08:39:10Z</time>
      </trkpt>
      <trkpt lat="45.99437" lon="1.09289">
        <ele>361.9</ele>
        <time>2022-10-02T08:39:11Z</time>
      </trkpt>
      <trkpt lat="45.99432" lon="1.09289">
        <ele>361.9</ele>
        <time>2022-10-02T08:39:12Z</time>
      </trkpt>
      <trkpt lat="45.99426" lon="1.09291">
        <ele>362</ele>
        <time>2022-10-02T08:39:13Z</time>
      </trkpt>
      <trkpt lat="45.9942" lon="1.09294">
        <ele>362</ele>
        <time>2022-10-02T08:39:14Z</time>
      </trkpt>
      <trkpt lat="45.99414" lon="1.09297">
        <ele>362.1</ele>
        <time>2022-10-02T08:39:15Z</time>
      </trkpt>
      <trkpt lat="45.99408" lon="1.093">
        <ele>362.1</ele>
        <time>2022-10-02T08:39:16Z</time>
      </trkpt>
      <trkpt lat="45.99402" lon="1.09302">
        <ele>362.2</ele>
        <time>2022-10-02T08:39:17Z</time>
      </trkpt>
      <trkpt lat="45.99397" lon="1.09308">
        <ele>362.2</ele>
        <time>2022-10-02T08:39:18Z</time>
      </trkpt>
      <trkpt lat="45.99392" lon="1.09312">
        <ele>362.2</ele>
        <time>2022-10-02T08:39:19Z</time>
      </trkpt>
      <trkpt lat="45.99389" lon="1.09319">
        <ele>362.2</ele>
        <time>2022-10-02T08:39:20Z</time>
      </trkpt>
      <trkpt lat="45.99384" lon="1.09329">
        <ele>362.2</ele>
        <time>2022-10-02T08:39:21Z</time>
      </trkpt>
      <trkpt lat="45.99379" lon="1.09334">
        <ele>362.2</ele>
        <time>2022-10-02T08:39:22Z</time>
      </trkpt>
      <trkpt lat="45.99374" lon="1.09338">
        <ele>362.1</ele>
        <time>2022-10-02T08:39:23Z</time>
      </trkpt>
      <trkpt lat="45.99366" lon="1.09337">
        <ele>362</ele>
        <time>2022-10-02T08:39:24Z</time>
      </trkpt>
      <trkpt lat="45.99359" lon="1.0934">
        <ele>361.9</ele>
        <time>2022-10-02T08:39:25Z</time>
      </trkpt>
      <trkpt lat="45.99356" lon="1.09346">
        <ele>361.7</ele>
        <time>2022-10-02T08:39:26Z</time>
      </trkpt>
      <trkpt lat="45.9935" lon="1.09351">
        <ele>361.5</ele>
        <time>2022-10-02T08:39:27Z</time>
      </trkpt>
      <trkpt lat="45.99345" lon="1.09356">
        <ele>361.2</ele>
        <time>2022-10-02T08:39:28Z</time>
      </trkpt>
      <trkpt lat="45.9934" lon="1.09364">
        <ele>360.8</ele>
        <time>2022-10-02T08:39:29Z</time>
      </trkpt>
      <trkpt lat="45.99336" lon="1.09368">
        <ele>360.5</ele>
        <time>2022-10-02T08:39:30Z</time>
      </trkpt>
      <trkpt lat="45.99331" lon="1.09376">
        <ele>360.1</ele>
        <time>2022-10-02T08:39:31Z</time>
      </trkpt>
      <trkpt lat="45.99326" lon="1.0938">
        <ele>359.8</ele>
        <time>2022-10-02T08:39:32Z</time>
      </trkpt>
      <trkpt lat="45.99321" lon="1.09385">
        <ele>359.4</ele>
        <time>2022-10-02T08:39:33Z</time>
      </trkpt>
      <trkpt lat="45.99314" lon="1.0939">
        <ele>359.1</ele>
        <time>2022-10-02T08:39:34Z</time>
      </trkpt>
      <trkpt lat="45.99308" lon="1.09394">
        <ele>358.7</ele>
        <time>2022-10-02T08:39:35Z</time>
      </trkpt>
      <trkpt lat="45.99302" lon="1.09399">
        <ele>358.4</ele>
        <time>2022-10-02T08:39:36Z</time>
      </trkpt>
      <trkpt lat="45.99294" lon="1.09401">
        <ele>358.1</ele>
        <time>2022-10-02T08:39:37Z</time>
      </trkpt>
      <trkpt lat="45.99289" lon="1.09406">
        <ele>357.8</ele>
        <time>2022-10-02T08:39:38Z</time>
      </trkpt>
      <trkpt lat="45.99283" lon="1.09412">
        <ele>357.5</ele>
        <time>2022-10-02T08:39:39Z</time>
      </trkpt>
      <trkpt lat="45.99276" lon="1.09417">
        <ele>357.2</ele>
        <time>2022-10-02T08:39:40Z</time>
      </trkpt>
      <trkpt lat="45.99271" lon="1.09425">
        <ele>356.9</ele>
        <time>2022-10-02T08:39:41Z</time>
      </trkpt>
      <trkpt lat="45.9927" lon="1.09428">
        <ele>356.8</ele>
        <time>2022-10-02T08:39:42Z</time>
      </trkpt>
      <trkpt lat="45.99265" lon="1.09435">
        <ele>356.5</ele>
        <time>2022-10-02T08:39:43Z</time>
      </trkpt>
      <trkpt lat="45.99261" lon="1.09439">
        <ele>356.3</ele>
        <time>2022-10-02T08:39:44Z</time>
      </trkpt>
      <trkpt lat="45.99255" lon="1.09445">
        <ele>356</ele>
        <time>2022-10-02T08:39:45Z</time>
      </trkpt>
      <trkpt lat="45.99248" lon="1.09449">
        <ele>355.7</ele>
        <time>2022-10-02T08:39:46Z</time>
      </trkpt>
      <trkpt lat="45.99243" lon="1.09456">
        <ele>355.4</ele>
        <time>2022-10-02T08:39:47Z</time>
      </trkpt>
      <trkpt lat="45.99238" lon="1.09463">
        <ele>355.2</ele>
        <time>2022-10-02T08:39:48Z</time>
      </trkpt>
      <trkpt lat="45.99233" lon="1.09469">
        <ele>354.9</ele>
        <time>2022-10-02T08:39:49Z</time>
      </trkpt>
      <trkpt lat="45.99226" lon="1.09475">
        <ele>354.6</ele>
        <time>2022-10-02T08:39:50Z</time>
      </trkpt>
      <trkpt lat="45.9922" lon="1.09481">
        <ele>354.4</ele>
        <time>2022-10-02T08:39:51Z</time>
      </trkpt>
      <trkpt lat="45.99215" lon="1.09488">
        <ele>354.2</ele>
        <time>2022-10-02T08:39:52Z</time>
      </trkpt>
      <trkpt lat="45.9921" lon="1.09495">
        <ele>353.9</ele>
        <time>2022-10-02T08:39:53Z</time>
      </trkpt>
      <trkpt lat="45.99205" lon="1.09502">
        <ele>353.7</ele>
        <time>2022-10-02T08:39:54Z</time>
      </trkpt>
      <trkpt lat="45.992" lon="1.09508">
        <ele>353.6</ele>
        <time>2022-10-02T08:39:55Z</time>
      </trkpt>
      <trkpt lat="45.99196" lon="1.09516">
        <ele>353.5</ele>
        <time>2022-10-02T08:39:56Z</time>
      </trkpt>
      <trkpt lat="45.99191" lon="1.09522">
        <ele>353.4</ele>
        <time>2022-10-02T08:39:57Z</time>
      </trkpt>
      <trkpt lat="45.99186" lon="1.0953">
        <ele>353.3</ele>
        <time>2022-10-02T08:39:58Z</time>
      </trkpt>
      <trkpt lat="45.99182" lon="1.09537">
        <ele>353.3</ele>
        <time>2022-10-02T08:39:59Z</time>
      </trkpt>
      <trkpt lat="45.99178" lon="1.09546">
        <ele>353.3</ele>
        <time>2022-10-02T08:40:00Z</time>
      </trkpt>
      <trkpt lat="45.99175" lon="1.09552">
        <ele>353.3</ele>
        <time>2022-10-02T08:40:01Z</time>
      </trkpt>
      <trkpt lat="45.99171" lon="1.09556">
        <ele>353.3</ele>
        <time>2022-10-02T08:40:02Z</time>
      </trkpt>
      <trkpt lat="45.99166" lon="1.0956">
        <ele>353.3</ele>
        <time>2022-10-02T08:40:03Z</time>
      </trkpt>
      <trkpt lat="45.99161" lon="1.09563">
        <ele>353.3</ele>
        <time>2022-10-02T08:40:04Z</time>
      </trkpt>
      <trkpt lat="45.99156" lon="1.09565">
        <ele>353.3</ele>
        <time>2022-10-02T08:40:05Z</time>
      </trkpt>
      <trkpt lat="45.99152" lon="1.09569">
        <ele>353.3</ele>
        <time>2022-10-02T08:40:06Z</time>
      </trkpt>
      <trkpt lat="45.99148" lon="1.09572">
        <ele>353.3</ele>
        <time>2022-10-02T08:40:07Z</time>
      </trkpt>
      <trkpt lat="45.99143" lon="1.09575">
        <ele>353.3</ele>
        <time>2022-10-02T08:40:08Z</time>
      </trkpt>
      <trkpt lat="45.99138" lon="1.09576">
        <ele>353.3</ele>
        <time>2022-10-02T08:40:09Z</time>
      </trkpt>
      <trkpt lat="45.99133" lon="1.09578">
        <ele>353.3</ele>
        <time>2022-10-02T08:40:10Z</time>
      </trkpt>
      <trkpt lat="45.99129" lon="1.0958">
        <ele>353.3</ele>
        <time>2022-10-02T08:40:11Z</time>
      </trkpt>
      <trkpt lat="45.99125" lon="1.09582">
        <ele>353.3</ele>
        <time>2022-10-02T08:40:12Z</time>
      </trkpt>
      <trkpt lat="45.9912" lon="1.09585">
        <ele>353.3</ele>
        <time>2022-10-02T08:40:13Z</time>
      </trkpt>
      <trkpt lat="45.99116" lon="1.09587">
        <ele>353.3</ele>
        <time>2022-10-02T08:40:14Z</time>
      </trkpt>
      <trkpt lat="45.99111" lon="1.0959">
        <ele>353.2</ele>
        <time>2022-10-02T08:40:15Z</time>
      </trkpt>
      <trkpt lat="45.99106" lon="1.09592">
        <ele>353.2</ele>
        <time>2022-10-02T08:40:16Z</time>
      </trkpt>
      <trkpt lat="45.99102" lon="1.09594">
        <ele>353.2</ele>
        <time>2022-10-02T08:40:17Z</time>
      </trkpt>
      <trkpt lat="45.99097" lon="1.09597">
        <ele>353.1</ele>
        <time>2022-10-02T08:40:18Z</time>
      </trkpt>
      <trkpt lat="45.99092" lon="1.09599">
        <ele>353.1</ele>
        <time>2022-10-02T08:40:19Z</time>
      </trkpt>
      <trkpt lat="45.99087" lon="1.096">
        <ele>353</ele>
        <time>2022-10-02T08:40:20Z</time>
      </trkpt>
      <trkpt lat="45.99082" lon="1.09602">
        <ele>352.9</ele>
        <time>2022-10-02T08:40:21Z</time>
      </trkpt>
      <trkpt lat="45.99076" lon="1.09604">
        <ele>352.7</ele>
        <time>2022-10-02T08:40:22Z</time>
      </trkpt>
      <trkpt lat="45.99071" lon="1.09607">
        <ele>352.6</ele>
        <time>2022-10-02T08:40:23Z</time>
      </trkpt>
      <trkpt lat="45.99067" lon="1.0961">
        <ele>352.5</ele>
        <time>2022-10-02T08:40:24Z</time>
      </trkpt>
      <trkpt lat="45.99062" lon="1.09613">
        <ele>352.3</ele>
        <time>2022-10-02T08:40:25Z</time>
      </trkpt>
      <trkpt lat="45.99058" lon="1.09615">
        <ele>352.1</ele>
        <time>2022-10-02T08:40:26Z</time>
      </trkpt>
      <trkpt lat="45.99053" lon="1.09617">
        <ele>351.9</ele>
        <time>2022-10-02T08:40:27Z</time>
      </trkpt>
      <trkpt lat="45.99047" lon="1.09619">
        <ele>351.7</ele>
        <time>2022-10-02T08:40:28Z</time>
      </trkpt>
      <trkpt lat="45.99042" lon="1.0962">
        <ele>351.4</ele>
        <time>2022-10-02T08:40:29Z</time>
      </trkpt>
      <trkpt lat="45.99036" lon="1.09621">
        <ele>351.1</ele>
        <time>2022-10-02T08:40:30Z</time>
      </trkpt>
      <trkpt lat="45.99029" lon="1.09624">
        <ele>350.6</ele>
        <time>2022-10-02T08:40:31Z</time>
      </trkpt>
      <trkpt lat="45.99024" lon="1.09626">
        <ele>350.3</ele>
        <time>2022-10-02T08:40:32Z</time>
      </trkpt>
      <trkpt lat="45.99018" lon="1.0963">
        <ele>349.8</ele>
        <time>2022-10-02T08:40:33Z</time>
      </trkpt>
      <trkpt lat="45.9901" lon="1.09632">
        <ele>349.2</ele>
        <time>2022-10-02T08:40:34Z</time>
      </trkpt>
      <trkpt lat="45.99004" lon="1.09634">
        <ele>348.8</ele>
        <time>2022-10-02T08:40:35Z</time>
      </trkpt>
      <trkpt lat="45.98998" lon="1.09636">
        <ele>348.3</ele>
        <time>2022-10-02T08:40:36Z</time>
      </trkpt>
      <trkpt lat="45.98992" lon="1.09638">
        <ele>348</ele>
        <time>2022-10-02T08:40:37Z</time>
      </trkpt>
      <trkpt lat="45.98985" lon="1.09641">
        <ele>347.5</ele>
        <time>2022-10-02T08:40:38Z</time>
      </trkpt>
      <trkpt lat="45.98979" lon="1.09644">
        <ele>347.1</ele>
        <time>2022-10-02T08:40:39Z</time>
      </trkpt>
      <trkpt lat="45.98973" lon="1.09646">
        <ele>346.8</ele>
        <time>2022-10-02T08:40:40Z</time>
      </trkpt>
      <trkpt lat="45.98967" lon="1.09647">
        <ele>346.5</ele>
        <time>2022-10-02T08:40:41Z</time>
      </trkpt>
      <trkpt lat="45.98963" lon="1.0965">
        <ele>346.3</ele>
        <time>2022-10-02T08:40:42Z</time>
      </trkpt>
      <trkpt lat="45.98959" lon="1.09652">
        <ele>346.1</ele>
        <time>2022-10-02T08:40:43Z</time>
      </trkpt>
      <trkpt lat="45.98954" lon="1.09654">
        <ele>345.9</ele>
        <time>2022-10-02T08:40:44Z</time>
      </trkpt>
      <trkpt lat="45.9895" lon="1.09657">
        <ele>345.7</ele>
        <time>2022-10-02T08:40:45Z</time>
      </trkpt>
      <trkpt lat="45.98945" lon="1.09662">
        <ele>345.5</ele>
        <time>2022-10-02T08:40:46Z</time>
      </trkpt>
      <trkpt lat="45.9894" lon="1.09667">
        <ele>345.3</ele>
        <time>2022-10-02T08:40:47Z</time>
      </trkpt>
      <trkpt lat="45.98937" lon="1.0967">
        <ele>345.3</ele>
        <time>2022-10-02T08:40:48Z</time>
      </trkpt>
      <trkpt lat="45.98934" lon="1.09677">
        <ele>345.2</ele>
        <time>2022-10-02T08:40:49Z</time>
      </trkpt>
      <trkpt lat="45.98929" lon="1.0968">
        <ele>345.1</ele>
        <time>2022-10-02T08:40:50Z</time>
      </trkpt>
      <trkpt lat="45.98926" lon="1.09686">
        <ele>345.1</ele>
        <time>2022-10-02T08:40:51Z</time>
      </trkpt>
      <trkpt lat="45.98923" lon="1.09691">
        <ele>345</ele>
        <time>2022-10-02T08:40:52Z</time>
      </trkpt>
      <trkpt lat="45.9892" lon="1.09697">
        <ele>345</ele>
        <time>2022-10-02T08:40:53Z</time>
      </trkpt>
      <trkpt lat="45.98917" lon="1.09704">
        <ele>344.9</ele>
        <time>2022-10-02T08:40:54Z</time>
      </trkpt>
      <trkpt lat="45.98914" lon="1.09712">
        <ele>344.9</ele>
        <time>2022-10-02T08:40:55Z</time>
      </trkpt>
      <trkpt lat="45.98912" lon="1.09718">
        <ele>344.9</ele>
        <time>2022-10-02T08:40:56Z</time>
      </trkpt>
      <trkpt lat="45.98909" lon="1.09722">
        <ele>344.9</ele>
        <time>2022-10-02T08:40:57Z</time>
      </trkpt>
      <trkpt lat="45.98908" lon="1.09727">
        <ele>344.9</ele>
        <time>2022-10-02T08:40:58Z</time>
      </trkpt>
      <trkpt lat="45.98907" lon="1.09731">
        <ele>344.9</ele>
        <time>2022-10-02T08:40:59Z</time>
      </trkpt>
      <trkpt lat="45.98904" lon="1.09734">
        <ele>344.9</ele>
        <time>2022-10-02T08:41:00Z</time>
      </trkpt>
      <trkpt lat="45.98903" lon="1.09737">
        <ele>344.9</ele>
        <time>2022-10-02T08:41:01Z</time>
      </trkpt>
      <trkpt lat="45.98902" lon="1.0974">
        <ele>344.9</ele>
        <time>2022-10-02T08:41:02Z</time>
      </trkpt>
      <trkpt lat="45.989" lon="1.09743">
        <ele>344.8</ele>
        <time>2022-10-02T08:41:03Z</time>
      </trkpt>
      <trkpt lat="45.98898" lon="1.09746">
        <ele>344.8</ele>
        <time>2022-10-02T08:41:04Z</time>
      </trkpt>
      <trkpt lat="45.98895" lon="1.09749">
        <ele>344.8</ele>
        <time>2022-10-02T08:41:05Z</time>
      </trkpt>
      <trkpt lat="45.98892" lon="1.09753">
        <ele>344.8</ele>
        <time>2022-10-02T08:41:06Z</time>
      </trkpt>
      <trkpt lat="45.98889" lon="1.09755">
        <ele>344.7</ele>
        <time>2022-10-02T08:41:07Z</time>
      </trkpt>
      <trkpt lat="45.98884" lon="1.09758">
        <ele>344.7</ele>
        <time>2022-10-02T08:41:08Z</time>
      </trkpt>
      <trkpt lat="45.98878" lon="1.09761">
        <ele>344.6</ele>
        <time>2022-10-02T08:41:09Z</time>
      </trkpt>
      <trkpt lat="45.98875" lon="1.09764">
        <ele>344.6</ele>
        <time>2022-10-02T08:41:10Z</time>
      </trkpt>
      <trkpt lat="45.98871" lon="1.09769">
        <ele>344.6</ele>
        <time>2022-10-02T08:41:11Z</time>
      </trkpt>
      <trkpt lat="45.98868" lon="1.09776">
        <ele>344.6</ele>
        <time>2022-10-02T08:41:12Z</time>
      </trkpt>
      <trkpt lat="45.98866" lon="1.0978">
        <ele>344.6</ele>
        <time>2022-10-02T08:41:13Z</time>
      </trkpt>
      <trkpt lat="45.98864" lon="1.09785">
        <ele>344.6</ele>
        <time>2022-10-02T08:41:14Z</time>
      </trkpt>
      <trkpt lat="45.98862" lon="1.09789">
        <ele>344.6</ele>
        <time>2022-10-02T08:41:15Z</time>
      </trkpt>
      <trkpt lat="45.9886" lon="1.09794">
        <ele>344.6</ele>
        <time>2022-10-02T08:41:16Z</time>
      </trkpt>
      <trkpt lat="45.98856" lon="1.09799">
        <ele>344.7</ele>
        <time>2022-10-02T08:41:17Z</time>
      </trkpt>
      <trkpt lat="45.98853" lon="1.09805">
        <ele>344.7</ele>
        <time>2022-10-02T08:41:18Z</time>
      </trkpt>
      <trkpt lat="45.9885" lon="1.09811">
        <ele>344.8</ele>
        <time>2022-10-02T08:41:19Z</time>
      </trkpt>
      <trkpt lat="45.98848" lon="1.09817">
        <ele>344.9</ele>
        <time>2022-10-02T08:41:20Z</time>
      </trkpt>
      <trkpt lat="45.98845" lon="1.09821">
        <ele>345</ele>
        <time>2022-10-02T08:41:21Z</time>
      </trkpt>
      <trkpt lat="45.98842" lon="1.09825">
        <ele>345.1</ele>
        <time>2022-10-02T08:41:22Z</time>
      </trkpt>
      <trkpt lat="45.98842" lon="1.09831">
        <ele>345.2</ele>
        <time>2022-10-02T08:41:23Z</time>
      </trkpt>
      <trkpt lat="45.98837" lon="1.09835">
        <ele>345.4</ele>
        <time>2022-10-02T08:41:24Z</time>
      </trkpt>
      <trkpt lat="45.98835" lon="1.09839">
        <ele>345.5</ele>
        <time>2022-10-02T08:41:25Z</time>
      </trkpt>
      <trkpt lat="45.98831" lon="1.09843">
        <ele>345.7</ele>
        <time>2022-10-02T08:41:26Z</time>
      </trkpt>
      <trkpt lat="45.98828" lon="1.09847">
        <ele>345.8</ele>
        <time>2022-10-02T08:41:27Z</time>
      </trkpt>
      <trkpt lat="45.98825" lon="1.09851">
        <ele>345.9</ele>
        <time>2022-10-02T08:41:28Z</time>
      </trkpt>
      <trkpt lat="45.98822" lon="1.09854">
        <ele>346.1</ele>
        <time>2022-10-02T08:41:29Z</time>
      </trkpt>
      <trkpt lat="45.98819" lon="1.09856">
        <ele>346.2</ele>
        <time>2022-10-02T08:41:30Z</time>
      </trkpt>
      <trkpt lat="45.98816" lon="1.09859">
        <ele>346.3</ele>
        <time>2022-10-02T08:41:31Z</time>
      </trkpt>
      <trkpt lat="45.98812" lon="1.09861">
        <ele>346.4</ele>
        <time>2022-10-02T08:41:32Z</time>
      </trkpt>
      <trkpt lat="45.98809" lon="1.09865">
        <ele>346.6</ele>
        <time>2022-10-02T08:41:33Z</time>
      </trkpt>
      <trkpt lat="45.98805" lon="1.09869">
        <ele>346.8</ele>
        <time>2022-10-02T08:41:34Z</time>
      </trkpt>
      <trkpt lat="45.98802" lon="1.09874">
        <ele>347</ele>
        <time>2022-10-02T08:41:35Z</time>
      </trkpt>
      <trkpt lat="45.98798" lon="1.09878">
        <ele>347.3</ele>
        <time>2022-10-02T08:41:36Z</time>
      </trkpt>
      <trkpt lat="45.98795" lon="1.09883">
        <ele>347.5</ele>
        <time>2022-10-02T08:41:37Z</time>
      </trkpt>
      <trkpt lat="45.98791" lon="1.09887">
        <ele>347.8</ele>
        <time>2022-10-02T08:41:38Z</time>
      </trkpt>
      <trkpt lat="45.98788" lon="1.09891">
        <ele>348</ele>
        <time>2022-10-02T08:41:39Z</time>
      </trkpt>
      <trkpt lat="45.98784" lon="1.09894">
        <ele>348.2</ele>
        <time>2022-10-02T08:41:40Z</time>
      </trkpt>
      <trkpt lat="45.9878" lon="1.09898">
        <ele>348.5</ele>
        <time>2022-10-02T08:41:41Z</time>
      </trkpt>
      <trkpt lat="45.98777" lon="1.099">
        <ele>348.8</ele>
        <time>2022-10-02T08:41:42Z</time>
      </trkpt>
      <trkpt lat="45.98774" lon="1.09902">
        <ele>349</ele>
        <time>2022-10-02T08:41:43Z</time>
      </trkpt>
      <trkpt lat="45.98771" lon="1.09903">
        <ele>349.2</ele>
        <time>2022-10-02T08:41:44Z</time>
      </trkpt>
      <trkpt lat="45.98768" lon="1.09906">
        <ele>349.5</ele>
        <time>2022-10-02T08:41:45Z</time>
      </trkpt>
      <trkpt lat="45.98766" lon="1.09909">
        <ele>349.7</ele>
        <time>2022-10-02T08:41:46Z</time>
      </trkpt>
      <trkpt lat="45.98764" lon="1.09912">
        <ele>350</ele>
        <time>2022-10-02T08:41:47Z</time>
      </trkpt>
      <trkpt lat="45.98761" lon="1.09914">
        <ele>350.3</ele>
        <time>2022-10-02T08:41:48Z</time>
      </trkpt>
      <trkpt lat="45.98757" lon="1.09915">
        <ele>350.6</ele>
        <time>2022-10-02T08:41:49Z</time>
      </trkpt>
      <trkpt lat="45.98754" lon="1.09919">
        <ele>351</ele>
        <time>2022-10-02T08:41:50Z</time>
      </trkpt>
      <trkpt lat="45.98752" lon="1.09921">
        <ele>351.3</ele>
        <time>2022-10-02T08:41:52Z</time>
      </trkpt>
      <trkpt lat="45.98749" lon="1.09922">
        <ele>351.5</ele>
        <time>2022-10-02T08:41:53Z</time>
      </trkpt>
      <trkpt lat="45.98746" lon="1.09923">
        <ele>351.8</ele>
        <time>2022-10-02T08:41:54Z</time>
      </trkpt>
      <trkpt lat="45.98742" lon="1.09926">
        <ele>352.1</ele>
        <time>2022-10-02T08:41:55Z</time>
      </trkpt>
      <trkpt lat="45.98739" lon="1.09929">
        <ele>352.4</ele>
        <time>2022-10-02T08:41:56Z</time>
      </trkpt>
      <trkpt lat="45.98736" lon="1.09932">
        <ele>352.5</ele>
        <time>2022-10-02T08:41:57Z</time>
      </trkpt>
      <trkpt lat="45.98734" lon="1.09934">
        <ele>352.7</ele>
        <time>2022-10-02T08:41:58Z</time>
      </trkpt>
      <trkpt lat="45.98732" lon="1.09936">
        <ele>352.8</ele>
        <time>2022-10-02T08:41:59Z</time>
      </trkpt>
      <trkpt lat="45.98729" lon="1.09938">
        <ele>352.8</ele>
        <time>2022-10-02T08:42:00Z</time>
      </trkpt>
      <trkpt lat="45.98727" lon="1.09941">
        <ele>352.9</ele>
        <time>2022-10-02T08:42:01Z</time>
      </trkpt>
      <trkpt lat="45.98724" lon="1.09944">
        <ele>352.9</ele>
        <time>2022-10-02T08:42:02Z</time>
      </trkpt>
      <trkpt lat="45.9872" lon="1.09946">
        <ele>352.9</ele>
        <time>2022-10-02T08:42:03Z</time>
      </trkpt>
      <trkpt lat="45.98716" lon="1.09948">
        <ele>352.8</ele>
        <time>2022-10-02T08:42:04Z</time>
      </trkpt>
      <trkpt lat="45.9871" lon="1.09954">
        <ele>352.5</ele>
        <time>2022-10-02T08:42:05Z</time>
      </trkpt>
      <trkpt lat="45.98705" lon="1.09959">
        <ele>352.1</ele>
        <time>2022-10-02T08:42:06Z</time>
      </trkpt>
      <trkpt lat="45.98699" lon="1.09963">
        <ele>351.7</ele>
        <time>2022-10-02T08:42:07Z</time>
      </trkpt>
      <trkpt lat="45.98691" lon="1.09963">
        <ele>351.1</ele>
        <time>2022-10-02T08:42:08Z</time>
      </trkpt>
      <trkpt lat="45.98685" lon="1.09966">
        <ele>350.6</ele>
        <time>2022-10-02T08:42:09Z</time>
      </trkpt>
      <trkpt lat="45.98677" lon="1.09964">
        <ele>350</ele>
        <time>2022-10-02T08:42:10Z</time>
      </trkpt>
      <trkpt lat="45.9867" lon="1.09966">
        <ele>349.5</ele>
        <time>2022-10-02T08:42:11Z</time>
      </trkpt>
      <trkpt lat="45.98663" lon="1.09974">
        <ele>348.8</ele>
        <time>2022-10-02T08:42:12Z</time>
      </trkpt>
      <trkpt lat="45.98655" lon="1.09987">
        <ele>347.9</ele>
        <time>2022-10-02T08:42:13Z</time>
      </trkpt>
      <trkpt lat="45.98647" lon="1.09993">
        <ele>347.2</ele>
        <time>2022-10-02T08:42:14Z</time>
      </trkpt>
      <trkpt lat="45.9864" lon="1.1">
        <ele>346.6</ele>
        <time>2022-10-02T08:42:15Z</time>
      </trkpt>
      <trkpt lat="45.98634" lon="1.10006">
        <ele>346.1</ele>
        <time>2022-10-02T08:42:16Z</time>
      </trkpt>
      <trkpt lat="45.98627" lon="1.10013">
        <ele>345.6</ele>
        <time>2022-10-02T08:42:17Z</time>
      </trkpt>
      <trkpt lat="45.98618" lon="1.10024">
        <ele>345.1</ele>
        <time>2022-10-02T08:42:18Z</time>
      </trkpt>
      <trkpt lat="45.9861" lon="1.1003">
        <ele>344.7</ele>
        <time>2022-10-02T08:42:19Z</time>
      </trkpt>
      <trkpt lat="45.98604" lon="1.10035">
        <ele>344.4</ele>
        <time>2022-10-02T08:42:20Z</time>
      </trkpt>
      <trkpt lat="45.98597" lon="1.1004">
        <ele>344.2</ele>
        <time>2022-10-02T08:42:21Z</time>
      </trkpt>
      <trkpt lat="45.98591" lon="1.10043">
        <ele>344</ele>
        <time>2022-10-02T08:42:22Z</time>
      </trkpt>
      <trkpt lat="45.98584" lon="1.10048">
        <ele>343.8</ele>
        <time>2022-10-02T08:42:23Z</time>
      </trkpt>
      <trkpt lat="45.98578" lon="1.10055">
        <ele>343.7</ele>
        <time>2022-10-02T08:42:24Z</time>
      </trkpt>
      <trkpt lat="45.98572" lon="1.10062">
        <ele>343.6</ele>
        <time>2022-10-02T08:42:25Z</time>
      </trkpt>
      <trkpt lat="45.98567" lon="1.10067">
        <ele>343.6</ele>
        <time>2022-10-02T08:42:26Z</time>
      </trkpt>
      <trkpt lat="45.98563" lon="1.10074">
        <ele>343.5</ele>
        <time>2022-10-02T08:42:27Z</time>
      </trkpt>
      <trkpt lat="45.98559" lon="1.1008">
        <ele>343.4</ele>
        <time>2022-10-02T08:42:28Z</time>
      </trkpt>
      <trkpt lat="45.98555" lon="1.10084">
        <ele>343.4</ele>
        <time>2022-10-02T08:42:29Z</time>
      </trkpt>
      <trkpt lat="45.9855" lon="1.10088">
        <ele>343.4</ele>
        <time>2022-10-02T08:42:30Z</time>
      </trkpt>
      <trkpt lat="45.98547" lon="1.10091">
        <ele>343.4</ele>
        <time>2022-10-02T08:42:31Z</time>
      </trkpt>
      <trkpt lat="45.98544" lon="1.10093">
        <ele>343.5</ele>
        <time>2022-10-02T08:42:32Z</time>
      </trkpt>
      <trkpt lat="45.98541" lon="1.10095">
        <ele>343.5</ele>
        <time>2022-10-02T08:42:33Z</time>
      </trkpt>
      <trkpt lat="45.98536" lon="1.10098">
        <ele>343.6</ele>
        <time>2022-10-02T08:42:34Z</time>
      </trkpt>
      <trkpt lat="45.98531" lon="1.10102">
        <ele>343.7</ele>
        <time>2022-10-02T08:42:35Z</time>
      </trkpt>
      <trkpt lat="45.98526" lon="1.10105">
        <ele>343.8</ele>
        <time>2022-10-02T08:42:36Z</time>
      </trkpt>
      <trkpt lat="45.98521" lon="1.10108">
        <ele>343.9</ele>
        <time>2022-10-02T08:42:37Z</time>
      </trkpt>
      <trkpt lat="45.98517" lon="1.10111">
        <ele>344.1</ele>
        <time>2022-10-02T08:42:38Z</time>
      </trkpt>
      <trkpt lat="45.98512" lon="1.10114">
        <ele>344.2</ele>
        <time>2022-10-02T08:42:39Z</time>
      </trkpt>
      <trkpt lat="45.98508" lon="1.10115">
        <ele>344.3</ele>
        <time>2022-10-02T08:42:40Z</time>
      </trkpt>
      <trkpt lat="45.98503" lon="1.10116">
        <ele>344.6</ele>
        <time>2022-10-02T08:42:41Z</time>
      </trkpt>
      <trkpt lat="45.98499" lon="1.10118">
        <ele>344.8</ele>
        <time>2022-10-02T08:42:42Z</time>
      </trkpt>
      <trkpt lat="45.98494" lon="1.1012">
        <ele>345</ele>
        <time>2022-10-02T08:42:43Z</time>
      </trkpt>
      <trkpt lat="45.9849" lon="1.10119">
        <ele>345.2</ele>
        <time>2022-10-02T08:42:44Z</time>
      </trkpt>
      <trkpt lat="45.98487" lon="1.1012">
        <ele>345.4</ele>
        <time>2022-10-02T08:42:45Z</time>
      </trkpt>
      <trkpt lat="45.98482" lon="1.10122">
        <ele>345.6</ele>
        <time>2022-10-02T08:42:46Z</time>
      </trkpt>
      <trkpt lat="45.98478" lon="1.10121">
        <ele>345.8</ele>
        <time>2022-10-02T08:42:47Z</time>
      </trkpt>
      <trkpt lat="45.98473" lon="1.10122">
        <ele>346</ele>
        <time>2022-10-02T08:42:48Z</time>
      </trkpt>
      <trkpt lat="45.98469" lon="1.10123">
        <ele>346</ele>
        <time>2022-10-02T08:42:49Z</time>
      </trkpt>
      <trkpt lat="45.98465" lon="1.10125">
        <ele>345.9</ele>
        <time>2022-10-02T08:42:50Z</time>
      </trkpt>
      <trkpt lat="45.98461" lon="1.10129">
        <ele>345.9</ele>
        <time>2022-10-02T08:42:51Z</time>
      </trkpt>
      <trkpt lat="45.98458" lon="1.10132">
        <ele>345.8</ele>
        <time>2022-10-02T08:42:52Z</time>
      </trkpt>
      <trkpt lat="45.98455" lon="1.10136">
        <ele>345.7</ele>
        <time>2022-10-02T08:42:53Z</time>
      </trkpt>
      <trkpt lat="45.98452" lon="1.10141">
        <ele>345.6</ele>
        <time>2022-10-02T08:42:54Z</time>
      </trkpt>
      <trkpt lat="45.98448" lon="1.10148">
        <ele>345.4</ele>
        <time>2022-10-02T08:42:55Z</time>
      </trkpt>
      <trkpt lat="45.98445" lon="1.10153">
        <ele>345.3</ele>
        <time>2022-10-02T08:42:56Z</time>
      </trkpt>
      <trkpt lat="45.98441" lon="1.1016">
        <ele>345.2</ele>
        <time>2022-10-02T08:42:57Z</time>
      </trkpt>
      <trkpt lat="45.98437" lon="1.10165">
        <ele>345</ele>
        <time>2022-10-02T08:42:58Z</time>
      </trkpt>
      <trkpt lat="45.98434" lon="1.1017">
        <ele>344.9</ele>
        <time>2022-10-02T08:42:59Z</time>
      </trkpt>
      <trkpt lat="45.98431" lon="1.10176">
        <ele>344.8</ele>
        <time>2022-10-02T08:43:00Z</time>
      </trkpt>
      <trkpt lat="45.98428" lon="1.10183">
        <ele>344.6</ele>
        <time>2022-10-02T08:43:01Z</time>
      </trkpt>
      <trkpt lat="45.98424" lon="1.10188">
        <ele>344.5</ele>
        <time>2022-10-02T08:43:02Z</time>
      </trkpt>
      <trkpt lat="45.98421" lon="1.10195">
        <ele>344.4</ele>
        <time>2022-10-02T08:43:03Z</time>
      </trkpt>
      <trkpt lat="45.98415" lon="1.10202">
        <ele>344.2</ele>
        <time>2022-10-02T08:43:04Z</time>
      </trkpt>
      <trkpt lat="45.9841" lon="1.1021">
        <ele>344.1</ele>
        <time>2022-10-02T08:43:05Z</time>
      </trkpt>
      <trkpt lat="45.98405" lon="1.10216">
        <ele>344</ele>
        <time>2022-10-02T08:43:06Z</time>
      </trkpt>
      <trkpt lat="45.98404" lon="1.10218">
        <ele>343.9</ele>
        <time>2022-10-02T08:43:07Z</time>
      </trkpt>
      <trkpt lat="45.984" lon="1.10225">
        <ele>343.9</ele>
        <time>2022-10-02T08:43:08Z</time>
      </trkpt>
      <trkpt lat="45.98396" lon="1.10228">
        <ele>343.9</ele>
        <time>2022-10-02T08:43:09Z</time>
      </trkpt>
      <trkpt lat="45.98393" lon="1.10231">
        <ele>343.9</ele>
        <time>2022-10-02T08:43:10Z</time>
      </trkpt>
      <trkpt lat="45.9839" lon="1.10239">
        <ele>343.9</ele>
        <time>2022-10-02T08:43:11Z</time>
      </trkpt>
      <trkpt lat="45.98385" lon="1.10245">
        <ele>343.9</ele>
        <time>2022-10-02T08:43:12Z</time>
      </trkpt>
      <trkpt lat="45.98381" lon="1.10252">
        <ele>343.9</ele>
        <time>2022-10-02T08:43:13Z</time>
      </trkpt>
      <trkpt lat="45.98376" lon="1.1026">
        <ele>343.9</ele>
        <time>2022-10-02T08:43:14Z</time>
      </trkpt>
      <trkpt lat="45.98372" lon="1.10263">
        <ele>343.9</ele>
        <time>2022-10-02T08:43:15Z</time>
      </trkpt>
      <trkpt lat="45.98368" lon="1.10269">
        <ele>343.9</ele>
        <time>2022-10-02T08:43:16Z</time>
      </trkpt>
      <trkpt lat="45.98364" lon="1.10274">
        <ele>343.9</ele>
        <time>2022-10-02T08:43:17Z</time>
      </trkpt>
      <trkpt lat="45.9836" lon="1.10282">
        <ele>343.9</ele>
        <time>2022-10-02T08:43:18Z</time>
      </trkpt>
      <trkpt lat="45.98355" lon="1.10288">
        <ele>343.9</ele>
        <time>2022-10-02T08:43:19Z</time>
      </trkpt>
      <trkpt lat="45.98351" lon="1.10294">
        <ele>344</ele>
        <time>2022-10-02T08:43:20Z</time>
      </trkpt>
      <trkpt lat="45.98346" lon="1.10301">
        <ele>344</ele>
        <time>2022-10-02T08:43:21Z</time>
      </trkpt>
      <trkpt lat="45.98343" lon="1.10308">
        <ele>344.1</ele>
        <time>2022-10-02T08:43:22Z</time>
      </trkpt>
      <trkpt lat="45.9834" lon="1.10318">
        <ele>344.1</ele>
        <time>2022-10-02T08:43:23Z</time>
      </trkpt>
      <trkpt lat="45.98336" lon="1.10326">
        <ele>344.2</ele>
        <time>2022-10-02T08:43:24Z</time>
      </trkpt>
      <trkpt lat="45.98332" lon="1.10332">
        <ele>344.2</ele>
        <time>2022-10-02T08:43:25Z</time>
      </trkpt>
      <trkpt lat="45.98329" lon="1.10338">
        <ele>344.2</ele>
        <time>2022-10-02T08:43:26Z</time>
      </trkpt>
      <trkpt lat="45.98324" lon="1.10343">
        <ele>344.3</ele>
        <time>2022-10-02T08:43:27Z</time>
      </trkpt>
      <trkpt lat="45.9832" lon="1.10347">
        <ele>344.3</ele>
        <time>2022-10-02T08:43:28Z</time>
      </trkpt>
      <trkpt lat="45.98316" lon="1.10351">
        <ele>344.4</ele>
        <time>2022-10-02T08:43:29Z</time>
      </trkpt>
      <trkpt lat="45.98312" lon="1.10358">
        <ele>344.5</ele>
        <time>2022-10-02T08:43:30Z</time>
      </trkpt>
      <trkpt lat="45.98308" lon="1.10365">
        <ele>344.6</ele>
        <time>2022-10-02T08:43:31Z</time>
      </trkpt>
      <trkpt lat="45.98304" lon="1.1037">
        <ele>344.7</ele>
        <time>2022-10-02T08:43:32Z</time>
      </trkpt>
      <trkpt lat="45.983" lon="1.10372">
        <ele>344.8</ele>
        <time>2022-10-02T08:43:33Z</time>
      </trkpt>
      <trkpt lat="45.98296" lon="1.10375">
        <ele>344.8</ele>
        <time>2022-10-02T08:43:34Z</time>
      </trkpt>
      <trkpt lat="45.98292" lon="1.10371">
        <ele>344.8</ele>
        <time>2022-10-02T08:43:35Z</time>
      </trkpt>
      <trkpt lat="45.98288" lon="1.10368">
        <ele>345</ele>
        <time>2022-10-02T08:43:36Z</time>
      </trkpt>
      <trkpt lat="45.98285" lon="1.10363">
        <ele>345</ele>
        <time>2022-10-02T08:43:37Z</time>
      </trkpt>
      <trkpt lat="45.98279" lon="1.10358">
        <ele>343.8</ele>
        <time>2022-10-02T08:43:38Z</time>
      </trkpt>
      <trkpt lat="45.98274" lon="1.10353">
        <ele>344.2</ele>
        <time>2022-10-02T08:43:39Z</time>
      </trkpt>
      <trkpt lat="45.9827" lon="1.10349">
        <ele>344.1</ele>
        <time>2022-10-02T08:43:40Z</time>
      </trkpt>
      <trkpt lat="45.98269" lon="1.10345">
        <ele>344.1</ele>
        <time>2022-10-02T08:43:41Z</time>
      </trkpt>
      <trkpt lat="45.98264" lon="1.10341">
        <ele>343.5</ele>
        <time>2022-10-02T08:43:42Z</time>
      </trkpt>
      <trkpt lat="45.98259" lon="1.10336">
        <ele>343.4</ele>
        <time>2022-10-02T08:43:43Z</time>
      </trkpt>
      <trkpt lat="45.98256" lon="1.10333">
        <ele>343.4</ele>
        <time>2022-10-02T08:43:44Z</time>
      </trkpt>
      <trkpt lat="45.98252" lon="1.10329">
        <ele>344</ele>
        <time>2022-10-02T08:43:45Z</time>
      </trkpt>
      <trkpt lat="45.98247" lon="1.10326">
        <ele>342.8</ele>
        <time>2022-10-02T08:43:46Z</time>
      </trkpt>
      <trkpt lat="45.98243" lon="1.10326">
        <ele>342.8</ele>
        <time>2022-10-02T08:43:47Z</time>
      </trkpt>
      <trkpt lat="45.98232" lon="1.10318">
        <ele>343.4</ele>
        <time>2022-10-02T08:43:48Z</time>
      </trkpt>
      <trkpt lat="45.98227" lon="1.10315">
        <ele>343.8</ele>
        <time>2022-10-02T08:43:49Z</time>
      </trkpt>
      <trkpt lat="45.98223" lon="1.10314">
        <ele>343.8</ele>
        <time>2022-10-02T08:43:50Z</time>
      </trkpt>
      <trkpt lat="45.98219" lon="1.10314">
        <ele>343.8</ele>
        <time>2022-10-02T08:43:51Z</time>
      </trkpt>
      <trkpt lat="45.98215" lon="1.10315">
        <ele>344.2</ele>
        <time>2022-10-02T08:43:52Z</time>
      </trkpt>
      <trkpt lat="45.9821" lon="1.10314">
        <ele>344.2</ele>
        <time>2022-10-02T08:43:53Z</time>
      </trkpt>
      <trkpt lat="45.98207" lon="1.10315">
        <ele>344.2</ele>
        <time>2022-10-02T08:43:54Z</time>
      </trkpt>
      <trkpt lat="45.98202" lon="1.10311">
        <ele>344.6</ele>
        <time>2022-10-02T08:43:55Z</time>
      </trkpt>
      <trkpt lat="45.98196" lon="1.10311">
        <ele>344.6</ele>
        <time>2022-10-02T08:43:56Z</time>
      </trkpt>
      <trkpt lat="45.9819" lon="1.1031">
        <ele>344.2</ele>
        <time>2022-10-02T08:43:57Z</time>
      </trkpt>
      <trkpt lat="45.98185" lon="1.1031">
        <ele>345</ele>
        <time>2022-10-02T08:43:58Z</time>
      </trkpt>
      <trkpt lat="45.98181" lon="1.10312">
        <ele>345.3</ele>
        <time>2022-10-02T08:43:59Z</time>
      </trkpt>
      <trkpt lat="45.98177" lon="1.10311">
        <ele>345.3</ele>
        <time>2022-10-02T08:44:00Z</time>
      </trkpt>
      <trkpt lat="45.9817" lon="1.10309">
        <ele>344.7</ele>
        <time>2022-10-02T08:44:01Z</time>
      </trkpt>
      <trkpt lat="45.98162" lon="1.10309">
        <ele>345</ele>
        <time>2022-10-02T08:44:02Z</time>
      </trkpt>
      <trkpt lat="45.98155" lon="1.10309">
        <ele>345.1</ele>
        <time>2022-10-02T08:44:03Z</time>
      </trkpt>
      <trkpt lat="45.98149" lon="1.10307">
        <ele>345.1</ele>
        <time>2022-10-02T08:44:04Z</time>
      </trkpt>
      <trkpt lat="45.98143" lon="1.10306">
        <ele>344.9</ele>
        <time>2022-10-02T08:44:05Z</time>
      </trkpt>
      <trkpt lat="45.98137" lon="1.10305">
        <ele>344.9</ele>
        <time>2022-10-02T08:44:06Z</time>
      </trkpt>
      <trkpt lat="45.98131" lon="1.10302">
        <ele>344.4</ele>
        <time>2022-10-02T08:44:07Z</time>
      </trkpt>
      <trkpt lat="45.98126" lon="1.10299">
        <ele>344.4</ele>
        <time>2022-10-02T08:44:08Z</time>
      </trkpt>
      <trkpt lat="45.9812" lon="1.10296">
        <ele>343.6</ele>
        <time>2022-10-02T08:44:09Z</time>
      </trkpt>
      <trkpt lat="45.98114" lon="1.10291">
        <ele>343.7</ele>
        <time>2022-10-02T08:44:10Z</time>
      </trkpt>
      <trkpt lat="45.9811" lon="1.10287">
        <ele>342.7</ele>
        <time>2022-10-02T08:44:11Z</time>
      </trkpt>
      <trkpt lat="45.98105" lon="1.10281">
        <ele>342.7</ele>
        <time>2022-10-02T08:44:12Z</time>
      </trkpt>
      <trkpt lat="45.98098" lon="1.10277">
        <ele>342.7</ele>
        <time>2022-10-02T08:44:13Z</time>
      </trkpt>
      <trkpt lat="45.98092" lon="1.10273">
        <ele>342.2</ele>
        <time>2022-10-02T08:44:14Z</time>
      </trkpt>
      <trkpt lat="45.98085" lon="1.10269">
        <ele>341.7</ele>
        <time>2022-10-02T08:44:15Z</time>
      </trkpt>
      <trkpt lat="45.98078" lon="1.10264">
        <ele>341.7</ele>
        <time>2022-10-02T08:44:16Z</time>
      </trkpt>
      <trkpt lat="45.98072" lon="1.10258">
        <ele>341.3</ele>
        <time>2022-10-02T08:44:17Z</time>
      </trkpt>
      <trkpt lat="45.98065" lon="1.10253">
        <ele>341.7</ele>
        <time>2022-10-02T08:44:18Z</time>
      </trkpt>
      <trkpt lat="45.98059" lon="1.10246">
        <ele>341.3</ele>
        <time>2022-10-02T08:44:19Z</time>
      </trkpt>
      <trkpt lat="45.98052" lon="1.10241">
        <ele>341.8</ele>
        <time>2022-10-02T08:44:20Z</time>
      </trkpt>
      <trkpt lat="45.98044" lon="1.10238">
        <ele>341.8</ele>
        <time>2022-10-02T08:44:21Z</time>
      </trkpt>
      <trkpt lat="45.98035" lon="1.10231">
        <ele>341.7</ele>
        <time>2022-10-02T08:44:22Z</time>
      </trkpt>
      <trkpt lat="45.98028" lon="1.10225">
        <ele>341.7</ele>
        <time>2022-10-02T08:44:23Z</time>
      </trkpt>
      <trkpt lat="45.9802" lon="1.1022">
        <ele>341.8</ele>
        <time>2022-10-02T08:44:24Z</time>
      </trkpt>
      <trkpt lat="45.98011" lon="1.10213">
        <ele>341.6</ele>
        <time>2022-10-02T08:44:25Z</time>
      </trkpt>
      <trkpt lat="45.98003" lon="1.10207">
        <ele>341.6</ele>
        <time>2022-10-02T08:44:26Z</time>
      </trkpt>
      <trkpt lat="45.97996" lon="1.102">
        <ele>341.5</ele>
        <time>2022-10-02T08:44:27Z</time>
      </trkpt>
      <trkpt lat="45.97988" lon="1.10194">
        <ele>341.2</ele>
        <time>2022-10-02T08:44:28Z</time>
      </trkpt>
      <trkpt lat="45.9798" lon="1.10187">
        <ele>340.8</ele>
        <time>2022-10-02T08:44:29Z</time>
      </trkpt>
      <trkpt lat="45.97973" lon="1.10181">
        <ele>340</ele>
        <time>2022-10-02T08:44:30Z</time>
      </trkpt>
      <trkpt lat="45.97965" lon="1.10175">
        <ele>338.5</ele>
        <time>2022-10-02T08:44:31Z</time>
      </trkpt>
      <trkpt lat="45.97958" lon="1.10169">
        <ele>337.5</ele>
        <time>2022-10-02T08:44:32Z</time>
      </trkpt>
      <trkpt lat="45.9795" lon="1.10163">
        <ele>335.7</ele>
        <time>2022-10-02T08:44:33Z</time>
      </trkpt>
      <trkpt lat="45.97943" lon="1.10158">
        <ele>333.4</ele>
        <time>2022-10-02T08:44:34Z</time>
      </trkpt>
      <trkpt lat="45.97936" lon="1.10152">
        <ele>332.7</ele>
        <time>2022-10-02T08:44:35Z</time>
      </trkpt>
      <trkpt lat="45.97929" lon="1.10146">
        <ele>330.7</ele>
        <time>2022-10-02T08:44:36Z</time>
      </trkpt>
      <trkpt lat="45.97922" lon="1.1014">
        <ele>330.7</ele>
        <time>2022-10-02T08:44:37Z</time>
      </trkpt>
      <trkpt lat="45.97916" lon="1.10135">
        <ele>328.1</ele>
        <time>2022-10-02T08:44:38Z</time>
      </trkpt>
      <trkpt lat="45.9791" lon="1.1013">
        <ele>328.1</ele>
        <time>2022-10-02T08:44:39Z</time>
      </trkpt>
      <trkpt lat="45.97904" lon="1.10124">
        <ele>326.7</ele>
        <time>2022-10-02T08:44:40Z</time>
      </trkpt>
      <trkpt lat="45.97899" lon="1.1012">
        <ele>326.5</ele>
        <time>2022-10-02T08:44:41Z</time>
      </trkpt>
      <trkpt lat="45.97894" lon="1.10116">
        <ele>325.5</ele>
        <time>2022-10-02T08:44:42Z</time>
      </trkpt>
      <trkpt lat="45.97888" lon="1.10112">
        <ele>325.5</ele>
        <time>2022-10-02T08:44:43Z</time>
      </trkpt>
      <trkpt lat="45.97883" lon="1.10107">
        <ele>324.7</ele>
        <time>2022-10-02T08:44:44Z</time>
      </trkpt>
      <trkpt lat="45.97877" lon="1.10104">
        <ele>324.7</ele>
        <time>2022-10-02T08:44:45Z</time>
      </trkpt>
      <trkpt lat="45.97872" lon="1.101">
        <ele>324.7</ele>
        <time>2022-10-02T08:44:46Z</time>
      </trkpt>
      <trkpt lat="45.97867" lon="1.10095">
        <ele>324.3</ele>
        <time>2022-10-02T08:44:47Z</time>
      </trkpt>
      <trkpt lat="45.97863" lon="1.10091">
        <ele>324.2</ele>
        <time>2022-10-02T08:44:48Z</time>
      </trkpt>
      <trkpt lat="45.9786" lon="1.10085">
        <ele>324.3</ele>
        <time>2022-10-02T08:44:49Z</time>
      </trkpt>
      <trkpt lat="45.97856" lon="1.1008">
        <ele>323.9</ele>
        <time>2022-10-02T08:44:50Z</time>
      </trkpt>
      <trkpt lat="45.97852" lon="1.10076">
        <ele>323.9</ele>
        <time>2022-10-02T08:44:51Z</time>
      </trkpt>
      <trkpt lat="45.97847" lon="1.10073">
        <ele>323.6</ele>
        <time>2022-10-02T08:44:52Z</time>
      </trkpt>
      <trkpt lat="45.97842" lon="1.10071">
        <ele>323.6</ele>
        <time>2022-10-02T08:44:53Z</time>
      </trkpt>
      <trkpt lat="45.97837" lon="1.10067">
        <ele>323.5</ele>
        <time>2022-10-02T08:44:54Z</time>
      </trkpt>
      <trkpt lat="45.97832" lon="1.10064">
        <ele>323.2</ele>
        <time>2022-10-02T08:44:55Z</time>
      </trkpt>
      <trkpt lat="45.97829" lon="1.1006">
        <ele>323.2</ele>
        <time>2022-10-02T08:44:56Z</time>
      </trkpt>
      <trkpt lat="45.97824" lon="1.10057">
        <ele>323.1</ele>
        <time>2022-10-02T08:44:57Z</time>
      </trkpt>
      <trkpt lat="45.97821" lon="1.10054">
        <ele>322.9</ele>
        <time>2022-10-02T08:44:58Z</time>
      </trkpt>
      <trkpt lat="45.97815" lon="1.1005">
        <ele>322.6</ele>
        <time>2022-10-02T08:44:59Z</time>
      </trkpt>
      <trkpt lat="45.97809" lon="1.10045">
        <ele>322.2</ele>
        <time>2022-10-02T08:45:00Z</time>
      </trkpt>
      <trkpt lat="45.97804" lon="1.1004">
        <ele>322.2</ele>
        <time>2022-10-02T08:45:01Z</time>
      </trkpt>
      <trkpt lat="45.97798" lon="1.10037">
        <ele>321.8</ele>
        <time>2022-10-02T08:45:02Z</time>
      </trkpt>
      <trkpt lat="45.97793" lon="1.10032">
        <ele>321.2</ele>
        <time>2022-10-02T08:45:03Z</time>
      </trkpt>
      <trkpt lat="45.97788" lon="1.10029">
        <ele>321</ele>
        <time>2022-10-02T08:45:04Z</time>
      </trkpt>
      <trkpt lat="45.97783" lon="1.10025">
        <ele>321</ele>
        <time>2022-10-02T08:45:05Z</time>
      </trkpt>
      <trkpt lat="45.97777" lon="1.10021">
        <ele>320.9</ele>
        <time>2022-10-02T08:45:06Z</time>
      </trkpt>
      <trkpt lat="45.97772" lon="1.10017">
        <ele>320</ele>
        <time>2022-10-02T08:45:07Z</time>
      </trkpt>
      <trkpt lat="45.97766" lon="1.10013">
        <ele>320</ele>
        <time>2022-10-02T08:45:08Z</time>
      </trkpt>
      <trkpt lat="45.9776" lon="1.10009">
        <ele>319.7</ele>
        <time>2022-10-02T08:45:09Z</time>
      </trkpt>
      <trkpt lat="45.97754" lon="1.10005">
        <ele>319.7</ele>
        <time>2022-10-02T08:45:10Z</time>
      </trkpt>
      <trkpt lat="45.97748" lon="1.10001">
        <ele>319.4</ele>
        <time>2022-10-02T08:45:11Z</time>
      </trkpt>
      <trkpt lat="45.97744" lon="1.09997">
        <ele>318.6</ele>
        <time>2022-10-02T08:45:12Z</time>
      </trkpt>
      <trkpt lat="45.97738" lon="1.09993">
        <ele>318.5</ele>
        <time>2022-10-02T08:45:13Z</time>
      </trkpt>
      <trkpt lat="45.97732" lon="1.09988">
        <ele>318.5</ele>
        <time>2022-10-02T08:45:14Z</time>
      </trkpt>
      <trkpt lat="45.97727" lon="1.09982">
        <ele>317.9</ele>
        <time>2022-10-02T08:45:15Z</time>
      </trkpt>
      <trkpt lat="45.97721" lon="1.09978">
        <ele>317.9</ele>
        <time>2022-10-02T08:45:16Z</time>
      </trkpt>
      <trkpt lat="45.97717" lon="1.09974">
        <ele>317.9</ele>
        <time>2022-10-02T08:45:17Z</time>
      </trkpt>
      <trkpt lat="45.97711" lon="1.0997">
        <ele>318</ele>
        <time>2022-10-02T08:45:18Z</time>
      </trkpt>
      <trkpt lat="45.97706" lon="1.09965">
        <ele>317.4</ele>
        <time>2022-10-02T08:45:19Z</time>
      </trkpt>
      <trkpt lat="45.977" lon="1.0996">
        <ele>317.6</ele>
        <time>2022-10-02T08:45:20Z</time>
      </trkpt>
      <trkpt lat="45.97694" lon="1.09956">
        <ele>317.6</ele>
        <time>2022-10-02T08:45:21Z</time>
      </trkpt>
      <trkpt lat="45.9769" lon="1.09951">
        <ele>317.9</ele>
        <time>2022-10-02T08:45:22Z</time>
      </trkpt>
      <trkpt lat="45.97685" lon="1.09947">
        <ele>317.1</ele>
        <time>2022-10-02T08:45:23Z</time>
      </trkpt>
      <trkpt lat="45.9768" lon="1.09944">
        <ele>317.8</ele>
        <time>2022-10-02T08:45:24Z</time>
      </trkpt>
      <trkpt lat="45.97676" lon="1.0994">
        <ele>317.8</ele>
        <time>2022-10-02T08:45:25Z</time>
      </trkpt>
      <trkpt lat="45.97671" lon="1.09937">
        <ele>317.8</ele>
        <time>2022-10-02T08:45:26Z</time>
      </trkpt>
      <trkpt lat="45.97667" lon="1.09934">
        <ele>318.9</ele>
        <time>2022-10-02T08:45:27Z</time>
      </trkpt>
      <trkpt lat="45.97662" lon="1.09932">
        <ele>318.3</ele>
        <time>2022-10-02T08:45:28Z</time>
      </trkpt>
      <trkpt lat="45.97658" lon="1.09929">
        <ele>318.3</ele>
        <time>2022-10-02T08:45:29Z</time>
      </trkpt>
      <trkpt lat="45.97653" lon="1.0993">
        <ele>319.5</ele>
        <time>2022-10-02T08:45:30Z</time>
      </trkpt>
      <trkpt lat="45.97649" lon="1.09932">
        <ele>319.5</ele>
        <time>2022-10-02T08:45:31Z</time>
      </trkpt>
      <trkpt lat="45.97648" lon="1.0994">
        <ele>319.4</ele>
        <time>2022-10-02T08:45:32Z</time>
      </trkpt>
      <trkpt lat="45.97646" lon="1.09945">
        <ele>319.3</ele>
        <time>2022-10-02T08:45:33Z</time>
      </trkpt>
      <trkpt lat="45.97644" lon="1.09952">
        <ele>319.1</ele>
        <time>2022-10-02T08:45:34Z</time>
      </trkpt>
      <trkpt lat="45.97642" lon="1.09959">
        <ele>319</ele>
        <time>2022-10-02T08:45:35Z</time>
      </trkpt>
      <trkpt lat="45.97639" lon="1.09967">
        <ele>318.7</ele>
        <time>2022-10-02T08:45:36Z</time>
      </trkpt>
      <trkpt lat="45.97636" lon="1.09973">
        <ele>318.5</ele>
        <time>2022-10-02T08:45:37Z</time>
      </trkpt>
      <trkpt lat="45.97634" lon="1.09981">
        <ele>318.2</ele>
        <time>2022-10-02T08:45:38Z</time>
      </trkpt>
      <trkpt lat="45.97631" lon="1.09988">
        <ele>318</ele>
        <time>2022-10-02T08:45:39Z</time>
      </trkpt>
      <trkpt lat="45.97628" lon="1.09996">
        <ele>317.7</ele>
        <time>2022-10-02T08:45:40Z</time>
      </trkpt>
      <trkpt lat="45.97626" lon="1.10006">
        <ele>317.4</ele>
        <time>2022-10-02T08:45:41Z</time>
      </trkpt>
      <trkpt lat="45.97622" lon="1.10014">
        <ele>317.1</ele>
        <time>2022-10-02T08:45:42Z</time>
      </trkpt>
      <trkpt lat="45.97619" lon="1.10022">
        <ele>316.8</ele>
        <time>2022-10-02T08:45:43Z</time>
      </trkpt>
      <trkpt lat="45.97615" lon="1.10031">
        <ele>316.5</ele>
        <time>2022-10-02T08:45:44Z</time>
      </trkpt>
      <trkpt lat="45.97612" lon="1.1004">
        <ele>316.2</ele>
        <time>2022-10-02T08:45:45Z</time>
      </trkpt>
      <trkpt lat="45.97609" lon="1.10048">
        <ele>315.9</ele>
        <time>2022-10-02T08:45:46Z</time>
      </trkpt>
      <trkpt lat="45.97606" lon="1.10056">
        <ele>315.6</ele>
        <time>2022-10-02T08:45:47Z</time>
      </trkpt>
      <trkpt lat="45.97603" lon="1.10065">
        <ele>315.4</ele>
        <time>2022-10-02T08:45:48Z</time>
      </trkpt>
      <trkpt lat="45.976" lon="1.10074">
        <ele>315.1</ele>
        <time>2022-10-02T08:45:49Z</time>
      </trkpt>
      <trkpt lat="45.97597" lon="1.10083">
        <ele>314.8</ele>
        <time>2022-10-02T08:45:50Z</time>
      </trkpt>
      <trkpt lat="45.97594" lon="1.10093">
        <ele>314.4</ele>
        <time>2022-10-02T08:45:51Z</time>
      </trkpt>
      <trkpt lat="45.97591" lon="1.10102">
        <ele>314.1</ele>
        <time>2022-10-02T08:45:52Z</time>
      </trkpt>
      <trkpt lat="45.97588" lon="1.10111">
        <ele>313.9</ele>
        <time>2022-10-02T08:45:53Z</time>
      </trkpt>
      <trkpt lat="45.97585" lon="1.1012">
        <ele>313.6</ele>
        <time>2022-10-02T08:45:54Z</time>
      </trkpt>
      <trkpt lat="45.97582" lon="1.10129">
        <ele>313.4</ele>
        <time>2022-10-02T08:45:55Z</time>
      </trkpt>
      <trkpt lat="45.97579" lon="1.10137">
        <ele>313.2</ele>
        <time>2022-10-02T08:45:56Z</time>
      </trkpt>
      <trkpt lat="45.97575" lon="1.10145">
        <ele>313</ele>
        <time>2022-10-02T08:45:57Z</time>
      </trkpt>
      <trkpt lat="45.97572" lon="1.10154">
        <ele>312.8</ele>
        <time>2022-10-02T08:45:58Z</time>
      </trkpt>
      <trkpt lat="45.97568" lon="1.10162">
        <ele>312.6</ele>
        <time>2022-10-02T08:45:59Z</time>
      </trkpt>
      <trkpt lat="45.97565" lon="1.1017">
        <ele>312.4</ele>
        <time>2022-10-02T08:46:00Z</time>
      </trkpt>
      <trkpt lat="45.97563" lon="1.10179">
        <ele>312.2</ele>
        <time>2022-10-02T08:46:01Z</time>
      </trkpt>
      <trkpt lat="45.97561" lon="1.10189">
        <ele>312</ele>
        <time>2022-10-02T08:46:02Z</time>
      </trkpt>
      <trkpt lat="45.97558" lon="1.10198">
        <ele>311.9</ele>
        <time>2022-10-02T08:46:03Z</time>
      </trkpt>
      <trkpt lat="45.97557" lon="1.10207">
        <ele>311.8</ele>
        <time>2022-10-02T08:46:04Z</time>
      </trkpt>
      <trkpt lat="45.97557" lon="1.10216">
        <ele>311.7</ele>
        <time>2022-10-02T08:46:05Z</time>
      </trkpt>
      <trkpt lat="45.97557" lon="1.10224">
        <ele>311.7</ele>
        <time>2022-10-02T08:46:06Z</time>
      </trkpt>
      <trkpt lat="45.97557" lon="1.10232">
        <ele>311.7</ele>
        <time>2022-10-02T08:46:07Z</time>
      </trkpt>
      <trkpt lat="45.97557" lon="1.10239">
        <ele>311.7</ele>
        <time>2022-10-02T08:46:08Z</time>
      </trkpt>
      <trkpt lat="45.9756" lon="1.10245">
        <ele>311.7</ele>
        <time>2022-10-02T08:46:09Z</time>
      </trkpt>
      <trkpt lat="45.97562" lon="1.10251">
        <ele>311.7</ele>
        <time>2022-10-02T08:46:10Z</time>
      </trkpt>
      <trkpt lat="45.97566" lon="1.10259">
        <ele>311.8</ele>
        <time>2022-10-02T08:46:11Z</time>
      </trkpt>
      <trkpt lat="45.97569" lon="1.10265">
        <ele>311.9</ele>
        <time>2022-10-02T08:46:12Z</time>
      </trkpt>
      <trkpt lat="45.97571" lon="1.10272">
        <ele>311.9</ele>
        <time>2022-10-02T08:46:13Z</time>
      </trkpt>
      <trkpt lat="45.97573" lon="1.10278">
        <ele>312</ele>
        <time>2022-10-02T08:46:14Z</time>
      </trkpt>
      <trkpt lat="45.97574" lon="1.10283">
        <ele>312.1</ele>
        <time>2022-10-02T08:46:15Z</time>
      </trkpt>
      <trkpt lat="45.97577" lon="1.10287">
        <ele>312.2</ele>
        <time>2022-10-02T08:46:16Z</time>
      </trkpt>
      <trkpt lat="45.9758" lon="1.10292">
        <ele>312.3</ele>
        <time>2022-10-02T08:46:17Z</time>
      </trkpt>
      <trkpt lat="45.97582" lon="1.10298">
        <ele>312.4</ele>
        <time>2022-10-02T08:46:18Z</time>
      </trkpt>
      <trkpt lat="45.97586" lon="1.10304">
        <ele>312.5</ele>
        <time>2022-10-02T08:46:19Z</time>
      </trkpt>
      <trkpt lat="45.97586" lon="1.10308">
        <ele>312.6</ele>
        <time>2022-10-02T08:46:20Z</time>
      </trkpt>
      <trkpt lat="45.97588" lon="1.10315">
        <ele>312.8</ele>
        <time>2022-10-02T08:46:21Z</time>
      </trkpt>
      <trkpt lat="45.97592" lon="1.10323">
        <ele>313</ele>
        <time>2022-10-02T08:46:22Z</time>
      </trkpt>
      <trkpt lat="45.97593" lon="1.10328">
        <ele>313.1</ele>
        <time>2022-10-02T08:46:23Z</time>
      </trkpt>
      <trkpt lat="45.97594" lon="1.10335">
        <ele>313.3</ele>
        <time>2022-10-02T08:46:24Z</time>
      </trkpt>
      <trkpt lat="45.97597" lon="1.10343">
        <ele>313.6</ele>
        <time>2022-10-02T08:46:25Z</time>
      </trkpt>
      <trkpt lat="45.97597" lon="1.10349">
        <ele>313.8</ele>
        <time>2022-10-02T08:46:26Z</time>
      </trkpt>
      <trkpt lat="45.97596" lon="1.10356">
        <ele>314</ele>
        <time>2022-10-02T08:46:27Z</time>
      </trkpt>
      <trkpt lat="45.97596" lon="1.10362">
        <ele>314.2</ele>
        <time>2022-10-02T08:46:28Z</time>
      </trkpt>
      <trkpt lat="45.97594" lon="1.10366">
        <ele>314.4</ele>
        <time>2022-10-02T08:46:29Z</time>
      </trkpt>
      <trkpt lat="45.97595" lon="1.1037">
        <ele>314.5</ele>
        <time>2022-10-02T08:46:30Z</time>
      </trkpt>
      <trkpt lat="45.97595" lon="1.10376">
        <ele>314.7</ele>
        <time>2022-10-02T08:46:31Z</time>
      </trkpt>
      <trkpt lat="45.97595" lon="1.10379">
        <ele>314.8</ele>
        <time>2022-10-02T08:46:32Z</time>
      </trkpt>
      <trkpt lat="45.97593" lon="1.10383">
        <ele>315</ele>
        <time>2022-10-02T08:46:33Z</time>
      </trkpt>
      <trkpt lat="45.97592" lon="1.10387">
        <ele>315.1</ele>
        <time>2022-10-02T08:46:34Z</time>
      </trkpt>
      <trkpt lat="45.9759" lon="1.10392">
        <ele>315.3</ele>
        <time>2022-10-02T08:46:35Z</time>
      </trkpt>
      <trkpt lat="45.97587" lon="1.10396">
        <ele>315.5</ele>
        <time>2022-10-02T08:46:36Z</time>
      </trkpt>
      <trkpt lat="45.97583" lon="1.10402">
        <ele>315.8</ele>
        <time>2022-10-02T08:46:37Z</time>
      </trkpt>
      <trkpt lat="45.97579" lon="1.10405">
        <ele>316</ele>
        <time>2022-10-02T08:46:38Z</time>
      </trkpt>
      <trkpt lat="45.97574" lon="1.10409">
        <ele>316.3</ele>
        <time>2022-10-02T08:46:39Z</time>
      </trkpt>
      <trkpt lat="45.97571" lon="1.10414">
        <ele>316.5</ele>
        <time>2022-10-02T08:46:40Z</time>
      </trkpt>
      <trkpt lat="45.97568" lon="1.10418">
        <ele>316.6</ele>
        <time>2022-10-02T08:46:41Z</time>
      </trkpt>
      <trkpt lat="45.97566" lon="1.10422">
        <ele>316.8</ele>
        <time>2022-10-02T08:46:42Z</time>
      </trkpt>
      <trkpt lat="45.97562" lon="1.10426">
        <ele>316.9</ele>
        <time>2022-10-02T08:46:43Z</time>
      </trkpt>
      <trkpt lat="45.9756" lon="1.10429">
        <ele>317</ele>
        <time>2022-10-02T08:46:44Z</time>
      </trkpt>
      <trkpt lat="45.97558" lon="1.10431">
        <ele>317.1</ele>
        <time>2022-10-02T08:46:45Z</time>
      </trkpt>
      <trkpt lat="45.97554" lon="1.10434">
        <ele>317.2</ele>
        <time>2022-10-02T08:46:46Z</time>
      </trkpt>
      <trkpt lat="45.97551" lon="1.10439">
        <ele>317.3</ele>
        <time>2022-10-02T08:46:47Z</time>
      </trkpt>
      <trkpt lat="45.97548" lon="1.10447">
        <ele>317.5</ele>
        <time>2022-10-02T08:46:48Z</time>
      </trkpt>
      <trkpt lat="45.97543" lon="1.1045">
        <ele>317.6</ele>
        <time>2022-10-02T08:46:49Z</time>
      </trkpt>
      <trkpt lat="45.9754" lon="1.10455">
        <ele>317.7</ele>
        <time>2022-10-02T08:46:50Z</time>
      </trkpt>
      <trkpt lat="45.97533" lon="1.10457">
        <ele>317.9</ele>
        <time>2022-10-02T08:46:51Z</time>
      </trkpt>
      <trkpt lat="45.97528" lon="1.10459">
        <ele>318</ele>
        <time>2022-10-02T08:46:52Z</time>
      </trkpt>
      <trkpt lat="45.97523" lon="1.10461">
        <ele>318</ele>
        <time>2022-10-02T08:46:53Z</time>
      </trkpt>
      <trkpt lat="45.97518" lon="1.10461">
        <ele>318</ele>
        <time>2022-10-02T08:46:54Z</time>
      </trkpt>
      <trkpt lat="45.97512" lon="1.10463">
        <ele>318</ele>
        <time>2022-10-02T08:46:55Z</time>
      </trkpt>
      <trkpt lat="45.97506" lon="1.10464">
        <ele>318</ele>
        <time>2022-10-02T08:46:56Z</time>
      </trkpt>
      <trkpt lat="45.975" lon="1.10464">
        <ele>317.9</ele>
        <time>2022-10-02T08:46:57Z</time>
      </trkpt>
      <trkpt lat="45.97494" lon="1.10464">
        <ele>317.8</ele>
        <time>2022-10-02T08:46:58Z</time>
      </trkpt>
      <trkpt lat="45.97488" lon="1.10462">
        <ele>317.7</ele>
        <time>2022-10-02T08:46:59Z</time>
      </trkpt>
      <trkpt lat="45.97481" lon="1.10464">
        <ele>317.5</ele>
        <time>2022-10-02T08:47:00Z</time>
      </trkpt>
      <trkpt lat="45.97475" lon="1.10463">
        <ele>317.4</ele>
        <time>2022-10-02T08:47:01Z</time>
      </trkpt>
      <trkpt lat="45.9747" lon="1.10461">
        <ele>317.3</ele>
        <time>2022-10-02T08:47:02Z</time>
      </trkpt>
      <trkpt lat="45.97464" lon="1.10456">
        <ele>317.2</ele>
        <time>2022-10-02T08:47:03Z</time>
      </trkpt>
      <trkpt lat="45.97461" lon="1.10457">
        <ele>317.2</ele>
        <time>2022-10-02T08:47:04Z</time>
      </trkpt>
      <trkpt lat="45.97456" lon="1.10458">
        <ele>317.1</ele>
        <time>2022-10-02T08:47:05Z</time>
      </trkpt>
      <trkpt lat="45.97451" lon="1.10459">
        <ele>317</ele>
        <time>2022-10-02T08:47:06Z</time>
      </trkpt>
      <trkpt lat="45.97446" lon="1.10459">
        <ele>316.9</ele>
        <time>2022-10-02T08:47:07Z</time>
      </trkpt>
      <trkpt lat="45.97441" lon="1.10459">
        <ele>316.9</ele>
        <time>2022-10-02T08:47:08Z</time>
      </trkpt>
      <trkpt lat="45.97435" lon="1.10457">
        <ele>316.8</ele>
        <time>2022-10-02T08:47:09Z</time>
      </trkpt>
      <trkpt lat="45.9743" lon="1.10459">
        <ele>316.8</ele>
        <time>2022-10-02T08:47:10Z</time>
      </trkpt>
      <trkpt lat="45.97425" lon="1.10462">
        <ele>316.7</ele>
        <time>2022-10-02T08:47:11Z</time>
      </trkpt>
      <trkpt lat="45.97421" lon="1.10461">
        <ele>316.7</ele>
        <time>2022-10-02T08:47:12Z</time>
      </trkpt>
      <trkpt lat="45.97416" lon="1.10459">
        <ele>316.7</ele>
        <time>2022-10-02T08:47:13Z</time>
      </trkpt>
      <trkpt lat="45.97412" lon="1.10465">
        <ele>316.7</ele>
        <time>2022-10-02T08:47:14Z</time>
      </trkpt>
      <trkpt lat="45.97408" lon="1.10466">
        <ele>316.7</ele>
        <time>2022-10-02T08:47:15Z</time>
      </trkpt>
      <trkpt lat="45.97401" lon="1.10467">
        <ele>316.7</ele>
        <time>2022-10-02T08:47:16Z</time>
      </trkpt>
      <trkpt lat="45.97395" lon="1.1047">
        <ele>316.8</ele>
        <time>2022-10-02T08:47:17Z</time>
      </trkpt>
      <trkpt lat="45.97391" lon="1.10474">
        <ele>316.8</ele>
        <time>2022-10-02T08:47:18Z</time>
      </trkpt>
      <trkpt lat="45.97387" lon="1.10477">
        <ele>316.8</ele>
        <time>2022-10-02T08:47:19Z</time>
      </trkpt>
      <trkpt lat="45.97381" lon="1.10483">
        <ele>316.8</ele>
        <time>2022-10-02T08:47:20Z</time>
      </trkpt>
      <trkpt lat="45.97376" lon="1.10486">
        <ele>316.9</ele>
        <time>2022-10-02T08:47:21Z</time>
      </trkpt>
      <trkpt lat="45.97373" lon="1.10491">
        <ele>316.9</ele>
        <time>2022-10-02T08:47:22Z</time>
      </trkpt>
      <trkpt lat="45.97369" lon="1.10502">
        <ele>317</ele>
        <time>2022-10-02T08:47:23Z</time>
      </trkpt>
      <trkpt lat="45.97366" lon="1.10508">
        <ele>317.1</ele>
        <time>2022-10-02T08:47:24Z</time>
      </trkpt>
      <trkpt lat="45.97364" lon="1.10515">
        <ele>317.2</ele>
        <time>2022-10-02T08:47:25Z</time>
      </trkpt>
      <trkpt lat="45.97361" lon="1.10522">
        <ele>317.3</ele>
        <time>2022-10-02T08:47:26Z</time>
      </trkpt>
      <trkpt lat="45.97358" lon="1.10531">
        <ele>317.4</ele>
        <time>2022-10-02T08:47:27Z</time>
      </trkpt>
      <trkpt lat="45.97357" lon="1.10538">
        <ele>317.5</ele>
        <time>2022-10-02T08:47:28Z</time>
      </trkpt>
      <trkpt lat="45.97354" lon="1.10544">
        <ele>317.7</ele>
        <time>2022-10-02T08:47:29Z</time>
      </trkpt>
      <trkpt lat="45.97351" lon="1.10551">
        <ele>317.8</ele>
        <time>2022-10-02T08:47:30Z</time>
      </trkpt>
      <trkpt lat="45.97349" lon="1.10557">
        <ele>317.9</ele>
        <time>2022-10-02T08:47:31Z</time>
      </trkpt>
      <trkpt lat="45.97347" lon="1.10565">
        <ele>318.1</ele>
        <time>2022-10-02T08:47:32Z</time>
      </trkpt>
      <trkpt lat="45.97345" lon="1.10571">
        <ele>318.2</ele>
        <time>2022-10-02T08:47:33Z</time>
      </trkpt>
      <trkpt lat="45.97344" lon="1.10576">
        <ele>318.3</ele>
        <time>2022-10-02T08:47:34Z</time>
      </trkpt>
      <trkpt lat="45.97341" lon="1.10583">
        <ele>318.5</ele>
        <time>2022-10-02T08:47:35Z</time>
      </trkpt>
      <trkpt lat="45.9734" lon="1.10591">
        <ele>318.7</ele>
        <time>2022-10-02T08:47:36Z</time>
      </trkpt>
      <trkpt lat="45.97338" lon="1.10596">
        <ele>318.9</ele>
        <time>2022-10-02T08:47:37Z</time>
      </trkpt>
      <trkpt lat="45.97336" lon="1.10602">
        <ele>319</ele>
        <time>2022-10-02T08:47:38Z</time>
      </trkpt>
      <trkpt lat="45.97335" lon="1.10609">
        <ele>319.2</ele>
        <time>2022-10-02T08:47:39Z</time>
      </trkpt>
      <trkpt lat="45.97332" lon="1.10616">
        <ele>319.4</ele>
        <time>2022-10-02T08:47:40Z</time>
      </trkpt>
      <trkpt lat="45.97331" lon="1.10623">
        <ele>319.6</ele>
        <time>2022-10-02T08:47:41Z</time>
      </trkpt>
      <trkpt lat="45.97329" lon="1.1063">
        <ele>319.8</ele>
        <time>2022-10-02T08:47:42Z</time>
      </trkpt>
      <trkpt lat="45.97327" lon="1.10636">
        <ele>319.9</ele>
        <time>2022-10-02T08:47:43Z</time>
      </trkpt>
      <trkpt lat="45.97324" lon="1.10644">
        <ele>320.2</ele>
        <time>2022-10-02T08:47:44Z</time>
      </trkpt>
      <trkpt lat="45.97323" lon="1.1065">
        <ele>320.3</ele>
        <time>2022-10-02T08:47:45Z</time>
      </trkpt>
      <trkpt lat="45.9732" lon="1.10655">
        <ele>320.5</ele>
        <time>2022-10-02T08:47:46Z</time>
      </trkpt>
      <trkpt lat="45.97316" lon="1.1066">
        <ele>320.7</ele>
        <time>2022-10-02T08:47:47Z</time>
      </trkpt>
      <trkpt lat="45.97313" lon="1.10666">
        <ele>321</ele>
        <time>2022-10-02T08:47:48Z</time>
      </trkpt>
      <trkpt lat="45.9731" lon="1.10674">
        <ele>321.3</ele>
        <time>2022-10-02T08:47:49Z</time>
      </trkpt>
      <trkpt lat="45.97307" lon="1.10679">
        <ele>321.6</ele>
        <time>2022-10-02T08:47:50Z</time>
      </trkpt>
      <trkpt lat="45.97305" lon="1.10686">
        <ele>321.9</ele>
        <time>2022-10-02T08:47:51Z</time>
      </trkpt>
      <trkpt lat="45.97303" lon="1.10692">
        <ele>322.1</ele>
        <time>2022-10-02T08:47:52Z</time>
      </trkpt>
      <trkpt lat="45.973" lon="1.107">
        <ele>322.4</ele>
        <time>2022-10-02T08:47:53Z</time>
      </trkpt>
      <trkpt lat="45.97298" lon="1.10705">
        <ele>322.6</ele>
        <time>2022-10-02T08:47:54Z</time>
      </trkpt>
      <trkpt lat="45.97298" lon="1.10712">
        <ele>322.8</ele>
        <time>2022-10-02T08:47:55Z</time>
      </trkpt>
      <trkpt lat="45.97297" lon="1.1072">
        <ele>323.1</ele>
        <time>2022-10-02T08:47:56Z</time>
      </trkpt>
      <trkpt lat="45.97296" lon="1.10729">
        <ele>323.3</ele>
        <time>2022-10-02T08:47:57Z</time>
      </trkpt>
      <trkpt lat="45.97295" lon="1.10738">
        <ele>323.5</ele>
        <time>2022-10-02T08:47:58Z</time>
      </trkpt>
      <trkpt lat="45.97294" lon="1.10746">
        <ele>323.6</ele>
        <time>2022-10-02T08:47:59Z</time>
      </trkpt>
      <trkpt lat="45.97294" lon="1.10754">
        <ele>323.7</ele>
        <time>2022-10-02T08:48:00Z</time>
      </trkpt>
      <trkpt lat="45.97295" lon="1.10762">
        <ele>323.8</ele>
        <time>2022-10-02T08:48:01Z</time>
      </trkpt>
      <trkpt lat="45.97295" lon="1.1077">
        <ele>323.9</ele>
        <time>2022-10-02T08:48:02Z</time>
      </trkpt>
      <trkpt lat="45.97295" lon="1.10776">
        <ele>323.9</ele>
        <time>2022-10-02T08:48:03Z</time>
      </trkpt>
      <trkpt lat="45.97295" lon="1.10783">
        <ele>324</ele>
        <time>2022-10-02T08:48:04Z</time>
      </trkpt>
      <trkpt lat="45.97297" lon="1.10789">
        <ele>324</ele>
        <time>2022-10-02T08:48:05Z</time>
      </trkpt>
      <trkpt lat="45.97297" lon="1.10797">
        <ele>324</ele>
        <time>2022-10-02T08:48:06Z</time>
      </trkpt>
      <trkpt lat="45.97299" lon="1.10802">
        <ele>324</ele>
        <time>2022-10-02T08:48:07Z</time>
      </trkpt>
      <trkpt lat="45.973" lon="1.10808">
        <ele>324.1</ele>
        <time>2022-10-02T08:48:08Z</time>
      </trkpt>
      <trkpt lat="45.97302" lon="1.10814">
        <ele>324.1</ele>
        <time>2022-10-02T08:48:09Z</time>
      </trkpt>
      <trkpt lat="45.97302" lon="1.10823">
        <ele>324.2</ele>
        <time>2022-10-02T08:48:10Z</time>
      </trkpt>
      <trkpt lat="45.973" lon="1.10829">
        <ele>324.3</ele>
        <time>2022-10-02T08:48:11Z</time>
      </trkpt>
      <trkpt lat="45.97297" lon="1.10833">
        <ele>324.3</ele>
        <time>2022-10-02T08:48:12Z</time>
      </trkpt>
      <trkpt lat="45.97293" lon="1.10835">
        <ele>324.3</ele>
        <time>2022-10-02T08:48:13Z</time>
      </trkpt>
      <trkpt lat="45.97291" lon="1.10837">
        <ele>324.2</ele>
        <time>2022-10-02T08:48:14Z</time>
      </trkpt>
      <trkpt lat="45.97287" lon="1.10839">
        <ele>324.2</ele>
        <time>2022-10-02T08:48:15Z</time>
      </trkpt>
      <trkpt lat="45.97281" lon="1.10839">
        <ele>324.3</ele>
        <time>2022-10-02T08:48:16Z</time>
      </trkpt>
      <trkpt lat="45.97277" lon="1.10837">
        <ele>324.3</ele>
        <time>2022-10-02T08:48:17Z</time>
      </trkpt>
      <trkpt lat="45.97272" lon="1.10838">
        <ele>324.3</ele>
        <time>2022-10-02T08:48:18Z</time>
      </trkpt>
      <trkpt lat="45.97268" lon="1.10837">
        <ele>324.4</ele>
        <time>2022-10-02T08:48:19Z</time>
      </trkpt>
      <trkpt lat="45.97262" lon="1.10843">
        <ele>324.4</ele>
        <time>2022-10-02T08:48:20Z</time>
      </trkpt>
      <trkpt lat="45.97258" lon="1.10844">
        <ele>324.5</ele>
        <time>2022-10-02T08:48:21Z</time>
      </trkpt>
      <trkpt lat="45.97252" lon="1.10845">
        <ele>324.6</ele>
        <time>2022-10-02T08:48:22Z</time>
      </trkpt>
      <trkpt lat="45.97247" lon="1.10845">
        <ele>324.6</ele>
        <time>2022-10-02T08:48:23Z</time>
      </trkpt>
      <trkpt lat="45.97243" lon="1.10847">
        <ele>324.7</ele>
        <time>2022-10-02T08:48:24Z</time>
      </trkpt>
      <trkpt lat="45.97238" lon="1.1085">
        <ele>324.8</ele>
        <time>2022-10-02T08:48:25Z</time>
      </trkpt>
      <trkpt lat="45.97233" lon="1.10853">
        <ele>324.9</ele>
        <time>2022-10-02T08:48:26Z</time>
      </trkpt>
      <trkpt lat="45.97228" lon="1.10856">
        <ele>325</ele>
        <time>2022-10-02T08:48:27Z</time>
      </trkpt>
      <trkpt lat="45.97223" lon="1.10859">
        <ele>325.1</ele>
        <time>2022-10-02T08:48:28Z</time>
      </trkpt>
      <trkpt lat="45.97217" lon="1.1086">
        <ele>325.2</ele>
        <time>2022-10-02T08:48:29Z</time>
      </trkpt>
      <trkpt lat="45.97212" lon="1.10864">
        <ele>325.3</ele>
        <time>2022-10-02T08:48:30Z</time>
      </trkpt>
      <trkpt lat="45.97208" lon="1.10865">
        <ele>325.4</ele>
        <time>2022-10-02T08:48:31Z</time>
      </trkpt>
      <trkpt lat="45.97203" lon="1.10867">
        <ele>325.5</ele>
        <time>2022-10-02T08:48:32Z</time>
      </trkpt>
      <trkpt lat="45.97198" lon="1.1087">
        <ele>325.6</ele>
        <time>2022-10-02T08:48:33Z</time>
      </trkpt>
      <trkpt lat="45.97192" lon="1.10873">
        <ele>325.8</ele>
        <time>2022-10-02T08:48:34Z</time>
      </trkpt>
      <trkpt lat="45.97187" lon="1.10877">
        <ele>325.9</ele>
        <time>2022-10-02T08:48:36Z</time>
      </trkpt>
      <trkpt lat="45.97183" lon="1.10879">
        <ele>326.1</ele>
        <time>2022-10-02T08:48:37Z</time>
      </trkpt>
      <trkpt lat="45.97178" lon="1.10882">
        <ele>326.3</ele>
        <time>2022-10-02T08:48:38Z</time>
      </trkpt>
      <trkpt lat="45.97174" lon="1.10884">
        <ele>326.4</ele>
        <time>2022-10-02T08:48:39Z</time>
      </trkpt>
      <trkpt lat="45.97169" lon="1.10886">
        <ele>326.6</ele>
        <time>2022-10-02T08:48:40Z</time>
      </trkpt>
      <trkpt lat="45.97166" lon="1.10887">
        <ele>326.8</ele>
        <time>2022-10-02T08:48:41Z</time>
      </trkpt>
      <trkpt lat="45.97161" lon="1.1089">
        <ele>327</ele>
        <time>2022-10-02T08:48:42Z</time>
      </trkpt>
      <trkpt lat="45.97156" lon="1.10893">
        <ele>327</ele>
        <time>2022-10-02T08:48:43Z</time>
      </trkpt>
      <trkpt lat="45.97152" lon="1.10895">
        <ele>327.1</ele>
        <time>2022-10-02T08:48:44Z</time>
      </trkpt>
      <trkpt lat="45.97148" lon="1.10898">
        <ele>327.1</ele>
        <time>2022-10-02T08:48:45Z</time>
      </trkpt>
      <trkpt lat="45.97143" lon="1.10901">
        <ele>327.1</ele>
        <time>2022-10-02T08:48:46Z</time>
      </trkpt>
      <trkpt lat="45.97139" lon="1.10903">
        <ele>327.1</ele>
        <time>2022-10-02T08:48:47Z</time>
      </trkpt>
      <trkpt lat="45.97135" lon="1.10904">
        <ele>327.1</ele>
        <time>2022-10-02T08:48:48Z</time>
      </trkpt>
      <trkpt lat="45.97131" lon="1.10908">
        <ele>327.1</ele>
        <time>2022-10-02T08:48:49Z</time>
      </trkpt>
      <trkpt lat="45.97128" lon="1.1091">
        <ele>327.1</ele>
        <time>2022-10-02T08:48:50Z</time>
      </trkpt>
      <trkpt lat="45.97124" lon="1.10908">
        <ele>327.1</ele>
        <time>2022-10-02T08:48:51Z</time>
      </trkpt>
      <trkpt lat="45.97121" lon="1.10908">
        <ele>327.1</ele>
        <time>2022-10-02T08:48:52Z</time>
      </trkpt>
      <trkpt lat="45.97118" lon="1.1091">
        <ele>327.1</ele>
        <time>2022-10-02T08:48:53Z</time>
      </trkpt>
      <trkpt lat="45.97114" lon="1.10913">
        <ele>327.2</ele>
        <time>2022-10-02T08:48:54Z</time>
      </trkpt>
      <trkpt lat="45.97111" lon="1.10917">
        <ele>327.2</ele>
        <time>2022-10-02T08:48:55Z</time>
      </trkpt>
      <trkpt lat="45.97107" lon="1.1092">
        <ele>327.3</ele>
        <time>2022-10-02T08:48:56Z</time>
      </trkpt>
      <trkpt lat="45.97101" lon="1.10925">
        <ele>327.4</ele>
        <time>2022-10-02T08:48:57Z</time>
      </trkpt>
      <trkpt lat="45.97096" lon="1.10931">
        <ele>327.5</ele>
        <time>2022-10-02T08:48:58Z</time>
      </trkpt>
      <trkpt lat="45.97091" lon="1.10933">
        <ele>327.5</ele>
        <time>2022-10-02T08:48:59Z</time>
      </trkpt>
      <trkpt lat="45.97086" lon="1.10937">
        <ele>327.6</ele>
        <time>2022-10-02T08:49:00Z</time>
      </trkpt>
      <trkpt lat="45.97081" lon="1.10941">
        <ele>327.7</ele>
        <time>2022-10-02T08:49:01Z</time>
      </trkpt>
      <trkpt lat="45.97078" lon="1.10946">
        <ele>327.8</ele>
        <time>2022-10-02T08:49:02Z</time>
      </trkpt>
      <trkpt lat="45.97075" lon="1.10951">
        <ele>327.8</ele>
        <time>2022-10-02T08:49:03Z</time>
      </trkpt>
      <trkpt lat="45.9707" lon="1.10956">
        <ele>327.9</ele>
        <time>2022-10-02T08:49:04Z</time>
      </trkpt>
      <trkpt lat="45.97067" lon="1.10966">
        <ele>327.9</ele>
        <time>2022-10-02T08:49:05Z</time>
      </trkpt>
      <trkpt lat="45.97063" lon="1.10972">
        <ele>327.9</ele>
        <time>2022-10-02T08:49:06Z</time>
      </trkpt>
      <trkpt lat="45.97057" lon="1.10977">
        <ele>327.8</ele>
        <time>2022-10-02T08:49:07Z</time>
      </trkpt>
      <trkpt lat="45.97052" lon="1.1098">
        <ele>327.8</ele>
        <time>2022-10-02T08:49:08Z</time>
      </trkpt>
      <trkpt lat="45.97046" lon="1.1098">
        <ele>327.7</ele>
        <time>2022-10-02T08:49:09Z</time>
      </trkpt>
      <trkpt lat="45.97041" lon="1.10978">
        <ele>327.6</ele>
        <time>2022-10-02T08:49:10Z</time>
      </trkpt>
      <trkpt lat="45.97034" lon="1.10977">
        <ele>327.5</ele>
        <time>2022-10-02T08:49:11Z</time>
      </trkpt>
      <trkpt lat="45.97028" lon="1.10976">
        <ele>327.4</ele>
        <time>2022-10-02T08:49:12Z</time>
      </trkpt>
      <trkpt lat="45.97022" lon="1.10981">
        <ele>327.4</ele>
        <time>2022-10-02T08:49:13Z</time>
      </trkpt>
      <trkpt lat="45.97015" lon="1.10979">
        <ele>327.3</ele>
        <time>2022-10-02T08:49:14Z</time>
      </trkpt>
      <trkpt lat="45.97008" lon="1.10979">
        <ele>327.2</ele>
        <time>2022-10-02T08:49:15Z</time>
      </trkpt>
      <trkpt lat="45.97004" lon="1.10974">
        <ele>327.2</ele>
        <time>2022-10-02T08:49:16Z</time>
      </trkpt>
      <trkpt lat="45.96999" lon="1.10975">
        <ele>327.2</ele>
        <time>2022-10-02T08:49:17Z</time>
      </trkpt>
      <trkpt lat="45.96993" lon="1.10976">
        <ele>327.2</ele>
        <time>2022-10-02T08:49:18Z</time>
      </trkpt>
      <trkpt lat="45.96987" lon="1.10973">
        <ele>327.1</ele>
        <time>2022-10-02T08:49:19Z</time>
      </trkpt>
      <trkpt lat="45.96981" lon="1.10974">
        <ele>327.1</ele>
        <time>2022-10-02T08:49:20Z</time>
      </trkpt>
      <trkpt lat="45.96977" lon="1.10972">
        <ele>327.1</ele>
        <time>2022-10-02T08:49:21Z</time>
      </trkpt>
      <trkpt lat="45.96972" lon="1.10972">
        <ele>327</ele>
        <time>2022-10-02T08:49:22Z</time>
      </trkpt>
      <trkpt lat="45.96967" lon="1.1097">
        <ele>326.9</ele>
        <time>2022-10-02T08:49:23Z</time>
      </trkpt>
      <trkpt lat="45.96962" lon="1.10973">
        <ele>326.8</ele>
        <time>2022-10-02T08:49:24Z</time>
      </trkpt>
      <trkpt lat="45.96959" lon="1.10973">
        <ele>326.7</ele>
        <time>2022-10-02T08:49:25Z</time>
      </trkpt>
      <trkpt lat="45.96954" lon="1.10972">
        <ele>326.5</ele>
        <time>2022-10-02T08:49:26Z</time>
      </trkpt>
      <trkpt lat="45.96949" lon="1.10972">
        <ele>326.3</ele>
        <time>2022-10-02T08:49:27Z</time>
      </trkpt>
      <trkpt lat="45.96944" lon="1.10969">
        <ele>326</ele>
        <time>2022-10-02T08:49:28Z</time>
      </trkpt>
      <trkpt lat="45.96939" lon="1.1097">
        <ele>325.6</ele>
        <time>2022-10-02T08:49:29Z</time>
      </trkpt>
      <trkpt lat="45.96933" lon="1.10967">
        <ele>325.2</ele>
        <time>2022-10-02T08:49:30Z</time>
      </trkpt>
      <trkpt lat="45.96926" lon="1.10964">
        <ele>324.7</ele>
        <time>2022-10-02T08:49:31Z</time>
      </trkpt>
      <trkpt lat="45.9692" lon="1.10962">
        <ele>324.2</ele>
        <time>2022-10-02T08:49:32Z</time>
      </trkpt>
      <trkpt lat="45.96913" lon="1.1096">
        <ele>323.6</ele>
        <time>2022-10-02T08:49:33Z</time>
      </trkpt>
      <trkpt lat="45.96907" lon="1.10957">
        <ele>322.9</ele>
        <time>2022-10-02T08:49:34Z</time>
      </trkpt>
      <trkpt lat="45.96901" lon="1.10951">
        <ele>322.2</ele>
        <time>2022-10-02T08:49:35Z</time>
      </trkpt>
      <trkpt lat="45.96894" lon="1.10945">
        <ele>321.4</ele>
        <time>2022-10-02T08:49:36Z</time>
      </trkpt>
      <trkpt lat="45.96886" lon="1.10938">
        <ele>320.5</ele>
        <time>2022-10-02T08:49:37Z</time>
      </trkpt>
      <trkpt lat="45.96878" lon="1.10933">
        <ele>319.6</ele>
        <time>2022-10-02T08:49:38Z</time>
      </trkpt>
      <trkpt lat="45.96871" lon="1.1093">
        <ele>318.8</ele>
        <time>2022-10-02T08:49:39Z</time>
      </trkpt>
      <trkpt lat="45.96862" lon="1.1093">
        <ele>317.8</ele>
        <time>2022-10-02T08:49:40Z</time>
      </trkpt>
      <trkpt lat="45.96856" lon="1.10927">
        <ele>317</ele>
        <time>2022-10-02T08:49:41Z</time>
      </trkpt>
      <trkpt lat="45.96848" lon="1.10928">
        <ele>316.3</ele>
        <time>2022-10-02T08:49:42Z</time>
      </trkpt>
      <trkpt lat="45.96839" lon="1.10929">
        <ele>315.7</ele>
        <time>2022-10-02T08:49:43Z</time>
      </trkpt>
      <trkpt lat="45.96829" lon="1.1093">
        <ele>315.2</ele>
        <time>2022-10-02T08:49:44Z</time>
      </trkpt>
      <trkpt lat="45.96819" lon="1.10931">
        <ele>314.9</ele>
        <time>2022-10-02T08:49:45Z</time>
      </trkpt>
      <trkpt lat="45.96811" lon="1.10932">
        <ele>314.6</ele>
        <time>2022-10-02T08:49:46Z</time>
      </trkpt>
      <trkpt lat="45.96802" lon="1.10931">
        <ele>314.3</ele>
        <time>2022-10-02T08:49:47Z</time>
      </trkpt>
      <trkpt lat="45.96794" lon="1.10934">
        <ele>314</ele>
        <time>2022-10-02T08:49:48Z</time>
      </trkpt>
      <trkpt lat="45.96787" lon="1.10935">
        <ele>313.7</ele>
        <time>2022-10-02T08:49:49Z</time>
      </trkpt>
      <trkpt lat="45.96779" lon="1.10935">
        <ele>313.3</ele>
        <time>2022-10-02T08:49:50Z</time>
      </trkpt>
      <trkpt lat="45.96772" lon="1.10936">
        <ele>313</ele>
        <time>2022-10-02T08:49:51Z</time>
      </trkpt>
      <trkpt lat="45.96763" lon="1.10938">
        <ele>312.6</ele>
        <time>2022-10-02T08:49:52Z</time>
      </trkpt>
      <trkpt lat="45.96755" lon="1.10938">
        <ele>312.4</ele>
        <time>2022-10-02T08:49:53Z</time>
      </trkpt>
      <trkpt lat="45.96747" lon="1.1094">
        <ele>312.2</ele>
        <time>2022-10-02T08:49:54Z</time>
      </trkpt>
      <trkpt lat="45.96739" lon="1.1094">
        <ele>312.1</ele>
        <time>2022-10-02T08:49:55Z</time>
      </trkpt>
      <trkpt lat="45.96732" lon="1.10941">
        <ele>312</ele>
        <time>2022-10-02T08:49:56Z</time>
      </trkpt>
      <trkpt lat="45.96725" lon="1.10942">
        <ele>312</ele>
        <time>2022-10-02T08:49:57Z</time>
      </trkpt>
      <trkpt lat="45.96718" lon="1.10944">
        <ele>312</ele>
        <time>2022-10-02T08:49:58Z</time>
      </trkpt>
      <trkpt lat="45.96713" lon="1.10945">
        <ele>311.9</ele>
        <time>2022-10-02T08:49:59Z</time>
      </trkpt>
      <trkpt lat="45.96709" lon="1.10948">
        <ele>311.9</ele>
        <time>2022-10-02T08:50:00Z</time>
      </trkpt>
      <trkpt lat="45.96703" lon="1.10954">
        <ele>311.9</ele>
        <time>2022-10-02T08:50:01Z</time>
      </trkpt>
      <trkpt lat="45.96702" lon="1.10961">
        <ele>311.8</ele>
        <time>2022-10-02T08:50:02Z</time>
      </trkpt>
      <trkpt lat="45.96699" lon="1.1097">
        <ele>311.6</ele>
        <time>2022-10-02T08:50:03Z</time>
      </trkpt>
      <trkpt lat="45.96696" lon="1.10979">
        <ele>311.4</ele>
        <time>2022-10-02T08:50:04Z</time>
      </trkpt>
      <trkpt lat="45.96692" lon="1.10985">
        <ele>311.3</ele>
        <time>2022-10-02T08:50:05Z</time>
      </trkpt>
      <trkpt lat="45.96686" lon="1.10988">
        <ele>311.1</ele>
        <time>2022-10-02T08:50:06Z</time>
      </trkpt>
      <trkpt lat="45.96681" lon="1.10991">
        <ele>311</ele>
        <time>2022-10-02T08:50:07Z</time>
      </trkpt>
      <trkpt lat="45.96676" lon="1.10996">
        <ele>310.9</ele>
        <time>2022-10-02T08:50:08Z</time>
      </trkpt>
      <trkpt lat="45.96671" lon="1.10996">
        <ele>310.8</ele>
        <time>2022-10-02T08:50:09Z</time>
      </trkpt>
      <trkpt lat="45.96666" lon="1.10997">
        <ele>310.8</ele>
        <time>2022-10-02T08:50:10Z</time>
      </trkpt>
      <trkpt lat="45.9666" lon="1.11003">
        <ele>310.8</ele>
        <time>2022-10-02T08:50:11Z</time>
      </trkpt>
      <trkpt lat="45.9665" lon="1.11002">
        <ele>310.9</ele>
        <time>2022-10-02T08:50:12Z</time>
      </trkpt>
      <trkpt lat="45.96648" lon="1.11009">
        <ele>310.9</ele>
        <time>2022-10-02T08:50:13Z</time>
      </trkpt>
      <trkpt lat="45.96644" lon="1.11014">
        <ele>311</ele>
        <time>2022-10-02T08:50:14Z</time>
      </trkpt>
      <trkpt lat="45.96643" lon="1.11021">
        <ele>311.1</ele>
        <time>2022-10-02T08:50:15Z</time>
      </trkpt>
      <trkpt lat="45.96644" lon="1.11029">
        <ele>311.2</ele>
        <time>2022-10-02T08:50:16Z</time>
      </trkpt>
      <trkpt lat="45.9664" lon="1.11037">
        <ele>311.5</ele>
        <time>2022-10-02T08:50:17Z</time>
      </trkpt>
      <trkpt lat="45.96636" lon="1.11041">
        <ele>311.6</ele>
        <time>2022-10-02T08:50:18Z</time>
      </trkpt>
      <trkpt lat="45.96632" lon="1.11044">
        <ele>311.9</ele>
        <time>2022-10-02T08:50:19Z</time>
      </trkpt>
      <trkpt lat="45.96628" lon="1.11045">
        <ele>312.1</ele>
        <time>2022-10-02T08:50:20Z</time>
      </trkpt>
      <trkpt lat="45.96623" lon="1.1105">
        <ele>312.5</ele>
        <time>2022-10-02T08:50:21Z</time>
      </trkpt>
      <trkpt lat="45.9662" lon="1.11051">
        <ele>312.7</ele>
        <time>2022-10-02T08:50:22Z</time>
      </trkpt>
      <trkpt lat="45.96616" lon="1.11053">
        <ele>313</ele>
        <time>2022-10-02T08:50:23Z</time>
      </trkpt>
      <trkpt lat="45.96613" lon="1.11055">
        <ele>313.2</ele>
        <time>2022-10-02T08:50:24Z</time>
      </trkpt>
      <trkpt lat="45.96606" lon="1.11059">
        <ele>313.8</ele>
        <time>2022-10-02T08:50:25Z</time>
      </trkpt>
      <trkpt lat="45.96602" lon="1.11062">
        <ele>314.1</ele>
        <time>2022-10-02T08:50:26Z</time>
      </trkpt>
      <trkpt lat="45.96598" lon="1.11064">
        <ele>314.4</ele>
        <time>2022-10-02T08:50:27Z</time>
      </trkpt>
      <trkpt lat="45.96594" lon="1.11067">
        <ele>314.7</ele>
        <time>2022-10-02T08:50:28Z</time>
      </trkpt>
      <trkpt lat="45.96592" lon="1.11072">
        <ele>315</ele>
        <time>2022-10-02T08:50:29Z</time>
      </trkpt>
      <trkpt lat="45.9659" lon="1.11078">
        <ele>315.2</ele>
        <time>2022-10-02T08:50:30Z</time>
      </trkpt>
      <trkpt lat="45.96587" lon="1.11081">
        <ele>315.4</ele>
        <time>2022-10-02T08:50:31Z</time>
      </trkpt>
      <trkpt lat="45.96584" lon="1.11085">
        <ele>315.6</ele>
        <time>2022-10-02T08:50:32Z</time>
      </trkpt>
      <trkpt lat="45.96581" lon="1.11089">
        <ele>315.8</ele>
        <time>2022-10-02T08:50:33Z</time>
      </trkpt>
      <trkpt lat="45.96578" lon="1.11092">
        <ele>316</ele>
        <time>2022-10-02T08:50:34Z</time>
      </trkpt>
      <trkpt lat="45.96576" lon="1.11096">
        <ele>316.1</ele>
        <time>2022-10-02T08:50:35Z</time>
      </trkpt>
      <trkpt lat="45.96575" lon="1.11103">
        <ele>316.3</ele>
        <time>2022-10-02T08:50:36Z</time>
      </trkpt>
      <trkpt lat="45.96574" lon="1.11107">
        <ele>316.5</ele>
        <time>2022-10-02T08:50:37Z</time>
      </trkpt>
      <trkpt lat="45.96573" lon="1.11112">
        <ele>316.6</ele>
        <time>2022-10-02T08:50:38Z</time>
      </trkpt>
      <trkpt lat="45.96571" lon="1.11118">
        <ele>316.8</ele>
        <time>2022-10-02T08:50:39Z</time>
      </trkpt>
      <trkpt lat="45.96569" lon="1.11122">
        <ele>316.9</ele>
        <time>2022-10-02T08:50:40Z</time>
      </trkpt>
      <trkpt lat="45.96566" lon="1.11126">
        <ele>317.1</ele>
        <time>2022-10-02T08:50:41Z</time>
      </trkpt>
      <trkpt lat="45.96565" lon="1.11131">
        <ele>317.1</ele>
        <time>2022-10-02T08:50:42Z</time>
      </trkpt>
      <trkpt lat="45.96564" lon="1.11136">
        <ele>317.2</ele>
        <time>2022-10-02T08:50:43Z</time>
      </trkpt>
      <trkpt lat="45.96562" lon="1.11141">
        <ele>317.2</ele>
        <time>2022-10-02T08:50:44Z</time>
      </trkpt>
      <trkpt lat="45.9656" lon="1.11147">
        <ele>317.3</ele>
        <time>2022-10-02T08:50:45Z</time>
      </trkpt>
      <trkpt lat="45.96558" lon="1.11152">
        <ele>317.3</ele>
        <time>2022-10-02T08:50:46Z</time>
      </trkpt>
      <trkpt lat="45.96555" lon="1.11157">
        <ele>317.3</ele>
        <time>2022-10-02T08:50:47Z</time>
      </trkpt>
      <trkpt lat="45.96554" lon="1.11161">
        <ele>317.3</ele>
        <time>2022-10-02T08:50:48Z</time>
      </trkpt>
      <trkpt lat="45.96552" lon="1.11166">
        <ele>317.4</ele>
        <time>2022-10-02T08:50:49Z</time>
      </trkpt>
      <trkpt lat="45.9655" lon="1.1117">
        <ele>317.4</ele>
        <time>2022-10-02T08:50:50Z</time>
      </trkpt>
      <trkpt lat="45.96548" lon="1.11175">
        <ele>317.4</ele>
        <time>2022-10-02T08:50:51Z</time>
      </trkpt>
      <trkpt lat="45.96546" lon="1.1118">
        <ele>317.4</ele>
        <time>2022-10-02T08:50:52Z</time>
      </trkpt>
      <trkpt lat="45.96542" lon="1.11187">
        <ele>317.5</ele>
        <time>2022-10-02T08:50:53Z</time>
      </trkpt>
      <trkpt lat="45.96539" lon="1.11191">
        <ele>317.5</ele>
        <time>2022-10-02T08:50:54Z</time>
      </trkpt>
      <trkpt lat="45.96538" lon="1.11197">
        <ele>317.5</ele>
        <time>2022-10-02T08:50:55Z</time>
      </trkpt>
      <trkpt lat="45.96537" lon="1.11203">
        <ele>317.6</ele>
        <time>2022-10-02T08:50:56Z</time>
      </trkpt>
      <trkpt lat="45.96534" lon="1.11206">
        <ele>317.6</ele>
        <time>2022-10-02T08:50:57Z</time>
      </trkpt>
      <trkpt lat="45.96531" lon="1.11212">
        <ele>317.6</ele>
        <time>2022-10-02T08:50:58Z</time>
      </trkpt>
      <trkpt lat="45.96529" lon="1.11219">
        <ele>317.6</ele>
        <time>2022-10-02T08:50:59Z</time>
      </trkpt>
      <trkpt lat="45.96526" lon="1.11223">
        <ele>317.6</ele>
        <time>2022-10-02T08:51:00Z</time>
      </trkpt>
      <trkpt lat="45.96524" lon="1.11228">
        <ele>317.5</ele>
        <time>2022-10-02T08:51:01Z</time>
      </trkpt>
      <trkpt lat="45.96521" lon="1.11234">
        <ele>317.4</ele>
        <time>2022-10-02T08:51:02Z</time>
      </trkpt>
      <trkpt lat="45.96518" lon="1.11238">
        <ele>317.3</ele>
        <time>2022-10-02T08:51:03Z</time>
      </trkpt>
      <trkpt lat="45.96516" lon="1.11244">
        <ele>317.1</ele>
        <time>2022-10-02T08:51:04Z</time>
      </trkpt>
      <trkpt lat="45.96512" lon="1.11251">
        <ele>316.9</ele>
        <time>2022-10-02T08:51:05Z</time>
      </trkpt>
      <trkpt lat="45.96507" lon="1.11257">
        <ele>316.6</ele>
        <time>2022-10-02T08:51:06Z</time>
      </trkpt>
      <trkpt lat="45.96502" lon="1.11264">
        <ele>316.3</ele>
        <time>2022-10-02T08:51:07Z</time>
      </trkpt>
      <trkpt lat="45.96498" lon="1.11272">
        <ele>316</ele>
        <time>2022-10-02T08:51:08Z</time>
      </trkpt>
      <trkpt lat="45.96493" lon="1.11279">
        <ele>315.8</ele>
        <time>2022-10-02T08:51:09Z</time>
      </trkpt>
      <trkpt lat="45.96489" lon="1.11286">
        <ele>315.5</ele>
        <time>2022-10-02T08:51:10Z</time>
      </trkpt>
      <trkpt lat="45.96485" lon="1.11293">
        <ele>315.3</ele>
        <time>2022-10-02T08:51:11Z</time>
      </trkpt>
      <trkpt lat="45.9648" lon="1.113">
        <ele>315.1</ele>
        <time>2022-10-02T08:51:12Z</time>
      </trkpt>
      <trkpt lat="45.96476" lon="1.11306">
        <ele>315</ele>
        <time>2022-10-02T08:51:13Z</time>
      </trkpt>
      <trkpt lat="45.96471" lon="1.11313">
        <ele>314.8</ele>
        <time>2022-10-02T08:51:14Z</time>
      </trkpt>
      <trkpt lat="45.96466" lon="1.11319">
        <ele>314.8</ele>
        <time>2022-10-02T08:51:15Z</time>
      </trkpt>
      <trkpt lat="45.96461" lon="1.11324">
        <ele>314.7</ele>
        <time>2022-10-02T08:51:16Z</time>
      </trkpt>
      <trkpt lat="45.96454" lon="1.11331">
        <ele>314.8</ele>
        <time>2022-10-02T08:51:17Z</time>
      </trkpt>
      <trkpt lat="45.96448" lon="1.11337">
        <ele>314.9</ele>
        <time>2022-10-02T08:51:18Z</time>
      </trkpt>
      <trkpt lat="45.96443" lon="1.11343">
        <ele>315.1</ele>
        <time>2022-10-02T08:51:19Z</time>
      </trkpt>
      <trkpt lat="45.96438" lon="1.11348">
        <ele>315.3</ele>
        <time>2022-10-02T08:51:20Z</time>
      </trkpt>
      <trkpt lat="45.96434" lon="1.11352">
        <ele>315.5</ele>
        <time>2022-10-02T08:51:21Z</time>
      </trkpt>
      <trkpt lat="45.96429" lon="1.11356">
        <ele>315.8</ele>
        <time>2022-10-02T08:51:22Z</time>
      </trkpt>
      <trkpt lat="45.96424" lon="1.11361">
        <ele>316.1</ele>
        <time>2022-10-02T08:51:23Z</time>
      </trkpt>
      <trkpt lat="45.96421" lon="1.11367">
        <ele>316.5</ele>
        <time>2022-10-02T08:51:24Z</time>
      </trkpt>
      <trkpt lat="45.96417" lon="1.11371">
        <ele>316.7</ele>
        <time>2022-10-02T08:51:25Z</time>
      </trkpt>
      <trkpt lat="45.96414" lon="1.11377">
        <ele>317.1</ele>
        <time>2022-10-02T08:51:26Z</time>
      </trkpt>
      <trkpt lat="45.96411" lon="1.11383">
        <ele>317.4</ele>
        <time>2022-10-02T08:51:27Z</time>
      </trkpt>
      <trkpt lat="45.96408" lon="1.11391">
        <ele>317.8</ele>
        <time>2022-10-02T08:51:28Z</time>
      </trkpt>
      <trkpt lat="45.96402" lon="1.11394">
        <ele>318.2</ele>
        <time>2022-10-02T08:51:29Z</time>
      </trkpt>
      <trkpt lat="45.96399" lon="1.11401">
        <ele>318.5</ele>
        <time>2022-10-02T08:51:30Z</time>
      </trkpt>
      <trkpt lat="45.96394" lon="1.11407">
        <ele>318.9</ele>
        <time>2022-10-02T08:51:31Z</time>
      </trkpt>
      <trkpt lat="45.96391" lon="1.11417">
        <ele>319.3</ele>
        <time>2022-10-02T08:51:32Z</time>
      </trkpt>
      <trkpt lat="45.96387" lon="1.11424">
        <ele>319.7</ele>
        <time>2022-10-02T08:51:33Z</time>
      </trkpt>
      <trkpt lat="45.96386" lon="1.11431">
        <ele>319.9</ele>
        <time>2022-10-02T08:51:34Z</time>
      </trkpt>
      <trkpt lat="45.96384" lon="1.11437">
        <ele>320.1</ele>
        <time>2022-10-02T08:51:35Z</time>
      </trkpt>
      <trkpt lat="45.96384" lon="1.11445">
        <ele>320.3</ele>
        <time>2022-10-02T08:51:36Z</time>
      </trkpt>
      <trkpt lat="45.96383" lon="1.11453">
        <ele>320.4</ele>
        <time>2022-10-02T08:51:37Z</time>
      </trkpt>
      <trkpt lat="45.96383" lon="1.11461">
        <ele>320.6</ele>
        <time>2022-10-02T08:51:38Z</time>
      </trkpt>
      <trkpt lat="45.96383" lon="1.11467">
        <ele>320.6</ele>
        <time>2022-10-02T08:51:39Z</time>
      </trkpt>
      <trkpt lat="45.96382" lon="1.11474">
        <ele>320.6</ele>
        <time>2022-10-02T08:51:40Z</time>
      </trkpt>
      <trkpt lat="45.96383" lon="1.11482">
        <ele>320.5</ele>
        <time>2022-10-02T08:51:41Z</time>
      </trkpt>
      <trkpt lat="45.96382" lon="1.11489">
        <ele>320.4</ele>
        <time>2022-10-02T08:51:42Z</time>
      </trkpt>
      <trkpt lat="45.96383" lon="1.11495">
        <ele>320.3</ele>
        <time>2022-10-02T08:51:43Z</time>
      </trkpt>
      <trkpt lat="45.96383" lon="1.11504">
        <ele>320.1</ele>
        <time>2022-10-02T08:51:44Z</time>
      </trkpt>
      <trkpt lat="45.96383" lon="1.11511">
        <ele>319.8</ele>
        <time>2022-10-02T08:51:45Z</time>
      </trkpt>
      <trkpt lat="45.96383" lon="1.11519">
        <ele>319.6</ele>
        <time>2022-10-02T08:51:46Z</time>
      </trkpt>
      <trkpt lat="45.96384" lon="1.11529">
        <ele>319.3</ele>
        <time>2022-10-02T08:51:47Z</time>
      </trkpt>
      <trkpt lat="45.96384" lon="1.11539">
        <ele>319</ele>
        <time>2022-10-02T08:51:48Z</time>
      </trkpt>
      <trkpt lat="45.96385" lon="1.11547">
        <ele>318.8</ele>
        <time>2022-10-02T08:51:49Z</time>
      </trkpt>
      <trkpt lat="45.96384" lon="1.11556">
        <ele>318.6</ele>
        <time>2022-10-02T08:51:50Z</time>
      </trkpt>
      <trkpt lat="45.96384" lon="1.11567">
        <ele>318.3</ele>
        <time>2022-10-02T08:51:51Z</time>
      </trkpt>
      <trkpt lat="45.96383" lon="1.11576">
        <ele>318.2</ele>
        <time>2022-10-02T08:51:52Z</time>
      </trkpt>
      <trkpt lat="45.96382" lon="1.11586">
        <ele>318</ele>
        <time>2022-10-02T08:51:53Z</time>
      </trkpt>
      <trkpt lat="45.96381" lon="1.11594">
        <ele>318</ele>
        <time>2022-10-02T08:51:54Z</time>
      </trkpt>
      <trkpt lat="45.96382" lon="1.11603">
        <ele>317.9</ele>
        <time>2022-10-02T08:51:55Z</time>
      </trkpt>
      <trkpt lat="45.96379" lon="1.1161">
        <ele>317.9</ele>
        <time>2022-10-02T08:51:56Z</time>
      </trkpt>
      <trkpt lat="45.96377" lon="1.11619">
        <ele>318</ele>
        <time>2022-10-02T08:51:57Z</time>
      </trkpt>
      <trkpt lat="45.96379" lon="1.11626">
        <ele>318</ele>
        <time>2022-10-02T08:51:58Z</time>
      </trkpt>
      <trkpt lat="45.96381" lon="1.11634">
        <ele>318.1</ele>
        <time>2022-10-02T08:51:59Z</time>
      </trkpt>
      <trkpt lat="45.96382" lon="1.11642">
        <ele>318.3</ele>
        <time>2022-10-02T08:52:00Z</time>
      </trkpt>
      <trkpt lat="45.96384" lon="1.11652">
        <ele>318.6</ele>
        <time>2022-10-02T08:52:01Z</time>
      </trkpt>
      <trkpt lat="45.96382" lon="1.11658">
        <ele>318.7</ele>
        <time>2022-10-02T08:52:02Z</time>
      </trkpt>
      <trkpt lat="45.96381" lon="1.11664">
        <ele>318.9</ele>
        <time>2022-10-02T08:52:03Z</time>
      </trkpt>
      <trkpt lat="45.96382" lon="1.1167">
        <ele>319.1</ele>
        <time>2022-10-02T08:52:04Z</time>
      </trkpt>
      <trkpt lat="45.96382" lon="1.11676">
        <ele>319.3</ele>
        <time>2022-10-02T08:52:05Z</time>
      </trkpt>
      <trkpt lat="45.96383" lon="1.11684">
        <ele>319.6</ele>
        <time>2022-10-02T08:52:06Z</time>
      </trkpt>
      <trkpt lat="45.96385" lon="1.11692">
        <ele>319.9</ele>
        <time>2022-10-02T08:52:07Z</time>
      </trkpt>
      <trkpt lat="45.96388" lon="1.117">
        <ele>320.3</ele>
        <time>2022-10-02T08:52:08Z</time>
      </trkpt>
      <trkpt lat="45.96394" lon="1.11708">
        <ele>320.9</ele>
        <time>2022-10-02T08:52:09Z</time>
      </trkpt>
      <trkpt lat="45.96395" lon="1.11714">
        <ele>321.2</ele>
        <time>2022-10-02T08:52:10Z</time>
      </trkpt>
      <trkpt lat="45.96396" lon="1.11722">
        <ele>321.6</ele>
        <time>2022-10-02T08:52:11Z</time>
      </trkpt>
      <trkpt lat="45.96396" lon="1.1173">
        <ele>321.9</ele>
        <time>2022-10-02T08:52:12Z</time>
      </trkpt>
      <trkpt lat="45.96397" lon="1.11738">
        <ele>322.3</ele>
        <time>2022-10-02T08:52:13Z</time>
      </trkpt>
      <trkpt lat="45.96396" lon="1.11746">
        <ele>322.7</ele>
        <time>2022-10-02T08:52:14Z</time>
      </trkpt>
      <trkpt lat="45.96396" lon="1.11752">
        <ele>322.9</ele>
        <time>2022-10-02T08:52:15Z</time>
      </trkpt>
      <trkpt lat="45.96397" lon="1.11759">
        <ele>323.2</ele>
        <time>2022-10-02T08:52:16Z</time>
      </trkpt>
      <trkpt lat="45.96398" lon="1.11767">
        <ele>323.5</ele>
        <time>2022-10-02T08:52:17Z</time>
      </trkpt>
      <trkpt lat="45.96398" lon="1.11775">
        <ele>323.7</ele>
        <time>2022-10-02T08:52:18Z</time>
      </trkpt>
      <trkpt lat="45.96399" lon="1.11782">
        <ele>323.8</ele>
        <time>2022-10-02T08:52:19Z</time>
      </trkpt>
      <trkpt lat="45.964" lon="1.1179">
        <ele>323.7</ele>
        <time>2022-10-02T08:52:20Z</time>
      </trkpt>
      <trkpt lat="45.96402" lon="1.11797">
        <ele>323.6</ele>
        <time>2022-10-02T08:52:21Z</time>
      </trkpt>
      <trkpt lat="45.96401" lon="1.11806">
        <ele>323.3</ele>
        <time>2022-10-02T08:52:22Z</time>
      </trkpt>
      <trkpt lat="45.96397" lon="1.11813">
        <ele>322.5</ele>
        <time>2022-10-02T08:52:23Z</time>
      </trkpt>
      <trkpt lat="45.96393" lon="1.11818">
        <ele>322.5</ele>
        <time>2022-10-02T08:52:24Z</time>
      </trkpt>
      <trkpt lat="45.96393" lon="1.11824">
        <ele>322.4</ele>
        <time>2022-10-02T08:52:25Z</time>
      </trkpt>
      <trkpt lat="45.96389" lon="1.11828">
        <ele>322.4</ele>
        <time>2022-10-02T08:52:26Z</time>
      </trkpt>
      <trkpt lat="45.96386" lon="1.11835">
        <ele>322</ele>
        <time>2022-10-02T08:52:27Z</time>
      </trkpt>
      <trkpt lat="45.96386" lon="1.11842">
        <ele>321.7</ele>
        <time>2022-10-02T08:52:28Z</time>
      </trkpt>
      <trkpt lat="45.96387" lon="1.11852">
        <ele>321.2</ele>
        <time>2022-10-02T08:52:29Z</time>
      </trkpt>
      <trkpt lat="45.96388" lon="1.11861">
        <ele>320.7</ele>
        <time>2022-10-02T08:52:30Z</time>
      </trkpt>
      <trkpt lat="45.96391" lon="1.1187">
        <ele>320.1</ele>
        <time>2022-10-02T08:52:31Z</time>
      </trkpt>
      <trkpt lat="45.96392" lon="1.1188">
        <ele>319.5</ele>
        <time>2022-10-02T08:52:32Z</time>
      </trkpt>
      <trkpt lat="45.96395" lon="1.1189">
        <ele>318.9</ele>
        <time>2022-10-02T08:52:33Z</time>
      </trkpt>
      <trkpt lat="45.96396" lon="1.11901">
        <ele>318.4</ele>
        <time>2022-10-02T08:52:34Z</time>
      </trkpt>
      <trkpt lat="45.96397" lon="1.11911">
        <ele>317.9</ele>
        <time>2022-10-02T08:52:35Z</time>
      </trkpt>
      <trkpt lat="45.964" lon="1.11922">
        <ele>317.3</ele>
        <time>2022-10-02T08:52:36Z</time>
      </trkpt>
      <trkpt lat="45.96401" lon="1.11933">
        <ele>316.8</ele>
        <time>2022-10-02T08:52:37Z</time>
      </trkpt>
      <trkpt lat="45.96403" lon="1.11944">
        <ele>316.3</ele>
        <time>2022-10-02T08:52:38Z</time>
      </trkpt>
      <trkpt lat="45.96405" lon="1.11956">
        <ele>315.8</ele>
        <time>2022-10-02T08:52:39Z</time>
      </trkpt>
      <trkpt lat="45.96408" lon="1.11967">
        <ele>315.3</ele>
        <time>2022-10-02T08:52:40Z</time>
      </trkpt>
      <trkpt lat="45.96411" lon="1.1198">
        <ele>314.8</ele>
        <time>2022-10-02T08:52:41Z</time>
      </trkpt>
      <trkpt lat="45.96414" lon="1.11991">
        <ele>314.5</ele>
        <time>2022-10-02T08:52:42Z</time>
      </trkpt>
      <trkpt lat="45.96417" lon="1.12001">
        <ele>314.2</ele>
        <time>2022-10-02T08:52:43Z</time>
      </trkpt>
      <trkpt lat="45.9642" lon="1.12012">
        <ele>313.9</ele>
        <time>2022-10-02T08:52:44Z</time>
      </trkpt>
      <trkpt lat="45.96426" lon="1.12024">
        <ele>313.5</ele>
        <time>2022-10-02T08:52:45Z</time>
      </trkpt>
      <trkpt lat="45.96429" lon="1.12033">
        <ele>313.2</ele>
        <time>2022-10-02T08:52:46Z</time>
      </trkpt>
      <trkpt lat="45.96431" lon="1.12043">
        <ele>313</ele>
        <time>2022-10-02T08:52:47Z</time>
      </trkpt>
      <trkpt lat="45.96433" lon="1.12054">
        <ele>312.7</ele>
        <time>2022-10-02T08:52:48Z</time>
      </trkpt>
      <trkpt lat="45.96436" lon="1.12063">
        <ele>312.4</ele>
        <time>2022-10-02T08:52:49Z</time>
      </trkpt>
      <trkpt lat="45.96438" lon="1.12074">
        <ele>312</ele>
        <time>2022-10-02T08:52:50Z</time>
      </trkpt>
      <trkpt lat="45.96441" lon="1.12085">
        <ele>311.6</ele>
        <time>2022-10-02T08:52:51Z</time>
      </trkpt>
      <trkpt lat="45.96446" lon="1.12095">
        <ele>311.2</ele>
        <time>2022-10-02T08:52:52Z</time>
      </trkpt>
      <trkpt lat="45.96448" lon="1.12106">
        <ele>310.9</ele>
        <time>2022-10-02T08:52:53Z</time>
      </trkpt>
      <trkpt lat="45.96448" lon="1.12118">
        <ele>310.5</ele>
        <time>2022-10-02T08:52:54Z</time>
      </trkpt>
      <trkpt lat="45.96452" lon="1.12128">
        <ele>310.2</ele>
        <time>2022-10-02T08:52:55Z</time>
      </trkpt>
      <trkpt lat="45.96456" lon="1.12138">
        <ele>309.9</ele>
        <time>2022-10-02T08:52:56Z</time>
      </trkpt>
      <trkpt lat="45.96461" lon="1.12147">
        <ele>309.8</ele>
        <time>2022-10-02T08:52:57Z</time>
      </trkpt>
      <trkpt lat="45.96464" lon="1.12157">
        <ele>309.6</ele>
        <time>2022-10-02T08:52:58Z</time>
      </trkpt>
      <trkpt lat="45.96468" lon="1.12167">
        <ele>309.6</ele>
        <time>2022-10-02T08:52:59Z</time>
      </trkpt>
      <trkpt lat="45.96471" lon="1.12178">
        <ele>309.5</ele>
        <time>2022-10-02T08:53:00Z</time>
      </trkpt>
      <trkpt lat="45.96475" lon="1.12187">
        <ele>309.5</ele>
        <time>2022-10-02T08:53:01Z</time>
      </trkpt>
      <trkpt lat="45.96478" lon="1.12194">
        <ele>309.5</ele>
        <time>2022-10-02T08:53:02Z</time>
      </trkpt>
      <trkpt lat="45.96486" lon="1.12199">
        <ele>309.5</ele>
        <time>2022-10-02T08:53:03Z</time>
      </trkpt>
      <trkpt lat="45.96487" lon="1.12207">
        <ele>309.6</ele>
        <time>2022-10-02T08:53:04Z</time>
      </trkpt>
      <trkpt lat="45.96489" lon="1.12214">
        <ele>309.6</ele>
        <time>2022-10-02T08:53:05Z</time>
      </trkpt>
      <trkpt lat="45.96494" lon="1.12219">
        <ele>309.7</ele>
        <time>2022-10-02T08:53:06Z</time>
      </trkpt>
      <trkpt lat="45.96498" lon="1.12226">
        <ele>309.9</ele>
        <time>2022-10-02T08:53:07Z</time>
      </trkpt>
      <trkpt lat="45.96502" lon="1.12233">
        <ele>310</ele>
        <time>2022-10-02T08:53:08Z</time>
      </trkpt>
      <trkpt lat="45.96505" lon="1.12239">
        <ele>310.1</ele>
        <time>2022-10-02T08:53:09Z</time>
      </trkpt>
      <trkpt lat="45.96508" lon="1.12245">
        <ele>310.2</ele>
        <time>2022-10-02T08:53:10Z</time>
      </trkpt>
      <trkpt lat="45.96512" lon="1.12253">
        <ele>310.5</ele>
        <time>2022-10-02T08:53:11Z</time>
      </trkpt>
      <trkpt lat="45.96516" lon="1.12261">
        <ele>310.7</ele>
        <time>2022-10-02T08:53:12Z</time>
      </trkpt>
      <trkpt lat="45.96518" lon="1.12268">
        <ele>311</ele>
        <time>2022-10-02T08:53:13Z</time>
      </trkpt>
      <trkpt lat="45.96518" lon="1.12275">
        <ele>311.2</ele>
        <time>2022-10-02T08:53:14Z</time>
      </trkpt>
      <trkpt lat="45.96519" lon="1.12283">
        <ele>311.5</ele>
        <time>2022-10-02T08:53:15Z</time>
      </trkpt>
      <trkpt lat="45.9652" lon="1.12289">
        <ele>311.7</ele>
        <time>2022-10-02T08:53:16Z</time>
      </trkpt>
      <trkpt lat="45.96524" lon="1.12296">
        <ele>312</ele>
        <time>2022-10-02T08:53:17Z</time>
      </trkpt>
      <trkpt lat="45.96525" lon="1.12303">
        <ele>312.2</ele>
        <time>2022-10-02T08:53:18Z</time>
      </trkpt>
      <trkpt lat="45.96527" lon="1.12311">
        <ele>312.4</ele>
        <time>2022-10-02T08:53:19Z</time>
      </trkpt>
      <trkpt lat="45.96529" lon="1.12318">
        <ele>312.6</ele>
        <time>2022-10-02T08:53:20Z</time>
      </trkpt>
      <trkpt lat="45.96529" lon="1.12324">
        <ele>312.8</ele>
        <time>2022-10-02T08:53:21Z</time>
      </trkpt>
      <trkpt lat="45.96531" lon="1.12332">
        <ele>313.1</ele>
        <time>2022-10-02T08:53:22Z</time>
      </trkpt>
      <trkpt lat="45.96531" lon="1.12339">
        <ele>313.3</ele>
        <time>2022-10-02T08:53:23Z</time>
      </trkpt>
      <trkpt lat="45.96534" lon="1.12347">
        <ele>313.6</ele>
        <time>2022-10-02T08:53:24Z</time>
      </trkpt>
      <trkpt lat="45.96535" lon="1.12355">
        <ele>313.8</ele>
        <time>2022-10-02T08:53:25Z</time>
      </trkpt>
      <trkpt lat="45.96537" lon="1.12362">
        <ele>314.1</ele>
        <time>2022-10-02T08:53:26Z</time>
      </trkpt>
      <trkpt lat="45.96538" lon="1.12369">
        <ele>314.3</ele>
        <time>2022-10-02T08:53:27Z</time>
      </trkpt>
      <trkpt lat="45.96539" lon="1.12376">
        <ele>314.6</ele>
        <time>2022-10-02T08:53:28Z</time>
      </trkpt>
      <trkpt lat="45.9654" lon="1.12382">
        <ele>314.8</ele>
        <time>2022-10-02T08:53:29Z</time>
      </trkpt>
      <trkpt lat="45.9654" lon="1.12387">
        <ele>315</ele>
        <time>2022-10-02T08:53:30Z</time>
      </trkpt>
      <trkpt lat="45.96541" lon="1.12391">
        <ele>315.2</ele>
        <time>2022-10-02T08:53:31Z</time>
      </trkpt>
      <trkpt lat="45.96542" lon="1.12395">
        <ele>315.4</ele>
        <time>2022-10-02T08:53:32Z</time>
      </trkpt>
      <trkpt lat="45.96546" lon="1.12398">
        <ele>316.1</ele>
        <time>2022-10-02T08:53:33Z</time>
      </trkpt>
      <trkpt lat="45.96549" lon="1.12398">
        <ele>316.2</ele>
        <time>2022-10-02T08:53:34Z</time>
      </trkpt>
      <trkpt lat="45.96553" lon="1.12396">
        <ele>316.4</ele>
        <time>2022-10-02T08:53:35Z</time>
      </trkpt>
      <trkpt lat="45.96556" lon="1.12394">
        <ele>316.5</ele>
        <time>2022-10-02T08:53:36Z</time>
      </trkpt>
      <trkpt lat="45.96561" lon="1.12394">
        <ele>316.6</ele>
        <time>2022-10-02T08:53:37Z</time>
      </trkpt>
      <trkpt lat="45.96567" lon="1.12392">
        <ele>316.7</ele>
        <time>2022-10-02T08:53:38Z</time>
      </trkpt>
      <trkpt lat="45.96572" lon="1.1239">
        <ele>316.9</ele>
        <time>2022-10-02T08:53:39Z</time>
      </trkpt>
      <trkpt lat="45.96578" lon="1.12388">
        <ele>317</ele>
        <time>2022-10-02T08:53:40Z</time>
      </trkpt>
      <trkpt lat="45.96584" lon="1.12386">
        <ele>317.1</ele>
        <time>2022-10-02T08:53:41Z</time>
      </trkpt>
      <trkpt lat="45.96591" lon="1.12384">
        <ele>317.1</ele>
        <time>2022-10-02T08:53:42Z</time>
      </trkpt>
      <trkpt lat="45.96597" lon="1.12381">
        <ele>317.2</ele>
        <time>2022-10-02T08:53:43Z</time>
      </trkpt>
      <trkpt lat="45.96603" lon="1.12381">
        <ele>317.2</ele>
        <time>2022-10-02T08:53:44Z</time>
      </trkpt>
      <trkpt lat="45.96609" lon="1.1238">
        <ele>317.2</ele>
        <time>2022-10-02T08:53:45Z</time>
      </trkpt>
      <trkpt lat="45.96615" lon="1.12378">
        <ele>317.2</ele>
        <time>2022-10-02T08:53:46Z</time>
      </trkpt>
      <trkpt lat="45.96621" lon="1.12377">
        <ele>317.2</ele>
        <time>2022-10-02T08:53:47Z</time>
      </trkpt>
      <trkpt lat="45.96626" lon="1.12374">
        <ele>317.1</ele>
        <time>2022-10-02T08:53:48Z</time>
      </trkpt>
      <trkpt lat="45.96631" lon="1.12372">
        <ele>317.1</ele>
        <time>2022-10-02T08:53:49Z</time>
      </trkpt>
      <trkpt lat="45.96637" lon="1.12371">
        <ele>317</ele>
        <time>2022-10-02T08:53:50Z</time>
      </trkpt>
      <trkpt lat="45.96643" lon="1.12368">
        <ele>316.9</ele>
        <time>2022-10-02T08:53:51Z</time>
      </trkpt>
      <trkpt lat="45.96649" lon="1.12366">
        <ele>316.8</ele>
        <time>2022-10-02T08:53:52Z</time>
      </trkpt>
      <trkpt lat="45.96655" lon="1.12364">
        <ele>316.8</ele>
        <time>2022-10-02T08:53:53Z</time>
      </trkpt>
      <trkpt lat="45.96662" lon="1.12366">
        <ele>316.7</ele>
        <time>2022-10-02T08:53:54Z</time>
      </trkpt>
      <trkpt lat="45.96669" lon="1.12364">
        <ele>316.6</ele>
        <time>2022-10-02T08:53:55Z</time>
      </trkpt>
      <trkpt lat="45.96675" lon="1.12363">
        <ele>316.5</ele>
        <time>2022-10-02T08:53:56Z</time>
      </trkpt>
      <trkpt lat="45.96681" lon="1.12362">
        <ele>316.5</ele>
        <time>2022-10-02T08:53:57Z</time>
      </trkpt>
      <trkpt lat="45.96687" lon="1.1236">
        <ele>316.4</ele>
        <time>2022-10-02T08:53:58Z</time>
      </trkpt>
      <trkpt lat="45.96693" lon="1.12358">
        <ele>316.4</ele>
        <time>2022-10-02T08:53:59Z</time>
      </trkpt>
      <trkpt lat="45.96699" lon="1.12357">
        <ele>316.4</ele>
        <time>2022-10-02T08:54:00Z</time>
      </trkpt>
      <trkpt lat="45.96705" lon="1.12356">
        <ele>316.4</ele>
        <time>2022-10-02T08:54:01Z</time>
      </trkpt>
      <trkpt lat="45.96711" lon="1.12352">
        <ele>316.5</ele>
        <time>2022-10-02T08:54:02Z</time>
      </trkpt>
      <trkpt lat="45.96716" lon="1.12349">
        <ele>316.6</ele>
        <time>2022-10-02T08:54:03Z</time>
      </trkpt>
      <trkpt lat="45.96722" lon="1.12349">
        <ele>316.7</ele>
        <time>2022-10-02T08:54:04Z</time>
      </trkpt>
      <trkpt lat="45.96727" lon="1.12348">
        <ele>316.8</ele>
        <time>2022-10-02T08:54:05Z</time>
      </trkpt>
      <trkpt lat="45.9673" lon="1.12345">
        <ele>316.9</ele>
        <time>2022-10-02T08:54:06Z</time>
      </trkpt>
      <trkpt lat="45.96737" lon="1.12345">
        <ele>317.1</ele>
        <time>2022-10-02T08:54:07Z</time>
      </trkpt>
      <trkpt lat="45.96742" lon="1.12343">
        <ele>317.3</ele>
        <time>2022-10-02T08:54:08Z</time>
      </trkpt>
      <trkpt lat="45.96745" lon="1.12343">
        <ele>317.4</ele>
        <time>2022-10-02T08:54:09Z</time>
      </trkpt>
      <trkpt lat="45.96751" lon="1.12341">
        <ele>317.6</ele>
        <time>2022-10-02T08:54:10Z</time>
      </trkpt>
      <trkpt lat="45.96753" lon="1.1234">
        <ele>317.7</ele>
        <time>2022-10-02T08:54:11Z</time>
      </trkpt>
      <trkpt lat="45.96756" lon="1.12338">
        <ele>317.8</ele>
        <time>2022-10-02T08:54:12Z</time>
      </trkpt>
      <trkpt lat="45.96761" lon="1.12338">
        <ele>318</ele>
        <time>2022-10-02T08:54:13Z</time>
      </trkpt>
      <trkpt lat="45.96767" lon="1.12338">
        <ele>318.3</ele>
        <time>2022-10-02T08:54:14Z</time>
      </trkpt>
      <trkpt lat="45.96772" lon="1.12339">
        <ele>318.5</ele>
        <time>2022-10-02T08:54:15Z</time>
      </trkpt>
      <trkpt lat="45.96777" lon="1.12338">
        <ele>318.7</ele>
        <time>2022-10-02T08:54:16Z</time>
      </trkpt>
      <trkpt lat="45.96784" lon="1.12338">
        <ele>318.9</ele>
        <time>2022-10-02T08:54:17Z</time>
      </trkpt>
      <trkpt lat="45.96788" lon="1.12336">
        <ele>319.1</ele>
        <time>2022-10-02T08:54:18Z</time>
      </trkpt>
      <trkpt lat="45.96794" lon="1.12333">
        <ele>319.2</ele>
        <time>2022-10-02T08:54:19Z</time>
      </trkpt>
      <trkpt lat="45.96799" lon="1.12331">
        <ele>319.3</ele>
        <time>2022-10-02T08:54:20Z</time>
      </trkpt>
      <trkpt lat="45.96805" lon="1.1233">
        <ele>319.4</ele>
        <time>2022-10-02T08:54:21Z</time>
      </trkpt>
      <trkpt lat="45.96813" lon="1.12328">
        <ele>319.5</ele>
        <time>2022-10-02T08:54:22Z</time>
      </trkpt>
      <trkpt lat="45.96819" lon="1.12327">
        <ele>319.6</ele>
        <time>2022-10-02T08:54:23Z</time>
      </trkpt>
      <trkpt lat="45.96825" lon="1.12327">
        <ele>319.7</ele>
        <time>2022-10-02T08:54:24Z</time>
      </trkpt>
      <trkpt lat="45.9683" lon="1.12325">
        <ele>319.7</ele>
        <time>2022-10-02T08:54:25Z</time>
      </trkpt>
      <trkpt lat="45.96836" lon="1.12324">
        <ele>319.8</ele>
        <time>2022-10-02T08:54:26Z</time>
      </trkpt>
      <trkpt lat="45.96841" lon="1.12322">
        <ele>319.8</ele>
        <time>2022-10-02T08:54:27Z</time>
      </trkpt>
      <trkpt lat="45.96845" lon="1.1232">
        <ele>319.8</ele>
        <time>2022-10-02T08:54:28Z</time>
      </trkpt>
      <trkpt lat="45.9685" lon="1.12319">
        <ele>319.8</ele>
        <time>2022-10-02T08:54:29Z</time>
      </trkpt>
      <trkpt lat="45.96855" lon="1.12317">
        <ele>319.8</ele>
        <time>2022-10-02T08:54:30Z</time>
      </trkpt>
      <trkpt lat="45.96862" lon="1.12316">
        <ele>319.7</ele>
        <time>2022-10-02T08:54:31Z</time>
      </trkpt>
      <trkpt lat="45.96867" lon="1.12315">
        <ele>319.7</ele>
        <time>2022-10-02T08:54:32Z</time>
      </trkpt>
      <trkpt lat="45.96872" lon="1.12313">
        <ele>319.7</ele>
        <time>2022-10-02T08:54:33Z</time>
      </trkpt>
      <trkpt lat="45.96878" lon="1.12312">
        <ele>319.7</ele>
        <time>2022-10-02T08:54:34Z</time>
      </trkpt>
      <trkpt lat="45.96884" lon="1.12311">
        <ele>319.7</ele>
        <time>2022-10-02T08:54:35Z</time>
      </trkpt>
      <trkpt lat="45.96887" lon="1.12309">
        <ele>319.7</ele>
        <time>2022-10-02T08:54:36Z</time>
      </trkpt>
      <trkpt lat="45.96893" lon="1.12307">
        <ele>319.8</ele>
        <time>2022-10-02T08:54:37Z</time>
      </trkpt>
      <trkpt lat="45.96898" lon="1.12305">
        <ele>319.9</ele>
        <time>2022-10-02T08:54:38Z</time>
      </trkpt>
      <trkpt lat="45.96903" lon="1.12304">
        <ele>319.9</ele>
        <time>2022-10-02T08:54:39Z</time>
      </trkpt>
      <trkpt lat="45.96909" lon="1.12302">
        <ele>320</ele>
        <time>2022-10-02T08:54:40Z</time>
      </trkpt>
      <trkpt lat="45.96914" lon="1.123">
        <ele>320.1</ele>
        <time>2022-10-02T08:54:41Z</time>
      </trkpt>
      <trkpt lat="45.96919" lon="1.12299">
        <ele>320.1</ele>
        <time>2022-10-02T08:54:42Z</time>
      </trkpt>
      <trkpt lat="45.96924" lon="1.12298">
        <ele>320.2</ele>
        <time>2022-10-02T08:54:43Z</time>
      </trkpt>
      <trkpt lat="45.96929" lon="1.12296">
        <ele>320.2</ele>
        <time>2022-10-02T08:54:44Z</time>
      </trkpt>
      <trkpt lat="45.96934" lon="1.12294">
        <ele>320.2</ele>
        <time>2022-10-02T08:54:45Z</time>
      </trkpt>
      <trkpt lat="45.96939" lon="1.12293">
        <ele>320.3</ele>
        <time>2022-10-02T08:54:46Z</time>
      </trkpt>
      <trkpt lat="45.96945" lon="1.12291">
        <ele>320.4</ele>
        <time>2022-10-02T08:54:47Z</time>
      </trkpt>
      <trkpt lat="45.96949" lon="1.1229">
        <ele>320.4</ele>
        <time>2022-10-02T08:54:48Z</time>
      </trkpt>
      <trkpt lat="45.96954" lon="1.1229">
        <ele>320.5</ele>
        <time>2022-10-02T08:54:49Z</time>
      </trkpt>
      <trkpt lat="45.96959" lon="1.12288">
        <ele>320.6</ele>
        <time>2022-10-02T08:54:50Z</time>
      </trkpt>
      <trkpt lat="45.96963" lon="1.12288">
        <ele>320.7</ele>
        <time>2022-10-02T08:54:51Z</time>
      </trkpt>
      <trkpt lat="45.96969" lon="1.12285">
        <ele>320.8</ele>
        <time>2022-10-02T08:54:52Z</time>
      </trkpt>
      <trkpt lat="45.96974" lon="1.12284">
        <ele>320.9</ele>
        <time>2022-10-02T08:54:53Z</time>
      </trkpt>
      <trkpt lat="45.96979" lon="1.12283">
        <ele>321</ele>
        <time>2022-10-02T08:54:54Z</time>
      </trkpt>
      <trkpt lat="45.96983" lon="1.12282">
        <ele>321.2</ele>
        <time>2022-10-02T08:54:55Z</time>
      </trkpt>
      <trkpt lat="45.96988" lon="1.1228">
        <ele>321.3</ele>
        <time>2022-10-02T08:54:56Z</time>
      </trkpt>
      <trkpt lat="45.96993" lon="1.12279">
        <ele>321.4</ele>
        <time>2022-10-02T08:54:58Z</time>
      </trkpt>
      <trkpt lat="45.96997" lon="1.12278">
        <ele>321.6</ele>
        <time>2022-10-02T08:54:59Z</time>
      </trkpt>
      <trkpt lat="45.97001" lon="1.12275">
        <ele>321.7</ele>
        <time>2022-10-02T08:55:00Z</time>
      </trkpt>
      <trkpt lat="45.97007" lon="1.12274">
        <ele>321.9</ele>
        <time>2022-10-02T08:55:01Z</time>
      </trkpt>
      <trkpt lat="45.97011" lon="1.12272">
        <ele>322</ele>
        <time>2022-10-02T08:55:02Z</time>
      </trkpt>
      <trkpt lat="45.97016" lon="1.12272">
        <ele>322.2</ele>
        <time>2022-10-02T08:55:03Z</time>
      </trkpt>
      <trkpt lat="45.97021" lon="1.1227">
        <ele>322.3</ele>
        <time>2022-10-02T08:55:04Z</time>
      </trkpt>
      <trkpt lat="45.97027" lon="1.12269">
        <ele>322.5</ele>
        <time>2022-10-02T08:55:05Z</time>
      </trkpt>
      <trkpt lat="45.97032" lon="1.12268">
        <ele>322.6</ele>
        <time>2022-10-02T08:55:06Z</time>
      </trkpt>
      <trkpt lat="45.97037" lon="1.12265">
        <ele>322.7</ele>
        <time>2022-10-02T08:55:07Z</time>
      </trkpt>
      <trkpt lat="45.97042" lon="1.12263">
        <ele>322.9</ele>
        <time>2022-10-02T08:55:08Z</time>
      </trkpt>
      <trkpt lat="45.97048" lon="1.12263">
        <ele>323.1</ele>
        <time>2022-10-02T08:55:09Z</time>
      </trkpt>
      <trkpt lat="45.97053" lon="1.12261">
        <ele>323.2</ele>
        <time>2022-10-02T08:55:10Z</time>
      </trkpt>
      <trkpt lat="45.97058" lon="1.1226">
        <ele>323.4</ele>
        <time>2022-10-02T08:55:11Z</time>
      </trkpt>
      <trkpt lat="45.97062" lon="1.12259">
        <ele>323.5</ele>
        <time>2022-10-02T08:55:12Z</time>
      </trkpt>
      <trkpt lat="45.97066" lon="1.12258">
        <ele>323.6</ele>
        <time>2022-10-02T08:55:13Z</time>
      </trkpt>
      <trkpt lat="45.9707" lon="1.12257">
        <ele>323.7</ele>
        <time>2022-10-02T08:55:14Z</time>
      </trkpt>
      <trkpt lat="45.97077" lon="1.12255">
        <ele>323.9</ele>
        <time>2022-10-02T08:55:15Z</time>
      </trkpt>
      <trkpt lat="45.97082" lon="1.12253">
        <ele>324.1</ele>
        <time>2022-10-02T08:55:16Z</time>
      </trkpt>
      <trkpt lat="45.97088" lon="1.12253">
        <ele>324.3</ele>
        <time>2022-10-02T08:55:17Z</time>
      </trkpt>
      <trkpt lat="45.97093" lon="1.12252">
        <ele>324.4</ele>
        <time>2022-10-02T08:55:18Z</time>
      </trkpt>
      <trkpt lat="45.97098" lon="1.12248">
        <ele>324.6</ele>
        <time>2022-10-02T08:55:19Z</time>
      </trkpt>
      <trkpt lat="45.97104" lon="1.12246">
        <ele>324.8</ele>
        <time>2022-10-02T08:55:20Z</time>
      </trkpt>
      <trkpt lat="45.9711" lon="1.12244">
        <ele>325</ele>
        <time>2022-10-02T08:55:21Z</time>
      </trkpt>
      <trkpt lat="45.97114" lon="1.12242">
        <ele>325.2</ele>
        <time>2022-10-02T08:55:22Z</time>
      </trkpt>
      <trkpt lat="45.97121" lon="1.12242">
        <ele>325.5</ele>
        <time>2022-10-02T08:55:23Z</time>
      </trkpt>
      <trkpt lat="45.97126" lon="1.12241">
        <ele>325.7</ele>
        <time>2022-10-02T08:55:24Z</time>
      </trkpt>
      <trkpt lat="45.97131" lon="1.1224">
        <ele>325.9</ele>
        <time>2022-10-02T08:55:25Z</time>
      </trkpt>
      <trkpt lat="45.97136" lon="1.12241">
        <ele>326.2</ele>
        <time>2022-10-02T08:55:26Z</time>
      </trkpt>
      <trkpt lat="45.9714" lon="1.12245">
        <ele>326.5</ele>
        <time>2022-10-02T08:55:27Z</time>
      </trkpt>
      <trkpt lat="45.97143" lon="1.12251">
        <ele>326.4</ele>
        <time>2022-10-02T08:55:28Z</time>
      </trkpt>
      <trkpt lat="45.97144" lon="1.12258">
        <ele>326.4</ele>
        <time>2022-10-02T08:55:29Z</time>
      </trkpt>
      <trkpt lat="45.97144" lon="1.12265">
        <ele>326.3</ele>
        <time>2022-10-02T08:55:30Z</time>
      </trkpt>
      <trkpt lat="45.97143" lon="1.12273">
        <ele>326.3</ele>
        <time>2022-10-02T08:55:31Z</time>
      </trkpt>
      <trkpt lat="45.97144" lon="1.12281">
        <ele>326.2</ele>
        <time>2022-10-02T08:55:32Z</time>
      </trkpt>
      <trkpt lat="45.97143" lon="1.12289">
        <ele>326.2</ele>
        <time>2022-10-02T08:55:33Z</time>
      </trkpt>
      <trkpt lat="45.97144" lon="1.12297">
        <ele>326.1</ele>
        <time>2022-10-02T08:55:34Z</time>
      </trkpt>
      <trkpt lat="45.97144" lon="1.12305">
        <ele>326.1</ele>
        <time>2022-10-02T08:55:35Z</time>
      </trkpt>
      <trkpt lat="45.97144" lon="1.12312">
        <ele>326.1</ele>
        <time>2022-10-02T08:55:36Z</time>
      </trkpt>
      <trkpt lat="45.97144" lon="1.12321">
        <ele>326</ele>
        <time>2022-10-02T08:55:37Z</time>
      </trkpt>
      <trkpt lat="45.97145" lon="1.1233">
        <ele>326</ele>
        <time>2022-10-02T08:55:38Z</time>
      </trkpt>
      <trkpt lat="45.97146" lon="1.12338">
        <ele>326</ele>
        <time>2022-10-02T08:55:39Z</time>
      </trkpt>
      <trkpt lat="45.97147" lon="1.12347">
        <ele>325.9</ele>
        <time>2022-10-02T08:55:40Z</time>
      </trkpt>
      <trkpt lat="45.97145" lon="1.12355">
        <ele>325.9</ele>
        <time>2022-10-02T08:55:41Z</time>
      </trkpt>
      <trkpt lat="45.97145" lon="1.12365">
        <ele>325.9</ele>
        <time>2022-10-02T08:55:42Z</time>
      </trkpt>
      <trkpt lat="45.97145" lon="1.12371">
        <ele>325.8</ele>
        <time>2022-10-02T08:55:43Z</time>
      </trkpt>
      <trkpt lat="45.97143" lon="1.12379">
        <ele>325.7</ele>
        <time>2022-10-02T08:55:44Z</time>
      </trkpt>
      <trkpt lat="45.97144" lon="1.12386">
        <ele>325.7</ele>
        <time>2022-10-02T08:55:45Z</time>
      </trkpt>
      <trkpt lat="45.97145" lon="1.12395">
        <ele>325.6</ele>
        <time>2022-10-02T08:55:46Z</time>
      </trkpt>
      <trkpt lat="45.97146" lon="1.12403">
        <ele>325.5</ele>
        <time>2022-10-02T08:55:47Z</time>
      </trkpt>
      <trkpt lat="45.97144" lon="1.12408">
        <ele>325.5</ele>
        <time>2022-10-02T08:55:48Z</time>
      </trkpt>
      <trkpt lat="45.97145" lon="1.12414">
        <ele>325.5</ele>
        <time>2022-10-02T08:55:49Z</time>
      </trkpt>
      <trkpt lat="45.97146" lon="1.1242">
        <ele>325.4</ele>
        <time>2022-10-02T08:55:50Z</time>
      </trkpt>
      <trkpt lat="45.97144" lon="1.1243">
        <ele>325.4</ele>
        <time>2022-10-02T08:55:51Z</time>
      </trkpt>
      <trkpt lat="45.97144" lon="1.12435">
        <ele>325.4</ele>
        <time>2022-10-02T08:55:52Z</time>
      </trkpt>
      <trkpt lat="45.97143" lon="1.12444">
        <ele>325.4</ele>
        <time>2022-10-02T08:55:53Z</time>
      </trkpt>
      <trkpt lat="45.97143" lon="1.12452">
        <ele>325.4</ele>
        <time>2022-10-02T08:55:54Z</time>
      </trkpt>
      <trkpt lat="45.97142" lon="1.12461">
        <ele>325.4</ele>
        <time>2022-10-02T08:55:55Z</time>
      </trkpt>
      <trkpt lat="45.97143" lon="1.12469">
        <ele>325.4</ele>
        <time>2022-10-02T08:55:56Z</time>
      </trkpt>
      <trkpt lat="45.97143" lon="1.12477">
        <ele>325.5</ele>
        <time>2022-10-02T08:55:57Z</time>
      </trkpt>
      <trkpt lat="45.97143" lon="1.12486">
        <ele>325.5</ele>
        <time>2022-10-02T08:55:58Z</time>
      </trkpt>
      <trkpt lat="45.97143" lon="1.12495">
        <ele>325.6</ele>
        <time>2022-10-02T08:55:59Z</time>
      </trkpt>
      <trkpt lat="45.97144" lon="1.12503">
        <ele>325.7</ele>
        <time>2022-10-02T08:56:00Z</time>
      </trkpt>
      <trkpt lat="45.97144" lon="1.12512">
        <ele>325.7</ele>
        <time>2022-10-02T08:56:01Z</time>
      </trkpt>
      <trkpt lat="45.97142" lon="1.1252">
        <ele>325.8</ele>
        <time>2022-10-02T08:56:02Z</time>
      </trkpt>
      <trkpt lat="45.97138" lon="1.1253">
        <ele>325.9</ele>
        <time>2022-10-02T08:56:03Z</time>
      </trkpt>
      <trkpt lat="45.97139" lon="1.12538">
        <ele>325.9</ele>
        <time>2022-10-02T08:56:04Z</time>
      </trkpt>
      <trkpt lat="45.97142" lon="1.12546">
        <ele>325.9</ele>
        <time>2022-10-02T08:56:05Z</time>
      </trkpt>
      <trkpt lat="45.97144" lon="1.12553">
        <ele>325.9</ele>
        <time>2022-10-02T08:56:06Z</time>
      </trkpt>
      <trkpt lat="45.97147" lon="1.12561">
        <ele>325.9</ele>
        <time>2022-10-02T08:56:07Z</time>
      </trkpt>
      <trkpt lat="45.97149" lon="1.12568">
        <ele>326</ele>
        <time>2022-10-02T08:56:08Z</time>
      </trkpt>
      <trkpt lat="45.9715" lon="1.12575">
        <ele>326</ele>
        <time>2022-10-02T08:56:09Z</time>
      </trkpt>
      <trkpt lat="45.97152" lon="1.12583">
        <ele>326</ele>
        <time>2022-10-02T08:56:10Z</time>
      </trkpt>
      <trkpt lat="45.97154" lon="1.12591">
        <ele>325.9</ele>
        <time>2022-10-02T08:56:11Z</time>
      </trkpt>
      <trkpt lat="45.97155" lon="1.12598">
        <ele>325.9</ele>
        <time>2022-10-02T08:56:12Z</time>
      </trkpt>
      <trkpt lat="45.97156" lon="1.12606">
        <ele>325.8</ele>
        <time>2022-10-02T08:56:13Z</time>
      </trkpt>
      <trkpt lat="45.97155" lon="1.12614">
        <ele>325.7</ele>
        <time>2022-10-02T08:56:14Z</time>
      </trkpt>
      <trkpt lat="45.97158" lon="1.12621">
        <ele>325.5</ele>
        <time>2022-10-02T08:56:15Z</time>
      </trkpt>
      <trkpt lat="45.97158" lon="1.12626">
        <ele>325.4</ele>
        <time>2022-10-02T08:56:16Z</time>
      </trkpt>
      <trkpt lat="45.97157" lon="1.12629">
        <ele>325.4</ele>
        <time>2022-10-02T08:56:17Z</time>
      </trkpt>
      <trkpt lat="45.97159" lon="1.12634">
        <ele>325.2</ele>
        <time>2022-10-02T08:56:18Z</time>
      </trkpt>
      <trkpt lat="45.9716" lon="1.12639">
        <ele>325.1</ele>
        <time>2022-10-02T08:56:19Z</time>
      </trkpt>
      <trkpt lat="45.97164" lon="1.12646">
        <ele>324.9</ele>
        <time>2022-10-02T08:56:20Z</time>
      </trkpt>
      <trkpt lat="45.97165" lon="1.12652">
        <ele>324.7</ele>
        <time>2022-10-02T08:56:21Z</time>
      </trkpt>
      <trkpt lat="45.97166" lon="1.1266">
        <ele>324.5</ele>
        <time>2022-10-02T08:56:22Z</time>
      </trkpt>
      <trkpt lat="45.97168" lon="1.12667">
        <ele>324.3</ele>
        <time>2022-10-02T08:56:23Z</time>
      </trkpt>
      <trkpt lat="45.9717" lon="1.12675">
        <ele>324</ele>
        <time>2022-10-02T08:56:24Z</time>
      </trkpt>
      <trkpt lat="45.97171" lon="1.12683">
        <ele>323.8</ele>
        <time>2022-10-02T08:56:25Z</time>
      </trkpt>
      <trkpt lat="45.97173" lon="1.12691">
        <ele>323.6</ele>
        <time>2022-10-02T08:56:26Z</time>
      </trkpt>
      <trkpt lat="45.97174" lon="1.12699">
        <ele>323.4</ele>
        <time>2022-10-02T08:56:27Z</time>
      </trkpt>
      <trkpt lat="45.97176" lon="1.12708">
        <ele>323.1</ele>
        <time>2022-10-02T08:56:28Z</time>
      </trkpt>
      <trkpt lat="45.97177" lon="1.12716">
        <ele>322.9</ele>
        <time>2022-10-02T08:56:29Z</time>
      </trkpt>
      <trkpt lat="45.97178" lon="1.12725">
        <ele>322.7</ele>
        <time>2022-10-02T08:56:30Z</time>
      </trkpt>
      <trkpt lat="45.97177" lon="1.12734">
        <ele>322.5</ele>
        <time>2022-10-02T08:56:31Z</time>
      </trkpt>
      <trkpt lat="45.97178" lon="1.12743">
        <ele>322.3</ele>
        <time>2022-10-02T08:56:32Z</time>
      </trkpt>
      <trkpt lat="45.97179" lon="1.12751">
        <ele>322.1</ele>
        <time>2022-10-02T08:56:33Z</time>
      </trkpt>
      <trkpt lat="45.97179" lon="1.12759">
        <ele>321.9</ele>
        <time>2022-10-02T08:56:34Z</time>
      </trkpt>
      <trkpt lat="45.97179" lon="1.12767">
        <ele>321.7</ele>
        <time>2022-10-02T08:56:35Z</time>
      </trkpt>
      <trkpt lat="45.97179" lon="1.12776">
        <ele>321.5</ele>
        <time>2022-10-02T08:56:36Z</time>
      </trkpt>
      <trkpt lat="45.9718" lon="1.12784">
        <ele>321.3</ele>
        <time>2022-10-02T08:56:37Z</time>
      </trkpt>
      <trkpt lat="45.9718" lon="1.12792">
        <ele>321.1</ele>
        <time>2022-10-02T08:56:38Z</time>
      </trkpt>
      <trkpt lat="45.97181" lon="1.12802">
        <ele>320.9</ele>
        <time>2022-10-02T08:56:39Z</time>
      </trkpt>
      <trkpt lat="45.97182" lon="1.1281">
        <ele>320.8</ele>
        <time>2022-10-02T08:56:40Z</time>
      </trkpt>
      <trkpt lat="45.97182" lon="1.12819">
        <ele>320.6</ele>
        <time>2022-10-02T08:56:41Z</time>
      </trkpt>
      <trkpt lat="45.97181" lon="1.12827">
        <ele>320.5</ele>
        <time>2022-10-02T08:56:42Z</time>
      </trkpt>
      <trkpt lat="45.97181" lon="1.12836">
        <ele>320.3</ele>
        <time>2022-10-02T08:56:43Z</time>
      </trkpt>
      <trkpt lat="45.97181" lon="1.12844">
        <ele>320.2</ele>
        <time>2022-10-02T08:56:44Z</time>
      </trkpt>
      <trkpt lat="45.97179" lon="1.12852">
        <ele>320</ele>
        <time>2022-10-02T08:56:45Z</time>
      </trkpt>
      <trkpt lat="45.97178" lon="1.12861">
        <ele>319.9</ele>
        <time>2022-10-02T08:56:46Z</time>
      </trkpt>
      <trkpt lat="45.97176" lon="1.12869">
        <ele>319.7</ele>
        <time>2022-10-02T08:56:47Z</time>
      </trkpt>
      <trkpt lat="45.97175" lon="1.12877">
        <ele>319.6</ele>
        <time>2022-10-02T08:56:48Z</time>
      </trkpt>
      <trkpt lat="45.97175" lon="1.12886">
        <ele>319.5</ele>
        <time>2022-10-02T08:56:49Z</time>
      </trkpt>
      <trkpt lat="45.97174" lon="1.12893">
        <ele>319.4</ele>
        <time>2022-10-02T08:56:50Z</time>
      </trkpt>
      <trkpt lat="45.97175" lon="1.12901">
        <ele>319.3</ele>
        <time>2022-10-02T08:56:51Z</time>
      </trkpt>
      <trkpt lat="45.97174" lon="1.12908">
        <ele>319.2</ele>
        <time>2022-10-02T08:56:52Z</time>
      </trkpt>
      <trkpt lat="45.97174" lon="1.12917">
        <ele>319.1</ele>
        <time>2022-10-02T08:56:53Z</time>
      </trkpt>
      <trkpt lat="45.97174" lon="1.12926">
        <ele>319</ele>
        <time>2022-10-02T08:56:54Z</time>
      </trkpt>
      <trkpt lat="45.97174" lon="1.12944">
        <ele>318.8</ele>
        <time>2022-10-02T08:56:55Z</time>
      </trkpt>
      <trkpt lat="45.97173" lon="1.12951">
        <ele>318.7</ele>
        <time>2022-10-02T08:56:56Z</time>
      </trkpt>
      <trkpt lat="45.97173" lon="1.12959">
        <ele>318.6</ele>
        <time>2022-10-02T08:56:57Z</time>
      </trkpt>
      <trkpt lat="45.97172" lon="1.12974">
        <ele>318.5</ele>
        <time>2022-10-02T08:56:58Z</time>
      </trkpt>
      <trkpt lat="45.97173" lon="1.12983">
        <ele>318.4</ele>
        <time>2022-10-02T08:56:59Z</time>
      </trkpt>
      <trkpt lat="45.97171" lon="1.12992">
        <ele>318.3</ele>
        <time>2022-10-02T08:57:00Z</time>
      </trkpt>
      <trkpt lat="45.97169" lon="1.13001">
        <ele>318.2</ele>
        <time>2022-10-02T08:57:01Z</time>
      </trkpt>
      <trkpt lat="45.97168" lon="1.13009">
        <ele>318.2</ele>
        <time>2022-10-02T08:57:02Z</time>
      </trkpt>
      <trkpt lat="45.97167" lon="1.13017">
        <ele>318.1</ele>
        <time>2022-10-02T08:57:03Z</time>
      </trkpt>
      <trkpt lat="45.97165" lon="1.13023">
        <ele>318.1</ele>
        <time>2022-10-02T08:57:04Z</time>
      </trkpt>
      <trkpt lat="45.97163" lon="1.13031">
        <ele>318.1</ele>
        <time>2022-10-02T08:57:05Z</time>
      </trkpt>
      <trkpt lat="45.97161" lon="1.1304">
        <ele>318.1</ele>
        <time>2022-10-02T08:57:06Z</time>
      </trkpt>
      <trkpt lat="45.97159" lon="1.13047">
        <ele>318.1</ele>
        <time>2022-10-02T08:57:07Z</time>
      </trkpt>
      <trkpt lat="45.97157" lon="1.13055">
        <ele>318.2</ele>
        <time>2022-10-02T08:57:08Z</time>
      </trkpt>
      <trkpt lat="45.97155" lon="1.13064">
        <ele>318.2</ele>
        <time>2022-10-02T08:57:09Z</time>
      </trkpt>
      <trkpt lat="45.97152" lon="1.1307">
        <ele>318.2</ele>
        <time>2022-10-02T08:57:10Z</time>
      </trkpt>
      <trkpt lat="45.97149" lon="1.13078">
        <ele>318.3</ele>
        <time>2022-10-02T08:57:11Z</time>
      </trkpt>
      <trkpt lat="45.97147" lon="1.13086">
        <ele>318.3</ele>
        <time>2022-10-02T08:57:12Z</time>
      </trkpt>
      <trkpt lat="45.97146" lon="1.13091">
        <ele>318.4</ele>
        <time>2022-10-02T08:57:13Z</time>
      </trkpt>
      <trkpt lat="45.97145" lon="1.13097">
        <ele>318.4</ele>
        <time>2022-10-02T08:57:14Z</time>
      </trkpt>
      <trkpt lat="45.97144" lon="1.13104">
        <ele>318.4</ele>
        <time>2022-10-02T08:57:15Z</time>
      </trkpt>
      <trkpt lat="45.97141" lon="1.13109">
        <ele>318.5</ele>
        <time>2022-10-02T08:57:16Z</time>
      </trkpt>
      <trkpt lat="45.97138" lon="1.13118">
        <ele>318.5</ele>
        <time>2022-10-02T08:57:17Z</time>
      </trkpt>
      <trkpt lat="45.97136" lon="1.13126">
        <ele>318.4</ele>
        <time>2022-10-02T08:57:18Z</time>
      </trkpt>
      <trkpt lat="45.97134" lon="1.13134">
        <ele>318.4</ele>
        <time>2022-10-02T08:57:19Z</time>
      </trkpt>
      <trkpt lat="45.97133" lon="1.13143">
        <ele>318.4</ele>
        <time>2022-10-02T08:57:20Z</time>
      </trkpt>
      <trkpt lat="45.97132" lon="1.13152">
        <ele>318.3</ele>
        <time>2022-10-02T08:57:21Z</time>
      </trkpt>
      <trkpt lat="45.97131" lon="1.13161">
        <ele>318.3</ele>
        <time>2022-10-02T08:57:22Z</time>
      </trkpt>
      <trkpt lat="45.97131" lon="1.13169">
        <ele>318.3</ele>
        <time>2022-10-02T08:57:23Z</time>
      </trkpt>
      <trkpt lat="45.97129" lon="1.13177">
        <ele>318.3</ele>
        <time>2022-10-02T08:57:24Z</time>
      </trkpt>
      <trkpt lat="45.97127" lon="1.13186">
        <ele>318.3</ele>
        <time>2022-10-02T08:57:25Z</time>
      </trkpt>
      <trkpt lat="45.97125" lon="1.13194">
        <ele>318.3</ele>
        <time>2022-10-02T08:57:26Z</time>
      </trkpt>
      <trkpt lat="45.97124" lon="1.13202">
        <ele>318.4</ele>
        <time>2022-10-02T08:57:27Z</time>
      </trkpt>
      <trkpt lat="45.97123" lon="1.1321">
        <ele>318.4</ele>
        <time>2022-10-02T08:57:28Z</time>
      </trkpt>
      <trkpt lat="45.97123" lon="1.13217">
        <ele>318.5</ele>
        <time>2022-10-02T08:57:29Z</time>
      </trkpt>
      <trkpt lat="45.97122" lon="1.13224">
        <ele>318.5</ele>
        <time>2022-10-02T08:57:30Z</time>
      </trkpt>
      <trkpt lat="45.97121" lon="1.13232">
        <ele>318.6</ele>
        <time>2022-10-02T08:57:31Z</time>
      </trkpt>
      <trkpt lat="45.97121" lon="1.13239">
        <ele>318.6</ele>
        <time>2022-10-02T08:57:32Z</time>
      </trkpt>
      <trkpt lat="45.97119" lon="1.13246">
        <ele>318.7</ele>
        <time>2022-10-02T08:57:33Z</time>
      </trkpt>
      <trkpt lat="45.97119" lon="1.13254">
        <ele>318.8</ele>
        <time>2022-10-02T08:57:34Z</time>
      </trkpt>
      <trkpt lat="45.97118" lon="1.1326">
        <ele>318.9</ele>
        <time>2022-10-02T08:57:35Z</time>
      </trkpt>
      <trkpt lat="45.97118" lon="1.13268">
        <ele>318.9</ele>
        <time>2022-10-02T08:57:36Z</time>
      </trkpt>
      <trkpt lat="45.97117" lon="1.13275">
        <ele>319</ele>
        <time>2022-10-02T08:57:37Z</time>
      </trkpt>
      <trkpt lat="45.97117" lon="1.13283">
        <ele>319.1</ele>
        <time>2022-10-02T08:57:38Z</time>
      </trkpt>
      <trkpt lat="45.97116" lon="1.13291">
        <ele>319.3</ele>
        <time>2022-10-02T08:57:39Z</time>
      </trkpt>
      <trkpt lat="45.97115" lon="1.13298">
        <ele>319.4</ele>
        <time>2022-10-02T08:57:40Z</time>
      </trkpt>
      <trkpt lat="45.97116" lon="1.13306">
        <ele>319.5</ele>
        <time>2022-10-02T08:57:41Z</time>
      </trkpt>
      <trkpt lat="45.97115" lon="1.13314">
        <ele>319.6</ele>
        <time>2022-10-02T08:57:42Z</time>
      </trkpt>
      <trkpt lat="45.97115" lon="1.1332">
        <ele>319.7</ele>
        <time>2022-10-02T08:57:43Z</time>
      </trkpt>
      <trkpt lat="45.97115" lon="1.13326">
        <ele>319.8</ele>
        <time>2022-10-02T08:57:44Z</time>
      </trkpt>
      <trkpt lat="45.97114" lon="1.13334">
        <ele>319.9</ele>
        <time>2022-10-02T08:57:45Z</time>
      </trkpt>
      <trkpt lat="45.97113" lon="1.13339">
        <ele>320</ele>
        <time>2022-10-02T08:57:46Z</time>
      </trkpt>
      <trkpt lat="45.97113" lon="1.13345">
        <ele>320.1</ele>
        <time>2022-10-02T08:57:47Z</time>
      </trkpt>
      <trkpt lat="45.97112" lon="1.13351">
        <ele>320.1</ele>
        <time>2022-10-02T08:57:48Z</time>
      </trkpt>
      <trkpt lat="45.9711" lon="1.13357">
        <ele>320.1</ele>
        <time>2022-10-02T08:57:49Z</time>
      </trkpt>
      <trkpt lat="45.97109" lon="1.13364">
        <ele>320</ele>
        <time>2022-10-02T08:57:50Z</time>
      </trkpt>
      <trkpt lat="45.97107" lon="1.13371">
        <ele>320</ele>
        <time>2022-10-02T08:57:51Z</time>
      </trkpt>
      <trkpt lat="45.97105" lon="1.13378">
        <ele>319.9</ele>
        <time>2022-10-02T08:57:52Z</time>
      </trkpt>
      <trkpt lat="45.97103" lon="1.13387">
        <ele>319.8</ele>
        <time>2022-10-02T08:57:53Z</time>
      </trkpt>
      <trkpt lat="45.97103" lon="1.1339">
        <ele>319.8</ele>
        <time>2022-10-02T08:57:54Z</time>
      </trkpt>
      <trkpt lat="45.97101" lon="1.13396">
        <ele>319.8</ele>
        <time>2022-10-02T08:57:55Z</time>
      </trkpt>
      <trkpt lat="45.97099" lon="1.13403">
        <ele>319.7</ele>
        <time>2022-10-02T08:57:56Z</time>
      </trkpt>
      <trkpt lat="45.97098" lon="1.1341">
        <ele>319.7</ele>
        <time>2022-10-02T08:57:57Z</time>
      </trkpt>
      <trkpt lat="45.97097" lon="1.13415">
        <ele>319.7</ele>
        <time>2022-10-02T08:57:58Z</time>
      </trkpt>
      <trkpt lat="45.97094" lon="1.1342">
        <ele>319.6</ele>
        <time>2022-10-02T08:57:59Z</time>
      </trkpt>
      <trkpt lat="45.97092" lon="1.13425">
        <ele>319.6</ele>
        <time>2022-10-02T08:58:00Z</time>
      </trkpt>
      <trkpt lat="45.9709" lon="1.13431">
        <ele>319.4</ele>
        <time>2022-10-02T08:58:01Z</time>
      </trkpt>
      <trkpt lat="45.97088" lon="1.13436">
        <ele>319.3</ele>
        <time>2022-10-02T08:58:02Z</time>
      </trkpt>
      <trkpt lat="45.97087" lon="1.13441">
        <ele>319.3</ele>
        <time>2022-10-02T08:58:03Z</time>
      </trkpt>
      <trkpt lat="45.97085" lon="1.13449">
        <ele>319.2</ele>
        <time>2022-10-02T08:58:04Z</time>
      </trkpt>
      <trkpt lat="45.97083" lon="1.13456">
        <ele>319.1</ele>
        <time>2022-10-02T08:58:05Z</time>
      </trkpt>
      <trkpt lat="45.97082" lon="1.13463">
        <ele>319.1</ele>
        <time>2022-10-02T08:58:06Z</time>
      </trkpt>
      <trkpt lat="45.9708" lon="1.13471">
        <ele>319</ele>
        <time>2022-10-02T08:58:07Z</time>
      </trkpt>
      <trkpt lat="45.97078" lon="1.13476">
        <ele>319</ele>
        <time>2022-10-02T08:58:08Z</time>
      </trkpt>
      <trkpt lat="45.97076" lon="1.13483">
        <ele>319</ele>
        <time>2022-10-02T08:58:09Z</time>
      </trkpt>
      <trkpt lat="45.97075" lon="1.1349">
        <ele>319</ele>
        <time>2022-10-02T08:58:10Z</time>
      </trkpt>
      <trkpt lat="45.97074" lon="1.13496">
        <ele>319</ele>
        <time>2022-10-02T08:58:11Z</time>
      </trkpt>
      <trkpt lat="45.97073" lon="1.13503">
        <ele>319</ele>
        <time>2022-10-02T08:58:12Z</time>
      </trkpt>
      <trkpt lat="45.97072" lon="1.1351">
        <ele>319</ele>
        <time>2022-10-02T08:58:13Z</time>
      </trkpt>
      <trkpt lat="45.97071" lon="1.13518">
        <ele>319</ele>
        <time>2022-10-02T08:58:14Z</time>
      </trkpt>
      <trkpt lat="45.9707" lon="1.13524">
        <ele>319</ele>
        <time>2022-10-02T08:58:15Z</time>
      </trkpt>
      <trkpt lat="45.97069" lon="1.13532">
        <ele>319</ele>
        <time>2022-10-02T08:58:16Z</time>
      </trkpt>
      <trkpt lat="45.97068" lon="1.13539">
        <ele>319</ele>
        <time>2022-10-02T08:58:17Z</time>
      </trkpt>
      <trkpt lat="45.97066" lon="1.13546">
        <ele>319</ele>
        <time>2022-10-02T08:58:18Z</time>
      </trkpt>
      <trkpt lat="45.97065" lon="1.13553">
        <ele>319</ele>
        <time>2022-10-02T08:58:19Z</time>
      </trkpt>
      <trkpt lat="45.97064" lon="1.1356">
        <ele>318.9</ele>
        <time>2022-10-02T08:58:20Z</time>
      </trkpt>
      <trkpt lat="45.97064" lon="1.13568">
        <ele>318.9</ele>
        <time>2022-10-02T08:58:21Z</time>
      </trkpt>
      <trkpt lat="45.97064" lon="1.13576">
        <ele>318.9</ele>
        <time>2022-10-02T08:58:22Z</time>
      </trkpt>
      <trkpt lat="45.97064" lon="1.13583">
        <ele>318.8</ele>
        <time>2022-10-02T08:58:23Z</time>
      </trkpt>
      <trkpt lat="45.97064" lon="1.13591">
        <ele>318.8</ele>
        <time>2022-10-02T08:58:24Z</time>
      </trkpt>
      <trkpt lat="45.97064" lon="1.13598">
        <ele>318.7</ele>
        <time>2022-10-02T08:58:25Z</time>
      </trkpt>
      <trkpt lat="45.97064" lon="1.13606">
        <ele>318.7</ele>
        <time>2022-10-02T08:58:26Z</time>
      </trkpt>
      <trkpt lat="45.97065" lon="1.13613">
        <ele>318.6</ele>
        <time>2022-10-02T08:58:27Z</time>
      </trkpt>
      <trkpt lat="45.97065" lon="1.13621">
        <ele>318.6</ele>
        <time>2022-10-02T08:58:28Z</time>
      </trkpt>
      <trkpt lat="45.97065" lon="1.13628">
        <ele>318.6</ele>
        <time>2022-10-02T08:58:29Z</time>
      </trkpt>
      <trkpt lat="45.97065" lon="1.13636">
        <ele>318.5</ele>
        <time>2022-10-02T08:58:30Z</time>
      </trkpt>
      <trkpt lat="45.97065" lon="1.13643">
        <ele>318.5</ele>
        <time>2022-10-02T08:58:31Z</time>
      </trkpt>
      <trkpt lat="45.97064" lon="1.1365">
        <ele>318.4</ele>
        <time>2022-10-02T08:58:32Z</time>
      </trkpt>
      <trkpt lat="45.97062" lon="1.13657">
        <ele>318.3</ele>
        <time>2022-10-02T08:58:33Z</time>
      </trkpt>
      <trkpt lat="45.97063" lon="1.13666">
        <ele>318.3</ele>
        <time>2022-10-02T08:58:34Z</time>
      </trkpt>
      <trkpt lat="45.97063" lon="1.13673">
        <ele>318.2</ele>
        <time>2022-10-02T08:58:35Z</time>
      </trkpt>
      <trkpt lat="45.97062" lon="1.13681">
        <ele>318.1</ele>
        <time>2022-10-02T08:58:36Z</time>
      </trkpt>
      <trkpt lat="45.97061" lon="1.13691">
        <ele>317.9</ele>
        <time>2022-10-02T08:58:37Z</time>
      </trkpt>
      <trkpt lat="45.97059" lon="1.13698">
        <ele>317.8</ele>
        <time>2022-10-02T08:58:38Z</time>
      </trkpt>
      <trkpt lat="45.97058" lon="1.13705">
        <ele>317.7</ele>
        <time>2022-10-02T08:58:39Z</time>
      </trkpt>
      <trkpt lat="45.97057" lon="1.13712">
        <ele>317.5</ele>
        <time>2022-10-02T08:58:40Z</time>
      </trkpt>
      <trkpt lat="45.97056" lon="1.13718">
        <ele>317.4</ele>
        <time>2022-10-02T08:58:41Z</time>
      </trkpt>
      <trkpt lat="45.97056" lon="1.13726">
        <ele>317.2</ele>
        <time>2022-10-02T08:58:42Z</time>
      </trkpt>
      <trkpt lat="45.97057" lon="1.13734">
        <ele>317.1</ele>
        <time>2022-10-02T08:58:43Z</time>
      </trkpt>
      <trkpt lat="45.97056" lon="1.13741">
        <ele>316.9</ele>
        <time>2022-10-02T08:58:44Z</time>
      </trkpt>
      <trkpt lat="45.97055" lon="1.13749">
        <ele>316.8</ele>
        <time>2022-10-02T08:58:45Z</time>
      </trkpt>
      <trkpt lat="45.97053" lon="1.13758">
        <ele>316.6</ele>
        <time>2022-10-02T08:58:46Z</time>
      </trkpt>
      <trkpt lat="45.97052" lon="1.13765">
        <ele>316.5</ele>
        <time>2022-10-02T08:58:47Z</time>
      </trkpt>
      <trkpt lat="45.97052" lon="1.13775">
        <ele>316.3</ele>
        <time>2022-10-02T08:58:48Z</time>
      </trkpt>
      <trkpt lat="45.9705" lon="1.13784">
        <ele>316.1</ele>
        <time>2022-10-02T08:58:49Z</time>
      </trkpt>
      <trkpt lat="45.97048" lon="1.13793">
        <ele>316</ele>
        <time>2022-10-02T08:58:50Z</time>
      </trkpt>
      <trkpt lat="45.97047" lon="1.13802">
        <ele>315.9</ele>
        <time>2022-10-02T08:58:51Z</time>
      </trkpt>
      <trkpt lat="45.97045" lon="1.13811">
        <ele>315.8</ele>
        <time>2022-10-02T08:58:52Z</time>
      </trkpt>
      <trkpt lat="45.97043" lon="1.13819">
        <ele>315.8</ele>
        <time>2022-10-02T08:58:53Z</time>
      </trkpt>
      <trkpt lat="45.97042" lon="1.13827">
        <ele>315.7</ele>
        <time>2022-10-02T08:58:54Z</time>
      </trkpt>
      <trkpt lat="45.97041" lon="1.13835">
        <ele>315.7</ele>
        <time>2022-10-02T08:58:55Z</time>
      </trkpt>
      <trkpt lat="45.9704" lon="1.13844">
        <ele>315.7</ele>
        <time>2022-10-02T08:58:56Z</time>
      </trkpt>
      <trkpt lat="45.97038" lon="1.13853">
        <ele>315.7</ele>
        <time>2022-10-02T08:58:57Z</time>
      </trkpt>
      <trkpt lat="45.97035" lon="1.1386">
        <ele>315.7</ele>
        <time>2022-10-02T08:58:58Z</time>
      </trkpt>
      <trkpt lat="45.97033" lon="1.13866">
        <ele>315.7</ele>
        <time>2022-10-02T08:58:59Z</time>
      </trkpt>
      <trkpt lat="45.9703" lon="1.13872">
        <ele>315.7</ele>
        <time>2022-10-02T08:59:00Z</time>
      </trkpt>
      <trkpt lat="45.97028" lon="1.1388">
        <ele>315.7</ele>
        <time>2022-10-02T08:59:01Z</time>
      </trkpt>
      <trkpt lat="45.97025" lon="1.13887">
        <ele>315.8</ele>
        <time>2022-10-02T08:59:02Z</time>
      </trkpt>
      <trkpt lat="45.97023" lon="1.13892">
        <ele>315.8</ele>
        <time>2022-10-02T08:59:03Z</time>
      </trkpt>
      <trkpt lat="45.97019" lon="1.13897">
        <ele>315.9</ele>
        <time>2022-10-02T08:59:04Z</time>
      </trkpt>
      <trkpt lat="45.97017" lon="1.13902">
        <ele>316</ele>
        <time>2022-10-02T08:59:05Z</time>
      </trkpt>
      <trkpt lat="45.97016" lon="1.13906">
        <ele>316</ele>
        <time>2022-10-02T08:59:06Z</time>
      </trkpt>
      <trkpt lat="45.97013" lon="1.13911">
        <ele>316.1</ele>
        <time>2022-10-02T08:59:07Z</time>
      </trkpt>
      <trkpt lat="45.9701" lon="1.13917">
        <ele>316.2</ele>
        <time>2022-10-02T08:59:08Z</time>
      </trkpt>
      <trkpt lat="45.97006" lon="1.13921">
        <ele>316.4</ele>
        <time>2022-10-02T08:59:09Z</time>
      </trkpt>
      <trkpt lat="45.97002" lon="1.13926">
        <ele>316.5</ele>
        <time>2022-10-02T08:59:10Z</time>
      </trkpt>
      <trkpt lat="45.96998" lon="1.13932">
        <ele>316.6</ele>
        <time>2022-10-02T08:59:11Z</time>
      </trkpt>
      <trkpt lat="45.96994" lon="1.13939">
        <ele>316.8</ele>
        <time>2022-10-02T08:59:12Z</time>
      </trkpt>
      <trkpt lat="45.96992" lon="1.13944">
        <ele>316.9</ele>
        <time>2022-10-02T08:59:13Z</time>
      </trkpt>
      <trkpt lat="45.96989" lon="1.13951">
        <ele>317.1</ele>
        <time>2022-10-02T08:59:14Z</time>
      </trkpt>
      <trkpt lat="45.96986" lon="1.13957">
        <ele>317.3</ele>
        <time>2022-10-02T08:59:15Z</time>
      </trkpt>
      <trkpt lat="45.96983" lon="1.13963">
        <ele>317.5</ele>
        <time>2022-10-02T08:59:16Z</time>
      </trkpt>
      <trkpt lat="45.96983" lon="1.13969">
        <ele>317.7</ele>
        <time>2022-10-02T08:59:17Z</time>
      </trkpt>
      <trkpt lat="45.96979" lon="1.13973">
        <ele>317.9</ele>
        <time>2022-10-02T08:59:18Z</time>
      </trkpt>
      <trkpt lat="45.96976" lon="1.13979">
        <ele>318.2</ele>
        <time>2022-10-02T08:59:19Z</time>
      </trkpt>
      <trkpt lat="45.96974" lon="1.13986">
        <ele>318.5</ele>
        <time>2022-10-02T08:59:20Z</time>
      </trkpt>
      <trkpt lat="45.96973" lon="1.13994">
        <ele>318.9</ele>
        <time>2022-10-02T08:59:21Z</time>
      </trkpt>
      <trkpt lat="45.96971" lon="1.14001">
        <ele>319.2</ele>
        <time>2022-10-02T08:59:22Z</time>
      </trkpt>
      <trkpt lat="45.96969" lon="1.14007">
        <ele>319.6</ele>
        <time>2022-10-02T08:59:23Z</time>
      </trkpt>
      <trkpt lat="45.96968" lon="1.14015">
        <ele>320</ele>
        <time>2022-10-02T08:59:24Z</time>
      </trkpt>
      <trkpt lat="45.96966" lon="1.1402">
        <ele>320.4</ele>
        <time>2022-10-02T08:59:25Z</time>
      </trkpt>
      <trkpt lat="45.96964" lon="1.14026">
        <ele>320.8</ele>
        <time>2022-10-02T08:59:26Z</time>
      </trkpt>
      <trkpt lat="45.96962" lon="1.14031">
        <ele>321.2</ele>
        <time>2022-10-02T08:59:27Z</time>
      </trkpt>
      <trkpt lat="45.9696" lon="1.14035">
        <ele>321.5</ele>
        <time>2022-10-02T08:59:28Z</time>
      </trkpt>
      <trkpt lat="45.96959" lon="1.1404">
        <ele>321.9</ele>
        <time>2022-10-02T08:59:29Z</time>
      </trkpt>
      <trkpt lat="45.96958" lon="1.14046">
        <ele>322.2</ele>
        <time>2022-10-02T08:59:30Z</time>
      </trkpt>
      <trkpt lat="45.96958" lon="1.14051">
        <ele>322.5</ele>
        <time>2022-10-02T08:59:31Z</time>
      </trkpt>
      <trkpt lat="45.96957" lon="1.14058">
        <ele>322.7</ele>
        <time>2022-10-02T08:59:32Z</time>
      </trkpt>
      <trkpt lat="45.96957" lon="1.14064">
        <ele>322.9</ele>
        <time>2022-10-02T08:59:33Z</time>
      </trkpt>
      <trkpt lat="45.96956" lon="1.1407">
        <ele>323.1</ele>
        <time>2022-10-02T08:59:34Z</time>
      </trkpt>
      <trkpt lat="45.96955" lon="1.14077">
        <ele>323.1</ele>
        <time>2022-10-02T08:59:35Z</time>
      </trkpt>
      <trkpt lat="45.96953" lon="1.1408">
        <ele>323</ele>
        <time>2022-10-02T08:59:36Z</time>
      </trkpt>
      <trkpt lat="45.96948" lon="1.14081">
        <ele>322.7</ele>
        <time>2022-10-02T08:59:37Z</time>
      </trkpt>
      <trkpt lat="45.96946" lon="1.14078">
        <ele>322.6</ele>
        <time>2022-10-02T08:59:38Z</time>
      </trkpt>
      <trkpt lat="45.96942" lon="1.14076">
        <ele>322.4</ele>
        <time>2022-10-02T08:59:39Z</time>
      </trkpt>
      <trkpt lat="45.96936" lon="1.1407">
        <ele>322.1</ele>
        <time>2022-10-02T08:59:40Z</time>
      </trkpt>
      <trkpt lat="45.96933" lon="1.14066">
        <ele>321.9</ele>
        <time>2022-10-02T08:59:41Z</time>
      </trkpt>
      <trkpt lat="45.9693" lon="1.14064">
        <ele>321.7</ele>
        <time>2022-10-02T08:59:42Z</time>
      </trkpt>
      <trkpt lat="45.96927" lon="1.1406">
        <ele>321.5</ele>
        <time>2022-10-02T08:59:43Z</time>
      </trkpt>
      <trkpt lat="45.96921" lon="1.14051">
        <ele>321.2</ele>
        <time>2022-10-02T08:59:44Z</time>
      </trkpt>
      <trkpt lat="45.96916" lon="1.14047">
        <ele>321</ele>
        <time>2022-10-02T08:59:45Z</time>
      </trkpt>
      <trkpt lat="45.96912" lon="1.14043">
        <ele>320.9</ele>
        <time>2022-10-02T08:59:46Z</time>
      </trkpt>
      <trkpt lat="45.96907" lon="1.14042">
        <ele>320.8</ele>
        <time>2022-10-02T08:59:47Z</time>
      </trkpt>
      <trkpt lat="45.96901" lon="1.14034">
        <ele>320.7</ele>
        <time>2022-10-02T08:59:48Z</time>
      </trkpt>
      <trkpt lat="45.96895" lon="1.14033">
        <ele>320.6</ele>
        <time>2022-10-02T08:59:49Z</time>
      </trkpt>
      <trkpt lat="45.96889" lon="1.14032">
        <ele>320.6</ele>
        <time>2022-10-02T08:59:50Z</time>
      </trkpt>
      <trkpt lat="45.96885" lon="1.14029">
        <ele>320.5</ele>
        <time>2022-10-02T08:59:51Z</time>
      </trkpt>
      <trkpt lat="45.9688" lon="1.14033">
        <ele>320.5</ele>
        <time>2022-10-02T08:59:52Z</time>
      </trkpt>
      <trkpt lat="45.96875" lon="1.14037">
        <ele>320.4</ele>
        <time>2022-10-02T08:59:53Z</time>
      </trkpt>
      <trkpt lat="45.96869" lon="1.1404">
        <ele>320.3</ele>
        <time>2022-10-02T08:59:54Z</time>
      </trkpt>
      <trkpt lat="45.96863" lon="1.14045">
        <ele>320.2</ele>
        <time>2022-10-02T08:59:55Z</time>
      </trkpt>
      <trkpt lat="45.96857" lon="1.1405">
        <ele>320.1</ele>
        <time>2022-10-02T08:59:56Z</time>
      </trkpt>
      <trkpt lat="45.96852" lon="1.14053">
        <ele>320</ele>
        <time>2022-10-02T08:59:57Z</time>
      </trkpt>
      <trkpt lat="45.96847" lon="1.14058">
        <ele>319.9</ele>
        <time>2022-10-02T08:59:58Z</time>
      </trkpt>
      <trkpt lat="45.96841" lon="1.14062">
        <ele>319.8</ele>
        <time>2022-10-02T08:59:59Z</time>
      </trkpt>
      <trkpt lat="45.96837" lon="1.14067">
        <ele>319.6</ele>
        <time>2022-10-02T09:00:00Z</time>
      </trkpt>
      <trkpt lat="45.9683" lon="1.14071">
        <ele>319.5</ele>
        <time>2022-10-02T09:00:01Z</time>
      </trkpt>
      <trkpt lat="45.96824" lon="1.14078">
        <ele>319.3</ele>
        <time>2022-10-02T09:00:02Z</time>
      </trkpt>
      <trkpt lat="45.96818" lon="1.14083">
        <ele>319.1</ele>
        <time>2022-10-02T09:00:03Z</time>
      </trkpt>
      <trkpt lat="45.96812" lon="1.14086">
        <ele>319</ele>
        <time>2022-10-02T09:00:04Z</time>
      </trkpt>
      <trkpt lat="45.96806" lon="1.1409">
        <ele>318.8</ele>
        <time>2022-10-02T09:00:05Z</time>
      </trkpt>
      <trkpt lat="45.96801" lon="1.14093">
        <ele>318.6</ele>
        <time>2022-10-02T09:00:06Z</time>
      </trkpt>
      <trkpt lat="45.96795" lon="1.14097">
        <ele>318.5</ele>
        <time>2022-10-02T09:00:07Z</time>
      </trkpt>
      <trkpt lat="45.9679" lon="1.141">
        <ele>318.4</ele>
        <time>2022-10-02T09:00:08Z</time>
      </trkpt>
      <trkpt lat="45.96784" lon="1.14101">
        <ele>318.3</ele>
        <time>2022-10-02T09:00:09Z</time>
      </trkpt>
      <trkpt lat="45.96782" lon="1.14109">
        <ele>318.2</ele>
        <time>2022-10-02T09:00:10Z</time>
      </trkpt>
      <trkpt lat="45.96777" lon="1.14114">
        <ele>318.1</ele>
        <time>2022-10-02T09:00:11Z</time>
      </trkpt>
      <trkpt lat="45.96772" lon="1.14115">
        <ele>318</ele>
        <time>2022-10-02T09:00:12Z</time>
      </trkpt>
      <trkpt lat="45.96767" lon="1.14119">
        <ele>318</ele>
        <time>2022-10-02T09:00:13Z</time>
      </trkpt>
      <trkpt lat="45.96762" lon="1.14122">
        <ele>318</ele>
        <time>2022-10-02T09:00:14Z</time>
      </trkpt>
      <trkpt lat="45.96757" lon="1.14125">
        <ele>318</ele>
        <time>2022-10-02T09:00:15Z</time>
      </trkpt>
      <trkpt lat="45.9675" lon="1.1413">
        <ele>318</ele>
        <time>2022-10-02T09:00:16Z</time>
      </trkpt>
      <trkpt lat="45.96742" lon="1.14132">
        <ele>318.1</ele>
        <time>2022-10-02T09:00:17Z</time>
      </trkpt>
      <trkpt lat="45.96737" lon="1.14135">
        <ele>318.2</ele>
        <time>2022-10-02T09:00:18Z</time>
      </trkpt>
      <trkpt lat="45.96731" lon="1.14138">
        <ele>318.2</ele>
        <time>2022-10-02T09:00:19Z</time>
      </trkpt>
      <trkpt lat="45.96726" lon="1.14139">
        <ele>318.3</ele>
        <time>2022-10-02T09:00:20Z</time>
      </trkpt>
      <trkpt lat="45.9672" lon="1.14141">
        <ele>318.3</ele>
        <time>2022-10-02T09:00:21Z</time>
      </trkpt>
      <trkpt lat="45.96714" lon="1.14143">
        <ele>318.4</ele>
        <time>2022-10-02T09:00:22Z</time>
      </trkpt>
      <trkpt lat="45.96708" lon="1.14145">
        <ele>318.4</ele>
        <time>2022-10-02T09:00:23Z</time>
      </trkpt>
      <trkpt lat="45.96701" lon="1.14147">
        <ele>318.4</ele>
        <time>2022-10-02T09:00:24Z</time>
      </trkpt>
      <trkpt lat="45.96697" lon="1.1415">
        <ele>318.3</ele>
        <time>2022-10-02T09:00:25Z</time>
      </trkpt>
      <trkpt lat="45.96692" lon="1.14152">
        <ele>318.3</ele>
        <time>2022-10-02T09:00:26Z</time>
      </trkpt>
      <trkpt lat="45.96686" lon="1.14156">
        <ele>318.2</ele>
        <time>2022-10-02T09:00:27Z</time>
      </trkpt>
      <trkpt lat="45.96681" lon="1.14158">
        <ele>318.1</ele>
        <time>2022-10-02T09:00:28Z</time>
      </trkpt>
      <trkpt lat="45.96678" lon="1.14162">
        <ele>318</ele>
        <time>2022-10-02T09:00:29Z</time>
      </trkpt>
      <trkpt lat="45.9667" lon="1.14164">
        <ele>317.9</ele>
        <time>2022-10-02T09:00:30Z</time>
      </trkpt>
      <trkpt lat="45.96665" lon="1.14166">
        <ele>317.8</ele>
        <time>2022-10-02T09:00:31Z</time>
      </trkpt>
      <trkpt lat="45.9666" lon="1.14167">
        <ele>317.7</ele>
        <time>2022-10-02T09:00:32Z</time>
      </trkpt>
      <trkpt lat="45.96654" lon="1.1417">
        <ele>317.6</ele>
        <time>2022-10-02T09:00:33Z</time>
      </trkpt>
      <trkpt lat="45.96649" lon="1.1417">
        <ele>317.5</ele>
        <time>2022-10-02T09:00:34Z</time>
      </trkpt>
      <trkpt lat="45.96643" lon="1.1417">
        <ele>317.4</ele>
        <time>2022-10-02T09:00:35Z</time>
      </trkpt>
      <trkpt lat="45.96639" lon="1.14172">
        <ele>317.3</ele>
        <time>2022-10-02T09:00:36Z</time>
      </trkpt>
      <trkpt lat="45.96635" lon="1.14173">
        <ele>317.2</ele>
        <time>2022-10-02T09:00:37Z</time>
      </trkpt>
      <trkpt lat="45.96629" lon="1.14174">
        <ele>317.1</ele>
        <time>2022-10-02T09:00:38Z</time>
      </trkpt>
      <trkpt lat="45.96624" lon="1.14176">
        <ele>317</ele>
        <time>2022-10-02T09:00:39Z</time>
      </trkpt>
      <trkpt lat="45.96619" lon="1.14177">
        <ele>316.9</ele>
        <time>2022-10-02T09:00:40Z</time>
      </trkpt>
      <trkpt lat="45.96614" lon="1.1418">
        <ele>316.8</ele>
        <time>2022-10-02T09:00:41Z</time>
      </trkpt>
      <trkpt lat="45.96607" lon="1.14181">
        <ele>316.6</ele>
        <time>2022-10-02T09:00:42Z</time>
      </trkpt>
      <trkpt lat="45.96602" lon="1.14183">
        <ele>316.5</ele>
        <time>2022-10-02T09:00:43Z</time>
      </trkpt>
      <trkpt lat="45.96596" lon="1.14184">
        <ele>316.4</ele>
        <time>2022-10-02T09:00:44Z</time>
      </trkpt>
      <trkpt lat="45.9659" lon="1.14186">
        <ele>316.3</ele>
        <time>2022-10-02T09:00:45Z</time>
      </trkpt>
      <trkpt lat="45.96584" lon="1.14187">
        <ele>316.1</ele>
        <time>2022-10-02T09:00:46Z</time>
      </trkpt>
      <trkpt lat="45.96578" lon="1.14186">
        <ele>316</ele>
        <time>2022-10-02T09:00:47Z</time>
      </trkpt>
      <trkpt lat="45.96573" lon="1.14187">
        <ele>315.9</ele>
        <time>2022-10-02T09:00:48Z</time>
      </trkpt>
      <trkpt lat="45.96567" lon="1.14187">
        <ele>315.8</ele>
        <time>2022-10-02T09:00:49Z</time>
      </trkpt>
      <trkpt lat="45.96561" lon="1.14187">
        <ele>315.6</ele>
        <time>2022-10-02T09:00:50Z</time>
      </trkpt>
      <trkpt lat="45.96554" lon="1.14186">
        <ele>315.5</ele>
        <time>2022-10-02T09:00:51Z</time>
      </trkpt>
      <trkpt lat="45.96548" lon="1.14186">
        <ele>315.4</ele>
        <time>2022-10-02T09:00:52Z</time>
      </trkpt>
      <trkpt lat="45.96544" lon="1.14183">
        <ele>315.4</ele>
        <time>2022-10-02T09:00:53Z</time>
      </trkpt>
      <trkpt lat="45.9654" lon="1.14181">
        <ele>315.3</ele>
        <time>2022-10-02T09:00:54Z</time>
      </trkpt>
      <trkpt lat="45.96533" lon="1.14181">
        <ele>315.1</ele>
        <time>2022-10-02T09:00:55Z</time>
      </trkpt>
      <trkpt lat="45.96528" lon="1.1418">
        <ele>315</ele>
        <time>2022-10-02T09:00:56Z</time>
      </trkpt>
      <trkpt lat="45.96522" lon="1.14178">
        <ele>314.9</ele>
        <time>2022-10-02T09:00:57Z</time>
      </trkpt>
      <trkpt lat="45.96516" lon="1.14177">
        <ele>314.8</ele>
        <time>2022-10-02T09:00:58Z</time>
      </trkpt>
      <trkpt lat="45.96512" lon="1.1417">
        <ele>314.7</ele>
        <time>2022-10-02T09:00:59Z</time>
      </trkpt>
      <trkpt lat="45.96506" lon="1.14167">
        <ele>314.6</ele>
        <time>2022-10-02T09:01:00Z</time>
      </trkpt>
      <trkpt lat="45.96501" lon="1.14163">
        <ele>314.5</ele>
        <time>2022-10-02T09:01:01Z</time>
      </trkpt>
      <trkpt lat="45.96495" lon="1.14159">
        <ele>314.4</ele>
        <time>2022-10-02T09:01:02Z</time>
      </trkpt>
      <trkpt lat="45.96489" lon="1.14158">
        <ele>314.3</ele>
        <time>2022-10-02T09:01:03Z</time>
      </trkpt>
      <trkpt lat="45.96484" lon="1.14153">
        <ele>314.2</ele>
        <time>2022-10-02T09:01:04Z</time>
      </trkpt>
      <trkpt lat="45.9648" lon="1.14149">
        <ele>314.2</ele>
        <time>2022-10-02T09:01:05Z</time>
      </trkpt>
      <trkpt lat="45.96475" lon="1.14144">
        <ele>314.1</ele>
        <time>2022-10-02T09:01:06Z</time>
      </trkpt>
      <trkpt lat="45.9647" lon="1.1414">
        <ele>314</ele>
        <time>2022-10-02T09:01:07Z</time>
      </trkpt>
      <trkpt lat="45.96466" lon="1.14135">
        <ele>313.9</ele>
        <time>2022-10-02T09:01:08Z</time>
      </trkpt>
      <trkpt lat="45.96462" lon="1.1413">
        <ele>313.9</ele>
        <time>2022-10-02T09:01:09Z</time>
      </trkpt>
      <trkpt lat="45.96458" lon="1.14124">
        <ele>313.8</ele>
        <time>2022-10-02T09:01:10Z</time>
      </trkpt>
      <trkpt lat="45.96453" lon="1.14121">
        <ele>313.7</ele>
        <time>2022-10-02T09:01:11Z</time>
      </trkpt>
      <trkpt lat="45.96448" lon="1.14116">
        <ele>313.6</ele>
        <time>2022-10-02T09:01:12Z</time>
      </trkpt>
      <trkpt lat="45.96443" lon="1.14111">
        <ele>313.6</ele>
        <time>2022-10-02T09:01:13Z</time>
      </trkpt>
      <trkpt lat="45.96438" lon="1.14107">
        <ele>313.6</ele>
        <time>2022-10-02T09:01:14Z</time>
      </trkpt>
      <trkpt lat="45.96433" lon="1.14102">
        <ele>313.5</ele>
        <time>2022-10-02T09:01:15Z</time>
      </trkpt>
      <trkpt lat="45.96428" lon="1.14098">
        <ele>313.5</ele>
        <time>2022-10-02T09:01:16Z</time>
      </trkpt>
      <trkpt lat="45.96423" lon="1.14095">
        <ele>313.5</ele>
        <time>2022-10-02T09:01:17Z</time>
      </trkpt>
      <trkpt lat="45.96418" lon="1.14091">
        <ele>313.5</ele>
        <time>2022-10-02T09:01:18Z</time>
      </trkpt>
      <trkpt lat="45.96415" lon="1.14089">
        <ele>313.4</ele>
        <time>2022-10-02T09:01:19Z</time>
      </trkpt>
      <trkpt lat="45.96411" lon="1.14088">
        <ele>313.4</ele>
        <time>2022-10-02T09:01:20Z</time>
      </trkpt>
      <trkpt lat="45.96407" lon="1.1409">
        <ele>313.3</ele>
        <time>2022-10-02T09:01:21Z</time>
      </trkpt>
      <trkpt lat="45.96405" lon="1.14093">
        <ele>313.2</ele>
        <time>2022-10-02T09:01:22Z</time>
      </trkpt>
      <trkpt lat="45.96403" lon="1.14097">
        <ele>313.1</ele>
        <time>2022-10-02T09:01:23Z</time>
      </trkpt>
      <trkpt lat="45.96401" lon="1.14102">
        <ele>313.1</ele>
        <time>2022-10-02T09:01:24Z</time>
      </trkpt>
      <trkpt lat="45.964" lon="1.1411">
        <ele>312.9</ele>
        <time>2022-10-02T09:01:25Z</time>
      </trkpt>
      <trkpt lat="45.96397" lon="1.14116">
        <ele>312.8</ele>
        <time>2022-10-02T09:01:26Z</time>
      </trkpt>
      <trkpt lat="45.96396" lon="1.14122">
        <ele>312.8</ele>
        <time>2022-10-02T09:01:27Z</time>
      </trkpt>
      <trkpt lat="45.96396" lon="1.14129">
        <ele>312.7</ele>
        <time>2022-10-02T09:01:28Z</time>
      </trkpt>
      <trkpt lat="45.96394" lon="1.14135">
        <ele>312.6</ele>
        <time>2022-10-02T09:01:29Z</time>
      </trkpt>
      <trkpt lat="45.96392" lon="1.14142">
        <ele>312.5</ele>
        <time>2022-10-02T09:01:30Z</time>
      </trkpt>
      <trkpt lat="45.96389" lon="1.14146">
        <ele>312.5</ele>
        <time>2022-10-02T09:01:31Z</time>
      </trkpt>
      <trkpt lat="45.96386" lon="1.14148">
        <ele>312.4</ele>
        <time>2022-10-02T09:01:32Z</time>
      </trkpt>
      <trkpt lat="45.96382" lon="1.14148">
        <ele>312.3</ele>
        <time>2022-10-02T09:01:33Z</time>
      </trkpt>
      <trkpt lat="45.96378" lon="1.14144">
        <ele>312.3</ele>
        <time>2022-10-02T09:01:34Z</time>
      </trkpt>
      <trkpt lat="45.96373" lon="1.14141">
        <ele>312.3</ele>
        <time>2022-10-02T09:01:35Z</time>
      </trkpt>
      <trkpt lat="45.96369" lon="1.14137">
        <ele>312.2</ele>
        <time>2022-10-02T09:01:36Z</time>
      </trkpt>
      <trkpt lat="45.96366" lon="1.14132">
        <ele>312.2</ele>
        <time>2022-10-02T09:01:37Z</time>
      </trkpt>
      <trkpt lat="45.96362" lon="1.14127">
        <ele>312.2</ele>
        <time>2022-10-02T09:01:39Z</time>
      </trkpt>
      <trkpt lat="45.96357" lon="1.14121">
        <ele>312.1</ele>
        <time>2022-10-02T09:01:40Z</time>
      </trkpt>
      <trkpt lat="45.96353" lon="1.14117">
        <ele>312.1</ele>
        <time>2022-10-02T09:01:41Z</time>
      </trkpt>
      <trkpt lat="45.9635" lon="1.14111">
        <ele>312.1</ele>
        <time>2022-10-02T09:01:42Z</time>
      </trkpt>
      <trkpt lat="45.96346" lon="1.14107">
        <ele>312</ele>
        <time>2022-10-02T09:01:43Z</time>
      </trkpt>
      <trkpt lat="45.96343" lon="1.14102">
        <ele>312</ele>
        <time>2022-10-02T09:01:44Z</time>
      </trkpt>
      <trkpt lat="45.96339" lon="1.14101">
        <ele>312</ele>
        <time>2022-10-02T09:01:45Z</time>
      </trkpt>
      <trkpt lat="45.96334" lon="1.14102">
        <ele>312</ele>
        <time>2022-10-02T09:01:46Z</time>
      </trkpt>
      <trkpt lat="45.9633" lon="1.14104">
        <ele>312</ele>
        <time>2022-10-02T09:01:47Z</time>
      </trkpt>
      <trkpt lat="45.96328" lon="1.14115">
        <ele>311.1</ele>
        <time>2022-10-02T09:01:48Z</time>
      </trkpt>
      <trkpt lat="45.96327" lon="1.14123">
        <ele>310.6</ele>
        <time>2022-10-02T09:01:49Z</time>
      </trkpt>
      <trkpt lat="45.96327" lon="1.14132">
        <ele>310.2</ele>
        <time>2022-10-02T09:01:50Z</time>
      </trkpt>
      <trkpt lat="45.96324" lon="1.14141">
        <ele>309.8</ele>
        <time>2022-10-02T09:01:51Z</time>
      </trkpt>
      <trkpt lat="45.96323" lon="1.14149">
        <ele>309.4</ele>
        <time>2022-10-02T09:01:52Z</time>
      </trkpt>
      <trkpt lat="45.96321" lon="1.14159">
        <ele>309.1</ele>
        <time>2022-10-02T09:01:53Z</time>
      </trkpt>
      <trkpt lat="45.96319" lon="1.14168">
        <ele>308.7</ele>
        <time>2022-10-02T09:01:54Z</time>
      </trkpt>
      <trkpt lat="45.96314" lon="1.14174">
        <ele>308.4</ele>
        <time>2022-10-02T09:01:55Z</time>
      </trkpt>
      <trkpt lat="45.96313" lon="1.14181">
        <ele>308.2</ele>
        <time>2022-10-02T09:01:56Z</time>
      </trkpt>
      <trkpt lat="45.96312" lon="1.14192">
        <ele>307.9</ele>
        <time>2022-10-02T09:01:57Z</time>
      </trkpt>
      <trkpt lat="45.96311" lon="1.14198">
        <ele>307.7</ele>
        <time>2022-10-02T09:01:58Z</time>
      </trkpt>
      <trkpt lat="45.96308" lon="1.14203">
        <ele>307.5</ele>
        <time>2022-10-02T09:01:59Z</time>
      </trkpt>
      <trkpt lat="45.96299" lon="1.14201">
        <ele>307.1</ele>
        <time>2022-10-02T09:02:00Z</time>
      </trkpt>
      <trkpt lat="45.96294" lon="1.14201">
        <ele>307</ele>
        <time>2022-10-02T09:02:01Z</time>
      </trkpt>
      <trkpt lat="45.96291" lon="1.14199">
        <ele>306.8</ele>
        <time>2022-10-02T09:02:02Z</time>
      </trkpt>
      <trkpt lat="45.96285" lon="1.14199">
        <ele>306.6</ele>
        <time>2022-10-02T09:02:03Z</time>
      </trkpt>
      <trkpt lat="45.96279" lon="1.14198">
        <ele>306.5</ele>
        <time>2022-10-02T09:02:04Z</time>
      </trkpt>
      <trkpt lat="45.96274" lon="1.14198">
        <ele>306.4</ele>
        <time>2022-10-02T09:02:05Z</time>
      </trkpt>
      <trkpt lat="45.96268" lon="1.14198">
        <ele>306.2</ele>
        <time>2022-10-02T09:02:06Z</time>
      </trkpt>
      <trkpt lat="45.96262" lon="1.14199">
        <ele>306</ele>
        <time>2022-10-02T09:02:07Z</time>
      </trkpt>
      <trkpt lat="45.96255" lon="1.14201">
        <ele>305.9</ele>
        <time>2022-10-02T09:02:08Z</time>
      </trkpt>
      <trkpt lat="45.96248" lon="1.14199">
        <ele>305.7</ele>
        <time>2022-10-02T09:02:09Z</time>
      </trkpt>
      <trkpt lat="45.96241" lon="1.14198">
        <ele>305.6</ele>
        <time>2022-10-02T09:02:10Z</time>
      </trkpt>
      <trkpt lat="45.96236" lon="1.14196">
        <ele>305.6</ele>
        <time>2022-10-02T09:02:11Z</time>
      </trkpt>
      <trkpt lat="45.96229" lon="1.14194">
        <ele>305.5</ele>
        <time>2022-10-02T09:02:12Z</time>
      </trkpt>
      <trkpt lat="45.96224" lon="1.14191">
        <ele>305.4</ele>
        <time>2022-10-02T09:02:13Z</time>
      </trkpt>
      <trkpt lat="45.96218" lon="1.1419">
        <ele>305.4</ele>
        <time>2022-10-02T09:02:14Z</time>
      </trkpt>
      <trkpt lat="45.96214" lon="1.14189">
        <ele>305.4</ele>
        <time>2022-10-02T09:02:15Z</time>
      </trkpt>
      <trkpt lat="45.9621" lon="1.14189">
        <ele>305.4</ele>
        <time>2022-10-02T09:02:16Z</time>
      </trkpt>
      <trkpt lat="45.96204" lon="1.1419">
        <ele>305.4</ele>
        <time>2022-10-02T09:02:17Z</time>
      </trkpt>
      <trkpt lat="45.96197" lon="1.14189">
        <ele>305.3</ele>
        <time>2022-10-02T09:02:18Z</time>
      </trkpt>
      <trkpt lat="45.96191" lon="1.1419">
        <ele>305.3</ele>
        <time>2022-10-02T09:02:19Z</time>
      </trkpt>
      <trkpt lat="45.96186" lon="1.14189">
        <ele>305.3</ele>
        <time>2022-10-02T09:02:20Z</time>
      </trkpt>
      <trkpt lat="45.96181" lon="1.14188">
        <ele>305.3</ele>
        <time>2022-10-02T09:02:21Z</time>
      </trkpt>
      <trkpt lat="45.96176" lon="1.14189">
        <ele>305.2</ele>
        <time>2022-10-02T09:02:22Z</time>
      </trkpt>
      <trkpt lat="45.96169" lon="1.1419">
        <ele>305.2</ele>
        <time>2022-10-02T09:02:23Z</time>
      </trkpt>
      <trkpt lat="45.96164" lon="1.14189">
        <ele>305.2</ele>
        <time>2022-10-02T09:02:24Z</time>
      </trkpt>
      <trkpt lat="45.96159" lon="1.1419">
        <ele>305.2</ele>
        <time>2022-10-02T09:02:25Z</time>
      </trkpt>
      <trkpt lat="45.96154" lon="1.14188">
        <ele>305.2</ele>
        <time>2022-10-02T09:02:26Z</time>
      </trkpt>
      <trkpt lat="45.96148" lon="1.14187">
        <ele>305.2</ele>
        <time>2022-10-02T09:02:27Z</time>
      </trkpt>
      <trkpt lat="45.96143" lon="1.14185">
        <ele>305.2</ele>
        <time>2022-10-02T09:02:28Z</time>
      </trkpt>
      <trkpt lat="45.96136" lon="1.14188">
        <ele>305.2</ele>
        <time>2022-10-02T09:02:29Z</time>
      </trkpt>
      <trkpt lat="45.96131" lon="1.14187">
        <ele>305.2</ele>
        <time>2022-10-02T09:02:30Z</time>
      </trkpt>
      <trkpt lat="45.96126" lon="1.14185">
        <ele>305.2</ele>
        <time>2022-10-02T09:02:31Z</time>
      </trkpt>
      <trkpt lat="45.96121" lon="1.14184">
        <ele>305.1</ele>
        <time>2022-10-02T09:02:32Z</time>
      </trkpt>
      <trkpt lat="45.96116" lon="1.14184">
        <ele>305.1</ele>
        <time>2022-10-02T09:02:33Z</time>
      </trkpt>
      <trkpt lat="45.96112" lon="1.14184">
        <ele>305</ele>
        <time>2022-10-02T09:02:34Z</time>
      </trkpt>
      <trkpt lat="45.96104" lon="1.14183">
        <ele>304.9</ele>
        <time>2022-10-02T09:02:35Z</time>
      </trkpt>
      <trkpt lat="45.96099" lon="1.1418">
        <ele>304.8</ele>
        <time>2022-10-02T09:02:36Z</time>
      </trkpt>
      <trkpt lat="45.96093" lon="1.1418">
        <ele>304.7</ele>
        <time>2022-10-02T09:02:37Z</time>
      </trkpt>
      <trkpt lat="45.96088" lon="1.1418">
        <ele>304.6</ele>
        <time>2022-10-02T09:02:38Z</time>
      </trkpt>
      <trkpt lat="45.96082" lon="1.14179">
        <ele>304.5</ele>
        <time>2022-10-02T09:02:39Z</time>
      </trkpt>
      <trkpt lat="45.96076" lon="1.14179">
        <ele>304.4</ele>
        <time>2022-10-02T09:02:40Z</time>
      </trkpt>
      <trkpt lat="45.9607" lon="1.14179">
        <ele>304.3</ele>
        <time>2022-10-02T09:02:41Z</time>
      </trkpt>
      <trkpt lat="45.96065" lon="1.14178">
        <ele>304.2</ele>
        <time>2022-10-02T09:02:42Z</time>
      </trkpt>
      <trkpt lat="45.96062" lon="1.14177">
        <ele>304.1</ele>
        <time>2022-10-02T09:02:43Z</time>
      </trkpt>
      <trkpt lat="45.96057" lon="1.14176">
        <ele>304</ele>
        <time>2022-10-02T09:02:44Z</time>
      </trkpt>
      <trkpt lat="45.96052" lon="1.14176">
        <ele>304</ele>
        <time>2022-10-02T09:02:45Z</time>
      </trkpt>
      <trkpt lat="45.96047" lon="1.14175">
        <ele>303.9</ele>
        <time>2022-10-02T09:02:46Z</time>
      </trkpt>
      <trkpt lat="45.96041" lon="1.14174">
        <ele>303.8</ele>
        <time>2022-10-02T09:02:47Z</time>
      </trkpt>
      <trkpt lat="45.96037" lon="1.14172">
        <ele>303.7</ele>
        <time>2022-10-02T09:02:48Z</time>
      </trkpt>
      <trkpt lat="45.96031" lon="1.14171">
        <ele>303.6</ele>
        <time>2022-10-02T09:02:49Z</time>
      </trkpt>
      <trkpt lat="45.96025" lon="1.14172">
        <ele>303.4</ele>
        <time>2022-10-02T09:02:50Z</time>
      </trkpt>
      <trkpt lat="45.96019" lon="1.14171">
        <ele>303.3</ele>
        <time>2022-10-02T09:02:51Z</time>
      </trkpt>
      <trkpt lat="45.96013" lon="1.1417">
        <ele>303.1</ele>
        <time>2022-10-02T09:02:52Z</time>
      </trkpt>
      <trkpt lat="45.96008" lon="1.14169">
        <ele>303</ele>
        <time>2022-10-02T09:02:53Z</time>
      </trkpt>
      <trkpt lat="45.96003" lon="1.14169">
        <ele>302.9</ele>
        <time>2022-10-02T09:02:54Z</time>
      </trkpt>
      <trkpt lat="45.95998" lon="1.14169">
        <ele>302.8</ele>
        <time>2022-10-02T09:02:55Z</time>
      </trkpt>
      <trkpt lat="45.95993" lon="1.14169">
        <ele>302.7</ele>
        <time>2022-10-02T09:02:56Z</time>
      </trkpt>
      <trkpt lat="45.95988" lon="1.14167">
        <ele>302.6</ele>
        <time>2022-10-02T09:02:57Z</time>
      </trkpt>
      <trkpt lat="45.95983" lon="1.14168">
        <ele>302.5</ele>
        <time>2022-10-02T09:02:58Z</time>
      </trkpt>
      <trkpt lat="45.95977" lon="1.14167">
        <ele>302.5</ele>
        <time>2022-10-02T09:02:59Z</time>
      </trkpt>
      <trkpt lat="45.95973" lon="1.14168">
        <ele>302.4</ele>
        <time>2022-10-02T09:03:00Z</time>
      </trkpt>
      <trkpt lat="45.95967" lon="1.14169">
        <ele>302.3</ele>
        <time>2022-10-02T09:03:01Z</time>
      </trkpt>
      <trkpt lat="45.95962" lon="1.14168">
        <ele>302.3</ele>
        <time>2022-10-02T09:03:02Z</time>
      </trkpt>
      <trkpt lat="45.95957" lon="1.14166">
        <ele>302.2</ele>
        <time>2022-10-02T09:03:03Z</time>
      </trkpt>
      <trkpt lat="45.95952" lon="1.14164">
        <ele>302.2</ele>
        <time>2022-10-02T09:03:04Z</time>
      </trkpt>
      <trkpt lat="45.95947" lon="1.14164">
        <ele>302.1</ele>
        <time>2022-10-02T09:03:05Z</time>
      </trkpt>
      <trkpt lat="45.95942" lon="1.14161">
        <ele>302</ele>
        <time>2022-10-02T09:03:06Z</time>
      </trkpt>
      <trkpt lat="45.95937" lon="1.14161">
        <ele>302</ele>
        <time>2022-10-02T09:03:07Z</time>
      </trkpt>
      <trkpt lat="45.95933" lon="1.14161">
        <ele>301.9</ele>
        <time>2022-10-02T09:03:08Z</time>
      </trkpt>
      <trkpt lat="45.95928" lon="1.1416">
        <ele>301.8</ele>
        <time>2022-10-02T09:03:09Z</time>
      </trkpt>
      <trkpt lat="45.95922" lon="1.14158">
        <ele>301.7</ele>
        <time>2022-10-02T09:03:10Z</time>
      </trkpt>
      <trkpt lat="45.95916" lon="1.14153">
        <ele>301.6</ele>
        <time>2022-10-02T09:03:11Z</time>
      </trkpt>
      <trkpt lat="45.9591" lon="1.14152">
        <ele>301.4</ele>
        <time>2022-10-02T09:03:12Z</time>
      </trkpt>
      <trkpt lat="45.95905" lon="1.14151">
        <ele>301.3</ele>
        <time>2022-10-02T09:03:13Z</time>
      </trkpt>
      <trkpt lat="45.95899" lon="1.14152">
        <ele>301.1</ele>
        <time>2022-10-02T09:03:14Z</time>
      </trkpt>
      <trkpt lat="45.95894" lon="1.14152">
        <ele>300.9</ele>
        <time>2022-10-02T09:03:15Z</time>
      </trkpt>
      <trkpt lat="45.95888" lon="1.14149">
        <ele>300.8</ele>
        <time>2022-10-02T09:03:16Z</time>
      </trkpt>
      <trkpt lat="45.95883" lon="1.14149">
        <ele>300.6</ele>
        <time>2022-10-02T09:03:17Z</time>
      </trkpt>
      <trkpt lat="45.95878" lon="1.14149">
        <ele>300.5</ele>
        <time>2022-10-02T09:03:18Z</time>
      </trkpt>
      <trkpt lat="45.95872" lon="1.14149">
        <ele>300.4</ele>
        <time>2022-10-02T09:03:19Z</time>
      </trkpt>
      <trkpt lat="45.95867" lon="1.1415">
        <ele>300.3</ele>
        <time>2022-10-02T09:03:20Z</time>
      </trkpt>
      <trkpt lat="45.95861" lon="1.14149">
        <ele>300.2</ele>
        <time>2022-10-02T09:03:21Z</time>
      </trkpt>
      <trkpt lat="45.95856" lon="1.14149">
        <ele>300.1</ele>
        <time>2022-10-02T09:03:22Z</time>
      </trkpt>
      <trkpt lat="45.9585" lon="1.14148">
        <ele>299.9</ele>
        <time>2022-10-02T09:03:23Z</time>
      </trkpt>
      <trkpt lat="45.95845" lon="1.14147">
        <ele>299.8</ele>
        <time>2022-10-02T09:03:24Z</time>
      </trkpt>
      <trkpt lat="45.9584" lon="1.14145">
        <ele>299.7</ele>
        <time>2022-10-02T09:03:25Z</time>
      </trkpt>
      <trkpt lat="45.95834" lon="1.14144">
        <ele>299.6</ele>
        <time>2022-10-02T09:03:26Z</time>
      </trkpt>
      <trkpt lat="45.95829" lon="1.14141">
        <ele>299.6</ele>
        <time>2022-10-02T09:03:27Z</time>
      </trkpt>
      <trkpt lat="45.95823" lon="1.1414">
        <ele>299.5</ele>
        <time>2022-10-02T09:03:28Z</time>
      </trkpt>
      <trkpt lat="45.95817" lon="1.1414">
        <ele>299.5</ele>
        <time>2022-10-02T09:03:29Z</time>
      </trkpt>
      <trkpt lat="45.95812" lon="1.14139">
        <ele>299.4</ele>
        <time>2022-10-02T09:03:30Z</time>
      </trkpt>
      <trkpt lat="45.95807" lon="1.14138">
        <ele>299.4</ele>
        <time>2022-10-02T09:03:31Z</time>
      </trkpt>
      <trkpt lat="45.95802" lon="1.14137">
        <ele>299.4</ele>
        <time>2022-10-02T09:03:32Z</time>
      </trkpt>
      <trkpt lat="45.95797" lon="1.14137">
        <ele>299.3</ele>
        <time>2022-10-02T09:03:33Z</time>
      </trkpt>
      <trkpt lat="45.95787" lon="1.14139">
        <ele>299.2</ele>
        <time>2022-10-02T09:03:34Z</time>
      </trkpt>
      <trkpt lat="45.95783" lon="1.1414">
        <ele>299.1</ele>
        <time>2022-10-02T09:03:35Z</time>
      </trkpt>
      <trkpt lat="45.95779" lon="1.1414">
        <ele>298.9</ele>
        <time>2022-10-02T09:03:36Z</time>
      </trkpt>
      <trkpt lat="45.95774" lon="1.14142">
        <ele>298.8</ele>
        <time>2022-10-02T09:03:37Z</time>
      </trkpt>
      <trkpt lat="45.95769" lon="1.14146">
        <ele>298.6</ele>
        <time>2022-10-02T09:03:38Z</time>
      </trkpt>
      <trkpt lat="45.95764" lon="1.1415">
        <ele>298.4</ele>
        <time>2022-10-02T09:03:39Z</time>
      </trkpt>
      <trkpt lat="45.95759" lon="1.14152">
        <ele>298.1</ele>
        <time>2022-10-02T09:03:40Z</time>
      </trkpt>
      <trkpt lat="45.95754" lon="1.14155">
        <ele>297.8</ele>
        <time>2022-10-02T09:03:41Z</time>
      </trkpt>
      <trkpt lat="45.95749" lon="1.14158">
        <ele>297.5</ele>
        <time>2022-10-02T09:03:42Z</time>
      </trkpt>
      <trkpt lat="45.95743" lon="1.1416">
        <ele>297.1</ele>
        <time>2022-10-02T09:03:43Z</time>
      </trkpt>
      <trkpt lat="45.95738" lon="1.14166">
        <ele>296.6</ele>
        <time>2022-10-02T09:03:44Z</time>
      </trkpt>
      <trkpt lat="45.95733" lon="1.1417">
        <ele>296.1</ele>
        <time>2022-10-02T09:03:45Z</time>
      </trkpt>
      <trkpt lat="45.95727" lon="1.14175">
        <ele>295.4</ele>
        <time>2022-10-02T09:03:46Z</time>
      </trkpt>
      <trkpt lat="45.95723" lon="1.14183">
        <ele>295</ele>
        <time>2022-10-02T09:03:47Z</time>
      </trkpt>
      <trkpt lat="45.95718" lon="1.14189">
        <ele>294.7</ele>
        <time>2022-10-02T09:03:48Z</time>
      </trkpt>
      <trkpt lat="45.95711" lon="1.14196">
        <ele>294.3</ele>
        <time>2022-10-02T09:03:49Z</time>
      </trkpt>
      <trkpt lat="45.95706" lon="1.14193">
        <ele>294</ele>
        <time>2022-10-02T09:03:50Z</time>
      </trkpt>
      <trkpt lat="45.957" lon="1.14201">
        <ele>293.6</ele>
        <time>2022-10-02T09:03:51Z</time>
      </trkpt>
      <trkpt lat="45.95694" lon="1.14208">
        <ele>293.2</ele>
        <time>2022-10-02T09:03:52Z</time>
      </trkpt>
      <trkpt lat="45.95689" lon="1.14214">
        <ele>292.8</ele>
        <time>2022-10-02T09:03:53Z</time>
      </trkpt>
      <trkpt lat="45.95684" lon="1.14222">
        <ele>292.5</ele>
        <time>2022-10-02T09:03:54Z</time>
      </trkpt>
      <trkpt lat="45.95678" lon="1.14228">
        <ele>292.2</ele>
        <time>2022-10-02T09:03:55Z</time>
      </trkpt>
      <trkpt lat="45.95672" lon="1.14235">
        <ele>291.9</ele>
        <time>2022-10-02T09:03:56Z</time>
      </trkpt>
      <trkpt lat="45.95666" lon="1.14242">
        <ele>291.7</ele>
        <time>2022-10-02T09:03:57Z</time>
      </trkpt>
      <trkpt lat="45.95661" lon="1.14249">
        <ele>291.5</ele>
        <time>2022-10-02T09:03:58Z</time>
      </trkpt>
      <trkpt lat="45.95655" lon="1.14256">
        <ele>291.4</ele>
        <time>2022-10-02T09:03:59Z</time>
      </trkpt>
      <trkpt lat="45.95651" lon="1.14262">
        <ele>291.3</ele>
        <time>2022-10-02T09:04:00Z</time>
      </trkpt>
      <trkpt lat="45.95646" lon="1.14266">
        <ele>291.3</ele>
        <time>2022-10-02T09:04:01Z</time>
      </trkpt>
      <trkpt lat="45.95641" lon="1.14272">
        <ele>291.3</ele>
        <time>2022-10-02T09:04:02Z</time>
      </trkpt>
      <trkpt lat="45.95637" lon="1.14279">
        <ele>291.3</ele>
        <time>2022-10-02T09:04:03Z</time>
      </trkpt>
      <trkpt lat="45.95632" lon="1.14283">
        <ele>291.3</ele>
        <time>2022-10-02T09:04:04Z</time>
      </trkpt>
      <trkpt lat="45.95629" lon="1.14288">
        <ele>291.3</ele>
        <time>2022-10-02T09:04:05Z</time>
      </trkpt>
      <trkpt lat="45.95625" lon="1.14291">
        <ele>291.4</ele>
        <time>2022-10-02T09:04:06Z</time>
      </trkpt>
      <trkpt lat="45.95624" lon="1.14294">
        <ele>291.4</ele>
        <time>2022-10-02T09:04:07Z</time>
      </trkpt>
      <trkpt lat="45.95624" lon="1.14297">
        <ele>291.4</ele>
        <time>2022-10-02T09:04:09Z</time>
      </trkpt>
      <trkpt lat="45.95622" lon="1.1431">
        <ele>291.5</ele>
        <time>2022-10-02T09:04:28Z</time>
      </trkpt>
      <trkpt lat="45.95621" lon="1.14314">
        <ele>291.5</ele>
        <time>2022-10-02T09:04:29Z</time>
      </trkpt>
      <trkpt lat="45.95621" lon="1.14319">
        <ele>291.6</ele>
        <time>2022-10-02T09:04:30Z</time>
      </trkpt>
      <trkpt lat="45.95621" lon="1.14323">
        <ele>291.6</ele>
        <time>2022-10-02T09:04:31Z</time>
      </trkpt>
      <trkpt lat="45.95623" lon="1.14328">
        <ele>291.6</ele>
        <time>2022-10-02T09:04:32Z</time>
      </trkpt>
      <trkpt lat="45.95624" lon="1.14333">
        <ele>291.6</ele>
        <time>2022-10-02T09:04:33Z</time>
      </trkpt>
      <trkpt lat="45.95625" lon="1.14339">
        <ele>291.7</ele>
        <time>2022-10-02T09:04:34Z</time>
      </trkpt>
      <trkpt lat="45.95626" lon="1.14344">
        <ele>291.7</ele>
        <time>2022-10-02T09:04:35Z</time>
      </trkpt>
      <trkpt lat="45.95626" lon="1.14348">
        <ele>293.8</ele>
        <time>2022-10-02T09:04:36Z</time>
      </trkpt>
      <trkpt lat="45.95626" lon="1.14353">
        <ele>293.8</ele>
        <time>2022-10-02T09:04:37Z</time>
      </trkpt>
      <trkpt lat="45.95626" lon="1.14359">
        <ele>293.8</ele>
        <time>2022-10-02T09:04:38Z</time>
      </trkpt>
      <trkpt lat="45.95627" lon="1.14364">
        <ele>294.8</ele>
        <time>2022-10-02T09:04:39Z</time>
      </trkpt>
      <trkpt lat="45.95627" lon="1.14369">
        <ele>294.9</ele>
        <time>2022-10-02T09:04:40Z</time>
      </trkpt>
      <trkpt lat="45.95627" lon="1.14374">
        <ele>294.9</ele>
        <time>2022-10-02T09:04:41Z</time>
      </trkpt>
      <trkpt lat="45.95626" lon="1.14378">
        <ele>295.7</ele>
        <time>2022-10-02T09:04:42Z</time>
      </trkpt>
      <trkpt lat="45.95626" lon="1.14382">
        <ele>295.7</ele>
        <time>2022-10-02T09:04:43Z</time>
      </trkpt>
      <trkpt lat="45.95626" lon="1.14386">
        <ele>295.7</ele>
        <time>2022-10-02T09:04:44Z</time>
      </trkpt>
      <trkpt lat="45.95625" lon="1.1439">
        <ele>295.7</ele>
        <time>2022-10-02T09:04:45Z</time>
      </trkpt>
      <trkpt lat="45.95625" lon="1.14393">
        <ele>295.7</ele>
        <time>2022-10-02T09:04:46Z</time>
      </trkpt>
      <trkpt lat="45.95625" lon="1.14396">
        <ele>296.4</ele>
        <time>2022-10-02T09:04:47Z</time>
      </trkpt>
      <trkpt lat="45.95625" lon="1.14401">
        <ele>296.4</ele>
        <time>2022-10-02T09:04:48Z</time>
      </trkpt>
      <trkpt lat="45.95625" lon="1.14405">
        <ele>296.4</ele>
        <time>2022-10-02T09:04:49Z</time>
      </trkpt>
      <trkpt lat="45.95625" lon="1.1441">
        <ele>296.5</ele>
        <time>2022-10-02T09:04:50Z</time>
      </trkpt>
      <trkpt lat="45.95624" lon="1.14415">
        <ele>296.8</ele>
        <time>2022-10-02T09:04:51Z</time>
      </trkpt>
      <trkpt lat="45.95624" lon="1.1442">
        <ele>296.8</ele>
        <time>2022-10-02T09:04:52Z</time>
      </trkpt>
      <trkpt lat="45.95623" lon="1.14425">
        <ele>296.8</ele>
        <time>2022-10-02T09:04:53Z</time>
      </trkpt>
      <trkpt lat="45.95623" lon="1.14431">
        <ele>297</ele>
        <time>2022-10-02T09:04:54Z</time>
      </trkpt>
      <trkpt lat="45.95622" lon="1.14436">
        <ele>297</ele>
        <time>2022-10-02T09:04:55Z</time>
      </trkpt>
      <trkpt lat="45.95623" lon="1.14442">
        <ele>297</ele>
        <time>2022-10-02T09:04:56Z</time>
      </trkpt>
      <trkpt lat="45.95622" lon="1.14445">
        <ele>297</ele>
        <time>2022-10-02T09:04:57Z</time>
      </trkpt>
      <trkpt lat="45.95622" lon="1.1445">
        <ele>297.3</ele>
        <time>2022-10-02T09:04:58Z</time>
      </trkpt>
      <trkpt lat="45.95622" lon="1.14457">
        <ele>297.4</ele>
        <time>2022-10-02T09:04:59Z</time>
      </trkpt>
      <trkpt lat="45.95623" lon="1.14463">
        <ele>297.4</ele>
        <time>2022-10-02T09:05:00Z</time>
      </trkpt>
      <trkpt lat="45.95624" lon="1.14471">
        <ele>297.7</ele>
        <time>2022-10-02T09:05:01Z</time>
      </trkpt>
      <trkpt lat="45.95624" lon="1.14477">
        <ele>297.8</ele>
        <time>2022-10-02T09:05:02Z</time>
      </trkpt>
      <trkpt lat="45.95623" lon="1.14483">
        <ele>298.2</ele>
        <time>2022-10-02T09:05:03Z</time>
      </trkpt>
      <trkpt lat="45.95624" lon="1.14489">
        <ele>298.2</ele>
        <time>2022-10-02T09:05:04Z</time>
      </trkpt>
      <trkpt lat="45.95624" lon="1.14496">
        <ele>298.2</ele>
        <time>2022-10-02T09:05:05Z</time>
      </trkpt>
      <trkpt lat="45.95624" lon="1.14502">
        <ele>298.6</ele>
        <time>2022-10-02T09:05:06Z</time>
      </trkpt>
      <trkpt lat="45.95624" lon="1.14509">
        <ele>298.7</ele>
        <time>2022-10-02T09:05:07Z</time>
      </trkpt>
      <trkpt lat="45.95625" lon="1.14515">
        <ele>298.7</ele>
        <time>2022-10-02T09:05:08Z</time>
      </trkpt>
      <trkpt lat="45.95626" lon="1.14522">
        <ele>299.2</ele>
        <time>2022-10-02T09:05:09Z</time>
      </trkpt>
      <trkpt lat="45.95626" lon="1.14528">
        <ele>299.2</ele>
        <time>2022-10-02T09:05:10Z</time>
      </trkpt>
      <trkpt lat="45.95626" lon="1.14534">
        <ele>299.9</ele>
        <time>2022-10-02T09:05:11Z</time>
      </trkpt>
      <trkpt lat="45.95627" lon="1.14541">
        <ele>299.9</ele>
        <time>2022-10-02T09:05:12Z</time>
      </trkpt>
      <trkpt lat="45.95626" lon="1.14547">
        <ele>299.9</ele>
        <time>2022-10-02T09:05:13Z</time>
      </trkpt>
      <trkpt lat="45.95627" lon="1.14554">
        <ele>300.7</ele>
        <time>2022-10-02T09:05:14Z</time>
      </trkpt>
      <trkpt lat="45.95625" lon="1.14559">
        <ele>300.7</ele>
        <time>2022-10-02T09:05:15Z</time>
      </trkpt>
      <trkpt lat="45.95623" lon="1.14564">
        <ele>300.7</ele>
        <time>2022-10-02T09:05:16Z</time>
      </trkpt>
      <trkpt lat="45.9562" lon="1.14569">
        <ele>301.4</ele>
        <time>2022-10-02T09:05:17Z</time>
      </trkpt>
      <trkpt lat="45.95618" lon="1.14574">
        <ele>301.4</ele>
        <time>2022-10-02T09:05:18Z</time>
      </trkpt>
      <trkpt lat="45.95615" lon="1.14578">
        <ele>302.7</ele>
        <time>2022-10-02T09:05:19Z</time>
      </trkpt>
      <trkpt lat="45.95613" lon="1.14583">
        <ele>302.7</ele>
        <time>2022-10-02T09:05:20Z</time>
      </trkpt>
      <trkpt lat="45.9561" lon="1.14587">
        <ele>303.6</ele>
        <time>2022-10-02T09:05:21Z</time>
      </trkpt>
      <trkpt lat="45.95607" lon="1.14592">
        <ele>303.6</ele>
        <time>2022-10-02T09:05:22Z</time>
      </trkpt>
      <trkpt lat="45.95604" lon="1.14596">
        <ele>304.9</ele>
        <time>2022-10-02T09:05:23Z</time>
      </trkpt>
      <trkpt lat="45.95601" lon="1.146">
        <ele>304.9</ele>
        <time>2022-10-02T09:05:24Z</time>
      </trkpt>
      <trkpt lat="45.95599" lon="1.14604">
        <ele>305.8</ele>
        <time>2022-10-02T09:05:25Z</time>
      </trkpt>
      <trkpt lat="45.95597" lon="1.14609">
        <ele>305.9</ele>
        <time>2022-10-02T09:05:26Z</time>
      </trkpt>
      <trkpt lat="45.95595" lon="1.14613">
        <ele>305.9</ele>
        <time>2022-10-02T09:05:27Z</time>
      </trkpt>
      <trkpt lat="45.95594" lon="1.14618">
        <ele>305.9</ele>
        <time>2022-10-02T09:05:28Z</time>
      </trkpt>
      <trkpt lat="45.95593" lon="1.14624">
        <ele>307.1</ele>
        <time>2022-10-02T09:05:29Z</time>
      </trkpt>
      <trkpt lat="45.95592" lon="1.14629">
        <ele>308.8</ele>
        <time>2022-10-02T09:05:30Z</time>
      </trkpt>
      <trkpt lat="45.9559" lon="1.14634">
        <ele>308.8</ele>
        <time>2022-10-02T09:05:31Z</time>
      </trkpt>
      <trkpt lat="45.95589" lon="1.14638">
        <ele>310.3</ele>
        <time>2022-10-02T09:05:32Z</time>
      </trkpt>
      <trkpt lat="45.95588" lon="1.14642">
        <ele>310.3</ele>
        <time>2022-10-02T09:05:33Z</time>
      </trkpt>
      <trkpt lat="45.95587" lon="1.14647">
        <ele>310.3</ele>
        <time>2022-10-02T09:05:34Z</time>
      </trkpt>
      <trkpt lat="45.95589" lon="1.14653">
        <ele>310.3</ele>
        <time>2022-10-02T09:05:35Z</time>
      </trkpt>
      <trkpt lat="45.95589" lon="1.14658">
        <ele>311.5</ele>
        <time>2022-10-02T09:05:36Z</time>
      </trkpt>
      <trkpt lat="45.95589" lon="1.14664">
        <ele>311.5</ele>
        <time>2022-10-02T09:05:37Z</time>
      </trkpt>
      <trkpt lat="45.95588" lon="1.1467">
        <ele>312.3</ele>
        <time>2022-10-02T09:05:38Z</time>
      </trkpt>
      <trkpt lat="45.95588" lon="1.14676">
        <ele>312.3</ele>
        <time>2022-10-02T09:05:39Z</time>
      </trkpt>
      <trkpt lat="45.95587" lon="1.14682">
        <ele>312.3</ele>
        <time>2022-10-02T09:05:40Z</time>
      </trkpt>
      <trkpt lat="45.95586" lon="1.14688">
        <ele>312.9</ele>
        <time>2022-10-02T09:05:41Z</time>
      </trkpt>
      <trkpt lat="45.95584" lon="1.14694">
        <ele>312.9</ele>
        <time>2022-10-02T09:05:42Z</time>
      </trkpt>
      <trkpt lat="45.95582" lon="1.14701">
        <ele>312.9</ele>
        <time>2022-10-02T09:05:43Z</time>
      </trkpt>
      <trkpt lat="45.95582" lon="1.14706">
        <ele>313.5</ele>
        <time>2022-10-02T09:05:44Z</time>
      </trkpt>
      <trkpt lat="45.9558" lon="1.1471">
        <ele>315.3</ele>
        <time>2022-10-02T09:05:45Z</time>
      </trkpt>
      <trkpt lat="45.9558" lon="1.14714">
        <ele>315.4</ele>
        <time>2022-10-02T09:05:46Z</time>
      </trkpt>
      <trkpt lat="45.95578" lon="1.14718">
        <ele>315.4</ele>
        <time>2022-10-02T09:05:47Z</time>
      </trkpt>
      <trkpt lat="45.95577" lon="1.14722">
        <ele>316</ele>
        <time>2022-10-02T09:05:48Z</time>
      </trkpt>
      <trkpt lat="45.95576" lon="1.14726">
        <ele>316</ele>
        <time>2022-10-02T09:05:49Z</time>
      </trkpt>
      <trkpt lat="45.95574" lon="1.1473">
        <ele>316.1</ele>
        <time>2022-10-02T09:05:50Z</time>
      </trkpt>
      <trkpt lat="45.95573" lon="1.14734">
        <ele>316.1</ele>
        <time>2022-10-02T09:05:51Z</time>
      </trkpt>
      <trkpt lat="45.95573" lon="1.14737">
        <ele>316.1</ele>
        <time>2022-10-02T09:05:52Z</time>
      </trkpt>
      <trkpt lat="45.95572" lon="1.14741">
        <ele>316.6</ele>
        <time>2022-10-02T09:05:53Z</time>
      </trkpt>
      <trkpt lat="45.95571" lon="1.14745">
        <ele>316.6</ele>
        <time>2022-10-02T09:05:54Z</time>
      </trkpt>
      <trkpt lat="45.95569" lon="1.1475">
        <ele>316.6</ele>
        <time>2022-10-02T09:05:55Z</time>
      </trkpt>
      <trkpt lat="45.95567" lon="1.14755">
        <ele>318.1</ele>
        <time>2022-10-02T09:05:56Z</time>
      </trkpt>
      <trkpt lat="45.95566" lon="1.1476">
        <ele>318.8</ele>
        <time>2022-10-02T09:05:57Z</time>
      </trkpt>
      <trkpt lat="45.95564" lon="1.14765">
        <ele>318.8</ele>
        <time>2022-10-02T09:05:58Z</time>
      </trkpt>
      <trkpt lat="45.95562" lon="1.1477">
        <ele>318.8</ele>
        <time>2022-10-02T09:05:59Z</time>
      </trkpt>
      <trkpt lat="45.9556" lon="1.14774">
        <ele>319.8</ele>
        <time>2022-10-02T09:06:00Z</time>
      </trkpt>
      <trkpt lat="45.95558" lon="1.14778">
        <ele>319.8</ele>
        <time>2022-10-02T09:06:01Z</time>
      </trkpt>
      <trkpt lat="45.95556" lon="1.14781">
        <ele>321.3</ele>
        <time>2022-10-02T09:06:02Z</time>
      </trkpt>
      <trkpt lat="45.95555" lon="1.14785">
        <ele>321.3</ele>
        <time>2022-10-02T09:06:03Z</time>
      </trkpt>
      <trkpt lat="45.95553" lon="1.14789">
        <ele>321.4</ele>
        <time>2022-10-02T09:06:04Z</time>
      </trkpt>
      <trkpt lat="45.95551" lon="1.14793">
        <ele>322.7</ele>
        <time>2022-10-02T09:06:05Z</time>
      </trkpt>
      <trkpt lat="45.95549" lon="1.14797">
        <ele>322.7</ele>
        <time>2022-10-02T09:06:06Z</time>
      </trkpt>
      <trkpt lat="45.95547" lon="1.148">
        <ele>322.7</ele>
        <time>2022-10-02T09:06:07Z</time>
      </trkpt>
      <trkpt lat="45.95544" lon="1.14803">
        <ele>324.2</ele>
        <time>2022-10-02T09:06:08Z</time>
      </trkpt>
      <trkpt lat="45.95541" lon="1.14806">
        <ele>324.2</ele>
        <time>2022-10-02T09:06:09Z</time>
      </trkpt>
      <trkpt lat="45.95539" lon="1.14809">
        <ele>325.6</ele>
        <time>2022-10-02T09:06:10Z</time>
      </trkpt>
      <trkpt lat="45.95536" lon="1.14812">
        <ele>325.6</ele>
        <time>2022-10-02T09:06:11Z</time>
      </trkpt>
      <trkpt lat="45.95533" lon="1.14816">
        <ele>325.6</ele>
        <time>2022-10-02T09:06:12Z</time>
      </trkpt>
      <trkpt lat="45.9553" lon="1.1482">
        <ele>327.1</ele>
        <time>2022-10-02T09:06:13Z</time>
      </trkpt>
      <trkpt lat="45.95527" lon="1.14822">
        <ele>327.1</ele>
        <time>2022-10-02T09:06:14Z</time>
      </trkpt>
      <trkpt lat="45.95524" lon="1.14825">
        <ele>328.3</ele>
        <time>2022-10-02T09:06:15Z</time>
      </trkpt>
      <trkpt lat="45.95521" lon="1.14827">
        <ele>328.3</ele>
        <time>2022-10-02T09:06:16Z</time>
      </trkpt>
      <trkpt lat="45.95518" lon="1.14829">
        <ele>329.5</ele>
        <time>2022-10-02T09:06:17Z</time>
      </trkpt>
      <trkpt lat="45.95515" lon="1.1483">
        <ele>329.5</ele>
        <time>2022-10-02T09:06:18Z</time>
      </trkpt>
      <trkpt lat="45.95512" lon="1.14832">
        <ele>329.5</ele>
        <time>2022-10-02T09:06:19Z</time>
      </trkpt>
      <trkpt lat="45.95508" lon="1.14834">
        <ele>330.4</ele>
        <time>2022-10-02T09:06:20Z</time>
      </trkpt>
      <trkpt lat="45.95505" lon="1.14837">
        <ele>330.4</ele>
        <time>2022-10-02T09:06:21Z</time>
      </trkpt>
      <trkpt lat="45.95502" lon="1.14839">
        <ele>330.4</ele>
        <time>2022-10-02T09:06:22Z</time>
      </trkpt>
      <trkpt lat="45.95498" lon="1.14841">
        <ele>330.4</ele>
        <time>2022-10-02T09:06:23Z</time>
      </trkpt>
      <trkpt lat="45.95495" lon="1.14844">
        <ele>332.6</ele>
        <time>2022-10-02T09:06:24Z</time>
      </trkpt>
      <trkpt lat="45.95491" lon="1.14845">
        <ele>332.6</ele>
        <time>2022-10-02T09:06:25Z</time>
      </trkpt>
      <trkpt lat="45.95487" lon="1.14846">
        <ele>332.6</ele>
        <time>2022-10-02T09:06:26Z</time>
      </trkpt>
      <trkpt lat="45.95484" lon="1.14845">
        <ele>333.5</ele>
        <time>2022-10-02T09:06:27Z</time>
      </trkpt>
      <trkpt lat="45.9548" lon="1.14845">
        <ele>333.5</ele>
        <time>2022-10-02T09:06:28Z</time>
      </trkpt>
      <trkpt lat="45.95476" lon="1.14845">
        <ele>333.5</ele>
        <time>2022-10-02T09:06:29Z</time>
      </trkpt>
      <trkpt lat="45.95473" lon="1.14846">
        <ele>334.5</ele>
        <time>2022-10-02T09:06:30Z</time>
      </trkpt>
      <trkpt lat="45.9547" lon="1.14846">
        <ele>334.5</ele>
        <time>2022-10-02T09:06:31Z</time>
      </trkpt>
      <trkpt lat="45.95466" lon="1.14847">
        <ele>334.5</ele>
        <time>2022-10-02T09:06:32Z</time>
      </trkpt>
      <trkpt lat="45.95462" lon="1.14848">
        <ele>334.5</ele>
        <time>2022-10-02T09:06:33Z</time>
      </trkpt>
      <trkpt lat="45.95458" lon="1.1485">
        <ele>335.2</ele>
        <time>2022-10-02T09:06:34Z</time>
      </trkpt>
      <trkpt lat="45.95455" lon="1.14851">
        <ele>335.2</ele>
        <time>2022-10-02T09:06:35Z</time>
      </trkpt>
      <trkpt lat="45.95451" lon="1.14853">
        <ele>335.2</ele>
        <time>2022-10-02T09:06:36Z</time>
      </trkpt>
      <trkpt lat="45.95447" lon="1.14855">
        <ele>335.8</ele>
        <time>2022-10-02T09:06:37Z</time>
      </trkpt>
      <trkpt lat="45.95444" lon="1.14857">
        <ele>335.8</ele>
        <time>2022-10-02T09:06:38Z</time>
      </trkpt>
      <trkpt lat="45.95441" lon="1.14859">
        <ele>335.8</ele>
        <time>2022-10-02T09:06:39Z</time>
      </trkpt>
      <trkpt lat="45.95438" lon="1.1486">
        <ele>336.9</ele>
        <time>2022-10-02T09:06:40Z</time>
      </trkpt>
      <trkpt lat="45.95435" lon="1.14862">
        <ele>337.2</ele>
        <time>2022-10-02T09:06:41Z</time>
      </trkpt>
      <trkpt lat="45.95432" lon="1.14865">
        <ele>337.2</ele>
        <time>2022-10-02T09:06:42Z</time>
      </trkpt>
      <trkpt lat="45.95429" lon="1.14868">
        <ele>337.3</ele>
        <time>2022-10-02T09:06:43Z</time>
      </trkpt>
      <trkpt lat="45.95426" lon="1.14871">
        <ele>337.5</ele>
        <time>2022-10-02T09:06:44Z</time>
      </trkpt>
      <trkpt lat="45.95424" lon="1.14876">
        <ele>337.8</ele>
        <time>2022-10-02T09:06:45Z</time>
      </trkpt>
      <trkpt lat="45.95421" lon="1.14881">
        <ele>338</ele>
        <time>2022-10-02T09:06:46Z</time>
      </trkpt>
      <trkpt lat="45.95419" lon="1.14886">
        <ele>338.2</ele>
        <time>2022-10-02T09:06:47Z</time>
      </trkpt>
      <trkpt lat="45.95416" lon="1.1489">
        <ele>338.4</ele>
        <time>2022-10-02T09:06:48Z</time>
      </trkpt>
      <trkpt lat="45.95413" lon="1.14895">
        <ele>338.6</ele>
        <time>2022-10-02T09:06:49Z</time>
      </trkpt>
      <trkpt lat="45.9541" lon="1.14899">
        <ele>338.8</ele>
        <time>2022-10-02T09:06:50Z</time>
      </trkpt>
      <trkpt lat="45.95407" lon="1.14902">
        <ele>338.9</ele>
        <time>2022-10-02T09:06:51Z</time>
      </trkpt>
      <trkpt lat="45.95404" lon="1.14906">
        <ele>339</ele>
        <time>2022-10-02T09:06:52Z</time>
      </trkpt>
      <trkpt lat="45.95401" lon="1.1491">
        <ele>339.2</ele>
        <time>2022-10-02T09:06:53Z</time>
      </trkpt>
      <trkpt lat="45.95397" lon="1.14915">
        <ele>339.4</ele>
        <time>2022-10-02T09:06:54Z</time>
      </trkpt>
      <trkpt lat="45.95395" lon="1.14921">
        <ele>339.5</ele>
        <time>2022-10-02T09:06:55Z</time>
      </trkpt>
      <trkpt lat="45.9539" lon="1.14927">
        <ele>339.7</ele>
        <time>2022-10-02T09:06:56Z</time>
      </trkpt>
      <trkpt lat="45.95386" lon="1.14933">
        <ele>339.9</ele>
        <time>2022-10-02T09:06:57Z</time>
      </trkpt>
      <trkpt lat="45.95383" lon="1.14939">
        <ele>340</ele>
        <time>2022-10-02T09:06:58Z</time>
      </trkpt>
      <trkpt lat="45.9538" lon="1.14945">
        <ele>340.2</ele>
        <time>2022-10-02T09:06:59Z</time>
      </trkpt>
      <trkpt lat="45.95378" lon="1.14953">
        <ele>340.5</ele>
        <time>2022-10-02T09:07:00Z</time>
      </trkpt>
      <trkpt lat="45.95376" lon="1.1496">
        <ele>340.7</ele>
        <time>2022-10-02T09:07:01Z</time>
      </trkpt>
      <trkpt lat="45.95374" lon="1.14968">
        <ele>341</ele>
        <time>2022-10-02T09:07:02Z</time>
      </trkpt>
      <trkpt lat="45.95372" lon="1.14975">
        <ele>341.4</ele>
        <time>2022-10-02T09:07:03Z</time>
      </trkpt>
      <trkpt lat="45.95369" lon="1.14982">
        <ele>341.7</ele>
        <time>2022-10-02T09:07:04Z</time>
      </trkpt>
      <trkpt lat="45.95366" lon="1.14987">
        <ele>342</ele>
        <time>2022-10-02T09:07:05Z</time>
      </trkpt>
      <trkpt lat="45.95363" lon="1.14995">
        <ele>342.4</ele>
        <time>2022-10-02T09:07:06Z</time>
      </trkpt>
      <trkpt lat="45.9536" lon="1.15002">
        <ele>342.8</ele>
        <time>2022-10-02T09:07:07Z</time>
      </trkpt>
      <trkpt lat="45.95354" lon="1.15006">
        <ele>343.2</ele>
        <time>2022-10-02T09:07:08Z</time>
      </trkpt>
      <trkpt lat="45.9535" lon="1.15012">
        <ele>343.6</ele>
        <time>2022-10-02T09:07:09Z</time>
      </trkpt>
      <trkpt lat="45.95346" lon="1.15019">
        <ele>343.9</ele>
        <time>2022-10-02T09:07:10Z</time>
      </trkpt>
      <trkpt lat="45.95341" lon="1.15023">
        <ele>344.2</ele>
        <time>2022-10-02T09:07:11Z</time>
      </trkpt>
      <trkpt lat="45.95338" lon="1.15029">
        <ele>344.3</ele>
        <time>2022-10-02T09:07:12Z</time>
      </trkpt>
      <trkpt lat="45.95334" lon="1.15034">
        <ele>344.5</ele>
        <time>2022-10-02T09:07:13Z</time>
      </trkpt>
      <trkpt lat="45.9533" lon="1.1504">
        <ele>344.6</ele>
        <time>2022-10-02T09:07:14Z</time>
      </trkpt>
      <trkpt lat="45.95326" lon="1.15045">
        <ele>344.7</ele>
        <time>2022-10-02T09:07:15Z</time>
      </trkpt>
      <trkpt lat="45.95323" lon="1.1505">
        <ele>344.8</ele>
        <time>2022-10-02T09:07:16Z</time>
      </trkpt>
      <trkpt lat="45.9532" lon="1.15056">
        <ele>344.8</ele>
        <time>2022-10-02T09:07:17Z</time>
      </trkpt>
      <trkpt lat="45.95317" lon="1.15061">
        <ele>344.8</ele>
        <time>2022-10-02T09:07:18Z</time>
      </trkpt>
      <trkpt lat="45.95314" lon="1.15066">
        <ele>344.8</ele>
        <time>2022-10-02T09:07:19Z</time>
      </trkpt>
      <trkpt lat="45.9531" lon="1.15072">
        <ele>344.8</ele>
        <time>2022-10-02T09:07:20Z</time>
      </trkpt>
      <trkpt lat="45.95305" lon="1.15077">
        <ele>344.8</ele>
        <time>2022-10-02T09:07:21Z</time>
      </trkpt>
      <trkpt lat="45.953" lon="1.15081">
        <ele>344.8</ele>
        <time>2022-10-02T09:07:22Z</time>
      </trkpt>
      <trkpt lat="45.95296" lon="1.15087">
        <ele>344.8</ele>
        <time>2022-10-02T09:07:23Z</time>
      </trkpt>
      <trkpt lat="45.95291" lon="1.15091">
        <ele>344.7</ele>
        <time>2022-10-02T09:07:24Z</time>
      </trkpt>
      <trkpt lat="45.95286" lon="1.15095">
        <ele>344.7</ele>
        <time>2022-10-02T09:07:25Z</time>
      </trkpt>
      <trkpt lat="45.95282" lon="1.15102">
        <ele>344.7</ele>
        <time>2022-10-02T09:07:26Z</time>
      </trkpt>
      <trkpt lat="45.95277" lon="1.15109">
        <ele>344.7</ele>
        <time>2022-10-02T09:07:27Z</time>
      </trkpt>
      <trkpt lat="45.95273" lon="1.15116">
        <ele>344.6</ele>
        <time>2022-10-02T09:07:28Z</time>
      </trkpt>
      <trkpt lat="45.95269" lon="1.15122">
        <ele>344.6</ele>
        <time>2022-10-02T09:07:29Z</time>
      </trkpt>
      <trkpt lat="45.95264" lon="1.15128">
        <ele>344.6</ele>
        <time>2022-10-02T09:07:30Z</time>
      </trkpt>
      <trkpt lat="45.9526" lon="1.15134">
        <ele>344.5</ele>
        <time>2022-10-02T09:07:31Z</time>
      </trkpt>
      <trkpt lat="45.95257" lon="1.15141">
        <ele>344.4</ele>
        <time>2022-10-02T09:07:32Z</time>
      </trkpt>
      <trkpt lat="45.95253" lon="1.15147">
        <ele>344.4</ele>
        <time>2022-10-02T09:07:33Z</time>
      </trkpt>
      <trkpt lat="45.9525" lon="1.15153">
        <ele>344.3</ele>
        <time>2022-10-02T09:07:34Z</time>
      </trkpt>
      <trkpt lat="45.95246" lon="1.15159">
        <ele>344.2</ele>
        <time>2022-10-02T09:07:35Z</time>
      </trkpt>
      <trkpt lat="45.95243" lon="1.15166">
        <ele>344.2</ele>
        <time>2022-10-02T09:07:36Z</time>
      </trkpt>
      <trkpt lat="45.95239" lon="1.15173">
        <ele>344.1</ele>
        <time>2022-10-02T09:07:37Z</time>
      </trkpt>
      <trkpt lat="45.95234" lon="1.15179">
        <ele>344.1</ele>
        <time>2022-10-02T09:07:38Z</time>
      </trkpt>
      <trkpt lat="45.95231" lon="1.15185">
        <ele>344.1</ele>
        <time>2022-10-02T09:07:39Z</time>
      </trkpt>
      <trkpt lat="45.95226" lon="1.15189">
        <ele>344.1</ele>
        <time>2022-10-02T09:07:40Z</time>
      </trkpt>
      <trkpt lat="45.95222" lon="1.15195">
        <ele>344.1</ele>
        <time>2022-10-02T09:07:41Z</time>
      </trkpt>
      <trkpt lat="45.95217" lon="1.152">
        <ele>344.1</ele>
        <time>2022-10-02T09:07:42Z</time>
      </trkpt>
      <trkpt lat="45.95214" lon="1.15205">
        <ele>344.2</ele>
        <time>2022-10-02T09:07:43Z</time>
      </trkpt>
      <trkpt lat="45.95209" lon="1.1521">
        <ele>344.3</ele>
        <time>2022-10-02T09:07:44Z</time>
      </trkpt>
      <trkpt lat="45.95205" lon="1.15215">
        <ele>344.3</ele>
        <time>2022-10-02T09:07:45Z</time>
      </trkpt>
      <trkpt lat="45.95201" lon="1.1522">
        <ele>344.4</ele>
        <time>2022-10-02T09:07:46Z</time>
      </trkpt>
      <trkpt lat="45.95198" lon="1.15226">
        <ele>344.5</ele>
        <time>2022-10-02T09:07:47Z</time>
      </trkpt>
      <trkpt lat="45.95195" lon="1.1523">
        <ele>344.6</ele>
        <time>2022-10-02T09:07:48Z</time>
      </trkpt>
      <trkpt lat="45.95193" lon="1.15236">
        <ele>344.7</ele>
        <time>2022-10-02T09:07:49Z</time>
      </trkpt>
      <trkpt lat="45.95189" lon="1.15239">
        <ele>344.8</ele>
        <time>2022-10-02T09:07:50Z</time>
      </trkpt>
      <trkpt lat="45.95186" lon="1.15244">
        <ele>344.9</ele>
        <time>2022-10-02T09:07:51Z</time>
      </trkpt>
      <trkpt lat="45.95182" lon="1.15247">
        <ele>345</ele>
        <time>2022-10-02T09:07:52Z</time>
      </trkpt>
      <trkpt lat="45.95179" lon="1.1525">
        <ele>345.1</ele>
        <time>2022-10-02T09:07:53Z</time>
      </trkpt>
      <trkpt lat="45.95176" lon="1.15253">
        <ele>345.2</ele>
        <time>2022-10-02T09:07:54Z</time>
      </trkpt>
      <trkpt lat="45.95174" lon="1.15258">
        <ele>345.3</ele>
        <time>2022-10-02T09:07:55Z</time>
      </trkpt>
      <trkpt lat="45.95173" lon="1.15264">
        <ele>345.5</ele>
        <time>2022-10-02T09:07:56Z</time>
      </trkpt>
      <trkpt lat="45.95173" lon="1.15269">
        <ele>345.5</ele>
        <time>2022-10-02T09:07:57Z</time>
      </trkpt>
      <trkpt lat="45.95174" lon="1.15276">
        <ele>345.6</ele>
        <time>2022-10-02T09:07:58Z</time>
      </trkpt>
      <trkpt lat="45.95173" lon="1.15285">
        <ele>345.8</ele>
        <time>2022-10-02T09:07:59Z</time>
      </trkpt>
      <trkpt lat="45.95175" lon="1.15294">
        <ele>345.9</ele>
        <time>2022-10-02T09:08:00Z</time>
      </trkpt>
      <trkpt lat="45.95178" lon="1.15302">
        <ele>346.1</ele>
        <time>2022-10-02T09:08:01Z</time>
      </trkpt>
      <trkpt lat="45.9518" lon="1.15311">
        <ele>346.3</ele>
        <time>2022-10-02T09:08:02Z</time>
      </trkpt>
      <trkpt lat="45.95181" lon="1.15319">
        <ele>346.4</ele>
        <time>2022-10-02T09:08:03Z</time>
      </trkpt>
      <trkpt lat="45.95182" lon="1.15327">
        <ele>346.6</ele>
        <time>2022-10-02T09:08:04Z</time>
      </trkpt>
      <trkpt lat="45.95185" lon="1.15335">
        <ele>346.7</ele>
        <time>2022-10-02T09:08:05Z</time>
      </trkpt>
      <trkpt lat="45.95187" lon="1.15343">
        <ele>346.9</ele>
        <time>2022-10-02T09:08:06Z</time>
      </trkpt>
      <trkpt lat="45.95189" lon="1.1535">
        <ele>347</ele>
        <time>2022-10-02T09:08:07Z</time>
      </trkpt>
      <trkpt lat="45.95191" lon="1.15357">
        <ele>347.1</ele>
        <time>2022-10-02T09:08:08Z</time>
      </trkpt>
      <trkpt lat="45.95193" lon="1.15365">
        <ele>347.2</ele>
        <time>2022-10-02T09:08:09Z</time>
      </trkpt>
      <trkpt lat="45.95192" lon="1.15372">
        <ele>347.3</ele>
        <time>2022-10-02T09:08:10Z</time>
      </trkpt>
      <trkpt lat="45.95188" lon="1.15375">
        <ele>347.7</ele>
        <time>2022-10-02T09:08:11Z</time>
      </trkpt>
      <trkpt lat="45.95183" lon="1.15375">
        <ele>347.8</ele>
        <time>2022-10-02T09:08:12Z</time>
      </trkpt>
      <trkpt lat="45.95178" lon="1.15373">
        <ele>347.9</ele>
        <time>2022-10-02T09:08:13Z</time>
      </trkpt>
      <trkpt lat="45.95174" lon="1.15371">
        <ele>348</ele>
        <time>2022-10-02T09:08:14Z</time>
      </trkpt>
      <trkpt lat="45.9517" lon="1.15367">
        <ele>348.1</ele>
        <time>2022-10-02T09:08:15Z</time>
      </trkpt>
      <trkpt lat="45.95165" lon="1.15363">
        <ele>348.2</ele>
        <time>2022-10-02T09:08:16Z</time>
      </trkpt>
      <trkpt lat="45.95159" lon="1.15358">
        <ele>348.2</ele>
        <time>2022-10-02T09:08:17Z</time>
      </trkpt>
      <trkpt lat="45.95155" lon="1.15353">
        <ele>348.3</ele>
        <time>2022-10-02T09:08:18Z</time>
      </trkpt>
      <trkpt lat="45.9515" lon="1.15348">
        <ele>348.3</ele>
        <time>2022-10-02T09:08:19Z</time>
      </trkpt>
      <trkpt lat="45.95145" lon="1.15344">
        <ele>348.4</ele>
        <time>2022-10-02T09:08:20Z</time>
      </trkpt>
      <trkpt lat="45.9514" lon="1.15338">
        <ele>348.4</ele>
        <time>2022-10-02T09:08:21Z</time>
      </trkpt>
      <trkpt lat="45.95135" lon="1.15334">
        <ele>348.4</ele>
        <time>2022-10-02T09:08:22Z</time>
      </trkpt>
      <trkpt lat="45.95131" lon="1.1533">
        <ele>348.5</ele>
        <time>2022-10-02T09:08:23Z</time>
      </trkpt>
      <trkpt lat="45.95126" lon="1.15323">
        <ele>348.5</ele>
        <time>2022-10-02T09:08:24Z</time>
      </trkpt>
      <trkpt lat="45.95121" lon="1.1532">
        <ele>348.5</ele>
        <time>2022-10-02T09:08:25Z</time>
      </trkpt>
      <trkpt lat="45.95115" lon="1.15316">
        <ele>348.5</ele>
        <time>2022-10-02T09:08:26Z</time>
      </trkpt>
      <trkpt lat="45.9511" lon="1.15311">
        <ele>348.5</ele>
        <time>2022-10-02T09:08:27Z</time>
      </trkpt>
      <trkpt lat="45.95105" lon="1.15306">
        <ele>348.5</ele>
        <time>2022-10-02T09:08:28Z</time>
      </trkpt>
      <trkpt lat="45.95099" lon="1.15302">
        <ele>348.4</ele>
        <time>2022-10-02T09:08:29Z</time>
      </trkpt>
      <trkpt lat="45.95094" lon="1.15298">
        <ele>348.4</ele>
        <time>2022-10-02T09:08:31Z</time>
      </trkpt>
      <trkpt lat="45.95088" lon="1.15294">
        <ele>348.4</ele>
        <time>2022-10-02T09:08:32Z</time>
      </trkpt>
      <trkpt lat="45.95083" lon="1.1529">
        <ele>348.4</ele>
        <time>2022-10-02T09:08:33Z</time>
      </trkpt>
      <trkpt lat="45.95079" lon="1.15284">
        <ele>348.4</ele>
        <time>2022-10-02T09:08:34Z</time>
      </trkpt>
      <trkpt lat="45.95073" lon="1.15281">
        <ele>348.4</ele>
        <time>2022-10-02T09:08:35Z</time>
      </trkpt>
      <trkpt lat="45.95068" lon="1.15278">
        <ele>348.4</ele>
        <time>2022-10-02T09:08:36Z</time>
      </trkpt>
      <trkpt lat="45.95062" lon="1.15276">
        <ele>348.5</ele>
        <time>2022-10-02T09:08:37Z</time>
      </trkpt>
      <trkpt lat="45.95057" lon="1.15273">
        <ele>348.5</ele>
        <time>2022-10-02T09:08:38Z</time>
      </trkpt>
      <trkpt lat="45.95051" lon="1.15271">
        <ele>348.6</ele>
        <time>2022-10-02T09:08:39Z</time>
      </trkpt>
      <trkpt lat="45.95045" lon="1.15268">
        <ele>348.6</ele>
        <time>2022-10-02T09:08:40Z</time>
      </trkpt>
      <trkpt lat="45.95039" lon="1.15266">
        <ele>348.7</ele>
        <time>2022-10-02T09:08:41Z</time>
      </trkpt>
      <trkpt lat="45.95034" lon="1.15264">
        <ele>348.8</ele>
        <time>2022-10-02T09:08:42Z</time>
      </trkpt>
      <trkpt lat="45.95028" lon="1.15262">
        <ele>348.9</ele>
        <time>2022-10-02T09:08:43Z</time>
      </trkpt>
      <trkpt lat="45.95022" lon="1.15259">
        <ele>348.9</ele>
        <time>2022-10-02T09:08:44Z</time>
      </trkpt>
      <trkpt lat="45.95017" lon="1.15256">
        <ele>349.1</ele>
        <time>2022-10-02T09:08:45Z</time>
      </trkpt>
      <trkpt lat="45.95012" lon="1.15252">
        <ele>349.2</ele>
        <time>2022-10-02T09:08:46Z</time>
      </trkpt>
      <trkpt lat="45.95007" lon="1.15249">
        <ele>349.3</ele>
        <time>2022-10-02T09:08:47Z</time>
      </trkpt>
      <trkpt lat="45.95001" lon="1.15245">
        <ele>349.4</ele>
        <time>2022-10-02T09:08:48Z</time>
      </trkpt>
      <trkpt lat="45.94996" lon="1.15242">
        <ele>349.5</ele>
        <time>2022-10-02T09:08:49Z</time>
      </trkpt>
      <trkpt lat="45.9499" lon="1.1524">
        <ele>349.6</ele>
        <time>2022-10-02T09:08:50Z</time>
      </trkpt>
      <trkpt lat="45.94985" lon="1.15238">
        <ele>349.7</ele>
        <time>2022-10-02T09:08:51Z</time>
      </trkpt>
      <trkpt lat="45.9498" lon="1.15235">
        <ele>349.8</ele>
        <time>2022-10-02T09:08:52Z</time>
      </trkpt>
      <trkpt lat="45.94974" lon="1.15233">
        <ele>350</ele>
        <time>2022-10-02T09:08:53Z</time>
      </trkpt>
      <trkpt lat="45.94969" lon="1.15231">
        <ele>350.1</ele>
        <time>2022-10-02T09:08:54Z</time>
      </trkpt>
      <trkpt lat="45.94963" lon="1.15227">
        <ele>350.2</ele>
        <time>2022-10-02T09:08:55Z</time>
      </trkpt>
      <trkpt lat="45.94958" lon="1.15223">
        <ele>350.2</ele>
        <time>2022-10-02T09:08:56Z</time>
      </trkpt>
      <trkpt lat="45.94953" lon="1.15217">
        <ele>350.3</ele>
        <time>2022-10-02T09:08:57Z</time>
      </trkpt>
      <trkpt lat="45.94948" lon="1.15213">
        <ele>350.3</ele>
        <time>2022-10-02T09:08:58Z</time>
      </trkpt>
      <trkpt lat="45.94944" lon="1.1521">
        <ele>350.3</ele>
        <time>2022-10-02T09:08:59Z</time>
      </trkpt>
      <trkpt lat="45.94939" lon="1.15207">
        <ele>350.3</ele>
        <time>2022-10-02T09:09:00Z</time>
      </trkpt>
      <trkpt lat="45.94934" lon="1.15202">
        <ele>350.3</ele>
        <time>2022-10-02T09:09:01Z</time>
      </trkpt>
      <trkpt lat="45.94929" lon="1.152">
        <ele>350.2</ele>
        <time>2022-10-02T09:09:02Z</time>
      </trkpt>
      <trkpt lat="45.94924" lon="1.15198">
        <ele>350.1</ele>
        <time>2022-10-02T09:09:03Z</time>
      </trkpt>
      <trkpt lat="45.94918" lon="1.15197">
        <ele>350</ele>
        <time>2022-10-02T09:09:04Z</time>
      </trkpt>
      <trkpt lat="45.94912" lon="1.15199">
        <ele>349.9</ele>
        <time>2022-10-02T09:09:05Z</time>
      </trkpt>
      <trkpt lat="45.94908" lon="1.15204">
        <ele>349.8</ele>
        <time>2022-10-02T09:09:06Z</time>
      </trkpt>
      <trkpt lat="45.94903" lon="1.15211">
        <ele>349.6</ele>
        <time>2022-10-02T09:09:07Z</time>
      </trkpt>
      <trkpt lat="45.94899" lon="1.15217">
        <ele>349.5</ele>
        <time>2022-10-02T09:09:08Z</time>
      </trkpt>
      <trkpt lat="45.94898" lon="1.15227">
        <ele>349.3</ele>
        <time>2022-10-02T09:09:09Z</time>
      </trkpt>
      <trkpt lat="45.94896" lon="1.15234">
        <ele>349.1</ele>
        <time>2022-10-02T09:09:10Z</time>
      </trkpt>
      <trkpt lat="45.94893" lon="1.15241">
        <ele>348.9</ele>
        <time>2022-10-02T09:09:11Z</time>
      </trkpt>
      <trkpt lat="45.9489" lon="1.15248">
        <ele>348.7</ele>
        <time>2022-10-02T09:09:12Z</time>
      </trkpt>
      <trkpt lat="45.94887" lon="1.15255">
        <ele>348.6</ele>
        <time>2022-10-02T09:09:13Z</time>
      </trkpt>
      <trkpt lat="45.94884" lon="1.15263">
        <ele>348.4</ele>
        <time>2022-10-02T09:09:14Z</time>
      </trkpt>
      <trkpt lat="45.94881" lon="1.15272">
        <ele>348.3</ele>
        <time>2022-10-02T09:09:15Z</time>
      </trkpt>
      <trkpt lat="45.94876" lon="1.15278">
        <ele>348.2</ele>
        <time>2022-10-02T09:09:16Z</time>
      </trkpt>
      <trkpt lat="45.94871" lon="1.15285">
        <ele>348.1</ele>
        <time>2022-10-02T09:09:17Z</time>
      </trkpt>
      <trkpt lat="45.94867" lon="1.15288">
        <ele>348</ele>
        <time>2022-10-02T09:09:18Z</time>
      </trkpt>
      <trkpt lat="45.94862" lon="1.15293">
        <ele>347.9</ele>
        <time>2022-10-02T09:09:19Z</time>
      </trkpt>
      <trkpt lat="45.94857" lon="1.15296">
        <ele>347.8</ele>
        <time>2022-10-02T09:09:20Z</time>
      </trkpt>
      <trkpt lat="45.94851" lon="1.15301">
        <ele>347.7</ele>
        <time>2022-10-02T09:09:21Z</time>
      </trkpt>
      <trkpt lat="45.94846" lon="1.15307">
        <ele>347.6</ele>
        <time>2022-10-02T09:09:22Z</time>
      </trkpt>
      <trkpt lat="45.9484" lon="1.15309">
        <ele>347.4</ele>
        <time>2022-10-02T09:09:23Z</time>
      </trkpt>
      <trkpt lat="45.94834" lon="1.15312">
        <ele>347.3</ele>
        <time>2022-10-02T09:09:24Z</time>
      </trkpt>
      <trkpt lat="45.94829" lon="1.15316">
        <ele>347.2</ele>
        <time>2022-10-02T09:09:25Z</time>
      </trkpt>
      <trkpt lat="45.94825" lon="1.15317">
        <ele>347.1</ele>
        <time>2022-10-02T09:09:26Z</time>
      </trkpt>
      <trkpt lat="45.94823" lon="1.15319">
        <ele>347</ele>
        <time>2022-10-02T09:09:27Z</time>
      </trkpt>
      <trkpt lat="45.94822" lon="1.15321">
        <ele>347</ele>
        <time>2022-10-02T09:09:28Z</time>
      </trkpt>
      <trkpt lat="45.9482" lon="1.15324">
        <ele>346.9</ele>
        <time>2022-10-02T09:09:29Z</time>
      </trkpt>
      <trkpt lat="45.94818" lon="1.15326">
        <ele>346.8</ele>
        <time>2022-10-02T09:09:30Z</time>
      </trkpt>
      <trkpt lat="45.94814" lon="1.15328">
        <ele>346.7</ele>
        <time>2022-10-02T09:09:31Z</time>
      </trkpt>
      <trkpt lat="45.94809" lon="1.15332">
        <ele>346.6</ele>
        <time>2022-10-02T09:09:32Z</time>
      </trkpt>
      <trkpt lat="45.94805" lon="1.15336">
        <ele>346.5</ele>
        <time>2022-10-02T09:09:33Z</time>
      </trkpt>
      <trkpt lat="45.94799" lon="1.15339">
        <ele>346.3</ele>
        <time>2022-10-02T09:09:34Z</time>
      </trkpt>
      <trkpt lat="45.94794" lon="1.15342">
        <ele>346.1</ele>
        <time>2022-10-02T09:09:35Z</time>
      </trkpt>
      <trkpt lat="45.9479" lon="1.15345">
        <ele>345.9</ele>
        <time>2022-10-02T09:09:36Z</time>
      </trkpt>
      <trkpt lat="45.94787" lon="1.1535">
        <ele>345.7</ele>
        <time>2022-10-02T09:09:37Z</time>
      </trkpt>
      <trkpt lat="45.94787" lon="1.15358">
        <ele>344.9</ele>
        <time>2022-10-02T09:09:38Z</time>
      </trkpt>
      <trkpt lat="45.94787" lon="1.15365">
        <ele>344.4</ele>
        <time>2022-10-02T09:09:39Z</time>
      </trkpt>
      <trkpt lat="45.94791" lon="1.15375">
        <ele>343.5</ele>
        <time>2022-10-02T09:09:40Z</time>
      </trkpt>
      <trkpt lat="45.94792" lon="1.15383">
        <ele>343</ele>
        <time>2022-10-02T09:09:41Z</time>
      </trkpt>
      <trkpt lat="45.94796" lon="1.15392">
        <ele>342.3</ele>
        <time>2022-10-02T09:09:42Z</time>
      </trkpt>
      <trkpt lat="45.94798" lon="1.15401">
        <ele>341.7</ele>
        <time>2022-10-02T09:09:43Z</time>
      </trkpt>
      <trkpt lat="45.94803" lon="1.1541">
        <ele>341</ele>
        <time>2022-10-02T09:09:44Z</time>
      </trkpt>
      <trkpt lat="45.94807" lon="1.1542">
        <ele>340.3</ele>
        <time>2022-10-02T09:09:45Z</time>
      </trkpt>
      <trkpt lat="45.94811" lon="1.15429">
        <ele>339.6</ele>
        <time>2022-10-02T09:09:46Z</time>
      </trkpt>
      <trkpt lat="45.94815" lon="1.15439">
        <ele>338.9</ele>
        <time>2022-10-02T09:09:47Z</time>
      </trkpt>
      <trkpt lat="45.94821" lon="1.1545">
        <ele>338.1</ele>
        <time>2022-10-02T09:09:48Z</time>
      </trkpt>
      <trkpt lat="45.94826" lon="1.1546">
        <ele>337.3</ele>
        <time>2022-10-02T09:09:49Z</time>
      </trkpt>
      <trkpt lat="45.94829" lon="1.1547">
        <ele>336.6</ele>
        <time>2022-10-02T09:09:50Z</time>
      </trkpt>
      <trkpt lat="45.94833" lon="1.1548">
        <ele>335.8</ele>
        <time>2022-10-02T09:09:51Z</time>
      </trkpt>
      <trkpt lat="45.94837" lon="1.1549">
        <ele>335.1</ele>
        <time>2022-10-02T09:09:52Z</time>
      </trkpt>
      <trkpt lat="45.9484" lon="1.15501">
        <ele>334.5</ele>
        <time>2022-10-02T09:09:53Z</time>
      </trkpt>
      <trkpt lat="45.94843" lon="1.1551">
        <ele>334.1</ele>
        <time>2022-10-02T09:09:54Z</time>
      </trkpt>
      <trkpt lat="45.94848" lon="1.15518">
        <ele>333.7</ele>
        <time>2022-10-02T09:09:55Z</time>
      </trkpt>
      <trkpt lat="45.94849" lon="1.15526">
        <ele>333.4</ele>
        <time>2022-10-02T09:09:56Z</time>
      </trkpt>
      <trkpt lat="45.94849" lon="1.15534">
        <ele>333.2</ele>
        <time>2022-10-02T09:09:57Z</time>
      </trkpt>
      <trkpt lat="45.94848" lon="1.15542">
        <ele>332.9</ele>
        <time>2022-10-02T09:09:58Z</time>
      </trkpt>
      <trkpt lat="45.94848" lon="1.15551">
        <ele>332.7</ele>
        <time>2022-10-02T09:09:59Z</time>
      </trkpt>
      <trkpt lat="45.94847" lon="1.1556">
        <ele>332.4</ele>
        <time>2022-10-02T09:10:00Z</time>
      </trkpt>
      <trkpt lat="45.94847" lon="1.15568">
        <ele>332.3</ele>
        <time>2022-10-02T09:10:01Z</time>
      </trkpt>
      <trkpt lat="45.94848" lon="1.15577">
        <ele>332.2</ele>
        <time>2022-10-02T09:10:02Z</time>
      </trkpt>
      <trkpt lat="45.94849" lon="1.15586">
        <ele>332.1</ele>
        <time>2022-10-02T09:10:03Z</time>
      </trkpt>
      <trkpt lat="45.94846" lon="1.15593">
        <ele>332</ele>
        <time>2022-10-02T09:10:04Z</time>
      </trkpt>
      <trkpt lat="45.94844" lon="1.15601">
        <ele>332</ele>
        <time>2022-10-02T09:10:05Z</time>
      </trkpt>
      <trkpt lat="45.94843" lon="1.15608">
        <ele>332</ele>
        <time>2022-10-02T09:10:06Z</time>
      </trkpt>
      <trkpt lat="45.94845" lon="1.15616">
        <ele>332</ele>
        <time>2022-10-02T09:10:07Z</time>
      </trkpt>
      <trkpt lat="45.94844" lon="1.15621">
        <ele>332</ele>
        <time>2022-10-02T09:10:08Z</time>
      </trkpt>
      <trkpt lat="45.94844" lon="1.15629">
        <ele>332.1</ele>
        <time>2022-10-02T09:10:09Z</time>
      </trkpt>
      <trkpt lat="45.94845" lon="1.15637">
        <ele>332.2</ele>
        <time>2022-10-02T09:10:10Z</time>
      </trkpt>
      <trkpt lat="45.94845" lon="1.15643">
        <ele>332.3</ele>
        <time>2022-10-02T09:10:11Z</time>
      </trkpt>
      <trkpt lat="45.94845" lon="1.1565">
        <ele>332.4</ele>
        <time>2022-10-02T09:10:12Z</time>
      </trkpt>
      <trkpt lat="45.94845" lon="1.15658">
        <ele>332.5</ele>
        <time>2022-10-02T09:10:13Z</time>
      </trkpt>
      <trkpt lat="45.94845" lon="1.15666">
        <ele>332.7</ele>
        <time>2022-10-02T09:10:14Z</time>
      </trkpt>
      <trkpt lat="45.94845" lon="1.15674">
        <ele>332.9</ele>
        <time>2022-10-02T09:10:15Z</time>
      </trkpt>
      <trkpt lat="45.94846" lon="1.15682">
        <ele>333.1</ele>
        <time>2022-10-02T09:10:16Z</time>
      </trkpt>
      <trkpt lat="45.94845" lon="1.15689">
        <ele>333.3</ele>
        <time>2022-10-02T09:10:17Z</time>
      </trkpt>
      <trkpt lat="45.94845" lon="1.15698">
        <ele>333.6</ele>
        <time>2022-10-02T09:10:18Z</time>
      </trkpt>
      <trkpt lat="45.94849" lon="1.15707">
        <ele>333.9</ele>
        <time>2022-10-02T09:10:19Z</time>
      </trkpt>
      <trkpt lat="45.94847" lon="1.15715">
        <ele>334.2</ele>
        <time>2022-10-02T09:10:20Z</time>
      </trkpt>
      <trkpt lat="45.9485" lon="1.15726">
        <ele>334.7</ele>
        <time>2022-10-02T09:10:21Z</time>
      </trkpt>
      <trkpt lat="45.94852" lon="1.15733">
        <ele>335</ele>
        <time>2022-10-02T09:10:22Z</time>
      </trkpt>
      <trkpt lat="45.94854" lon="1.1575">
        <ele>335.6</ele>
        <time>2022-10-02T09:10:23Z</time>
      </trkpt>
      <trkpt lat="45.94856" lon="1.15757">
        <ele>335.8</ele>
        <time>2022-10-02T09:10:24Z</time>
      </trkpt>
      <trkpt lat="45.94858" lon="1.15763">
        <ele>336</ele>
        <time>2022-10-02T09:10:25Z</time>
      </trkpt>
      <trkpt lat="45.94862" lon="1.15776">
        <ele>336.3</ele>
        <time>2022-10-02T09:10:26Z</time>
      </trkpt>
      <trkpt lat="45.94864" lon="1.15781">
        <ele>336.4</ele>
        <time>2022-10-02T09:10:27Z</time>
      </trkpt>
      <trkpt lat="45.94867" lon="1.15787">
        <ele>336.4</ele>
        <time>2022-10-02T09:10:28Z</time>
      </trkpt>
      <trkpt lat="45.94871" lon="1.15794">
        <ele>336.5</ele>
        <time>2022-10-02T09:10:29Z</time>
      </trkpt>
      <trkpt lat="45.94873" lon="1.15798">
        <ele>336.5</ele>
        <time>2022-10-02T09:10:30Z</time>
      </trkpt>
      <trkpt lat="45.94876" lon="1.15802">
        <ele>336.6</ele>
        <time>2022-10-02T09:10:31Z</time>
      </trkpt>
      <trkpt lat="45.94882" lon="1.15811">
        <ele>336.5</ele>
        <time>2022-10-02T09:10:32Z</time>
      </trkpt>
      <trkpt lat="45.94886" lon="1.15817">
        <ele>336.5</ele>
        <time>2022-10-02T09:10:33Z</time>
      </trkpt>
      <trkpt lat="45.94889" lon="1.15823">
        <ele>336.4</ele>
        <time>2022-10-02T09:10:34Z</time>
      </trkpt>
      <trkpt lat="45.94892" lon="1.1583">
        <ele>336.3</ele>
        <time>2022-10-02T09:10:35Z</time>
      </trkpt>
      <trkpt lat="45.94895" lon="1.15839">
        <ele>336.1</ele>
        <time>2022-10-02T09:10:36Z</time>
      </trkpt>
      <trkpt lat="45.94897" lon="1.15845">
        <ele>336</ele>
        <time>2022-10-02T09:10:37Z</time>
      </trkpt>
      <trkpt lat="45.94898" lon="1.15854">
        <ele>335.9</ele>
        <time>2022-10-02T09:10:38Z</time>
      </trkpt>
      <trkpt lat="45.949" lon="1.1586">
        <ele>335.8</ele>
        <time>2022-10-02T09:10:39Z</time>
      </trkpt>
      <trkpt lat="45.94903" lon="1.15868">
        <ele>335.7</ele>
        <time>2022-10-02T09:10:40Z</time>
      </trkpt>
      <trkpt lat="45.94906" lon="1.15877">
        <ele>335.6</ele>
        <time>2022-10-02T09:10:41Z</time>
      </trkpt>
      <trkpt lat="45.94908" lon="1.15884">
        <ele>335.5</ele>
        <time>2022-10-02T09:10:42Z</time>
      </trkpt>
      <trkpt lat="45.94912" lon="1.15891">
        <ele>335.5</ele>
        <time>2022-10-02T09:10:43Z</time>
      </trkpt>
      <trkpt lat="45.94913" lon="1.15898">
        <ele>335.5</ele>
        <time>2022-10-02T09:10:44Z</time>
      </trkpt>
      <trkpt lat="45.94915" lon="1.15905">
        <ele>335.5</ele>
        <time>2022-10-02T09:10:45Z</time>
      </trkpt>
      <trkpt lat="45.94916" lon="1.15914">
        <ele>335.5</ele>
        <time>2022-10-02T09:10:46Z</time>
      </trkpt>
      <trkpt lat="45.94916" lon="1.15921">
        <ele>335.6</ele>
        <time>2022-10-02T09:10:47Z</time>
      </trkpt>
      <trkpt lat="45.94915" lon="1.15927">
        <ele>335.7</ele>
        <time>2022-10-02T09:10:48Z</time>
      </trkpt>
      <trkpt lat="45.94916" lon="1.15933">
        <ele>335.8</ele>
        <time>2022-10-02T09:10:49Z</time>
      </trkpt>
      <trkpt lat="45.94917" lon="1.15943">
        <ele>336.1</ele>
        <time>2022-10-02T09:10:50Z</time>
      </trkpt>
      <trkpt lat="45.94918" lon="1.15949">
        <ele>336.4</ele>
        <time>2022-10-02T09:10:51Z</time>
      </trkpt>
      <trkpt lat="45.94918" lon="1.15956">
        <ele>336.7</ele>
        <time>2022-10-02T09:10:52Z</time>
      </trkpt>
      <trkpt lat="45.94917" lon="1.15963">
        <ele>337.1</ele>
        <time>2022-10-02T09:10:53Z</time>
      </trkpt>
      <trkpt lat="45.94917" lon="1.15969">
        <ele>337.5</ele>
        <time>2022-10-02T09:10:54Z</time>
      </trkpt>
      <trkpt lat="45.94917" lon="1.15975">
        <ele>337.9</ele>
        <time>2022-10-02T09:10:55Z</time>
      </trkpt>
      <trkpt lat="45.94916" lon="1.15982">
        <ele>338.2</ele>
        <time>2022-10-02T09:10:56Z</time>
      </trkpt>
      <trkpt lat="45.94916" lon="1.15989">
        <ele>338.6</ele>
        <time>2022-10-02T09:10:57Z</time>
      </trkpt>
      <trkpt lat="45.94916" lon="1.15993">
        <ele>338.9</ele>
        <time>2022-10-02T09:10:58Z</time>
      </trkpt>
      <trkpt lat="45.94916" lon="1.15998">
        <ele>339.2</ele>
        <time>2022-10-02T09:10:59Z</time>
      </trkpt>
      <trkpt lat="45.94917" lon="1.16005">
        <ele>339.6</ele>
        <time>2022-10-02T09:11:00Z</time>
      </trkpt>
      <trkpt lat="45.94918" lon="1.16011">
        <ele>339.9</ele>
        <time>2022-10-02T09:11:01Z</time>
      </trkpt>
      <trkpt lat="45.94919" lon="1.16018">
        <ele>340.3</ele>
        <time>2022-10-02T09:11:02Z</time>
      </trkpt>
      <trkpt lat="45.94921" lon="1.16023">
        <ele>340.6</ele>
        <time>2022-10-02T09:11:03Z</time>
      </trkpt>
      <trkpt lat="45.94921" lon="1.16029">
        <ele>340.9</ele>
        <time>2022-10-02T09:11:04Z</time>
      </trkpt>
      <trkpt lat="45.94922" lon="1.16035">
        <ele>341.2</ele>
        <time>2022-10-02T09:11:05Z</time>
      </trkpt>
      <trkpt lat="45.94923" lon="1.1604">
        <ele>341.5</ele>
        <time>2022-10-02T09:11:06Z</time>
      </trkpt>
      <trkpt lat="45.94926" lon="1.16047">
        <ele>341.8</ele>
        <time>2022-10-02T09:11:07Z</time>
      </trkpt>
      <trkpt lat="45.94928" lon="1.16054">
        <ele>342.1</ele>
        <time>2022-10-02T09:11:08Z</time>
      </trkpt>
      <trkpt lat="45.94929" lon="1.16061">
        <ele>342.4</ele>
        <time>2022-10-02T09:11:09Z</time>
      </trkpt>
      <trkpt lat="45.94931" lon="1.16069">
        <ele>342.6</ele>
        <time>2022-10-02T09:11:10Z</time>
      </trkpt>
      <trkpt lat="45.94933" lon="1.16075">
        <ele>342.8</ele>
        <time>2022-10-02T09:11:11Z</time>
      </trkpt>
      <trkpt lat="45.94935" lon="1.16081">
        <ele>342.9</ele>
        <time>2022-10-02T09:11:12Z</time>
      </trkpt>
      <trkpt lat="45.94937" lon="1.16087">
        <ele>342.9</ele>
        <time>2022-10-02T09:11:13Z</time>
      </trkpt>
      <trkpt lat="45.94938" lon="1.16092">
        <ele>343</ele>
        <time>2022-10-02T09:11:14Z</time>
      </trkpt>
      <trkpt lat="45.9494" lon="1.16096">
        <ele>343</ele>
        <time>2022-10-02T09:11:15Z</time>
      </trkpt>
      <trkpt lat="45.94941" lon="1.16101">
        <ele>343</ele>
        <time>2022-10-02T09:11:16Z</time>
      </trkpt>
      <trkpt lat="45.9494" lon="1.16107">
        <ele>342.8</ele>
        <time>2022-10-02T09:11:17Z</time>
      </trkpt>
      <trkpt lat="45.94938" lon="1.16108">
        <ele>342.7</ele>
        <time>2022-10-02T09:11:18Z</time>
      </trkpt>
      <trkpt lat="45.94935" lon="1.16108">
        <ele>342.6</ele>
        <time>2022-10-02T09:11:19Z</time>
      </trkpt>
      <trkpt lat="45.94932" lon="1.16108">
        <ele>342.5</ele>
        <time>2022-10-02T09:11:20Z</time>
      </trkpt>
      <trkpt lat="45.9493" lon="1.16109">
        <ele>342.4</ele>
        <time>2022-10-02T09:11:21Z</time>
      </trkpt>
      <trkpt lat="45.94924" lon="1.1611">
        <ele>342.2</ele>
        <time>2022-10-02T09:11:22Z</time>
      </trkpt>
      <trkpt lat="45.94918" lon="1.16111">
        <ele>342.1</ele>
        <time>2022-10-02T09:11:23Z</time>
      </trkpt>
      <trkpt lat="45.94912" lon="1.1611">
        <ele>341.9</ele>
        <time>2022-10-02T09:11:24Z</time>
      </trkpt>
      <trkpt lat="45.94906" lon="1.1611">
        <ele>341.7</ele>
        <time>2022-10-02T09:11:25Z</time>
      </trkpt>
      <trkpt lat="45.949" lon="1.1611">
        <ele>341.5</ele>
        <time>2022-10-02T09:11:26Z</time>
      </trkpt>
      <trkpt lat="45.94895" lon="1.16109">
        <ele>341.4</ele>
        <time>2022-10-02T09:11:27Z</time>
      </trkpt>
      <trkpt lat="45.94889" lon="1.16106">
        <ele>341.2</ele>
        <time>2022-10-02T09:11:28Z</time>
      </trkpt>
      <trkpt lat="45.94884" lon="1.16107">
        <ele>341.1</ele>
        <time>2022-10-02T09:11:29Z</time>
      </trkpt>
      <trkpt lat="45.94879" lon="1.16107">
        <ele>340.9</ele>
        <time>2022-10-02T09:11:30Z</time>
      </trkpt>
      <trkpt lat="45.94873" lon="1.16107">
        <ele>340.7</ele>
        <time>2022-10-02T09:11:31Z</time>
      </trkpt>
      <trkpt lat="45.94867" lon="1.16106">
        <ele>340.4</ele>
        <time>2022-10-02T09:11:32Z</time>
      </trkpt>
      <trkpt lat="45.94861" lon="1.16106">
        <ele>340.2</ele>
        <time>2022-10-02T09:11:33Z</time>
      </trkpt>
      <trkpt lat="45.94854" lon="1.16107">
        <ele>339.8</ele>
        <time>2022-10-02T09:11:34Z</time>
      </trkpt>
      <trkpt lat="45.94848" lon="1.16106">
        <ele>339.4</ele>
        <time>2022-10-02T09:11:35Z</time>
      </trkpt>
      <trkpt lat="45.94841" lon="1.16106">
        <ele>339.1</ele>
        <time>2022-10-02T09:11:36Z</time>
      </trkpt>
      <trkpt lat="45.94834" lon="1.16106">
        <ele>338.8</ele>
        <time>2022-10-02T09:11:37Z</time>
      </trkpt>
      <trkpt lat="45.94828" lon="1.16107">
        <ele>338.5</ele>
        <time>2022-10-02T09:11:38Z</time>
      </trkpt>
      <trkpt lat="45.94822" lon="1.16106">
        <ele>338.2</ele>
        <time>2022-10-02T09:11:39Z</time>
      </trkpt>
      <trkpt lat="45.94817" lon="1.16106">
        <ele>338</ele>
        <time>2022-10-02T09:11:40Z</time>
      </trkpt>
      <trkpt lat="45.94811" lon="1.16106">
        <ele>337.8</ele>
        <time>2022-10-02T09:11:41Z</time>
      </trkpt>
      <trkpt lat="45.94805" lon="1.16105">
        <ele>337.7</ele>
        <time>2022-10-02T09:11:42Z</time>
      </trkpt>
      <trkpt lat="45.94799" lon="1.16106">
        <ele>337.5</ele>
        <time>2022-10-02T09:11:43Z</time>
      </trkpt>
      <trkpt lat="45.94795" lon="1.16107">
        <ele>337.4</ele>
        <time>2022-10-02T09:11:44Z</time>
      </trkpt>
      <trkpt lat="45.9479" lon="1.16109">
        <ele>337.3</ele>
        <time>2022-10-02T09:11:45Z</time>
      </trkpt>
      <trkpt lat="45.94784" lon="1.16112">
        <ele>337.1</ele>
        <time>2022-10-02T09:11:46Z</time>
      </trkpt>
      <trkpt lat="45.94779" lon="1.16114">
        <ele>337</ele>
        <time>2022-10-02T09:11:47Z</time>
      </trkpt>
      <trkpt lat="45.94775" lon="1.16119">
        <ele>336.8</ele>
        <time>2022-10-02T09:11:48Z</time>
      </trkpt>
      <trkpt lat="45.94769" lon="1.16121">
        <ele>336.7</ele>
        <time>2022-10-02T09:11:49Z</time>
      </trkpt>
      <trkpt lat="45.94766" lon="1.16124">
        <ele>336.6</ele>
        <time>2022-10-02T09:11:50Z</time>
      </trkpt>
      <trkpt lat="45.9476" lon="1.16124">
        <ele>336.4</ele>
        <time>2022-10-02T09:11:51Z</time>
      </trkpt>
      <trkpt lat="45.94755" lon="1.16128">
        <ele>336.3</ele>
        <time>2022-10-02T09:11:52Z</time>
      </trkpt>
      <trkpt lat="45.94751" lon="1.16132">
        <ele>336.2</ele>
        <time>2022-10-02T09:11:53Z</time>
      </trkpt>
      <trkpt lat="45.94746" lon="1.16136">
        <ele>336</ele>
        <time>2022-10-02T09:11:54Z</time>
      </trkpt>
      <trkpt lat="45.9474" lon="1.16139">
        <ele>335.9</ele>
        <time>2022-10-02T09:11:55Z</time>
      </trkpt>
      <trkpt lat="45.94735" lon="1.16139">
        <ele>335.7</ele>
        <time>2022-10-02T09:11:56Z</time>
      </trkpt>
      <trkpt lat="45.94729" lon="1.16143">
        <ele>335.6</ele>
        <time>2022-10-02T09:11:57Z</time>
      </trkpt>
      <trkpt lat="45.94726" lon="1.16145">
        <ele>335.5</ele>
        <time>2022-10-02T09:11:58Z</time>
      </trkpt>
      <trkpt lat="45.94719" lon="1.16145">
        <ele>335.3</ele>
        <time>2022-10-02T09:11:59Z</time>
      </trkpt>
      <trkpt lat="45.94715" lon="1.16146">
        <ele>335.2</ele>
        <time>2022-10-02T09:12:00Z</time>
      </trkpt>
      <trkpt lat="45.9471" lon="1.16149">
        <ele>335.1</ele>
        <time>2022-10-02T09:12:01Z</time>
      </trkpt>
      <trkpt lat="45.94706" lon="1.16152">
        <ele>335</ele>
        <time>2022-10-02T09:12:02Z</time>
      </trkpt>
      <trkpt lat="45.94702" lon="1.16155">
        <ele>334.9</ele>
        <time>2022-10-02T09:12:03Z</time>
      </trkpt>
      <trkpt lat="45.94698" lon="1.16157">
        <ele>334.8</ele>
        <time>2022-10-02T09:12:04Z</time>
      </trkpt>
      <trkpt lat="45.94695" lon="1.16159">
        <ele>334.7</ele>
        <time>2022-10-02T09:12:05Z</time>
      </trkpt>
      <trkpt lat="45.9469" lon="1.16162">
        <ele>334.6</ele>
        <time>2022-10-02T09:12:06Z</time>
      </trkpt>
      <trkpt lat="45.94686" lon="1.16163">
        <ele>334.5</ele>
        <time>2022-10-02T09:12:07Z</time>
      </trkpt>
      <trkpt lat="45.94682" lon="1.16165">
        <ele>334.4</ele>
        <time>2022-10-02T09:12:08Z</time>
      </trkpt>
      <trkpt lat="45.94679" lon="1.16169">
        <ele>334.2</ele>
        <time>2022-10-02T09:12:09Z</time>
      </trkpt>
      <trkpt lat="45.94676" lon="1.16173">
        <ele>334.1</ele>
        <time>2022-10-02T09:12:10Z</time>
      </trkpt>
      <trkpt lat="45.94671" lon="1.16175">
        <ele>334</ele>
        <time>2022-10-02T09:12:11Z</time>
      </trkpt>
      <trkpt lat="45.94664" lon="1.16179">
        <ele>333.8</ele>
        <time>2022-10-02T09:12:12Z</time>
      </trkpt>
      <trkpt lat="45.94659" lon="1.16183">
        <ele>333.6</ele>
        <time>2022-10-02T09:12:13Z</time>
      </trkpt>
      <trkpt lat="45.94653" lon="1.16186">
        <ele>333.5</ele>
        <time>2022-10-02T09:12:14Z</time>
      </trkpt>
      <trkpt lat="45.94647" lon="1.1619">
        <ele>333.3</ele>
        <time>2022-10-02T09:12:15Z</time>
      </trkpt>
      <trkpt lat="45.94642" lon="1.16192">
        <ele>333.1</ele>
        <time>2022-10-02T09:12:16Z</time>
      </trkpt>
      <trkpt lat="45.94638" lon="1.16192">
        <ele>333</ele>
        <time>2022-10-02T09:12:17Z</time>
      </trkpt>
      <trkpt lat="45.94633" lon="1.16194">
        <ele>332.8</ele>
        <time>2022-10-02T09:12:18Z</time>
      </trkpt>
      <trkpt lat="45.94629" lon="1.16195">
        <ele>332.6</ele>
        <time>2022-10-02T09:12:19Z</time>
      </trkpt>
      <trkpt lat="45.94623" lon="1.16196">
        <ele>332.5</ele>
        <time>2022-10-02T09:12:20Z</time>
      </trkpt>
      <trkpt lat="45.94616" lon="1.162">
        <ele>332.4</ele>
        <time>2022-10-02T09:12:21Z</time>
      </trkpt>
      <trkpt lat="45.94611" lon="1.16203">
        <ele>332.2</ele>
        <time>2022-10-02T09:12:22Z</time>
      </trkpt>
      <trkpt lat="45.94604" lon="1.16204">
        <ele>332</ele>
        <time>2022-10-02T09:12:23Z</time>
      </trkpt>
      <trkpt lat="45.94598" lon="1.16204">
        <ele>331.8</ele>
        <time>2022-10-02T09:12:24Z</time>
      </trkpt>
      <trkpt lat="45.94593" lon="1.16207">
        <ele>331.5</ele>
        <time>2022-10-02T09:12:25Z</time>
      </trkpt>
      <trkpt lat="45.94587" lon="1.16206">
        <ele>331.3</ele>
        <time>2022-10-02T09:12:26Z</time>
      </trkpt>
      <trkpt lat="45.94582" lon="1.16207">
        <ele>331.2</ele>
        <time>2022-10-02T09:12:27Z</time>
      </trkpt>
      <trkpt lat="45.94578" lon="1.16209">
        <ele>331</ele>
        <time>2022-10-02T09:12:28Z</time>
      </trkpt>
      <trkpt lat="45.94572" lon="1.16214">
        <ele>330.8</ele>
        <time>2022-10-02T09:12:29Z</time>
      </trkpt>
      <trkpt lat="45.94568" lon="1.16216">
        <ele>330.6</ele>
        <time>2022-10-02T09:12:30Z</time>
      </trkpt>
      <trkpt lat="45.94563" lon="1.16219">
        <ele>330.5</ele>
        <time>2022-10-02T09:12:31Z</time>
      </trkpt>
      <trkpt lat="45.94556" lon="1.16223">
        <ele>330.3</ele>
        <time>2022-10-02T09:12:32Z</time>
      </trkpt>
      <trkpt lat="45.94551" lon="1.16227">
        <ele>330.1</ele>
        <time>2022-10-02T09:12:33Z</time>
      </trkpt>
      <trkpt lat="45.94545" lon="1.16231">
        <ele>329.9</ele>
        <time>2022-10-02T09:12:34Z</time>
      </trkpt>
      <trkpt lat="45.9454" lon="1.16233">
        <ele>329.8</ele>
        <time>2022-10-02T09:12:35Z</time>
      </trkpt>
      <trkpt lat="45.94534" lon="1.16235">
        <ele>329.6</ele>
        <time>2022-10-02T09:12:36Z</time>
      </trkpt>
      <trkpt lat="45.94529" lon="1.16235">
        <ele>329.5</ele>
        <time>2022-10-02T09:12:37Z</time>
      </trkpt>
      <trkpt lat="45.94522" lon="1.16236">
        <ele>329.3</ele>
        <time>2022-10-02T09:12:38Z</time>
      </trkpt>
      <trkpt lat="45.94517" lon="1.16239">
        <ele>329.2</ele>
        <time>2022-10-02T09:12:39Z</time>
      </trkpt>
      <trkpt lat="45.94511" lon="1.16244">
        <ele>329</ele>
        <time>2022-10-02T09:12:40Z</time>
      </trkpt>
      <trkpt lat="45.94506" lon="1.16246">
        <ele>328.9</ele>
        <time>2022-10-02T09:12:41Z</time>
      </trkpt>
      <trkpt lat="45.94501" lon="1.1625">
        <ele>328.9</ele>
        <time>2022-10-02T09:12:42Z</time>
      </trkpt>
      <trkpt lat="45.94495" lon="1.16254">
        <ele>328.8</ele>
        <time>2022-10-02T09:12:43Z</time>
      </trkpt>
      <trkpt lat="45.94489" lon="1.16256">
        <ele>328.7</ele>
        <time>2022-10-02T09:12:44Z</time>
      </trkpt>
      <trkpt lat="45.94484" lon="1.16258">
        <ele>328.7</ele>
        <time>2022-10-02T09:12:45Z</time>
      </trkpt>
      <trkpt lat="45.94479" lon="1.16259">
        <ele>328.6</ele>
        <time>2022-10-02T09:12:46Z</time>
      </trkpt>
      <trkpt lat="45.94473" lon="1.16261">
        <ele>328.6</ele>
        <time>2022-10-02T09:12:47Z</time>
      </trkpt>
      <trkpt lat="45.94469" lon="1.16263">
        <ele>328.6</ele>
        <time>2022-10-02T09:12:48Z</time>
      </trkpt>
      <trkpt lat="45.94464" lon="1.16262">
        <ele>328.6</ele>
        <time>2022-10-02T09:12:49Z</time>
      </trkpt>
      <trkpt lat="45.9446" lon="1.16263">
        <ele>328.5</ele>
        <time>2022-10-02T09:12:50Z</time>
      </trkpt>
      <trkpt lat="45.94456" lon="1.16264">
        <ele>328.5</ele>
        <time>2022-10-02T09:12:51Z</time>
      </trkpt>
      <trkpt lat="45.94452" lon="1.16266">
        <ele>328.5</ele>
        <time>2022-10-02T09:12:52Z</time>
      </trkpt>
      <trkpt lat="45.94449" lon="1.16267">
        <ele>328.5</ele>
        <time>2022-10-02T09:12:53Z</time>
      </trkpt>
      <trkpt lat="45.94445" lon="1.16269">
        <ele>328.5</ele>
        <time>2022-10-02T09:12:54Z</time>
      </trkpt>
      <trkpt lat="45.94443" lon="1.1627">
        <ele>328.5</ele>
        <time>2022-10-02T09:12:55Z</time>
      </trkpt>
      <trkpt lat="45.9444" lon="1.1627">
        <ele>328.5</ele>
        <time>2022-10-02T09:12:56Z</time>
      </trkpt>
      <trkpt lat="45.94436" lon="1.16269">
        <ele>328.5</ele>
        <time>2022-10-02T09:12:57Z</time>
      </trkpt>
      <trkpt lat="45.94432" lon="1.1627">
        <ele>328.5</ele>
        <time>2022-10-02T09:12:58Z</time>
      </trkpt>
      <trkpt lat="45.94428" lon="1.16269">
        <ele>328.5</ele>
        <time>2022-10-02T09:12:59Z</time>
      </trkpt>
      <trkpt lat="45.94426" lon="1.16269">
        <ele>328.5</ele>
        <time>2022-10-02T09:13:00Z</time>
      </trkpt>
      <trkpt lat="45.94423" lon="1.1627">
        <ele>328.5</ele>
        <time>2022-10-02T09:13:01Z</time>
      </trkpt>
      <trkpt lat="45.9442" lon="1.1627">
        <ele>328.5</ele>
        <time>2022-10-02T09:13:02Z</time>
      </trkpt>
      <trkpt lat="45.94416" lon="1.16271">
        <ele>328.5</ele>
        <time>2022-10-02T09:13:03Z</time>
      </trkpt>
      <trkpt lat="45.94412" lon="1.16272">
        <ele>328.4</ele>
        <time>2022-10-02T09:13:04Z</time>
      </trkpt>
      <trkpt lat="45.94407" lon="1.16273">
        <ele>328.4</ele>
        <time>2022-10-02T09:13:05Z</time>
      </trkpt>
      <trkpt lat="45.94403" lon="1.16274">
        <ele>328.3</ele>
        <time>2022-10-02T09:13:06Z</time>
      </trkpt>
      <trkpt lat="45.94399" lon="1.16276">
        <ele>328.2</ele>
        <time>2022-10-02T09:13:07Z</time>
      </trkpt>
      <trkpt lat="45.94395" lon="1.16277">
        <ele>328.1</ele>
        <time>2022-10-02T09:13:08Z</time>
      </trkpt>
      <trkpt lat="45.94392" lon="1.16277">
        <ele>327.9</ele>
        <time>2022-10-02T09:13:09Z</time>
      </trkpt>
      <trkpt lat="45.94388" lon="1.16278">
        <ele>327.8</ele>
        <time>2022-10-02T09:13:10Z</time>
      </trkpt>
      <trkpt lat="45.94384" lon="1.1628">
        <ele>327.6</ele>
        <time>2022-10-02T09:13:11Z</time>
      </trkpt>
      <trkpt lat="45.9438" lon="1.16282">
        <ele>327.4</ele>
        <time>2022-10-02T09:13:12Z</time>
      </trkpt>
      <trkpt lat="45.94374" lon="1.16286">
        <ele>327.1</ele>
        <time>2022-10-02T09:13:13Z</time>
      </trkpt>
      <trkpt lat="45.9437" lon="1.16288">
        <ele>326.9</ele>
        <time>2022-10-02T09:13:14Z</time>
      </trkpt>
      <trkpt lat="45.94364" lon="1.16291">
        <ele>326.5</ele>
        <time>2022-10-02T09:13:15Z</time>
      </trkpt>
      <trkpt lat="45.94359" lon="1.16293">
        <ele>326.2</ele>
        <time>2022-10-02T09:13:16Z</time>
      </trkpt>
      <trkpt lat="45.94354" lon="1.16295">
        <ele>325.9</ele>
        <time>2022-10-02T09:13:17Z</time>
      </trkpt>
      <trkpt lat="45.94348" lon="1.16298">
        <ele>325.6</ele>
        <time>2022-10-02T09:13:18Z</time>
      </trkpt>
      <trkpt lat="45.94343" lon="1.163">
        <ele>325.3</ele>
        <time>2022-10-02T09:13:19Z</time>
      </trkpt>
      <trkpt lat="45.94337" lon="1.16303">
        <ele>325</ele>
        <time>2022-10-02T09:13:20Z</time>
      </trkpt>
      <trkpt lat="45.94332" lon="1.16306">
        <ele>324.8</ele>
        <time>2022-10-02T09:13:21Z</time>
      </trkpt>
      <trkpt lat="45.94327" lon="1.16306">
        <ele>324.7</ele>
        <time>2022-10-02T09:13:22Z</time>
      </trkpt>
      <trkpt lat="45.94321" lon="1.16307">
        <ele>324.5</ele>
        <time>2022-10-02T09:13:23Z</time>
      </trkpt>
      <trkpt lat="45.94317" lon="1.16307">
        <ele>324.4</ele>
        <time>2022-10-02T09:13:24Z</time>
      </trkpt>
      <trkpt lat="45.94312" lon="1.16308">
        <ele>324.2</ele>
        <time>2022-10-02T09:13:25Z</time>
      </trkpt>
      <trkpt lat="45.94307" lon="1.16309">
        <ele>324.1</ele>
        <time>2022-10-02T09:13:26Z</time>
      </trkpt>
      <trkpt lat="45.94301" lon="1.16311">
        <ele>324</ele>
        <time>2022-10-02T09:13:27Z</time>
      </trkpt>
      <trkpt lat="45.94295" lon="1.16314">
        <ele>323.9</ele>
        <time>2022-10-02T09:13:28Z</time>
      </trkpt>
      <trkpt lat="45.94291" lon="1.16316">
        <ele>323.7</ele>
        <time>2022-10-02T09:13:29Z</time>
      </trkpt>
      <trkpt lat="45.94286" lon="1.16316">
        <ele>323.6</ele>
        <time>2022-10-02T09:13:30Z</time>
      </trkpt>
      <trkpt lat="45.94281" lon="1.1632">
        <ele>323.4</ele>
        <time>2022-10-02T09:13:31Z</time>
      </trkpt>
      <trkpt lat="45.9428" lon="1.16326">
        <ele>323.3</ele>
        <time>2022-10-02T09:13:32Z</time>
      </trkpt>
      <trkpt lat="45.94277" lon="1.16332">
        <ele>323</ele>
        <time>2022-10-02T09:13:33Z</time>
      </trkpt>
      <trkpt lat="45.94273" lon="1.16339">
        <ele>322.6</ele>
        <time>2022-10-02T09:13:34Z</time>
      </trkpt>
      <trkpt lat="45.94269" lon="1.16343">
        <ele>322.3</ele>
        <time>2022-10-02T09:13:35Z</time>
      </trkpt>
      <trkpt lat="45.94263" lon="1.16345">
        <ele>322</ele>
        <time>2022-10-02T09:13:36Z</time>
      </trkpt>
      <trkpt lat="45.94258" lon="1.16349">
        <ele>321.7</ele>
        <time>2022-10-02T09:13:37Z</time>
      </trkpt>
      <trkpt lat="45.94253" lon="1.16351">
        <ele>321.4</ele>
        <time>2022-10-02T09:13:38Z</time>
      </trkpt>
      <trkpt lat="45.94247" lon="1.1635">
        <ele>321.2</ele>
        <time>2022-10-02T09:13:39Z</time>
      </trkpt>
      <trkpt lat="45.94242" lon="1.16349">
        <ele>321</ele>
        <time>2022-10-02T09:13:40Z</time>
      </trkpt>
      <trkpt lat="45.94238" lon="1.16348">
        <ele>320.8</ele>
        <time>2022-10-02T09:13:41Z</time>
      </trkpt>
      <trkpt lat="45.94234" lon="1.16346">
        <ele>320.8</ele>
        <time>2022-10-02T09:13:42Z</time>
      </trkpt>
      <trkpt lat="45.9423" lon="1.16343">
        <ele>320.6</ele>
        <time>2022-10-02T09:13:43Z</time>
      </trkpt>
      <trkpt lat="45.94226" lon="1.1634">
        <ele>320.5</ele>
        <time>2022-10-02T09:13:44Z</time>
      </trkpt>
      <trkpt lat="45.94222" lon="1.16334">
        <ele>320.3</ele>
        <time>2022-10-02T09:13:45Z</time>
      </trkpt>
      <trkpt lat="45.94219" lon="1.16329">
        <ele>320.2</ele>
        <time>2022-10-02T09:13:46Z</time>
      </trkpt>
      <trkpt lat="45.94216" lon="1.16324">
        <ele>320</ele>
        <time>2022-10-02T09:13:47Z</time>
      </trkpt>
      <trkpt lat="45.94212" lon="1.1632">
        <ele>319.8</ele>
        <time>2022-10-02T09:13:48Z</time>
      </trkpt>
      <trkpt lat="45.94209" lon="1.16317">
        <ele>319.6</ele>
        <time>2022-10-02T09:13:49Z</time>
      </trkpt>
      <trkpt lat="45.94207" lon="1.16314">
        <ele>319.4</ele>
        <time>2022-10-02T09:13:50Z</time>
      </trkpt>
      <trkpt lat="45.94205" lon="1.16313">
        <ele>319.2</ele>
        <time>2022-10-02T09:13:51Z</time>
      </trkpt>
      <trkpt lat="45.94205" lon="1.16309">
        <ele>319</ele>
        <time>2022-10-02T09:13:52Z</time>
      </trkpt>
      <trkpt lat="45.94204" lon="1.16306">
        <ele>318.8</ele>
        <time>2022-10-02T09:13:53Z</time>
      </trkpt>
      <trkpt lat="45.94201" lon="1.16304">
        <ele>318.5</ele>
        <time>2022-10-02T09:13:54Z</time>
      </trkpt>
      <trkpt lat="45.94199" lon="1.16304">
        <ele>318.3</ele>
        <time>2022-10-02T09:13:55Z</time>
      </trkpt>
      <trkpt lat="45.94197" lon="1.16306">
        <ele>318</ele>
        <time>2022-10-02T09:13:56Z</time>
      </trkpt>
      <trkpt lat="45.94195" lon="1.16309">
        <ele>317.5</ele>
        <time>2022-10-02T09:13:57Z</time>
      </trkpt>
      <trkpt lat="45.94194" lon="1.16314">
        <ele>317.1</ele>
        <time>2022-10-02T09:13:58Z</time>
      </trkpt>
      <trkpt lat="45.94194" lon="1.16319">
        <ele>316.6</ele>
        <time>2022-10-02T09:13:59Z</time>
      </trkpt>
      <trkpt lat="45.94194" lon="1.16326">
        <ele>315.9</ele>
        <time>2022-10-02T09:14:00Z</time>
      </trkpt>
      <trkpt lat="45.94195" lon="1.16333">
        <ele>315.3</ele>
        <time>2022-10-02T09:14:01Z</time>
      </trkpt>
      <trkpt lat="45.94196" lon="1.1634">
        <ele>314.6</ele>
        <time>2022-10-02T09:14:02Z</time>
      </trkpt>
      <trkpt lat="45.94196" lon="1.16346">
        <ele>314.1</ele>
        <time>2022-10-02T09:14:03Z</time>
      </trkpt>
      <trkpt lat="45.94197" lon="1.16349">
        <ele>313.8</ele>
        <time>2022-10-02T09:14:04Z</time>
      </trkpt>
      <trkpt lat="45.94197" lon="1.16352">
        <ele>313.7</ele>
        <time>2022-10-02T09:14:05Z</time>
      </trkpt>
      <trkpt lat="45.94197" lon="1.16356">
        <ele>313.5</ele>
        <time>2022-10-02T09:14:06Z</time>
      </trkpt>
      <trkpt lat="45.94198" lon="1.16358">
        <ele>313.3</ele>
        <time>2022-10-02T09:14:07Z</time>
      </trkpt>
      <trkpt lat="45.94198" lon="1.16362">
        <ele>313.2</ele>
        <time>2022-10-02T09:14:08Z</time>
      </trkpt>
      <trkpt lat="45.94199" lon="1.16365">
        <ele>313.1</ele>
        <time>2022-10-02T09:14:09Z</time>
      </trkpt>
      <trkpt lat="45.94199" lon="1.16368">
        <ele>313</ele>
        <time>2022-10-02T09:14:10Z</time>
      </trkpt>
      <trkpt lat="45.94199" lon="1.16371">
        <ele>313</ele>
        <time>2022-10-02T09:14:11Z</time>
      </trkpt>
      <trkpt lat="45.94199" lon="1.16374">
        <ele>312.9</ele>
        <time>2022-10-02T09:14:12Z</time>
      </trkpt>
      <trkpt lat="45.94198" lon="1.16378">
        <ele>312.9</ele>
        <time>2022-10-02T09:14:13Z</time>
      </trkpt>
      <trkpt lat="45.94198" lon="1.1638">
        <ele>312.9</ele>
        <time>2022-10-02T09:14:14Z</time>
      </trkpt>
      <trkpt lat="45.94196" lon="1.16383">
        <ele>312.9</ele>
        <time>2022-10-02T09:14:15Z</time>
      </trkpt>
      <trkpt lat="45.94193" lon="1.16385">
        <ele>313</ele>
        <time>2022-10-02T09:14:16Z</time>
      </trkpt>
      <trkpt lat="45.94191" lon="1.16386">
        <ele>313</ele>
        <time>2022-10-02T09:14:17Z</time>
      </trkpt>
      <trkpt lat="45.94189" lon="1.16388">
        <ele>313.1</ele>
        <time>2022-10-02T09:14:18Z</time>
      </trkpt>
      <trkpt lat="45.94186" lon="1.16389">
        <ele>313.1</ele>
        <time>2022-10-02T09:14:19Z</time>
      </trkpt>
      <trkpt lat="45.94184" lon="1.16389">
        <ele>313.2</ele>
        <time>2022-10-02T09:14:20Z</time>
      </trkpt>
      <trkpt lat="45.94181" lon="1.16389">
        <ele>313.3</ele>
        <time>2022-10-02T09:14:21Z</time>
      </trkpt>
      <trkpt lat="45.94179" lon="1.16389">
        <ele>313.4</ele>
        <time>2022-10-02T09:14:22Z</time>
      </trkpt>
      <trkpt lat="45.94177" lon="1.16388">
        <ele>313.4</ele>
        <time>2022-10-02T09:14:23Z</time>
      </trkpt>
      <trkpt lat="45.94175" lon="1.16387">
        <ele>313.5</ele>
        <time>2022-10-02T09:14:24Z</time>
      </trkpt>
      <trkpt lat="45.94172" lon="1.16387">
        <ele>313.6</ele>
        <time>2022-10-02T09:14:25Z</time>
      </trkpt>
      <trkpt lat="45.9417" lon="1.16387">
        <ele>313.7</ele>
        <time>2022-10-02T09:14:26Z</time>
      </trkpt>
      <trkpt lat="45.94168" lon="1.16387">
        <ele>313.8</ele>
        <time>2022-10-02T09:14:27Z</time>
      </trkpt>
      <trkpt lat="45.94166" lon="1.16386">
        <ele>313.9</ele>
        <time>2022-10-02T09:14:28Z</time>
      </trkpt>
      <trkpt lat="45.94164" lon="1.16385">
        <ele>314</ele>
        <time>2022-10-02T09:14:29Z</time>
      </trkpt>
      <trkpt lat="45.94162" lon="1.16384">
        <ele>314.2</ele>
        <time>2022-10-02T09:14:30Z</time>
      </trkpt>
      <trkpt lat="45.9416" lon="1.16383">
        <ele>314.3</ele>
        <time>2022-10-02T09:14:31Z</time>
      </trkpt>
      <trkpt lat="45.94158" lon="1.16382">
        <ele>314.4</ele>
        <time>2022-10-02T09:14:32Z</time>
      </trkpt>
      <trkpt lat="45.94156" lon="1.16382">
        <ele>314.6</ele>
        <time>2022-10-02T09:14:33Z</time>
      </trkpt>
      <trkpt lat="45.94154" lon="1.16381">
        <ele>314.7</ele>
        <time>2022-10-02T09:14:34Z</time>
      </trkpt>
      <trkpt lat="45.94151" lon="1.1638">
        <ele>314.8</ele>
        <time>2022-10-02T09:14:35Z</time>
      </trkpt>
      <trkpt lat="45.94149" lon="1.16381">
        <ele>315</ele>
        <time>2022-10-02T09:14:36Z</time>
      </trkpt>
      <trkpt lat="45.94147" lon="1.16381">
        <ele>315.1</ele>
        <time>2022-10-02T09:14:37Z</time>
      </trkpt>
      <trkpt lat="45.94145" lon="1.1638">
        <ele>315.3</ele>
        <time>2022-10-02T09:14:38Z</time>
      </trkpt>
      <trkpt lat="45.94142" lon="1.16379">
        <ele>315.4</ele>
        <time>2022-10-02T09:14:39Z</time>
      </trkpt>
      <trkpt lat="45.94141" lon="1.16379">
        <ele>315.5</ele>
        <time>2022-10-02T09:14:40Z</time>
      </trkpt>
      <trkpt lat="45.9414" lon="1.16379">
        <ele>315.6</ele>
        <time>2022-10-02T09:14:41Z</time>
      </trkpt>
      <trkpt lat="45.94138" lon="1.16378">
        <ele>315.7</ele>
        <time>2022-10-02T09:14:42Z</time>
      </trkpt>
      <trkpt lat="45.94136" lon="1.16377">
        <ele>315.8</ele>
        <time>2022-10-02T09:14:43Z</time>
      </trkpt>
      <trkpt lat="45.94134" lon="1.16376">
        <ele>316</ele>
        <time>2022-10-02T09:14:44Z</time>
      </trkpt>
      <trkpt lat="45.94133" lon="1.16375">
        <ele>316.1</ele>
        <time>2022-10-02T09:14:45Z</time>
      </trkpt>
      <trkpt lat="45.94132" lon="1.16374">
        <ele>316.1</ele>
        <time>2022-10-02T09:14:46Z</time>
      </trkpt>
      <trkpt lat="45.9413" lon="1.16373">
        <ele>316.3</ele>
        <time>2022-10-02T09:14:47Z</time>
      </trkpt>
      <trkpt lat="45.94129" lon="1.16373">
        <ele>316.4</ele>
        <time>2022-10-02T09:14:48Z</time>
      </trkpt>
      <trkpt lat="45.94127" lon="1.16374">
        <ele>316.5</ele>
        <time>2022-10-02T09:14:49Z</time>
      </trkpt>
      <trkpt lat="45.94126" lon="1.16375">
        <ele>316.6</ele>
        <time>2022-10-02T09:14:50Z</time>
      </trkpt>
      <trkpt lat="45.94125" lon="1.16375">
        <ele>316.6</ele>
        <time>2022-10-02T09:14:51Z</time>
      </trkpt>
      <trkpt lat="45.94124" lon="1.16374">
        <ele>316.7</ele>
        <time>2022-10-02T09:14:52Z</time>
      </trkpt>
      <trkpt lat="45.94123" lon="1.16372">
        <ele>316.9</ele>
        <time>2022-10-02T09:14:53Z</time>
      </trkpt>
      <trkpt lat="45.94123" lon="1.1637">
        <ele>317</ele>
        <time>2022-10-02T09:14:54Z</time>
      </trkpt>
      <trkpt lat="45.94121" lon="1.16369">
        <ele>317.1</ele>
        <time>2022-10-02T09:14:55Z</time>
      </trkpt>
      <trkpt lat="45.9412" lon="1.1637">
        <ele>317.2</ele>
        <time>2022-10-02T09:14:56Z</time>
      </trkpt>
      <trkpt lat="45.94118" lon="1.1637">
        <ele>317.4</ele>
        <time>2022-10-02T09:14:57Z</time>
      </trkpt>
      <trkpt lat="45.94116" lon="1.1637">
        <ele>317.5</ele>
        <time>2022-10-02T09:14:58Z</time>
      </trkpt>
      <trkpt lat="45.94115" lon="1.16369">
        <ele>317.6</ele>
        <time>2022-10-02T09:14:59Z</time>
      </trkpt>
      <trkpt lat="45.94114" lon="1.16368">
        <ele>317.7</ele>
        <time>2022-10-02T09:15:00Z</time>
      </trkpt>
      <trkpt lat="45.94113" lon="1.16367">
        <ele>317.8</ele>
        <time>2022-10-02T09:15:01Z</time>
      </trkpt>
      <trkpt lat="45.94112" lon="1.16367">
        <ele>317.9</ele>
        <time>2022-10-02T09:15:02Z</time>
      </trkpt>
      <trkpt lat="45.9411" lon="1.16368">
        <ele>318</ele>
        <time>2022-10-02T09:15:03Z</time>
      </trkpt>
      <trkpt lat="45.94109" lon="1.16369">
        <ele>318.1</ele>
        <time>2022-10-02T09:15:04Z</time>
      </trkpt>
      <trkpt lat="45.94108" lon="1.1637">
        <ele>318.2</ele>
        <time>2022-10-02T09:15:07Z</time>
      </trkpt>
      <trkpt lat="45.94107" lon="1.16371">
        <ele>318.3</ele>
        <time>2022-10-02T09:15:08Z</time>
      </trkpt>
      <trkpt lat="45.94106" lon="1.16373">
        <ele>318.4</ele>
        <time>2022-10-02T09:15:09Z</time>
      </trkpt>
      <trkpt lat="45.94105" lon="1.16374">
        <ele>318.5</ele>
        <time>2022-10-02T09:15:10Z</time>
      </trkpt>
      <trkpt lat="45.94104" lon="1.16375">
        <ele>318.7</ele>
        <time>2022-10-02T09:15:11Z</time>
      </trkpt>
      <trkpt lat="45.94102" lon="1.16375">
        <ele>318.8</ele>
        <time>2022-10-02T09:15:12Z</time>
      </trkpt>
      <trkpt lat="45.941" lon="1.16375">
        <ele>319</ele>
        <time>2022-10-02T09:15:13Z</time>
      </trkpt>
      <trkpt lat="45.94097" lon="1.16375">
        <ele>319.2</ele>
        <time>2022-10-02T09:15:14Z</time>
      </trkpt>
      <trkpt lat="45.94095" lon="1.16375">
        <ele>319.4</ele>
        <time>2022-10-02T09:15:15Z</time>
      </trkpt>
      <trkpt lat="45.94092" lon="1.16376">
        <ele>319.7</ele>
        <time>2022-10-02T09:15:16Z</time>
      </trkpt>
      <trkpt lat="45.94089" lon="1.16376">
        <ele>319.9</ele>
        <time>2022-10-02T09:15:17Z</time>
      </trkpt>
      <trkpt lat="45.94086" lon="1.16376">
        <ele>320.1</ele>
        <time>2022-10-02T09:15:18Z</time>
      </trkpt>
      <trkpt lat="45.94084" lon="1.16376">
        <ele>320.3</ele>
        <time>2022-10-02T09:15:19Z</time>
      </trkpt>
      <trkpt lat="45.94083" lon="1.16376">
        <ele>320.4</ele>
        <time>2022-10-02T09:15:20Z</time>
      </trkpt>
      <trkpt lat="45.94081" lon="1.16375">
        <ele>320.6</ele>
        <time>2022-10-02T09:15:21Z</time>
      </trkpt>
      <trkpt lat="45.94079" lon="1.16374">
        <ele>320.8</ele>
        <time>2022-10-02T09:15:22Z</time>
      </trkpt>
      <trkpt lat="45.94077" lon="1.16373">
        <ele>321</ele>
        <time>2022-10-02T09:15:23Z</time>
      </trkpt>
      <trkpt lat="45.94075" lon="1.16373">
        <ele>321.2</ele>
        <time>2022-10-02T09:15:24Z</time>
      </trkpt>
      <trkpt lat="45.94072" lon="1.16374">
        <ele>321.4</ele>
        <time>2022-10-02T09:15:25Z</time>
      </trkpt>
      <trkpt lat="45.9407" lon="1.16376">
        <ele>321.6</ele>
        <time>2022-10-02T09:15:26Z</time>
      </trkpt>
      <trkpt lat="45.94069" lon="1.16379">
        <ele>321.9</ele>
        <time>2022-10-02T09:15:27Z</time>
      </trkpt>
      <trkpt lat="45.94066" lon="1.16381">
        <ele>322.1</ele>
        <time>2022-10-02T09:15:28Z</time>
      </trkpt>
      <trkpt lat="45.94064" lon="1.16381">
        <ele>322.4</ele>
        <time>2022-10-02T09:15:29Z</time>
      </trkpt>
      <trkpt lat="45.94062" lon="1.16382">
        <ele>322.6</ele>
        <time>2022-10-02T09:15:30Z</time>
      </trkpt>
      <trkpt lat="45.94059" lon="1.16383">
        <ele>322.8</ele>
        <time>2022-10-02T09:15:31Z</time>
      </trkpt>
      <trkpt lat="45.94057" lon="1.16385">
        <ele>323</ele>
        <time>2022-10-02T09:15:32Z</time>
      </trkpt>
      <trkpt lat="45.94055" lon="1.16386">
        <ele>323.2</ele>
        <time>2022-10-02T09:15:33Z</time>
      </trkpt>
      <trkpt lat="45.94053" lon="1.16388">
        <ele>323.4</ele>
        <time>2022-10-02T09:15:34Z</time>
      </trkpt>
      <trkpt lat="45.94051" lon="1.16388">
        <ele>323.6</ele>
        <time>2022-10-02T09:15:35Z</time>
      </trkpt>
      <trkpt lat="45.94049" lon="1.16389">
        <ele>323.9</ele>
        <time>2022-10-02T09:15:36Z</time>
      </trkpt>
      <trkpt lat="45.94047" lon="1.1639">
        <ele>324.1</ele>
        <time>2022-10-02T09:15:37Z</time>
      </trkpt>
      <trkpt lat="45.94045" lon="1.16391">
        <ele>324.2</ele>
        <time>2022-10-02T09:15:38Z</time>
      </trkpt>
      <trkpt lat="45.94043" lon="1.16391">
        <ele>324.4</ele>
        <time>2022-10-02T09:15:39Z</time>
      </trkpt>
      <trkpt lat="45.94041" lon="1.16391">
        <ele>324.6</ele>
        <time>2022-10-02T09:15:40Z</time>
      </trkpt>
      <trkpt lat="45.94039" lon="1.16391">
        <ele>324.7</ele>
        <time>2022-10-02T09:15:41Z</time>
      </trkpt>
      <trkpt lat="45.94038" lon="1.16392">
        <ele>324.9</ele>
        <time>2022-10-02T09:15:42Z</time>
      </trkpt>
      <trkpt lat="45.94036" lon="1.16392">
        <ele>325</ele>
        <time>2022-10-02T09:15:43Z</time>
      </trkpt>
      <trkpt lat="45.94034" lon="1.16393">
        <ele>325.2</ele>
        <time>2022-10-02T09:15:44Z</time>
      </trkpt>
      <trkpt lat="45.94032" lon="1.16395">
        <ele>325.3</ele>
        <time>2022-10-02T09:15:45Z</time>
      </trkpt>
      <trkpt lat="45.94031" lon="1.16396">
        <ele>325.5</ele>
        <time>2022-10-02T09:15:46Z</time>
      </trkpt>
      <trkpt lat="45.94029" lon="1.16397">
        <ele>325.7</ele>
        <time>2022-10-02T09:15:47Z</time>
      </trkpt>
      <trkpt lat="45.94027" lon="1.16398">
        <ele>325.8</ele>
        <time>2022-10-02T09:15:48Z</time>
      </trkpt>
      <trkpt lat="45.94025" lon="1.16397">
        <ele>325.9</ele>
        <time>2022-10-02T09:15:49Z</time>
      </trkpt>
      <trkpt lat="45.94023" lon="1.16397">
        <ele>326.1</ele>
        <time>2022-10-02T09:15:50Z</time>
      </trkpt>
      <trkpt lat="45.94021" lon="1.16398">
        <ele>326.3</ele>
        <time>2022-10-02T09:15:51Z</time>
      </trkpt>
      <trkpt lat="45.94019" lon="1.16399">
        <ele>326.4</ele>
        <time>2022-10-02T09:15:52Z</time>
      </trkpt>
      <trkpt lat="45.94017" lon="1.164">
        <ele>326.6</ele>
        <time>2022-10-02T09:15:53Z</time>
      </trkpt>
      <trkpt lat="45.94016" lon="1.16401">
        <ele>326.7</ele>
        <time>2022-10-02T09:15:54Z</time>
      </trkpt>
      <trkpt lat="45.94015" lon="1.16401">
        <ele>326.8</ele>
        <time>2022-10-02T09:15:55Z</time>
      </trkpt>
      <trkpt lat="45.94013" lon="1.164">
        <ele>326.9</ele>
        <time>2022-10-02T09:15:56Z</time>
      </trkpt>
      <trkpt lat="45.94011" lon="1.164">
        <ele>327</ele>
        <time>2022-10-02T09:15:57Z</time>
      </trkpt>
      <trkpt lat="45.94009" lon="1.16399">
        <ele>327.1</ele>
        <time>2022-10-02T09:15:58Z</time>
      </trkpt>
      <trkpt lat="45.94008" lon="1.16398">
        <ele>327.2</ele>
        <time>2022-10-02T09:15:59Z</time>
      </trkpt>
      <trkpt lat="45.94006" lon="1.16397">
        <ele>327.3</ele>
        <time>2022-10-02T09:16:00Z</time>
      </trkpt>
      <trkpt lat="45.94004" lon="1.16396">
        <ele>327.4</ele>
        <time>2022-10-02T09:16:01Z</time>
      </trkpt>
      <trkpt lat="45.94003" lon="1.16396">
        <ele>327.5</ele>
        <time>2022-10-02T09:16:02Z</time>
      </trkpt>
      <trkpt lat="45.94002" lon="1.16396">
        <ele>327.5</ele>
        <time>2022-10-02T09:16:03Z</time>
      </trkpt>
      <trkpt lat="45.94" lon="1.16396">
        <ele>327.6</ele>
        <time>2022-10-02T09:16:04Z</time>
      </trkpt>
      <trkpt lat="45.93997" lon="1.16397">
        <ele>327.7</ele>
        <time>2022-10-02T09:16:05Z</time>
      </trkpt>
      <trkpt lat="45.93996" lon="1.16399">
        <ele>328</ele>
        <time>2022-10-02T09:16:06Z</time>
      </trkpt>
      <trkpt lat="45.93994" lon="1.16404">
        <ele>328.1</ele>
        <time>2022-10-02T09:16:07Z</time>
      </trkpt>
      <trkpt lat="45.93993" lon="1.16409">
        <ele>328.3</ele>
        <time>2022-10-02T09:16:08Z</time>
      </trkpt>
      <trkpt lat="45.93992" lon="1.16413">
        <ele>328.4</ele>
        <time>2022-10-02T09:16:09Z</time>
      </trkpt>
      <trkpt lat="45.93991" lon="1.16415">
        <ele>328.5</ele>
        <time>2022-10-02T09:16:10Z</time>
      </trkpt>
      <trkpt lat="45.9399" lon="1.16417">
        <ele>328.6</ele>
        <time>2022-10-02T09:16:11Z</time>
      </trkpt>
      <trkpt lat="45.93989" lon="1.16419">
        <ele>328.8</ele>
        <time>2022-10-02T09:16:12Z</time>
      </trkpt>
      <trkpt lat="45.93988" lon="1.16422">
        <ele>328.9</ele>
        <time>2022-10-02T09:16:13Z</time>
      </trkpt>
      <trkpt lat="45.93986" lon="1.16425">
        <ele>329.1</ele>
        <time>2022-10-02T09:16:14Z</time>
      </trkpt>
      <trkpt lat="45.93985" lon="1.16428">
        <ele>329.3</ele>
        <time>2022-10-02T09:16:15Z</time>
      </trkpt>
      <trkpt lat="45.93984" lon="1.16431">
        <ele>329.4</ele>
        <time>2022-10-02T09:16:16Z</time>
      </trkpt>
      <trkpt lat="45.93983" lon="1.16434">
        <ele>329.6</ele>
        <time>2022-10-02T09:16:17Z</time>
      </trkpt>
      <trkpt lat="45.93982" lon="1.16436">
        <ele>329.7</ele>
        <time>2022-10-02T09:16:18Z</time>
      </trkpt>
      <trkpt lat="45.93982" lon="1.16439">
        <ele>329.9</ele>
        <time>2022-10-02T09:16:19Z</time>
      </trkpt>
      <trkpt lat="45.93981" lon="1.16441">
        <ele>330</ele>
        <time>2022-10-02T09:16:20Z</time>
      </trkpt>
      <trkpt lat="45.93981" lon="1.16444">
        <ele>330.1</ele>
        <time>2022-10-02T09:16:21Z</time>
      </trkpt>
      <trkpt lat="45.9398" lon="1.16446">
        <ele>330.2</ele>
        <time>2022-10-02T09:16:22Z</time>
      </trkpt>
      <trkpt lat="45.93979" lon="1.16448">
        <ele>330.4</ele>
        <time>2022-10-02T09:16:23Z</time>
      </trkpt>
      <trkpt lat="45.93978" lon="1.16451">
        <ele>330.5</ele>
        <time>2022-10-02T09:16:24Z</time>
      </trkpt>
      <trkpt lat="45.93977" lon="1.16454">
        <ele>330.6</ele>
        <time>2022-10-02T09:16:25Z</time>
      </trkpt>
      <trkpt lat="45.93977" lon="1.16457">
        <ele>330.7</ele>
        <time>2022-10-02T09:16:26Z</time>
      </trkpt>
      <trkpt lat="45.93976" lon="1.16459">
        <ele>330.8</ele>
        <time>2022-10-02T09:16:27Z</time>
      </trkpt>
      <trkpt lat="45.93974" lon="1.16462">
        <ele>330.9</ele>
        <time>2022-10-02T09:16:28Z</time>
      </trkpt>
      <trkpt lat="45.93973" lon="1.16465">
        <ele>331</ele>
        <time>2022-10-02T09:16:29Z</time>
      </trkpt>
      <trkpt lat="45.93971" lon="1.16468">
        <ele>331</ele>
        <time>2022-10-02T09:16:30Z</time>
      </trkpt>
      <trkpt lat="45.93969" lon="1.16471">
        <ele>331.1</ele>
        <time>2022-10-02T09:16:31Z</time>
      </trkpt>
      <trkpt lat="45.93967" lon="1.16473">
        <ele>331.1</ele>
        <time>2022-10-02T09:16:32Z</time>
      </trkpt>
      <trkpt lat="45.93966" lon="1.16475">
        <ele>331.2</ele>
        <time>2022-10-02T09:16:33Z</time>
      </trkpt>
      <trkpt lat="45.93965" lon="1.16478">
        <ele>331.2</ele>
        <time>2022-10-02T09:16:34Z</time>
      </trkpt>
      <trkpt lat="45.93964" lon="1.16481">
        <ele>331.2</ele>
        <time>2022-10-02T09:16:35Z</time>
      </trkpt>
      <trkpt lat="45.93962" lon="1.16484">
        <ele>331.2</ele>
        <time>2022-10-02T09:16:36Z</time>
      </trkpt>
      <trkpt lat="45.93961" lon="1.16488">
        <ele>331.2</ele>
        <time>2022-10-02T09:16:37Z</time>
      </trkpt>
      <trkpt lat="45.9396" lon="1.16492">
        <ele>331.2</ele>
        <time>2022-10-02T09:16:38Z</time>
      </trkpt>
      <trkpt lat="45.93958" lon="1.16496">
        <ele>331.2</ele>
        <time>2022-10-02T09:16:39Z</time>
      </trkpt>
      <trkpt lat="45.93956" lon="1.16501">
        <ele>331.2</ele>
        <time>2022-10-02T09:16:40Z</time>
      </trkpt>
      <trkpt lat="45.93954" lon="1.16505">
        <ele>331.2</ele>
        <time>2022-10-02T09:16:41Z</time>
      </trkpt>
      <trkpt lat="45.93953" lon="1.16511">
        <ele>331.2</ele>
        <time>2022-10-02T09:16:42Z</time>
      </trkpt>
      <trkpt lat="45.93951" lon="1.16516">
        <ele>331.2</ele>
        <time>2022-10-02T09:16:43Z</time>
      </trkpt>
      <trkpt lat="45.93951" lon="1.1652">
        <ele>331.2</ele>
        <time>2022-10-02T09:16:44Z</time>
      </trkpt>
      <trkpt lat="45.9395" lon="1.16525">
        <ele>331.2</ele>
        <time>2022-10-02T09:16:45Z</time>
      </trkpt>
      <trkpt lat="45.93948" lon="1.16531">
        <ele>331.2</ele>
        <time>2022-10-02T09:16:46Z</time>
      </trkpt>
      <trkpt lat="45.93947" lon="1.16535">
        <ele>331.2</ele>
        <time>2022-10-02T09:16:47Z</time>
      </trkpt>
      <trkpt lat="45.93946" lon="1.1654">
        <ele>331.2</ele>
        <time>2022-10-02T09:16:48Z</time>
      </trkpt>
      <trkpt lat="45.93944" lon="1.16544">
        <ele>331.2</ele>
        <time>2022-10-02T09:16:49Z</time>
      </trkpt>
      <trkpt lat="45.93941" lon="1.16552">
        <ele>331.3</ele>
        <time>2022-10-02T09:16:50Z</time>
      </trkpt>
      <trkpt lat="45.9394" lon="1.16556">
        <ele>331.3</ele>
        <time>2022-10-02T09:16:51Z</time>
      </trkpt>
      <trkpt lat="45.93938" lon="1.16559">
        <ele>331.3</ele>
        <time>2022-10-02T09:16:52Z</time>
      </trkpt>
      <trkpt lat="45.93937" lon="1.16562">
        <ele>331.4</ele>
        <time>2022-10-02T09:16:53Z</time>
      </trkpt>
      <trkpt lat="45.93935" lon="1.16565">
        <ele>331.4</ele>
        <time>2022-10-02T09:16:54Z</time>
      </trkpt>
      <trkpt lat="45.93934" lon="1.16568">
        <ele>331.5</ele>
        <time>2022-10-02T09:16:55Z</time>
      </trkpt>
      <trkpt lat="45.93932" lon="1.16572">
        <ele>331.5</ele>
        <time>2022-10-02T09:16:56Z</time>
      </trkpt>
      <trkpt lat="45.93931" lon="1.16575">
        <ele>331.5</ele>
        <time>2022-10-02T09:16:57Z</time>
      </trkpt>
      <trkpt lat="45.9393" lon="1.16579">
        <ele>331.5</ele>
        <time>2022-10-02T09:16:58Z</time>
      </trkpt>
      <trkpt lat="45.93929" lon="1.16582">
        <ele>331.6</ele>
        <time>2022-10-02T09:16:59Z</time>
      </trkpt>
      <trkpt lat="45.93928" lon="1.16585">
        <ele>331.6</ele>
        <time>2022-10-02T09:17:00Z</time>
      </trkpt>
      <trkpt lat="45.93926" lon="1.1659">
        <ele>331.6</ele>
        <time>2022-10-02T09:17:01Z</time>
      </trkpt>
      <trkpt lat="45.93924" lon="1.16594">
        <ele>331.7</ele>
        <time>2022-10-02T09:17:02Z</time>
      </trkpt>
      <trkpt lat="45.93922" lon="1.16598">
        <ele>331.8</ele>
        <time>2022-10-02T09:17:03Z</time>
      </trkpt>
      <trkpt lat="45.93921" lon="1.16602">
        <ele>331.9</ele>
        <time>2022-10-02T09:17:04Z</time>
      </trkpt>
      <trkpt lat="45.93919" lon="1.16606">
        <ele>332</ele>
        <time>2022-10-02T09:17:05Z</time>
      </trkpt>
      <trkpt lat="45.93919" lon="1.16609">
        <ele>332.1</ele>
        <time>2022-10-02T09:17:06Z</time>
      </trkpt>
      <trkpt lat="45.93918" lon="1.16613">
        <ele>332.2</ele>
        <time>2022-10-02T09:17:07Z</time>
      </trkpt>
      <trkpt lat="45.93918" lon="1.16616">
        <ele>332.3</ele>
        <time>2022-10-02T09:17:08Z</time>
      </trkpt>
      <trkpt lat="45.93917" lon="1.16619">
        <ele>332.4</ele>
        <time>2022-10-02T09:17:09Z</time>
      </trkpt>
      <trkpt lat="45.93916" lon="1.16622">
        <ele>332.5</ele>
        <time>2022-10-02T09:17:10Z</time>
      </trkpt>
      <trkpt lat="45.93916" lon="1.16625">
        <ele>332.6</ele>
        <time>2022-10-02T09:17:11Z</time>
      </trkpt>
      <trkpt lat="45.93915" lon="1.16628">
        <ele>332.7</ele>
        <time>2022-10-02T09:17:12Z</time>
      </trkpt>
      <trkpt lat="45.93914" lon="1.16631">
        <ele>332.8</ele>
        <time>2022-10-02T09:17:13Z</time>
      </trkpt>
      <trkpt lat="45.93914" lon="1.16634">
        <ele>332.9</ele>
        <time>2022-10-02T09:17:14Z</time>
      </trkpt>
      <trkpt lat="45.93913" lon="1.16637">
        <ele>333</ele>
        <time>2022-10-02T09:17:15Z</time>
      </trkpt>
      <trkpt lat="45.93913" lon="1.1664">
        <ele>333.1</ele>
        <time>2022-10-02T09:17:16Z</time>
      </trkpt>
      <trkpt lat="45.93912" lon="1.16643">
        <ele>333.2</ele>
        <time>2022-10-02T09:17:17Z</time>
      </trkpt>
      <trkpt lat="45.93911" lon="1.16646">
        <ele>333.3</ele>
        <time>2022-10-02T09:17:18Z</time>
      </trkpt>
      <trkpt lat="45.93911" lon="1.16648">
        <ele>333.4</ele>
        <time>2022-10-02T09:17:19Z</time>
      </trkpt>
      <trkpt lat="45.9391" lon="1.1665">
        <ele>333.5</ele>
        <time>2022-10-02T09:17:20Z</time>
      </trkpt>
      <trkpt lat="45.93909" lon="1.16652">
        <ele>333.6</ele>
        <time>2022-10-02T09:17:21Z</time>
      </trkpt>
      <trkpt lat="45.93909" lon="1.16655">
        <ele>333.7</ele>
        <time>2022-10-02T09:17:22Z</time>
      </trkpt>
      <trkpt lat="45.93908" lon="1.16658">
        <ele>333.8</ele>
        <time>2022-10-02T09:17:23Z</time>
      </trkpt>
      <trkpt lat="45.93907" lon="1.16661">
        <ele>333.9</ele>
        <time>2022-10-02T09:17:24Z</time>
      </trkpt>
      <trkpt lat="45.93907" lon="1.16664">
        <ele>334</ele>
        <time>2022-10-02T09:17:25Z</time>
      </trkpt>
      <trkpt lat="45.93906" lon="1.16667">
        <ele>334.1</ele>
        <time>2022-10-02T09:17:26Z</time>
      </trkpt>
      <trkpt lat="45.93906" lon="1.1667">
        <ele>334.2</ele>
        <time>2022-10-02T09:17:27Z</time>
      </trkpt>
      <trkpt lat="45.93906" lon="1.16673">
        <ele>334.4</ele>
        <time>2022-10-02T09:17:28Z</time>
      </trkpt>
      <trkpt lat="45.93905" lon="1.16676">
        <ele>334.5</ele>
        <time>2022-10-02T09:17:29Z</time>
      </trkpt>
      <trkpt lat="45.93905" lon="1.16679">
        <ele>334.6</ele>
        <time>2022-10-02T09:17:30Z</time>
      </trkpt>
      <trkpt lat="45.93904" lon="1.16682">
        <ele>334.7</ele>
        <time>2022-10-02T09:17:31Z</time>
      </trkpt>
      <trkpt lat="45.93903" lon="1.16685">
        <ele>334.9</ele>
        <time>2022-10-02T09:17:32Z</time>
      </trkpt>
      <trkpt lat="45.93902" lon="1.16688">
        <ele>335</ele>
        <time>2022-10-02T09:17:33Z</time>
      </trkpt>
      <trkpt lat="45.93901" lon="1.16691">
        <ele>335.1</ele>
        <time>2022-10-02T09:17:34Z</time>
      </trkpt>
      <trkpt lat="45.939" lon="1.16694">
        <ele>335.2</ele>
        <time>2022-10-02T09:17:35Z</time>
      </trkpt>
      <trkpt lat="45.939" lon="1.16696">
        <ele>335.3</ele>
        <time>2022-10-02T09:17:36Z</time>
      </trkpt>
      <trkpt lat="45.93899" lon="1.16698">
        <ele>335.4</ele>
        <time>2022-10-02T09:17:37Z</time>
      </trkpt>
      <trkpt lat="45.93899" lon="1.16701">
        <ele>335.5</ele>
        <time>2022-10-02T09:17:38Z</time>
      </trkpt>
      <trkpt lat="45.93899" lon="1.16703">
        <ele>335.6</ele>
        <time>2022-10-02T09:17:39Z</time>
      </trkpt>
      <trkpt lat="45.93898" lon="1.16706">
        <ele>335.7</ele>
        <time>2022-10-02T09:17:40Z</time>
      </trkpt>
      <trkpt lat="45.93898" lon="1.16707">
        <ele>335.7</ele>
        <time>2022-10-02T09:17:41Z</time>
      </trkpt>
      <trkpt lat="45.93897" lon="1.16709">
        <ele>335.8</ele>
        <time>2022-10-02T09:17:42Z</time>
      </trkpt>
      <trkpt lat="45.93896" lon="1.16711">
        <ele>335.9</ele>
        <time>2022-10-02T09:17:43Z</time>
      </trkpt>
      <trkpt lat="45.93895" lon="1.16713">
        <ele>336</ele>
        <time>2022-10-02T09:17:44Z</time>
      </trkpt>
      <trkpt lat="45.93895" lon="1.16716">
        <ele>336.1</ele>
        <time>2022-10-02T09:17:45Z</time>
      </trkpt>
      <trkpt lat="45.93894" lon="1.16719">
        <ele>336.1</ele>
        <time>2022-10-02T09:17:46Z</time>
      </trkpt>
      <trkpt lat="45.93893" lon="1.16722">
        <ele>336.2</ele>
        <time>2022-10-02T09:17:47Z</time>
      </trkpt>
      <trkpt lat="45.93893" lon="1.16724">
        <ele>336.3</ele>
        <time>2022-10-02T09:17:48Z</time>
      </trkpt>
      <trkpt lat="45.93893" lon="1.16727">
        <ele>336.4</ele>
        <time>2022-10-02T09:17:49Z</time>
      </trkpt>
      <trkpt lat="45.93892" lon="1.16729">
        <ele>336.5</ele>
        <time>2022-10-02T09:17:50Z</time>
      </trkpt>
      <trkpt lat="45.93892" lon="1.16731">
        <ele>336.5</ele>
        <time>2022-10-02T09:17:51Z</time>
      </trkpt>
      <trkpt lat="45.93892" lon="1.16733">
        <ele>336.6</ele>
        <time>2022-10-02T09:17:52Z</time>
      </trkpt>
      <trkpt lat="45.93891" lon="1.16735">
        <ele>336.7</ele>
        <time>2022-10-02T09:17:53Z</time>
      </trkpt>
      <trkpt lat="45.93891" lon="1.16738">
        <ele>336.8</ele>
        <time>2022-10-02T09:17:54Z</time>
      </trkpt>
      <trkpt lat="45.9389" lon="1.16741">
        <ele>336.8</ele>
        <time>2022-10-02T09:17:55Z</time>
      </trkpt>
      <trkpt lat="45.9389" lon="1.16744">
        <ele>336.9</ele>
        <time>2022-10-02T09:17:56Z</time>
      </trkpt>
      <trkpt lat="45.9389" lon="1.16747">
        <ele>337</ele>
        <time>2022-10-02T09:17:57Z</time>
      </trkpt>
      <trkpt lat="45.9389" lon="1.1675">
        <ele>337.1</ele>
        <time>2022-10-02T09:17:58Z</time>
      </trkpt>
      <trkpt lat="45.9389" lon="1.16753">
        <ele>337.2</ele>
        <time>2022-10-02T09:17:59Z</time>
      </trkpt>
      <trkpt lat="45.93889" lon="1.16755">
        <ele>337.2</ele>
        <time>2022-10-02T09:18:00Z</time>
      </trkpt>
      <trkpt lat="45.93889" lon="1.16758">
        <ele>337.3</ele>
        <time>2022-10-02T09:18:01Z</time>
      </trkpt>
      <trkpt lat="45.93888" lon="1.16761">
        <ele>337.4</ele>
        <time>2022-10-02T09:18:02Z</time>
      </trkpt>
      <trkpt lat="45.93888" lon="1.16763">
        <ele>337.4</ele>
        <time>2022-10-02T09:18:03Z</time>
      </trkpt>
      <trkpt lat="45.93887" lon="1.16765">
        <ele>337.5</ele>
        <time>2022-10-02T09:18:04Z</time>
      </trkpt>
      <trkpt lat="45.93886" lon="1.16767">
        <ele>337.5</ele>
        <time>2022-10-02T09:18:05Z</time>
      </trkpt>
      <trkpt lat="45.93886" lon="1.16769">
        <ele>337.6</ele>
        <time>2022-10-02T09:18:06Z</time>
      </trkpt>
      <trkpt lat="45.93886" lon="1.16773">
        <ele>337.6</ele>
        <time>2022-10-02T09:18:07Z</time>
      </trkpt>
      <trkpt lat="45.93886" lon="1.16776">
        <ele>337.7</ele>
        <time>2022-10-02T09:18:08Z</time>
      </trkpt>
      <trkpt lat="45.93885" lon="1.16778">
        <ele>337.8</ele>
        <time>2022-10-02T09:18:09Z</time>
      </trkpt>
      <trkpt lat="45.93884" lon="1.1678">
        <ele>337.8</ele>
        <time>2022-10-02T09:18:10Z</time>
      </trkpt>
      <trkpt lat="45.93883" lon="1.16782">
        <ele>337.9</ele>
        <time>2022-10-02T09:18:11Z</time>
      </trkpt>
      <trkpt lat="45.93883" lon="1.16785">
        <ele>337.9</ele>
        <time>2022-10-02T09:18:12Z</time>
      </trkpt>
      <trkpt lat="45.93882" lon="1.16787">
        <ele>338</ele>
        <time>2022-10-02T09:18:13Z</time>
      </trkpt>
      <trkpt lat="45.93881" lon="1.16789">
        <ele>338.1</ele>
        <time>2022-10-02T09:18:14Z</time>
      </trkpt>
      <trkpt lat="45.9388" lon="1.16791">
        <ele>338.1</ele>
        <time>2022-10-02T09:18:15Z</time>
      </trkpt>
      <trkpt lat="45.9388" lon="1.16793">
        <ele>338.2</ele>
        <time>2022-10-02T09:18:16Z</time>
      </trkpt>
      <trkpt lat="45.93879" lon="1.16795">
        <ele>338.2</ele>
        <time>2022-10-02T09:18:17Z</time>
      </trkpt>
      <trkpt lat="45.93878" lon="1.16797">
        <ele>338.3</ele>
        <time>2022-10-02T09:18:18Z</time>
      </trkpt>
      <trkpt lat="45.93877" lon="1.168">
        <ele>338.3</ele>
        <time>2022-10-02T09:18:19Z</time>
      </trkpt>
      <trkpt lat="45.93876" lon="1.16802">
        <ele>338.4</ele>
        <time>2022-10-02T09:18:20Z</time>
      </trkpt>
      <trkpt lat="45.93875" lon="1.16805">
        <ele>338.5</ele>
        <time>2022-10-02T09:18:21Z</time>
      </trkpt>
      <trkpt lat="45.93875" lon="1.16808">
        <ele>338.6</ele>
        <time>2022-10-02T09:18:22Z</time>
      </trkpt>
      <trkpt lat="45.93874" lon="1.1681">
        <ele>338.6</ele>
        <time>2022-10-02T09:18:23Z</time>
      </trkpt>
      <trkpt lat="45.93874" lon="1.16813">
        <ele>338.7</ele>
        <time>2022-10-02T09:18:24Z</time>
      </trkpt>
      <trkpt lat="45.93873" lon="1.16815">
        <ele>338.8</ele>
        <time>2022-10-02T09:18:25Z</time>
      </trkpt>
      <trkpt lat="45.93873" lon="1.16818">
        <ele>338.8</ele>
        <time>2022-10-02T09:18:26Z</time>
      </trkpt>
      <trkpt lat="45.93873" lon="1.1682">
        <ele>338.9</ele>
        <time>2022-10-02T09:18:27Z</time>
      </trkpt>
      <trkpt lat="45.93872" lon="1.16822">
        <ele>339</ele>
        <time>2022-10-02T09:18:28Z</time>
      </trkpt>
      <trkpt lat="45.93872" lon="1.16825">
        <ele>339</ele>
        <time>2022-10-02T09:18:29Z</time>
      </trkpt>
      <trkpt lat="45.93871" lon="1.16828">
        <ele>339.1</ele>
        <time>2022-10-02T09:18:30Z</time>
      </trkpt>
      <trkpt lat="45.93871" lon="1.16831">
        <ele>339.2</ele>
        <time>2022-10-02T09:18:31Z</time>
      </trkpt>
      <trkpt lat="45.93871" lon="1.16834">
        <ele>339.3</ele>
        <time>2022-10-02T09:18:32Z</time>
      </trkpt>
      <trkpt lat="45.9387" lon="1.16836">
        <ele>339.4</ele>
        <time>2022-10-02T09:18:33Z</time>
      </trkpt>
      <trkpt lat="45.9387" lon="1.16839">
        <ele>339.4</ele>
        <time>2022-10-02T09:18:34Z</time>
      </trkpt>
      <trkpt lat="45.93869" lon="1.16841">
        <ele>339.5</ele>
        <time>2022-10-02T09:18:35Z</time>
      </trkpt>
      <trkpt lat="45.93869" lon="1.16844">
        <ele>339.5</ele>
        <time>2022-10-02T09:18:36Z</time>
      </trkpt>
      <trkpt lat="45.93868" lon="1.16846">
        <ele>339.6</ele>
        <time>2022-10-02T09:18:37Z</time>
      </trkpt>
      <trkpt lat="45.93868" lon="1.16849">
        <ele>339.7</ele>
        <time>2022-10-02T09:18:38Z</time>
      </trkpt>
      <trkpt lat="45.93867" lon="1.16852">
        <ele>339.7</ele>
        <time>2022-10-02T09:18:39Z</time>
      </trkpt>
      <trkpt lat="45.93867" lon="1.16855">
        <ele>339.8</ele>
        <time>2022-10-02T09:18:40Z</time>
      </trkpt>
      <trkpt lat="45.93867" lon="1.16858">
        <ele>339.9</ele>
        <time>2022-10-02T09:18:41Z</time>
      </trkpt>
      <trkpt lat="45.93866" lon="1.16861">
        <ele>340</ele>
        <time>2022-10-02T09:18:42Z</time>
      </trkpt>
      <trkpt lat="45.93866" lon="1.16863">
        <ele>340</ele>
        <time>2022-10-02T09:18:43Z</time>
      </trkpt>
      <trkpt lat="45.93866" lon="1.16867">
        <ele>340.1</ele>
        <time>2022-10-02T09:18:44Z</time>
      </trkpt>
      <trkpt lat="45.93865" lon="1.1687">
        <ele>340.2</ele>
        <time>2022-10-02T09:18:45Z</time>
      </trkpt>
      <trkpt lat="45.93865" lon="1.16873">
        <ele>340.2</ele>
        <time>2022-10-02T09:18:46Z</time>
      </trkpt>
      <trkpt lat="45.93865" lon="1.16875">
        <ele>340.3</ele>
        <time>2022-10-02T09:18:47Z</time>
      </trkpt>
      <trkpt lat="45.93864" lon="1.16877">
        <ele>340.3</ele>
        <time>2022-10-02T09:18:48Z</time>
      </trkpt>
      <trkpt lat="45.93864" lon="1.1688">
        <ele>340.4</ele>
        <time>2022-10-02T09:18:49Z</time>
      </trkpt>
      <trkpt lat="45.93863" lon="1.16883">
        <ele>340.4</ele>
        <time>2022-10-02T09:18:50Z</time>
      </trkpt>
      <trkpt lat="45.93863" lon="1.16886">
        <ele>340.5</ele>
        <time>2022-10-02T09:18:51Z</time>
      </trkpt>
      <trkpt lat="45.93863" lon="1.16889">
        <ele>340.5</ele>
        <time>2022-10-02T09:18:52Z</time>
      </trkpt>
      <trkpt lat="45.93862" lon="1.16891">
        <ele>340.6</ele>
        <time>2022-10-02T09:18:53Z</time>
      </trkpt>
      <trkpt lat="45.93862" lon="1.16894">
        <ele>340.6</ele>
        <time>2022-10-02T09:18:54Z</time>
      </trkpt>
      <trkpt lat="45.93862" lon="1.16897">
        <ele>340.6</ele>
        <time>2022-10-02T09:18:55Z</time>
      </trkpt>
      <trkpt lat="45.93862" lon="1.169">
        <ele>340.7</ele>
        <time>2022-10-02T09:18:56Z</time>
      </trkpt>
      <trkpt lat="45.93862" lon="1.16903">
        <ele>340.7</ele>
        <time>2022-10-02T09:18:57Z</time>
      </trkpt>
      <trkpt lat="45.93862" lon="1.16906">
        <ele>340.7</ele>
        <time>2022-10-02T09:18:58Z</time>
      </trkpt>
      <trkpt lat="45.93862" lon="1.16908">
        <ele>340.7</ele>
        <time>2022-10-02T09:18:59Z</time>
      </trkpt>
      <trkpt lat="45.93862" lon="1.16911">
        <ele>340.7</ele>
        <time>2022-10-02T09:19:00Z</time>
      </trkpt>
      <trkpt lat="45.93861" lon="1.16914">
        <ele>340.7</ele>
        <time>2022-10-02T09:19:01Z</time>
      </trkpt>
      <trkpt lat="45.9386" lon="1.16916">
        <ele>340.7</ele>
        <time>2022-10-02T09:19:02Z</time>
      </trkpt>
      <trkpt lat="45.93857" lon="1.16916">
        <ele>340.6</ele>
        <time>2022-10-02T09:19:03Z</time>
      </trkpt>
      <trkpt lat="45.93853" lon="1.16914">
        <ele>340.6</ele>
        <time>2022-10-02T09:19:04Z</time>
      </trkpt>
      <trkpt lat="45.9385" lon="1.16911">
        <ele>340.6</ele>
        <time>2022-10-02T09:19:05Z</time>
      </trkpt>
      <trkpt lat="45.93846" lon="1.16908">
        <ele>340.5</ele>
        <time>2022-10-02T09:19:06Z</time>
      </trkpt>
      <trkpt lat="45.93843" lon="1.16904">
        <ele>340.5</ele>
        <time>2022-10-02T09:19:07Z</time>
      </trkpt>
      <trkpt lat="45.93839" lon="1.16901">
        <ele>340.5</ele>
        <time>2022-10-02T09:19:08Z</time>
      </trkpt>
      <trkpt lat="45.93836" lon="1.16897">
        <ele>340.4</ele>
        <time>2022-10-02T09:19:09Z</time>
      </trkpt>
      <trkpt lat="45.93833" lon="1.16894">
        <ele>340.4</ele>
        <time>2022-10-02T09:19:10Z</time>
      </trkpt>
      <trkpt lat="45.9383" lon="1.16891">
        <ele>340.4</ele>
        <time>2022-10-02T09:19:11Z</time>
      </trkpt>
      <trkpt lat="45.93827" lon="1.16889">
        <ele>340.4</ele>
        <time>2022-10-02T09:19:12Z</time>
      </trkpt>
      <trkpt lat="45.93823" lon="1.16886">
        <ele>340.4</ele>
        <time>2022-10-02T09:19:13Z</time>
      </trkpt>
      <trkpt lat="45.9382" lon="1.16884">
        <ele>340.4</ele>
        <time>2022-10-02T09:19:14Z</time>
      </trkpt>
      <trkpt lat="45.93817" lon="1.16883">
        <ele>340.4</ele>
        <time>2022-10-02T09:19:15Z</time>
      </trkpt>
      <trkpt lat="45.93814" lon="1.16881">
        <ele>340.4</ele>
        <time>2022-10-02T09:19:16Z</time>
      </trkpt>
      <trkpt lat="45.9381" lon="1.1688">
        <ele>340.4</ele>
        <time>2022-10-02T09:19:17Z</time>
      </trkpt>
      <trkpt lat="45.93807" lon="1.16878">
        <ele>340.4</ele>
        <time>2022-10-02T09:19:18Z</time>
      </trkpt>
      <trkpt lat="45.93804" lon="1.16876">
        <ele>340.3</ele>
        <time>2022-10-02T09:19:19Z</time>
      </trkpt>
      <trkpt lat="45.938" lon="1.16875">
        <ele>340.3</ele>
        <time>2022-10-02T09:19:20Z</time>
      </trkpt>
      <trkpt lat="45.93797" lon="1.16874">
        <ele>340.3</ele>
        <time>2022-10-02T09:19:21Z</time>
      </trkpt>
      <trkpt lat="45.93793" lon="1.16872">
        <ele>340.3</ele>
        <time>2022-10-02T09:19:22Z</time>
      </trkpt>
      <trkpt lat="45.93789" lon="1.1687">
        <ele>340.3</ele>
        <time>2022-10-02T09:19:23Z</time>
      </trkpt>
      <trkpt lat="45.93785" lon="1.16869">
        <ele>340.2</ele>
        <time>2022-10-02T09:19:24Z</time>
      </trkpt>
      <trkpt lat="45.93781" lon="1.16868">
        <ele>340.2</ele>
        <time>2022-10-02T09:19:25Z</time>
      </trkpt>
      <trkpt lat="45.93778" lon="1.16867">
        <ele>340.2</ele>
        <time>2022-10-02T09:19:26Z</time>
      </trkpt>
      <trkpt lat="45.93774" lon="1.16866">
        <ele>340.2</ele>
        <time>2022-10-02T09:19:27Z</time>
      </trkpt>
      <trkpt lat="45.9377" lon="1.16865">
        <ele>340.1</ele>
        <time>2022-10-02T09:19:28Z</time>
      </trkpt>
      <trkpt lat="45.93766" lon="1.16863">
        <ele>340.1</ele>
        <time>2022-10-02T09:19:29Z</time>
      </trkpt>
      <trkpt lat="45.93762" lon="1.16862">
        <ele>340</ele>
        <time>2022-10-02T09:19:30Z</time>
      </trkpt>
      <trkpt lat="45.93758" lon="1.16861">
        <ele>340</ele>
        <time>2022-10-02T09:19:31Z</time>
      </trkpt>
      <trkpt lat="45.93754" lon="1.16859">
        <ele>340</ele>
        <time>2022-10-02T09:19:32Z</time>
      </trkpt>
      <trkpt lat="45.93751" lon="1.16858">
        <ele>340</ele>
        <time>2022-10-02T09:19:33Z</time>
      </trkpt>
      <trkpt lat="45.93747" lon="1.16857">
        <ele>340</ele>
        <time>2022-10-02T09:19:34Z</time>
      </trkpt>
      <trkpt lat="45.93743" lon="1.16856">
        <ele>340</ele>
        <time>2022-10-02T09:19:35Z</time>
      </trkpt>
      <trkpt lat="45.93739" lon="1.16855">
        <ele>340</ele>
        <time>2022-10-02T09:19:36Z</time>
      </trkpt>
      <trkpt lat="45.93735" lon="1.16854">
        <ele>340</ele>
        <time>2022-10-02T09:19:37Z</time>
      </trkpt>
      <trkpt lat="45.93731" lon="1.16853">
        <ele>340</ele>
        <time>2022-10-02T09:19:38Z</time>
      </trkpt>
      <trkpt lat="45.93727" lon="1.16851">
        <ele>340</ele>
        <time>2022-10-02T09:19:39Z</time>
      </trkpt>
      <trkpt lat="45.93723" lon="1.1685">
        <ele>339.9</ele>
        <time>2022-10-02T09:19:40Z</time>
      </trkpt>
      <trkpt lat="45.9372" lon="1.16848">
        <ele>339.9</ele>
        <time>2022-10-02T09:19:41Z</time>
      </trkpt>
      <trkpt lat="45.93716" lon="1.16847">
        <ele>339.9</ele>
        <time>2022-10-02T09:19:42Z</time>
      </trkpt>
      <trkpt lat="45.93712" lon="1.16845">
        <ele>339.9</ele>
        <time>2022-10-02T09:19:43Z</time>
      </trkpt>
      <trkpt lat="45.93709" lon="1.16843">
        <ele>339.9</ele>
        <time>2022-10-02T09:19:44Z</time>
      </trkpt>
      <trkpt lat="45.93705" lon="1.16841">
        <ele>339.8</ele>
        <time>2022-10-02T09:19:45Z</time>
      </trkpt>
      <trkpt lat="45.93701" lon="1.1684">
        <ele>339.8</ele>
        <time>2022-10-02T09:19:46Z</time>
      </trkpt>
      <trkpt lat="45.93698" lon="1.16839">
        <ele>339.8</ele>
        <time>2022-10-02T09:19:47Z</time>
      </trkpt>
      <trkpt lat="45.93694" lon="1.16838">
        <ele>339.8</ele>
        <time>2022-10-02T09:19:48Z</time>
      </trkpt>
      <trkpt lat="45.9369" lon="1.16837">
        <ele>339.8</ele>
        <time>2022-10-02T09:19:49Z</time>
      </trkpt>
      <trkpt lat="45.93686" lon="1.16837">
        <ele>339.7</ele>
        <time>2022-10-02T09:19:50Z</time>
      </trkpt>
      <trkpt lat="45.93682" lon="1.16836">
        <ele>339.7</ele>
        <time>2022-10-02T09:19:51Z</time>
      </trkpt>
      <trkpt lat="45.93678" lon="1.16836">
        <ele>339.7</ele>
        <time>2022-10-02T09:19:52Z</time>
      </trkpt>
      <trkpt lat="45.93674" lon="1.16835">
        <ele>339.6</ele>
        <time>2022-10-02T09:19:53Z</time>
      </trkpt>
      <trkpt lat="45.9367" lon="1.16835">
        <ele>339.6</ele>
        <time>2022-10-02T09:19:54Z</time>
      </trkpt>
      <trkpt lat="45.93667" lon="1.16834">
        <ele>339.5</ele>
        <time>2022-10-02T09:19:55Z</time>
      </trkpt>
      <trkpt lat="45.93663" lon="1.16833">
        <ele>339.5</ele>
        <time>2022-10-02T09:19:56Z</time>
      </trkpt>
      <trkpt lat="45.93659" lon="1.16832">
        <ele>339.4</ele>
        <time>2022-10-02T09:19:57Z</time>
      </trkpt>
      <trkpt lat="45.93655" lon="1.16831">
        <ele>339.4</ele>
        <time>2022-10-02T09:19:58Z</time>
      </trkpt>
      <trkpt lat="45.9365" lon="1.1683">
        <ele>339.3</ele>
        <time>2022-10-02T09:19:59Z</time>
      </trkpt>
      <trkpt lat="45.93645" lon="1.1683">
        <ele>339.2</ele>
        <time>2022-10-02T09:20:00Z</time>
      </trkpt>
      <trkpt lat="45.93641" lon="1.1683">
        <ele>339.2</ele>
        <time>2022-10-02T09:20:01Z</time>
      </trkpt>
      <trkpt lat="45.93637" lon="1.16831">
        <ele>339.1</ele>
        <time>2022-10-02T09:20:02Z</time>
      </trkpt>
      <trkpt lat="45.93632" lon="1.16832">
        <ele>339.1</ele>
        <time>2022-10-02T09:20:03Z</time>
      </trkpt>
      <trkpt lat="45.93628" lon="1.16832">
        <ele>339</ele>
        <time>2022-10-02T09:20:04Z</time>
      </trkpt>
      <trkpt lat="45.93625" lon="1.16832">
        <ele>339</ele>
        <time>2022-10-02T09:20:05Z</time>
      </trkpt>
      <trkpt lat="45.93621" lon="1.16831">
        <ele>339</ele>
        <time>2022-10-02T09:20:06Z</time>
      </trkpt>
      <trkpt lat="45.93617" lon="1.16831">
        <ele>338.9</ele>
        <time>2022-10-02T09:20:07Z</time>
      </trkpt>
      <trkpt lat="45.93613" lon="1.16832">
        <ele>338.9</ele>
        <time>2022-10-02T09:20:08Z</time>
      </trkpt>
      <trkpt lat="45.93609" lon="1.16832">
        <ele>338.8</ele>
        <time>2022-10-02T09:20:09Z</time>
      </trkpt>
      <trkpt lat="45.93605" lon="1.16833">
        <ele>338.8</ele>
        <time>2022-10-02T09:20:10Z</time>
      </trkpt>
      <trkpt lat="45.936" lon="1.16833">
        <ele>338.7</ele>
        <time>2022-10-02T09:20:11Z</time>
      </trkpt>
      <trkpt lat="45.93596" lon="1.16834">
        <ele>338.7</ele>
        <time>2022-10-02T09:20:12Z</time>
      </trkpt>
      <trkpt lat="45.93592" lon="1.16835">
        <ele>338.6</ele>
        <time>2022-10-02T09:20:13Z</time>
      </trkpt>
      <trkpt lat="45.93588" lon="1.16836">
        <ele>338.5</ele>
        <time>2022-10-02T09:20:14Z</time>
      </trkpt>
      <trkpt lat="45.93585" lon="1.16836">
        <ele>338.5</ele>
        <time>2022-10-02T09:20:15Z</time>
      </trkpt>
      <trkpt lat="45.93581" lon="1.16837">
        <ele>338.4</ele>
        <time>2022-10-02T09:20:16Z</time>
      </trkpt>
      <trkpt lat="45.93577" lon="1.16838">
        <ele>338.4</ele>
        <time>2022-10-02T09:20:17Z</time>
      </trkpt>
      <trkpt lat="45.93573" lon="1.16839">
        <ele>338.3</ele>
        <time>2022-10-02T09:20:18Z</time>
      </trkpt>
      <trkpt lat="45.93568" lon="1.1684">
        <ele>338.2</ele>
        <time>2022-10-02T09:20:19Z</time>
      </trkpt>
      <trkpt lat="45.93564" lon="1.16842">
        <ele>338.1</ele>
        <time>2022-10-02T09:20:20Z</time>
      </trkpt>
      <trkpt lat="45.93559" lon="1.16844">
        <ele>338</ele>
        <time>2022-10-02T09:20:21Z</time>
      </trkpt>
      <trkpt lat="45.93555" lon="1.16844">
        <ele>338</ele>
        <time>2022-10-02T09:20:22Z</time>
      </trkpt>
      <trkpt lat="45.93551" lon="1.16845">
        <ele>337.9</ele>
        <time>2022-10-02T09:20:23Z</time>
      </trkpt>
      <trkpt lat="45.93546" lon="1.16846">
        <ele>337.8</ele>
        <time>2022-10-02T09:20:24Z</time>
      </trkpt>
      <trkpt lat="45.93541" lon="1.1685">
        <ele>337.7</ele>
        <time>2022-10-02T09:20:25Z</time>
      </trkpt>
      <trkpt lat="45.93537" lon="1.1685">
        <ele>337.6</ele>
        <time>2022-10-02T09:20:26Z</time>
      </trkpt>
      <trkpt lat="45.93532" lon="1.16851">
        <ele>337.5</ele>
        <time>2022-10-02T09:20:27Z</time>
      </trkpt>
      <trkpt lat="45.93528" lon="1.16852">
        <ele>337.4</ele>
        <time>2022-10-02T09:20:28Z</time>
      </trkpt>
      <trkpt lat="45.93524" lon="1.16853">
        <ele>337.4</ele>
        <time>2022-10-02T09:20:29Z</time>
      </trkpt>
      <trkpt lat="45.93519" lon="1.16856">
        <ele>337.3</ele>
        <time>2022-10-02T09:20:30Z</time>
      </trkpt>
      <trkpt lat="45.93515" lon="1.16856">
        <ele>337.3</ele>
        <time>2022-10-02T09:20:31Z</time>
      </trkpt>
      <trkpt lat="45.9351" lon="1.16856">
        <ele>337.2</ele>
        <time>2022-10-02T09:20:32Z</time>
      </trkpt>
      <trkpt lat="45.93506" lon="1.16857">
        <ele>337.2</ele>
        <time>2022-10-02T09:20:33Z</time>
      </trkpt>
      <trkpt lat="45.93501" lon="1.16859">
        <ele>337.1</ele>
        <time>2022-10-02T09:20:34Z</time>
      </trkpt>
      <trkpt lat="45.93497" lon="1.1686">
        <ele>337</ele>
        <time>2022-10-02T09:20:35Z</time>
      </trkpt>
      <trkpt lat="45.93493" lon="1.16862">
        <ele>337</ele>
        <time>2022-10-02T09:20:36Z</time>
      </trkpt>
      <trkpt lat="45.9349" lon="1.16865">
        <ele>336.9</ele>
        <time>2022-10-02T09:20:37Z</time>
      </trkpt>
      <trkpt lat="45.93486" lon="1.16867">
        <ele>336.9</ele>
        <time>2022-10-02T09:20:38Z</time>
      </trkpt>
      <trkpt lat="45.93482" lon="1.16869">
        <ele>336.8</ele>
        <time>2022-10-02T09:20:39Z</time>
      </trkpt>
      <trkpt lat="45.93478" lon="1.16871">
        <ele>336.7</ele>
        <time>2022-10-02T09:20:40Z</time>
      </trkpt>
      <trkpt lat="45.93474" lon="1.16874">
        <ele>336.7</ele>
        <time>2022-10-02T09:20:41Z</time>
      </trkpt>
      <trkpt lat="45.9347" lon="1.16878">
        <ele>336.6</ele>
        <time>2022-10-02T09:20:42Z</time>
      </trkpt>
      <trkpt lat="45.93466" lon="1.16882">
        <ele>336.4</ele>
        <time>2022-10-02T09:20:43Z</time>
      </trkpt>
      <trkpt lat="45.93461" lon="1.16885">
        <ele>336.3</ele>
        <time>2022-10-02T09:20:44Z</time>
      </trkpt>
      <trkpt lat="45.93457" lon="1.16889">
        <ele>336.1</ele>
        <time>2022-10-02T09:20:45Z</time>
      </trkpt>
      <trkpt lat="45.93453" lon="1.16893">
        <ele>336</ele>
        <time>2022-10-02T09:20:46Z</time>
      </trkpt>
      <trkpt lat="45.93448" lon="1.16897">
        <ele>335.8</ele>
        <time>2022-10-02T09:20:47Z</time>
      </trkpt>
      <trkpt lat="45.93444" lon="1.169">
        <ele>335.6</ele>
        <time>2022-10-02T09:20:48Z</time>
      </trkpt>
      <trkpt lat="45.93439" lon="1.16904">
        <ele>335.4</ele>
        <time>2022-10-02T09:20:49Z</time>
      </trkpt>
      <trkpt lat="45.93434" lon="1.16907">
        <ele>335.2</ele>
        <time>2022-10-02T09:20:50Z</time>
      </trkpt>
      <trkpt lat="45.93429" lon="1.1691">
        <ele>335</ele>
        <time>2022-10-02T09:20:51Z</time>
      </trkpt>
      <trkpt lat="45.93424" lon="1.16913">
        <ele>334.8</ele>
        <time>2022-10-02T09:20:52Z</time>
      </trkpt>
      <trkpt lat="45.93419" lon="1.16917">
        <ele>334.5</ele>
        <time>2022-10-02T09:20:53Z</time>
      </trkpt>
      <trkpt lat="45.93414" lon="1.16922">
        <ele>334.2</ele>
        <time>2022-10-02T09:20:54Z</time>
      </trkpt>
      <trkpt lat="45.93409" lon="1.16925">
        <ele>333.9</ele>
        <time>2022-10-02T09:20:55Z</time>
      </trkpt>
      <trkpt lat="45.93403" lon="1.16928">
        <ele>333.5</ele>
        <time>2022-10-02T09:20:56Z</time>
      </trkpt>
      <trkpt lat="45.93396" lon="1.1693">
        <ele>333</ele>
        <time>2022-10-02T09:20:57Z</time>
      </trkpt>
      <trkpt lat="45.93389" lon="1.16929">
        <ele>332.4</ele>
        <time>2022-10-02T09:20:58Z</time>
      </trkpt>
      <trkpt lat="45.93384" lon="1.16924">
        <ele>331.9</ele>
        <time>2022-10-02T09:20:59Z</time>
      </trkpt>
      <trkpt lat="45.93378" lon="1.16916">
        <ele>331.1</ele>
        <time>2022-10-02T09:21:00Z</time>
      </trkpt>
      <trkpt lat="45.93374" lon="1.16907">
        <ele>330.4</ele>
        <time>2022-10-02T09:21:01Z</time>
      </trkpt>
      <trkpt lat="45.9337" lon="1.16899">
        <ele>329.7</ele>
        <time>2022-10-02T09:21:02Z</time>
      </trkpt>
      <trkpt lat="45.93365" lon="1.16888">
        <ele>328.8</ele>
        <time>2022-10-02T09:21:03Z</time>
      </trkpt>
      <trkpt lat="45.9336" lon="1.1688">
        <ele>328.1</ele>
        <time>2022-10-02T09:21:04Z</time>
      </trkpt>
      <trkpt lat="45.93354" lon="1.16871">
        <ele>327.2</ele>
        <time>2022-10-02T09:21:05Z</time>
      </trkpt>
      <trkpt lat="45.93347" lon="1.16862">
        <ele>326.3</ele>
        <time>2022-10-02T09:21:06Z</time>
      </trkpt>
      <trkpt lat="45.9334" lon="1.16854">
        <ele>325.6</ele>
        <time>2022-10-02T09:21:07Z</time>
      </trkpt>
      <trkpt lat="45.93332" lon="1.16847">
        <ele>324.9</ele>
        <time>2022-10-02T09:21:08Z</time>
      </trkpt>
      <trkpt lat="45.93323" lon="1.16841">
        <ele>324.2</ele>
        <time>2022-10-02T09:21:09Z</time>
      </trkpt>
      <trkpt lat="45.93315" lon="1.16835">
        <ele>323.7</ele>
        <time>2022-10-02T09:21:10Z</time>
      </trkpt>
      <trkpt lat="45.93307" lon="1.16829">
        <ele>323.2</ele>
        <time>2022-10-02T09:21:11Z</time>
      </trkpt>
      <trkpt lat="45.93301" lon="1.16821">
        <ele>322.8</ele>
        <time>2022-10-02T09:21:12Z</time>
      </trkpt>
      <trkpt lat="45.93295" lon="1.1681">
        <ele>322.4</ele>
        <time>2022-10-02T09:21:13Z</time>
      </trkpt>
      <trkpt lat="45.93293" lon="1.16799">
        <ele>322.2</ele>
        <time>2022-10-02T09:21:15Z</time>
      </trkpt>
      <trkpt lat="45.9329" lon="1.16789">
        <ele>322</ele>
        <time>2022-10-02T09:21:16Z</time>
      </trkpt>
      <trkpt lat="45.93287" lon="1.16779">
        <ele>321.9</ele>
        <time>2022-10-02T09:21:17Z</time>
      </trkpt>
      <trkpt lat="45.93285" lon="1.16769">
        <ele>321.9</ele>
        <time>2022-10-02T09:21:18Z</time>
      </trkpt>
      <trkpt lat="45.93282" lon="1.16761">
        <ele>321.8</ele>
        <time>2022-10-02T09:21:19Z</time>
      </trkpt>
      <trkpt lat="45.93281" lon="1.16755">
        <ele>321.7</ele>
        <time>2022-10-02T09:21:20Z</time>
      </trkpt>
      <trkpt lat="45.9328" lon="1.16748">
        <ele>321.6</ele>
        <time>2022-10-02T09:21:21Z</time>
      </trkpt>
      <trkpt lat="45.93278" lon="1.1674">
        <ele>321.4</ele>
        <time>2022-10-02T09:21:22Z</time>
      </trkpt>
      <trkpt lat="45.93275" lon="1.16733">
        <ele>321.1</ele>
        <time>2022-10-02T09:21:23Z</time>
      </trkpt>
      <trkpt lat="45.93272" lon="1.16726">
        <ele>320.7</ele>
        <time>2022-10-02T09:21:24Z</time>
      </trkpt>
      <trkpt lat="45.93269" lon="1.16719">
        <ele>320.2</ele>
        <time>2022-10-02T09:21:25Z</time>
      </trkpt>
      <trkpt lat="45.93264" lon="1.16708">
        <ele>319.4</ele>
        <time>2022-10-02T09:21:26Z</time>
      </trkpt>
      <trkpt lat="45.9326" lon="1.16702">
        <ele>318.6</ele>
        <time>2022-10-02T09:21:27Z</time>
      </trkpt>
      <trkpt lat="45.93253" lon="1.16698">
        <ele>317.6</ele>
        <time>2022-10-02T09:21:28Z</time>
      </trkpt>
      <trkpt lat="45.93244" lon="1.16694">
        <ele>316.3</ele>
        <time>2022-10-02T09:21:29Z</time>
      </trkpt>
      <trkpt lat="45.93235" lon="1.16689">
        <ele>315</ele>
        <time>2022-10-02T09:21:30Z</time>
      </trkpt>
      <trkpt lat="45.93225" lon="1.16685">
        <ele>313.8</ele>
        <time>2022-10-02T09:21:31Z</time>
      </trkpt>
      <trkpt lat="45.93215" lon="1.16682">
        <ele>312.6</ele>
        <time>2022-10-02T09:21:32Z</time>
      </trkpt>
      <trkpt lat="45.93205" lon="1.16678">
        <ele>311.6</ele>
        <time>2022-10-02T09:21:33Z</time>
      </trkpt>
      <trkpt lat="45.93196" lon="1.16674">
        <ele>310.6</ele>
        <time>2022-10-02T09:21:34Z</time>
      </trkpt>
      <trkpt lat="45.93187" lon="1.16672">
        <ele>309.8</ele>
        <time>2022-10-02T09:21:35Z</time>
      </trkpt>
      <trkpt lat="45.93179" lon="1.16669">
        <ele>309</ele>
        <time>2022-10-02T09:21:36Z</time>
      </trkpt>
      <trkpt lat="45.93171" lon="1.16665">
        <ele>308.2</ele>
        <time>2022-10-02T09:21:37Z</time>
      </trkpt>
      <trkpt lat="45.93162" lon="1.1666">
        <ele>307</ele>
        <time>2022-10-02T09:21:38Z</time>
      </trkpt>
      <trkpt lat="45.93157" lon="1.16653">
        <ele>306.1</ele>
        <time>2022-10-02T09:21:39Z</time>
      </trkpt>
      <trkpt lat="45.9315" lon="1.16644">
        <ele>305</ele>
        <time>2022-10-02T09:21:40Z</time>
      </trkpt>
      <trkpt lat="45.93146" lon="1.16634">
        <ele>304.3</ele>
        <time>2022-10-02T09:21:41Z</time>
      </trkpt>
      <trkpt lat="45.93142" lon="1.16623">
        <ele>303.7</ele>
        <time>2022-10-02T09:21:42Z</time>
      </trkpt>
      <trkpt lat="45.93141" lon="1.16613">
        <ele>303.5</ele>
        <time>2022-10-02T09:21:43Z</time>
      </trkpt>
      <trkpt lat="45.9314" lon="1.16606">
        <ele>303.5</ele>
        <time>2022-10-02T09:21:44Z</time>
      </trkpt>
      <trkpt lat="45.93138" lon="1.16596">
        <ele>303.5</ele>
        <time>2022-10-02T09:21:45Z</time>
      </trkpt>
      <trkpt lat="45.93135" lon="1.16587">
        <ele>303.8</ele>
        <time>2022-10-02T09:21:46Z</time>
      </trkpt>
      <trkpt lat="45.93131" lon="1.16581">
        <ele>304.1</ele>
        <time>2022-10-02T09:21:47Z</time>
      </trkpt>
      <trkpt lat="45.93124" lon="1.16584">
        <ele>304.6</ele>
        <time>2022-10-02T09:21:48Z</time>
      </trkpt>
      <trkpt lat="45.93121" lon="1.1658">
        <ele>305</ele>
        <time>2022-10-02T09:21:49Z</time>
      </trkpt>
      <trkpt lat="45.93117" lon="1.16579">
        <ele>305.4</ele>
        <time>2022-10-02T09:21:50Z</time>
      </trkpt>
      <trkpt lat="45.93114" lon="1.1658">
        <ele>305.7</ele>
        <time>2022-10-02T09:21:51Z</time>
      </trkpt>
      <trkpt lat="45.93112" lon="1.16581">
        <ele>305.9</ele>
        <time>2022-10-02T09:21:52Z</time>
      </trkpt>
      <trkpt lat="45.93108" lon="1.16579">
        <ele>306.3</ele>
        <time>2022-10-02T09:21:53Z</time>
      </trkpt>
      <trkpt lat="45.93105" lon="1.1658">
        <ele>306.7</ele>
        <time>2022-10-02T09:21:54Z</time>
      </trkpt>
      <trkpt lat="45.93101" lon="1.1658">
        <ele>307</ele>
        <time>2022-10-02T09:21:55Z</time>
      </trkpt>
      <trkpt lat="45.93097" lon="1.16578">
        <ele>307.4</ele>
        <time>2022-10-02T09:21:56Z</time>
      </trkpt>
      <trkpt lat="45.93094" lon="1.16577">
        <ele>307.8</ele>
        <time>2022-10-02T09:21:57Z</time>
      </trkpt>
      <trkpt lat="45.93091" lon="1.16575">
        <ele>308.2</ele>
        <time>2022-10-02T09:21:58Z</time>
      </trkpt>
      <trkpt lat="45.93088" lon="1.16572">
        <ele>308.5</ele>
        <time>2022-10-02T09:21:59Z</time>
      </trkpt>
      <trkpt lat="45.93086" lon="1.16569">
        <ele>308.8</ele>
        <time>2022-10-02T09:22:00Z</time>
      </trkpt>
      <trkpt lat="45.93085" lon="1.16566">
        <ele>309</ele>
        <time>2022-10-02T09:22:01Z</time>
      </trkpt>
      <trkpt lat="45.93083" lon="1.16562">
        <ele>309.3</ele>
        <time>2022-10-02T09:22:02Z</time>
      </trkpt>
      <trkpt lat="45.93081" lon="1.16557">
        <ele>309.6</ele>
        <time>2022-10-02T09:22:03Z</time>
      </trkpt>
      <trkpt lat="45.93079" lon="1.16552">
        <ele>309.8</ele>
        <time>2022-10-02T09:22:04Z</time>
      </trkpt>
      <trkpt lat="45.93078" lon="1.16547">
        <ele>310</ele>
        <time>2022-10-02T09:22:05Z</time>
      </trkpt>
      <trkpt lat="45.93076" lon="1.16542">
        <ele>310.2</ele>
        <time>2022-10-02T09:22:06Z</time>
      </trkpt>
      <trkpt lat="45.93075" lon="1.16538">
        <ele>310.4</ele>
        <time>2022-10-02T09:22:07Z</time>
      </trkpt>
      <trkpt lat="45.93074" lon="1.16534">
        <ele>310.5</ele>
        <time>2022-10-02T09:22:08Z</time>
      </trkpt>
      <trkpt lat="45.93072" lon="1.16529">
        <ele>310.7</ele>
        <time>2022-10-02T09:22:09Z</time>
      </trkpt>
      <trkpt lat="45.9307" lon="1.16524">
        <ele>310.9</ele>
        <time>2022-10-02T09:22:10Z</time>
      </trkpt>
      <trkpt lat="45.93069" lon="1.1652">
        <ele>311</ele>
        <time>2022-10-02T09:22:11Z</time>
      </trkpt>
      <trkpt lat="45.93068" lon="1.16516">
        <ele>311.1</ele>
        <time>2022-10-02T09:22:12Z</time>
      </trkpt>
      <trkpt lat="45.93067" lon="1.16512">
        <ele>311.2</ele>
        <time>2022-10-02T09:22:13Z</time>
      </trkpt>
      <trkpt lat="45.93066" lon="1.16509">
        <ele>311.2</ele>
        <time>2022-10-02T09:22:14Z</time>
      </trkpt>
      <trkpt lat="45.93064" lon="1.16505">
        <ele>311.3</ele>
        <time>2022-10-02T09:22:15Z</time>
      </trkpt>
      <trkpt lat="45.93063" lon="1.16502">
        <ele>311.3</ele>
        <time>2022-10-02T09:22:16Z</time>
      </trkpt>
      <trkpt lat="45.93062" lon="1.16498">
        <ele>311.4</ele>
        <time>2022-10-02T09:22:17Z</time>
      </trkpt>
      <trkpt lat="45.93061" lon="1.16496">
        <ele>311.4</ele>
        <time>2022-10-02T09:22:18Z</time>
      </trkpt>
      <trkpt lat="45.93059" lon="1.16494">
        <ele>311.4</ele>
        <time>2022-10-02T09:22:19Z</time>
      </trkpt>
      <trkpt lat="45.93057" lon="1.16492">
        <ele>311.4</ele>
        <time>2022-10-02T09:22:20Z</time>
      </trkpt>
      <trkpt lat="45.93053" lon="1.16492">
        <ele>311.2</ele>
        <time>2022-10-02T09:22:21Z</time>
      </trkpt>
      <trkpt lat="45.93049" lon="1.16493">
        <ele>310.9</ele>
        <time>2022-10-02T09:22:22Z</time>
      </trkpt>
      <trkpt lat="45.93044" lon="1.16497">
        <ele>310.5</ele>
        <time>2022-10-02T09:22:23Z</time>
      </trkpt>
      <trkpt lat="45.93038" lon="1.16499">
        <ele>310.1</ele>
        <time>2022-10-02T09:22:24Z</time>
      </trkpt>
      <trkpt lat="45.93033" lon="1.16501">
        <ele>309.8</ele>
        <time>2022-10-02T09:22:25Z</time>
      </trkpt>
      <trkpt lat="45.93027" lon="1.16504">
        <ele>309.2</ele>
        <time>2022-10-02T09:22:26Z</time>
      </trkpt>
      <trkpt lat="45.9302" lon="1.16507">
        <ele>308.6</ele>
        <time>2022-10-02T09:22:27Z</time>
      </trkpt>
      <trkpt lat="45.93014" lon="1.16511">
        <ele>308.1</ele>
        <time>2022-10-02T09:22:28Z</time>
      </trkpt>
      <trkpt lat="45.93007" lon="1.16516">
        <ele>307.4</ele>
        <time>2022-10-02T09:22:29Z</time>
      </trkpt>
      <trkpt lat="45.93" lon="1.16521">
        <ele>306.8</ele>
        <time>2022-10-02T09:22:30Z</time>
      </trkpt>
      <trkpt lat="45.92993" lon="1.16528">
        <ele>306.1</ele>
        <time>2022-10-02T09:22:31Z</time>
      </trkpt>
      <trkpt lat="45.92987" lon="1.16535">
        <ele>305.5</ele>
        <time>2022-10-02T09:22:32Z</time>
      </trkpt>
      <trkpt lat="45.9298" lon="1.16544">
        <ele>304.8</ele>
        <time>2022-10-02T09:22:33Z</time>
      </trkpt>
      <trkpt lat="45.92973" lon="1.16551">
        <ele>304.1</ele>
        <time>2022-10-02T09:22:34Z</time>
      </trkpt>
      <trkpt lat="45.92965" lon="1.16558">
        <ele>303.4</ele>
        <time>2022-10-02T09:22:35Z</time>
      </trkpt>
      <trkpt lat="45.92958" lon="1.16566">
        <ele>302.8</ele>
        <time>2022-10-02T09:22:36Z</time>
      </trkpt>
      <trkpt lat="45.92951" lon="1.16574">
        <ele>302.1</ele>
        <time>2022-10-02T09:22:37Z</time>
      </trkpt>
      <trkpt lat="45.92943" lon="1.16581">
        <ele>301.4</ele>
        <time>2022-10-02T09:22:38Z</time>
      </trkpt>
      <trkpt lat="45.92935" lon="1.16588">
        <ele>300.7</ele>
        <time>2022-10-02T09:22:39Z</time>
      </trkpt>
      <trkpt lat="45.92926" lon="1.16594">
        <ele>300</ele>
        <time>2022-10-02T09:22:40Z</time>
      </trkpt>
      <trkpt lat="45.92917" lon="1.16601">
        <ele>299.3</ele>
        <time>2022-10-02T09:22:41Z</time>
      </trkpt>
      <trkpt lat="45.92908" lon="1.16609">
        <ele>298.6</ele>
        <time>2022-10-02T09:22:42Z</time>
      </trkpt>
      <trkpt lat="45.929" lon="1.16614">
        <ele>298</ele>
        <time>2022-10-02T09:22:43Z</time>
      </trkpt>
      <trkpt lat="45.9289" lon="1.1662">
        <ele>297.4</ele>
        <time>2022-10-02T09:22:44Z</time>
      </trkpt>
      <trkpt lat="45.92881" lon="1.16627">
        <ele>296.9</ele>
        <time>2022-10-02T09:22:45Z</time>
      </trkpt>
      <trkpt lat="45.92873" lon="1.16634">
        <ele>296.4</ele>
        <time>2022-10-02T09:22:46Z</time>
      </trkpt>
      <trkpt lat="45.92865" lon="1.16642">
        <ele>296</ele>
        <time>2022-10-02T09:22:47Z</time>
      </trkpt>
      <trkpt lat="45.92856" lon="1.16649">
        <ele>295.6</ele>
        <time>2022-10-02T09:22:48Z</time>
      </trkpt>
      <trkpt lat="45.92848" lon="1.16656">
        <ele>295.2</ele>
        <time>2022-10-02T09:22:49Z</time>
      </trkpt>
      <trkpt lat="45.9284" lon="1.16661">
        <ele>294.8</ele>
        <time>2022-10-02T09:22:50Z</time>
      </trkpt>
      <trkpt lat="45.92831" lon="1.16666">
        <ele>294.3</ele>
        <time>2022-10-02T09:22:51Z</time>
      </trkpt>
      <trkpt lat="45.92822" lon="1.16671">
        <ele>293.9</ele>
        <time>2022-10-02T09:22:52Z</time>
      </trkpt>
      <trkpt lat="45.92813" lon="1.16674">
        <ele>293.4</ele>
        <time>2022-10-02T09:22:53Z</time>
      </trkpt>
      <trkpt lat="45.92804" lon="1.16676">
        <ele>293</ele>
        <time>2022-10-02T09:22:54Z</time>
      </trkpt>
      <trkpt lat="45.92794" lon="1.16677">
        <ele>292.5</ele>
        <time>2022-10-02T09:22:55Z</time>
      </trkpt>
      <trkpt lat="45.92784" lon="1.16678">
        <ele>292.2</ele>
        <time>2022-10-02T09:22:56Z</time>
      </trkpt>
      <trkpt lat="45.92775" lon="1.16677">
        <ele>291.9</ele>
        <time>2022-10-02T09:22:57Z</time>
      </trkpt>
      <trkpt lat="45.92767" lon="1.16678">
        <ele>291.7</ele>
        <time>2022-10-02T09:22:58Z</time>
      </trkpt>
      <trkpt lat="45.92758" lon="1.16676">
        <ele>291.6</ele>
        <time>2022-10-02T09:22:59Z</time>
      </trkpt>
      <trkpt lat="45.92749" lon="1.16677">
        <ele>291.5</ele>
        <time>2022-10-02T09:23:00Z</time>
      </trkpt>
      <trkpt lat="45.92742" lon="1.16676">
        <ele>291.4</ele>
        <time>2022-10-02T09:23:01Z</time>
      </trkpt>
      <trkpt lat="45.92734" lon="1.16675">
        <ele>291.3</ele>
        <time>2022-10-02T09:23:02Z</time>
      </trkpt>
      <trkpt lat="45.92726" lon="1.16673">
        <ele>291.3</ele>
        <time>2022-10-02T09:23:03Z</time>
      </trkpt>
      <trkpt lat="45.92718" lon="1.16672">
        <ele>291.3</ele>
        <time>2022-10-02T09:23:04Z</time>
      </trkpt>
      <trkpt lat="45.92711" lon="1.1667">
        <ele>291.3</ele>
        <time>2022-10-02T09:23:05Z</time>
      </trkpt>
      <trkpt lat="45.92699" lon="1.16665">
        <ele>291.1</ele>
        <time>2022-10-02T09:23:06Z</time>
      </trkpt>
      <trkpt lat="45.92692" lon="1.16662">
        <ele>291.1</ele>
        <time>2022-10-02T09:23:07Z</time>
      </trkpt>
      <trkpt lat="45.92686" lon="1.16657">
        <ele>291</ele>
        <time>2022-10-02T09:23:08Z</time>
      </trkpt>
      <trkpt lat="45.92681" lon="1.16651">
        <ele>291</ele>
        <time>2022-10-02T09:23:09Z</time>
      </trkpt>
      <trkpt lat="45.92677" lon="1.16646">
        <ele>291</ele>
        <time>2022-10-02T09:23:10Z</time>
      </trkpt>
      <trkpt lat="45.92674" lon="1.16639">
        <ele>291</ele>
        <time>2022-10-02T09:23:11Z</time>
      </trkpt>
      <trkpt lat="45.9267" lon="1.16633">
        <ele>291.1</ele>
        <time>2022-10-02T09:23:12Z</time>
      </trkpt>
      <trkpt lat="45.92666" lon="1.16626">
        <ele>291.1</ele>
        <time>2022-10-02T09:23:13Z</time>
      </trkpt>
      <trkpt lat="45.92662" lon="1.16621">
        <ele>291.2</ele>
        <time>2022-10-02T09:23:14Z</time>
      </trkpt>
      <trkpt lat="45.92657" lon="1.16613">
        <ele>291.4</ele>
        <time>2022-10-02T09:23:15Z</time>
      </trkpt>
      <trkpt lat="45.92653" lon="1.16607">
        <ele>291.5</ele>
        <time>2022-10-02T09:23:16Z</time>
      </trkpt>
      <trkpt lat="45.92649" lon="1.16602">
        <ele>291.6</ele>
        <time>2022-10-02T09:23:17Z</time>
      </trkpt>
      <trkpt lat="45.92644" lon="1.16599">
        <ele>291.7</ele>
        <time>2022-10-02T09:23:18Z</time>
      </trkpt>
      <trkpt lat="45.9264" lon="1.16597">
        <ele>291.9</ele>
        <time>2022-10-02T09:23:19Z</time>
      </trkpt>
      <trkpt lat="45.92634" lon="1.16596">
        <ele>292</ele>
        <time>2022-10-02T09:23:20Z</time>
      </trkpt>
      <trkpt lat="45.92629" lon="1.16595">
        <ele>292.2</ele>
        <time>2022-10-02T09:23:21Z</time>
      </trkpt>
      <trkpt lat="45.92623" lon="1.16596">
        <ele>292.3</ele>
        <time>2022-10-02T09:23:22Z</time>
      </trkpt>
      <trkpt lat="45.92619" lon="1.16599">
        <ele>292.4</ele>
        <time>2022-10-02T09:23:23Z</time>
      </trkpt>
      <trkpt lat="45.92615" lon="1.16602">
        <ele>292.6</ele>
        <time>2022-10-02T09:23:24Z</time>
      </trkpt>
      <trkpt lat="45.9261" lon="1.16605">
        <ele>292.7</ele>
        <time>2022-10-02T09:23:25Z</time>
      </trkpt>
      <trkpt lat="45.92606" lon="1.16607">
        <ele>292.9</ele>
        <time>2022-10-02T09:23:26Z</time>
      </trkpt>
      <trkpt lat="45.92602" lon="1.1661">
        <ele>293</ele>
        <time>2022-10-02T09:23:27Z</time>
      </trkpt>
      <trkpt lat="45.92598" lon="1.16612">
        <ele>293.2</ele>
        <time>2022-10-02T09:23:28Z</time>
      </trkpt>
      <trkpt lat="45.92596" lon="1.16615">
        <ele>293.3</ele>
        <time>2022-10-02T09:23:29Z</time>
      </trkpt>
      <trkpt lat="45.92592" lon="1.16619">
        <ele>293.5</ele>
        <time>2022-10-02T09:23:30Z</time>
      </trkpt>
      <trkpt lat="45.92589" lon="1.16622">
        <ele>293.6</ele>
        <time>2022-10-02T09:23:31Z</time>
      </trkpt>
      <trkpt lat="45.92586" lon="1.16625">
        <ele>293.7</ele>
        <time>2022-10-02T09:23:32Z</time>
      </trkpt>
      <trkpt lat="45.92583" lon="1.16629">
        <ele>293.9</ele>
        <time>2022-10-02T09:23:33Z</time>
      </trkpt>
      <trkpt lat="45.9258" lon="1.16632">
        <ele>294</ele>
        <time>2022-10-02T09:23:34Z</time>
      </trkpt>
      <trkpt lat="45.92577" lon="1.16635">
        <ele>294.1</ele>
        <time>2022-10-02T09:23:35Z</time>
      </trkpt>
      <trkpt lat="45.92574" lon="1.16639">
        <ele>294.3</ele>
        <time>2022-10-02T09:23:36Z</time>
      </trkpt>
      <trkpt lat="45.92571" lon="1.16643">
        <ele>294.4</ele>
        <time>2022-10-02T09:23:37Z</time>
      </trkpt>
      <trkpt lat="45.92568" lon="1.16647">
        <ele>294.6</ele>
        <time>2022-10-02T09:23:38Z</time>
      </trkpt>
      <trkpt lat="45.92564" lon="1.1665">
        <ele>294.7</ele>
        <time>2022-10-02T09:23:39Z</time>
      </trkpt>
      <trkpt lat="45.92561" lon="1.16653">
        <ele>294.9</ele>
        <time>2022-10-02T09:23:40Z</time>
      </trkpt>
      <trkpt lat="45.92558" lon="1.16656">
        <ele>295</ele>
        <time>2022-10-02T09:23:41Z</time>
      </trkpt>
      <trkpt lat="45.92555" lon="1.16659">
        <ele>295.1</ele>
        <time>2022-10-02T09:23:42Z</time>
      </trkpt>
      <trkpt lat="45.92552" lon="1.16662">
        <ele>295.3</ele>
        <time>2022-10-02T09:23:43Z</time>
      </trkpt>
      <trkpt lat="45.92549" lon="1.16665">
        <ele>295.4</ele>
        <time>2022-10-02T09:23:44Z</time>
      </trkpt>
      <trkpt lat="45.92545" lon="1.16669">
        <ele>295.5</ele>
        <time>2022-10-02T09:23:45Z</time>
      </trkpt>
      <trkpt lat="45.92542" lon="1.16672">
        <ele>295.7</ele>
        <time>2022-10-02T09:23:46Z</time>
      </trkpt>
      <trkpt lat="45.92539" lon="1.16675">
        <ele>295.8</ele>
        <time>2022-10-02T09:23:47Z</time>
      </trkpt>
      <trkpt lat="45.92536" lon="1.16678">
        <ele>295.9</ele>
        <time>2022-10-02T09:23:48Z</time>
      </trkpt>
      <trkpt lat="45.92533" lon="1.16682">
        <ele>296</ele>
        <time>2022-10-02T09:23:49Z</time>
      </trkpt>
      <trkpt lat="45.92531" lon="1.16685">
        <ele>296.1</ele>
        <time>2022-10-02T09:23:50Z</time>
      </trkpt>
      <trkpt lat="45.9253" lon="1.16689">
        <ele>296</ele>
        <time>2022-10-02T09:23:51Z</time>
      </trkpt>
      <trkpt lat="45.92531" lon="1.16693">
        <ele>295.9</ele>
        <time>2022-10-02T09:23:52Z</time>
      </trkpt>
      <trkpt lat="45.92533" lon="1.16697">
        <ele>295.7</ele>
        <time>2022-10-02T09:23:53Z</time>
      </trkpt>
      <trkpt lat="45.92536" lon="1.16701">
        <ele>295.5</ele>
        <time>2022-10-02T09:23:54Z</time>
      </trkpt>
      <trkpt lat="45.92541" lon="1.16704">
        <ele>295.2</ele>
        <time>2022-10-02T09:23:55Z</time>
      </trkpt>
      <trkpt lat="45.92546" lon="1.16707">
        <ele>295</ele>
        <time>2022-10-02T09:23:56Z</time>
      </trkpt>
      <trkpt lat="45.92552" lon="1.16712">
        <ele>294.7</ele>
        <time>2022-10-02T09:23:57Z</time>
      </trkpt>
      <trkpt lat="45.92556" lon="1.16716">
        <ele>294.5</ele>
        <time>2022-10-02T09:23:58Z</time>
      </trkpt>
      <trkpt lat="45.92561" lon="1.16722">
        <ele>294.3</ele>
        <time>2022-10-02T09:23:59Z</time>
      </trkpt>
      <trkpt lat="45.92566" lon="1.1673">
        <ele>294.1</ele>
        <time>2022-10-02T09:24:00Z</time>
      </trkpt>
      <trkpt lat="45.92566" lon="1.1674">
        <ele>293.9</ele>
        <time>2022-10-02T09:24:01Z</time>
      </trkpt>
      <trkpt lat="45.92565" lon="1.16748">
        <ele>293.8</ele>
        <time>2022-10-02T09:24:02Z</time>
      </trkpt>
      <trkpt lat="45.92564" lon="1.16757">
        <ele>293.7</ele>
        <time>2022-10-02T09:24:03Z</time>
      </trkpt>
      <trkpt lat="45.92563" lon="1.16764">
        <ele>293.6</ele>
        <time>2022-10-02T09:24:04Z</time>
      </trkpt>
      <trkpt lat="45.92562" lon="1.16772">
        <ele>293.4</ele>
        <time>2022-10-02T09:24:05Z</time>
      </trkpt>
      <trkpt lat="45.92562" lon="1.16779">
        <ele>293.3</ele>
        <time>2022-10-02T09:24:06Z</time>
      </trkpt>
      <trkpt lat="45.92563" lon="1.16786">
        <ele>293.2</ele>
        <time>2022-10-02T09:24:07Z</time>
      </trkpt>
      <trkpt lat="45.92562" lon="1.16792">
        <ele>293.2</ele>
        <time>2022-10-02T09:24:08Z</time>
      </trkpt>
      <trkpt lat="45.92563" lon="1.16799">
        <ele>293.2</ele>
        <time>2022-10-02T09:24:09Z</time>
      </trkpt>
      <trkpt lat="45.92563" lon="1.16805">
        <ele>293.1</ele>
        <time>2022-10-02T09:24:10Z</time>
      </trkpt>
      <trkpt lat="45.92563" lon="1.16812">
        <ele>293.1</ele>
        <time>2022-10-02T09:24:11Z</time>
      </trkpt>
      <trkpt lat="45.92563" lon="1.16819">
        <ele>293.1</ele>
        <time>2022-10-02T09:24:12Z</time>
      </trkpt>
      <trkpt lat="45.92563" lon="1.16825">
        <ele>293.1</ele>
        <time>2022-10-02T09:24:13Z</time>
      </trkpt>
      <trkpt lat="45.92562" lon="1.1683">
        <ele>293.2</ele>
        <time>2022-10-02T09:24:14Z</time>
      </trkpt>
      <trkpt lat="45.92561" lon="1.16836">
        <ele>293.2</ele>
        <time>2022-10-02T09:24:15Z</time>
      </trkpt>
      <trkpt lat="45.92559" lon="1.1684">
        <ele>293.2</ele>
        <time>2022-10-02T09:24:16Z</time>
      </trkpt>
      <trkpt lat="45.92558" lon="1.16844">
        <ele>293.2</ele>
        <time>2022-10-02T09:24:17Z</time>
      </trkpt>
      <trkpt lat="45.92556" lon="1.16849">
        <ele>293.3</ele>
        <time>2022-10-02T09:24:18Z</time>
      </trkpt>
      <trkpt lat="45.92554" lon="1.16854">
        <ele>293.3</ele>
        <time>2022-10-02T09:24:19Z</time>
      </trkpt>
      <trkpt lat="45.92553" lon="1.1686">
        <ele>293.4</ele>
        <time>2022-10-02T09:24:20Z</time>
      </trkpt>
      <trkpt lat="45.92552" lon="1.16865">
        <ele>293.4</ele>
        <time>2022-10-02T09:24:21Z</time>
      </trkpt>
      <trkpt lat="45.9255" lon="1.1687">
        <ele>293.4</ele>
        <time>2022-10-02T09:24:22Z</time>
      </trkpt>
      <trkpt lat="45.92549" lon="1.16875">
        <ele>293.4</ele>
        <time>2022-10-02T09:24:23Z</time>
      </trkpt>
      <trkpt lat="45.92547" lon="1.1688">
        <ele>293.4</ele>
        <time>2022-10-02T09:24:24Z</time>
      </trkpt>
      <trkpt lat="45.92546" lon="1.16886">
        <ele>293.5</ele>
        <time>2022-10-02T09:24:25Z</time>
      </trkpt>
      <trkpt lat="45.92545" lon="1.16891">
        <ele>293.5</ele>
        <time>2022-10-02T09:24:26Z</time>
      </trkpt>
      <trkpt lat="45.92543" lon="1.16896">
        <ele>293.5</ele>
        <time>2022-10-02T09:24:27Z</time>
      </trkpt>
      <trkpt lat="45.92541" lon="1.16901">
        <ele>293.5</ele>
        <time>2022-10-02T09:24:28Z</time>
      </trkpt>
      <trkpt lat="45.92538" lon="1.16905">
        <ele>293.5</ele>
        <time>2022-10-02T09:24:29Z</time>
      </trkpt>
      <trkpt lat="45.92536" lon="1.16908">
        <ele>293.5</ele>
        <time>2022-10-02T09:24:30Z</time>
      </trkpt>
      <trkpt lat="45.92533" lon="1.16912">
        <ele>293.6</ele>
        <time>2022-10-02T09:24:31Z</time>
      </trkpt>
      <trkpt lat="45.9253" lon="1.16914">
        <ele>293.6</ele>
        <time>2022-10-02T09:24:32Z</time>
      </trkpt>
      <trkpt lat="45.92528" lon="1.16917">
        <ele>293.6</ele>
        <time>2022-10-02T09:24:33Z</time>
      </trkpt>
      <trkpt lat="45.92525" lon="1.16919">
        <ele>293.6</ele>
        <time>2022-10-02T09:24:34Z</time>
      </trkpt>
      <trkpt lat="45.92522" lon="1.16921">
        <ele>293.6</ele>
        <time>2022-10-02T09:24:35Z</time>
      </trkpt>
      <trkpt lat="45.92519" lon="1.16924">
        <ele>293.6</ele>
        <time>2022-10-02T09:24:36Z</time>
      </trkpt>
      <trkpt lat="45.92516" lon="1.16928">
        <ele>293.7</ele>
        <time>2022-10-02T09:24:37Z</time>
      </trkpt>
      <trkpt lat="45.92515" lon="1.16934">
        <ele>293.7</ele>
        <time>2022-10-02T09:24:38Z</time>
      </trkpt>
      <trkpt lat="45.92512" lon="1.16939">
        <ele>293.7</ele>
        <time>2022-10-02T09:24:39Z</time>
      </trkpt>
      <trkpt lat="45.9251" lon="1.16944">
        <ele>293.7</ele>
        <time>2022-10-02T09:24:40Z</time>
      </trkpt>
      <trkpt lat="45.92509" lon="1.16949">
        <ele>293.7</ele>
        <time>2022-10-02T09:24:41Z</time>
      </trkpt>
      <trkpt lat="45.92508" lon="1.16953">
        <ele>293.7</ele>
        <time>2022-10-02T09:24:42Z</time>
      </trkpt>
      <trkpt lat="45.92508" lon="1.16958">
        <ele>293.7</ele>
        <time>2022-10-02T09:24:43Z</time>
      </trkpt>
      <trkpt lat="45.92511" lon="1.16961">
        <ele>293.7</ele>
        <time>2022-10-02T09:24:44Z</time>
      </trkpt>
      <trkpt lat="45.92514" lon="1.16964">
        <ele>293.7</ele>
        <time>2022-10-02T09:24:45Z</time>
      </trkpt>
      <trkpt lat="45.92517" lon="1.16968">
        <ele>293.7</ele>
        <time>2022-10-02T09:24:46Z</time>
      </trkpt>
      <trkpt lat="45.92521" lon="1.16971">
        <ele>293.7</ele>
        <time>2022-10-02T09:24:47Z</time>
      </trkpt>
      <trkpt lat="45.92524" lon="1.16974">
        <ele>293.7</ele>
        <time>2022-10-02T09:24:48Z</time>
      </trkpt>
      <trkpt lat="45.92527" lon="1.16979">
        <ele>293.7</ele>
        <time>2022-10-02T09:24:49Z</time>
      </trkpt>
      <trkpt lat="45.92529" lon="1.16983">
        <ele>293.7</ele>
        <time>2022-10-02T09:24:50Z</time>
      </trkpt>
      <trkpt lat="45.92531" lon="1.16988">
        <ele>293.7</ele>
        <time>2022-10-02T09:24:51Z</time>
      </trkpt>
      <trkpt lat="45.92535" lon="1.16993">
        <ele>293.7</ele>
        <time>2022-10-02T09:24:52Z</time>
      </trkpt>
      <trkpt lat="45.92538" lon="1.16998">
        <ele>293.8</ele>
        <time>2022-10-02T09:24:53Z</time>
      </trkpt>
      <trkpt lat="45.9254" lon="1.17002">
        <ele>293.8</ele>
        <time>2022-10-02T09:24:54Z</time>
      </trkpt>
      <trkpt lat="45.92542" lon="1.17007">
        <ele>293.8</ele>
        <time>2022-10-02T09:24:55Z</time>
      </trkpt>
      <trkpt lat="45.92543" lon="1.17012">
        <ele>293.8</ele>
        <time>2022-10-02T09:24:56Z</time>
      </trkpt>
      <trkpt lat="45.92545" lon="1.17017">
        <ele>293.8</ele>
        <time>2022-10-02T09:24:57Z</time>
      </trkpt>
      <trkpt lat="45.92547" lon="1.17021">
        <ele>293.8</ele>
        <time>2022-10-02T09:24:58Z</time>
      </trkpt>
      <trkpt lat="45.9255" lon="1.17026">
        <ele>293.8</ele>
        <time>2022-10-02T09:24:59Z</time>
      </trkpt>
      <trkpt lat="45.92552" lon="1.1703">
        <ele>293.8</ele>
        <time>2022-10-02T09:25:00Z</time>
      </trkpt>
      <trkpt lat="45.92554" lon="1.17034">
        <ele>293.9</ele>
        <time>2022-10-02T09:25:01Z</time>
      </trkpt>
      <trkpt lat="45.92557" lon="1.17038">
        <ele>293.9</ele>
        <time>2022-10-02T09:25:02Z</time>
      </trkpt>
      <trkpt lat="45.9256" lon="1.17042">
        <ele>293.9</ele>
        <time>2022-10-02T09:25:03Z</time>
      </trkpt>
      <trkpt lat="45.92563" lon="1.17047">
        <ele>293.9</ele>
        <time>2022-10-02T09:25:04Z</time>
      </trkpt>
      <trkpt lat="45.92565" lon="1.17051">
        <ele>293.9</ele>
        <time>2022-10-02T09:25:05Z</time>
      </trkpt>
      <trkpt lat="45.92567" lon="1.17055">
        <ele>293.8</ele>
        <time>2022-10-02T09:25:06Z</time>
      </trkpt>
      <trkpt lat="45.92568" lon="1.1706">
        <ele>293.8</ele>
        <time>2022-10-02T09:25:07Z</time>
      </trkpt>
      <trkpt lat="45.9257" lon="1.17065">
        <ele>293.7</ele>
        <time>2022-10-02T09:25:08Z</time>
      </trkpt>
      <trkpt lat="45.92572" lon="1.17069">
        <ele>293.7</ele>
        <time>2022-10-02T09:25:09Z</time>
      </trkpt>
      <trkpt lat="45.92573" lon="1.17073">
        <ele>293.7</ele>
        <time>2022-10-02T09:25:10Z</time>
      </trkpt>
      <trkpt lat="45.92575" lon="1.17078">
        <ele>293.6</ele>
        <time>2022-10-02T09:25:11Z</time>
      </trkpt>
      <trkpt lat="45.92576" lon="1.17083">
        <ele>293.6</ele>
        <time>2022-10-02T09:25:12Z</time>
      </trkpt>
      <trkpt lat="45.92577" lon="1.17087">
        <ele>293.6</ele>
        <time>2022-10-02T09:25:13Z</time>
      </trkpt>
      <trkpt lat="45.92579" lon="1.17091">
        <ele>293.6</ele>
        <time>2022-10-02T09:25:14Z</time>
      </trkpt>
      <trkpt lat="45.92581" lon="1.17095">
        <ele>293.5</ele>
        <time>2022-10-02T09:25:15Z</time>
      </trkpt>
      <trkpt lat="45.92583" lon="1.171">
        <ele>293.5</ele>
        <time>2022-10-02T09:25:16Z</time>
      </trkpt>
      <trkpt lat="45.92586" lon="1.17105">
        <ele>293.5</ele>
        <time>2022-10-02T09:25:17Z</time>
      </trkpt>
      <trkpt lat="45.92588" lon="1.1711">
        <ele>293.4</ele>
        <time>2022-10-02T09:25:18Z</time>
      </trkpt>
      <trkpt lat="45.92591" lon="1.17114">
        <ele>293.4</ele>
        <time>2022-10-02T09:25:19Z</time>
      </trkpt>
      <trkpt lat="45.92593" lon="1.17119">
        <ele>293.4</ele>
        <time>2022-10-02T09:25:20Z</time>
      </trkpt>
      <trkpt lat="45.92595" lon="1.17124">
        <ele>293.3</ele>
        <time>2022-10-02T09:25:21Z</time>
      </trkpt>
      <trkpt lat="45.92598" lon="1.17129">
        <ele>293.3</ele>
        <time>2022-10-02T09:25:22Z</time>
      </trkpt>
      <trkpt lat="45.92603" lon="1.17135">
        <ele>293.3</ele>
        <time>2022-10-02T09:25:23Z</time>
      </trkpt>
      <trkpt lat="45.92605" lon="1.1714">
        <ele>293.2</ele>
        <time>2022-10-02T09:25:24Z</time>
      </trkpt>
      <trkpt lat="45.92606" lon="1.17145">
        <ele>293.2</ele>
        <time>2022-10-02T09:25:25Z</time>
      </trkpt>
      <trkpt lat="45.92609" lon="1.17151">
        <ele>293.2</ele>
        <time>2022-10-02T09:25:26Z</time>
      </trkpt>
      <trkpt lat="45.92609" lon="1.17157">
        <ele>293.2</ele>
        <time>2022-10-02T09:25:27Z</time>
      </trkpt>
      <trkpt lat="45.92609" lon="1.17163">
        <ele>293.2</ele>
        <time>2022-10-02T09:25:28Z</time>
      </trkpt>
      <trkpt lat="45.92608" lon="1.17169">
        <ele>293.2</ele>
        <time>2022-10-02T09:25:29Z</time>
      </trkpt>
      <trkpt lat="45.92607" lon="1.17174">
        <ele>293.5</ele>
        <time>2022-10-02T09:25:30Z</time>
      </trkpt>
      <trkpt lat="45.92604" lon="1.17179">
        <ele>293.7</ele>
        <time>2022-10-02T09:25:31Z</time>
      </trkpt>
      <trkpt lat="45.92602" lon="1.17184">
        <ele>294</ele>
        <time>2022-10-02T09:25:32Z</time>
      </trkpt>
      <trkpt lat="45.926" lon="1.17189">
        <ele>294.3</ele>
        <time>2022-10-02T09:25:33Z</time>
      </trkpt>
      <trkpt lat="45.92597" lon="1.17192">
        <ele>294.5</ele>
        <time>2022-10-02T09:25:34Z</time>
      </trkpt>
      <trkpt lat="45.92595" lon="1.17195">
        <ele>294.8</ele>
        <time>2022-10-02T09:25:35Z</time>
      </trkpt>
      <trkpt lat="45.92593" lon="1.17197">
        <ele>295</ele>
        <time>2022-10-02T09:25:36Z</time>
      </trkpt>
      <trkpt lat="45.92592" lon="1.172">
        <ele>295.2</ele>
        <time>2022-10-02T09:25:37Z</time>
      </trkpt>
      <trkpt lat="45.92589" lon="1.17202">
        <ele>295.4</ele>
        <time>2022-10-02T09:25:38Z</time>
      </trkpt>
      <trkpt lat="45.92587" lon="1.17205">
        <ele>295.7</ele>
        <time>2022-10-02T09:25:39Z</time>
      </trkpt>
      <trkpt lat="45.92585" lon="1.17208">
        <ele>295.9</ele>
        <time>2022-10-02T09:25:40Z</time>
      </trkpt>
      <trkpt lat="45.92583" lon="1.1721">
        <ele>296.2</ele>
        <time>2022-10-02T09:25:41Z</time>
      </trkpt>
      <trkpt lat="45.92581" lon="1.17212">
        <ele>296.4</ele>
        <time>2022-10-02T09:25:42Z</time>
      </trkpt>
      <trkpt lat="45.92578" lon="1.17214">
        <ele>296.7</ele>
        <time>2022-10-02T09:25:43Z</time>
      </trkpt>
      <trkpt lat="45.92577" lon="1.17217">
        <ele>296.9</ele>
        <time>2022-10-02T09:25:44Z</time>
      </trkpt>
      <trkpt lat="45.92575" lon="1.17219">
        <ele>297.1</ele>
        <time>2022-10-02T09:25:45Z</time>
      </trkpt>
      <trkpt lat="45.92573" lon="1.17222">
        <ele>297.1</ele>
        <time>2022-10-02T09:25:46Z</time>
      </trkpt>
      <trkpt lat="45.92571" lon="1.17226">
        <ele>297.1</ele>
        <time>2022-10-02T09:25:47Z</time>
      </trkpt>
      <trkpt lat="45.92569" lon="1.17229">
        <ele>297</ele>
        <time>2022-10-02T09:25:48Z</time>
      </trkpt>
      <trkpt lat="45.92567" lon="1.17232">
        <ele>297</ele>
        <time>2022-10-02T09:25:49Z</time>
      </trkpt>
      <trkpt lat="45.92565" lon="1.17234">
        <ele>296.9</ele>
        <time>2022-10-02T09:25:50Z</time>
      </trkpt>
      <trkpt lat="45.92564" lon="1.17236">
        <ele>296.9</ele>
        <time>2022-10-02T09:25:51Z</time>
      </trkpt>
      <trkpt lat="45.92562" lon="1.17237">
        <ele>296.9</ele>
        <time>2022-10-02T09:25:52Z</time>
      </trkpt>
      <trkpt lat="45.9256" lon="1.17238">
        <ele>296.9</ele>
        <time>2022-10-02T09:25:53Z</time>
      </trkpt>
      <trkpt lat="45.92559" lon="1.17237">
        <ele>296.8</ele>
        <time>2022-10-02T09:25:54Z</time>
      </trkpt>
      <trkpt lat="45.92557" lon="1.17237">
        <ele>296.8</ele>
        <time>2022-10-02T09:25:55Z</time>
      </trkpt>
      <trkpt lat="45.92555" lon="1.17236">
        <ele>296.8</ele>
        <time>2022-10-02T09:25:56Z</time>
      </trkpt>
      <trkpt lat="45.92554" lon="1.17234">
        <ele>296.9</ele>
        <time>2022-10-02T09:25:57Z</time>
      </trkpt>
      <trkpt lat="45.92554" lon="1.17232">
        <ele>296.9</ele>
        <time>2022-10-02T09:25:58Z</time>
      </trkpt>
      <trkpt lat="45.92553" lon="1.1723">
        <ele>296.9</ele>
        <time>2022-10-02T09:25:59Z</time>
      </trkpt>
      <trkpt lat="45.92551" lon="1.17228">
        <ele>296.9</ele>
        <time>2022-10-02T09:26:00Z</time>
      </trkpt>
      <trkpt lat="45.92548" lon="1.17226">
        <ele>297</ele>
        <time>2022-10-02T09:26:01Z</time>
      </trkpt>
      <trkpt lat="45.92546" lon="1.17224">
        <ele>297</ele>
        <time>2022-10-02T09:26:02Z</time>
      </trkpt>
      <trkpt lat="45.92543" lon="1.17222">
        <ele>297.1</ele>
        <time>2022-10-02T09:26:03Z</time>
      </trkpt>
      <trkpt lat="45.92541" lon="1.1722">
        <ele>297.1</ele>
        <time>2022-10-02T09:26:04Z</time>
      </trkpt>
      <trkpt lat="45.92539" lon="1.17218">
        <ele>297.2</ele>
        <time>2022-10-02T09:26:05Z</time>
      </trkpt>
      <trkpt lat="45.92536" lon="1.17216">
        <ele>297.2</ele>
        <time>2022-10-02T09:26:06Z</time>
      </trkpt>
      <trkpt lat="45.92534" lon="1.17214">
        <ele>297.3</ele>
        <time>2022-10-02T09:26:07Z</time>
      </trkpt>
      <trkpt lat="45.92532" lon="1.17212">
        <ele>297.5</ele>
        <time>2022-10-02T09:26:08Z</time>
      </trkpt>
      <trkpt lat="45.9253" lon="1.1721">
        <ele>297.6</ele>
        <time>2022-10-02T09:26:09Z</time>
      </trkpt>
      <trkpt lat="45.92528" lon="1.17209">
        <ele>297.8</ele>
        <time>2022-10-02T09:26:10Z</time>
      </trkpt>
      <trkpt lat="45.92526" lon="1.17208">
        <ele>298</ele>
        <time>2022-10-02T09:26:11Z</time>
      </trkpt>
      <trkpt lat="45.92524" lon="1.17207">
        <ele>298.1</ele>
        <time>2022-10-02T09:26:12Z</time>
      </trkpt>
      <trkpt lat="45.92522" lon="1.17205">
        <ele>298.3</ele>
        <time>2022-10-02T09:26:13Z</time>
      </trkpt>
      <trkpt lat="45.9252" lon="1.17204">
        <ele>298.4</ele>
        <time>2022-10-02T09:26:14Z</time>
      </trkpt>
      <trkpt lat="45.92519" lon="1.17202">
        <ele>298.5</ele>
        <time>2022-10-02T09:26:15Z</time>
      </trkpt>
      <trkpt lat="45.92518" lon="1.172">
        <ele>298.7</ele>
        <time>2022-10-02T09:26:16Z</time>
      </trkpt>
      <trkpt lat="45.92516" lon="1.17199">
        <ele>298.8</ele>
        <time>2022-10-02T09:26:17Z</time>
      </trkpt>
      <trkpt lat="45.92514" lon="1.17196">
        <ele>299</ele>
        <time>2022-10-02T09:26:18Z</time>
      </trkpt>
      <trkpt lat="45.92512" lon="1.17195">
        <ele>299.2</ele>
        <time>2022-10-02T09:26:19Z</time>
      </trkpt>
      <trkpt lat="45.9251" lon="1.17193">
        <ele>299.4</ele>
        <time>2022-10-02T09:26:20Z</time>
      </trkpt>
      <trkpt lat="45.92508" lon="1.17191">
        <ele>299.5</ele>
        <time>2022-10-02T09:26:21Z</time>
      </trkpt>
      <trkpt lat="45.92507" lon="1.17189">
        <ele>299.7</ele>
        <time>2022-10-02T09:26:22Z</time>
      </trkpt>
      <trkpt lat="45.92505" lon="1.17187">
        <ele>299.9</ele>
        <time>2022-10-02T09:26:23Z</time>
      </trkpt>
      <trkpt lat="45.92503" lon="1.17185">
        <ele>300.1</ele>
        <time>2022-10-02T09:26:24Z</time>
      </trkpt>
      <trkpt lat="45.92501" lon="1.17184">
        <ele>300.3</ele>
        <time>2022-10-02T09:26:25Z</time>
      </trkpt>
      <trkpt lat="45.92499" lon="1.17183">
        <ele>300.4</ele>
        <time>2022-10-02T09:26:26Z</time>
      </trkpt>
      <trkpt lat="45.92498" lon="1.17181">
        <ele>300.6</ele>
        <time>2022-10-02T09:26:27Z</time>
      </trkpt>
      <trkpt lat="45.92496" lon="1.1718">
        <ele>300.8</ele>
        <time>2022-10-02T09:26:28Z</time>
      </trkpt>
      <trkpt lat="45.92493" lon="1.17179">
        <ele>301</ele>
        <time>2022-10-02T09:26:29Z</time>
      </trkpt>
      <trkpt lat="45.92491" lon="1.17178">
        <ele>301.2</ele>
        <time>2022-10-02T09:26:30Z</time>
      </trkpt>
      <trkpt lat="45.9249" lon="1.17176">
        <ele>301.3</ele>
        <time>2022-10-02T09:26:31Z</time>
      </trkpt>
      <trkpt lat="45.92488" lon="1.17173">
        <ele>301.5</ele>
        <time>2022-10-02T09:26:32Z</time>
      </trkpt>
      <trkpt lat="45.92486" lon="1.17171">
        <ele>301.7</ele>
        <time>2022-10-02T09:26:33Z</time>
      </trkpt>
      <trkpt lat="45.92484" lon="1.17169">
        <ele>301.9</ele>
        <time>2022-10-02T09:26:34Z</time>
      </trkpt>
      <trkpt lat="45.92482" lon="1.17166">
        <ele>302.1</ele>
        <time>2022-10-02T09:26:35Z</time>
      </trkpt>
      <trkpt lat="45.9248" lon="1.17164">
        <ele>302.3</ele>
        <time>2022-10-02T09:26:36Z</time>
      </trkpt>
      <trkpt lat="45.92478" lon="1.17163">
        <ele>302.5</ele>
        <time>2022-10-02T09:26:37Z</time>
      </trkpt>
      <trkpt lat="45.92476" lon="1.17162">
        <ele>302.7</ele>
        <time>2022-10-02T09:26:38Z</time>
      </trkpt>
      <trkpt lat="45.92474" lon="1.17161">
        <ele>302.8</ele>
        <time>2022-10-02T09:26:39Z</time>
      </trkpt>
      <trkpt lat="45.92472" lon="1.17162">
        <ele>303</ele>
        <time>2022-10-02T09:26:40Z</time>
      </trkpt>
      <trkpt lat="45.92471" lon="1.17163">
        <ele>303.1</ele>
        <time>2022-10-02T09:26:41Z</time>
      </trkpt>
      <trkpt lat="45.9247" lon="1.17163">
        <ele>303.2</ele>
        <time>2022-10-02T09:26:42Z</time>
      </trkpt>
      <trkpt lat="45.92469" lon="1.17165">
        <ele>303.6</ele>
        <time>2022-10-02T09:26:43Z</time>
      </trkpt>
      <trkpt lat="45.92468" lon="1.17167">
        <ele>303.7</ele>
        <time>2022-10-02T09:26:44Z</time>
      </trkpt>
      <trkpt lat="45.92468" lon="1.1717">
        <ele>303.9</ele>
        <time>2022-10-02T09:26:45Z</time>
      </trkpt>
      <trkpt lat="45.92469" lon="1.17172">
        <ele>304</ele>
        <time>2022-10-02T09:26:46Z</time>
      </trkpt>
      <trkpt lat="45.9247" lon="1.17175">
        <ele>304</ele>
        <time>2022-10-02T09:26:47Z</time>
      </trkpt>
      <trkpt lat="45.92471" lon="1.17178">
        <ele>304</ele>
        <time>2022-10-02T09:26:48Z</time>
      </trkpt>
      <trkpt lat="45.92472" lon="1.17182">
        <ele>304</ele>
        <time>2022-10-02T09:26:49Z</time>
      </trkpt>
      <trkpt lat="45.92473" lon="1.17184">
        <ele>304.1</ele>
        <time>2022-10-02T09:26:50Z</time>
      </trkpt>
      <trkpt lat="45.92474" lon="1.17187">
        <ele>304.1</ele>
        <time>2022-10-02T09:26:51Z</time>
      </trkpt>
      <trkpt lat="45.92476" lon="1.1719">
        <ele>304.1</ele>
        <time>2022-10-02T09:26:52Z</time>
      </trkpt>
      <trkpt lat="45.92477" lon="1.17194">
        <ele>304.1</ele>
        <time>2022-10-02T09:26:53Z</time>
      </trkpt>
      <trkpt lat="45.92478" lon="1.17197">
        <ele>304.2</ele>
        <time>2022-10-02T09:26:54Z</time>
      </trkpt>
      <trkpt lat="45.92479" lon="1.17201">
        <ele>304.2</ele>
        <time>2022-10-02T09:26:55Z</time>
      </trkpt>
      <trkpt lat="45.9248" lon="1.17204">
        <ele>304.2</ele>
        <time>2022-10-02T09:26:56Z</time>
      </trkpt>
      <trkpt lat="45.92481" lon="1.17208">
        <ele>304.2</ele>
        <time>2022-10-02T09:26:57Z</time>
      </trkpt>
      <trkpt lat="45.92482" lon="1.17211">
        <ele>304.2</ele>
        <time>2022-10-02T09:26:58Z</time>
      </trkpt>
      <trkpt lat="45.92482" lon="1.17214">
        <ele>304.2</ele>
        <time>2022-10-02T09:26:59Z</time>
      </trkpt>
      <trkpt lat="45.92483" lon="1.17217">
        <ele>304.3</ele>
        <time>2022-10-02T09:27:00Z</time>
      </trkpt>
      <trkpt lat="45.92484" lon="1.1722">
        <ele>304.3</ele>
        <time>2022-10-02T09:27:01Z</time>
      </trkpt>
      <trkpt lat="45.92486" lon="1.17223">
        <ele>304.3</ele>
        <time>2022-10-02T09:27:02Z</time>
      </trkpt>
      <trkpt lat="45.92487" lon="1.17226">
        <ele>304.3</ele>
        <time>2022-10-02T09:27:03Z</time>
      </trkpt>
      <trkpt lat="45.92488" lon="1.17229">
        <ele>304.3</ele>
        <time>2022-10-02T09:27:04Z</time>
      </trkpt>
      <trkpt lat="45.9249" lon="1.17232">
        <ele>304.4</ele>
        <time>2022-10-02T09:27:05Z</time>
      </trkpt>
      <trkpt lat="45.92491" lon="1.17235">
        <ele>304.4</ele>
        <time>2022-10-02T09:27:06Z</time>
      </trkpt>
      <trkpt lat="45.92492" lon="1.17239">
        <ele>304.4</ele>
        <time>2022-10-02T09:27:07Z</time>
      </trkpt>
      <trkpt lat="45.92494" lon="1.17242">
        <ele>304.4</ele>
        <time>2022-10-02T09:27:08Z</time>
      </trkpt>
      <trkpt lat="45.92495" lon="1.17246">
        <ele>304.5</ele>
        <time>2022-10-02T09:27:09Z</time>
      </trkpt>
      <trkpt lat="45.92496" lon="1.17249">
        <ele>304.5</ele>
        <time>2022-10-02T09:27:10Z</time>
      </trkpt>
      <trkpt lat="45.92497" lon="1.17253">
        <ele>304.5</ele>
        <time>2022-10-02T09:27:11Z</time>
      </trkpt>
      <trkpt lat="45.92499" lon="1.17255">
        <ele>304.5</ele>
        <time>2022-10-02T09:27:12Z</time>
      </trkpt>
      <trkpt lat="45.92501" lon="1.17257">
        <ele>304.6</ele>
        <time>2022-10-02T09:27:13Z</time>
      </trkpt>
      <trkpt lat="45.92503" lon="1.1726">
        <ele>304.6</ele>
        <time>2022-10-02T09:27:14Z</time>
      </trkpt>
      <trkpt lat="45.92504" lon="1.17262">
        <ele>304.6</ele>
        <time>2022-10-02T09:27:15Z</time>
      </trkpt>
      <trkpt lat="45.92504" lon="1.17265">
        <ele>304.6</ele>
        <time>2022-10-02T09:27:16Z</time>
      </trkpt>
      <trkpt lat="45.92504" lon="1.17267">
        <ele>304.6</ele>
        <time>2022-10-02T09:27:17Z</time>
      </trkpt>
      <trkpt lat="45.92504" lon="1.1727">
        <ele>304.7</ele>
        <time>2022-10-02T09:27:18Z</time>
      </trkpt>
      <trkpt lat="45.92503" lon="1.17273">
        <ele>304.7</ele>
        <time>2022-10-02T09:27:19Z</time>
      </trkpt>
      <trkpt lat="45.92502" lon="1.17277">
        <ele>304.7</ele>
        <time>2022-10-02T09:27:20Z</time>
      </trkpt>
      <trkpt lat="45.92501" lon="1.1728">
        <ele>304.7</ele>
        <time>2022-10-02T09:27:21Z</time>
      </trkpt>
      <trkpt lat="45.92501" lon="1.17283">
        <ele>304.7</ele>
        <time>2022-10-02T09:27:22Z</time>
      </trkpt>
      <trkpt lat="45.92499" lon="1.17286">
        <ele>304.7</ele>
        <time>2022-10-02T09:27:23Z</time>
      </trkpt>
      <trkpt lat="45.92498" lon="1.1729">
        <ele>304.7</ele>
        <time>2022-10-02T09:27:24Z</time>
      </trkpt>
      <trkpt lat="45.92496" lon="1.17293">
        <ele>304.7</ele>
        <time>2022-10-02T09:27:25Z</time>
      </trkpt>
      <trkpt lat="45.92494" lon="1.17296">
        <ele>304.7</ele>
        <time>2022-10-02T09:27:26Z</time>
      </trkpt>
      <trkpt lat="45.92493" lon="1.173">
        <ele>304.7</ele>
        <time>2022-10-02T09:27:27Z</time>
      </trkpt>
      <trkpt lat="45.92491" lon="1.17304">
        <ele>304.7</ele>
        <time>2022-10-02T09:27:28Z</time>
      </trkpt>
      <trkpt lat="45.9249" lon="1.17308">
        <ele>304.7</ele>
        <time>2022-10-02T09:27:29Z</time>
      </trkpt>
      <trkpt lat="45.92489" lon="1.17312">
        <ele>304.7</ele>
        <time>2022-10-02T09:27:30Z</time>
      </trkpt>
      <trkpt lat="45.92488" lon="1.17315">
        <ele>304.7</ele>
        <time>2022-10-02T09:27:31Z</time>
      </trkpt>
      <trkpt lat="45.92486" lon="1.17318">
        <ele>304.7</ele>
        <time>2022-10-02T09:27:32Z</time>
      </trkpt>
      <trkpt lat="45.92485" lon="1.17321">
        <ele>304.7</ele>
        <time>2022-10-02T09:27:33Z</time>
      </trkpt>
      <trkpt lat="45.92483" lon="1.17324">
        <ele>304.7</ele>
        <time>2022-10-02T09:27:34Z</time>
      </trkpt>
      <trkpt lat="45.92481" lon="1.17326">
        <ele>304.7</ele>
        <time>2022-10-02T09:27:35Z</time>
      </trkpt>
      <trkpt lat="45.92478" lon="1.17329">
        <ele>304.6</ele>
        <time>2022-10-02T09:27:36Z</time>
      </trkpt>
      <trkpt lat="45.92475" lon="1.17332">
        <ele>304.5</ele>
        <time>2022-10-02T09:27:37Z</time>
      </trkpt>
      <trkpt lat="45.92471" lon="1.17333">
        <ele>304.5</ele>
        <time>2022-10-02T09:27:38Z</time>
      </trkpt>
      <trkpt lat="45.92468" lon="1.17335">
        <ele>304.4</ele>
        <time>2022-10-02T09:27:39Z</time>
      </trkpt>
      <trkpt lat="45.92465" lon="1.17336">
        <ele>304.4</ele>
        <time>2022-10-02T09:27:40Z</time>
      </trkpt>
      <trkpt lat="45.92462" lon="1.17338">
        <ele>304.3</ele>
        <time>2022-10-02T09:27:41Z</time>
      </trkpt>
      <trkpt lat="45.92459" lon="1.17339">
        <ele>304.3</ele>
        <time>2022-10-02T09:27:42Z</time>
      </trkpt>
      <trkpt lat="45.92456" lon="1.1734">
        <ele>304.2</ele>
        <time>2022-10-02T09:27:43Z</time>
      </trkpt>
      <trkpt lat="45.92453" lon="1.17341">
        <ele>304.2</ele>
        <time>2022-10-02T09:27:44Z</time>
      </trkpt>
      <trkpt lat="45.92451" lon="1.17343">
        <ele>304.2</ele>
        <time>2022-10-02T09:27:45Z</time>
      </trkpt>
      <trkpt lat="45.92448" lon="1.17347">
        <ele>304.2</ele>
        <time>2022-10-02T09:27:46Z</time>
      </trkpt>
      <trkpt lat="45.92444" lon="1.17351">
        <ele>304.2</ele>
        <time>2022-10-02T09:27:47Z</time>
      </trkpt>
      <trkpt lat="45.92442" lon="1.17354">
        <ele>304.2</ele>
        <time>2022-10-02T09:27:48Z</time>
      </trkpt>
      <trkpt lat="45.92439" lon="1.17357">
        <ele>304.2</ele>
        <time>2022-10-02T09:27:49Z</time>
      </trkpt>
      <trkpt lat="45.92436" lon="1.17361">
        <ele>304.2</ele>
        <time>2022-10-02T09:27:50Z</time>
      </trkpt>
      <trkpt lat="45.92433" lon="1.17364">
        <ele>304.2</ele>
        <time>2022-10-02T09:27:52Z</time>
      </trkpt>
      <trkpt lat="45.9243" lon="1.17366">
        <ele>304.3</ele>
        <time>2022-10-02T09:27:53Z</time>
      </trkpt>
      <trkpt lat="45.92427" lon="1.17369">
        <ele>304.3</ele>
        <time>2022-10-02T09:27:54Z</time>
      </trkpt>
      <trkpt lat="45.92424" lon="1.17372">
        <ele>304.4</ele>
        <time>2022-10-02T09:27:55Z</time>
      </trkpt>
      <trkpt lat="45.92421" lon="1.17375">
        <ele>304.5</ele>
        <time>2022-10-02T09:27:56Z</time>
      </trkpt>
      <trkpt lat="45.92418" lon="1.17377">
        <ele>304.6</ele>
        <time>2022-10-02T09:27:57Z</time>
      </trkpt>
      <trkpt lat="45.92416" lon="1.1738">
        <ele>304.7</ele>
        <time>2022-10-02T09:27:58Z</time>
      </trkpt>
      <trkpt lat="45.92415" lon="1.17383">
        <ele>304.8</ele>
        <time>2022-10-02T09:27:59Z</time>
      </trkpt>
      <trkpt lat="45.92413" lon="1.17386">
        <ele>304.9</ele>
        <time>2022-10-02T09:28:00Z</time>
      </trkpt>
      <trkpt lat="45.92412" lon="1.17389">
        <ele>305</ele>
        <time>2022-10-02T09:28:01Z</time>
      </trkpt>
      <trkpt lat="45.92411" lon="1.17393">
        <ele>305.1</ele>
        <time>2022-10-02T09:28:02Z</time>
      </trkpt>
      <trkpt lat="45.9241" lon="1.17397">
        <ele>305.3</ele>
        <time>2022-10-02T09:28:03Z</time>
      </trkpt>
      <trkpt lat="45.92409" lon="1.17401">
        <ele>305.4</ele>
        <time>2022-10-02T09:28:04Z</time>
      </trkpt>
      <trkpt lat="45.92409" lon="1.17404">
        <ele>305.6</ele>
        <time>2022-10-02T09:28:05Z</time>
      </trkpt>
      <trkpt lat="45.92408" lon="1.17407">
        <ele>305.7</ele>
        <time>2022-10-02T09:28:06Z</time>
      </trkpt>
      <trkpt lat="45.92406" lon="1.17411">
        <ele>305.9</ele>
        <time>2022-10-02T09:28:07Z</time>
      </trkpt>
      <trkpt lat="45.92405" lon="1.17414">
        <ele>306.2</ele>
        <time>2022-10-02T09:28:08Z</time>
      </trkpt>
      <trkpt lat="45.92405" lon="1.17417">
        <ele>306.4</ele>
        <time>2022-10-02T09:28:09Z</time>
      </trkpt>
      <trkpt lat="45.92405" lon="1.1742">
        <ele>306.6</ele>
        <time>2022-10-02T09:28:10Z</time>
      </trkpt>
      <trkpt lat="45.92405" lon="1.17423">
        <ele>306.8</ele>
        <time>2022-10-02T09:28:11Z</time>
      </trkpt>
      <trkpt lat="45.92404" lon="1.17426">
        <ele>307</ele>
        <time>2022-10-02T09:28:12Z</time>
      </trkpt>
      <trkpt lat="45.92404" lon="1.17428">
        <ele>307.2</ele>
        <time>2022-10-02T09:28:13Z</time>
      </trkpt>
      <trkpt lat="45.92403" lon="1.1743">
        <ele>307.4</ele>
        <time>2022-10-02T09:28:14Z</time>
      </trkpt>
      <trkpt lat="45.92403" lon="1.17432">
        <ele>307.6</ele>
        <time>2022-10-02T09:28:15Z</time>
      </trkpt>
      <trkpt lat="45.92403" lon="1.17435">
        <ele>307.8</ele>
        <time>2022-10-02T09:28:16Z</time>
      </trkpt>
      <trkpt lat="45.92402" lon="1.17438">
        <ele>308.1</ele>
        <time>2022-10-02T09:28:17Z</time>
      </trkpt>
      <trkpt lat="45.92402" lon="1.17441">
        <ele>308.3</ele>
        <time>2022-10-02T09:28:18Z</time>
      </trkpt>
      <trkpt lat="45.92402" lon="1.17443">
        <ele>308.5</ele>
        <time>2022-10-02T09:28:19Z</time>
      </trkpt>
      <trkpt lat="45.92402" lon="1.17445">
        <ele>308.7</ele>
        <time>2022-10-02T09:28:20Z</time>
      </trkpt>
      <trkpt lat="45.92402" lon="1.17447">
        <ele>308.8</ele>
        <time>2022-10-02T09:28:21Z</time>
      </trkpt>
      <trkpt lat="45.92402" lon="1.17449">
        <ele>309.1</ele>
        <time>2022-10-02T09:28:22Z</time>
      </trkpt>
      <trkpt lat="45.92402" lon="1.17451">
        <ele>309.2</ele>
        <time>2022-10-02T09:28:23Z</time>
      </trkpt>
      <trkpt lat="45.92402" lon="1.17453">
        <ele>309.4</ele>
        <time>2022-10-02T09:28:24Z</time>
      </trkpt>
      <trkpt lat="45.92401" lon="1.17455">
        <ele>309.6</ele>
        <time>2022-10-02T09:28:25Z</time>
      </trkpt>
      <trkpt lat="45.92401" lon="1.17457">
        <ele>309.8</ele>
        <time>2022-10-02T09:28:26Z</time>
      </trkpt>
      <trkpt lat="45.924" lon="1.17459">
        <ele>309.9</ele>
        <time>2022-10-02T09:28:27Z</time>
      </trkpt>
      <trkpt lat="45.92399" lon="1.17462">
        <ele>310.1</ele>
        <time>2022-10-02T09:28:28Z</time>
      </trkpt>
      <trkpt lat="45.92398" lon="1.17464">
        <ele>310.3</ele>
        <time>2022-10-02T09:28:29Z</time>
      </trkpt>
      <trkpt lat="45.92397" lon="1.17466">
        <ele>310.5</ele>
        <time>2022-10-02T09:28:30Z</time>
      </trkpt>
      <trkpt lat="45.92397" lon="1.17468">
        <ele>310.7</ele>
        <time>2022-10-02T09:28:31Z</time>
      </trkpt>
      <trkpt lat="45.92396" lon="1.17472">
        <ele>310.9</ele>
        <time>2022-10-02T09:28:32Z</time>
      </trkpt>
      <trkpt lat="45.92396" lon="1.17474">
        <ele>311.1</ele>
        <time>2022-10-02T09:28:33Z</time>
      </trkpt>
      <trkpt lat="45.92394" lon="1.17477">
        <ele>311.3</ele>
        <time>2022-10-02T09:28:34Z</time>
      </trkpt>
      <trkpt lat="45.92394" lon="1.1748">
        <ele>311.5</ele>
        <time>2022-10-02T09:28:35Z</time>
      </trkpt>
      <trkpt lat="45.92393" lon="1.17481">
        <ele>311.6</ele>
        <time>2022-10-02T09:28:36Z</time>
      </trkpt>
      <trkpt lat="45.92392" lon="1.17482">
        <ele>311.6</ele>
        <time>2022-10-02T09:28:37Z</time>
      </trkpt>
      <trkpt lat="45.92392" lon="1.17483">
        <ele>311.7</ele>
        <time>2022-10-02T09:28:38Z</time>
      </trkpt>
      <trkpt lat="45.92391" lon="1.17486">
        <ele>311.9</ele>
        <time>2022-10-02T09:28:39Z</time>
      </trkpt>
      <trkpt lat="45.92391" lon="1.17488">
        <ele>312</ele>
        <time>2022-10-02T09:28:40Z</time>
      </trkpt>
      <trkpt lat="45.92391" lon="1.1749">
        <ele>312</ele>
        <time>2022-10-02T09:28:41Z</time>
      </trkpt>
      <trkpt lat="45.9239" lon="1.17491">
        <ele>312.1</ele>
        <time>2022-10-02T09:28:42Z</time>
      </trkpt>
      <trkpt lat="45.9239" lon="1.17493">
        <ele>312.2</ele>
        <time>2022-10-02T09:28:43Z</time>
      </trkpt>
      <trkpt lat="45.9239" lon="1.17496">
        <ele>312.3</ele>
        <time>2022-10-02T09:28:44Z</time>
      </trkpt>
      <trkpt lat="45.9239" lon="1.17498">
        <ele>312.4</ele>
        <time>2022-10-02T09:28:45Z</time>
      </trkpt>
      <trkpt lat="45.9239" lon="1.17501">
        <ele>312.5</ele>
        <time>2022-10-02T09:28:46Z</time>
      </trkpt>
      <trkpt lat="45.9239" lon="1.17503">
        <ele>312.6</ele>
        <time>2022-10-02T09:28:47Z</time>
      </trkpt>
      <trkpt lat="45.92389" lon="1.17505">
        <ele>312.6</ele>
        <time>2022-10-02T09:28:48Z</time>
      </trkpt>
      <trkpt lat="45.9239" lon="1.17507">
        <ele>312.7</ele>
        <time>2022-10-02T09:28:49Z</time>
      </trkpt>
      <trkpt lat="45.9239" lon="1.17509">
        <ele>312.7</ele>
        <time>2022-10-02T09:28:50Z</time>
      </trkpt>
      <trkpt lat="45.92389" lon="1.17517">
        <ele>312.8</ele>
        <time>2022-10-02T09:29:05Z</time>
      </trkpt>
      <trkpt lat="45.92388" lon="1.17518">
        <ele>312.8</ele>
        <time>2022-10-02T09:29:07Z</time>
      </trkpt>
      <trkpt lat="45.92382" lon="1.17531">
        <ele>312.9</ele>
        <time>2022-10-02T09:29:26Z</time>
      </trkpt>
      <trkpt lat="45.92381" lon="1.17533">
        <ele>312.9</ele>
        <time>2022-10-02T09:29:27Z</time>
      </trkpt>
      <trkpt lat="45.9238" lon="1.17533">
        <ele>312.9</ele>
        <time>2022-10-02T09:29:28Z</time>
      </trkpt>
      <trkpt lat="45.92378" lon="1.17534">
        <ele>312.9</ele>
        <time>2022-10-02T09:29:29Z</time>
      </trkpt>
      <trkpt lat="45.92377" lon="1.17535">
        <ele>312.9</ele>
        <time>2022-10-02T09:29:30Z</time>
      </trkpt>
      <trkpt lat="45.92376" lon="1.17535">
        <ele>312.9</ele>
        <time>2022-10-02T09:29:32Z</time>
      </trkpt>
      <trkpt lat="45.92375" lon="1.17535">
        <ele>312.9</ele>
        <time>2022-10-02T09:29:33Z</time>
      </trkpt>
      <trkpt lat="45.92371" lon="1.1754">
        <ele>313</ele>
        <time>2022-10-02T09:29:40Z</time>
      </trkpt>
      <trkpt lat="45.9237" lon="1.17543">
        <ele>313</ele>
        <time>2022-10-02T09:29:41Z</time>
      </trkpt>
      <trkpt lat="45.92369" lon="1.17544">
        <ele>313</ele>
        <time>2022-10-02T09:29:42Z</time>
      </trkpt>
      <trkpt lat="45.92369" lon="1.17545">
        <ele>313</ele>
        <time>2022-10-02T09:29:43Z</time>
      </trkpt>
      <trkpt lat="45.92368" lon="1.17546">
        <ele>313</ele>
        <time>2022-10-02T09:29:44Z</time>
      </trkpt>
      <trkpt lat="45.92367" lon="1.17547">
        <ele>313</ele>
        <time>2022-10-02T09:29:45Z</time>
      </trkpt>
      <trkpt lat="45.92368" lon="1.17548">
        <ele>313</ele>
        <time>2022-10-02T09:29:49Z</time>
      </trkpt>
      <trkpt lat="45.92368" lon="1.17548">
        <ele>313</ele>
        <time>2022-10-02T09:29:50Z</time>
      </trkpt>
      <trkpt lat="45.92369" lon="1.17548">
        <ele>313</ele>
        <time>2022-10-02T09:29:51Z</time>
      </trkpt>
      <trkpt lat="45.92371" lon="1.17548">
        <ele>312.9</ele>
        <time>2022-10-02T09:29:53Z</time>
      </trkpt>
      <trkpt lat="45.92373" lon="1.1755">
        <ele>312.9</ele>
        <time>2022-10-02T09:29:58Z</time>
      </trkpt>
      <trkpt lat="45.92374" lon="1.17551">
        <ele>312.9</ele>
        <time>2022-10-02T09:29:59Z</time>
        <extensions>
          <visugpx:TrkExtension xmlns:visugpx="https://www.visugpx.com/editgpx/">
            <visugpx:node>1</visugpx:node>
            </visugpx:TrkExtension>
        </extensions>
      </trkpt>
    </trkseg>
  </trk>
</gpx>